<?xml version='1.0' encoding='UTF-8'?><gpx version="1.1" creator="JPX - https://github.com/jenetics/jpx" xmlns="http://www.topografix.com/GPX/1/1"><trk><trkseg><trkpt lat="37.2870181" lon="9.8729266"><ele>3.9999999999999996</ele><time>2026-05-05T08:12:50.713Z</time></trkpt><trkpt lat="37.2870237" lon="9.8728309"><ele>4.0</ele><time>2026-05-05T08:12:52.704Z</time></trkpt><trkpt lat="37.287033" lon="9.8727236"><ele>4.0</ele><time>2026-05-05T08:12:54.71Z</time></trkpt><trkpt lat="37.2870399" lon="9.8726417"><ele>4.0</ele><time>2026-05-05T08:12:56.712Z</time></trkpt><trkpt lat="37.2870351" lon="9.8725608"><ele>3.9999999999999996</ele><time>2026-05-05T08:12:59.7Z</time></trkpt><trkpt lat="37.2869377" lon="9.8724994"><ele>4.0</ele><time>2026-05-05T08:13:02.698Z</time></trkpt><trkpt lat="37.2868745" lon="9.8725065"><ele>4.333333333333333</ele><time>2026-05-05T08:13:03.705Z</time></trkpt><trkpt lat="37.2867466" lon="9.8725008"><ele>4.666666666666666</ele><time>2026-05-05T08:13:05.728Z</time></trkpt><trkpt lat="37.2866829" lon="9.8724734"><ele>5.0</ele><time>2026-05-05T08:13:06.713Z</time></trkpt><trkpt lat="37.2866209" lon="9.8724462"><ele>5.333333333333333</ele><time>2026-05-05T08:13:07.719Z</time></trkpt><trkpt lat="37.286507" lon="9.8723946"><ele>5.666666666666667</ele><time>2026-05-05T08:13:09.724Z</time></trkpt><trkpt lat="37.2864474" lon="9.8723676"><ele>6.0</ele><time>2026-05-05T08:13:10.702Z</time></trkpt><trkpt lat="37.2863907" lon="9.8723301"><ele>6.4</ele><time>2026-05-05T08:13:11.71Z</time></trkpt><trkpt lat="37.2862899" lon="9.872269"><ele>6.8</ele><time>2026-05-05T08:13:13.71Z</time></trkpt><trkpt lat="37.2862058" lon="9.872196"><ele>7.200000000000001</ele><time>2026-05-05T08:13:15.715Z</time></trkpt><trkpt lat="37.2861256" lon="9.8721077"><ele>7.6000000000000005</ele><time>2026-05-05T08:13:17.71Z</time></trkpt><trkpt lat="37.2860507" lon="9.8720269"><ele>8.0</ele><time>2026-05-05T08:13:20.715Z</time></trkpt><trkpt lat="37.2859999" lon="9.8719575"><ele>7.999999999999999</ele><time>2026-05-05T08:13:23.72Z</time></trkpt><trkpt lat="37.2859429" lon="9.8719046"><ele>8.0</ele><time>2026-05-05T08:13:26.717Z</time></trkpt><trkpt lat="37.2858555" lon="9.8719026"><ele>8.0</ele><time>2026-05-05T08:13:29.717Z</time></trkpt><trkpt lat="37.2857404" lon="9.8719701"><ele>8.0</ele><time>2026-05-05T08:13:31.72Z</time></trkpt><trkpt lat="37.2856785" lon="9.8720155"><ele>7.999999999999999</ele><time>2026-05-05T08:13:32.693Z</time></trkpt><trkpt lat="37.2856199" lon="9.872064"><ele>8.0</ele><time>2026-05-05T08:13:33.712Z</time></trkpt><trkpt lat="37.2855572" lon="9.8721079"><ele>7.333333333333333</ele><time>2026-05-05T08:13:34.695Z</time></trkpt><trkpt lat="37.2854918" lon="9.87216"><ele>6.666666666666666</ele><time>2026-05-05T08:13:35.707Z</time></trkpt><trkpt lat="37.285433" lon="9.8722159"><ele>6.0</ele><time>2026-05-05T08:13:36.692Z</time></trkpt><trkpt lat="37.2853694" lon="9.8722771"><ele>5.333333333333333</ele><time>2026-05-05T08:13:37.691Z</time></trkpt><trkpt lat="37.2853021" lon="9.872333"><ele>4.666666666666666</ele><time>2026-05-05T08:13:38.693Z</time></trkpt><trkpt lat="37.2852325" lon="9.8723995"><ele>4.0</ele><time>2026-05-05T08:13:39.689Z</time></trkpt><trkpt lat="37.285159" lon="9.8724687"><ele>4.0</ele><time>2026-05-05T08:13:40.689Z</time></trkpt><trkpt lat="37.2850794" lon="9.8725428"><ele>4.0</ele><time>2026-05-05T08:13:41.684Z</time></trkpt><trkpt lat="37.2849986" lon="9.8726141"><ele>4.0</ele><time>2026-05-05T08:13:42.709Z</time></trkpt><trkpt lat="37.2849174" lon="9.872685"><ele>4.0</ele><time>2026-05-05T08:13:43.728Z</time></trkpt><trkpt lat="37.2848346" lon="9.8727624"><ele>4.0</ele><time>2026-05-05T08:13:44.725Z</time></trkpt><trkpt lat="37.2847539" lon="9.8728421"><ele>3.8000000000000003</ele><time>2026-05-05T08:13:45.712Z</time></trkpt><trkpt lat="37.2846693" lon="9.8729232"><ele>3.6000000000000005</ele><time>2026-05-05T08:13:46.734Z</time></trkpt><trkpt lat="37.2845849" lon="9.8730037"><ele>3.4</ele><time>2026-05-05T08:13:47.733Z</time></trkpt><trkpt lat="37.2845045" lon="9.8730886"><ele>3.2</ele><time>2026-05-05T08:13:48.707Z</time></trkpt><trkpt lat="37.2844228" lon="9.8731692"><ele>3.0</ele><time>2026-05-05T08:13:49.729Z</time></trkpt><trkpt lat="37.2843403" lon="9.8732477"><ele>3.0</ele><time>2026-05-05T08:13:50.718Z</time></trkpt><trkpt lat="37.2842619" lon="9.8733281"><ele>3.0</ele><time>2026-05-05T08:13:51.705Z</time></trkpt><trkpt lat="37.2841914" lon="9.8734234"><ele>3.0</ele><time>2026-05-05T08:13:52.732Z</time></trkpt><trkpt lat="37.2841306" lon="9.8735277"><ele>3.0</ele><time>2026-05-05T08:13:53.708Z</time></trkpt><trkpt lat="37.28407" lon="9.873637"><ele>3.0</ele><time>2026-05-05T08:13:54.717Z</time></trkpt><trkpt lat="37.2840063" lon="9.8737491"><ele>3.0</ele><time>2026-05-05T08:13:55.728Z</time></trkpt><trkpt lat="37.2839478" lon="9.8738669"><ele>3.0</ele><time>2026-05-05T08:13:56.732Z</time></trkpt><trkpt lat="37.2838922" lon="9.8739863"><ele>3.0</ele><time>2026-05-05T08:13:57.722Z</time></trkpt><trkpt lat="37.2838338" lon="9.8741051"><ele>3.0</ele><time>2026-05-05T08:13:58.733Z</time></trkpt><trkpt lat="37.2837814" lon="9.8742242"><ele>3.0</ele><time>2026-05-05T08:13:59.722Z</time></trkpt><trkpt lat="37.2837296" lon="9.8743446"><ele>2.8</ele><time>2026-05-05T08:14:00.724Z</time></trkpt><trkpt lat="37.2836821" lon="9.874462"><ele>2.5999999999999996</ele><time>2026-05-05T08:14:01.729Z</time></trkpt><trkpt lat="37.2836364" lon="9.8745803"><ele>2.4000000000000004</ele><time>2026-05-05T08:14:02.747Z</time></trkpt><trkpt lat="37.2835945" lon="9.8746981"><ele>2.2</ele><time>2026-05-05T08:14:03.719Z</time></trkpt><trkpt lat="37.283545" lon="9.874814"><ele>2.0</ele><time>2026-05-05T08:14:04.728Z</time></trkpt><trkpt lat="37.2834927" lon="9.8749347"><ele>2.0</ele><time>2026-05-05T08:14:05.746Z</time></trkpt><trkpt lat="37.2834428" lon="9.875055"><ele>2.0</ele><time>2026-05-05T08:14:06.746Z</time></trkpt><trkpt lat="37.2833943" lon="9.8751722"><ele>2.0</ele><time>2026-05-05T08:14:07.741Z</time></trkpt><trkpt lat="37.2833408" lon="9.875294"><ele>2.0</ele><time>2026-05-05T08:14:08.738Z</time></trkpt><trkpt lat="37.2832844" lon="9.8754182"><ele>2.0</ele><time>2026-05-05T08:14:09.732Z</time></trkpt><trkpt lat="37.283227" lon="9.8755369"><ele>2.0</ele><time>2026-05-05T08:14:10.727Z</time></trkpt><trkpt lat="37.2831602" lon="9.8756633"><ele>2.0</ele><time>2026-05-05T08:14:11.72Z</time></trkpt><trkpt lat="37.2830974" lon="9.8757881"><ele>2.0</ele><time>2026-05-05T08:14:12.738Z</time></trkpt><trkpt lat="37.2830247" lon="9.8759115"><ele>2.0</ele><time>2026-05-05T08:14:13.733Z</time></trkpt><trkpt lat="37.2829439" lon="9.8760353"><ele>2.0</ele><time>2026-05-05T08:14:14.724Z</time></trkpt><trkpt lat="37.282861" lon="9.8761507"><ele>2.0</ele><time>2026-05-05T08:14:15.736Z</time></trkpt><trkpt lat="37.2827765" lon="9.8762606"><ele>2.0</ele><time>2026-05-05T08:14:16.744Z</time></trkpt><trkpt lat="37.2826836" lon="9.8763693"><ele>2.0</ele><time>2026-05-05T08:14:17.709Z</time></trkpt><trkpt lat="37.282588" lon="9.8764708"><ele>2.0</ele><time>2026-05-05T08:14:18.735Z</time></trkpt><trkpt lat="37.2824955" lon="9.8765624"><ele>2.0</ele><time>2026-05-05T08:14:19.731Z</time></trkpt><trkpt lat="37.2824026" lon="9.8766511"><ele>2.0</ele><time>2026-05-05T08:14:20.768Z</time></trkpt><trkpt lat="37.2823131" lon="9.8767341"><ele>2.0</ele><time>2026-05-05T08:14:21.747Z</time></trkpt><trkpt lat="37.282217" lon="9.8767991"><ele>1.8</ele><time>2026-05-05T08:14:22.706Z</time></trkpt><trkpt lat="37.2821205" lon="9.8768464"><ele>1.6</ele><time>2026-05-05T08:14:23.72Z</time></trkpt><trkpt lat="37.282031" lon="9.8768857"><ele>1.4000000000000001</ele><time>2026-05-05T08:14:24.722Z</time></trkpt><trkpt lat="37.2819384" lon="9.8769109"><ele>1.2000000000000002</ele><time>2026-05-05T08:14:25.727Z</time></trkpt><trkpt lat="37.2818392" lon="9.8769302"><ele>1.0</ele><time>2026-05-05T08:14:26.716Z</time></trkpt><trkpt lat="37.2817339" lon="9.8769443"><ele>1.0</ele><time>2026-05-05T08:14:27.723Z</time></trkpt><trkpt lat="37.2816316" lon="9.8769625"><ele>1.0</ele><time>2026-05-05T08:14:28.721Z</time></trkpt><trkpt lat="37.2815262" lon="9.8769756"><ele>1.0</ele><time>2026-05-05T08:14:29.744Z</time></trkpt><trkpt lat="37.2814239" lon="9.876991"><ele>1.0</ele><time>2026-05-05T08:14:30.711Z</time></trkpt><trkpt lat="37.2813249" lon="9.8770045"><ele>1.0</ele><time>2026-05-05T08:14:31.725Z</time></trkpt><trkpt lat="37.2812318" lon="9.877004"><ele>1.4</ele><time>2026-05-05T08:14:32.697Z</time></trkpt><trkpt lat="37.2811367" lon="9.8770075"><ele>1.8</ele><time>2026-05-05T08:14:33.699Z</time></trkpt><trkpt lat="37.2810418" lon="9.8770188"><ele>2.1999999999999997</ele><time>2026-05-05T08:14:34.719Z</time></trkpt><trkpt lat="37.2809451" lon="9.8770304"><ele>2.6</ele><time>2026-05-05T08:14:35.721Z</time></trkpt><trkpt lat="37.2808452" lon="9.8770426"><ele>3.0</ele><time>2026-05-05T08:14:36.719Z</time></trkpt><trkpt lat="37.2807496" lon="9.8770496"><ele>3.0</ele><time>2026-05-05T08:14:37.705Z</time></trkpt><trkpt lat="37.2806598" lon="9.8770587"><ele>3.0</ele><time>2026-05-05T08:14:38.733Z</time></trkpt><trkpt lat="37.2805767" lon="9.8770638"><ele>3.0</ele><time>2026-05-05T08:14:39.719Z</time></trkpt><trkpt lat="37.280498" lon="9.8770764"><ele>3.0</ele><time>2026-05-05T08:14:40.727Z</time></trkpt><trkpt lat="37.2804202" lon="9.8770821"><ele>3.0</ele><time>2026-05-05T08:14:41.731Z</time></trkpt><trkpt lat="37.280348" lon="9.8770889"><ele>3.0</ele><time>2026-05-05T08:14:42.728Z</time></trkpt><trkpt lat="37.2802778" lon="9.8770987"><ele>2.9999999999999996</ele><time>2026-05-05T08:14:43.715Z</time></trkpt><trkpt lat="37.2802097" lon="9.8771038"><ele>3.0</ele><time>2026-05-05T08:14:44.73Z</time></trkpt><trkpt lat="37.2801415" lon="9.8771069"><ele>3.0</ele><time>2026-05-05T08:14:45.746Z</time></trkpt><trkpt lat="37.2800714" lon="9.8771109"><ele>3.0</ele><time>2026-05-05T08:14:46.73Z</time></trkpt><trkpt lat="37.2799977" lon="9.8771223"><ele>3.0</ele><time>2026-05-05T08:14:47.727Z</time></trkpt><trkpt lat="37.2799311" lon="9.8771319"><ele>2.9999999999999996</ele><time>2026-05-05T08:14:48.727Z</time></trkpt><trkpt lat="37.2798612" lon="9.8771439"><ele>3.0</ele><time>2026-05-05T08:14:49.731Z</time></trkpt><trkpt lat="37.2797902" lon="9.8771551"><ele>3.0</ele><time>2026-05-05T08:14:50.725Z</time></trkpt><trkpt lat="37.2797163" lon="9.8771676"><ele>3.0</ele><time>2026-05-05T08:14:51.736Z</time></trkpt><trkpt lat="37.2796372" lon="9.8771732"><ele>3.0</ele><time>2026-05-05T08:14:52.719Z</time></trkpt><trkpt lat="37.2795503" lon="9.877181"><ele>3.0</ele><time>2026-05-05T08:14:53.746Z</time></trkpt><trkpt lat="37.279468" lon="9.8771894"><ele>3.0</ele><time>2026-05-05T08:14:54.726Z</time></trkpt><trkpt lat="37.2793849" lon="9.8772038"><ele>3.0</ele><time>2026-05-05T08:14:55.732Z</time></trkpt><trkpt lat="37.2792989" lon="9.8772203"><ele>3.0</ele><time>2026-05-05T08:14:56.74Z</time></trkpt><trkpt lat="37.2792103" lon="9.8772334"><ele>3.0</ele><time>2026-05-05T08:14:57.743Z</time></trkpt><trkpt lat="37.279129" lon="9.8772439"><ele>3.0</ele><time>2026-05-05T08:14:58.694Z</time></trkpt><trkpt lat="37.2790484" lon="9.8772567"><ele>3.0</ele><time>2026-05-05T08:14:59.705Z</time></trkpt><trkpt lat="37.278964" lon="9.877268"><ele>3.0</ele><time>2026-05-05T08:15:00.726Z</time></trkpt><trkpt lat="37.2788757" lon="9.8772819"><ele>3.0</ele><time>2026-05-05T08:15:01.762Z</time></trkpt><trkpt lat="37.2787906" lon="9.8772878"><ele>2.8333333333333335</ele><time>2026-05-05T08:15:02.744Z</time></trkpt><trkpt lat="37.2787109" lon="9.8772949"><ele>2.6666666666666665</ele><time>2026-05-05T08:15:03.723Z</time></trkpt><trkpt lat="37.2786312" lon="9.8772978"><ele>2.5</ele><time>2026-05-05T08:15:04.724Z</time></trkpt><trkpt lat="37.2785612" lon="9.8773007"><ele>2.333333333333333</ele><time>2026-05-05T08:15:05.734Z</time></trkpt><trkpt lat="37.2784377" lon="9.8773137"><ele>2.1666666666666665</ele><time>2026-05-05T08:15:07.747Z</time></trkpt><trkpt lat="37.2783683" lon="9.8773235"><ele>2.0</ele><time>2026-05-05T08:15:08.75Z</time></trkpt><trkpt lat="37.27829" lon="9.8773358"><ele>2.0</ele><time>2026-05-05T08:15:09.714Z</time></trkpt><trkpt lat="37.2782094" lon="9.8773485"><ele>2.0</ele><time>2026-05-05T08:15:10.749Z</time></trkpt><trkpt lat="37.2781241" lon="9.8773605"><ele>2.0</ele><time>2026-05-05T08:15:11.735Z</time></trkpt><trkpt lat="37.2780302" lon="9.8773706"><ele>2.0</ele><time>2026-05-05T08:15:12.723Z</time></trkpt><trkpt lat="37.2779332" lon="9.8773795"><ele>2.0</ele><time>2026-05-05T08:15:13.747Z</time></trkpt><trkpt lat="37.2778335" lon="9.8773875"><ele>2.2</ele><time>2026-05-05T08:15:14.749Z</time></trkpt><trkpt lat="37.2777316" lon="9.8774016"><ele>2.4000000000000004</ele><time>2026-05-05T08:15:15.724Z</time></trkpt><trkpt lat="37.2776211" lon="9.877414"><ele>2.5999999999999996</ele><time>2026-05-05T08:15:16.752Z</time></trkpt><trkpt lat="37.2775118" lon="9.8774325"><ele>2.8</ele><time>2026-05-05T08:15:17.747Z</time></trkpt><trkpt lat="37.277404" lon="9.8774528"><ele>3.0</ele><time>2026-05-05T08:15:18.745Z</time></trkpt><trkpt lat="37.2773061" lon="9.8774634"><ele>3.8</ele><time>2026-05-05T08:15:19.744Z</time></trkpt><trkpt lat="37.2772084" lon="9.8774681"><ele>4.6</ele><time>2026-05-05T08:15:20.746Z</time></trkpt><trkpt lat="37.2771125" lon="9.8774736"><ele>5.3999999999999995</ele><time>2026-05-05T08:15:21.755Z</time></trkpt><trkpt lat="37.2770236" lon="9.8774811"><ele>6.199999999999999</ele><time>2026-05-05T08:15:22.747Z</time></trkpt><trkpt lat="37.2769403" lon="9.8774866"><ele>7.0</ele><time>2026-05-05T08:15:23.752Z</time></trkpt><trkpt lat="37.2768547" lon="9.8774939"><ele>7.0</ele><time>2026-05-05T08:15:24.73Z</time></trkpt><trkpt lat="37.2767685" lon="9.8775048"><ele>6.999999999999999</ele><time>2026-05-05T08:15:25.75Z</time></trkpt><trkpt lat="37.2766773" lon="9.8775224"><ele>6.999999999999999</ele><time>2026-05-05T08:15:26.747Z</time></trkpt><trkpt lat="37.2765855" lon="9.8775271"><ele>7.0</ele><time>2026-05-05T08:15:27.752Z</time></trkpt><trkpt lat="37.2764939" lon="9.8775386"><ele>7.0</ele><time>2026-05-05T08:15:28.753Z</time></trkpt><trkpt lat="37.2764057" lon="9.8775509"><ele>6.6</ele><time>2026-05-05T08:15:29.745Z</time></trkpt><trkpt lat="37.2763212" lon="9.877553"><ele>6.199999999999999</ele><time>2026-05-05T08:15:30.735Z</time></trkpt><trkpt lat="37.2762518" lon="9.8775554"><ele>5.8</ele><time>2026-05-05T08:15:31.726Z</time></trkpt><trkpt lat="37.276129" lon="9.8775628"><ele>5.4</ele><time>2026-05-05T08:15:33.749Z</time></trkpt><trkpt lat="37.2760253" lon="9.8775667"><ele>5.0</ele><time>2026-05-05T08:15:35.735Z</time></trkpt><trkpt lat="37.275921" lon="9.8775911"><ele>4.571428571428571</ele><time>2026-05-05T08:15:37.746Z</time></trkpt><trkpt lat="37.2758604" lon="9.8776255"><ele>4.142857142857143</ele><time>2026-05-05T08:15:38.749Z</time></trkpt><trkpt lat="37.2757981" lon="9.87766"><ele>3.7142857142857144</ele><time>2026-05-05T08:15:39.741Z</time></trkpt><trkpt lat="37.2757317" lon="9.8776879"><ele>3.2857142857142856</ele><time>2026-05-05T08:15:40.745Z</time></trkpt><trkpt lat="37.2756638" lon="9.8777168"><ele>2.8571428571428568</ele><time>2026-05-05T08:15:41.733Z</time></trkpt><trkpt lat="37.2755863" lon="9.8777449"><ele>2.4285714285714284</ele><time>2026-05-05T08:15:42.737Z</time></trkpt><trkpt lat="37.275512" lon="9.8777763"><ele>2.0</ele><time>2026-05-05T08:15:43.736Z</time></trkpt><trkpt lat="37.2754304" lon="9.8777976"><ele>1.9999999999999998</ele><time>2026-05-05T08:15:44.732Z</time></trkpt><trkpt lat="37.2753534" lon="9.8778203"><ele>2.0</ele><time>2026-05-05T08:15:45.732Z</time></trkpt><trkpt lat="37.275271" lon="9.8778399"><ele>2.0</ele><time>2026-05-05T08:15:46.738Z</time></trkpt><trkpt lat="37.2751857" lon="9.8778582"><ele>2.0</ele><time>2026-05-05T08:15:47.746Z</time></trkpt><trkpt lat="37.2750952" lon="9.8778774"><ele>1.9999999999999998</ele><time>2026-05-05T08:15:48.727Z</time></trkpt><trkpt lat="37.2749978" lon="9.8779"><ele>2.0</ele><time>2026-05-05T08:15:49.741Z</time></trkpt><trkpt lat="37.2748982" lon="9.8779347"><ele>2.0</ele><time>2026-05-05T08:15:50.741Z</time></trkpt><trkpt lat="37.2747951" lon="9.8779773"><ele>2.0</ele><time>2026-05-05T08:15:51.743Z</time></trkpt><trkpt lat="37.2746876" lon="9.8780158"><ele>2.0</ele><time>2026-05-05T08:15:52.738Z</time></trkpt><trkpt lat="37.2745872" lon="9.8780552"><ele>2.0</ele><time>2026-05-05T08:15:53.745Z</time></trkpt><trkpt lat="37.2744814" lon="9.8780901"><ele>2.0</ele><time>2026-05-05T08:15:54.747Z</time></trkpt><trkpt lat="37.2743716" lon="9.878126"><ele>2.2</ele><time>2026-05-05T08:15:55.746Z</time></trkpt><trkpt lat="37.2742628" lon="9.8781575"><ele>2.4000000000000004</ele><time>2026-05-05T08:15:56.747Z</time></trkpt><trkpt lat="37.2741557" lon="9.8781886"><ele>2.5999999999999996</ele><time>2026-05-05T08:15:57.74Z</time></trkpt><trkpt lat="37.2740461" lon="9.8782245"><ele>2.8</ele><time>2026-05-05T08:15:58.73Z</time></trkpt><trkpt lat="37.2739384" lon="9.8782608"><ele>3.0</ele><time>2026-05-05T08:15:59.742Z</time></trkpt><trkpt lat="37.2738379" lon="9.8782998"><ele>3.0</ele><time>2026-05-05T08:16:00.696Z</time></trkpt><trkpt lat="37.2737409" lon="9.8783447"><ele>3.0</ele><time>2026-05-05T08:16:01.756Z</time></trkpt><trkpt lat="37.2736464" lon="9.8783997"><ele>3.0</ele><time>2026-05-05T08:16:02.752Z</time></trkpt><trkpt lat="37.2735571" lon="9.8784641"><ele>3.0</ele><time>2026-05-05T08:16:03.718Z</time></trkpt><trkpt lat="37.2734678" lon="9.8785304"><ele>3.0</ele><time>2026-05-05T08:16:04.743Z</time></trkpt><trkpt lat="37.2733824" lon="9.8786003"><ele>3.2</ele><time>2026-05-05T08:16:05.697Z</time></trkpt><trkpt lat="37.2732981" lon="9.8786822"><ele>3.4</ele><time>2026-05-05T08:16:06.743Z</time></trkpt><trkpt lat="37.273212" lon="9.8787656"><ele>3.6000000000000005</ele><time>2026-05-05T08:16:07.747Z</time></trkpt><trkpt lat="37.2731306" lon="9.878846"><ele>3.8000000000000003</ele><time>2026-05-05T08:16:08.744Z</time></trkpt><trkpt lat="37.2730466" lon="9.8789356"><ele>4.0</ele><time>2026-05-05T08:16:09.746Z</time></trkpt><trkpt lat="37.2729578" lon="9.879019"><ele>4.0</ele><time>2026-05-05T08:16:10.746Z</time></trkpt><trkpt lat="37.2728679" lon="9.8790967"><ele>4.0</ele><time>2026-05-05T08:16:11.759Z</time></trkpt><trkpt lat="37.2727804" lon="9.8791809"><ele>4.0</ele><time>2026-05-05T08:16:12.744Z</time></trkpt><trkpt lat="37.2726924" lon="9.8792585"><ele>4.0</ele><time>2026-05-05T08:16:13.737Z</time></trkpt><trkpt lat="37.2726057" lon="9.879336"><ele>4.0</ele><time>2026-05-05T08:16:14.749Z</time></trkpt><trkpt lat="37.2725371" lon="9.8793972"><ele>3.6</ele><time>2026-05-05T08:16:15.731Z</time></trkpt><trkpt lat="37.2724385" lon="9.879468"><ele>3.2</ele><time>2026-05-05T08:16:17.748Z</time></trkpt><trkpt lat="37.2723499" lon="9.8794726"><ele>2.8000000000000003</ele><time>2026-05-05T08:16:19.742Z</time></trkpt><trkpt lat="37.2722705" lon="9.8793759"><ele>2.4000000000000004</ele><time>2026-05-05T08:16:21.744Z</time></trkpt><trkpt lat="37.2722289" lon="9.8793087"><ele>2.0</ele><time>2026-05-05T08:16:22.722Z</time></trkpt><trkpt lat="37.272191" lon="9.8792335"><ele>1.857142857142857</ele><time>2026-05-05T08:16:23.752Z</time></trkpt><trkpt lat="37.2721524" lon="9.8791617"><ele>1.714285714285714</ele><time>2026-05-05T08:16:24.753Z</time></trkpt><trkpt lat="37.2721061" lon="9.8790886"><ele>1.5714285714285714</ele><time>2026-05-05T08:16:25.764Z</time></trkpt><trkpt lat="37.2720689" lon="9.8790174"><ele>1.4285714285714284</ele><time>2026-05-05T08:16:26.759Z</time></trkpt><trkpt lat="37.2720301" lon="9.878947"><ele>1.2857142857142856</ele><time>2026-05-05T08:16:27.748Z</time></trkpt><trkpt lat="37.271992" lon="9.8788716"><ele>1.1428571428571428</ele><time>2026-05-05T08:16:28.764Z</time></trkpt><trkpt lat="37.2719563" lon="9.8787991"><ele>1.0</ele><time>2026-05-05T08:16:29.75Z</time></trkpt><trkpt lat="37.2719177" lon="9.8787315"><ele>1.0</ele><time>2026-05-05T08:16:30.743Z</time></trkpt><trkpt lat="37.2718788" lon="9.8786661"><ele>0.9999999999999999</ele><time>2026-05-05T08:16:31.763Z</time></trkpt><trkpt lat="37.2718413" lon="9.8785954"><ele>1.0</ele><time>2026-05-05T08:16:32.75Z</time></trkpt><trkpt lat="37.271802" lon="9.878525"><ele>1.0</ele><time>2026-05-05T08:16:33.755Z</time></trkpt><trkpt lat="37.2717592" lon="9.8784532"><ele>0.9999999999999999</ele><time>2026-05-05T08:16:34.728Z</time></trkpt><trkpt lat="37.2717155" lon="9.8783908"><ele>1.0</ele><time>2026-05-05T08:16:35.736Z</time></trkpt><trkpt lat="37.2716642" lon="9.8783175"><ele>1.0</ele><time>2026-05-05T08:16:36.734Z</time></trkpt><trkpt lat="37.2716205" lon="9.8782395"><ele>0.9999999999999999</ele><time>2026-05-05T08:16:37.748Z</time></trkpt><trkpt lat="37.2715811" lon="9.878169"><ele>1.0</ele><time>2026-05-05T08:16:38.757Z</time></trkpt><trkpt lat="37.2715383" lon="9.8780974"><ele>1.0</ele><time>2026-05-05T08:16:39.737Z</time></trkpt><trkpt lat="37.2714989" lon="9.8780288"><ele>1.0</ele><time>2026-05-05T08:16:40.743Z</time></trkpt><trkpt lat="37.2714324" lon="9.8779068"><ele>0.9999999999999999</ele><time>2026-05-05T08:16:42.754Z</time></trkpt><trkpt lat="37.2713649" lon="9.8777916"><ele>1.0</ele><time>2026-05-05T08:16:44.739Z</time></trkpt><trkpt lat="37.2712976" lon="9.8776844"><ele>2.0</ele><time>2026-05-05T08:16:46.749Z</time></trkpt><trkpt lat="37.2712374" lon="9.877568"><ele>3.0</ele><time>2026-05-05T08:16:48.739Z</time></trkpt><trkpt lat="37.2711645" lon="9.8774402"><ele>4.0</ele><time>2026-05-05T08:16:50.695Z</time></trkpt><trkpt lat="37.271096" lon="9.8773183"><ele>5.0</ele><time>2026-05-05T08:16:52.74Z</time></trkpt><trkpt lat="37.2710247" lon="9.8771932"><ele>5.0</ele><time>2026-05-05T08:16:54.724Z</time></trkpt><trkpt lat="37.2709529" lon="9.8770804"><ele>5.0</ele><time>2026-05-05T08:16:56.722Z</time></trkpt><trkpt lat="37.2709135" lon="9.877015"><ele>5.0</ele><time>2026-05-05T08:16:57.754Z</time></trkpt><trkpt lat="37.2708403" lon="9.876894"><ele>5.0</ele><time>2026-05-05T08:16:59.752Z</time></trkpt><trkpt lat="37.2707676" lon="9.8767677"><ele>5.0</ele><time>2026-05-05T08:17:01.713Z</time></trkpt><trkpt lat="37.2706993" lon="9.8766335"><ele>4.714285714285714</ele><time>2026-05-05T08:17:03.711Z</time></trkpt><trkpt lat="37.2706546" lon="9.8765643"><ele>4.428571428571429</ele><time>2026-05-05T08:17:04.728Z</time></trkpt><trkpt lat="37.2706071" lon="9.8764941"><ele>4.142857142857142</ele><time>2026-05-05T08:17:05.762Z</time></trkpt><trkpt lat="37.2705647" lon="9.8764212"><ele>3.8571428571428568</ele><time>2026-05-05T08:17:06.743Z</time></trkpt><trkpt lat="37.2705306" lon="9.8763472"><ele>3.571428571428571</ele><time>2026-05-05T08:17:07.741Z</time></trkpt><trkpt lat="37.2704903" lon="9.8762771"><ele>3.2857142857142856</ele><time>2026-05-05T08:17:08.742Z</time></trkpt><trkpt lat="37.2704516" lon="9.8762058"><ele>3.0</ele><time>2026-05-05T08:17:09.747Z</time></trkpt><trkpt lat="37.2704157" lon="9.8761366"><ele>3.0</ele><time>2026-05-05T08:17:10.733Z</time></trkpt><trkpt lat="37.2703572" lon="9.8760444"><ele>3.0</ele><time>2026-05-05T08:17:12.741Z</time></trkpt><trkpt lat="37.2703159" lon="9.8759607"><ele>3.0</ele><time>2026-05-05T08:17:16.733Z</time></trkpt><trkpt lat="37.270269" lon="9.8758825"><ele>3.0</ele><time>2026-05-05T08:17:20.739Z</time></trkpt><trkpt lat="37.2702134" lon="9.8757984"><ele>3.0</ele><time>2026-05-05T08:17:23.74Z</time></trkpt><trkpt lat="37.2701625" lon="9.8757078"><ele>3.0</ele><time>2026-05-05T08:17:25.73Z</time></trkpt><trkpt lat="37.2701081" lon="9.8756121"><ele>3.5</ele><time>2026-05-05T08:17:27.75Z</time></trkpt><trkpt lat="37.270048" lon="9.8755062"><ele>4.0</ele><time>2026-05-05T08:17:29.759Z</time></trkpt><trkpt lat="37.2700008" lon="9.8754144"><ele>4.5</ele><time>2026-05-05T08:17:31.738Z</time></trkpt><trkpt lat="37.269963" lon="9.875334"><ele>5.0</ele><time>2026-05-05T08:17:33.731Z</time></trkpt><trkpt lat="37.2699096" lon="9.8752412"><ele>5.5</ele><time>2026-05-05T08:17:36.744Z</time></trkpt><trkpt lat="37.2698565" lon="9.8751485"><ele>6.0</ele><time>2026-05-05T08:17:39.722Z</time></trkpt><trkpt lat="37.2698083" lon="9.875069"><ele>5.166666666666667</ele><time>2026-05-05T08:17:41.745Z</time></trkpt><trkpt lat="37.2697456" lon="9.8749758"><ele>4.333333333333333</ele><time>2026-05-05T08:17:43.748Z</time></trkpt><trkpt lat="37.2696937" lon="9.8749055"><ele>3.5</ele><time>2026-05-05T08:17:45.706Z</time></trkpt><trkpt lat="37.269643" lon="9.874816"><ele>2.6666666666666665</ele><time>2026-05-05T08:17:48.749Z</time></trkpt><trkpt lat="37.2696065" lon="9.8747467"><ele>1.8333333333333333</ele><time>2026-05-05T08:17:56.754Z</time></trkpt><trkpt lat="37.2695582" lon="9.8746778"><ele>1.0</ele><time>2026-05-05T08:17:59.747Z</time></trkpt><trkpt lat="37.2695128" lon="9.8746153"><ele>0.9999999999999999</ele><time>2026-05-05T08:18:02.758Z</time></trkpt><trkpt lat="37.2694634" lon="9.8745316"><ele>1.0</ele><time>2026-05-05T08:18:06.717Z</time></trkpt><trkpt lat="37.2694064" lon="9.8744326"><ele>1.0</ele><time>2026-05-05T08:18:09.732Z</time></trkpt><trkpt lat="37.2693624" lon="9.874371"><ele>1.0</ele><time>2026-05-05T08:18:11.732Z</time></trkpt><trkpt lat="37.2693246" lon="9.874288"><ele>0.9999999999999999</ele><time>2026-05-05T08:18:14.727Z</time></trkpt><trkpt lat="37.2692671" lon="9.8742051"><ele>1.0</ele><time>2026-05-05T08:18:17.762Z</time></trkpt><trkpt lat="37.2692257" lon="9.8741222"><ele>1.1666666666666665</ele><time>2026-05-05T08:18:19.735Z</time></trkpt><trkpt lat="37.2691817" lon="9.874059"><ele>1.3333333333333333</ele><time>2026-05-05T08:18:21.742Z</time></trkpt><trkpt lat="37.2691466" lon="9.8739869"><ele>1.5</ele><time>2026-05-05T08:18:23.744Z</time></trkpt><trkpt lat="37.2691471" lon="9.8738932"><ele>1.6666666666666665</ele><time>2026-05-05T08:18:25.747Z</time></trkpt><trkpt lat="37.2692003" lon="9.8738244"><ele>1.8333333333333333</ele><time>2026-05-05T08:18:27.747Z</time></trkpt><trkpt lat="37.2692884" lon="9.8737487"><ele>2.0</ele><time>2026-05-05T08:18:29.735Z</time></trkpt><trkpt lat="37.2693845" lon="9.8736634"><ele>2.0</ele><time>2026-05-05T08:18:31.74Z</time></trkpt><trkpt lat="37.2694716" lon="9.8735587"><ele>2.0</ele><time>2026-05-05T08:18:33.744Z</time></trkpt><trkpt lat="37.2695344" lon="9.8734989"><ele>2.0</ele><time>2026-05-05T08:18:35.747Z</time></trkpt><trkpt lat="37.2696024" lon="9.8734566"><ele>2.0</ele><time>2026-05-05T08:18:40.735Z</time></trkpt><trkpt lat="37.2696823" lon="9.873426"><ele>2.0</ele><time>2026-05-05T08:18:44.74Z</time></trkpt><trkpt lat="37.2697258" lon="9.8735344"><ele>2.0</ele><time>2026-05-05T08:18:47.733Z</time></trkpt><trkpt lat="37.2697198" lon="9.8736878"><ele>2.0</ele><time>2026-05-05T08:18:49.753Z</time></trkpt><trkpt lat="37.269703" lon="9.8737772"><ele>2.0</ele><time>2026-05-05T08:18:50.714Z</time></trkpt><trkpt lat="37.2696858" lon="9.8738642"><ele>2.0</ele><time>2026-05-05T08:18:51.745Z</time></trkpt><trkpt lat="37.2696478" lon="9.8740135"><ele>2.0</ele><time>2026-05-05T08:18:53.755Z</time></trkpt><trkpt lat="37.2696219" lon="9.8740896"><ele>1.9999999999999998</ele><time>2026-05-05T08:18:54.748Z</time></trkpt><trkpt lat="37.2695895" lon="9.8741594"><ele>2.0</ele><time>2026-05-05T08:18:55.735Z</time></trkpt><trkpt lat="37.2695184" lon="9.8742627"><ele>2.0</ele><time>2026-05-05T08:18:57.746Z</time></trkpt><trkpt lat="37.2694495" lon="9.8743413"><ele>2.0</ele><time>2026-05-05T08:18:59.765Z</time></trkpt><trkpt lat="37.269386" lon="9.8743932"><ele>1.9999999999999998</ele><time>2026-05-05T08:19:01.751Z</time></trkpt><trkpt lat="37.2693026" lon="9.8744574"><ele>2.0</ele><time>2026-05-05T08:19:03.755Z</time></trkpt><trkpt lat="37.2692174" lon="9.8745293"><ele>1.8333333333333333</ele><time>2026-05-05T08:19:05.745Z</time></trkpt><trkpt lat="37.2691506" lon="9.874591"><ele>1.6666666666666665</ele><time>2026-05-05T08:19:07.761Z</time></trkpt><trkpt lat="37.2690705" lon="9.8746562"><ele>1.5</ele><time>2026-05-05T08:19:10.74Z</time></trkpt><trkpt lat="37.2690153" lon="9.8747151"><ele>1.3333333333333333</ele><time>2026-05-05T08:19:12.748Z</time></trkpt><trkpt lat="37.2689268" lon="9.8747849"><ele>1.1666666666666665</ele><time>2026-05-05T08:19:14.73Z</time></trkpt><trkpt lat="37.2688553" lon="9.8748452"><ele>1.0</ele><time>2026-05-05T08:19:16.74Z</time></trkpt><trkpt lat="37.2687963" lon="9.8748962"><ele>0.8333333333333333</ele><time>2026-05-05T08:19:18.754Z</time></trkpt><trkpt lat="37.2687195" lon="9.8749669"><ele>0.6666666666666666</ele><time>2026-05-05T08:19:20.755Z</time></trkpt><trkpt lat="37.2686209" lon="9.8750476"><ele>0.5</ele><time>2026-05-05T08:19:22.761Z</time></trkpt><trkpt lat="37.2685672" lon="9.8750931"><ele>0.3333333333333333</ele><time>2026-05-05T08:19:23.746Z</time></trkpt><trkpt lat="37.2685132" lon="9.875137"><ele>0.16666666666666666</ele><time>2026-05-05T08:19:24.756Z</time></trkpt><trkpt lat="37.2684554" lon="9.8751876"><ele>0.0</ele><time>2026-05-05T08:19:25.716Z</time></trkpt><trkpt lat="37.2683982" lon="9.8752388"><ele>0.0</ele><time>2026-05-05T08:19:26.746Z</time></trkpt><trkpt lat="37.2683412" lon="9.8752897"><ele>0.0</ele><time>2026-05-05T08:19:27.74Z</time></trkpt><trkpt lat="37.2682907" lon="9.8753413"><ele>0.0</ele><time>2026-05-05T08:19:28.712Z</time></trkpt><trkpt lat="37.2682384" lon="9.8753875"><ele>0.0</ele><time>2026-05-05T08:19:29.756Z</time></trkpt><trkpt lat="37.2681429" lon="9.8754772"><ele>0.0</ele><time>2026-05-05T08:19:31.745Z</time></trkpt><trkpt lat="37.2680476" lon="9.8755571"><ele>0.0</ele><time>2026-05-05T08:19:33.744Z</time></trkpt><trkpt lat="37.2679479" lon="9.8756386"><ele>0.0</ele><time>2026-05-05T08:19:35.728Z</time></trkpt><trkpt lat="37.2678451" lon="9.8757281"><ele>0.0</ele><time>2026-05-05T08:19:37.747Z</time></trkpt><trkpt lat="37.2677879" lon="9.8757779"><ele>0.0</ele><time>2026-05-05T08:19:38.736Z</time></trkpt><trkpt lat="37.2677256" lon="9.8758375"><ele>0.0</ele><time>2026-05-05T08:19:39.762Z</time></trkpt><trkpt lat="37.2676613" lon="9.8758951"><ele>0.0</ele><time>2026-05-05T08:19:40.748Z</time></trkpt><trkpt lat="37.2676014" lon="9.8759547"><ele>0.0</ele><time>2026-05-05T08:19:41.75Z</time></trkpt><trkpt lat="37.2675368" lon="9.8760158"><ele>0.0</ele><time>2026-05-05T08:19:42.74Z</time></trkpt><trkpt lat="37.267473" lon="9.8760687"><ele>0.0</ele><time>2026-05-05T08:19:43.751Z</time></trkpt><trkpt lat="37.2674096" lon="9.8761208"><ele>0.0</ele><time>2026-05-05T08:19:44.76Z</time></trkpt><trkpt lat="37.2673536" lon="9.8761688"><ele>0.0</ele><time>2026-05-05T08:19:45.739Z</time></trkpt><trkpt lat="37.2672938" lon="9.8762165"><ele>0.0</ele><time>2026-05-05T08:19:46.753Z</time></trkpt><trkpt lat="37.2672304" lon="9.8762724"><ele>0.0</ele><time>2026-05-05T08:19:47.75Z</time></trkpt><trkpt lat="37.2671697" lon="9.8763272"><ele>0.0</ele><time>2026-05-05T08:19:48.746Z</time></trkpt><trkpt lat="37.2671094" lon="9.8763743"><ele>0.42857142857142855</ele><time>2026-05-05T08:19:49.731Z</time></trkpt><trkpt lat="37.2670506" lon="9.8764234"><ele>0.8571428571428571</ele><time>2026-05-05T08:19:50.729Z</time></trkpt><trkpt lat="37.2669916" lon="9.8764752"><ele>1.2857142857142856</ele><time>2026-05-05T08:19:51.749Z</time></trkpt><trkpt lat="37.2669327" lon="9.8765266"><ele>1.7142857142857142</ele><time>2026-05-05T08:19:52.742Z</time></trkpt><trkpt lat="37.2668768" lon="9.8765808"><ele>2.142857142857143</ele><time>2026-05-05T08:19:53.751Z</time></trkpt><trkpt lat="37.2668172" lon="9.8766302"><ele>2.571428571428571</ele><time>2026-05-05T08:19:54.744Z</time></trkpt><trkpt lat="37.2667589" lon="9.8766824"><ele>3.0</ele><time>2026-05-05T08:19:55.77Z</time></trkpt><trkpt lat="37.2666975" lon="9.8767371"><ele>3.3333333333333335</ele><time>2026-05-05T08:19:56.745Z</time></trkpt><trkpt lat="37.2666372" lon="9.8767934"><ele>3.666666666666667</ele><time>2026-05-05T08:19:57.753Z</time></trkpt><trkpt lat="37.2665732" lon="9.8768509"><ele>4.0</ele><time>2026-05-05T08:19:58.704Z</time></trkpt><trkpt lat="37.2665012" lon="9.8769132"><ele>4.333333333333334</ele><time>2026-05-05T08:19:59.757Z</time></trkpt><trkpt lat="37.2664287" lon="9.8769725"><ele>4.666666666666667</ele><time>2026-05-05T08:20:00.741Z</time></trkpt><trkpt lat="37.2663611" lon="9.8770289"><ele>5.0</ele><time>2026-05-05T08:20:01.73Z</time></trkpt><trkpt lat="37.2662926" lon="9.8770873"><ele>5.2</ele><time>2026-05-05T08:20:02.753Z</time></trkpt><trkpt lat="37.2662209" lon="9.8771551"><ele>5.4</ele><time>2026-05-05T08:20:03.748Z</time></trkpt><trkpt lat="37.2661414" lon="9.8772272"><ele>5.6</ele><time>2026-05-05T08:20:04.746Z</time></trkpt><trkpt lat="37.2660744" lon="9.8772981"><ele>5.8</ele><time>2026-05-05T08:20:05.744Z</time></trkpt><trkpt lat="37.2660179" lon="9.8773558"><ele>6.0</ele><time>2026-05-05T08:20:06.74Z</time></trkpt><trkpt lat="37.265931" lon="9.8774234"><ele>6.0</ele><time>2026-05-05T08:20:08.756Z</time></trkpt><trkpt lat="37.2658646" lon="9.8774644"><ele>6.0</ele><time>2026-05-05T08:20:11.74Z</time></trkpt><trkpt lat="37.2658159" lon="9.8775385"><ele>6.0</ele><time>2026-05-05T08:21:34.726Z</time></trkpt><trkpt lat="37.2657458" lon="9.8776379"><ele>6.0</ele><time>2026-05-05T08:21:36.749Z</time></trkpt><trkpt lat="37.2656667" lon="9.8777637"><ele>6.0</ele><time>2026-05-05T08:21:38.741Z</time></trkpt><trkpt lat="37.265621" lon="9.8778389"><ele>6.4</ele><time>2026-05-05T08:21:39.752Z</time></trkpt><trkpt lat="37.2655733" lon="9.8779307"><ele>6.8</ele><time>2026-05-05T08:21:40.774Z</time></trkpt><trkpt lat="37.2655305" lon="9.8780335"><ele>7.200000000000001</ele><time>2026-05-05T08:21:41.746Z</time></trkpt><trkpt lat="37.2654872" lon="9.8781509"><ele>7.6000000000000005</ele><time>2026-05-05T08:21:42.735Z</time></trkpt><trkpt lat="37.2654393" lon="9.8782715"><ele>8.0</ele><time>2026-05-05T08:21:43.75Z</time></trkpt><trkpt lat="37.2654024" lon="9.8783924"><ele>7.6000000000000005</ele><time>2026-05-05T08:21:44.751Z</time></trkpt><trkpt lat="37.2653581" lon="9.8785186"><ele>7.200000000000001</ele><time>2026-05-05T08:21:45.753Z</time></trkpt><trkpt lat="37.2653139" lon="9.8786481"><ele>6.8</ele><time>2026-05-05T08:21:46.719Z</time></trkpt><trkpt lat="37.2652694" lon="9.8787762"><ele>6.4</ele><time>2026-05-05T08:21:47.725Z</time></trkpt><trkpt lat="37.2652293" lon="9.8789054"><ele>6.0</ele><time>2026-05-05T08:21:48.741Z</time></trkpt><trkpt lat="37.2651913" lon="9.8790324"><ele>6.0</ele><time>2026-05-05T08:21:49.719Z</time></trkpt><trkpt lat="37.2651608" lon="9.8791624"><ele>6.0</ele><time>2026-05-05T08:21:50.745Z</time></trkpt><trkpt lat="37.2651299" lon="9.8792879"><ele>6.0</ele><time>2026-05-05T08:21:51.725Z</time></trkpt><trkpt lat="37.2651039" lon="9.8794111"><ele>6.0</ele><time>2026-05-05T08:21:52.727Z</time></trkpt><trkpt lat="37.265082" lon="9.8795359"><ele>6.0</ele><time>2026-05-05T08:21:53.746Z</time></trkpt><trkpt lat="37.265064" lon="9.8796593"><ele>5.6</ele><time>2026-05-05T08:21:54.752Z</time></trkpt><trkpt lat="37.2650496" lon="9.8797809"><ele>5.199999999999999</ele><time>2026-05-05T08:21:55.75Z</time></trkpt><trkpt lat="37.2650328" lon="9.8799053"><ele>4.800000000000001</ele><time>2026-05-05T08:21:56.721Z</time></trkpt><trkpt lat="37.2650239" lon="9.8800285"><ele>4.4</ele><time>2026-05-05T08:21:57.75Z</time></trkpt><trkpt lat="37.2650109" lon="9.8801426"><ele>4.0</ele><time>2026-05-05T08:21:58.734Z</time></trkpt><trkpt lat="37.265" lon="9.8802588"><ele>3.6</ele><time>2026-05-05T08:21:59.731Z</time></trkpt><trkpt lat="37.2649929" lon="9.8803793"><ele>3.2</ele><time>2026-05-05T08:22:00.712Z</time></trkpt><trkpt lat="37.2649925" lon="9.8805024"><ele>2.8000000000000003</ele><time>2026-05-05T08:22:01.753Z</time></trkpt><trkpt lat="37.2649987" lon="9.8806232"><ele>2.4000000000000004</ele><time>2026-05-05T08:22:02.754Z</time></trkpt><trkpt lat="37.2650056" lon="9.880746"><ele>2.0</ele><time>2026-05-05T08:22:03.76Z</time></trkpt><trkpt lat="37.2650166" lon="9.8808699"><ele>1.6</ele><time>2026-05-05T08:22:04.751Z</time></trkpt><trkpt lat="37.2650217" lon="9.8809891"><ele>1.2000000000000002</ele><time>2026-05-05T08:22:05.756Z</time></trkpt><trkpt lat="37.2650326" lon="9.8811161"><ele>0.8</ele><time>2026-05-05T08:22:06.727Z</time></trkpt><trkpt lat="37.2650387" lon="9.8812508"><ele>0.4</ele><time>2026-05-05T08:22:07.751Z</time></trkpt><trkpt lat="37.265049" lon="9.8813837"><ele>0.0</ele><time>2026-05-05T08:22:08.754Z</time></trkpt><trkpt lat="37.2650589" lon="9.8815204"><ele>0.0</ele><time>2026-05-05T08:22:09.734Z</time></trkpt><trkpt lat="37.2650752" lon="9.8816564"><ele>0.0</ele><time>2026-05-05T08:22:10.746Z</time></trkpt><trkpt lat="37.2650829" lon="9.8817905"><ele>0.0</ele><time>2026-05-05T08:22:11.707Z</time></trkpt><trkpt lat="37.2650868" lon="9.8819265"><ele>0.0</ele><time>2026-05-05T08:22:12.696Z</time></trkpt><trkpt lat="37.2650897" lon="9.8820652"><ele>0.0</ele><time>2026-05-05T08:22:13.713Z</time></trkpt><trkpt lat="37.2650909" lon="9.8822038"><ele>0.25</ele><time>2026-05-05T08:22:14.698Z</time></trkpt><trkpt lat="37.2650908" lon="9.8823449"><ele>0.5</ele><time>2026-05-05T08:22:15.735Z</time></trkpt><trkpt lat="37.2650883" lon="9.8824922"><ele>0.75</ele><time>2026-05-05T08:22:16.767Z</time></trkpt><trkpt lat="37.2650808" lon="9.8826475"><ele>1.0</ele><time>2026-05-05T08:22:17.756Z</time></trkpt><trkpt lat="37.2650691" lon="9.882807"><ele>1.25</ele><time>2026-05-05T08:22:18.756Z</time></trkpt><trkpt lat="37.2650569" lon="9.8829713"><ele>1.5</ele><time>2026-05-05T08:22:19.731Z</time></trkpt><trkpt lat="37.2650391" lon="9.8831361"><ele>1.75</ele><time>2026-05-05T08:22:20.751Z</time></trkpt><trkpt lat="37.2650206" lon="9.8832978"><ele>2.0</ele><time>2026-05-05T08:22:21.759Z</time></trkpt><trkpt lat="37.2650072" lon="9.8834585"><ele>1.0</ele><time>2026-05-05T08:22:22.759Z</time></trkpt><trkpt lat="37.2649918" lon="9.8836137"><ele>0.0</ele><time>2026-05-05T08:22:23.753Z</time></trkpt><trkpt lat="37.2649789" lon="9.8837617"><ele>-1.0</ele><time>2026-05-05T08:22:24.748Z</time></trkpt><trkpt lat="37.2649656" lon="9.8839067"><ele>-2.0</ele><time>2026-05-05T08:22:25.746Z</time></trkpt><trkpt lat="37.2649535" lon="9.8840413"><ele>-2.0</ele><time>2026-05-05T08:22:26.764Z</time></trkpt><trkpt lat="37.26494" lon="9.884167"><ele>-2.0</ele><time>2026-05-05T08:22:27.752Z</time></trkpt><trkpt lat="37.264921" lon="9.8842899"><ele>-2.0</ele><time>2026-05-05T08:22:28.752Z</time></trkpt><trkpt lat="37.2649045" lon="9.8844101"><ele>-2.0</ele><time>2026-05-05T08:22:29.755Z</time></trkpt><trkpt lat="37.2648883" lon="9.8845263"><ele>-2.0</ele><time>2026-05-05T08:22:30.757Z</time></trkpt><trkpt lat="37.2648753" lon="9.8846304"><ele>-1.4999999999999998</ele><time>2026-05-05T08:22:31.736Z</time></trkpt><trkpt lat="37.2648582" lon="9.8847321"><ele>-1.0</ele><time>2026-05-05T08:22:32.754Z</time></trkpt><trkpt lat="37.2648459" lon="9.884816"><ele>-0.5</ele><time>2026-05-05T08:22:33.751Z</time></trkpt><trkpt lat="37.2648325" lon="9.8849451"><ele>0.0</ele><time>2026-05-05T08:22:35.755Z</time></trkpt><trkpt lat="37.2648202" lon="9.885061"><ele>0.49999999999999994</ele><time>2026-05-05T08:22:37.747Z</time></trkpt><trkpt lat="37.2648118" lon="9.8851538"><ele>1.0</ele><time>2026-05-05T08:22:39.729Z</time></trkpt><trkpt lat="37.2647891" lon="9.8852507"><ele>1.0</ele><time>2026-05-05T08:22:42.76Z</time></trkpt><trkpt lat="37.2647548" lon="9.8853359"><ele>1.0</ele><time>2026-05-05T08:22:44.732Z</time></trkpt><trkpt lat="37.2647166" lon="9.8854624"><ele>1.0</ele><time>2026-05-05T08:22:46.752Z</time></trkpt><trkpt lat="37.2647162" lon="9.8856283"><ele>1.0</ele><time>2026-05-05T08:22:48.746Z</time></trkpt><trkpt lat="37.2647316" lon="9.885726"><ele>1.0</ele><time>2026-05-05T08:22:49.754Z</time></trkpt><trkpt lat="37.2647367" lon="9.8858307"><ele>0.8</ele><time>2026-05-05T08:22:50.753Z</time></trkpt><trkpt lat="37.2647226" lon="9.8859369"><ele>0.6000000000000001</ele><time>2026-05-05T08:22:51.713Z</time></trkpt><trkpt lat="37.2646981" lon="9.8860495"><ele>0.4</ele><time>2026-05-05T08:22:52.748Z</time></trkpt><trkpt lat="37.2646667" lon="9.8861702"><ele>0.2</ele><time>2026-05-05T08:22:53.76Z</time></trkpt><trkpt lat="37.2646316" lon="9.8862971"><ele>0.0</ele><time>2026-05-05T08:22:54.753Z</time></trkpt><trkpt lat="37.2645955" lon="9.8864361"><ele>0.0</ele><time>2026-05-05T08:22:55.744Z</time></trkpt><trkpt lat="37.2645622" lon="9.8865785"><ele>0.0</ele><time>2026-05-05T08:22:56.75Z</time></trkpt><trkpt lat="37.2645298" lon="9.8867161"><ele>0.0</ele><time>2026-05-05T08:22:57.747Z</time></trkpt><trkpt lat="37.2644893" lon="9.8868615"><ele>0.0</ele><time>2026-05-05T08:22:58.753Z</time></trkpt><trkpt lat="37.2644374" lon="9.8870077"><ele>0.25</ele><time>2026-05-05T08:22:59.758Z</time></trkpt><trkpt lat="37.2643804" lon="9.887156"><ele>0.5</ele><time>2026-05-05T08:23:00.726Z</time></trkpt><trkpt lat="37.2643079" lon="9.8872997"><ele>0.75</ele><time>2026-05-05T08:23:01.748Z</time></trkpt><trkpt lat="37.264222" lon="9.887447"><ele>1.0</ele><time>2026-05-05T08:23:02.752Z</time></trkpt><trkpt lat="37.2641325" lon="9.8875987"><ele>1.0</ele><time>2026-05-05T08:23:03.752Z</time></trkpt><trkpt lat="37.2640412" lon="9.887752"><ele>1.0</ele><time>2026-05-05T08:23:04.759Z</time></trkpt><trkpt lat="37.2639515" lon="9.8879018"><ele>1.0</ele><time>2026-05-05T08:23:05.749Z</time></trkpt><trkpt lat="37.2638652" lon="9.8880528"><ele>1.0</ele><time>2026-05-05T08:23:06.729Z</time></trkpt><trkpt lat="37.2637819" lon="9.8882031"><ele>1.0</ele><time>2026-05-05T08:23:07.72Z</time></trkpt><trkpt lat="37.2637047" lon="9.8883395"><ele>1.0</ele><time>2026-05-05T08:23:08.749Z</time></trkpt><trkpt lat="37.2636356" lon="9.8884742"><ele>1.0</ele><time>2026-05-05T08:23:09.715Z</time></trkpt><trkpt lat="37.2635698" lon="9.8885991"><ele>0.8333333333333333</ele><time>2026-05-05T08:23:10.749Z</time></trkpt><trkpt lat="37.2635133" lon="9.8887093"><ele>0.6666666666666666</ele><time>2026-05-05T08:23:11.754Z</time></trkpt><trkpt lat="37.263461" lon="9.8888069"><ele>0.5</ele><time>2026-05-05T08:23:12.739Z</time></trkpt><trkpt lat="37.2634105" lon="9.8888964"><ele>0.3333333333333333</ele><time>2026-05-05T08:23:13.731Z</time></trkpt><trkpt lat="37.2633648" lon="9.8889703"><ele>0.16666666666666666</ele><time>2026-05-05T08:23:14.742Z</time></trkpt><trkpt lat="37.2633019" lon="9.8890452"><ele>0.0</ele><time>2026-05-05T08:23:16.746Z</time></trkpt><trkpt lat="37.2632107" lon="9.889119"><ele>0.0</ele><time>2026-05-05T08:23:19.748Z</time></trkpt><trkpt lat="37.2631182" lon="9.8892239"><ele>0.0</ele><time>2026-05-05T08:23:21.737Z</time></trkpt><trkpt lat="37.2630901" lon="9.8892975"><ele>0.0</ele><time>2026-05-05T08:23:22.742Z</time></trkpt><trkpt lat="37.2630834" lon="9.8893884"><ele>0.0</ele><time>2026-05-05T08:23:23.738Z</time></trkpt><trkpt lat="37.2630651" lon="9.8894732"><ele>0.0</ele><time>2026-05-05T08:23:24.736Z</time></trkpt><trkpt lat="37.2630172" lon="9.8896283"><ele>0.0</ele><time>2026-05-05T08:23:26.766Z</time></trkpt><trkpt lat="37.2629854" lon="9.8897119"><ele>0.0</ele><time>2026-05-05T08:23:27.74Z</time></trkpt><trkpt lat="37.2629433" lon="9.8898153"><ele>0.0</ele><time>2026-05-05T08:23:28.745Z</time></trkpt><trkpt lat="37.2628854" lon="9.8899377"><ele>0.0</ele><time>2026-05-05T08:23:29.752Z</time></trkpt><trkpt lat="37.2628151" lon="9.8900708"><ele>0.0</ele><time>2026-05-05T08:23:30.752Z</time></trkpt><trkpt lat="37.2627361" lon="9.8901976"><ele>0.25</ele><time>2026-05-05T08:23:31.756Z</time></trkpt><trkpt lat="37.2626549" lon="9.8903217"><ele>0.5</ele><time>2026-05-05T08:23:32.735Z</time></trkpt><trkpt lat="37.2625711" lon="9.8904571"><ele>0.75</ele><time>2026-05-05T08:23:33.731Z</time></trkpt><trkpt lat="37.2624945" lon="9.8906029"><ele>1.0</ele><time>2026-05-05T08:23:34.734Z</time></trkpt><trkpt lat="37.2624166" lon="9.8907591"><ele>1.0</ele><time>2026-05-05T08:23:35.739Z</time></trkpt><trkpt lat="37.262346" lon="9.890923"><ele>1.0</ele><time>2026-05-05T08:23:36.758Z</time></trkpt><trkpt lat="37.2622792" lon="9.8910874"><ele>1.0</ele><time>2026-05-05T08:23:37.741Z</time></trkpt><trkpt lat="37.2622159" lon="9.8912475"><ele>1.0</ele><time>2026-05-05T08:23:38.754Z</time></trkpt><trkpt lat="37.2621539" lon="9.8914103"><ele>1.0</ele><time>2026-05-05T08:23:39.749Z</time></trkpt><trkpt lat="37.2620883" lon="9.8915729"><ele>1.0</ele><time>2026-05-05T08:23:40.751Z</time></trkpt><trkpt lat="37.2620198" lon="9.891737"><ele>1.0</ele><time>2026-05-05T08:23:41.75Z</time></trkpt><trkpt lat="37.2619516" lon="9.8918963"><ele>1.0</ele><time>2026-05-05T08:23:42.748Z</time></trkpt><trkpt lat="37.2618802" lon="9.8920558"><ele>1.0</ele><time>2026-05-05T08:23:43.728Z</time></trkpt><trkpt lat="37.2618113" lon="9.8922148"><ele>1.0</ele><time>2026-05-05T08:23:44.725Z</time></trkpt><trkpt lat="37.2617391" lon="9.8923712"><ele>1.0</ele><time>2026-05-05T08:23:45.746Z</time></trkpt><trkpt lat="37.2616608" lon="9.892526"><ele>1.0</ele><time>2026-05-05T08:23:46.742Z</time></trkpt><trkpt lat="37.2615822" lon="9.8926798"><ele>1.0</ele><time>2026-05-05T08:23:47.752Z</time></trkpt><trkpt lat="37.2614994" lon="9.8928291"><ele>1.0</ele><time>2026-05-05T08:23:48.749Z</time></trkpt><trkpt lat="37.2614158" lon="9.8929783"><ele>1.0</ele><time>2026-05-05T08:23:49.746Z</time></trkpt><trkpt lat="37.2613317" lon="9.8931222"><ele>1.0</ele><time>2026-05-05T08:23:50.748Z</time></trkpt><trkpt lat="37.2612444" lon="9.8932705"><ele>1.25</ele><time>2026-05-05T08:23:51.742Z</time></trkpt><trkpt lat="37.2611598" lon="9.8934183"><ele>1.5</ele><time>2026-05-05T08:23:52.758Z</time></trkpt><trkpt lat="37.261073" lon="9.8935627"><ele>1.75</ele><time>2026-05-05T08:23:53.729Z</time></trkpt><trkpt lat="37.2609866" lon="9.8937143"><ele>2.0</ele><time>2026-05-05T08:23:54.751Z</time></trkpt><trkpt lat="37.2608987" lon="9.8938662"><ele>1.5</ele><time>2026-05-05T08:23:55.726Z</time></trkpt><trkpt lat="37.2608104" lon="9.8940146"><ele>1.0</ele><time>2026-05-05T08:23:56.76Z</time></trkpt><trkpt lat="37.2607254" lon="9.8941627"><ele>0.5</ele><time>2026-05-05T08:23:57.726Z</time></trkpt><trkpt lat="37.2606409" lon="9.8943166"><ele>0.0</ele><time>2026-05-05T08:23:58.756Z</time></trkpt><trkpt lat="37.2605609" lon="9.8944746"><ele>0.0</ele><time>2026-05-05T08:23:59.729Z</time></trkpt><trkpt lat="37.2604785" lon="9.8946322"><ele>0.0</ele><time>2026-05-05T08:24:00.733Z</time></trkpt><trkpt lat="37.2603961" lon="9.8947862"><ele>0.0</ele><time>2026-05-05T08:24:01.75Z</time></trkpt><trkpt lat="37.2603099" lon="9.8949392"><ele>0.0</ele><time>2026-05-05T08:24:02.739Z</time></trkpt><trkpt lat="37.2602276" lon="9.8950804"><ele>0.5</ele><time>2026-05-05T08:24:03.746Z</time></trkpt><trkpt lat="37.2601488" lon="9.8952218"><ele>1.0</ele><time>2026-05-05T08:24:04.724Z</time></trkpt><trkpt lat="37.2600781" lon="9.8953617"><ele>1.5</ele><time>2026-05-05T08:24:05.751Z</time></trkpt><trkpt lat="37.2599973" lon="9.8955086"><ele>2.0</ele><time>2026-05-05T08:24:06.726Z</time></trkpt><trkpt lat="37.2599235" lon="9.8956482"><ele>2.0</ele><time>2026-05-05T08:24:07.746Z</time></trkpt><trkpt lat="37.2598469" lon="9.895787"><ele>2.0</ele><time>2026-05-05T08:24:08.747Z</time></trkpt><trkpt lat="37.259766" lon="9.8959239"><ele>2.0</ele><time>2026-05-05T08:24:09.762Z</time></trkpt><trkpt lat="37.2596838" lon="9.8960682"><ele>2.0</ele><time>2026-05-05T08:24:10.753Z</time></trkpt><trkpt lat="37.2595948" lon="9.8962122"><ele>2.0</ele><time>2026-05-05T08:24:11.759Z</time></trkpt><trkpt lat="37.259515" lon="9.896363"><ele>2.0</ele><time>2026-05-05T08:24:12.748Z</time></trkpt><trkpt lat="37.2594337" lon="9.8965243"><ele>2.0</ele><time>2026-05-05T08:24:13.747Z</time></trkpt><trkpt lat="37.2593576" lon="9.8966785"><ele>2.0</ele><time>2026-05-05T08:24:14.754Z</time></trkpt><trkpt lat="37.259279" lon="9.8968333"><ele>2.0</ele><time>2026-05-05T08:24:15.761Z</time></trkpt><trkpt lat="37.2592034" lon="9.896997"><ele>2.0</ele><time>2026-05-05T08:24:16.746Z</time></trkpt><trkpt lat="37.2591286" lon="9.8971585"><ele>2.0</ele><time>2026-05-05T08:24:17.738Z</time></trkpt><trkpt lat="37.2590576" lon="9.8973261"><ele>2.0</ele><time>2026-05-05T08:24:18.733Z</time></trkpt><trkpt lat="37.2589833" lon="9.8975014"><ele>2.0</ele><time>2026-05-05T08:24:19.751Z</time></trkpt><trkpt lat="37.2589074" lon="9.897683"><ele>2.0</ele><time>2026-05-05T08:24:20.748Z</time></trkpt><trkpt lat="37.2588234" lon="9.8978623"><ele>2.0</ele><time>2026-05-05T08:24:21.766Z</time></trkpt><trkpt lat="37.2587322" lon="9.8980502"><ele>2.0</ele><time>2026-05-05T08:24:22.756Z</time></trkpt><trkpt lat="37.2586347" lon="9.898239"><ele>2.0</ele><time>2026-05-05T08:24:23.743Z</time></trkpt><trkpt lat="37.258529" lon="9.898431"><ele>2.0</ele><time>2026-05-05T08:24:24.754Z</time></trkpt><trkpt lat="37.2584159" lon="9.8986167"><ele>2.0</ele><time>2026-05-05T08:24:25.762Z</time></trkpt><trkpt lat="37.2582932" lon="9.8987967"><ele>2.0</ele><time>2026-05-05T08:24:26.729Z</time></trkpt><trkpt lat="37.2581662" lon="9.8989681"><ele>2.0</ele><time>2026-05-05T08:24:27.741Z</time></trkpt><trkpt lat="37.2580358" lon="9.8991375"><ele>2.0</ele><time>2026-05-05T08:24:28.757Z</time></trkpt><trkpt lat="37.2578997" lon="9.8992949"><ele>2.0</ele><time>2026-05-05T08:24:29.758Z</time></trkpt><trkpt lat="37.2577676" lon="9.8994511"><ele>2.6666666666666665</ele><time>2026-05-05T08:24:30.757Z</time></trkpt><trkpt lat="37.2576355" lon="9.8995974"><ele>3.333333333333333</ele><time>2026-05-05T08:24:31.753Z</time></trkpt><trkpt lat="37.2575113" lon="9.8997358"><ele>4.0</ele><time>2026-05-05T08:24:32.744Z</time></trkpt><trkpt lat="37.2573923" lon="9.8998732"><ele>3.6666666666666665</ele><time>2026-05-05T08:24:33.749Z</time></trkpt><trkpt lat="37.2572736" lon="9.9000142"><ele>3.333333333333333</ele><time>2026-05-05T08:24:34.731Z</time></trkpt><trkpt lat="37.2571599" lon="9.9001553"><ele>3.0</ele><time>2026-05-05T08:24:35.749Z</time></trkpt><trkpt lat="37.2570459" lon="9.9002885"><ele>3.0</ele><time>2026-05-05T08:24:36.738Z</time></trkpt><trkpt lat="37.256929" lon="9.9004203"><ele>3.0</ele><time>2026-05-05T08:24:37.722Z</time></trkpt><trkpt lat="37.2568164" lon="9.9005539"><ele>3.0</ele><time>2026-05-05T08:24:38.75Z</time></trkpt><trkpt lat="37.2567094" lon="9.9006832"><ele>3.0</ele><time>2026-05-05T08:24:39.763Z</time></trkpt><trkpt lat="37.2566111" lon="9.900798"><ele>3.0</ele><time>2026-05-05T08:24:40.752Z</time></trkpt><trkpt lat="37.2565202" lon="9.9009094"><ele>3.0</ele><time>2026-05-05T08:24:41.75Z</time></trkpt><trkpt lat="37.256437" lon="9.9010168"><ele>3.0</ele><time>2026-05-05T08:24:42.754Z</time></trkpt><trkpt lat="37.256367" lon="9.9011151"><ele>3.5</ele><time>2026-05-05T08:24:43.774Z</time></trkpt><trkpt lat="37.2563028" lon="9.9012123"><ele>4.0</ele><time>2026-05-05T08:24:44.756Z</time></trkpt><trkpt lat="37.2562491" lon="9.901305"><ele>4.5</ele><time>2026-05-05T08:24:45.754Z</time></trkpt><trkpt lat="37.2562075" lon="9.9013839"><ele>5.0</ele><time>2026-05-05T08:24:46.772Z</time></trkpt><trkpt lat="37.2561778" lon="9.9014646"><ele>5.5</ele><time>2026-05-05T08:24:47.719Z</time></trkpt><trkpt lat="37.2561649" lon="9.9015531"><ele>6.0</ele><time>2026-05-05T08:24:48.748Z</time></trkpt><trkpt lat="37.2561624" lon="9.9016422"><ele>6.0</ele><time>2026-05-05T08:24:49.761Z</time></trkpt><trkpt lat="37.2561692" lon="9.9017358"><ele>6.0</ele><time>2026-05-05T08:24:50.756Z</time></trkpt><trkpt lat="37.2561974" lon="9.9018339"><ele>6.0</ele><time>2026-05-05T08:24:51.743Z</time></trkpt><trkpt lat="37.2562262" lon="9.9019249"><ele>6.0</ele><time>2026-05-05T08:24:52.752Z</time></trkpt><trkpt lat="37.2562617" lon="9.9020109"><ele>6.0</ele><time>2026-05-05T08:24:53.757Z</time></trkpt><trkpt lat="37.2562801" lon="9.9021119"><ele>6.0</ele><time>2026-05-05T08:24:54.75Z</time></trkpt><trkpt lat="37.2562615" lon="9.9022142"><ele>5.0</ele><time>2026-05-05T08:24:55.757Z</time></trkpt><trkpt lat="37.2562159" lon="9.9023413"><ele>4.0</ele><time>2026-05-05T08:24:56.73Z</time></trkpt><trkpt lat="37.2561618" lon="9.9024817"><ele>3.0</ele><time>2026-05-05T08:24:57.738Z</time></trkpt><trkpt lat="37.2561" lon="9.9026316"><ele>2.0</ele><time>2026-05-05T08:24:58.746Z</time></trkpt><trkpt lat="37.2560375" lon="9.9027909"><ele>2.0</ele><time>2026-05-05T08:24:59.736Z</time></trkpt><trkpt lat="37.2559662" lon="9.902953"><ele>2.0</ele><time>2026-05-05T08:25:00.731Z</time></trkpt><trkpt lat="37.2558992" lon="9.9031241"><ele>2.0</ele><time>2026-05-05T08:25:01.724Z</time></trkpt><trkpt lat="37.2558354" lon="9.9032971"><ele>2.0</ele><time>2026-05-05T08:25:02.744Z</time></trkpt><trkpt lat="37.255769" lon="9.903478"><ele>2.0</ele><time>2026-05-05T08:25:03.741Z</time></trkpt><trkpt lat="37.2557005" lon="9.9036539"><ele>2.0</ele><time>2026-05-05T08:25:04.757Z</time></trkpt><trkpt lat="37.2556305" lon="9.903842"><ele>2.333333333333333</ele><time>2026-05-05T08:25:05.754Z</time></trkpt><trkpt lat="37.2555611" lon="9.9040295"><ele>2.6666666666666665</ele><time>2026-05-05T08:25:06.756Z</time></trkpt><trkpt lat="37.2554927" lon="9.9042186"><ele>3.0</ele><time>2026-05-05T08:25:07.745Z</time></trkpt><trkpt lat="37.2554151" lon="9.9044067"><ele>2.3333333333333335</ele><time>2026-05-05T08:25:08.744Z</time></trkpt><trkpt lat="37.2553357" lon="9.9046045"><ele>1.6666666666666665</ele><time>2026-05-05T08:25:09.753Z</time></trkpt><trkpt lat="37.255252" lon="9.9048008"><ele>1.0</ele><time>2026-05-05T08:25:10.751Z</time></trkpt><trkpt lat="37.2551759" lon="9.9049904"><ele>0.3333333333333333</ele><time>2026-05-05T08:25:11.715Z</time></trkpt><trkpt lat="37.2550987" lon="9.9051882"><ele>-0.3333333333333333</ele><time>2026-05-05T08:25:12.71Z</time></trkpt><trkpt lat="37.2550169" lon="9.9053934"><ele>-1.0</ele><time>2026-05-05T08:25:13.749Z</time></trkpt><trkpt lat="37.2549301" lon="9.9056043"><ele>-1.0</ele><time>2026-05-05T08:25:14.761Z</time></trkpt><trkpt lat="37.2548433" lon="9.9058141"><ele>-1.0</ele><time>2026-05-05T08:25:15.753Z</time></trkpt><trkpt lat="37.2547581" lon="9.9060231"><ele>-1.0</ele><time>2026-05-05T08:25:16.75Z</time></trkpt><trkpt lat="37.2546691" lon="9.9062283"><ele>0.0</ele><time>2026-05-05T08:25:17.714Z</time></trkpt><trkpt lat="37.2545805" lon="9.906427"><ele>1.0</ele><time>2026-05-05T08:25:18.75Z</time></trkpt><trkpt lat="37.2544916" lon="9.9066228"><ele>2.0</ele><time>2026-05-05T08:25:19.723Z</time></trkpt><trkpt lat="37.2544024" lon="9.9068259"><ele>2.6666666666666665</ele><time>2026-05-05T08:25:20.754Z</time></trkpt><trkpt lat="37.2543111" lon="9.9070386"><ele>3.333333333333333</ele><time>2026-05-05T08:25:21.769Z</time></trkpt><trkpt lat="37.2542219" lon="9.9072652"><ele>4.0</ele><time>2026-05-05T08:25:22.711Z</time></trkpt><trkpt lat="37.2541259" lon="9.9074961"><ele>4.0</ele><time>2026-05-05T08:25:23.697Z</time></trkpt><trkpt lat="37.2540285" lon="9.9077342"><ele>4.0</ele><time>2026-05-05T08:25:24.713Z</time></trkpt><trkpt lat="37.2539252" lon="9.9079809"><ele>4.0</ele><time>2026-05-05T08:25:25.708Z</time></trkpt><trkpt lat="37.25382" lon="9.9082236"><ele>5.0</ele><time>2026-05-05T08:25:26.73Z</time></trkpt><trkpt lat="37.253715" lon="9.9084733"><ele>6.0</ele><time>2026-05-05T08:25:27.72Z</time></trkpt><trkpt lat="37.2536096" lon="9.9087156"><ele>7.0</ele><time>2026-05-05T08:25:28.755Z</time></trkpt><trkpt lat="37.2535045" lon="9.9089486"><ele>7.0</ele><time>2026-05-05T08:25:29.744Z</time></trkpt><trkpt lat="37.2533982" lon="9.9091791"><ele>7.0</ele><time>2026-05-05T08:25:30.73Z</time></trkpt><trkpt lat="37.253294" lon="9.909408"><ele>7.0</ele><time>2026-05-05T08:25:31.742Z</time></trkpt><trkpt lat="37.2531873" lon="9.9096455"><ele>7.0</ele><time>2026-05-05T08:25:32.755Z</time></trkpt><trkpt lat="37.2530737" lon="9.9098873"><ele>7.0</ele><time>2026-05-05T08:25:33.73Z</time></trkpt><trkpt lat="37.25296" lon="9.9101381"><ele>7.5</ele><time>2026-05-05T08:25:34.735Z</time></trkpt><trkpt lat="37.2528421" lon="9.9103876"><ele>8.0</ele><time>2026-05-05T08:25:35.759Z</time></trkpt><trkpt lat="37.2527255" lon="9.9106418"><ele>8.0</ele><time>2026-05-05T08:25:36.754Z</time></trkpt><trkpt lat="37.2526064" lon="9.9109014"><ele>8.0</ele><time>2026-05-05T08:25:37.751Z</time></trkpt><trkpt lat="37.2524795" lon="9.9111598"><ele>8.0</ele><time>2026-05-05T08:25:38.747Z</time></trkpt><trkpt lat="37.2523571" lon="9.9114137"><ele>8.0</ele><time>2026-05-05T08:25:39.736Z</time></trkpt><trkpt lat="37.2522272" lon="9.9116686"><ele>8.5</ele><time>2026-05-05T08:25:40.75Z</time></trkpt><trkpt lat="37.2521031" lon="9.9119215"><ele>9.0</ele><time>2026-05-05T08:25:41.751Z</time></trkpt><trkpt lat="37.251978" lon="9.9121721"><ele>9.0</ele><time>2026-05-05T08:25:42.731Z</time></trkpt><trkpt lat="37.2518496" lon="9.9124223"><ele>9.0</ele><time>2026-05-05T08:25:43.749Z</time></trkpt><trkpt lat="37.2517194" lon="9.9126737"><ele>9.5</ele><time>2026-05-05T08:25:44.75Z</time></trkpt><trkpt lat="37.2515921" lon="9.9129203"><ele>10.0</ele><time>2026-05-05T08:25:45.748Z</time></trkpt><trkpt lat="37.2514629" lon="9.9131638"><ele>10.5</ele><time>2026-05-05T08:25:46.741Z</time></trkpt><trkpt lat="37.2513352" lon="9.9134104"><ele>11.0</ele><time>2026-05-05T08:25:47.753Z</time></trkpt><trkpt lat="37.2512052" lon="9.9136608"><ele>11.0</ele><time>2026-05-05T08:25:48.728Z</time></trkpt><trkpt lat="37.2510738" lon="9.9139144"><ele>11.0</ele><time>2026-05-05T08:25:49.751Z</time></trkpt><trkpt lat="37.2509445" lon="9.9141625"><ele>9.5</ele><time>2026-05-05T08:25:50.753Z</time></trkpt><trkpt lat="37.2508156" lon="9.9144088"><ele>8.0</ele><time>2026-05-05T08:25:51.694Z</time></trkpt><trkpt lat="37.2506845" lon="9.9146606"><ele>11.0</ele><time>2026-05-05T08:25:52.744Z</time></trkpt><trkpt lat="37.2505533" lon="9.9149105"><ele>14.0</ele><time>2026-05-05T08:25:53.726Z</time></trkpt><trkpt lat="37.2504243" lon="9.9151579"><ele>15.5</ele><time>2026-05-05T08:25:54.743Z</time></trkpt><trkpt lat="37.2502978" lon="9.9154101"><ele>17.0</ele><time>2026-05-05T08:25:55.753Z</time></trkpt><trkpt lat="37.2501686" lon="9.9156589"><ele>16.0</ele><time>2026-05-05T08:25:56.741Z</time></trkpt><trkpt lat="37.2500402" lon="9.9159098"><ele>15.0</ele><time>2026-05-05T08:25:57.733Z</time></trkpt><trkpt lat="37.2499106" lon="9.9161629"><ele>18.0</ele><time>2026-05-05T08:25:58.74Z</time></trkpt><trkpt lat="37.2497805" lon="9.9164164"><ele>21.0</ele><time>2026-05-05T08:25:59.736Z</time></trkpt><trkpt lat="37.2496541" lon="9.9166615"><ele>21.0</ele><time>2026-05-05T08:26:00.717Z</time></trkpt><trkpt lat="37.2495266" lon="9.916915"><ele>21.0</ele><time>2026-05-05T08:26:01.761Z</time></trkpt><trkpt lat="37.2493985" lon="9.9171643"><ele>21.0</ele><time>2026-05-05T08:26:02.726Z</time></trkpt><trkpt lat="37.2492714" lon="9.9174181"><ele>21.0</ele><time>2026-05-05T08:26:03.751Z</time></trkpt><trkpt lat="37.249143" lon="9.9176692"><ele>20.0</ele><time>2026-05-05T08:26:04.732Z</time></trkpt><trkpt lat="37.2490153" lon="9.9179224"><ele>19.0</ele><time>2026-05-05T08:26:05.741Z</time></trkpt><trkpt lat="37.2488888" lon="9.9181774"><ele>20.5</ele><time>2026-05-05T08:26:06.748Z</time></trkpt><trkpt lat="37.2487635" lon="9.9184277"><ele>22.0</ele><time>2026-05-05T08:26:07.765Z</time></trkpt><trkpt lat="37.2486311" lon="9.9186752"><ele>22.0</ele><time>2026-05-05T08:26:08.734Z</time></trkpt><trkpt lat="37.2484982" lon="9.9189228"><ele>22.0</ele><time>2026-05-05T08:26:09.746Z</time></trkpt><trkpt lat="37.2483713" lon="9.9191725"><ele>22.5</ele><time>2026-05-05T08:26:10.749Z</time></trkpt><trkpt lat="37.2482445" lon="9.9194217"><ele>23.0</ele><time>2026-05-05T08:26:11.718Z</time></trkpt><trkpt lat="37.248116" lon="9.9196729"><ele>23.0</ele><time>2026-05-05T08:26:12.747Z</time></trkpt><trkpt lat="37.2479886" lon="9.9199242"><ele>23.0</ele><time>2026-05-05T08:26:13.741Z</time></trkpt><trkpt lat="37.2478583" lon="9.9201754"><ele>23.0</ele><time>2026-05-05T08:26:14.748Z</time></trkpt><trkpt lat="37.2477274" lon="9.9204201"><ele>23.0</ele><time>2026-05-05T08:26:15.746Z</time></trkpt><trkpt lat="37.2475998" lon="9.9206656"><ele>24.5</ele><time>2026-05-05T08:26:16.749Z</time></trkpt><trkpt lat="37.2474742" lon="9.9209159"><ele>26.0</ele><time>2026-05-05T08:26:17.749Z</time></trkpt><trkpt lat="37.2473509" lon="9.9211705"><ele>28.5</ele><time>2026-05-05T08:26:18.696Z</time></trkpt><trkpt lat="37.2472285" lon="9.9214191"><ele>31.0</ele><time>2026-05-05T08:26:19.705Z</time></trkpt><trkpt lat="37.2471021" lon="9.9216652"><ele>31.0</ele><time>2026-05-05T08:26:20.739Z</time></trkpt><trkpt lat="37.246972" lon="9.9219107"><ele>31.0</ele><time>2026-05-05T08:26:21.699Z</time></trkpt><trkpt lat="37.2468442" lon="9.9221604"><ele>31.0</ele><time>2026-05-05T08:26:22.701Z</time></trkpt><trkpt lat="37.2467168" lon="9.9224139"><ele>31.0</ele><time>2026-05-05T08:26:23.722Z</time></trkpt><trkpt lat="37.2465904" lon="9.922667"><ele>34.0</ele><time>2026-05-05T08:26:24.752Z</time></trkpt><trkpt lat="37.2464602" lon="9.9229136"><ele>37.0</ele><time>2026-05-05T08:26:25.749Z</time></trkpt><trkpt lat="37.246331" lon="9.9231608"><ele>37.0</ele><time>2026-05-05T08:26:26.749Z</time></trkpt><trkpt lat="37.246202" lon="9.9234072"><ele>37.0</ele><time>2026-05-05T08:26:27.752Z</time></trkpt><trkpt lat="37.2460729" lon="9.9236569"><ele>37.0</ele><time>2026-05-05T08:26:28.745Z</time></trkpt><trkpt lat="37.2459437" lon="9.9239117"><ele>37.0</ele><time>2026-05-05T08:26:29.733Z</time></trkpt><trkpt lat="37.2458168" lon="9.9241605"><ele>36.5</ele><time>2026-05-05T08:26:30.746Z</time></trkpt><trkpt lat="37.2456868" lon="9.9244078"><ele>36.0</ele><time>2026-05-05T08:26:31.732Z</time></trkpt><trkpt lat="37.245559" lon="9.9246593"><ele>36.0</ele><time>2026-05-05T08:26:32.755Z</time></trkpt><trkpt lat="37.2454264" lon="9.9249047"><ele>36.0</ele><time>2026-05-05T08:26:33.753Z</time></trkpt><trkpt lat="37.2452904" lon="9.9251506"><ele>34.5</ele><time>2026-05-05T08:26:34.71Z</time></trkpt><trkpt lat="37.2451556" lon="9.9253914"><ele>33.0</ele><time>2026-05-05T08:26:35.735Z</time></trkpt><trkpt lat="37.2450197" lon="9.9256335"><ele>33.0</ele><time>2026-05-05T08:26:36.72Z</time></trkpt><trkpt lat="37.2448857" lon="9.9258782"><ele>33.0</ele><time>2026-05-05T08:26:37.746Z</time></trkpt><trkpt lat="37.2447548" lon="9.9261267"><ele>33.5</ele><time>2026-05-05T08:26:38.723Z</time></trkpt><trkpt lat="37.2446251" lon="9.9263775"><ele>34.0</ele><time>2026-05-05T08:26:39.759Z</time></trkpt><trkpt lat="37.2445012" lon="9.9266281"><ele>33.0</ele><time>2026-05-05T08:26:40.713Z</time></trkpt><trkpt lat="37.2443756" lon="9.9268789"><ele>32.0</ele><time>2026-05-05T08:26:41.757Z</time></trkpt><trkpt lat="37.2442504" lon="9.9271313"><ele>32.0</ele><time>2026-05-05T08:26:42.756Z</time></trkpt><trkpt lat="37.2441252" lon="9.9273816"><ele>32.0</ele><time>2026-05-05T08:26:43.746Z</time></trkpt><trkpt lat="37.2439993" lon="9.9276244"><ele>33.0</ele><time>2026-05-05T08:26:44.739Z</time></trkpt><trkpt lat="37.2438661" lon="9.9278656"><ele>34.0</ele><time>2026-05-05T08:26:45.746Z</time></trkpt><trkpt lat="37.24373" lon="9.9281082"><ele>34.0</ele><time>2026-05-05T08:26:46.709Z</time></trkpt><trkpt lat="37.2435924" lon="9.9283485"><ele>34.0</ele><time>2026-05-05T08:26:47.764Z</time></trkpt><trkpt lat="37.2434531" lon="9.928591"><ele>35.0</ele><time>2026-05-05T08:26:48.72Z</time></trkpt><trkpt lat="37.243312" lon="9.9288304"><ele>36.0</ele><time>2026-05-05T08:26:49.751Z</time></trkpt><trkpt lat="37.2431672" lon="9.9290672"><ele>38.5</ele><time>2026-05-05T08:26:50.746Z</time></trkpt><trkpt lat="37.243018" lon="9.9293011"><ele>41.0</ele><time>2026-05-05T08:26:51.73Z</time></trkpt><trkpt lat="37.24287" lon="9.9295309"><ele>41.0</ele><time>2026-05-05T08:26:52.758Z</time></trkpt><trkpt lat="37.2427165" lon="9.9297606"><ele>41.0</ele><time>2026-05-05T08:26:53.746Z</time></trkpt><trkpt lat="37.2425651" lon="9.9299829"><ele>39.5</ele><time>2026-05-05T08:26:54.749Z</time></trkpt><trkpt lat="37.2424032" lon="9.9302027"><ele>38.0</ele><time>2026-05-05T08:26:55.751Z</time></trkpt><trkpt lat="37.2422457" lon="9.9304289"><ele>38.0</ele><time>2026-05-05T08:26:56.742Z</time></trkpt><trkpt lat="37.2420816" lon="9.9306469"><ele>38.0</ele><time>2026-05-05T08:26:57.751Z</time></trkpt><trkpt lat="37.2419161" lon="9.930865"><ele>38.5</ele><time>2026-05-05T08:26:58.733Z</time></trkpt><trkpt lat="37.2417439" lon="9.9310789"><ele>39.0</ele><time>2026-05-05T08:26:59.744Z</time></trkpt><trkpt lat="37.2415722" lon="9.9312866"><ele>34.5</ele><time>2026-05-05T08:27:00.712Z</time></trkpt><trkpt lat="37.241402" lon="9.931495"><ele>30.0</ele><time>2026-05-05T08:27:01.756Z</time></trkpt><trkpt lat="37.2412334" lon="9.9317024"><ele>30.5</ele><time>2026-05-05T08:27:02.752Z</time></trkpt><trkpt lat="37.2410573" lon="9.9319057"><ele>31.0</ele><time>2026-05-05T08:27:03.741Z</time></trkpt><trkpt lat="37.2408821" lon="9.9321038"><ele>31.0</ele><time>2026-05-05T08:27:04.743Z</time></trkpt><trkpt lat="37.2407041" lon="9.9323011"><ele>31.0</ele><time>2026-05-05T08:27:05.749Z</time></trkpt><trkpt lat="37.2405273" lon="9.9324943"><ele>26.5</ele><time>2026-05-05T08:27:06.753Z</time></trkpt><trkpt lat="37.2403446" lon="9.9326814"><ele>22.0</ele><time>2026-05-05T08:27:07.745Z</time></trkpt><trkpt lat="37.2401661" lon="9.9328749"><ele>22.0</ele><time>2026-05-05T08:27:08.754Z</time></trkpt><trkpt lat="37.2399845" lon="9.9330683"><ele>22.0</ele><time>2026-05-05T08:27:09.747Z</time></trkpt><trkpt lat="37.2398054" lon="9.933262"><ele>21.5</ele><time>2026-05-05T08:27:10.757Z</time></trkpt><trkpt lat="37.239626" lon="9.933458"><ele>21.0</ele><time>2026-05-05T08:27:11.751Z</time></trkpt><trkpt lat="37.2394497" lon="9.9336506"><ele>21.0</ele><time>2026-05-05T08:27:12.753Z</time></trkpt><trkpt lat="37.2392669" lon="9.9338413"><ele>21.0</ele><time>2026-05-05T08:27:13.739Z</time></trkpt><trkpt lat="37.2390817" lon="9.9340348"><ele>19.5</ele><time>2026-05-05T08:27:14.745Z</time></trkpt><trkpt lat="37.2388991" lon="9.9342293"><ele>18.0</ele><time>2026-05-05T08:27:15.746Z</time></trkpt><trkpt lat="37.2387157" lon="9.9344221"><ele>18.0</ele><time>2026-05-05T08:27:16.746Z</time></trkpt><trkpt lat="37.2385363" lon="9.9346135"><ele>18.0</ele><time>2026-05-05T08:27:17.746Z</time></trkpt><trkpt lat="37.2383529" lon="9.9348071"><ele>18.0</ele><time>2026-05-05T08:27:18.723Z</time></trkpt><trkpt lat="37.2381703" lon="9.9349962"><ele>18.0</ele><time>2026-05-05T08:27:19.749Z</time></trkpt><trkpt lat="37.2379913" lon="9.9351906"><ele>17.0</ele><time>2026-05-05T08:27:20.746Z</time></trkpt><trkpt lat="37.2378098" lon="9.9353859"><ele>16.0</ele><time>2026-05-05T08:27:21.73Z</time></trkpt><trkpt lat="37.2376271" lon="9.9355772"><ele>16.0</ele><time>2026-05-05T08:27:22.752Z</time></trkpt><trkpt lat="37.2374455" lon="9.9357699"><ele>16.0</ele><time>2026-05-05T08:27:23.751Z</time></trkpt><trkpt lat="37.2372637" lon="9.9359612"><ele>16.0</ele><time>2026-05-05T08:27:24.748Z</time></trkpt><trkpt lat="37.2370806" lon="9.9361501"><ele>16.0</ele><time>2026-05-05T08:27:25.75Z</time></trkpt><trkpt lat="37.2369021" lon="9.9363389"><ele>16.0</ele><time>2026-05-05T08:27:26.741Z</time></trkpt><trkpt lat="37.2367204" lon="9.9365287"><ele>16.0</ele><time>2026-05-05T08:27:27.708Z</time></trkpt><trkpt lat="37.23654" lon="9.9367236"><ele>15.5</ele><time>2026-05-05T08:27:28.719Z</time></trkpt><trkpt lat="37.2363629" lon="9.9369148"><ele>15.0</ele><time>2026-05-05T08:27:29.745Z</time></trkpt><trkpt lat="37.2361811" lon="9.9371096"><ele>15.0</ele><time>2026-05-05T08:27:30.752Z</time></trkpt><trkpt lat="37.236" lon="9.9373044"><ele>15.0</ele><time>2026-05-05T08:27:31.719Z</time></trkpt><trkpt lat="37.235818" lon="9.9374958"><ele>15.0</ele><time>2026-05-05T08:27:32.733Z</time></trkpt><trkpt lat="37.2356444" lon="9.9376975"><ele>15.0</ele><time>2026-05-05T08:27:33.752Z</time></trkpt><trkpt lat="37.2354685" lon="9.9378936"><ele>13.5</ele><time>2026-05-05T08:27:34.719Z</time></trkpt><trkpt lat="37.2352934" lon="9.9381033"><ele>12.0</ele><time>2026-05-05T08:27:35.744Z</time></trkpt><trkpt lat="37.2351194" lon="9.9383083"><ele>12.5</ele><time>2026-05-05T08:27:36.741Z</time></trkpt><trkpt lat="37.2349509" lon="9.9385119"><ele>13.0</ele><time>2026-05-05T08:27:37.743Z</time></trkpt><trkpt lat="37.2347858" lon="9.9387239"><ele>11.0</ele><time>2026-05-05T08:27:38.732Z</time></trkpt><trkpt lat="37.234621" lon="9.938934"><ele>9.0</ele><time>2026-05-05T08:27:39.743Z</time></trkpt><trkpt lat="37.2344527" lon="9.9391491"><ele>9.5</ele><time>2026-05-05T08:27:40.755Z</time></trkpt><trkpt lat="37.2342901" lon="9.9393649"><ele>10.0</ele><time>2026-05-05T08:27:41.744Z</time></trkpt><trkpt lat="37.2341295" lon="9.9395841"><ele>10.0</ele><time>2026-05-05T08:27:42.738Z</time></trkpt><trkpt lat="37.2339736" lon="9.939806"><ele>10.0</ele><time>2026-05-05T08:27:43.74Z</time></trkpt><trkpt lat="37.2338169" lon="9.9400249"><ele>8.0</ele><time>2026-05-05T08:27:44.757Z</time></trkpt><trkpt lat="37.2336589" lon="9.940241"><ele>6.0</ele><time>2026-05-05T08:27:45.747Z</time></trkpt><trkpt lat="37.2335039" lon="9.9404611"><ele>6.0</ele><time>2026-05-05T08:27:46.746Z</time></trkpt><trkpt lat="37.233348" lon="9.9406839"><ele>6.0</ele><time>2026-05-05T08:27:47.745Z</time></trkpt><trkpt lat="37.2331976" lon="9.9409146"><ele>5.0</ele><time>2026-05-05T08:27:48.736Z</time></trkpt><trkpt lat="37.2330438" lon="9.9411505"><ele>4.0</ele><time>2026-05-05T08:27:49.75Z</time></trkpt><trkpt lat="37.2328927" lon="9.941389"><ele>4.0</ele><time>2026-05-05T08:27:50.757Z</time></trkpt><trkpt lat="37.2327469" lon="9.9416267"><ele>4.0</ele><time>2026-05-05T08:27:51.748Z</time></trkpt><trkpt lat="37.2326052" lon="9.9418628"><ele>5.0</ele><time>2026-05-05T08:27:52.717Z</time></trkpt><trkpt lat="37.2324628" lon="9.9421069"><ele>6.0</ele><time>2026-05-05T08:27:53.742Z</time></trkpt><trkpt lat="37.2323218" lon="9.9423452"><ele>5.5</ele><time>2026-05-05T08:27:54.746Z</time></trkpt><trkpt lat="37.2321841" lon="9.942584"><ele>5.0</ele><time>2026-05-05T08:27:55.742Z</time></trkpt><trkpt lat="37.232049" lon="9.9428267"><ele>5.0</ele><time>2026-05-05T08:27:56.746Z</time></trkpt><trkpt lat="37.2319163" lon="9.9430688"><ele>5.0</ele><time>2026-05-05T08:27:57.747Z</time></trkpt><trkpt lat="37.2317834" lon="9.9433185"><ele>6.0</ele><time>2026-05-05T08:27:58.745Z</time></trkpt><trkpt lat="37.2316542" lon="9.9435661"><ele>7.0</ele><time>2026-05-05T08:27:59.738Z</time></trkpt><trkpt lat="37.2315241" lon="9.943813"><ele>5.5</ele><time>2026-05-05T08:28:00.723Z</time></trkpt><trkpt lat="37.2313949" lon="9.9440638"><ele>4.0</ele><time>2026-05-05T08:28:01.744Z</time></trkpt><trkpt lat="37.2312682" lon="9.9443122"><ele>4.0</ele><time>2026-05-05T08:28:02.737Z</time></trkpt><trkpt lat="37.2311435" lon="9.9445693"><ele>4.0</ele><time>2026-05-05T08:28:03.735Z</time></trkpt><trkpt lat="37.2310199" lon="9.9448142"><ele>4.0</ele><time>2026-05-05T08:28:04.745Z</time></trkpt><trkpt lat="37.230909" lon="9.945044"><ele>4.0</ele><time>2026-05-05T08:28:05.743Z</time></trkpt><trkpt lat="37.2308012" lon="9.9452622"><ele>4.0</ele><time>2026-05-05T08:28:06.733Z</time></trkpt><trkpt lat="37.2306941" lon="9.9454812"><ele>3.333333333333333</ele><time>2026-05-05T08:28:07.745Z</time></trkpt><trkpt lat="37.2305941" lon="9.9456955"><ele>2.6666666666666665</ele><time>2026-05-05T08:28:08.745Z</time></trkpt><trkpt lat="37.2305013" lon="9.9458996"><ele>2.0</ele><time>2026-05-05T08:28:09.741Z</time></trkpt><trkpt lat="37.2304089" lon="9.9460914"><ele>2.0</ele><time>2026-05-05T08:28:10.736Z</time></trkpt><trkpt lat="37.2303231" lon="9.9462718"><ele>2.0</ele><time>2026-05-05T08:28:11.739Z</time></trkpt><trkpt lat="37.2302421" lon="9.9464468"><ele>2.0</ele><time>2026-05-05T08:28:12.711Z</time></trkpt><trkpt lat="37.2301687" lon="9.946613"><ele>2.5</ele><time>2026-05-05T08:28:13.698Z</time></trkpt><trkpt lat="37.2300928" lon="9.9467745"><ele>3.0</ele><time>2026-05-05T08:28:14.736Z</time></trkpt><trkpt lat="37.2300209" lon="9.9469228"><ele>3.5</ele><time>2026-05-05T08:28:15.747Z</time></trkpt><trkpt lat="37.2299522" lon="9.947065"><ele>4.0</ele><time>2026-05-05T08:28:16.741Z</time></trkpt><trkpt lat="37.2298885" lon="9.9471941"><ele>4.0</ele><time>2026-05-05T08:28:17.751Z</time></trkpt><trkpt lat="37.2298293" lon="9.9473202"><ele>4.0</ele><time>2026-05-05T08:28:18.742Z</time></trkpt><trkpt lat="37.2297759" lon="9.9474383"><ele>4.0</ele><time>2026-05-05T08:28:19.694Z</time></trkpt><trkpt lat="37.2297271" lon="9.9475415"><ele>4.0</ele><time>2026-05-05T08:28:20.737Z</time></trkpt><trkpt lat="37.2296811" lon="9.9476396"><ele>4.0</ele><time>2026-05-05T08:28:21.746Z</time></trkpt><trkpt lat="37.2296382" lon="9.9477374"><ele>3.8571428571428568</ele><time>2026-05-05T08:28:22.728Z</time></trkpt><trkpt lat="37.2295998" lon="9.9478211"><ele>3.714285714285714</ele><time>2026-05-05T08:28:23.733Z</time></trkpt><trkpt lat="37.2295611" lon="9.9478982"><ele>3.571428571428571</ele><time>2026-05-05T08:28:24.722Z</time></trkpt><trkpt lat="37.2295272" lon="9.9479661"><ele>3.4285714285714284</ele><time>2026-05-05T08:28:25.703Z</time></trkpt><trkpt lat="37.2294763" lon="9.948068"><ele>3.2857142857142856</ele><time>2026-05-05T08:28:27.733Z</time></trkpt><trkpt lat="37.2294484" lon="9.9481486"><ele>3.1428571428571423</ele><time>2026-05-05T08:28:29.745Z</time></trkpt><trkpt lat="37.2294161" lon="9.9482168"><ele>3.0</ele><time>2026-05-05T08:28:32.742Z</time></trkpt><trkpt lat="37.2293841" lon="9.9482992"><ele>3.5</ele><time>2026-05-05T08:29:25.736Z</time></trkpt><trkpt lat="37.2293524" lon="9.9483934"><ele>4.0</ele><time>2026-05-05T08:29:28.744Z</time></trkpt><trkpt lat="37.2292894" lon="9.9484763"><ele>4.5</ele><time>2026-05-05T08:29:29.738Z</time></trkpt><trkpt lat="37.2292421" lon="9.9485626"><ele>5.0</ele><time>2026-05-05T08:29:30.743Z</time></trkpt><trkpt lat="37.2291896" lon="9.9486489"><ele>5.5</ele><time>2026-05-05T08:29:31.743Z</time></trkpt><trkpt lat="37.2291365" lon="9.9487345"><ele>6.0</ele><time>2026-05-05T08:29:32.741Z</time></trkpt><trkpt lat="37.2290753" lon="9.948818"><ele>6.0</ele><time>2026-05-05T08:29:33.749Z</time></trkpt><trkpt lat="37.2290184" lon="9.9489014"><ele>6.0</ele><time>2026-05-05T08:29:34.724Z</time></trkpt><trkpt lat="37.2289633" lon="9.9489794"><ele>6.0</ele><time>2026-05-05T08:29:35.748Z</time></trkpt><trkpt lat="37.2289082" lon="9.9490535"><ele>6.0</ele><time>2026-05-05T08:29:36.757Z</time></trkpt><trkpt lat="37.2288568" lon="9.9491248"><ele>6.0</ele><time>2026-05-05T08:29:37.745Z</time></trkpt><trkpt lat="37.2288015" lon="9.9491897"><ele>6.0</ele><time>2026-05-05T08:29:38.748Z</time></trkpt><trkpt lat="37.2287544" lon="9.9492499"><ele>5.8</ele><time>2026-05-05T08:29:39.734Z</time></trkpt><trkpt lat="37.2286855" lon="9.9493627"><ele>5.6</ele><time>2026-05-05T08:29:41.752Z</time></trkpt><trkpt lat="37.2286449" lon="9.9494554"><ele>5.4</ele><time>2026-05-05T08:29:43.749Z</time></trkpt><trkpt lat="37.2286005" lon="9.9495599"><ele>5.2</ele><time>2026-05-05T08:30:17.699Z</time></trkpt><trkpt lat="37.2285644" lon="9.9496513"><ele>5.0</ele><time>2026-05-05T08:30:18.741Z</time></trkpt><trkpt lat="37.2285212" lon="9.9497567"><ele>5.0</ele><time>2026-05-05T08:30:19.744Z</time></trkpt><trkpt lat="37.2284746" lon="9.9498782"><ele>5.0</ele><time>2026-05-05T08:30:20.736Z</time></trkpt><trkpt lat="37.228415" lon="9.9500132"><ele>5.0</ele><time>2026-05-05T08:30:21.749Z</time></trkpt><trkpt lat="37.2283507" lon="9.9501559"><ele>5.0</ele><time>2026-05-05T08:30:22.739Z</time></trkpt><trkpt lat="37.2282871" lon="9.9503049"><ele>5.333333333333334</ele><time>2026-05-05T08:30:23.745Z</time></trkpt><trkpt lat="37.228225" lon="9.9504589"><ele>5.666666666666667</ele><time>2026-05-05T08:30:24.752Z</time></trkpt><trkpt lat="37.2281532" lon="9.9506277"><ele>6.0</ele><time>2026-05-05T08:30:25.758Z</time></trkpt><trkpt lat="37.228075" lon="9.9508088"><ele>6.0</ele><time>2026-05-05T08:30:26.746Z</time></trkpt><trkpt lat="37.2279908" lon="9.9510011"><ele>6.0</ele><time>2026-05-05T08:30:27.742Z</time></trkpt><trkpt lat="37.227911" lon="9.9511956"><ele>6.0</ele><time>2026-05-05T08:30:28.7Z</time></trkpt><trkpt lat="37.227823" lon="9.951386"><ele>6.0</ele><time>2026-05-05T08:30:29.751Z</time></trkpt><trkpt lat="37.227728" lon="9.9515896"><ele>6.0</ele><time>2026-05-05T08:30:30.752Z</time></trkpt><trkpt lat="37.2276331" lon="9.951792"><ele>6.0</ele><time>2026-05-05T08:30:31.743Z</time></trkpt><trkpt lat="37.2275304" lon="9.9520035"><ele>6.666666666666666</ele><time>2026-05-05T08:30:32.747Z</time></trkpt><trkpt lat="37.2274272" lon="9.9522179"><ele>7.333333333333333</ele><time>2026-05-05T08:30:33.742Z</time></trkpt><trkpt lat="37.2273207" lon="9.9524355"><ele>8.0</ele><time>2026-05-05T08:30:34.721Z</time></trkpt><trkpt lat="37.227213" lon="9.9526552"><ele>8.0</ele><time>2026-05-05T08:30:35.704Z</time></trkpt><trkpt lat="37.2271049" lon="9.9528799"><ele>8.0</ele><time>2026-05-05T08:30:36.724Z</time></trkpt><trkpt lat="37.2269972" lon="9.9531048"><ele>8.0</ele><time>2026-05-05T08:30:37.7Z</time></trkpt><trkpt lat="37.2268885" lon="9.95333"><ele>8.0</ele><time>2026-05-05T08:30:38.736Z</time></trkpt><trkpt lat="37.2267802" lon="9.9535569"><ele>8.0</ele><time>2026-05-05T08:30:39.742Z</time></trkpt><trkpt lat="37.2266657" lon="9.9537932"><ele>8.0</ele><time>2026-05-05T08:30:40.734Z</time></trkpt><trkpt lat="37.2265454" lon="9.9540293"><ele>9.0</ele><time>2026-05-05T08:30:41.746Z</time></trkpt><trkpt lat="37.2264228" lon="9.9542653"><ele>10.0</ele><time>2026-05-05T08:30:42.746Z</time></trkpt><trkpt lat="37.2263016" lon="9.9545084"><ele>10.0</ele><time>2026-05-05T08:30:43.742Z</time></trkpt><trkpt lat="37.2261739" lon="9.9547492"><ele>10.0</ele><time>2026-05-05T08:30:44.749Z</time></trkpt><trkpt lat="37.2260408" lon="9.9549932"><ele>11.5</ele><time>2026-05-05T08:30:45.76Z</time></trkpt><trkpt lat="37.225907" lon="9.9552314"><ele>13.0</ele><time>2026-05-05T08:30:46.761Z</time></trkpt><trkpt lat="37.2257707" lon="9.955466"><ele>12.5</ele><time>2026-05-05T08:30:47.717Z</time></trkpt><trkpt lat="37.2256316" lon="9.9556994"><ele>12.0</ele><time>2026-05-05T08:30:48.751Z</time></trkpt><trkpt lat="37.2254886" lon="9.9559312"><ele>12.0</ele><time>2026-05-05T08:30:49.738Z</time></trkpt><trkpt lat="37.2253467" lon="9.9561602"><ele>12.0</ele><time>2026-05-05T08:30:50.716Z</time></trkpt><trkpt lat="37.2251973" lon="9.9563845"><ele>12.0</ele><time>2026-05-05T08:30:51.728Z</time></trkpt><trkpt lat="37.2250483" lon="9.9566087"><ele>12.0</ele><time>2026-05-05T08:30:52.75Z</time></trkpt><trkpt lat="37.2248957" lon="9.9568292"><ele>12.5</ele><time>2026-05-05T08:30:53.754Z</time></trkpt><trkpt lat="37.2247393" lon="9.9570448"><ele>13.0</ele><time>2026-05-05T08:30:54.723Z</time></trkpt><trkpt lat="37.22458" lon="9.9572608"><ele>13.0</ele><time>2026-05-05T08:30:55.716Z</time></trkpt><trkpt lat="37.2244155" lon="9.9574722"><ele>13.0</ele><time>2026-05-05T08:30:56.727Z</time></trkpt><trkpt lat="37.2242496" lon="9.9576788"><ele>12.5</ele><time>2026-05-05T08:30:57.744Z</time></trkpt><trkpt lat="37.2240864" lon="9.9578797"><ele>12.0</ele><time>2026-05-05T08:30:58.71Z</time></trkpt><trkpt lat="37.2239198" lon="9.9580774"><ele>12.0</ele><time>2026-05-05T08:30:59.768Z</time></trkpt><trkpt lat="37.2237484" lon="9.958278"><ele>12.0</ele><time>2026-05-05T08:31:00.717Z</time></trkpt><trkpt lat="37.2235763" lon="9.958477"><ele>12.5</ele><time>2026-05-05T08:31:01.709Z</time></trkpt><trkpt lat="37.2234041" lon="9.9586723"><ele>13.0</ele><time>2026-05-05T08:31:02.693Z</time></trkpt><trkpt lat="37.2232238" lon="9.9588624"><ele>13.0</ele><time>2026-05-05T08:31:03.696Z</time></trkpt><trkpt lat="37.2230449" lon="9.95905"><ele>13.0</ele><time>2026-05-05T08:31:04.7Z</time></trkpt><trkpt lat="37.2228663" lon="9.9592341"><ele>13.0</ele><time>2026-05-05T08:31:05.699Z</time></trkpt><trkpt lat="37.2226857" lon="9.9594098"><ele>13.0</ele><time>2026-05-05T08:31:06.713Z</time></trkpt><trkpt lat="37.2225051" lon="9.959584"><ele>13.0</ele><time>2026-05-05T08:31:07.725Z</time></trkpt><trkpt lat="37.2223237" lon="9.9597639"><ele>13.0</ele><time>2026-05-05T08:31:08.75Z</time></trkpt><trkpt lat="37.2221414" lon="9.9599418"><ele>13.5</ele><time>2026-05-05T08:31:09.728Z</time></trkpt><trkpt lat="37.2219598" lon="9.9601201"><ele>14.0</ele><time>2026-05-05T08:31:10.756Z</time></trkpt><trkpt lat="37.2217762" lon="9.9602984"><ele>14.0</ele><time>2026-05-05T08:31:11.747Z</time></trkpt><trkpt lat="37.2215899" lon="9.9604749"><ele>14.0</ele><time>2026-05-05T08:31:12.707Z</time></trkpt><trkpt lat="37.2214077" lon="9.9606506"><ele>14.5</ele><time>2026-05-05T08:31:13.72Z</time></trkpt><trkpt lat="37.2212263" lon="9.9608283"><ele>15.0</ele><time>2026-05-05T08:31:14.736Z</time></trkpt><trkpt lat="37.2210473" lon="9.9610054"><ele>15.5</ele><time>2026-05-05T08:31:15.748Z</time></trkpt><trkpt lat="37.2208631" lon="9.9611823"><ele>16.0</ele><time>2026-05-05T08:31:16.754Z</time></trkpt><trkpt lat="37.2206832" lon="9.9613594"><ele>16.0</ele><time>2026-05-05T08:31:17.756Z</time></trkpt><trkpt lat="37.2205004" lon="9.9615314"><ele>16.0</ele><time>2026-05-05T08:31:18.749Z</time></trkpt><trkpt lat="37.2203133" lon="9.9617074"><ele>16.5</ele><time>2026-05-05T08:31:19.744Z</time></trkpt><trkpt lat="37.22013" lon="9.9618855"><ele>17.0</ele><time>2026-05-05T08:31:20.739Z</time></trkpt><trkpt lat="37.219943" lon="9.9620643"><ele>16.5</ele><time>2026-05-05T08:31:21.743Z</time></trkpt><trkpt lat="37.2197636" lon="9.9622403"><ele>16.0</ele><time>2026-05-05T08:31:22.726Z</time></trkpt><trkpt lat="37.2195817" lon="9.9624212"><ele>17.0</ele><time>2026-05-05T08:31:23.734Z</time></trkpt><trkpt lat="37.2194027" lon="9.9626001"><ele>18.0</ele><time>2026-05-05T08:31:24.742Z</time></trkpt><trkpt lat="37.2192273" lon="9.9627885"><ele>18.0</ele><time>2026-05-05T08:31:25.75Z</time></trkpt><trkpt lat="37.2190495" lon="9.9629765"><ele>18.0</ele><time>2026-05-05T08:31:26.729Z</time></trkpt><trkpt lat="37.2188745" lon="9.963165"><ele>18.0</ele><time>2026-05-05T08:31:27.743Z</time></trkpt><trkpt lat="37.2187002" lon="9.9633627"><ele>18.0</ele><time>2026-05-05T08:31:28.721Z</time></trkpt><trkpt lat="37.2185293" lon="9.9635618"><ele>20.5</ele><time>2026-05-05T08:31:29.739Z</time></trkpt><trkpt lat="37.2183564" lon="9.9637617"><ele>23.0</ele><time>2026-05-05T08:31:30.74Z</time></trkpt><trkpt lat="37.2181834" lon="9.9639612"><ele>21.5</ele><time>2026-05-05T08:31:31.723Z</time></trkpt><trkpt lat="37.2180124" lon="9.9641625"><ele>20.0</ele><time>2026-05-05T08:31:32.756Z</time></trkpt><trkpt lat="37.2178448" lon="9.9643639"><ele>20.0</ele><time>2026-05-05T08:31:33.74Z</time></trkpt><trkpt lat="37.2176769" lon="9.9645702"><ele>20.0</ele><time>2026-05-05T08:31:34.73Z</time></trkpt><trkpt lat="37.2175114" lon="9.9647797"><ele>20.0</ele><time>2026-05-05T08:31:35.721Z</time></trkpt><trkpt lat="37.2173482" lon="9.9649879"><ele>20.0</ele><time>2026-05-05T08:31:36.742Z</time></trkpt><trkpt lat="37.2171888" lon="9.9651961"><ele>20.5</ele><time>2026-05-05T08:31:37.745Z</time></trkpt><trkpt lat="37.2170313" lon="9.9654031"><ele>21.0</ele><time>2026-05-05T08:31:38.732Z</time></trkpt><trkpt lat="37.2168784" lon="9.9656129"><ele>21.0</ele><time>2026-05-05T08:31:39.697Z</time></trkpt><trkpt lat="37.2167176" lon="9.9658298"><ele>21.0</ele><time>2026-05-05T08:31:40.734Z</time></trkpt><trkpt lat="37.2165612" lon="9.9660451"><ele>21.5</ele><time>2026-05-05T08:31:41.723Z</time></trkpt><trkpt lat="37.2164043" lon="9.9662596"><ele>22.0</ele><time>2026-05-05T08:31:42.734Z</time></trkpt><trkpt lat="37.2162438" lon="9.9664716"><ele>22.0</ele><time>2026-05-05T08:31:43.742Z</time></trkpt><trkpt lat="37.2160853" lon="9.9666837"><ele>22.0</ele><time>2026-05-05T08:31:44.742Z</time></trkpt><trkpt lat="37.2159249" lon="9.9669004"><ele>21.5</ele><time>2026-05-05T08:31:45.759Z</time></trkpt><trkpt lat="37.2157668" lon="9.9671137"><ele>21.0</ele><time>2026-05-05T08:31:46.742Z</time></trkpt><trkpt lat="37.2156091" lon="9.9673273"><ele>22.5</ele><time>2026-05-05T08:31:47.734Z</time></trkpt><trkpt lat="37.2154472" lon="9.9675371"><ele>24.0</ele><time>2026-05-05T08:31:48.734Z</time></trkpt><trkpt lat="37.2152875" lon="9.9677503"><ele>24.0</ele><time>2026-05-05T08:31:49.744Z</time></trkpt><trkpt lat="37.2151301" lon="9.9679628"><ele>24.0</ele><time>2026-05-05T08:31:50.742Z</time></trkpt><trkpt lat="37.2149736" lon="9.9681789"><ele>24.5</ele><time>2026-05-05T08:31:51.726Z</time></trkpt><trkpt lat="37.214816" lon="9.9683923"><ele>25.0</ele><time>2026-05-05T08:31:52.748Z</time></trkpt><trkpt lat="37.214654" lon="9.9686045"><ele>25.0</ele><time>2026-05-05T08:31:53.738Z</time></trkpt><trkpt lat="37.2144956" lon="9.9688214"><ele>25.0</ele><time>2026-05-05T08:31:54.727Z</time></trkpt><trkpt lat="37.2143352" lon="9.9690385"><ele>25.5</ele><time>2026-05-05T08:31:55.742Z</time></trkpt><trkpt lat="37.2141801" lon="9.9692519"><ele>26.0</ele><time>2026-05-05T08:31:56.748Z</time></trkpt><trkpt lat="37.2140229" lon="9.9694617"><ele>26.5</ele><time>2026-05-05T08:31:57.74Z</time></trkpt><trkpt lat="37.2138647" lon="9.9696755"><ele>27.0</ele><time>2026-05-05T08:31:58.724Z</time></trkpt><trkpt lat="37.2137069" lon="9.9698889"><ele>27.0</ele><time>2026-05-05T08:31:59.75Z</time></trkpt><trkpt lat="37.2135522" lon="9.9701007"><ele>27.0</ele><time>2026-05-05T08:32:00.714Z</time></trkpt><trkpt lat="37.2134" lon="9.9703131"><ele>27.0</ele><time>2026-05-05T08:32:01.753Z</time></trkpt><trkpt lat="37.2132434" lon="9.9705292"><ele>27.0</ele><time>2026-05-05T08:32:02.76Z</time></trkpt><trkpt lat="37.2130843" lon="9.9707425"><ele>26.5</ele><time>2026-05-05T08:32:03.739Z</time></trkpt><trkpt lat="37.2129279" lon="9.970956"><ele>26.0</ele><time>2026-05-05T08:32:04.743Z</time></trkpt><trkpt lat="37.2127711" lon="9.9711709"><ele>26.0</ele><time>2026-05-05T08:32:05.753Z</time></trkpt><trkpt lat="37.2126154" lon="9.9713831"><ele>26.0</ele><time>2026-05-05T08:32:06.746Z</time></trkpt><trkpt lat="37.2124599" lon="9.9715987"><ele>27.0</ele><time>2026-05-05T08:32:07.706Z</time></trkpt><trkpt lat="37.2122986" lon="9.9718114"><ele>28.0</ele><time>2026-05-05T08:32:08.74Z</time></trkpt><trkpt lat="37.2121362" lon="9.9720193"><ele>28.0</ele><time>2026-05-05T08:32:09.747Z</time></trkpt><trkpt lat="37.2119725" lon="9.9722308"><ele>28.0</ele><time>2026-05-05T08:32:10.745Z</time></trkpt><trkpt lat="37.21181" lon="9.9724422"><ele>30.5</ele><time>2026-05-05T08:32:11.738Z</time></trkpt><trkpt lat="37.2116518" lon="9.9726555"><ele>33.0</ele><time>2026-05-05T08:32:12.761Z</time></trkpt><trkpt lat="37.2114995" lon="9.9728652"><ele>32.5</ele><time>2026-05-05T08:32:13.726Z</time></trkpt><trkpt lat="37.2113417" lon="9.9730737"><ele>32.0</ele><time>2026-05-05T08:32:14.748Z</time></trkpt><trkpt lat="37.2111838" lon="9.973287"><ele>31.5</ele><time>2026-05-05T08:32:15.727Z</time></trkpt><trkpt lat="37.2110266" lon="9.973497"><ele>31.0</ele><time>2026-05-05T08:32:16.734Z</time></trkpt><trkpt lat="37.2108725" lon="9.9737067"><ele>31.0</ele><time>2026-05-05T08:32:17.748Z</time></trkpt><trkpt lat="37.2107173" lon="9.973925"><ele>31.0</ele><time>2026-05-05T08:32:18.739Z</time></trkpt><trkpt lat="37.2105567" lon="9.9741411"><ele>33.0</ele><time>2026-05-05T08:32:19.735Z</time></trkpt><trkpt lat="37.2103963" lon="9.9743517"><ele>35.0</ele><time>2026-05-05T08:32:20.716Z</time></trkpt><trkpt lat="37.2102388" lon="9.9745663"><ele>35.0</ele><time>2026-05-05T08:32:21.743Z</time></trkpt><trkpt lat="37.2100824" lon="9.9747831"><ele>35.0</ele><time>2026-05-05T08:32:22.738Z</time></trkpt><trkpt lat="37.2099213" lon="9.975"><ele>36.0</ele><time>2026-05-05T08:32:23.743Z</time></trkpt><trkpt lat="37.2097672" lon="9.9752179"><ele>37.0</ele><time>2026-05-05T08:32:24.738Z</time></trkpt><trkpt lat="37.2096115" lon="9.975437"><ele>37.0</ele><time>2026-05-05T08:32:25.755Z</time></trkpt><trkpt lat="37.209459" lon="9.9756557"><ele>37.0</ele><time>2026-05-05T08:32:26.738Z</time></trkpt><trkpt lat="37.2093097" lon="9.9758744"><ele>39.0</ele><time>2026-05-05T08:32:27.745Z</time></trkpt><trkpt lat="37.2091594" lon="9.9760955"><ele>41.0</ele><time>2026-05-05T08:32:28.717Z</time></trkpt><trkpt lat="37.2090065" lon="9.9763121"><ele>41.0</ele><time>2026-05-05T08:32:29.73Z</time></trkpt><trkpt lat="37.2088594" lon="9.9765327"><ele>41.0</ele><time>2026-05-05T08:32:30.734Z</time></trkpt><trkpt lat="37.2087081" lon="9.9767561"><ele>40.5</ele><time>2026-05-05T08:32:31.75Z</time></trkpt><trkpt lat="37.2085571" lon="9.9769851"><ele>40.0</ele><time>2026-05-05T08:32:32.731Z</time></trkpt><trkpt lat="37.2084075" lon="9.9772144"><ele>40.0</ele><time>2026-05-05T08:32:33.743Z</time></trkpt><trkpt lat="37.2082593" lon="9.977444"><ele>40.0</ele><time>2026-05-05T08:32:34.728Z</time></trkpt><trkpt lat="37.2081123" lon="9.9776745"><ele>42.0</ele><time>2026-05-05T08:32:35.733Z</time></trkpt><trkpt lat="37.207966" lon="9.9779079"><ele>44.0</ele><time>2026-05-05T08:32:36.735Z</time></trkpt><trkpt lat="37.2078229" lon="9.9781399"><ele>43.5</ele><time>2026-05-05T08:32:37.755Z</time></trkpt><trkpt lat="37.2076797" lon="9.9783676"><ele>43.0</ele><time>2026-05-05T08:32:38.758Z</time></trkpt><trkpt lat="37.2075343" lon="9.9785991"><ele>43.0</ele><time>2026-05-05T08:32:39.766Z</time></trkpt><trkpt lat="37.2073897" lon="9.9788299"><ele>43.0</ele><time>2026-05-05T08:32:40.728Z</time></trkpt><trkpt lat="37.2072465" lon="9.9790643"><ele>45.0</ele><time>2026-05-05T08:32:41.74Z</time></trkpt><trkpt lat="37.2071028" lon="9.9793026"><ele>47.0</ele><time>2026-05-05T08:32:42.742Z</time></trkpt><trkpt lat="37.2069583" lon="9.9795398"><ele>47.0</ele><time>2026-05-05T08:32:43.757Z</time></trkpt><trkpt lat="37.2068217" lon="9.9797762"><ele>47.0</ele><time>2026-05-05T08:32:44.727Z</time></trkpt><trkpt lat="37.2066781" lon="9.9800128"><ele>46.5</ele><time>2026-05-05T08:32:45.75Z</time></trkpt><trkpt lat="37.2065383" lon="9.9802482"><ele>46.0</ele><time>2026-05-05T08:32:46.745Z</time></trkpt><trkpt lat="37.206397" lon="9.9804837"><ele>45.5</ele><time>2026-05-05T08:32:47.749Z</time></trkpt><trkpt lat="37.2062616" lon="9.9807247"><ele>45.0</ele><time>2026-05-05T08:32:48.737Z</time></trkpt><trkpt lat="37.2061231" lon="9.9809655"><ele>44.5</ele><time>2026-05-05T08:32:49.741Z</time></trkpt><trkpt lat="37.2059893" lon="9.9812055"><ele>44.0</ele><time>2026-05-05T08:32:50.725Z</time></trkpt><trkpt lat="37.2058564" lon="9.9814451"><ele>45.0</ele><time>2026-05-05T08:32:51.742Z</time></trkpt><trkpt lat="37.2057218" lon="9.9816893"><ele>46.0</ele><time>2026-05-05T08:32:52.741Z</time></trkpt><trkpt lat="37.2055907" lon="9.9819321"><ele>46.0</ele><time>2026-05-05T08:32:53.715Z</time></trkpt><trkpt lat="37.2054628" lon="9.9821714"><ele>46.0</ele><time>2026-05-05T08:32:54.74Z</time></trkpt><trkpt lat="37.2053337" lon="9.9824135"><ele>46.5</ele><time>2026-05-05T08:32:55.734Z</time></trkpt><trkpt lat="37.2051983" lon="9.9826585"><ele>47.0</ele><time>2026-05-05T08:32:56.758Z</time></trkpt><trkpt lat="37.2050704" lon="9.9829029"><ele>47.0</ele><time>2026-05-05T08:32:57.74Z</time></trkpt><trkpt lat="37.2049426" lon="9.9831443"><ele>47.0</ele><time>2026-05-05T08:32:58.732Z</time></trkpt><trkpt lat="37.2048167" lon="9.983391"><ele>47.0</ele><time>2026-05-05T08:32:59.746Z</time></trkpt><trkpt lat="37.2046913" lon="9.9836363"><ele>47.0</ele><time>2026-05-05T08:33:00.692Z</time></trkpt><trkpt lat="37.2045675" lon="9.9838877"><ele>47.0</ele><time>2026-05-05T08:33:01.703Z</time></trkpt><trkpt lat="37.2044413" lon="9.9841387"><ele>47.0</ele><time>2026-05-05T08:33:02.702Z</time></trkpt><trkpt lat="37.2043188" lon="9.9843903"><ele>47.5</ele><time>2026-05-05T08:33:03.738Z</time></trkpt><trkpt lat="37.2041977" lon="9.9846385"><ele>48.0</ele><time>2026-05-05T08:33:04.757Z</time></trkpt><trkpt lat="37.2040773" lon="9.9848904"><ele>48.5</ele><time>2026-05-05T08:33:05.757Z</time></trkpt><trkpt lat="37.2039553" lon="9.9851354"><ele>49.0</ele><time>2026-05-05T08:33:06.728Z</time></trkpt><trkpt lat="37.2038361" lon="9.9853859"><ele>49.0</ele><time>2026-05-05T08:33:07.718Z</time></trkpt><trkpt lat="37.2037182" lon="9.9856378"><ele>49.0</ele><time>2026-05-05T08:33:08.75Z</time></trkpt><trkpt lat="37.2036009" lon="9.9858919"><ele>51.0</ele><time>2026-05-05T08:33:09.746Z</time></trkpt><trkpt lat="37.2034866" lon="9.9861497"><ele>53.0</ele><time>2026-05-05T08:33:10.733Z</time></trkpt><trkpt lat="37.2033702" lon="9.9864029"><ele>53.0</ele><time>2026-05-05T08:33:11.75Z</time></trkpt><trkpt lat="37.2032549" lon="9.9866624"><ele>53.0</ele><time>2026-05-05T08:33:12.739Z</time></trkpt><trkpt lat="37.2031435" lon="9.9869221"><ele>52.5</ele><time>2026-05-05T08:33:13.727Z</time></trkpt><trkpt lat="37.2030308" lon="9.987181"><ele>52.0</ele><time>2026-05-05T08:33:14.738Z</time></trkpt><trkpt lat="37.2029189" lon="9.9874364"><ele>53.5</ele><time>2026-05-05T08:33:15.747Z</time></trkpt><trkpt lat="37.2028052" lon="9.9876976"><ele>55.0</ele><time>2026-05-05T08:33:16.744Z</time></trkpt><trkpt lat="37.2026868" lon="9.987957"><ele>55.0</ele><time>2026-05-05T08:33:17.748Z</time></trkpt><trkpt lat="37.2025689" lon="9.9882247"><ele>55.0</ele><time>2026-05-05T08:33:18.736Z</time></trkpt><trkpt lat="37.2024535" lon="9.9884928"><ele>54.5</ele><time>2026-05-05T08:33:19.75Z</time></trkpt><trkpt lat="37.202336" lon="9.9887564"><ele>54.0</ele><time>2026-05-05T08:33:20.757Z</time></trkpt><trkpt lat="37.2022231" lon="9.9890147"><ele>55.5</ele><time>2026-05-05T08:33:21.764Z</time></trkpt><trkpt lat="37.2021049" lon="9.9892763"><ele>57.0</ele><time>2026-05-05T08:33:22.756Z</time></trkpt><trkpt lat="37.2019897" lon="9.9895354"><ele>57.0</ele><time>2026-05-05T08:33:23.724Z</time></trkpt><trkpt lat="37.2018712" lon="9.9897951"><ele>57.0</ele><time>2026-05-05T08:33:24.738Z</time></trkpt><trkpt lat="37.2017534" lon="9.9900615"><ele>57.5</ele><time>2026-05-05T08:33:25.738Z</time></trkpt><trkpt lat="37.2016327" lon="9.9903367"><ele>58.0</ele><time>2026-05-05T08:33:26.741Z</time></trkpt><trkpt lat="37.2015073" lon="9.9906175"><ele>57.5</ele><time>2026-05-05T08:33:27.734Z</time></trkpt><trkpt lat="37.2013769" lon="9.9909035"><ele>57.0</ele><time>2026-05-05T08:33:28.747Z</time></trkpt><trkpt lat="37.2012494" lon="9.9911892"><ele>57.0</ele><time>2026-05-05T08:33:29.743Z</time></trkpt><trkpt lat="37.2011209" lon="9.9914785"><ele>57.0</ele><time>2026-05-05T08:33:30.749Z</time></trkpt><trkpt lat="37.2009942" lon="9.9917666"><ele>59.0</ele><time>2026-05-05T08:33:31.732Z</time></trkpt><trkpt lat="37.2008686" lon="9.9920552"><ele>61.0</ele><time>2026-05-05T08:33:32.755Z</time></trkpt><trkpt lat="37.2007407" lon="9.9923378"><ele>59.0</ele><time>2026-05-05T08:33:33.747Z</time></trkpt><trkpt lat="37.2006181" lon="9.9926284"><ele>57.0</ele><time>2026-05-05T08:33:34.718Z</time></trkpt><trkpt lat="37.2004933" lon="9.9929137"><ele>57.0</ele><time>2026-05-05T08:33:35.734Z</time></trkpt><trkpt lat="37.2003718" lon="9.9931999"><ele>57.0</ele><time>2026-05-05T08:33:36.752Z</time></trkpt><trkpt lat="37.200248" lon="9.9934829"><ele>57.5</ele><time>2026-05-05T08:33:37.738Z</time></trkpt><trkpt lat="37.2001213" lon="9.9937699"><ele>58.0</ele><time>2026-05-05T08:33:38.748Z</time></trkpt><trkpt lat="37.1999933" lon="9.9940564"><ele>58.5</ele><time>2026-05-05T08:33:39.755Z</time></trkpt><trkpt lat="37.1998608" lon="9.9943467"><ele>59.0</ele><time>2026-05-05T08:33:40.741Z</time></trkpt><trkpt lat="37.1997331" lon="9.9946373"><ele>58.0</ele><time>2026-05-05T08:33:41.718Z</time></trkpt><trkpt lat="37.1996031" lon="9.9949287"><ele>57.0</ele><time>2026-05-05T08:33:42.755Z</time></trkpt><trkpt lat="37.1994741" lon="9.9952211"><ele>57.0</ele><time>2026-05-05T08:33:43.748Z</time></trkpt><trkpt lat="37.1993456" lon="9.995513"><ele>57.0</ele><time>2026-05-05T08:33:44.746Z</time></trkpt><trkpt lat="37.1992219" lon="9.9958065"><ele>57.5</ele><time>2026-05-05T08:33:45.75Z</time></trkpt><trkpt lat="37.1990948" lon="9.9960962"><ele>58.0</ele><time>2026-05-05T08:33:46.753Z</time></trkpt><trkpt lat="37.1989668" lon="9.9963815"><ele>58.0</ele><time>2026-05-05T08:33:47.765Z</time></trkpt><trkpt lat="37.1988393" lon="9.9966682"><ele>58.0</ele><time>2026-05-05T08:33:48.745Z</time></trkpt><trkpt lat="37.1987118" lon="9.9969659"><ele>59.0</ele><time>2026-05-05T08:33:49.753Z</time></trkpt><trkpt lat="37.1985816" lon="9.9972697"><ele>60.0</ele><time>2026-05-05T08:33:50.732Z</time></trkpt><trkpt lat="37.1984441" lon="9.9975706"><ele>60.0</ele><time>2026-05-05T08:33:51.722Z</time></trkpt><trkpt lat="37.198307" lon="9.9978731"><ele>60.0</ele><time>2026-05-05T08:33:52.743Z</time></trkpt><trkpt lat="37.1981695" lon="9.9981711"><ele>58.0</ele><time>2026-05-05T08:33:53.752Z</time></trkpt><trkpt lat="37.1980386" lon="9.9984747"><ele>56.0</ele><time>2026-05-05T08:33:54.749Z</time></trkpt><trkpt lat="37.1979066" lon="9.9987737"><ele>56.0</ele><time>2026-05-05T08:33:55.749Z</time></trkpt><trkpt lat="37.1977828" lon="9.9990604"><ele>56.0</ele><time>2026-05-05T08:33:56.746Z</time></trkpt><trkpt lat="37.1976662" lon="9.9993382"><ele>57.5</ele><time>2026-05-05T08:33:57.724Z</time></trkpt><trkpt lat="37.1975491" lon="9.999604"><ele>59.0</ele><time>2026-05-05T08:33:58.743Z</time></trkpt><trkpt lat="37.1974304" lon="9.9998743"><ele>54.5</ele><time>2026-05-05T08:33:59.733Z</time></trkpt><trkpt lat="37.1973138" lon="10.0001426"><ele>50.0</ele><time>2026-05-05T08:34:00.723Z</time></trkpt><trkpt lat="37.1971931" lon="10.0004108"><ele>50.0</ele><time>2026-05-05T08:34:01.745Z</time></trkpt><trkpt lat="37.1970713" lon="10.0006833"><ele>50.0</ele><time>2026-05-05T08:34:02.743Z</time></trkpt><trkpt lat="37.1969535" lon="10.0009601"><ele>52.0</ele><time>2026-05-05T08:34:03.744Z</time></trkpt><trkpt lat="37.196833" lon="10.0012351"><ele>54.0</ele><time>2026-05-05T08:34:04.741Z</time></trkpt><trkpt lat="37.1967123" lon="10.0015134"><ele>55.0</ele><time>2026-05-05T08:34:05.753Z</time></trkpt><trkpt lat="37.1965894" lon="10.0017904"><ele>56.0</ele><time>2026-05-05T08:34:06.747Z</time></trkpt><trkpt lat="37.1964694" lon="10.0020673"><ele>56.0</ele><time>2026-05-05T08:34:07.75Z</time></trkpt><trkpt lat="37.1963469" lon="10.0023463"><ele>56.0</ele><time>2026-05-05T08:34:08.75Z</time></trkpt><trkpt lat="37.1962251" lon="10.0026219"><ele>55.5</ele><time>2026-05-05T08:34:09.752Z</time></trkpt><trkpt lat="37.1961015" lon="10.0028967"><ele>55.0</ele><time>2026-05-05T08:34:10.742Z</time></trkpt><trkpt lat="37.1959795" lon="10.0031726"><ele>56.0</ele><time>2026-05-05T08:34:11.728Z</time></trkpt><trkpt lat="37.1958542" lon="10.0034501"><ele>57.0</ele><time>2026-05-05T08:34:12.714Z</time></trkpt><trkpt lat="37.1957273" lon="10.0037234"><ele>55.0</ele><time>2026-05-05T08:34:13.725Z</time></trkpt><trkpt lat="37.1955992" lon="10.003993"><ele>53.0</ele><time>2026-05-05T08:34:14.743Z</time></trkpt><trkpt lat="37.1954674" lon="10.0042618"><ele>53.0</ele><time>2026-05-05T08:34:15.736Z</time></trkpt><trkpt lat="37.1953322" lon="10.0045266"><ele>53.0</ele><time>2026-05-05T08:34:16.742Z</time></trkpt><trkpt lat="37.1951951" lon="10.0047949"><ele>54.0</ele><time>2026-05-05T08:34:17.738Z</time></trkpt><trkpt lat="37.1950559" lon="10.0050573"><ele>55.0</ele><time>2026-05-05T08:34:18.735Z</time></trkpt><trkpt lat="37.1949148" lon="10.0053144"><ele>53.5</ele><time>2026-05-05T08:34:19.743Z</time></trkpt><trkpt lat="37.1947707" lon="10.0055679"><ele>52.0</ele><time>2026-05-05T08:34:20.733Z</time></trkpt><trkpt lat="37.1946253" lon="10.0058186"><ele>53.0</ele><time>2026-05-05T08:34:21.744Z</time></trkpt><trkpt lat="37.1944792" lon="10.0060685"><ele>54.0</ele><time>2026-05-05T08:34:22.748Z</time></trkpt><trkpt lat="37.1943241" lon="10.0063151"><ele>54.0</ele><time>2026-05-05T08:34:23.747Z</time></trkpt><trkpt lat="37.1941706" lon="10.0065581"><ele>54.0</ele><time>2026-05-05T08:34:24.762Z</time></trkpt><trkpt lat="37.1940128" lon="10.0068006"><ele>52.5</ele><time>2026-05-05T08:34:25.751Z</time></trkpt><trkpt lat="37.1938489" lon="10.0070389"><ele>51.0</ele><time>2026-05-05T08:34:26.736Z</time></trkpt><trkpt lat="37.193683" lon="10.0072721"><ele>52.5</ele><time>2026-05-05T08:34:27.75Z</time></trkpt><trkpt lat="37.1935178" lon="10.0075032"><ele>54.0</ele><time>2026-05-05T08:34:28.735Z</time></trkpt><trkpt lat="37.1933507" lon="10.0077335"><ele>54.0</ele><time>2026-05-05T08:34:29.734Z</time></trkpt><trkpt lat="37.1931787" lon="10.0079587"><ele>54.0</ele><time>2026-05-05T08:34:30.743Z</time></trkpt><trkpt lat="37.1930033" lon="10.0081837"><ele>51.5</ele><time>2026-05-05T08:34:31.745Z</time></trkpt><trkpt lat="37.1928279" lon="10.0084016"><ele>49.0</ele><time>2026-05-05T08:34:32.733Z</time></trkpt><trkpt lat="37.1926485" lon="10.0086196"><ele>49.0</ele><time>2026-05-05T08:34:33.738Z</time></trkpt><trkpt lat="37.1924681" lon="10.008838"><ele>49.0</ele><time>2026-05-05T08:34:34.726Z</time></trkpt><trkpt lat="37.1922878" lon="10.0090508"><ele>49.5</ele><time>2026-05-05T08:34:35.73Z</time></trkpt><trkpt lat="37.1921055" lon="10.0092619"><ele>50.0</ele><time>2026-05-05T08:34:36.745Z</time></trkpt><trkpt lat="37.1919158" lon="10.0094694"><ele>50.0</ele><time>2026-05-05T08:34:37.746Z</time></trkpt><trkpt lat="37.1917267" lon="10.0096714"><ele>50.0</ele><time>2026-05-05T08:34:38.748Z</time></trkpt><trkpt lat="37.1915355" lon="10.0098742"><ele>48.5</ele><time>2026-05-05T08:34:39.744Z</time></trkpt><trkpt lat="37.1913405" lon="10.010071"><ele>47.0</ele><time>2026-05-05T08:34:40.758Z</time></trkpt><trkpt lat="37.1911471" lon="10.0102672"><ele>47.0</ele><time>2026-05-05T08:34:41.744Z</time></trkpt><trkpt lat="37.1909494" lon="10.0104574"><ele>47.0</ele><time>2026-05-05T08:34:42.74Z</time></trkpt><trkpt lat="37.1907479" lon="10.0106351"><ele>46.5</ele><time>2026-05-05T08:34:43.74Z</time></trkpt><trkpt lat="37.1905444" lon="10.0108123"><ele>46.0</ele><time>2026-05-05T08:34:44.741Z</time></trkpt><trkpt lat="37.1903365" lon="10.0109934"><ele>46.0</ele><time>2026-05-05T08:34:45.745Z</time></trkpt><trkpt lat="37.1901261" lon="10.0111642"><ele>46.0</ele><time>2026-05-05T08:34:46.744Z</time></trkpt><trkpt lat="37.1899202" lon="10.0113296"><ele>46.0</ele><time>2026-05-05T08:34:47.729Z</time></trkpt><trkpt lat="37.1897094" lon="10.011497"><ele>46.0</ele><time>2026-05-05T08:34:48.738Z</time></trkpt><trkpt lat="37.1895009" lon="10.0116666"><ele>46.0</ele><time>2026-05-05T08:34:49.742Z</time></trkpt><trkpt lat="37.1892879" lon="10.0118357"><ele>46.0</ele><time>2026-05-05T08:34:50.744Z</time></trkpt><trkpt lat="37.1890761" lon="10.0119943"><ele>47.0</ele><time>2026-05-05T08:34:51.73Z</time></trkpt><trkpt lat="37.1888613" lon="10.0121451"><ele>48.0</ele><time>2026-05-05T08:34:52.729Z</time></trkpt><trkpt lat="37.1886464" lon="10.0122941"><ele>48.0</ele><time>2026-05-05T08:34:53.737Z</time></trkpt><trkpt lat="37.1884286" lon="10.0124421"><ele>48.0</ele><time>2026-05-05T08:34:54.744Z</time></trkpt><trkpt lat="37.1882061" lon="10.0125833"><ele>50.0</ele><time>2026-05-05T08:34:55.752Z</time></trkpt><trkpt lat="37.1879805" lon="10.0127198"><ele>52.0</ele><time>2026-05-05T08:34:56.742Z</time></trkpt><trkpt lat="37.1877563" lon="10.0128457"><ele>52.0</ele><time>2026-05-05T08:34:57.746Z</time></trkpt><trkpt lat="37.1875241" lon="10.0129689"><ele>52.0</ele><time>2026-05-05T08:34:58.739Z</time></trkpt><trkpt lat="37.187292" lon="10.0130901"><ele>51.0</ele><time>2026-05-05T08:34:59.75Z</time></trkpt><trkpt lat="37.1870585" lon="10.0132092"><ele>50.0</ele><time>2026-05-05T08:35:00.746Z</time></trkpt><trkpt lat="37.1868251" lon="10.0133304"><ele>50.0</ele><time>2026-05-05T08:35:01.749Z</time></trkpt><trkpt lat="37.186595" lon="10.0134478"><ele>50.0</ele><time>2026-05-05T08:35:02.753Z</time></trkpt><trkpt lat="37.1863651" lon="10.0135628"><ele>48.5</ele><time>2026-05-05T08:35:03.74Z</time></trkpt><trkpt lat="37.1861356" lon="10.0136817"><ele>47.0</ele><time>2026-05-05T08:35:04.729Z</time></trkpt><trkpt lat="37.1859052" lon="10.0137938"><ele>47.5</ele><time>2026-05-05T08:35:05.69Z</time></trkpt><trkpt lat="37.1856781" lon="10.0139067"><ele>48.0</ele><time>2026-05-05T08:35:06.694Z</time></trkpt><trkpt lat="37.1854448" lon="10.0140169"><ele>48.0</ele><time>2026-05-05T08:35:07.699Z</time></trkpt><trkpt lat="37.1852111" lon="10.0141182"><ele>48.0</ele><time>2026-05-05T08:35:08.703Z</time></trkpt><trkpt lat="37.1849797" lon="10.0142269"><ele>49.0</ele><time>2026-05-05T08:35:09.762Z</time></trkpt><trkpt lat="37.1847511" lon="10.0143374"><ele>50.0</ele><time>2026-05-05T08:35:10.709Z</time></trkpt><trkpt lat="37.1845235" lon="10.0144472"><ele>50.0</ele><time>2026-05-05T08:35:11.75Z</time></trkpt><trkpt lat="37.1842979" lon="10.0145579"><ele>50.0</ele><time>2026-05-05T08:35:12.744Z</time></trkpt><trkpt lat="37.1840685" lon="10.0146693"><ele>49.0</ele><time>2026-05-05T08:35:13.745Z</time></trkpt><trkpt lat="37.1838424" lon="10.0147821"><ele>48.0</ele><time>2026-05-05T08:35:14.742Z</time></trkpt><trkpt lat="37.183613" lon="10.0148894"><ele>48.0</ele><time>2026-05-05T08:35:15.735Z</time></trkpt><trkpt lat="37.1833875" lon="10.0149988"><ele>48.0</ele><time>2026-05-05T08:35:16.717Z</time></trkpt><trkpt lat="37.1831609" lon="10.0151079"><ele>48.0</ele><time>2026-05-05T08:35:17.731Z</time></trkpt><trkpt lat="37.1829345" lon="10.0152193"><ele>48.0</ele><time>2026-05-05T08:35:18.75Z</time></trkpt><trkpt lat="37.1827098" lon="10.0153266"><ele>48.0</ele><time>2026-05-05T08:35:19.742Z</time></trkpt><trkpt lat="37.1824801" lon="10.0154371"><ele>48.0</ele><time>2026-05-05T08:35:20.734Z</time></trkpt><trkpt lat="37.1822529" lon="10.0155498"><ele>48.0</ele><time>2026-05-05T08:35:21.72Z</time></trkpt><trkpt lat="37.1820226" lon="10.0156512"><ele>48.0</ele><time>2026-05-05T08:35:22.754Z</time></trkpt><trkpt lat="37.1817982" lon="10.0157589"><ele>48.0</ele><time>2026-05-05T08:35:23.739Z</time></trkpt><trkpt lat="37.181574" lon="10.0158637"><ele>48.0</ele><time>2026-05-05T08:35:24.744Z</time></trkpt><trkpt lat="37.1813463" lon="10.0159756"><ele>47.5</ele><time>2026-05-05T08:35:25.724Z</time></trkpt><trkpt lat="37.181121" lon="10.0160894"><ele>47.0</ele><time>2026-05-05T08:35:26.755Z</time></trkpt><trkpt lat="37.1809006" lon="10.0162051"><ele>47.0</ele><time>2026-05-05T08:35:27.743Z</time></trkpt><trkpt lat="37.180678" lon="10.0163214"><ele>47.0</ele><time>2026-05-05T08:35:28.743Z</time></trkpt><trkpt lat="37.1804561" lon="10.0164255"><ele>47.0</ele><time>2026-05-05T08:35:29.75Z</time></trkpt><trkpt lat="37.1802279" lon="10.0165279"><ele>47.0</ele><time>2026-05-05T08:35:30.752Z</time></trkpt><trkpt lat="37.1799972" lon="10.0166313"><ele>46.0</ele><time>2026-05-05T08:35:31.722Z</time></trkpt><trkpt lat="37.1797694" lon="10.0167354"><ele>45.0</ele><time>2026-05-05T08:35:32.747Z</time></trkpt><trkpt lat="37.1795431" lon="10.0168484"><ele>45.0</ele><time>2026-05-05T08:35:33.745Z</time></trkpt><trkpt lat="37.1793167" lon="10.0169565"><ele>45.0</ele><time>2026-05-05T08:35:34.709Z</time></trkpt><trkpt lat="37.1790939" lon="10.0170624"><ele>45.5</ele><time>2026-05-05T08:35:35.734Z</time></trkpt><trkpt lat="37.1788673" lon="10.017169"><ele>46.0</ele><time>2026-05-05T08:35:36.732Z</time></trkpt><trkpt lat="37.1786416" lon="10.0172817"><ele>46.0</ele><time>2026-05-05T08:35:37.749Z</time></trkpt><trkpt lat="37.1784141" lon="10.0173917"><ele>46.0</ele><time>2026-05-05T08:35:38.747Z</time></trkpt><trkpt lat="37.1781879" lon="10.0175007"><ele>46.0</ele><time>2026-05-05T08:35:39.753Z</time></trkpt><trkpt lat="37.1779563" lon="10.0176079"><ele>46.0</ele><time>2026-05-05T08:35:40.744Z</time></trkpt><trkpt lat="37.1777301" lon="10.0177115"><ele>46.0</ele><time>2026-05-05T08:35:41.748Z</time></trkpt><trkpt lat="37.1775053" lon="10.0178177"><ele>46.0</ele><time>2026-05-05T08:35:42.733Z</time></trkpt><trkpt lat="37.177277" lon="10.0179246"><ele>45.5</ele><time>2026-05-05T08:35:43.748Z</time></trkpt><trkpt lat="37.1770531" lon="10.0180296"><ele>45.0</ele><time>2026-05-05T08:35:44.741Z</time></trkpt><trkpt lat="37.1768275" lon="10.0181388"><ele>45.0</ele><time>2026-05-05T08:35:45.749Z</time></trkpt><trkpt lat="37.1766009" lon="10.0182488"><ele>45.0</ele><time>2026-05-05T08:35:46.757Z</time></trkpt><trkpt lat="37.1763724" lon="10.018359"><ele>45.0</ele><time>2026-05-05T08:35:47.75Z</time></trkpt><trkpt lat="37.1761451" lon="10.0184727"><ele>45.0</ele><time>2026-05-05T08:35:48.744Z</time></trkpt><trkpt lat="37.1759178" lon="10.0185869"><ele>45.0</ele><time>2026-05-05T08:35:49.717Z</time></trkpt><trkpt lat="37.1756889" lon="10.0186948"><ele>45.0</ele><time>2026-05-05T08:35:50.742Z</time></trkpt><trkpt lat="37.1754681" lon="10.0188081"><ele>45.0</ele><time>2026-05-05T08:35:51.725Z</time></trkpt><trkpt lat="37.1752437" lon="10.0189197"><ele>45.0</ele><time>2026-05-05T08:35:52.745Z</time></trkpt><trkpt lat="37.1750199" lon="10.0190291"><ele>45.0</ele><time>2026-05-05T08:35:53.737Z</time></trkpt><trkpt lat="37.1747908" lon="10.0191365"><ele>45.0</ele><time>2026-05-05T08:35:54.742Z</time></trkpt><trkpt lat="37.1745632" lon="10.0192422"><ele>44.5</ele><time>2026-05-05T08:35:55.722Z</time></trkpt><trkpt lat="37.1743361" lon="10.0193469"><ele>44.0</ele><time>2026-05-05T08:35:56.702Z</time></trkpt><trkpt lat="37.1741094" lon="10.0194577"><ele>44.0</ele><time>2026-05-05T08:35:57.744Z</time></trkpt><trkpt lat="37.1738861" lon="10.0195671"><ele>44.0</ele><time>2026-05-05T08:35:58.74Z</time></trkpt><trkpt lat="37.1736606" lon="10.0196784"><ele>44.0</ele><time>2026-05-05T08:35:59.761Z</time></trkpt><trkpt lat="37.1734319" lon="10.0197945"><ele>44.0</ele><time>2026-05-05T08:36:00.745Z</time></trkpt><trkpt lat="37.1732045" lon="10.0199004"><ele>44.0</ele><time>2026-05-05T08:36:01.733Z</time></trkpt><trkpt lat="37.1729776" lon="10.0200114"><ele>44.0</ele><time>2026-05-05T08:36:02.718Z</time></trkpt><trkpt lat="37.1727505" lon="10.0201192"><ele>44.0</ele><time>2026-05-05T08:36:03.723Z</time></trkpt><trkpt lat="37.1725255" lon="10.0202285"><ele>44.0</ele><time>2026-05-05T08:36:04.739Z</time></trkpt><trkpt lat="37.1723008" lon="10.0203306"><ele>44.5</ele><time>2026-05-05T08:36:05.705Z</time></trkpt><trkpt lat="37.1720758" lon="10.0204403"><ele>45.0</ele><time>2026-05-05T08:36:06.719Z</time></trkpt><trkpt lat="37.1718515" lon="10.0205475"><ele>45.0</ele><time>2026-05-05T08:36:07.744Z</time></trkpt><trkpt lat="37.1716243" lon="10.0206532"><ele>45.0</ele><time>2026-05-05T08:36:08.744Z</time></trkpt><trkpt lat="37.1714009" lon="10.0207605"><ele>45.0</ele><time>2026-05-05T08:36:09.739Z</time></trkpt><trkpt lat="37.1711779" lon="10.0208746"><ele>45.0</ele><time>2026-05-05T08:36:10.752Z</time></trkpt><trkpt lat="37.1709483" lon="10.0209863"><ele>45.0</ele><time>2026-05-05T08:36:11.701Z</time></trkpt><trkpt lat="37.1707253" lon="10.0210971"><ele>45.0</ele><time>2026-05-05T08:36:12.735Z</time></trkpt><trkpt lat="37.1704992" lon="10.0212054"><ele>44.5</ele><time>2026-05-05T08:36:13.705Z</time></trkpt><trkpt lat="37.1702767" lon="10.0213195"><ele>44.0</ele><time>2026-05-05T08:36:14.733Z</time></trkpt><trkpt lat="37.1700479" lon="10.0214278"><ele>43.5</ele><time>2026-05-05T08:36:15.735Z</time></trkpt><trkpt lat="37.1698166" lon="10.0215375"><ele>43.0</ele><time>2026-05-05T08:36:16.706Z</time></trkpt><trkpt lat="37.1695903" lon="10.0216469"><ele>43.5</ele><time>2026-05-05T08:36:17.747Z</time></trkpt><trkpt lat="37.1693652" lon="10.021754"><ele>44.0</ele><time>2026-05-05T08:36:18.742Z</time></trkpt><trkpt lat="37.1691372" lon="10.0218607"><ele>44.0</ele><time>2026-05-05T08:36:19.758Z</time></trkpt><trkpt lat="37.1689136" lon="10.0219671"><ele>44.0</ele><time>2026-05-05T08:36:20.741Z</time></trkpt><trkpt lat="37.1686871" lon="10.0220708"><ele>44.0</ele><time>2026-05-05T08:36:21.724Z</time></trkpt><trkpt lat="37.1684643" lon="10.0221804"><ele>44.0</ele><time>2026-05-05T08:36:22.749Z</time></trkpt><trkpt lat="37.1682409" lon="10.0222974"><ele>44.0</ele><time>2026-05-05T08:36:23.749Z</time></trkpt><trkpt lat="37.1680133" lon="10.022409"><ele>44.0</ele><time>2026-05-05T08:36:24.753Z</time></trkpt><trkpt lat="37.1677886" lon="10.0225169"><ele>44.5</ele><time>2026-05-05T08:36:25.705Z</time></trkpt><trkpt lat="37.1675625" lon="10.0226229"><ele>45.0</ele><time>2026-05-05T08:36:26.698Z</time></trkpt><trkpt lat="37.1673405" lon="10.022728"><ele>44.0</ele><time>2026-05-05T08:36:27.703Z</time></trkpt><trkpt lat="37.1671153" lon="10.0228394"><ele>43.0</ele><time>2026-05-05T08:36:28.718Z</time></trkpt><trkpt lat="37.166884" lon="10.0229477"><ele>43.0</ele><time>2026-05-05T08:36:29.742Z</time></trkpt><trkpt lat="37.166655" lon="10.023057"><ele>43.0</ele><time>2026-05-05T08:36:30.748Z</time></trkpt><trkpt lat="37.1664282" lon="10.0231625"><ele>42.5</ele><time>2026-05-05T08:36:31.736Z</time></trkpt><trkpt lat="37.1661998" lon="10.0232708"><ele>42.0</ele><time>2026-05-05T08:36:32.752Z</time></trkpt><trkpt lat="37.1659765" lon="10.0233782"><ele>42.0</ele><time>2026-05-05T08:36:33.75Z</time></trkpt><trkpt lat="37.1657566" lon="10.0234856"><ele>42.0</ele><time>2026-05-05T08:36:34.733Z</time></trkpt><trkpt lat="37.1655317" lon="10.0235913"><ele>43.0</ele><time>2026-05-05T08:36:35.727Z</time></trkpt><trkpt lat="37.1653025" lon="10.0236981"><ele>44.0</ele><time>2026-05-05T08:36:36.745Z</time></trkpt><trkpt lat="37.1650773" lon="10.0238055"><ele>42.0</ele><time>2026-05-05T08:36:37.75Z</time></trkpt><trkpt lat="37.1648491" lon="10.0239167"><ele>40.0</ele><time>2026-05-05T08:36:38.747Z</time></trkpt><trkpt lat="37.1646218" lon="10.0240269"><ele>40.0</ele><time>2026-05-05T08:36:39.747Z</time></trkpt><trkpt lat="37.1643911" lon="10.0241285"><ele>40.0</ele><time>2026-05-05T08:36:40.743Z</time></trkpt><trkpt lat="37.1641655" lon="10.0242338"><ele>41.0</ele><time>2026-05-05T08:36:41.724Z</time></trkpt><trkpt lat="37.1639432" lon="10.0243481"><ele>42.0</ele><time>2026-05-05T08:36:42.715Z</time></trkpt><trkpt lat="37.1637205" lon="10.0244586"><ele>42.0</ele><time>2026-05-05T08:36:43.712Z</time></trkpt><trkpt lat="37.1635007" lon="10.0245623"><ele>42.0</ele><time>2026-05-05T08:36:44.708Z</time></trkpt><trkpt lat="37.163282" lon="10.0246583"><ele>42.333333333333336</ele><time>2026-05-05T08:36:45.744Z</time></trkpt><trkpt lat="37.1630767" lon="10.0247454"><ele>42.66666666666667</ele><time>2026-05-05T08:36:46.727Z</time></trkpt><trkpt lat="37.1628882" lon="10.0248253"><ele>43.0</ele><time>2026-05-05T08:36:47.76Z</time></trkpt><trkpt lat="37.1627107" lon="10.0249002"><ele>43.0</ele><time>2026-05-05T08:36:48.735Z</time></trkpt><trkpt lat="37.1625403" lon="10.024977"><ele>43.0</ele><time>2026-05-05T08:36:49.733Z</time></trkpt><trkpt lat="37.1623774" lon="10.0250489"><ele>43.0</ele><time>2026-05-05T08:36:50.744Z</time></trkpt><trkpt lat="37.1622264" lon="10.0251157"><ele>44.333333333333336</ele><time>2026-05-05T08:36:51.717Z</time></trkpt><trkpt lat="37.1620775" lon="10.0251672"><ele>45.666666666666664</ele><time>2026-05-05T08:36:52.732Z</time></trkpt><trkpt lat="37.1619216" lon="10.0251985"><ele>47.0</ele><time>2026-05-05T08:36:53.743Z</time></trkpt><trkpt lat="37.1617578" lon="10.0252067"><ele>47.0</ele><time>2026-05-05T08:36:54.752Z</time></trkpt><trkpt lat="37.1615928" lon="10.0251895"><ele>47.0</ele><time>2026-05-05T08:36:55.743Z</time></trkpt><trkpt lat="37.161422" lon="10.0251542"><ele>47.0</ele><time>2026-05-05T08:36:56.753Z</time></trkpt><trkpt lat="37.1612682" lon="10.0250838"><ele>46.666666666666664</ele><time>2026-05-05T08:36:57.748Z</time></trkpt><trkpt lat="37.1611191" lon="10.0249913"><ele>46.333333333333336</ele><time>2026-05-05T08:36:58.746Z</time></trkpt><trkpt lat="37.1609678" lon="10.024888"><ele>46.0</ele><time>2026-05-05T08:36:59.744Z</time></trkpt><trkpt lat="37.1608231" lon="10.0247854"><ele>45.66666666666667</ele><time>2026-05-05T08:37:00.714Z</time></trkpt><trkpt lat="37.1606816" lon="10.0246816"><ele>45.333333333333336</ele><time>2026-05-05T08:37:01.722Z</time></trkpt><trkpt lat="37.1605504" lon="10.024583"><ele>45.0</ele><time>2026-05-05T08:37:02.744Z</time></trkpt><trkpt lat="37.1604262" lon="10.0244926"><ele>45.0</ele><time>2026-05-05T08:37:03.759Z</time></trkpt><trkpt lat="37.1603091" lon="10.0244068"><ele>45.0</ele><time>2026-05-05T08:37:04.717Z</time></trkpt><trkpt lat="37.1602011" lon="10.0243252"><ele>45.0</ele><time>2026-05-05T08:37:05.743Z</time></trkpt><trkpt lat="37.1601147" lon="10.0242449"><ele>45.0</ele><time>2026-05-05T08:37:06.734Z</time></trkpt><trkpt lat="37.1600463" lon="10.0241704"><ele>45.0</ele><time>2026-05-05T08:37:07.733Z</time></trkpt><trkpt lat="37.1599916" lon="10.0241074"><ele>45.0</ele><time>2026-05-05T08:37:08.737Z</time></trkpt><trkpt lat="37.1599465" lon="10.024048"><ele>45.0</ele><time>2026-05-05T08:37:09.754Z</time></trkpt><trkpt lat="37.1598754" lon="10.0239576"><ele>45.0</ele><time>2026-05-05T08:37:11.726Z</time></trkpt><trkpt lat="37.1598149" lon="10.0238761"><ele>45.0</ele><time>2026-05-05T08:37:13.743Z</time></trkpt><trkpt lat="37.1597579" lon="10.0238122"><ele>45.0</ele><time>2026-05-05T08:37:15.747Z</time></trkpt><trkpt lat="37.1596996" lon="10.0237374"><ele>44.714285714285715</ele><time>2026-05-05T08:37:18.741Z</time></trkpt><trkpt lat="37.1596554" lon="10.0236744"><ele>44.42857142857143</ele><time>2026-05-05T08:37:22.725Z</time></trkpt><trkpt lat="37.1596105" lon="10.0236106"><ele>44.142857142857146</ele><time>2026-05-05T08:37:33.745Z</time></trkpt><trkpt lat="37.1595593" lon="10.0235422"><ele>43.85714285714286</ele><time>2026-05-05T08:38:06.741Z</time></trkpt><trkpt lat="37.159513" lon="10.0234806"><ele>43.57142857142857</ele><time>2026-05-05T08:39:08.742Z</time></trkpt><trkpt lat="37.159439" lon="10.0234074"><ele>43.28571428571429</ele><time>2026-05-05T08:39:10.743Z</time></trkpt><trkpt lat="37.1593986" lon="10.0233293"><ele>43.0</ele><time>2026-05-05T08:39:12.744Z</time></trkpt><trkpt lat="37.1593786" lon="10.0232431"><ele>42.599999999999994</ele><time>2026-05-05T08:39:14.736Z</time></trkpt><trkpt lat="37.159294" lon="10.0231912"><ele>42.199999999999996</ele><time>2026-05-05T08:41:11.743Z</time></trkpt><trkpt lat="37.1591998" lon="10.0231145"><ele>41.8</ele><time>2026-05-05T08:41:13.752Z</time></trkpt><trkpt lat="37.1591123" lon="10.0230377"><ele>41.4</ele><time>2026-05-05T08:41:15.74Z</time></trkpt><trkpt lat="37.1590253" lon="10.0229495"><ele>41.0</ele><time>2026-05-05T08:41:17.738Z</time></trkpt><trkpt lat="37.1589778" lon="10.0228956"><ele>40.8</ele><time>2026-05-05T08:41:18.743Z</time></trkpt><trkpt lat="37.158923" lon="10.0228351"><ele>40.599999999999994</ele><time>2026-05-05T08:41:19.736Z</time></trkpt><trkpt lat="37.1588604" lon="10.022771"><ele>40.4</ele><time>2026-05-05T08:41:20.708Z</time></trkpt><trkpt lat="37.1587883" lon="10.0226973"><ele>40.2</ele><time>2026-05-05T08:41:21.756Z</time></trkpt><trkpt lat="37.158712" lon="10.0226069"><ele>40.0</ele><time>2026-05-05T08:41:22.735Z</time></trkpt><trkpt lat="37.1586335" lon="10.0225181"><ele>40.0</ele><time>2026-05-05T08:41:23.73Z</time></trkpt><trkpt lat="37.1585552" lon="10.0224285"><ele>40.0</ele><time>2026-05-05T08:41:24.742Z</time></trkpt><trkpt lat="37.1584811" lon="10.0223347"><ele>40.0</ele><time>2026-05-05T08:41:25.751Z</time></trkpt><trkpt lat="37.1584132" lon="10.0222332"><ele>40.0</ele><time>2026-05-05T08:41:26.741Z</time></trkpt><trkpt lat="37.1583646" lon="10.0221182"><ele>40.0</ele><time>2026-05-05T08:41:27.744Z</time></trkpt><trkpt lat="37.158325" lon="10.0219929"><ele>40.0</ele><time>2026-05-05T08:41:28.736Z</time></trkpt><trkpt lat="37.1583113" lon="10.0218576"><ele>40.0</ele><time>2026-05-05T08:41:29.749Z</time></trkpt><trkpt lat="37.1583092" lon="10.0217148"><ele>40.0</ele><time>2026-05-05T08:41:30.751Z</time></trkpt><trkpt lat="37.1583166" lon="10.0215724"><ele>40.0</ele><time>2026-05-05T08:41:31.698Z</time></trkpt><trkpt lat="37.158347" lon="10.0214287"><ele>40.0</ele><time>2026-05-05T08:41:32.715Z</time></trkpt><trkpt lat="37.1583977" lon="10.0212971"><ele>40.0</ele><time>2026-05-05T08:41:33.708Z</time></trkpt><trkpt lat="37.1584658" lon="10.0211708"><ele>40.0</ele><time>2026-05-05T08:41:34.72Z</time></trkpt><trkpt lat="37.1585444" lon="10.0210556"><ele>40.0</ele><time>2026-05-05T08:41:35.745Z</time></trkpt><trkpt lat="37.1586364" lon="10.0209612"><ele>40.0</ele><time>2026-05-05T08:41:36.744Z</time></trkpt><trkpt lat="37.1587297" lon="10.0208648"><ele>40.0</ele><time>2026-05-05T08:41:37.754Z</time></trkpt><trkpt lat="37.1588321" lon="10.0207652"><ele>40.0</ele><time>2026-05-05T08:41:38.735Z</time></trkpt><trkpt lat="37.1589352" lon="10.0206606"><ele>40.0</ele><time>2026-05-05T08:41:39.721Z</time></trkpt><trkpt lat="37.1590366" lon="10.0205629"><ele>39.25</ele><time>2026-05-05T08:41:40.738Z</time></trkpt><trkpt lat="37.1591316" lon="10.0204735"><ele>38.5</ele><time>2026-05-05T08:41:41.726Z</time></trkpt><trkpt lat="37.159219" lon="10.020388"><ele>37.75</ele><time>2026-05-05T08:41:42.75Z</time></trkpt><trkpt lat="37.1593083" lon="10.0203004"><ele>37.0</ele><time>2026-05-05T08:41:43.74Z</time></trkpt><trkpt lat="37.1593933" lon="10.0202179"><ele>37.0</ele><time>2026-05-05T08:41:44.738Z</time></trkpt><trkpt lat="37.1594764" lon="10.0201446"><ele>37.0</ele><time>2026-05-05T08:41:45.732Z</time></trkpt><trkpt lat="37.1595615" lon="10.0200795"><ele>37.0</ele><time>2026-05-05T08:41:46.742Z</time></trkpt><trkpt lat="37.159647" lon="10.0200355"><ele>37.0</ele><time>2026-05-05T08:41:47.713Z</time></trkpt><trkpt lat="37.1597383" lon="10.0200175"><ele>37.0</ele><time>2026-05-05T08:41:48.741Z</time></trkpt><trkpt lat="37.1598358" lon="10.0200254"><ele>37.2</ele><time>2026-05-05T08:41:49.746Z</time></trkpt><trkpt lat="37.1599267" lon="10.0200651"><ele>37.400000000000006</ele><time>2026-05-05T08:41:50.746Z</time></trkpt><trkpt lat="37.1600203" lon="10.0201274"><ele>37.599999999999994</ele><time>2026-05-05T08:41:51.745Z</time></trkpt><trkpt lat="37.1601194" lon="10.0202157"><ele>37.8</ele><time>2026-05-05T08:41:52.751Z</time></trkpt><trkpt lat="37.1602045" lon="10.0203117"><ele>38.0</ele><time>2026-05-05T08:41:53.752Z</time></trkpt><trkpt lat="37.1602839" lon="10.0204072"><ele>38.0</ele><time>2026-05-05T08:41:54.714Z</time></trkpt><trkpt lat="37.1603615" lon="10.0205139"><ele>38.0</ele><time>2026-05-05T08:41:55.744Z</time></trkpt><trkpt lat="37.1604436" lon="10.0206121"><ele>38.0</ele><time>2026-05-05T08:41:56.725Z</time></trkpt><trkpt lat="37.1605252" lon="10.0207097"><ele>38.0</ele><time>2026-05-05T08:41:57.754Z</time></trkpt><trkpt lat="37.160607" lon="10.0208141"><ele>38.0</ele><time>2026-05-05T08:41:58.734Z</time></trkpt><trkpt lat="37.1606862" lon="10.0209203"><ele>38.0</ele><time>2026-05-05T08:41:59.745Z</time></trkpt><trkpt lat="37.1607643" lon="10.0210251"><ele>38.0</ele><time>2026-05-05T08:42:00.728Z</time></trkpt><trkpt lat="37.1608476" lon="10.0211288"><ele>38.0</ele><time>2026-05-05T08:42:01.731Z</time></trkpt><trkpt lat="37.1609274" lon="10.0212344"><ele>38.0</ele><time>2026-05-05T08:42:02.716Z</time></trkpt><trkpt lat="37.1610087" lon="10.0213505"><ele>38.0</ele><time>2026-05-05T08:42:03.736Z</time></trkpt><trkpt lat="37.1610866" lon="10.0214645"><ele>38.0</ele><time>2026-05-05T08:42:04.736Z</time></trkpt><trkpt lat="37.1611604" lon="10.0215769"><ele>38.0</ele><time>2026-05-05T08:42:05.733Z</time></trkpt><trkpt lat="37.1612353" lon="10.0216971"><ele>39.0</ele><time>2026-05-05T08:42:06.741Z</time></trkpt><trkpt lat="37.1613109" lon="10.0218073"><ele>40.0</ele><time>2026-05-05T08:42:07.745Z</time></trkpt><trkpt lat="37.1613823" lon="10.0219149"><ele>41.0</ele><time>2026-05-05T08:42:08.743Z</time></trkpt><trkpt lat="37.1614536" lon="10.0220299"><ele>42.0</ele><time>2026-05-05T08:42:09.744Z</time></trkpt><trkpt lat="37.1615293" lon="10.0221429"><ele>42.0</ele><time>2026-05-05T08:42:10.737Z</time></trkpt><trkpt lat="37.1616063" lon="10.0222558"><ele>42.0</ele><time>2026-05-05T08:42:11.754Z</time></trkpt><trkpt lat="37.1616828" lon="10.0223692"><ele>42.0</ele><time>2026-05-05T08:42:12.744Z</time></trkpt><trkpt lat="37.1617616" lon="10.022496"><ele>42.0</ele><time>2026-05-05T08:42:13.737Z</time></trkpt><trkpt lat="37.1618422" lon="10.022626"><ele>42.0</ele><time>2026-05-05T08:42:14.737Z</time></trkpt><trkpt lat="37.1619236" lon="10.0227608"><ele>42.0</ele><time>2026-05-05T08:42:15.746Z</time></trkpt><trkpt lat="37.1620101" lon="10.0228983"><ele>42.0</ele><time>2026-05-05T08:42:16.734Z</time></trkpt><trkpt lat="37.1620991" lon="10.0230397"><ele>42.0</ele><time>2026-05-05T08:42:17.742Z</time></trkpt><trkpt lat="37.1621908" lon="10.0231818"><ele>41.75</ele><time>2026-05-05T08:42:18.744Z</time></trkpt><trkpt lat="37.1622867" lon="10.0233258"><ele>41.5</ele><time>2026-05-05T08:42:19.741Z</time></trkpt><trkpt lat="37.1623796" lon="10.0234742"><ele>41.25</ele><time>2026-05-05T08:42:20.748Z</time></trkpt><trkpt lat="37.1624698" lon="10.0236129"><ele>41.0</ele><time>2026-05-05T08:42:21.744Z</time></trkpt><trkpt lat="37.1625636" lon="10.0237505"><ele>41.0</ele><time>2026-05-05T08:42:22.737Z</time></trkpt><trkpt lat="37.1626551" lon="10.0238901"><ele>41.0</ele><time>2026-05-05T08:42:23.745Z</time></trkpt><trkpt lat="37.1627524" lon="10.0240423"><ele>41.0</ele><time>2026-05-05T08:42:24.722Z</time></trkpt><trkpt lat="37.1628505" lon="10.0241941"><ele>41.666666666666664</ele><time>2026-05-05T08:42:25.741Z</time></trkpt><trkpt lat="37.1629461" lon="10.0243389"><ele>42.333333333333336</ele><time>2026-05-05T08:42:26.745Z</time></trkpt><trkpt lat="37.1630415" lon="10.0244884"><ele>43.0</ele><time>2026-05-05T08:42:27.749Z</time></trkpt><trkpt lat="37.1631387" lon="10.0246346"><ele>42.75</ele><time>2026-05-05T08:42:28.738Z</time></trkpt><trkpt lat="37.163233" lon="10.0247778"><ele>42.5</ele><time>2026-05-05T08:42:29.735Z</time></trkpt><trkpt lat="37.1633235" lon="10.0249201"><ele>42.25</ele><time>2026-05-05T08:42:30.758Z</time></trkpt><trkpt lat="37.1634146" lon="10.0250616"><ele>42.0</ele><time>2026-05-05T08:42:31.718Z</time></trkpt><trkpt lat="37.1635034" lon="10.0251978"><ele>42.5</ele><time>2026-05-05T08:42:32.73Z</time></trkpt><trkpt lat="37.1635932" lon="10.0253285"><ele>43.0</ele><time>2026-05-05T08:42:33.739Z</time></trkpt><trkpt lat="37.1636858" lon="10.0254644"><ele>43.5</ele><time>2026-05-05T08:42:34.721Z</time></trkpt><trkpt lat="37.1637767" lon="10.0256028"><ele>44.0</ele><time>2026-05-05T08:42:35.724Z</time></trkpt><trkpt lat="37.1638645" lon="10.0257443"><ele>44.75</ele><time>2026-05-05T08:42:36.736Z</time></trkpt><trkpt lat="37.1639457" lon="10.0258845"><ele>45.5</ele><time>2026-05-05T08:42:37.747Z</time></trkpt><trkpt lat="37.1640259" lon="10.0260196"><ele>46.25</ele><time>2026-05-05T08:42:38.755Z</time></trkpt><trkpt lat="37.1641001" lon="10.0261503"><ele>47.0</ele><time>2026-05-05T08:42:39.744Z</time></trkpt><trkpt lat="37.1641689" lon="10.026269"><ele>47.0</ele><time>2026-05-05T08:42:40.732Z</time></trkpt><trkpt lat="37.164232" lon="10.0263886"><ele>47.0</ele><time>2026-05-05T08:42:41.716Z</time></trkpt><trkpt lat="37.1642898" lon="10.0265109"><ele>47.0</ele><time>2026-05-05T08:42:42.739Z</time></trkpt><trkpt lat="37.164345" lon="10.0266346"><ele>47.0</ele><time>2026-05-05T08:42:43.747Z</time></trkpt><trkpt lat="37.1643963" lon="10.0267586"><ele>47.400000000000006</ele><time>2026-05-05T08:42:44.741Z</time></trkpt><trkpt lat="37.1644457" lon="10.0268865"><ele>47.800000000000004</ele><time>2026-05-05T08:42:45.746Z</time></trkpt><trkpt lat="37.1644973" lon="10.0270135"><ele>48.2</ele><time>2026-05-05T08:42:46.737Z</time></trkpt><trkpt lat="37.1645449" lon="10.0271441"><ele>48.6</ele><time>2026-05-05T08:42:47.741Z</time></trkpt><trkpt lat="37.1645941" lon="10.0272645"><ele>49.0</ele><time>2026-05-05T08:42:48.736Z</time></trkpt><trkpt lat="37.1646452" lon="10.0273873"><ele>49.285714285714285</ele><time>2026-05-05T08:42:49.743Z</time></trkpt><trkpt lat="37.1646904" lon="10.0274903"><ele>49.57142857142857</ele><time>2026-05-05T08:42:50.752Z</time></trkpt><trkpt lat="37.1647298" lon="10.0275666"><ele>49.85714285714286</ele><time>2026-05-05T08:42:51.751Z</time></trkpt><trkpt lat="37.1647784" lon="10.0276313"><ele>50.14285714285714</ele><time>2026-05-05T08:42:52.744Z</time></trkpt><trkpt lat="37.1648318" lon="10.0276732"><ele>50.42857142857143</ele><time>2026-05-05T08:42:53.743Z</time></trkpt><trkpt lat="37.1648948" lon="10.0277075"><ele>50.714285714285715</ele><time>2026-05-05T08:42:54.753Z</time></trkpt><trkpt lat="37.1649696" lon="10.0277215"><ele>51.0</ele><time>2026-05-05T08:42:55.748Z</time></trkpt><trkpt lat="37.1650422" lon="10.0277056"><ele>51.166666666666664</ele><time>2026-05-05T08:42:56.744Z</time></trkpt><trkpt lat="37.1651071" lon="10.0276713"><ele>51.33333333333333</ele><time>2026-05-05T08:42:57.734Z</time></trkpt><trkpt lat="37.1651704" lon="10.0276277"><ele>51.5</ele><time>2026-05-05T08:42:58.735Z</time></trkpt><trkpt lat="37.1652469" lon="10.0275863"><ele>51.666666666666664</ele><time>2026-05-05T08:42:59.73Z</time></trkpt><trkpt lat="37.1653236" lon="10.0275449"><ele>51.83333333333333</ele><time>2026-05-05T08:43:00.735Z</time></trkpt><trkpt lat="37.1654002" lon="10.0275041"><ele>52.0</ele><time>2026-05-05T08:43:01.739Z</time></trkpt><trkpt lat="37.165473" lon="10.0274765"><ele>51.99999999999999</ele><time>2026-05-05T08:43:02.728Z</time></trkpt><trkpt lat="37.1655478" lon="10.0274486"><ele>52.0</ele><time>2026-05-05T08:43:03.735Z</time></trkpt><trkpt lat="37.1656221" lon="10.0274164"><ele>52.0</ele><time>2026-05-05T08:43:04.742Z</time></trkpt><trkpt lat="37.165698" lon="10.0273839"><ele>52.0</ele><time>2026-05-05T08:43:05.722Z</time></trkpt><trkpt lat="37.1657734" lon="10.0273511"><ele>51.99999999999999</ele><time>2026-05-05T08:43:06.716Z</time></trkpt><trkpt lat="37.1658403" lon="10.0273215"><ele>52.0</ele><time>2026-05-05T08:43:07.738Z</time></trkpt><trkpt lat="37.1659026" lon="10.0272997"><ele>52.0</ele><time>2026-05-05T08:43:08.697Z</time></trkpt><trkpt lat="37.1659992" lon="10.0272677"><ele>52.0</ele><time>2026-05-05T08:43:10.73Z</time></trkpt><trkpt lat="37.1660752" lon="10.0272384"><ele>52.0</ele><time>2026-05-05T08:43:12.732Z</time></trkpt><trkpt lat="37.1661595" lon="10.0272079"><ele>52.0</ele><time>2026-05-05T08:43:14.733Z</time></trkpt><trkpt lat="37.1662496" lon="10.0271808"><ele>52.0</ele><time>2026-05-05T08:43:16.736Z</time></trkpt><trkpt lat="37.1663459" lon="10.02716"><ele>51.99999999999999</ele><time>2026-05-05T08:43:18.743Z</time></trkpt><trkpt lat="37.1664357" lon="10.027156"><ele>52.0</ele><time>2026-05-05T08:43:20.724Z</time></trkpt><trkpt lat="37.1665167" lon="10.0271339"><ele>52.0</ele><time>2026-05-05T08:43:22.689Z</time></trkpt><trkpt lat="37.1665811" lon="10.0271185"><ele>52.0</ele><time>2026-05-05T08:43:24.696Z</time></trkpt><trkpt lat="37.1666548" lon="10.0271126"><ele>51.99999999999999</ele><time>2026-05-05T08:43:26.721Z</time></trkpt><trkpt lat="37.1667292" lon="10.0271097"><ele>52.0</ele><time>2026-05-05T08:43:28.717Z</time></trkpt><trkpt lat="37.1668013" lon="10.0270977"><ele>52.0</ele><time>2026-05-05T08:43:30.731Z</time></trkpt><trkpt lat="37.166883" lon="10.0270847"><ele>52.0</ele><time>2026-05-05T08:43:32.709Z</time></trkpt><trkpt lat="37.1669531" lon="10.0270854"><ele>52.0</ele><time>2026-05-05T08:43:34.703Z</time></trkpt><trkpt lat="37.1670536" lon="10.02708"><ele>52.0</ele><time>2026-05-05T08:43:36.738Z</time></trkpt><trkpt lat="37.1671719" lon="10.027073"><ele>52.0</ele><time>2026-05-05T08:43:38.691Z</time></trkpt><trkpt lat="37.1672912" lon="10.0270586"><ele>52.0</ele><time>2026-05-05T08:43:40.72Z</time></trkpt><trkpt lat="37.1673557" lon="10.0270522"><ele>52.0</ele><time>2026-05-05T08:43:41.74Z</time></trkpt><trkpt lat="37.1674607" lon="10.0270424"><ele>52.0</ele><time>2026-05-05T08:43:43.738Z</time></trkpt><trkpt lat="37.167569" lon="10.027047"><ele>52.0</ele><time>2026-05-05T08:43:45.715Z</time></trkpt><trkpt lat="37.1676543" lon="10.0270359"><ele>52.0</ele><time>2026-05-05T08:43:47.745Z</time></trkpt><trkpt lat="37.1677933" lon="10.0270204"><ele>52.0</ele><time>2026-05-05T08:43:50.732Z</time></trkpt><trkpt lat="37.1678841" lon="10.02701"><ele>52.0</ele><time>2026-05-05T08:43:52.729Z</time></trkpt><trkpt lat="37.1679778" lon="10.0269973"><ele>52.0</ele><time>2026-05-05T08:43:54.741Z</time></trkpt><trkpt lat="37.1680781" lon="10.027001"><ele>52.0</ele><time>2026-05-05T08:43:56.753Z</time></trkpt><trkpt lat="37.168177" lon="10.0270134"><ele>52.0</ele><time>2026-05-05T08:43:58.727Z</time></trkpt><trkpt lat="37.1682701" lon="10.0270074"><ele>51.8</ele><time>2026-05-05T08:44:00.723Z</time></trkpt><trkpt lat="37.1683923" lon="10.0270014"><ele>51.6</ele><time>2026-05-05T08:44:02.737Z</time></trkpt><trkpt lat="37.1684688" lon="10.0269839"><ele>51.4</ele><time>2026-05-05T08:44:03.737Z</time></trkpt><trkpt lat="37.1685562" lon="10.0269784"><ele>51.199999999999996</ele><time>2026-05-05T08:44:04.728Z</time></trkpt><trkpt lat="37.1686429" lon="10.0269795"><ele>51.0</ele><time>2026-05-05T08:44:05.717Z</time></trkpt><trkpt lat="37.1687273" lon="10.0269873"><ele>51.0</ele><time>2026-05-05T08:44:06.73Z</time></trkpt><trkpt lat="37.1688173" lon="10.0270015"><ele>51.0</ele><time>2026-05-05T08:44:07.726Z</time></trkpt><trkpt lat="37.1689127" lon="10.0270162"><ele>51.0</ele><time>2026-05-05T08:44:08.732Z</time></trkpt><trkpt lat="37.1690141" lon="10.027017"><ele>51.0</ele><time>2026-05-05T08:44:09.738Z</time></trkpt><trkpt lat="37.1691137" lon="10.0270229"><ele>51.0</ele><time>2026-05-05T08:44:10.738Z</time></trkpt><trkpt lat="37.1692107" lon="10.0270261"><ele>51.199999999999996</ele><time>2026-05-05T08:44:11.748Z</time></trkpt><trkpt lat="37.1693122" lon="10.0270293"><ele>51.4</ele><time>2026-05-05T08:44:12.734Z</time></trkpt><trkpt lat="37.1694147" lon="10.0270302"><ele>51.6</ele><time>2026-05-05T08:44:13.736Z</time></trkpt><trkpt lat="37.1695054" lon="10.0270259"><ele>51.8</ele><time>2026-05-05T08:44:14.734Z</time></trkpt><trkpt lat="37.1695935" lon="10.0270206"><ele>52.0</ele><time>2026-05-05T08:44:15.731Z</time></trkpt><trkpt lat="37.1696756" lon="10.0270234"><ele>51.99999999999999</ele><time>2026-05-05T08:44:16.737Z</time></trkpt><trkpt lat="37.1697619" lon="10.0270306"><ele>52.0</ele><time>2026-05-05T08:44:17.731Z</time></trkpt><trkpt lat="37.1698448" lon="10.0270309"><ele>52.0</ele><time>2026-05-05T08:44:18.729Z</time></trkpt><trkpt lat="37.1699338" lon="10.0270302"><ele>52.0</ele><time>2026-05-05T08:44:19.741Z</time></trkpt><trkpt lat="37.170024" lon="10.0270292"><ele>51.99999999999999</ele><time>2026-05-05T08:44:20.744Z</time></trkpt><trkpt lat="37.1701185" lon="10.0270311"><ele>52.0</ele><time>2026-05-05T08:44:21.711Z</time></trkpt><trkpt lat="37.1702178" lon="10.0270278"><ele>52.0</ele><time>2026-05-05T08:44:22.73Z</time></trkpt><trkpt lat="37.1703191" lon="10.02703"><ele>52.0</ele><time>2026-05-05T08:44:23.719Z</time></trkpt><trkpt lat="37.1704187" lon="10.027027"><ele>52.0</ele><time>2026-05-05T08:44:24.729Z</time></trkpt><trkpt lat="37.1705178" lon="10.0270217"><ele>52.0</ele><time>2026-05-05T08:44:25.737Z</time></trkpt><trkpt lat="37.1706191" lon="10.0270177"><ele>52.0</ele><time>2026-05-05T08:44:26.725Z</time></trkpt><trkpt lat="37.1707155" lon="10.0270135"><ele>51.99999999999999</ele><time>2026-05-05T08:44:27.732Z</time></trkpt><trkpt lat="37.1708027" lon="10.0269986"><ele>52.0</ele><time>2026-05-05T08:44:28.729Z</time></trkpt><trkpt lat="37.1708877" lon="10.026978"><ele>52.0</ele><time>2026-05-05T08:44:29.731Z</time></trkpt><trkpt lat="37.170974" lon="10.0269546"><ele>52.0</ele><time>2026-05-05T08:44:30.743Z</time></trkpt><trkpt lat="37.171061" lon="10.0269337"><ele>51.99999999999999</ele><time>2026-05-05T08:44:31.732Z</time></trkpt><trkpt lat="37.1711411" lon="10.0269056"><ele>52.0</ele><time>2026-05-05T08:44:32.739Z</time></trkpt><trkpt lat="37.1712198" lon="10.0268824"><ele>52.0</ele><time>2026-05-05T08:44:33.716Z</time></trkpt><trkpt lat="37.171295" lon="10.0268543"><ele>52.0</ele><time>2026-05-05T08:44:34.717Z</time></trkpt><trkpt lat="37.1713776" lon="10.0268341"><ele>52.0</ele><time>2026-05-05T08:44:35.716Z</time></trkpt><trkpt lat="37.1714504" lon="10.026816"><ele>52.0</ele><time>2026-05-05T08:44:36.727Z</time></trkpt><trkpt lat="37.1715177" lon="10.0268043"><ele>52.0</ele><time>2026-05-05T08:44:37.727Z</time></trkpt><trkpt lat="37.1715917" lon="10.026784"><ele>52.0</ele><time>2026-05-05T08:44:39.735Z</time></trkpt><trkpt lat="37.1716554" lon="10.0267879"><ele>52.0</ele><time>2026-05-05T08:44:42.733Z</time></trkpt><trkpt lat="37.1717202" lon="10.0267912"><ele>52.2</ele><time>2026-05-05T08:44:46.75Z</time></trkpt><trkpt lat="37.1717841" lon="10.0268109"><ele>52.400000000000006</ele><time>2026-05-05T08:44:49.74Z</time></trkpt><trkpt lat="37.1718187" lon="10.0269074"><ele>52.599999999999994</ele><time>2026-05-05T08:44:52.738Z</time></trkpt><trkpt lat="37.1717932" lon="10.027032"><ele>52.8</ele><time>2026-05-05T08:44:54.731Z</time></trkpt><trkpt lat="37.1717552" lon="10.0271527"><ele>53.0</ele><time>2026-05-05T08:44:56.74Z</time></trkpt><trkpt lat="37.1717335" lon="10.0272718"><ele>53.0</ele><time>2026-05-05T08:44:58.747Z</time></trkpt><trkpt lat="37.1716998" lon="10.0274387"><ele>53.0</ele><time>2026-05-05T08:45:00.747Z</time></trkpt><trkpt lat="37.171681" lon="10.0275424"><ele>53.0</ele><time>2026-05-05T08:45:01.729Z</time></trkpt><trkpt lat="37.1716497" lon="10.02765"><ele>53.0</ele><time>2026-05-05T08:45:02.714Z</time></trkpt><trkpt lat="37.1716279" lon="10.0277483"><ele>53.0</ele><time>2026-05-05T08:45:03.728Z</time></trkpt><trkpt lat="37.1716076" lon="10.0278396"><ele>53.833333333333336</ele><time>2026-05-05T08:45:04.744Z</time></trkpt><trkpt lat="37.1715842" lon="10.0279307"><ele>54.66666666666667</ele><time>2026-05-05T08:45:05.736Z</time></trkpt><trkpt lat="37.1715664" lon="10.028018"><ele>55.5</ele><time>2026-05-05T08:45:06.731Z</time></trkpt><trkpt lat="37.1715452" lon="10.028108"><ele>56.33333333333333</ele><time>2026-05-05T08:45:07.721Z</time></trkpt><trkpt lat="37.1715195" lon="10.0281906"><ele>57.166666666666664</ele><time>2026-05-05T08:45:08.748Z</time></trkpt><trkpt lat="37.1714701" lon="10.0283312"><ele>58.0</ele><time>2026-05-05T08:45:10.736Z</time></trkpt><trkpt lat="37.1714383" lon="10.0284075"><ele>58.33333333333333</ele><time>2026-05-05T08:45:11.705Z</time></trkpt><trkpt lat="37.1713973" lon="10.028488"><ele>58.666666666666664</ele><time>2026-05-05T08:45:12.689Z</time></trkpt><trkpt lat="37.1713525" lon="10.0285721"><ele>59.0</ele><time>2026-05-05T08:45:13.7Z</time></trkpt><trkpt lat="37.1713048" lon="10.0286645"><ele>59.33333333333333</ele><time>2026-05-05T08:45:14.701Z</time></trkpt><trkpt lat="37.1712661" lon="10.0287634"><ele>59.666666666666664</ele><time>2026-05-05T08:45:15.722Z</time></trkpt><trkpt lat="37.1712243" lon="10.0288615"><ele>60.0</ele><time>2026-05-05T08:45:16.742Z</time></trkpt><trkpt lat="37.1711874" lon="10.0289524"><ele>60.0</ele><time>2026-05-05T08:45:17.723Z</time></trkpt><trkpt lat="37.1711541" lon="10.0290362"><ele>60.0</ele><time>2026-05-05T08:45:18.717Z</time></trkpt><trkpt lat="37.1711283" lon="10.0291128"><ele>60.0</ele><time>2026-05-05T08:45:19.73Z</time></trkpt><trkpt lat="37.1710881" lon="10.0292441"><ele>60.0</ele><time>2026-05-05T08:45:21.742Z</time></trkpt><trkpt lat="37.1710564" lon="10.0293579"><ele>60.0</ele><time>2026-05-05T08:45:23.708Z</time></trkpt><trkpt lat="37.1710297" lon="10.0294618"><ele>60.0</ele><time>2026-05-05T08:45:25.741Z</time></trkpt><trkpt lat="37.1710109" lon="10.0295785"><ele>60.5</ele><time>2026-05-05T08:45:27.734Z</time></trkpt><trkpt lat="37.1710011" lon="10.0297293"><ele>61.0</ele><time>2026-05-05T08:45:29.732Z</time></trkpt><trkpt lat="37.1709892" lon="10.0298077"><ele>61.5</ele><time>2026-05-05T08:45:30.734Z</time></trkpt><trkpt lat="37.1709768" lon="10.029891"><ele>62.0</ele><time>2026-05-05T08:45:31.735Z</time></trkpt><trkpt lat="37.170967" lon="10.0299756"><ele>62.5</ele><time>2026-05-05T08:45:32.732Z</time></trkpt><trkpt lat="37.1709569" lon="10.0300565"><ele>63.0</ele><time>2026-05-05T08:45:33.742Z</time></trkpt><trkpt lat="37.1709401" lon="10.0302088"><ele>64.0</ele><time>2026-05-05T08:45:35.714Z</time></trkpt><trkpt lat="37.1709171" lon="10.0303461"><ele>65.0</ele><time>2026-05-05T08:45:37.737Z</time></trkpt><trkpt lat="37.1708802" lon="10.0304791"><ele>66.0</ele><time>2026-05-05T08:45:39.73Z</time></trkpt><trkpt lat="37.1708248" lon="10.030601"><ele>67.0</ele><time>2026-05-05T08:45:41.716Z</time></trkpt><trkpt lat="37.1707641" lon="10.0307251"><ele>67.0</ele><time>2026-05-05T08:45:43.73Z</time></trkpt><trkpt lat="37.1707315" lon="10.0307945"><ele>67.0</ele><time>2026-05-05T08:45:44.733Z</time></trkpt><trkpt lat="37.1706907" lon="10.030864"><ele>67.0</ele><time>2026-05-05T08:45:45.727Z</time></trkpt><trkpt lat="37.1706457" lon="10.0309273"><ele>67.0</ele><time>2026-05-05T08:45:46.73Z</time></trkpt><trkpt lat="37.1706038" lon="10.0310041"><ele>67.0</ele><time>2026-05-05T08:45:47.711Z</time></trkpt><trkpt lat="37.1705565" lon="10.0310935"><ele>67.0</ele><time>2026-05-05T08:45:48.728Z</time></trkpt><trkpt lat="37.170514" lon="10.0311919"><ele>67.0</ele><time>2026-05-05T08:45:49.737Z</time></trkpt><trkpt lat="37.1704879" lon="10.0312947"><ele>67.16666666666666</ele><time>2026-05-05T08:45:50.73Z</time></trkpt><trkpt lat="37.170471" lon="10.0313969"><ele>67.33333333333333</ele><time>2026-05-05T08:45:51.715Z</time></trkpt><trkpt lat="37.1704637" lon="10.0314942"><ele>67.5</ele><time>2026-05-05T08:45:52.724Z</time></trkpt><trkpt lat="37.1704689" lon="10.0316396"><ele>67.66666666666667</ele><time>2026-05-05T08:45:54.749Z</time></trkpt><trkpt lat="37.1704838" lon="10.0317456"><ele>67.83333333333334</ele><time>2026-05-05T08:45:56.742Z</time></trkpt><trkpt lat="37.1705038" lon="10.0318455"><ele>68.0</ele><time>2026-05-05T08:45:58.74Z</time></trkpt><trkpt lat="37.1705314" lon="10.0319471"><ele>68.66666666666667</ele><time>2026-05-05T08:46:00.737Z</time></trkpt><trkpt lat="37.1705592" lon="10.0320561"><ele>69.33333333333334</ele><time>2026-05-05T08:46:02.722Z</time></trkpt><trkpt lat="37.1705816" lon="10.0321617"><ele>70.0</ele><time>2026-05-05T08:46:04.729Z</time></trkpt><trkpt lat="37.1705807" lon="10.0322668"><ele>70.66666666666667</ele><time>2026-05-05T08:46:06.742Z</time></trkpt><trkpt lat="37.1705676" lon="10.0323719"><ele>71.33333333333333</ele><time>2026-05-05T08:46:08.754Z</time></trkpt><trkpt lat="37.1705194" lon="10.0324665"><ele>72.0</ele><time>2026-05-05T08:46:10.75Z</time></trkpt><trkpt lat="37.170457" lon="10.0325426"><ele>72.6</ele><time>2026-05-05T08:46:12.704Z</time></trkpt><trkpt lat="37.1703798" lon="10.0325908"><ele>73.2</ele><time>2026-05-05T08:46:14.711Z</time></trkpt><trkpt lat="37.1702959" lon="10.0326408"><ele>73.8</ele><time>2026-05-05T08:46:16.714Z</time></trkpt><trkpt lat="37.1701963" lon="10.0326749"><ele>74.4</ele><time>2026-05-05T08:46:18.715Z</time></trkpt><trkpt lat="37.1700788" lon="10.0327187"><ele>75.0</ele><time>2026-05-05T08:46:20.72Z</time></trkpt><trkpt lat="37.1699565" lon="10.0327705"><ele>75.0</ele><time>2026-05-05T08:46:22.732Z</time></trkpt><trkpt lat="37.1698843" lon="10.032802"><ele>75.0</ele><time>2026-05-05T08:46:23.737Z</time></trkpt><trkpt lat="37.1698175" lon="10.0328352"><ele>75.0</ele><time>2026-05-05T08:46:24.732Z</time></trkpt><trkpt lat="37.1697507" lon="10.032877"><ele>75.0</ele><time>2026-05-05T08:46:25.733Z</time></trkpt><trkpt lat="37.1696891" lon="10.032925"><ele>75.0</ele><time>2026-05-05T08:46:26.737Z</time></trkpt><trkpt lat="37.1695888" lon="10.0330075"><ele>75.0</ele><time>2026-05-05T08:46:28.741Z</time></trkpt><trkpt lat="37.1694983" lon="10.0330856"><ele>75.5</ele><time>2026-05-05T08:46:30.756Z</time></trkpt><trkpt lat="37.169412" lon="10.0331778"><ele>76.0</ele><time>2026-05-05T08:46:32.738Z</time></trkpt><trkpt lat="37.1693334" lon="10.033285"><ele>76.5</ele><time>2026-05-05T08:46:34.689Z</time></trkpt><trkpt lat="37.1692516" lon="10.0333941"><ele>77.0</ele><time>2026-05-05T08:46:36.728Z</time></trkpt><trkpt lat="37.1691673" lon="10.0334963"><ele>77.25</ele><time>2026-05-05T08:46:38.727Z</time></trkpt><trkpt lat="37.1690944" lon="10.033618"><ele>77.5</ele><time>2026-05-05T08:46:40.739Z</time></trkpt><trkpt lat="37.1690218" lon="10.0337244"><ele>77.75</ele><time>2026-05-05T08:46:42.729Z</time></trkpt><trkpt lat="37.1689395" lon="10.033833"><ele>78.0</ele><time>2026-05-05T08:46:44.742Z</time></trkpt><trkpt lat="37.1688804" lon="10.0339352"><ele>78.0</ele><time>2026-05-05T08:46:46.732Z</time></trkpt><trkpt lat="37.1688294" lon="10.03402"><ele>78.0</ele><time>2026-05-05T08:46:49.747Z</time></trkpt><trkpt lat="37.1687871" lon="10.0340854"><ele>78.0</ele><time>2026-05-05T08:46:51.706Z</time></trkpt><trkpt lat="37.1687294" lon="10.0341951"><ele>78.0</ele><time>2026-05-05T08:46:53.718Z</time></trkpt><trkpt lat="37.1686583" lon="10.0343215"><ele>78.0</ele><time>2026-05-05T08:46:55.741Z</time></trkpt><trkpt lat="37.1685914" lon="10.0344536"><ele>78.5</ele><time>2026-05-05T08:46:57.756Z</time></trkpt><trkpt lat="37.1685522" lon="10.0345232"><ele>79.0</ele><time>2026-05-05T08:46:58.736Z</time></trkpt><trkpt lat="37.1685111" lon="10.0346021"><ele>79.5</ele><time>2026-05-05T08:46:59.723Z</time></trkpt><trkpt lat="37.1684665" lon="10.0346837"><ele>80.0</ele><time>2026-05-05T08:47:00.739Z</time></trkpt><trkpt lat="37.1684237" lon="10.0347689"><ele>80.5</ele><time>2026-05-05T08:47:01.743Z</time></trkpt><trkpt lat="37.1683805" lon="10.0348576"><ele>81.0</ele><time>2026-05-05T08:47:02.715Z</time></trkpt><trkpt lat="37.1683345" lon="10.03495"><ele>81.5</ele><time>2026-05-05T08:47:03.724Z</time></trkpt><trkpt lat="37.1682873" lon="10.0350436"><ele>82.0</ele><time>2026-05-05T08:47:04.743Z</time></trkpt><trkpt lat="37.1682497" lon="10.0351325"><ele>82.5</ele><time>2026-05-05T08:47:05.75Z</time></trkpt><trkpt lat="37.1682068" lon="10.0352241"><ele>83.0</ele><time>2026-05-05T08:47:06.735Z</time></trkpt><trkpt lat="37.1681655" lon="10.0353121"><ele>83.5</ele><time>2026-05-05T08:47:07.741Z</time></trkpt><trkpt lat="37.1681252" lon="10.0353933"><ele>84.0</ele><time>2026-05-05T08:47:08.737Z</time></trkpt><trkpt lat="37.1680886" lon="10.0354786"><ele>83.0</ele><time>2026-05-05T08:47:09.747Z</time></trkpt><trkpt lat="37.1680534" lon="10.0355621"><ele>82.0</ele><time>2026-05-05T08:47:10.713Z</time></trkpt><trkpt lat="37.1680122" lon="10.0356548"><ele>81.0</ele><time>2026-05-05T08:47:11.714Z</time></trkpt><trkpt lat="37.1679725" lon="10.0357401"><ele>80.0</ele><time>2026-05-05T08:47:12.744Z</time></trkpt><trkpt lat="37.1679351" lon="10.035826"><ele>79.0</ele><time>2026-05-05T08:47:13.743Z</time></trkpt><trkpt lat="37.167898" lon="10.03591"><ele>78.0</ele><time>2026-05-05T08:47:14.736Z</time></trkpt><trkpt lat="37.1678567" lon="10.0359942"><ele>78.0</ele><time>2026-05-05T08:47:15.735Z</time></trkpt><trkpt lat="37.1678211" lon="10.0360817"><ele>78.0</ele><time>2026-05-05T08:47:16.735Z</time></trkpt><trkpt lat="37.1677842" lon="10.0361661"><ele>78.0</ele><time>2026-05-05T08:47:17.742Z</time></trkpt><trkpt lat="37.1677436" lon="10.0362544"><ele>78.0</ele><time>2026-05-05T08:47:18.753Z</time></trkpt><trkpt lat="37.1677069" lon="10.0363425"><ele>78.0</ele><time>2026-05-05T08:47:19.748Z</time></trkpt><trkpt lat="37.1676769" lon="10.0364351"><ele>78.0</ele><time>2026-05-05T08:47:20.746Z</time></trkpt><trkpt lat="37.1676376" lon="10.0365316"><ele>78.0</ele><time>2026-05-05T08:47:21.742Z</time></trkpt><trkpt lat="37.1675989" lon="10.0366282"><ele>78.0</ele><time>2026-05-05T08:47:22.74Z</time></trkpt><trkpt lat="37.1675531" lon="10.0367281"><ele>78.0</ele><time>2026-05-05T08:47:23.76Z</time></trkpt><trkpt lat="37.1675139" lon="10.0368248"><ele>78.0</ele><time>2026-05-05T08:47:24.733Z</time></trkpt><trkpt lat="37.1674674" lon="10.0369281"><ele>78.0</ele><time>2026-05-05T08:47:25.745Z</time></trkpt><trkpt lat="37.1674213" lon="10.0370365"><ele>77.8</ele><time>2026-05-05T08:47:26.746Z</time></trkpt><trkpt lat="37.1673751" lon="10.0371466"><ele>77.6</ele><time>2026-05-05T08:47:27.741Z</time></trkpt><trkpt lat="37.1673303" lon="10.0372553"><ele>77.4</ele><time>2026-05-05T08:47:28.754Z</time></trkpt><trkpt lat="37.1672859" lon="10.0373637"><ele>77.2</ele><time>2026-05-05T08:47:29.738Z</time></trkpt><trkpt lat="37.167238" lon="10.037473"><ele>77.0</ele><time>2026-05-05T08:47:30.74Z</time></trkpt><trkpt lat="37.1671809" lon="10.0375827"><ele>77.0</ele><time>2026-05-05T08:47:31.725Z</time></trkpt><trkpt lat="37.1671286" lon="10.0376878"><ele>77.0</ele><time>2026-05-05T08:47:32.761Z</time></trkpt><trkpt lat="37.167075" lon="10.0377981"><ele>77.0</ele><time>2026-05-05T08:47:33.741Z</time></trkpt><trkpt lat="37.1670195" lon="10.0379046"><ele>77.0</ele><time>2026-05-05T08:47:34.714Z</time></trkpt><trkpt lat="37.166963" lon="10.0380142"><ele>77.0</ele><time>2026-05-05T08:47:35.751Z</time></trkpt><trkpt lat="37.1669019" lon="10.0381284"><ele>77.0</ele><time>2026-05-05T08:47:36.75Z</time></trkpt><trkpt lat="37.1668385" lon="10.0382238"><ele>77.0</ele><time>2026-05-05T08:47:37.75Z</time></trkpt><trkpt lat="37.1667613" lon="10.0383217"><ele>77.0</ele><time>2026-05-05T08:47:38.719Z</time></trkpt><trkpt lat="37.1666888" lon="10.0384152"><ele>77.0</ele><time>2026-05-05T08:47:39.737Z</time></trkpt><trkpt lat="37.1666193" lon="10.0385128"><ele>77.0</ele><time>2026-05-05T08:47:40.745Z</time></trkpt><trkpt lat="37.1665426" lon="10.0386052"><ele>77.2</ele><time>2026-05-05T08:47:41.716Z</time></trkpt><trkpt lat="37.1664654" lon="10.0386998"><ele>77.4</ele><time>2026-05-05T08:47:42.734Z</time></trkpt><trkpt lat="37.166385" lon="10.0387896"><ele>77.6</ele><time>2026-05-05T08:47:43.731Z</time></trkpt><trkpt lat="37.1663107" lon="10.0388715"><ele>77.8</ele><time>2026-05-05T08:47:44.741Z</time></trkpt><trkpt lat="37.1662534" lon="10.0389402"><ele>78.0</ele><time>2026-05-05T08:47:45.756Z</time></trkpt><trkpt lat="37.1661964" lon="10.039009"><ele>78.0</ele><time>2026-05-05T08:47:46.735Z</time></trkpt><trkpt lat="37.1661353" lon="10.0390888"><ele>78.0</ele><time>2026-05-05T08:47:47.738Z</time></trkpt><trkpt lat="37.1660652" lon="10.0391845"><ele>78.0</ele><time>2026-05-05T08:47:48.718Z</time></trkpt><trkpt lat="37.1659955" lon="10.0392682"><ele>78.0</ele><time>2026-05-05T08:47:49.742Z</time></trkpt><trkpt lat="37.1659275" lon="10.039351"><ele>78.0</ele><time>2026-05-05T08:47:50.74Z</time></trkpt><trkpt lat="37.165856" lon="10.0394297"><ele>78.16666666666667</ele><time>2026-05-05T08:47:51.711Z</time></trkpt><trkpt lat="37.1657915" lon="10.0395114"><ele>78.33333333333333</ele><time>2026-05-05T08:47:52.738Z</time></trkpt><trkpt lat="37.1657206" lon="10.0395918"><ele>78.5</ele><time>2026-05-05T08:47:53.739Z</time></trkpt><trkpt lat="37.1656542" lon="10.0396569"><ele>78.66666666666666</ele><time>2026-05-05T08:47:54.742Z</time></trkpt><trkpt lat="37.1655983" lon="10.0397208"><ele>78.83333333333333</ele><time>2026-05-05T08:47:55.746Z</time></trkpt><trkpt lat="37.1655406" lon="10.0397893"><ele>79.0</ele><time>2026-05-05T08:47:56.72Z</time></trkpt><trkpt lat="37.1654843" lon="10.0398637"><ele>78.5</ele><time>2026-05-05T08:47:57.741Z</time></trkpt><trkpt lat="37.1654287" lon="10.0399367"><ele>78.0</ele><time>2026-05-05T08:47:58.755Z</time></trkpt><trkpt lat="37.1653603" lon="10.03999"><ele>77.5</ele><time>2026-05-05T08:47:59.738Z</time></trkpt><trkpt lat="37.165287" lon="10.0400395"><ele>77.0</ele><time>2026-05-05T08:48:00.744Z</time></trkpt><trkpt lat="37.1652221" lon="10.0400922"><ele>76.5</ele><time>2026-05-05T08:48:01.722Z</time></trkpt><trkpt lat="37.1651533" lon="10.040137"><ele>76.0</ele><time>2026-05-05T08:48:02.74Z</time></trkpt><trkpt lat="37.165087" lon="10.0401751"><ele>76.0</ele><time>2026-05-05T08:48:03.745Z</time></trkpt><trkpt lat="37.1650186" lon="10.0402176"><ele>76.0</ele><time>2026-05-05T08:48:04.738Z</time></trkpt><trkpt lat="37.1649479" lon="10.0402603"><ele>76.0</ele><time>2026-05-05T08:48:05.74Z</time></trkpt><trkpt lat="37.1648694" lon="10.0403055"><ele>76.0</ele><time>2026-05-05T08:48:06.738Z</time></trkpt><trkpt lat="37.1647905" lon="10.0403446"><ele>76.0</ele><time>2026-05-05T08:48:07.745Z</time></trkpt><trkpt lat="37.1647208" lon="10.0403817"><ele>76.0</ele><time>2026-05-05T08:48:08.747Z</time></trkpt><trkpt lat="37.1646438" lon="10.0404174"><ele>75.66666666666666</ele><time>2026-05-05T08:48:09.728Z</time></trkpt><trkpt lat="37.1645682" lon="10.0404599"><ele>75.33333333333333</ele><time>2026-05-05T08:48:10.738Z</time></trkpt><trkpt lat="37.164493" lon="10.0404984"><ele>75.0</ele><time>2026-05-05T08:48:11.735Z</time></trkpt><trkpt lat="37.1644144" lon="10.0405355"><ele>74.66666666666667</ele><time>2026-05-05T08:48:12.734Z</time></trkpt><trkpt lat="37.1643348" lon="10.0405726"><ele>74.33333333333334</ele><time>2026-05-05T08:48:13.725Z</time></trkpt><trkpt lat="37.164254" lon="10.0406109"><ele>74.0</ele><time>2026-05-05T08:48:14.74Z</time></trkpt><trkpt lat="37.1641746" lon="10.0406579"><ele>74.0</ele><time>2026-05-05T08:48:15.707Z</time></trkpt><trkpt lat="37.1640943" lon="10.0407036"><ele>74.0</ele><time>2026-05-05T08:48:16.727Z</time></trkpt><trkpt lat="37.1640049" lon="10.0407432"><ele>74.0</ele><time>2026-05-05T08:48:17.744Z</time></trkpt><trkpt lat="37.1639226" lon="10.0407765"><ele>74.0</ele><time>2026-05-05T08:48:18.737Z</time></trkpt><trkpt lat="37.1638338" lon="10.0408094"><ele>74.0</ele><time>2026-05-05T08:48:19.728Z</time></trkpt><trkpt lat="37.1637192" lon="10.0408417"><ele>74.75</ele><time>2026-05-05T08:48:20.744Z</time></trkpt><trkpt lat="37.1635919" lon="10.0408607"><ele>75.5</ele><time>2026-05-05T08:48:21.753Z</time></trkpt><trkpt lat="37.1634586" lon="10.040882"><ele>76.25</ele><time>2026-05-05T08:48:22.738Z</time></trkpt><trkpt lat="37.1633247" lon="10.0409063"><ele>77.0</ele><time>2026-05-05T08:48:23.747Z</time></trkpt><trkpt lat="37.1631808" lon="10.0409274"><ele>77.0</ele><time>2026-05-05T08:48:24.738Z</time></trkpt><trkpt lat="37.1630416" lon="10.0409469"><ele>77.0</ele><time>2026-05-05T08:48:25.738Z</time></trkpt><trkpt lat="37.162904" lon="10.0409687"><ele>77.0</ele><time>2026-05-05T08:48:26.726Z</time></trkpt><trkpt lat="37.1627686" lon="10.0409859"><ele>77.0</ele><time>2026-05-05T08:48:27.729Z</time></trkpt><trkpt lat="37.1626272" lon="10.0410085"><ele>77.0</ele><time>2026-05-05T08:48:28.737Z</time></trkpt><trkpt lat="37.1624987" lon="10.0410292"><ele>77.0</ele><time>2026-05-05T08:48:29.727Z</time></trkpt><trkpt lat="37.1623721" lon="10.0410527"><ele>77.0</ele><time>2026-05-05T08:48:30.749Z</time></trkpt><trkpt lat="37.1622508" lon="10.0410779"><ele>77.0</ele><time>2026-05-05T08:48:31.73Z</time></trkpt><trkpt lat="37.1621304" lon="10.0411006"><ele>77.0</ele><time>2026-05-05T08:48:32.739Z</time></trkpt><trkpt lat="37.1620116" lon="10.0411198"><ele>77.0</ele><time>2026-05-05T08:48:33.737Z</time></trkpt><trkpt lat="37.1618994" lon="10.041139"><ele>77.0</ele><time>2026-05-05T08:48:34.726Z</time></trkpt><trkpt lat="37.161793" lon="10.0411758"><ele>77.0</ele><time>2026-05-05T08:48:35.741Z</time></trkpt><trkpt lat="37.1616925" lon="10.0412292"><ele>77.0</ele><time>2026-05-05T08:48:36.698Z</time></trkpt><trkpt lat="37.1615968" lon="10.0412873"><ele>77.0</ele><time>2026-05-05T08:48:37.69Z</time></trkpt><trkpt lat="37.1615055" lon="10.0413566"><ele>77.0</ele><time>2026-05-05T08:48:38.689Z</time></trkpt><trkpt lat="37.161423" lon="10.0414312"><ele>77.0</ele><time>2026-05-05T08:48:39.712Z</time></trkpt><trkpt lat="37.1613409" lon="10.0415074"><ele>77.0</ele><time>2026-05-05T08:48:40.717Z</time></trkpt><trkpt lat="37.1612692" lon="10.04159"><ele>78.0</ele><time>2026-05-05T08:48:41.717Z</time></trkpt><trkpt lat="37.1612058" lon="10.0416751"><ele>79.0</ele><time>2026-05-05T08:48:42.735Z</time></trkpt><trkpt lat="37.1611352" lon="10.0417587"><ele>80.0</ele><time>2026-05-05T08:48:43.708Z</time></trkpt><trkpt lat="37.1610674" lon="10.0418281"><ele>81.0</ele><time>2026-05-05T08:48:44.731Z</time></trkpt><trkpt lat="37.1610082" lon="10.0418784"><ele>82.0</ele><time>2026-05-05T08:48:45.736Z</time></trkpt><trkpt lat="37.1609028" lon="10.0419231"><ele>82.0</ele><time>2026-05-05T08:48:47.728Z</time></trkpt><trkpt lat="37.1607996" lon="10.0419264"><ele>82.0</ele><time>2026-05-05T08:48:49.714Z</time></trkpt><trkpt lat="37.1606806" lon="10.0418932"><ele>82.0</ele><time>2026-05-05T08:48:51.747Z</time></trkpt><trkpt lat="37.160621" lon="10.0418643"><ele>82.0</ele><time>2026-05-05T08:48:52.745Z</time></trkpt><trkpt lat="37.160546" lon="10.0418292"><ele>82.0</ele><time>2026-05-05T08:48:53.759Z</time></trkpt><trkpt lat="37.1604471" lon="10.0417847"><ele>82.0</ele><time>2026-05-05T08:48:54.738Z</time></trkpt><trkpt lat="37.1603461" lon="10.0417407"><ele>82.0</ele><time>2026-05-05T08:48:55.738Z</time></trkpt><trkpt lat="37.160248" lon="10.0416995"><ele>82.0</ele><time>2026-05-05T08:48:56.723Z</time></trkpt><trkpt lat="37.1601496" lon="10.0416674"><ele>82.0</ele><time>2026-05-05T08:48:57.739Z</time></trkpt><trkpt lat="37.1600515" lon="10.0416434"><ele>82.0</ele><time>2026-05-05T08:48:58.747Z</time></trkpt><trkpt lat="37.1599569" lon="10.0416267"><ele>82.19999999999999</ele><time>2026-05-05T08:48:59.705Z</time></trkpt><trkpt lat="37.1598609" lon="10.0416204"><ele>82.4</ele><time>2026-05-05T08:49:00.729Z</time></trkpt><trkpt lat="37.1597612" lon="10.0416249"><ele>82.6</ele><time>2026-05-05T08:49:01.737Z</time></trkpt><trkpt lat="37.1596523" lon="10.0416354"><ele>82.80000000000001</ele><time>2026-05-05T08:49:02.744Z</time></trkpt><trkpt lat="37.1595423" lon="10.0416579"><ele>83.0</ele><time>2026-05-05T08:49:03.731Z</time></trkpt><trkpt lat="37.159435" lon="10.0416836"><ele>83.0</ele><time>2026-05-05T08:49:04.741Z</time></trkpt><trkpt lat="37.1593199" lon="10.0417092"><ele>83.0</ele><time>2026-05-05T08:49:05.702Z</time></trkpt><trkpt lat="37.1592088" lon="10.0417408"><ele>83.0</ele><time>2026-05-05T08:49:06.692Z</time></trkpt><trkpt lat="37.1591024" lon="10.0417833"><ele>83.0</ele><time>2026-05-05T08:49:07.736Z</time></trkpt><trkpt lat="37.1590016" lon="10.0418418"><ele>82.0</ele><time>2026-05-05T08:49:08.737Z</time></trkpt><trkpt lat="37.1589125" lon="10.0419109"><ele>81.0</ele><time>2026-05-05T08:49:09.736Z</time></trkpt><trkpt lat="37.1588236" lon="10.0420033"><ele>80.0</ele><time>2026-05-05T08:49:10.745Z</time></trkpt><trkpt lat="37.1587307" lon="10.0421046"><ele>79.0</ele><time>2026-05-05T08:49:11.733Z</time></trkpt><trkpt lat="37.1586588" lon="10.0422218"><ele>79.0</ele><time>2026-05-05T08:49:12.732Z</time></trkpt><trkpt lat="37.1585995" lon="10.0423514"><ele>79.0</ele><time>2026-05-05T08:49:13.735Z</time></trkpt><trkpt lat="37.1585586" lon="10.0424875"><ele>79.0</ele><time>2026-05-05T08:49:14.731Z</time></trkpt><trkpt lat="37.1585387" lon="10.0426368"><ele>79.0</ele><time>2026-05-05T08:49:15.757Z</time></trkpt><trkpt lat="37.1585528" lon="10.0427887"><ele>78.75</ele><time>2026-05-05T08:49:16.749Z</time></trkpt><trkpt lat="37.1585844" lon="10.0429398"><ele>78.5</ele><time>2026-05-05T08:49:17.745Z</time></trkpt><trkpt lat="37.1586261" lon="10.0430949"><ele>78.25</ele><time>2026-05-05T08:49:18.72Z</time></trkpt><trkpt lat="37.158664" lon="10.0432426"><ele>78.0</ele><time>2026-05-05T08:49:19.698Z</time></trkpt><trkpt lat="37.1586777" lon="10.0433991"><ele>77.5</ele><time>2026-05-05T08:49:20.749Z</time></trkpt><trkpt lat="37.1586743" lon="10.0435638"><ele>77.0</ele><time>2026-05-05T08:49:21.72Z</time></trkpt><trkpt lat="37.1586578" lon="10.0437312"><ele>76.5</ele><time>2026-05-05T08:49:22.739Z</time></trkpt><trkpt lat="37.158644" lon="10.0438871"><ele>76.0</ele><time>2026-05-05T08:49:23.732Z</time></trkpt><trkpt lat="37.1586228" lon="10.0440493"><ele>76.0</ele><time>2026-05-05T08:49:24.699Z</time></trkpt><trkpt lat="37.1585875" lon="10.0442053"><ele>76.0</ele><time>2026-05-05T08:49:25.728Z</time></trkpt><trkpt lat="37.1585423" lon="10.044355"><ele>76.0</ele><time>2026-05-05T08:49:26.735Z</time></trkpt><trkpt lat="37.1584731" lon="10.0444962"><ele>76.0</ele><time>2026-05-05T08:49:27.72Z</time></trkpt><trkpt lat="37.1583879" lon="10.0446375"><ele>76.0</ele><time>2026-05-05T08:49:28.738Z</time></trkpt><trkpt lat="37.1582936" lon="10.0447851"><ele>76.0</ele><time>2026-05-05T08:49:29.727Z</time></trkpt><trkpt lat="37.1581972" lon="10.044941"><ele>76.0</ele><time>2026-05-05T08:49:30.75Z</time></trkpt><trkpt lat="37.1580822" lon="10.0451204"><ele>75.0</ele><time>2026-05-05T08:49:31.737Z</time></trkpt><trkpt lat="37.1579469" lon="10.045323"><ele>74.0</ele><time>2026-05-05T08:49:32.71Z</time></trkpt><trkpt lat="37.1577931" lon="10.0455204"><ele>73.0</ele><time>2026-05-05T08:49:33.736Z</time></trkpt><trkpt lat="37.1576331" lon="10.0457204"><ele>73.33333333333333</ele><time>2026-05-05T08:49:34.726Z</time></trkpt><trkpt lat="37.1574789" lon="10.0459118"><ele>73.66666666666667</ele><time>2026-05-05T08:49:35.741Z</time></trkpt><trkpt lat="37.157334" lon="10.0460926"><ele>74.0</ele><time>2026-05-05T08:49:36.753Z</time></trkpt><trkpt lat="37.157209" lon="10.0462592"><ele>73.0</ele><time>2026-05-05T08:49:37.73Z</time></trkpt><trkpt lat="37.1570972" lon="10.0464305"><ele>72.0</ele><time>2026-05-05T08:49:38.733Z</time></trkpt><trkpt lat="37.1569968" lon="10.0465961"><ele>71.0</ele><time>2026-05-05T08:49:39.723Z</time></trkpt><trkpt lat="37.1569196" lon="10.0467781"><ele>70.66666666666667</ele><time>2026-05-05T08:49:40.7Z</time></trkpt><trkpt lat="37.1568615" lon="10.0469827"><ele>70.33333333333333</ele><time>2026-05-05T08:49:41.756Z</time></trkpt><trkpt lat="37.1568178" lon="10.0472052"><ele>70.0</ele><time>2026-05-05T08:49:42.744Z</time></trkpt><trkpt lat="37.1567698" lon="10.0474401"><ele>69.33333333333333</ele><time>2026-05-05T08:49:43.724Z</time></trkpt><trkpt lat="37.1567203" lon="10.0476875"><ele>68.66666666666667</ele><time>2026-05-05T08:49:44.739Z</time></trkpt><trkpt lat="37.1566632" lon="10.0479393"><ele>68.0</ele><time>2026-05-05T08:49:45.734Z</time></trkpt><trkpt lat="37.1566081" lon="10.0481942"><ele>68.0</ele><time>2026-05-05T08:49:46.73Z</time></trkpt><trkpt lat="37.1565463" lon="10.0484528"><ele>68.0</ele><time>2026-05-05T08:49:47.736Z</time></trkpt><trkpt lat="37.1564837" lon="10.0487177"><ele>68.0</ele><time>2026-05-05T08:49:48.732Z</time></trkpt><trkpt lat="37.1564263" lon="10.0489835"><ele>69.0</ele><time>2026-05-05T08:49:49.691Z</time></trkpt><trkpt lat="37.156372" lon="10.0492498"><ele>70.0</ele><time>2026-05-05T08:49:50.716Z</time></trkpt><trkpt lat="37.1563248" lon="10.0495131"><ele>71.0</ele><time>2026-05-05T08:49:51.73Z</time></trkpt><trkpt lat="37.1562733" lon="10.049771"><ele>70.33333333333334</ele><time>2026-05-05T08:49:52.733Z</time></trkpt><trkpt lat="37.1562182" lon="10.0500261"><ele>69.66666666666667</ele><time>2026-05-05T08:49:53.741Z</time></trkpt><trkpt lat="37.1561662" lon="10.0502732"><ele>69.0</ele><time>2026-05-05T08:49:54.717Z</time></trkpt><trkpt lat="37.1561147" lon="10.0505176"><ele>69.0</ele><time>2026-05-05T08:49:55.748Z</time></trkpt><trkpt lat="37.1560707" lon="10.0507516"><ele>69.0</ele><time>2026-05-05T08:49:56.735Z</time></trkpt><trkpt lat="37.1560294" lon="10.050976"><ele>69.0</ele><time>2026-05-05T08:49:57.744Z</time></trkpt><trkpt lat="37.1559845" lon="10.0511927"><ele>69.66666666666667</ele><time>2026-05-05T08:49:58.755Z</time></trkpt><trkpt lat="37.1559374" lon="10.0514057"><ele>70.33333333333334</ele><time>2026-05-05T08:49:59.734Z</time></trkpt><trkpt lat="37.1558808" lon="10.0516175"><ele>71.0</ele><time>2026-05-05T08:50:00.743Z</time></trkpt><trkpt lat="37.1558228" lon="10.0518252"><ele>70.66666666666667</ele><time>2026-05-05T08:50:01.742Z</time></trkpt><trkpt lat="37.1557599" lon="10.052023"><ele>70.33333333333333</ele><time>2026-05-05T08:50:02.742Z</time></trkpt><trkpt lat="37.155695" lon="10.0522117"><ele>70.0</ele><time>2026-05-05T08:50:03.737Z</time></trkpt><trkpt lat="37.1556341" lon="10.0523923"><ele>69.66666666666666</ele><time>2026-05-05T08:50:04.748Z</time></trkpt><trkpt lat="37.1555767" lon="10.0525677"><ele>69.33333333333333</ele><time>2026-05-05T08:50:05.716Z</time></trkpt><trkpt lat="37.1555187" lon="10.052742"><ele>69.0</ele><time>2026-05-05T08:50:06.726Z</time></trkpt><trkpt lat="37.1554689" lon="10.0529181"><ele>69.0</ele><time>2026-05-05T08:50:07.75Z</time></trkpt><trkpt lat="37.155422" lon="10.0531037"><ele>69.0</ele><time>2026-05-05T08:50:08.742Z</time></trkpt><trkpt lat="37.1553789" lon="10.0532902"><ele>69.0</ele><time>2026-05-05T08:50:09.739Z</time></trkpt><trkpt lat="37.1553413" lon="10.0534775"><ele>69.0</ele><time>2026-05-05T08:50:10.718Z</time></trkpt><trkpt lat="37.1553038" lon="10.0536663"><ele>69.0</ele><time>2026-05-05T08:50:11.734Z</time></trkpt><trkpt lat="37.1552711" lon="10.0538573"><ele>69.0</ele><time>2026-05-05T08:50:12.736Z</time></trkpt><trkpt lat="37.155227" lon="10.0540509"><ele>68.0</ele><time>2026-05-05T08:50:13.718Z</time></trkpt><trkpt lat="37.1551792" lon="10.0542353"><ele>67.0</ele><time>2026-05-05T08:50:14.736Z</time></trkpt><trkpt lat="37.1551326" lon="10.0544275"><ele>66.0</ele><time>2026-05-05T08:50:15.728Z</time></trkpt><trkpt lat="37.1550833" lon="10.0546116"><ele>66.0</ele><time>2026-05-05T08:50:16.724Z</time></trkpt><trkpt lat="37.1550276" lon="10.0547912"><ele>66.0</ele><time>2026-05-05T08:50:17.736Z</time></trkpt><trkpt lat="37.1549805" lon="10.0549715"><ele>66.0</ele><time>2026-05-05T08:50:18.733Z</time></trkpt><trkpt lat="37.1549346" lon="10.055151"><ele>66.66666666666667</ele><time>2026-05-05T08:50:19.75Z</time></trkpt><trkpt lat="37.1548874" lon="10.0553329"><ele>67.33333333333334</ele><time>2026-05-05T08:50:20.752Z</time></trkpt><trkpt lat="37.1548396" lon="10.0555249"><ele>68.0</ele><time>2026-05-05T08:50:21.725Z</time></trkpt><trkpt lat="37.1547908" lon="10.0557189"><ele>66.66666666666667</ele><time>2026-05-05T08:50:22.738Z</time></trkpt><trkpt lat="37.1547426" lon="10.0559079"><ele>65.33333333333333</ele><time>2026-05-05T08:50:23.749Z</time></trkpt><trkpt lat="37.1546913" lon="10.0561047"><ele>64.0</ele><time>2026-05-05T08:50:24.736Z</time></trkpt><trkpt lat="37.1546386" lon="10.0563"><ele>64.0</ele><time>2026-05-05T08:50:25.757Z</time></trkpt><trkpt lat="37.1545805" lon="10.0564906"><ele>64.0</ele><time>2026-05-05T08:50:26.738Z</time></trkpt><trkpt lat="37.1545267" lon="10.0566853"><ele>64.0</ele><time>2026-05-05T08:50:27.744Z</time></trkpt><trkpt lat="37.1544717" lon="10.0568825"><ele>63.33333333333333</ele><time>2026-05-05T08:50:28.744Z</time></trkpt><trkpt lat="37.1544135" lon="10.0570731"><ele>62.66666666666667</ele><time>2026-05-05T08:50:29.736Z</time></trkpt><trkpt lat="37.1543523" lon="10.0572652"><ele>62.0</ele><time>2026-05-05T08:50:30.737Z</time></trkpt><trkpt lat="37.1542915" lon="10.0574478"><ele>61.0</ele><time>2026-05-05T08:50:31.739Z</time></trkpt><trkpt lat="37.1542326" lon="10.0576325"><ele>60.0</ele><time>2026-05-05T08:50:32.742Z</time></trkpt><trkpt lat="37.154186" lon="10.0578112"><ele>59.0</ele><time>2026-05-05T08:50:33.74Z</time></trkpt><trkpt lat="37.1541516" lon="10.0580022"><ele>59.0</ele><time>2026-05-05T08:50:34.72Z</time></trkpt><trkpt lat="37.154121" lon="10.0581927"><ele>59.0</ele><time>2026-05-05T08:50:35.74Z</time></trkpt><trkpt lat="37.1540934" lon="10.0583704"><ele>59.0</ele><time>2026-05-05T08:50:36.737Z</time></trkpt><trkpt lat="37.1540635" lon="10.0585406"><ele>59.0</ele><time>2026-05-05T08:50:37.736Z</time></trkpt><trkpt lat="37.154027" lon="10.0587157"><ele>59.5</ele><time>2026-05-05T08:50:38.712Z</time></trkpt><trkpt lat="37.1539701" lon="10.0588841"><ele>60.0</ele><time>2026-05-05T08:50:39.748Z</time></trkpt><trkpt lat="37.1538999" lon="10.0590469"><ele>60.5</ele><time>2026-05-05T08:50:40.753Z</time></trkpt><trkpt lat="37.1538196" lon="10.0592051"><ele>61.0</ele><time>2026-05-05T08:50:41.746Z</time></trkpt><trkpt lat="37.1537316" lon="10.0593664"><ele>61.0</ele><time>2026-05-05T08:50:42.742Z</time></trkpt><trkpt lat="37.1536409" lon="10.0595212"><ele>61.0</ele><time>2026-05-05T08:50:43.74Z</time></trkpt><trkpt lat="37.1535427" lon="10.0596728"><ele>61.0</ele><time>2026-05-05T08:50:44.747Z</time></trkpt><trkpt lat="37.1534323" lon="10.0598218"><ele>61.0</ele><time>2026-05-05T08:50:45.737Z</time></trkpt><trkpt lat="37.1533163" lon="10.0599655"><ele>61.0</ele><time>2026-05-05T08:50:46.745Z</time></trkpt><trkpt lat="37.1532057" lon="10.060109"><ele>61.0</ele><time>2026-05-05T08:50:47.731Z</time></trkpt><trkpt lat="37.1531025" lon="10.0602496"><ele>61.0</ele><time>2026-05-05T08:50:48.756Z</time></trkpt><trkpt lat="37.1530027" lon="10.0603882"><ele>61.0</ele><time>2026-05-05T08:50:49.759Z</time></trkpt><trkpt lat="37.152898" lon="10.0605255"><ele>61.0</ele><time>2026-05-05T08:50:50.72Z</time></trkpt><trkpt lat="37.1527808" lon="10.0606635"><ele>60.0</ele><time>2026-05-05T08:50:51.73Z</time></trkpt><trkpt lat="37.1526673" lon="10.0607861"><ele>59.0</ele><time>2026-05-05T08:50:52.738Z</time></trkpt><trkpt lat="37.1525566" lon="10.0608798"><ele>58.0</ele><time>2026-05-05T08:50:53.732Z</time></trkpt><trkpt lat="37.1524365" lon="10.0609424"><ele>57.0</ele><time>2026-05-05T08:50:54.753Z</time></trkpt><trkpt lat="37.1523152" lon="10.0610033"><ele>57.0</ele><time>2026-05-05T08:50:55.74Z</time></trkpt><trkpt lat="37.1521878" lon="10.0610615"><ele>57.0</ele><time>2026-05-05T08:50:56.741Z</time></trkpt><trkpt lat="37.152069" lon="10.0611155"><ele>57.0</ele><time>2026-05-05T08:50:57.74Z</time></trkpt><trkpt lat="37.1519379" lon="10.0611606"><ele>57.0</ele><time>2026-05-05T08:50:58.736Z</time></trkpt><trkpt lat="37.1517943" lon="10.0612058"><ele>57.0</ele><time>2026-05-05T08:50:59.739Z</time></trkpt><trkpt lat="37.1516333" lon="10.061258"><ele>57.0</ele><time>2026-05-05T08:51:00.734Z</time></trkpt><trkpt lat="37.1514668" lon="10.0613107"><ele>57.0</ele><time>2026-05-05T08:51:01.731Z</time></trkpt><trkpt lat="37.151303" lon="10.0613707"><ele>57.66666666666667</ele><time>2026-05-05T08:51:02.743Z</time></trkpt><trkpt lat="37.1511383" lon="10.0614328"><ele>58.333333333333336</ele><time>2026-05-05T08:51:03.733Z</time></trkpt><trkpt lat="37.1509666" lon="10.0614849"><ele>59.0</ele><time>2026-05-05T08:51:04.74Z</time></trkpt><trkpt lat="37.1507957" lon="10.0615416"><ele>58.66666666666667</ele><time>2026-05-05T08:51:05.722Z</time></trkpt><trkpt lat="37.1506303" lon="10.0615994"><ele>58.33333333333333</ele><time>2026-05-05T08:51:06.706Z</time></trkpt><trkpt lat="37.1504688" lon="10.0616667"><ele>58.0</ele><time>2026-05-05T08:51:07.741Z</time></trkpt><trkpt lat="37.1503184" lon="10.0617554"><ele>56.0</ele><time>2026-05-05T08:51:08.746Z</time></trkpt><trkpt lat="37.1501806" lon="10.0618663"><ele>54.0</ele><time>2026-05-05T08:51:09.737Z</time></trkpt><trkpt lat="37.150046" lon="10.0619728"><ele>52.0</ele><time>2026-05-05T08:51:10.74Z</time></trkpt><trkpt lat="37.1499114" lon="10.0620799"><ele>53.33333333333333</ele><time>2026-05-05T08:51:11.751Z</time></trkpt><trkpt lat="37.149782" lon="10.0621895"><ele>54.66666666666667</ele><time>2026-05-05T08:51:12.737Z</time></trkpt><trkpt lat="37.1496511" lon="10.0622925"><ele>56.0</ele><time>2026-05-05T08:51:13.754Z</time></trkpt><trkpt lat="37.1495193" lon="10.0623921"><ele>54.5</ele><time>2026-05-05T08:51:14.742Z</time></trkpt><trkpt lat="37.1493859" lon="10.0624898"><ele>53.0</ele><time>2026-05-05T08:51:15.737Z</time></trkpt><trkpt lat="37.149259" lon="10.062582"><ele>51.5</ele><time>2026-05-05T08:51:16.731Z</time></trkpt><trkpt lat="37.1491342" lon="10.0626753"><ele>50.0</ele><time>2026-05-05T08:51:17.735Z</time></trkpt><trkpt lat="37.1490086" lon="10.062771"><ele>49.75</ele><time>2026-05-05T08:51:18.727Z</time></trkpt><trkpt lat="37.1488886" lon="10.0628543"><ele>49.5</ele><time>2026-05-05T08:51:19.736Z</time></trkpt><trkpt lat="37.1487698" lon="10.0629308"><ele>49.25</ele><time>2026-05-05T08:51:20.73Z</time></trkpt><trkpt lat="37.1486474" lon="10.0630066"><ele>49.0</ele><time>2026-05-05T08:51:21.739Z</time></trkpt><trkpt lat="37.1485231" lon="10.0630833"><ele>49.0</ele><time>2026-05-05T08:51:22.742Z</time></trkpt><trkpt lat="37.1483919" lon="10.0631526"><ele>49.0</ele><time>2026-05-05T08:51:23.733Z</time></trkpt><trkpt lat="37.1482608" lon="10.0632102"><ele>49.0</ele><time>2026-05-05T08:51:24.752Z</time></trkpt><trkpt lat="37.1481179" lon="10.0632675"><ele>49.0</ele><time>2026-05-05T08:51:25.732Z</time></trkpt><trkpt lat="37.1479681" lon="10.0633126"><ele>47.33333333333333</ele><time>2026-05-05T08:51:26.736Z</time></trkpt><trkpt lat="37.1478188" lon="10.0633586"><ele>45.666666666666664</ele><time>2026-05-05T08:51:27.712Z</time></trkpt><trkpt lat="37.1476649" lon="10.0633948"><ele>44.0</ele><time>2026-05-05T08:51:28.697Z</time></trkpt><trkpt lat="37.1475102" lon="10.0634292"><ele>43.33333333333333</ele><time>2026-05-05T08:51:29.738Z</time></trkpt><trkpt lat="37.1473588" lon="10.0634699"><ele>42.666666666666664</ele><time>2026-05-05T08:51:30.741Z</time></trkpt><trkpt lat="37.1472049" lon="10.0635155"><ele>42.0</ele><time>2026-05-05T08:51:31.739Z</time></trkpt><trkpt lat="37.1470475" lon="10.0635518"><ele>42.0</ele><time>2026-05-05T08:51:32.728Z</time></trkpt><trkpt lat="37.1468945" lon="10.0635795"><ele>42.0</ele><time>2026-05-05T08:51:33.735Z</time></trkpt><trkpt lat="37.1467381" lon="10.0636067"><ele>42.0</ele><time>2026-05-05T08:51:34.733Z</time></trkpt><trkpt lat="37.1465805" lon="10.0636457"><ele>42.0</ele><time>2026-05-05T08:51:35.758Z</time></trkpt><trkpt lat="37.1464284" lon="10.0636913"><ele>42.0</ele><time>2026-05-05T08:51:36.744Z</time></trkpt><trkpt lat="37.1462717" lon="10.0637253"><ele>42.0</ele><time>2026-05-05T08:51:37.718Z</time></trkpt><trkpt lat="37.1461135" lon="10.0637569"><ele>42.0</ele><time>2026-05-05T08:51:38.736Z</time></trkpt><trkpt lat="37.1459621" lon="10.0637855"><ele>42.0</ele><time>2026-05-05T08:51:39.737Z</time></trkpt><trkpt lat="37.145818" lon="10.0637939"><ele>42.0</ele><time>2026-05-05T08:51:40.743Z</time></trkpt><trkpt lat="37.1456812" lon="10.0637986"><ele>42.0</ele><time>2026-05-05T08:51:41.755Z</time></trkpt><trkpt lat="37.1455489" lon="10.0638043"><ele>41.8</ele><time>2026-05-05T08:51:42.743Z</time></trkpt><trkpt lat="37.1454429" lon="10.0638173"><ele>41.6</ele><time>2026-05-05T08:51:43.736Z</time></trkpt><trkpt lat="37.1453498" lon="10.0638392"><ele>41.4</ele><time>2026-05-05T08:51:44.742Z</time></trkpt><trkpt lat="37.1452484" lon="10.0638559"><ele>41.199999999999996</ele><time>2026-05-05T08:51:45.712Z</time></trkpt><trkpt lat="37.1451379" lon="10.0638889"><ele>41.0</ele><time>2026-05-05T08:51:46.739Z</time></trkpt><trkpt lat="37.1450302" lon="10.0639477"><ele>41.0</ele><time>2026-05-05T08:51:47.74Z</time></trkpt><trkpt lat="37.1449237" lon="10.0640329"><ele>41.0</ele><time>2026-05-05T08:51:48.73Z</time></trkpt><trkpt lat="37.144817" lon="10.0641321"><ele>41.0</ele><time>2026-05-05T08:51:49.722Z</time></trkpt><trkpt lat="37.1447085" lon="10.0642512"><ele>41.0</ele><time>2026-05-05T08:51:50.736Z</time></trkpt><trkpt lat="37.1445977" lon="10.0643946"><ele>40.33333333333333</ele><time>2026-05-05T08:51:51.721Z</time></trkpt><trkpt lat="37.1444868" lon="10.064528"><ele>39.666666666666664</ele><time>2026-05-05T08:51:52.717Z</time></trkpt><trkpt lat="37.1443739" lon="10.0646646"><ele>39.0</ele><time>2026-05-05T08:51:53.729Z</time></trkpt><trkpt lat="37.1442613" lon="10.064803"><ele>39.0</ele><time>2026-05-05T08:51:54.693Z</time></trkpt><trkpt lat="37.1441489" lon="10.064943"><ele>39.0</ele><time>2026-05-05T08:51:55.737Z</time></trkpt><trkpt lat="37.1440324" lon="10.065087"><ele>39.0</ele><time>2026-05-05T08:51:56.741Z</time></trkpt><trkpt lat="37.1439152" lon="10.0652276"><ele>38.333333333333336</ele><time>2026-05-05T08:51:57.738Z</time></trkpt><trkpt lat="37.1438015" lon="10.0653705"><ele>37.66666666666667</ele><time>2026-05-05T08:51:58.739Z</time></trkpt><trkpt lat="37.1436809" lon="10.0655136"><ele>37.0</ele><time>2026-05-05T08:51:59.735Z</time></trkpt><trkpt lat="37.1435584" lon="10.0656597"><ele>36.0</ele><time>2026-05-05T08:52:00.735Z</time></trkpt><trkpt lat="37.1434409" lon="10.0658014"><ele>35.0</ele><time>2026-05-05T08:52:01.736Z</time></trkpt><trkpt lat="37.143322" lon="10.0659415"><ele>34.0</ele><time>2026-05-05T08:52:02.718Z</time></trkpt><trkpt lat="37.1432053" lon="10.0660768"><ele>33.66666666666667</ele><time>2026-05-05T08:52:03.716Z</time></trkpt><trkpt lat="37.1430896" lon="10.0662164"><ele>33.333333333333336</ele><time>2026-05-05T08:52:04.737Z</time></trkpt><trkpt lat="37.142972" lon="10.0663568"><ele>33.0</ele><time>2026-05-05T08:52:05.736Z</time></trkpt><trkpt lat="37.1428544" lon="10.0664965"><ele>32.666666666666664</ele><time>2026-05-05T08:52:06.742Z</time></trkpt><trkpt lat="37.1427377" lon="10.0666334"><ele>32.33333333333333</ele><time>2026-05-05T08:52:07.732Z</time></trkpt><trkpt lat="37.1426183" lon="10.0667719"><ele>32.0</ele><time>2026-05-05T08:52:08.743Z</time></trkpt><trkpt lat="37.1424984" lon="10.0669116"><ele>31.0</ele><time>2026-05-05T08:52:09.73Z</time></trkpt><trkpt lat="37.1423792" lon="10.0670612"><ele>30.0</ele><time>2026-05-05T08:52:10.758Z</time></trkpt><trkpt lat="37.1422671" lon="10.0672013"><ele>29.0</ele><time>2026-05-05T08:52:11.736Z</time></trkpt><trkpt lat="37.1421486" lon="10.0673385"><ele>29.0</ele><time>2026-05-05T08:52:12.722Z</time></trkpt><trkpt lat="37.1420299" lon="10.0674785"><ele>29.0</ele><time>2026-05-05T08:52:13.733Z</time></trkpt><trkpt lat="37.1419059" lon="10.0676277"><ele>29.0</ele><time>2026-05-05T08:52:14.726Z</time></trkpt><trkpt lat="37.1417835" lon="10.0677742"><ele>29.0</ele><time>2026-05-05T08:52:15.739Z</time></trkpt><trkpt lat="37.1416619" lon="10.0679205"><ele>29.0</ele><time>2026-05-05T08:52:16.743Z</time></trkpt><trkpt lat="37.1415429" lon="10.0680639"><ele>29.0</ele><time>2026-05-05T08:52:17.743Z</time></trkpt><trkpt lat="37.1414233" lon="10.0682081"><ele>28.0</ele><time>2026-05-05T08:52:18.75Z</time></trkpt><trkpt lat="37.1413016" lon="10.0683542"><ele>27.0</ele><time>2026-05-05T08:52:19.733Z</time></trkpt><trkpt lat="37.1411846" lon="10.0684989"><ele>26.0</ele><time>2026-05-05T08:52:20.738Z</time></trkpt><trkpt lat="37.1410638" lon="10.068646"><ele>26.0</ele><time>2026-05-05T08:52:21.747Z</time></trkpt><trkpt lat="37.1409387" lon="10.068792"><ele>26.0</ele><time>2026-05-05T08:52:22.736Z</time></trkpt><trkpt lat="37.1408135" lon="10.0689447"><ele>26.0</ele><time>2026-05-05T08:52:23.749Z</time></trkpt><trkpt lat="37.1406897" lon="10.0690936"><ele>25.666666666666664</ele><time>2026-05-05T08:52:24.732Z</time></trkpt><trkpt lat="37.1405641" lon="10.069249"><ele>25.333333333333336</ele><time>2026-05-05T08:52:25.751Z</time></trkpt><trkpt lat="37.1404373" lon="10.0694017"><ele>25.0</ele><time>2026-05-05T08:52:26.719Z</time></trkpt><trkpt lat="37.1403109" lon="10.0695492"><ele>25.0</ele><time>2026-05-05T08:52:27.738Z</time></trkpt><trkpt lat="37.1401819" lon="10.0697069"><ele>25.0</ele><time>2026-05-05T08:52:28.746Z</time></trkpt><trkpt lat="37.1400542" lon="10.0698534"><ele>25.0</ele><time>2026-05-05T08:52:29.742Z</time></trkpt><trkpt lat="37.1399287" lon="10.0700047"><ele>23.666666666666668</ele><time>2026-05-05T08:52:30.746Z</time></trkpt><trkpt lat="37.1398037" lon="10.0701568"><ele>22.333333333333336</ele><time>2026-05-05T08:52:31.74Z</time></trkpt><trkpt lat="37.1396773" lon="10.0703077"><ele>21.0</ele><time>2026-05-05T08:52:32.732Z</time></trkpt><trkpt lat="37.139556" lon="10.0704665"><ele>21.0</ele><time>2026-05-05T08:52:33.738Z</time></trkpt><trkpt lat="37.1394331" lon="10.070617"><ele>21.0</ele><time>2026-05-05T08:52:34.723Z</time></trkpt><trkpt lat="37.1393049" lon="10.0707744"><ele>21.0</ele><time>2026-05-05T08:52:35.732Z</time></trkpt><trkpt lat="37.1391791" lon="10.0709295"><ele>20.666666666666668</ele><time>2026-05-05T08:52:36.74Z</time></trkpt><trkpt lat="37.1390512" lon="10.07109"><ele>20.333333333333336</ele><time>2026-05-05T08:52:37.738Z</time></trkpt><trkpt lat="37.1389159" lon="10.0712573"><ele>20.0</ele><time>2026-05-05T08:52:38.729Z</time></trkpt><trkpt lat="37.1387814" lon="10.0714304"><ele>19.666666666666668</ele><time>2026-05-05T08:52:39.73Z</time></trkpt><trkpt lat="37.1386384" lon="10.0716064"><ele>19.333333333333332</ele><time>2026-05-05T08:52:40.724Z</time></trkpt><trkpt lat="37.1384979" lon="10.0717827"><ele>19.0</ele><time>2026-05-05T08:52:41.753Z</time></trkpt><trkpt lat="37.1383561" lon="10.0719559"><ele>18.666666666666664</ele><time>2026-05-05T08:52:42.737Z</time></trkpt><trkpt lat="37.1382186" lon="10.0721375"><ele>18.333333333333332</ele><time>2026-05-05T08:52:43.707Z</time></trkpt><trkpt lat="37.1380806" lon="10.0723057"><ele>18.0</ele><time>2026-05-05T08:52:44.726Z</time></trkpt><trkpt lat="37.1379434" lon="10.0724728"><ele>17.666666666666668</ele><time>2026-05-05T08:52:45.731Z</time></trkpt><trkpt lat="37.1378115" lon="10.0726335"><ele>17.333333333333336</ele><time>2026-05-05T08:52:46.738Z</time></trkpt><trkpt lat="37.1376901" lon="10.0727925"><ele>17.0</ele><time>2026-05-05T08:52:47.744Z</time></trkpt><trkpt lat="37.1375574" lon="10.0729331"><ele>17.0</ele><time>2026-05-05T08:52:48.729Z</time></trkpt><trkpt lat="37.1374122" lon="10.073067"><ele>17.0</ele><time>2026-05-05T08:52:49.708Z</time></trkpt><trkpt lat="37.137266" lon="10.0731914"><ele>17.0</ele><time>2026-05-05T08:52:50.73Z</time></trkpt><trkpt lat="37.1371187" lon="10.0733108"><ele>17.0</ele><time>2026-05-05T08:52:51.736Z</time></trkpt><trkpt lat="37.1369753" lon="10.0734244"><ele>17.0</ele><time>2026-05-05T08:52:52.754Z</time></trkpt><trkpt lat="37.1368353" lon="10.0735379"><ele>17.0</ele><time>2026-05-05T08:52:53.742Z</time></trkpt><trkpt lat="37.1367003" lon="10.073648"><ele>17.0</ele><time>2026-05-05T08:52:54.74Z</time></trkpt><trkpt lat="37.1365605" lon="10.0737573"><ele>17.0</ele><time>2026-05-05T08:52:55.745Z</time></trkpt><trkpt lat="37.1364284" lon="10.0738637"><ele>17.0</ele><time>2026-05-05T08:52:56.701Z</time></trkpt><trkpt lat="37.1362978" lon="10.0739755"><ele>16.333333333333336</ele><time>2026-05-05T08:52:57.746Z</time></trkpt><trkpt lat="37.136169" lon="10.0740834"><ele>15.666666666666668</ele><time>2026-05-05T08:52:58.751Z</time></trkpt><trkpt lat="37.1360356" lon="10.0741958"><ele>15.0</ele><time>2026-05-05T08:52:59.737Z</time></trkpt><trkpt lat="37.1359036" lon="10.0743075"><ele>15.0</ele><time>2026-05-05T08:53:00.735Z</time></trkpt><trkpt lat="37.1357735" lon="10.0744202"><ele>15.0</ele><time>2026-05-05T08:53:01.728Z</time></trkpt><trkpt lat="37.1356468" lon="10.0745399"><ele>15.0</ele><time>2026-05-05T08:53:02.755Z</time></trkpt><trkpt lat="37.1355237" lon="10.0746589"><ele>14.333333333333332</ele><time>2026-05-05T08:53:03.731Z</time></trkpt><trkpt lat="37.1354003" lon="10.0747809"><ele>13.666666666666666</ele><time>2026-05-05T08:53:04.727Z</time></trkpt><trkpt lat="37.1352745" lon="10.0749124"><ele>13.0</ele><time>2026-05-05T08:53:05.742Z</time></trkpt><trkpt lat="37.1351479" lon="10.0750456"><ele>12.666666666666666</ele><time>2026-05-05T08:53:06.705Z</time></trkpt><trkpt lat="37.1350184" lon="10.075168"><ele>12.333333333333332</ele><time>2026-05-05T08:53:07.729Z</time></trkpt><trkpt lat="37.1348839" lon="10.0752898"><ele>12.0</ele><time>2026-05-05T08:53:08.734Z</time></trkpt><trkpt lat="37.1347497" lon="10.0754134"><ele>12.0</ele><time>2026-05-05T08:53:09.711Z</time></trkpt><trkpt lat="37.1346213" lon="10.0755465"><ele>12.0</ele><time>2026-05-05T08:53:10.745Z</time></trkpt><trkpt lat="37.134492" lon="10.0756786"><ele>12.0</ele><time>2026-05-05T08:53:11.739Z</time></trkpt><trkpt lat="37.1343625" lon="10.0758145"><ele>12.0</ele><time>2026-05-05T08:53:12.744Z</time></trkpt><trkpt lat="37.1342337" lon="10.0759509"><ele>12.0</ele><time>2026-05-05T08:53:13.743Z</time></trkpt><trkpt lat="37.1341077" lon="10.0760793"><ele>12.0</ele><time>2026-05-05T08:53:14.739Z</time></trkpt><trkpt lat="37.1339769" lon="10.0762063"><ele>12.0</ele><time>2026-05-05T08:53:15.729Z</time></trkpt><trkpt lat="37.1338518" lon="10.0763304"><ele>12.0</ele><time>2026-05-05T08:53:16.717Z</time></trkpt><trkpt lat="37.133721" lon="10.076461"><ele>12.0</ele><time>2026-05-05T08:53:17.729Z</time></trkpt><trkpt lat="37.1335907" lon="10.0765845"><ele>11.0</ele><time>2026-05-05T08:53:18.731Z</time></trkpt><trkpt lat="37.1334592" lon="10.0767006"><ele>10.0</ele><time>2026-05-05T08:53:19.731Z</time></trkpt><trkpt lat="37.133319" lon="10.0768078"><ele>9.0</ele><time>2026-05-05T08:53:20.736Z</time></trkpt><trkpt lat="37.133184" lon="10.0769001"><ele>9.0</ele><time>2026-05-05T08:53:21.747Z</time></trkpt><trkpt lat="37.1330387" lon="10.0769982"><ele>9.0</ele><time>2026-05-05T08:53:22.694Z</time></trkpt><trkpt lat="37.1328945" lon="10.0771011"><ele>9.0</ele><time>2026-05-05T08:53:23.749Z</time></trkpt><trkpt lat="37.1327584" lon="10.0771928"><ele>9.0</ele><time>2026-05-05T08:53:24.743Z</time></trkpt><trkpt lat="37.1326279" lon="10.0772904"><ele>9.0</ele><time>2026-05-05T08:53:25.725Z</time></trkpt><trkpt lat="37.1325004" lon="10.0773791"><ele>9.0</ele><time>2026-05-05T08:53:26.735Z</time></trkpt><trkpt lat="37.1323786" lon="10.0774682"><ele>9.0</ele><time>2026-05-05T08:53:27.73Z</time></trkpt><trkpt lat="37.1322552" lon="10.077548"><ele>8.75</ele><time>2026-05-05T08:53:28.735Z</time></trkpt><trkpt lat="37.1321342" lon="10.0776317"><ele>8.5</ele><time>2026-05-05T08:53:29.731Z</time></trkpt><trkpt lat="37.1320171" lon="10.0777287"><ele>8.25</ele><time>2026-05-05T08:53:30.698Z</time></trkpt><trkpt lat="37.1318961" lon="10.0778249"><ele>8.0</ele><time>2026-05-05T08:53:31.738Z</time></trkpt><trkpt lat="37.1317718" lon="10.0779282"><ele>8.0</ele><time>2026-05-05T08:53:32.692Z</time></trkpt><trkpt lat="37.1316617" lon="10.0780252"><ele>8.0</ele><time>2026-05-05T08:53:33.74Z</time></trkpt><trkpt lat="37.1315532" lon="10.0781171"><ele>8.0</ele><time>2026-05-05T08:53:34.698Z</time></trkpt><trkpt lat="37.1314567" lon="10.0782044"><ele>8.0</ele><time>2026-05-05T08:53:35.717Z</time></trkpt><trkpt lat="37.1313661" lon="10.0782898"><ele>7.999999999999999</ele><time>2026-05-05T08:53:36.737Z</time></trkpt><trkpt lat="37.1312858" lon="10.0783632"><ele>8.0</ele><time>2026-05-05T08:53:37.744Z</time></trkpt><trkpt lat="37.1312148" lon="10.0784356"><ele>8.0</ele><time>2026-05-05T08:53:38.735Z</time></trkpt><trkpt lat="37.1311527" lon="10.0785036"><ele>8.0</ele><time>2026-05-05T08:53:39.727Z</time></trkpt><trkpt lat="37.1310822" lon="10.0785468"><ele>7.999999999999999</ele><time>2026-05-05T08:53:40.697Z</time></trkpt><trkpt lat="37.1310196" lon="10.0785754"><ele>8.0</ele><time>2026-05-05T08:53:41.741Z</time></trkpt><trkpt lat="37.1309523" lon="10.07858"><ele>7.999999999999999</ele><time>2026-05-05T08:53:42.743Z</time></trkpt><trkpt lat="37.130881" lon="10.078578"><ele>8.0</ele><time>2026-05-05T08:53:43.731Z</time></trkpt><trkpt lat="37.1308077" lon="10.0785865"><ele>8.0</ele><time>2026-05-05T08:53:44.738Z</time></trkpt><trkpt lat="37.1307398" lon="10.0786253"><ele>8.0</ele><time>2026-05-05T08:53:45.74Z</time></trkpt><trkpt lat="37.1306828" lon="10.0786927"><ele>7.999999999999999</ele><time>2026-05-05T08:53:46.723Z</time></trkpt><trkpt lat="37.1306276" lon="10.0787864"><ele>8.0</ele><time>2026-05-05T08:53:47.745Z</time></trkpt><trkpt lat="37.130562" lon="10.0788919"><ele>7.75</ele><time>2026-05-05T08:53:48.739Z</time></trkpt><trkpt lat="37.1304775" lon="10.0789848"><ele>7.5</ele><time>2026-05-05T08:53:49.739Z</time></trkpt><trkpt lat="37.1303798" lon="10.0790706"><ele>7.25</ele><time>2026-05-05T08:53:50.739Z</time></trkpt><trkpt lat="37.1302929" lon="10.0791589"><ele>7.0</ele><time>2026-05-05T08:53:51.737Z</time></trkpt><trkpt lat="37.1302019" lon="10.0792764"><ele>6.75</ele><time>2026-05-05T08:53:52.737Z</time></trkpt><trkpt lat="37.1301183" lon="10.0793946"><ele>6.5</ele><time>2026-05-05T08:53:53.744Z</time></trkpt><trkpt lat="37.1300375" lon="10.0795275"><ele>6.25</ele><time>2026-05-05T08:53:54.741Z</time></trkpt><trkpt lat="37.1299361" lon="10.0796655"><ele>6.0</ele><time>2026-05-05T08:53:55.736Z</time></trkpt><trkpt lat="37.1298324" lon="10.0798052"><ele>5.333333333333333</ele><time>2026-05-05T08:53:56.749Z</time></trkpt><trkpt lat="37.1297194" lon="10.0799421"><ele>4.666666666666666</ele><time>2026-05-05T08:53:57.748Z</time></trkpt><trkpt lat="37.129604" lon="10.0800705"><ele>4.0</ele><time>2026-05-05T08:53:58.726Z</time></trkpt><trkpt lat="37.1294868" lon="10.0801977"><ele>4.0</ele><time>2026-05-05T08:53:59.734Z</time></trkpt><trkpt lat="37.1293708" lon="10.0803202"><ele>4.0</ele><time>2026-05-05T08:54:00.715Z</time></trkpt><trkpt lat="37.1292494" lon="10.0804381"><ele>4.0</ele><time>2026-05-05T08:54:01.736Z</time></trkpt><trkpt lat="37.1291255" lon="10.0805579"><ele>4.0</ele><time>2026-05-05T08:54:02.735Z</time></trkpt><trkpt lat="37.1290094" lon="10.0806781"><ele>4.0</ele><time>2026-05-05T08:54:03.728Z</time></trkpt><trkpt lat="37.1288934" lon="10.0808026"><ele>4.0</ele><time>2026-05-05T08:54:04.741Z</time></trkpt><trkpt lat="37.1287736" lon="10.0809208"><ele>4.0</ele><time>2026-05-05T08:54:05.685Z</time></trkpt><trkpt lat="37.1286517" lon="10.081044"><ele>4.0</ele><time>2026-05-05T08:54:06.696Z</time></trkpt><trkpt lat="37.1285308" lon="10.0811724"><ele>4.0</ele><time>2026-05-05T08:54:07.692Z</time></trkpt><trkpt lat="37.1284068" lon="10.0812966"><ele>4.0</ele><time>2026-05-05T08:54:08.709Z</time></trkpt><trkpt lat="37.1282833" lon="10.0814296"><ele>4.0</ele><time>2026-05-05T08:54:09.744Z</time></trkpt><trkpt lat="37.1281584" lon="10.0815583"><ele>4.0</ele><time>2026-05-05T08:54:10.738Z</time></trkpt><trkpt lat="37.1280321" lon="10.0816897"><ele>3.0</ele><time>2026-05-05T08:54:11.718Z</time></trkpt><trkpt lat="37.1279047" lon="10.0818266"><ele>2.0</ele><time>2026-05-05T08:54:12.733Z</time></trkpt><trkpt lat="37.1277763" lon="10.0819592"><ele>1.0</ele><time>2026-05-05T08:54:13.741Z</time></trkpt><trkpt lat="37.1276475" lon="10.08209"><ele>1.0</ele><time>2026-05-05T08:54:14.738Z</time></trkpt><trkpt lat="37.1275161" lon="10.0822195"><ele>1.0</ele><time>2026-05-05T08:54:15.725Z</time></trkpt><trkpt lat="37.1273892" lon="10.0823463"><ele>1.0</ele><time>2026-05-05T08:54:16.721Z</time></trkpt><trkpt lat="37.1272573" lon="10.0824786"><ele>1.3333333333333333</ele><time>2026-05-05T08:54:17.735Z</time></trkpt><trkpt lat="37.1271282" lon="10.0826171"><ele>1.6666666666666665</ele><time>2026-05-05T08:54:18.755Z</time></trkpt><trkpt lat="37.1269973" lon="10.0827492"><ele>2.0</ele><time>2026-05-05T08:54:19.736Z</time></trkpt><trkpt lat="37.1268676" lon="10.0828778"><ele>2.0</ele><time>2026-05-05T08:54:20.733Z</time></trkpt><trkpt lat="37.1267358" lon="10.0830082"><ele>2.0</ele><time>2026-05-05T08:54:21.749Z</time></trkpt><trkpt lat="37.126607" lon="10.0831341"><ele>2.0</ele><time>2026-05-05T08:54:22.705Z</time></trkpt><trkpt lat="37.1264759" lon="10.083254"><ele>2.0</ele><time>2026-05-05T08:54:23.752Z</time></trkpt><trkpt lat="37.1263401" lon="10.0833579"><ele>2.0</ele><time>2026-05-05T08:54:24.754Z</time></trkpt><trkpt lat="37.1261953" lon="10.0834199"><ele>2.0</ele><time>2026-05-05T08:54:25.744Z</time></trkpt><trkpt lat="37.126048" lon="10.0834568"><ele>2.0</ele><time>2026-05-05T08:54:26.74Z</time></trkpt><trkpt lat="37.1258937" lon="10.0834713"><ele>2.0</ele><time>2026-05-05T08:54:27.693Z</time></trkpt><trkpt lat="37.1257344" lon="10.0834704"><ele>2.0</ele><time>2026-05-05T08:54:28.76Z</time></trkpt><trkpt lat="37.1255668" lon="10.0834485"><ele>1.3333333333333333</ele><time>2026-05-05T08:54:29.73Z</time></trkpt><trkpt lat="37.1253997" lon="10.0834329"><ele>0.6666666666666666</ele><time>2026-05-05T08:54:30.748Z</time></trkpt><trkpt lat="37.1252319" lon="10.0834144"><ele>0.0</ele><time>2026-05-05T08:54:31.741Z</time></trkpt><trkpt lat="37.1250596" lon="10.0833976"><ele>1.0</ele><time>2026-05-05T08:54:32.742Z</time></trkpt><trkpt lat="37.1248887" lon="10.0833763"><ele>2.0</ele><time>2026-05-05T08:54:33.739Z</time></trkpt><trkpt lat="37.1247157" lon="10.0833578"><ele>3.0</ele><time>2026-05-05T08:54:34.727Z</time></trkpt><trkpt lat="37.1245419" lon="10.0833406"><ele>3.0</ele><time>2026-05-05T08:54:35.741Z</time></trkpt><trkpt lat="37.1243707" lon="10.0833166"><ele>3.0</ele><time>2026-05-05T08:54:36.728Z</time></trkpt><trkpt lat="37.1241922" lon="10.083299"><ele>3.0</ele><time>2026-05-05T08:54:37.731Z</time></trkpt><trkpt lat="37.1240132" lon="10.0832762"><ele>2.3333333333333335</ele><time>2026-05-05T08:54:38.722Z</time></trkpt><trkpt lat="37.1238327" lon="10.0832542"><ele>1.6666666666666665</ele><time>2026-05-05T08:54:39.711Z</time></trkpt><trkpt lat="37.1236571" lon="10.0832346"><ele>1.0</ele><time>2026-05-05T08:54:40.755Z</time></trkpt><trkpt lat="37.1234767" lon="10.0832146"><ele>1.0</ele><time>2026-05-05T08:54:41.727Z</time></trkpt><trkpt lat="37.1232964" lon="10.0831897"><ele>1.0</ele><time>2026-05-05T08:54:42.757Z</time></trkpt><trkpt lat="37.1231154" lon="10.083161"><ele>1.0</ele><time>2026-05-05T08:54:43.738Z</time></trkpt><trkpt lat="37.1229332" lon="10.0831386"><ele>1.0</ele><time>2026-05-05T08:54:44.738Z</time></trkpt><trkpt lat="37.1227581" lon="10.0831152"><ele>1.0</ele><time>2026-05-05T08:54:45.74Z</time></trkpt><trkpt lat="37.1225859" lon="10.0830912"><ele>1.0</ele><time>2026-05-05T08:54:46.692Z</time></trkpt><trkpt lat="37.1224118" lon="10.0830697"><ele>0.6666666666666666</ele><time>2026-05-05T08:54:47.716Z</time></trkpt><trkpt lat="37.1222446" lon="10.083041"><ele>0.3333333333333333</ele><time>2026-05-05T08:54:48.731Z</time></trkpt><trkpt lat="37.1220757" lon="10.0830186"><ele>0.0</ele><time>2026-05-05T08:54:49.737Z</time></trkpt><trkpt lat="37.121911" lon="10.0829989"><ele>0.0</ele><time>2026-05-05T08:54:50.732Z</time></trkpt><trkpt lat="37.1217458" lon="10.0829751"><ele>0.0</ele><time>2026-05-05T08:54:51.715Z</time></trkpt><trkpt lat="37.1215852" lon="10.0829543"><ele>0.0</ele><time>2026-05-05T08:54:52.722Z</time></trkpt><trkpt lat="37.1214171" lon="10.0829297"><ele>-0.3333333333333333</ele><time>2026-05-05T08:54:53.721Z</time></trkpt><trkpt lat="37.1212541" lon="10.0829027"><ele>-0.6666666666666666</ele><time>2026-05-05T08:54:54.711Z</time></trkpt><trkpt lat="37.1210875" lon="10.082879"><ele>-1.0</ele><time>2026-05-05T08:54:55.723Z</time></trkpt><trkpt lat="37.1209204" lon="10.082858"><ele>-1.0</ele><time>2026-05-05T08:54:56.726Z</time></trkpt><trkpt lat="37.1207483" lon="10.0828336"><ele>-1.0</ele><time>2026-05-05T08:54:57.739Z</time></trkpt><trkpt lat="37.1205752" lon="10.0828093"><ele>-1.0</ele><time>2026-05-05T08:54:58.729Z</time></trkpt><trkpt lat="37.1204042" lon="10.0827814"><ele>-1.0</ele><time>2026-05-05T08:54:59.742Z</time></trkpt><trkpt lat="37.1202318" lon="10.0827595"><ele>-1.0</ele><time>2026-05-05T08:55:00.709Z</time></trkpt><trkpt lat="37.1200615" lon="10.0827384"><ele>-1.0</ele><time>2026-05-05T08:55:01.725Z</time></trkpt><trkpt lat="37.1198793" lon="10.0827183"><ele>-0.6666666666666666</ele><time>2026-05-05T08:55:02.712Z</time></trkpt><trkpt lat="37.1197002" lon="10.0826987"><ele>-0.3333333333333333</ele><time>2026-05-05T08:55:03.738Z</time></trkpt><trkpt lat="37.1195201" lon="10.0826719"><ele>0.0</ele><time>2026-05-05T08:55:04.746Z</time></trkpt><trkpt lat="37.1193439" lon="10.0826429"><ele>0.0</ele><time>2026-05-05T08:55:05.707Z</time></trkpt><trkpt lat="37.119161" lon="10.0826178"><ele>0.0</ele><time>2026-05-05T08:55:06.755Z</time></trkpt><trkpt lat="37.1189834" lon="10.0825971"><ele>0.0</ele><time>2026-05-05T08:55:07.727Z</time></trkpt><trkpt lat="37.118801" lon="10.082571"><ele>0.6666666666666666</ele><time>2026-05-05T08:55:08.742Z</time></trkpt><trkpt lat="37.1186205" lon="10.0825445"><ele>1.3333333333333333</ele><time>2026-05-05T08:55:09.736Z</time></trkpt><trkpt lat="37.1184389" lon="10.0825198"><ele>2.0</ele><time>2026-05-05T08:55:10.742Z</time></trkpt><trkpt lat="37.1182595" lon="10.0824923"><ele>2.0</ele><time>2026-05-05T08:55:11.743Z</time></trkpt><trkpt lat="37.1180822" lon="10.0824668"><ele>2.0</ele><time>2026-05-05T08:55:12.735Z</time></trkpt><trkpt lat="37.1179033" lon="10.0824441"><ele>2.0</ele><time>2026-05-05T08:55:13.744Z</time></trkpt><trkpt lat="37.1177217" lon="10.0824188"><ele>2.0</ele><time>2026-05-05T08:55:14.735Z</time></trkpt><trkpt lat="37.1175374" lon="10.0823929"><ele>2.0</ele><time>2026-05-05T08:55:15.744Z</time></trkpt><trkpt lat="37.1173527" lon="10.0823675"><ele>2.0</ele><time>2026-05-05T08:55:16.727Z</time></trkpt><trkpt lat="37.1171731" lon="10.0823438"><ele>2.0</ele><time>2026-05-05T08:55:17.737Z</time></trkpt><trkpt lat="37.1169921" lon="10.0823167"><ele>2.0</ele><time>2026-05-05T08:55:18.699Z</time></trkpt><trkpt lat="37.1168123" lon="10.0822954"><ele>2.0</ele><time>2026-05-05T08:55:19.739Z</time></trkpt><trkpt lat="37.11663" lon="10.0822762"><ele>1.3333333333333333</ele><time>2026-05-05T08:55:20.733Z</time></trkpt><trkpt lat="37.1164513" lon="10.0822535"><ele>0.6666666666666666</ele><time>2026-05-05T08:55:21.735Z</time></trkpt><trkpt lat="37.1162746" lon="10.0822305"><ele>0.0</ele><time>2026-05-05T08:55:22.741Z</time></trkpt><trkpt lat="37.1161052" lon="10.0822102"><ele>0.0</ele><time>2026-05-05T08:55:23.743Z</time></trkpt><trkpt lat="37.1159425" lon="10.0821862"><ele>0.0</ele><time>2026-05-05T08:55:24.738Z</time></trkpt><trkpt lat="37.1157814" lon="10.0821657"><ele>0.0</ele><time>2026-05-05T08:55:25.749Z</time></trkpt><trkpt lat="37.115613" lon="10.0821423"><ele>0.3333333333333333</ele><time>2026-05-05T08:55:26.727Z</time></trkpt><trkpt lat="37.1154463" lon="10.0821188"><ele>0.6666666666666666</ele><time>2026-05-05T08:55:27.729Z</time></trkpt><trkpt lat="37.1152773" lon="10.0820965"><ele>1.0</ele><time>2026-05-05T08:55:28.735Z</time></trkpt><trkpt lat="37.115107" lon="10.0820709"><ele>1.0</ele><time>2026-05-05T08:55:29.74Z</time></trkpt><trkpt lat="37.1149299" lon="10.0820471"><ele>1.0</ele><time>2026-05-05T08:55:30.75Z</time></trkpt><trkpt lat="37.1147547" lon="10.0820273"><ele>1.0</ele><time>2026-05-05T08:55:31.735Z</time></trkpt><trkpt lat="37.1145777" lon="10.0820053"><ele>1.0</ele><time>2026-05-05T08:55:32.734Z</time></trkpt><trkpt lat="37.1144023" lon="10.0819871"><ele>1.0</ele><time>2026-05-05T08:55:33.709Z</time></trkpt><trkpt lat="37.11423" lon="10.0819646"><ele>1.0</ele><time>2026-05-05T08:55:34.705Z</time></trkpt><trkpt lat="37.1140584" lon="10.0819432"><ele>1.0</ele><time>2026-05-05T08:55:35.742Z</time></trkpt><trkpt lat="37.1138874" lon="10.0819229"><ele>1.0</ele><time>2026-05-05T08:55:36.739Z</time></trkpt><trkpt lat="37.1137204" lon="10.08191"><ele>1.0</ele><time>2026-05-05T08:55:37.743Z</time></trkpt><trkpt lat="37.1135592" lon="10.0819027"><ele>1.0</ele><time>2026-05-05T08:55:38.753Z</time></trkpt><trkpt lat="37.113394" lon="10.0818969"><ele>1.0</ele><time>2026-05-05T08:55:39.741Z</time></trkpt><trkpt lat="37.11323" lon="10.0819048"><ele>1.0</ele><time>2026-05-05T08:55:40.748Z</time></trkpt><trkpt lat="37.1130669" lon="10.0819194"><ele>1.0</ele><time>2026-05-05T08:55:41.729Z</time></trkpt><trkpt lat="37.112906" lon="10.0819419"><ele>1.0</ele><time>2026-05-05T08:55:42.739Z</time></trkpt><trkpt lat="37.1127427" lon="10.0819745"><ele>1.0</ele><time>2026-05-05T08:55:43.747Z</time></trkpt><trkpt lat="37.1125826" lon="10.0820249"><ele>1.0</ele><time>2026-05-05T08:55:44.738Z</time></trkpt><trkpt lat="37.1124259" lon="10.0820733"><ele>1.0</ele><time>2026-05-05T08:55:45.728Z</time></trkpt><trkpt lat="37.1122676" lon="10.0821353"><ele>1.0</ele><time>2026-05-05T08:55:46.743Z</time></trkpt><trkpt lat="37.1121208" lon="10.0822056"><ele>1.0</ele><time>2026-05-05T08:55:47.739Z</time></trkpt><trkpt lat="37.1119725" lon="10.0822776"><ele>1.0</ele><time>2026-05-05T08:55:48.747Z</time></trkpt><trkpt lat="37.1118269" lon="10.0823568"><ele>1.0</ele><time>2026-05-05T08:55:49.7Z</time></trkpt><trkpt lat="37.1116831" lon="10.0824454"><ele>1.3333333333333333</ele><time>2026-05-05T08:55:50.687Z</time></trkpt><trkpt lat="37.1115455" lon="10.0825337"><ele>1.6666666666666665</ele><time>2026-05-05T08:55:51.718Z</time></trkpt><trkpt lat="37.1114108" lon="10.0826344"><ele>2.0</ele><time>2026-05-05T08:55:52.733Z</time></trkpt><trkpt lat="37.111277" lon="10.0827369"><ele>2.0</ele><time>2026-05-05T08:55:53.751Z</time></trkpt><trkpt lat="37.1111459" lon="10.0828485"><ele>2.0</ele><time>2026-05-05T08:55:54.734Z</time></trkpt><trkpt lat="37.1110176" lon="10.082969"><ele>2.0</ele><time>2026-05-05T08:55:55.755Z</time></trkpt><trkpt lat="37.1108908" lon="10.0830944"><ele>2.0</ele><time>2026-05-05T08:55:56.741Z</time></trkpt><trkpt lat="37.1107646" lon="10.0832331"><ele>2.0</ele><time>2026-05-05T08:55:57.73Z</time></trkpt><trkpt lat="37.1106364" lon="10.0833704"><ele>2.0</ele><time>2026-05-05T08:55:58.729Z</time></trkpt><trkpt lat="37.1105082" lon="10.0835092"><ele>1.6666666666666665</ele><time>2026-05-05T08:55:59.74Z</time></trkpt><trkpt lat="37.1103824" lon="10.0836491"><ele>1.3333333333333333</ele><time>2026-05-05T08:56:00.743Z</time></trkpt><trkpt lat="37.1102587" lon="10.0837902"><ele>1.0</ele><time>2026-05-05T08:56:01.74Z</time></trkpt><trkpt lat="37.1101335" lon="10.0839314"><ele>1.0</ele><time>2026-05-05T08:56:02.734Z</time></trkpt><trkpt lat="37.1100113" lon="10.0840675"><ele>1.0</ele><time>2026-05-05T08:56:03.719Z</time></trkpt><trkpt lat="37.109893" lon="10.0842025"><ele>1.0</ele><time>2026-05-05T08:56:04.717Z</time></trkpt><trkpt lat="37.1097767" lon="10.0843362"><ele>1.6666666666666665</ele><time>2026-05-05T08:56:05.71Z</time></trkpt><trkpt lat="37.1096631" lon="10.0844607"><ele>2.3333333333333335</ele><time>2026-05-05T08:56:06.698Z</time></trkpt><trkpt lat="37.1095478" lon="10.0845826"><ele>3.0</ele><time>2026-05-05T08:56:07.719Z</time></trkpt><trkpt lat="37.109436" lon="10.084712"><ele>3.0</ele><time>2026-05-05T08:56:08.735Z</time></trkpt><trkpt lat="37.1093257" lon="10.0848384"><ele>3.0</ele><time>2026-05-05T08:56:09.732Z</time></trkpt><trkpt lat="37.1092156" lon="10.0849607"><ele>3.0</ele><time>2026-05-05T08:56:10.742Z</time></trkpt><trkpt lat="37.1091116" lon="10.0850885"><ele>3.0</ele><time>2026-05-05T08:56:11.738Z</time></trkpt><trkpt lat="37.1090057" lon="10.0852102"><ele>2.75</ele><time>2026-05-05T08:56:12.734Z</time></trkpt><trkpt lat="37.1089025" lon="10.0853368"><ele>2.5</ele><time>2026-05-05T08:56:13.732Z</time></trkpt><trkpt lat="37.1087909" lon="10.0854642"><ele>2.25</ele><time>2026-05-05T08:56:14.72Z</time></trkpt><trkpt lat="37.1086859" lon="10.0855861"><ele>2.0</ele><time>2026-05-05T08:56:15.714Z</time></trkpt><trkpt lat="37.1085836" lon="10.085704"><ele>2.0</ele><time>2026-05-05T08:56:16.739Z</time></trkpt><trkpt lat="37.1084762" lon="10.0858251"><ele>2.0</ele><time>2026-05-05T08:56:17.738Z</time></trkpt><trkpt lat="37.1083684" lon="10.0859485"><ele>2.0</ele><time>2026-05-05T08:56:18.737Z</time></trkpt><trkpt lat="37.1082622" lon="10.0860732"><ele>2.0</ele><time>2026-05-05T08:56:19.726Z</time></trkpt><trkpt lat="37.108155" lon="10.086196"><ele>1.75</ele><time>2026-05-05T08:56:20.751Z</time></trkpt><trkpt lat="37.1080525" lon="10.0863155"><ele>1.5</ele><time>2026-05-05T08:56:21.738Z</time></trkpt><trkpt lat="37.1079528" lon="10.0864386"><ele>1.25</ele><time>2026-05-05T08:56:22.732Z</time></trkpt><trkpt lat="37.1078568" lon="10.0865458"><ele>1.0</ele><time>2026-05-05T08:56:23.727Z</time></trkpt><trkpt lat="37.1077682" lon="10.0866497"><ele>1.4</ele><time>2026-05-05T08:56:24.743Z</time></trkpt><trkpt lat="37.1076754" lon="10.0867536"><ele>1.8</ele><time>2026-05-05T08:56:25.742Z</time></trkpt><trkpt lat="37.1075898" lon="10.0868446"><ele>2.1999999999999997</ele><time>2026-05-05T08:56:26.739Z</time></trkpt><trkpt lat="37.1075203" lon="10.0869241"><ele>2.6</ele><time>2026-05-05T08:56:27.734Z</time></trkpt><trkpt lat="37.1074554" lon="10.086989"><ele>3.0</ele><time>2026-05-05T08:56:28.722Z</time></trkpt><trkpt lat="37.107403" lon="10.0870476"><ele>3.0</ele><time>2026-05-05T08:56:29.731Z</time></trkpt><trkpt lat="37.1073509" lon="10.0871098"><ele>3.0</ele><time>2026-05-05T08:56:30.736Z</time></trkpt><trkpt lat="37.1072918" lon="10.0871772"><ele>3.0</ele><time>2026-05-05T08:56:31.736Z</time></trkpt><trkpt lat="37.1072255" lon="10.0872523"><ele>3.0</ele><time>2026-05-05T08:56:32.741Z</time></trkpt><trkpt lat="37.107152" lon="10.0873364"><ele>3.0</ele><time>2026-05-05T08:56:33.743Z</time></trkpt><trkpt lat="37.1070746" lon="10.0874323"><ele>3.0</ele><time>2026-05-05T08:56:34.718Z</time></trkpt><trkpt lat="37.106985" lon="10.0875343"><ele>3.0</ele><time>2026-05-05T08:56:35.715Z</time></trkpt><trkpt lat="37.1068972" lon="10.0876424"><ele>3.0</ele><time>2026-05-05T08:56:36.727Z</time></trkpt><trkpt lat="37.1068079" lon="10.0877397"><ele>3.0</ele><time>2026-05-05T08:56:37.732Z</time></trkpt><trkpt lat="37.1067141" lon="10.0878373"><ele>3.0</ele><time>2026-05-05T08:56:38.743Z</time></trkpt><trkpt lat="37.1066313" lon="10.0879373"><ele>3.0</ele><time>2026-05-05T08:56:39.736Z</time></trkpt><trkpt lat="37.106555" lon="10.088032"><ele>3.0</ele><time>2026-05-05T08:56:40.696Z</time></trkpt><trkpt lat="37.1064872" lon="10.0881087"><ele>3.0</ele><time>2026-05-05T08:56:41.739Z</time></trkpt><trkpt lat="37.1064288" lon="10.0881736"><ele>3.0</ele><time>2026-05-05T08:56:42.734Z</time></trkpt><trkpt lat="37.1063744" lon="10.0882349"><ele>3.0</ele><time>2026-05-05T08:56:43.736Z</time></trkpt><trkpt lat="37.1063169" lon="10.0883005"><ele>3.0</ele><time>2026-05-05T08:56:44.744Z</time></trkpt><trkpt lat="37.1062579" lon="10.088367"><ele>3.2</ele><time>2026-05-05T08:56:45.712Z</time></trkpt><trkpt lat="37.1061883" lon="10.0884454"><ele>3.4</ele><time>2026-05-05T08:56:46.711Z</time></trkpt><trkpt lat="37.1061107" lon="10.0885267"><ele>3.6000000000000005</ele><time>2026-05-05T08:56:47.725Z</time></trkpt><trkpt lat="37.1060286" lon="10.088622"><ele>3.8000000000000003</ele><time>2026-05-05T08:56:48.743Z</time></trkpt><trkpt lat="37.1059368" lon="10.0887218"><ele>4.0</ele><time>2026-05-05T08:56:49.703Z</time></trkpt><trkpt lat="37.1058363" lon="10.0888264"><ele>3.75</ele><time>2026-05-05T08:56:50.737Z</time></trkpt><trkpt lat="37.1057375" lon="10.0889448"><ele>3.5</ele><time>2026-05-05T08:56:51.743Z</time></trkpt><trkpt lat="37.1056432" lon="10.0890608"><ele>3.25</ele><time>2026-05-05T08:56:52.74Z</time></trkpt><trkpt lat="37.1055487" lon="10.0891805"><ele>3.0</ele><time>2026-05-05T08:56:53.734Z</time></trkpt><trkpt lat="37.1054511" lon="10.0892974"><ele>2.75</ele><time>2026-05-05T08:56:54.736Z</time></trkpt><trkpt lat="37.1053454" lon="10.0894143"><ele>2.5</ele><time>2026-05-05T08:56:55.726Z</time></trkpt><trkpt lat="37.1052483" lon="10.0895313"><ele>2.25</ele><time>2026-05-05T08:56:56.757Z</time></trkpt><trkpt lat="37.1051473" lon="10.0896493"><ele>2.0</ele><time>2026-05-05T08:56:57.74Z</time></trkpt><trkpt lat="37.1050515" lon="10.0897653"><ele>2.0</ele><time>2026-05-05T08:56:58.739Z</time></trkpt><trkpt lat="37.1049502" lon="10.0898796"><ele>2.0</ele><time>2026-05-05T08:56:59.733Z</time></trkpt><trkpt lat="37.1048422" lon="10.0899964"><ele>2.0</ele><time>2026-05-05T08:57:00.706Z</time></trkpt><trkpt lat="37.1047399" lon="10.0901183"><ele>2.0</ele><time>2026-05-05T08:57:01.745Z</time></trkpt><trkpt lat="37.1046321" lon="10.0902356"><ele>2.0</ele><time>2026-05-05T08:57:02.749Z</time></trkpt><trkpt lat="37.1045217" lon="10.0903574"><ele>2.0</ele><time>2026-05-05T08:57:03.738Z</time></trkpt><trkpt lat="37.1044146" lon="10.0904786"><ele>2.0</ele><time>2026-05-05T08:57:04.737Z</time></trkpt><trkpt lat="37.1042987" lon="10.0906076"><ele>2.0</ele><time>2026-05-05T08:57:05.737Z</time></trkpt><trkpt lat="37.1041836" lon="10.0907391"><ele>2.6666666666666665</ele><time>2026-05-05T08:57:06.736Z</time></trkpt><trkpt lat="37.1040717" lon="10.090867"><ele>3.333333333333333</ele><time>2026-05-05T08:57:07.717Z</time></trkpt><trkpt lat="37.103958" lon="10.0909944"><ele>4.0</ele><time>2026-05-05T08:57:08.736Z</time></trkpt><trkpt lat="37.1038464" lon="10.0911219"><ele>4.0</ele><time>2026-05-05T08:57:09.727Z</time></trkpt><trkpt lat="37.103737" lon="10.0912406"><ele>4.0</ele><time>2026-05-05T08:57:10.738Z</time></trkpt><trkpt lat="37.1036326" lon="10.091359"><ele>4.0</ele><time>2026-05-05T08:57:11.739Z</time></trkpt><trkpt lat="37.1035278" lon="10.0914761"><ele>4.0</ele><time>2026-05-05T08:57:12.744Z</time></trkpt><trkpt lat="37.103427" lon="10.0915908"><ele>4.0</ele><time>2026-05-05T08:57:13.716Z</time></trkpt><trkpt lat="37.1033404" lon="10.0916942"><ele>4.0</ele><time>2026-05-05T08:57:14.744Z</time></trkpt><trkpt lat="37.1032695" lon="10.0917764"><ele>4.0</ele><time>2026-05-05T08:57:15.74Z</time></trkpt><trkpt lat="37.1032092" lon="10.0918405"><ele>4.0</ele><time>2026-05-05T08:57:16.73Z</time></trkpt><trkpt lat="37.1031519" lon="10.0919085"><ele>4.0</ele><time>2026-05-05T08:57:17.742Z</time></trkpt><trkpt lat="37.1030895" lon="10.0919755"><ele>3.9999999999999996</ele><time>2026-05-05T08:57:18.747Z</time></trkpt><trkpt lat="37.1030341" lon="10.0920453"><ele>4.0</ele><time>2026-05-05T08:57:19.738Z</time></trkpt><trkpt lat="37.102974" lon="10.0921179"><ele>4.0</ele><time>2026-05-05T08:57:20.742Z</time></trkpt><trkpt lat="37.1029157" lon="10.0921873"><ele>4.0</ele><time>2026-05-05T08:57:21.731Z</time></trkpt><trkpt lat="37.1028596" lon="10.0922584"><ele>3.9999999999999996</ele><time>2026-05-05T08:57:22.74Z</time></trkpt><trkpt lat="37.1027981" lon="10.0923291"><ele>4.0</ele><time>2026-05-05T08:57:23.736Z</time></trkpt><trkpt lat="37.1027355" lon="10.092408"><ele>4.0</ele><time>2026-05-05T08:57:24.745Z</time></trkpt><trkpt lat="37.1026654" lon="10.0924857"><ele>4.0</ele><time>2026-05-05T08:57:25.734Z</time></trkpt><trkpt lat="37.1026026" lon="10.0925627"><ele>4.0</ele><time>2026-05-05T08:57:26.743Z</time></trkpt><trkpt lat="37.1025375" lon="10.0926462"><ele>4.0</ele><time>2026-05-05T08:57:27.703Z</time></trkpt><trkpt lat="37.1024702" lon="10.0927224"><ele>4.0</ele><time>2026-05-05T08:57:28.748Z</time></trkpt><trkpt lat="37.102396" lon="10.0927965"><ele>4.0</ele><time>2026-05-05T08:57:29.768Z</time></trkpt><trkpt lat="37.1023285" lon="10.0928725"><ele>4.0</ele><time>2026-05-05T08:57:30.733Z</time></trkpt><trkpt lat="37.1022556" lon="10.0929498"><ele>4.0</ele><time>2026-05-05T08:57:31.741Z</time></trkpt><trkpt lat="37.1021873" lon="10.0930321"><ele>4.0</ele><time>2026-05-05T08:57:32.741Z</time></trkpt><trkpt lat="37.1021177" lon="10.093113"><ele>4.0</ele><time>2026-05-05T08:57:33.737Z</time></trkpt><trkpt lat="37.1020531" lon="10.0931861"><ele>4.166666666666666</ele><time>2026-05-05T08:57:34.716Z</time></trkpt><trkpt lat="37.1019885" lon="10.0932611"><ele>4.333333333333333</ele><time>2026-05-05T08:57:35.746Z</time></trkpt><trkpt lat="37.1019233" lon="10.0933332"><ele>4.5</ele><time>2026-05-05T08:57:36.736Z</time></trkpt><trkpt lat="37.1018593" lon="10.0934052"><ele>4.666666666666667</ele><time>2026-05-05T08:57:37.732Z</time></trkpt><trkpt lat="37.1017957" lon="10.0934798"><ele>4.833333333333334</ele><time>2026-05-05T08:57:38.713Z</time></trkpt><trkpt lat="37.1017317" lon="10.0935513"><ele>5.0</ele><time>2026-05-05T08:57:39.741Z</time></trkpt><trkpt lat="37.1016667" lon="10.0936204"><ele>5.0</ele><time>2026-05-05T08:57:40.731Z</time></trkpt><trkpt lat="37.1016041" lon="10.0936851"><ele>5.0</ele><time>2026-05-05T08:57:41.744Z</time></trkpt><trkpt lat="37.1015453" lon="10.0937514"><ele>5.0</ele><time>2026-05-05T08:57:42.736Z</time></trkpt><trkpt lat="37.101492" lon="10.0938119"><ele>5.0</ele><time>2026-05-05T08:57:43.746Z</time></trkpt><trkpt lat="37.1014428" lon="10.0938626"><ele>5.0</ele><time>2026-05-05T08:57:44.737Z</time></trkpt><trkpt lat="37.1013727" lon="10.0939409"><ele>5.0</ele><time>2026-05-05T08:57:46.739Z</time></trkpt><trkpt lat="37.101316" lon="10.0939994"><ele>4.833333333333334</ele><time>2026-05-05T08:57:48.73Z</time></trkpt><trkpt lat="37.1012231" lon="10.0940807"><ele>4.666666666666667</ele><time>2026-05-05T08:57:50.757Z</time></trkpt><trkpt lat="37.1011742" lon="10.0941345"><ele>4.5</ele><time>2026-05-05T08:57:51.733Z</time></trkpt><trkpt lat="37.1011214" lon="10.0942065"><ele>4.333333333333333</ele><time>2026-05-05T08:57:52.736Z</time></trkpt><trkpt lat="37.1010634" lon="10.0942817"><ele>4.166666666666666</ele><time>2026-05-05T08:57:53.74Z</time></trkpt><trkpt lat="37.1010045" lon="10.0943661"><ele>4.0</ele><time>2026-05-05T08:57:54.732Z</time></trkpt><trkpt lat="37.1009377" lon="10.0944426"><ele>4.0</ele><time>2026-05-05T08:57:55.742Z</time></trkpt><trkpt lat="37.1008571" lon="10.0945275"><ele>4.0</ele><time>2026-05-05T08:57:56.731Z</time></trkpt><trkpt lat="37.1007773" lon="10.0946191"><ele>4.0</ele><time>2026-05-05T08:57:57.704Z</time></trkpt><trkpt lat="37.1006961" lon="10.0947129"><ele>4.0</ele><time>2026-05-05T08:57:58.726Z</time></trkpt><trkpt lat="37.1006117" lon="10.0948118"><ele>4.0</ele><time>2026-05-05T08:57:59.734Z</time></trkpt><trkpt lat="37.1005276" lon="10.0949043"><ele>4.25</ele><time>2026-05-05T08:58:00.734Z</time></trkpt><trkpt lat="37.1004428" lon="10.095004"><ele>4.5</ele><time>2026-05-05T08:58:01.735Z</time></trkpt><trkpt lat="37.1003476" lon="10.0951048"><ele>4.75</ele><time>2026-05-05T08:58:02.74Z</time></trkpt><trkpt lat="37.1002529" lon="10.0952103"><ele>5.0</ele><time>2026-05-05T08:58:03.734Z</time></trkpt><trkpt lat="37.1001547" lon="10.0953154"><ele>5.0</ele><time>2026-05-05T08:58:04.717Z</time></trkpt><trkpt lat="37.1000544" lon="10.0954189"><ele>5.0</ele><time>2026-05-05T08:58:05.738Z</time></trkpt><trkpt lat="37.0999508" lon="10.0955245"><ele>5.0</ele><time>2026-05-05T08:58:06.694Z</time></trkpt><trkpt lat="37.0998404" lon="10.0956186"><ele>5.0</ele><time>2026-05-05T08:58:07.736Z</time></trkpt><trkpt lat="37.0997234" lon="10.0956948"><ele>4.75</ele><time>2026-05-05T08:58:08.718Z</time></trkpt><trkpt lat="37.0995965" lon="10.0957553"><ele>4.5</ele><time>2026-05-05T08:58:09.738Z</time></trkpt><trkpt lat="37.0994656" lon="10.0958113"><ele>4.25</ele><time>2026-05-05T08:58:10.749Z</time></trkpt><trkpt lat="37.0993298" lon="10.0958642"><ele>4.0</ele><time>2026-05-05T08:58:11.737Z</time></trkpt><trkpt lat="37.0991866" lon="10.0959191"><ele>4.0</ele><time>2026-05-05T08:58:12.74Z</time></trkpt><trkpt lat="37.0990672" lon="10.0959717"><ele>4.0</ele><time>2026-05-05T08:58:13.718Z</time></trkpt><trkpt lat="37.0989545" lon="10.0960246"><ele>4.0</ele><time>2026-05-05T08:58:14.736Z</time></trkpt><trkpt lat="37.0988413" lon="10.0960743"><ele>4.0</ele><time>2026-05-05T08:58:15.735Z</time></trkpt><trkpt lat="37.0987273" lon="10.0961196"><ele>4.0</ele><time>2026-05-05T08:58:16.727Z</time></trkpt><trkpt lat="37.0986073" lon="10.0961682"><ele>4.0</ele><time>2026-05-05T08:58:17.735Z</time></trkpt><trkpt lat="37.0984886" lon="10.0962258"><ele>4.0</ele><time>2026-05-05T08:58:18.739Z</time></trkpt><trkpt lat="37.0983693" lon="10.09629"><ele>4.0</ele><time>2026-05-05T08:58:19.737Z</time></trkpt><trkpt lat="37.0982438" lon="10.0963549"><ele>3.75</ele><time>2026-05-05T08:58:20.722Z</time></trkpt><trkpt lat="37.0981136" lon="10.0964221"><ele>3.5</ele><time>2026-05-05T08:58:21.742Z</time></trkpt><trkpt lat="37.0979827" lon="10.0964882"><ele>3.25</ele><time>2026-05-05T08:58:22.744Z</time></trkpt><trkpt lat="37.0978567" lon="10.0965582"><ele>3.0</ele><time>2026-05-05T08:58:23.742Z</time></trkpt><trkpt lat="37.09773" lon="10.0966213"><ele>3.0</ele><time>2026-05-05T08:58:24.745Z</time></trkpt><trkpt lat="37.0976121" lon="10.09668"><ele>3.0</ele><time>2026-05-05T08:58:25.751Z</time></trkpt><trkpt lat="37.0975006" lon="10.0967239"><ele>3.0</ele><time>2026-05-05T08:58:26.74Z</time></trkpt><trkpt lat="37.0973811" lon="10.0967415"><ele>3.0</ele><time>2026-05-05T08:58:27.738Z</time></trkpt><trkpt lat="37.0972569" lon="10.0967272"><ele>3.25</ele><time>2026-05-05T08:58:28.739Z</time></trkpt><trkpt lat="37.0971455" lon="10.0966713"><ele>3.5</ele><time>2026-05-05T08:58:29.725Z</time></trkpt><trkpt lat="37.097023" lon="10.0965868"><ele>3.75</ele><time>2026-05-05T08:58:30.718Z</time></trkpt><trkpt lat="37.096922" lon="10.0964866"><ele>4.0</ele><time>2026-05-05T08:58:31.725Z</time></trkpt><trkpt lat="37.0968197" lon="10.0963796"><ele>4.0</ele><time>2026-05-05T08:58:32.735Z</time></trkpt><trkpt lat="37.09672" lon="10.0962558"><ele>4.0</ele><time>2026-05-05T08:58:33.74Z</time></trkpt><trkpt lat="37.0966258" lon="10.0961252"><ele>4.0</ele><time>2026-05-05T08:58:34.717Z</time></trkpt><trkpt lat="37.0965362" lon="10.0959903"><ele>4.0</ele><time>2026-05-05T08:58:35.72Z</time></trkpt><trkpt lat="37.0964515" lon="10.095864"><ele>4.0</ele><time>2026-05-05T08:58:36.731Z</time></trkpt><trkpt lat="37.0963601" lon="10.0957629"><ele>4.0</ele><time>2026-05-05T08:58:37.737Z</time></trkpt><trkpt lat="37.0962588" lon="10.0956958"><ele>4.0</ele><time>2026-05-05T08:58:38.707Z</time></trkpt><trkpt lat="37.0961578" lon="10.0956609"><ele>4.0</ele><time>2026-05-05T08:58:39.749Z</time></trkpt><trkpt lat="37.0960464" lon="10.0956912"><ele>4.0</ele><time>2026-05-05T08:58:40.718Z</time></trkpt><trkpt lat="37.0959469" lon="10.0957429"><ele>4.0</ele><time>2026-05-05T08:58:41.75Z</time></trkpt><trkpt lat="37.0958504" lon="10.0958157"><ele>4.0</ele><time>2026-05-05T08:58:42.736Z</time></trkpt><trkpt lat="37.0957231" lon="10.095908"><ele>4.0</ele><time>2026-05-05T08:58:43.74Z</time></trkpt><trkpt lat="37.0955899" lon="10.0960149"><ele>4.0</ele><time>2026-05-05T08:58:44.739Z</time></trkpt><trkpt lat="37.0954507" lon="10.0961207"><ele>4.0</ele><time>2026-05-05T08:58:45.717Z</time></trkpt><trkpt lat="37.0953157" lon="10.09623"><ele>4.0</ele><time>2026-05-05T08:58:46.74Z</time></trkpt><trkpt lat="37.0951852" lon="10.0963344"><ele>4.0</ele><time>2026-05-05T08:58:47.745Z</time></trkpt><trkpt lat="37.0950519" lon="10.0964416"><ele>4.0</ele><time>2026-05-05T08:58:48.735Z</time></trkpt><trkpt lat="37.0949227" lon="10.0965471"><ele>4.0</ele><time>2026-05-05T08:58:49.74Z</time></trkpt><trkpt lat="37.0947926" lon="10.096651"><ele>4.25</ele><time>2026-05-05T08:58:50.746Z</time></trkpt><trkpt lat="37.0946655" lon="10.0967512"><ele>4.5</ele><time>2026-05-05T08:58:51.744Z</time></trkpt><trkpt lat="37.0945413" lon="10.0968495"><ele>4.75</ele><time>2026-05-05T08:58:52.737Z</time></trkpt><trkpt lat="37.0944147" lon="10.0969504"><ele>5.0</ele><time>2026-05-05T08:58:53.737Z</time></trkpt><trkpt lat="37.0942865" lon="10.0970489"><ele>5.0</ele><time>2026-05-05T08:58:54.734Z</time></trkpt><trkpt lat="37.0941551" lon="10.0971499"><ele>5.0</ele><time>2026-05-05T08:58:55.743Z</time></trkpt><trkpt lat="37.094023" lon="10.0972493"><ele>5.0</ele><time>2026-05-05T08:58:56.698Z</time></trkpt><trkpt lat="37.0938939" lon="10.0973524"><ele>4.333333333333334</ele><time>2026-05-05T08:58:57.701Z</time></trkpt><trkpt lat="37.0937549" lon="10.0974622"><ele>3.666666666666667</ele><time>2026-05-05T08:58:58.701Z</time></trkpt><trkpt lat="37.0936228" lon="10.0975724"><ele>3.0</ele><time>2026-05-05T08:58:59.731Z</time></trkpt><trkpt lat="37.0934876" lon="10.097687"><ele>3.0</ele><time>2026-05-05T08:59:00.749Z</time></trkpt><trkpt lat="37.0933517" lon="10.0977963"><ele>3.0</ele><time>2026-05-05T08:59:01.737Z</time></trkpt><trkpt lat="37.0932131" lon="10.0979044"><ele>3.0</ele><time>2026-05-05T08:59:02.74Z</time></trkpt><trkpt lat="37.093074" lon="10.0980112"><ele>3.333333333333333</ele><time>2026-05-05T08:59:03.738Z</time></trkpt><trkpt lat="37.0929385" lon="10.0981196"><ele>3.6666666666666665</ele><time>2026-05-05T08:59:04.736Z</time></trkpt><trkpt lat="37.0927996" lon="10.0982261"><ele>4.0</ele><time>2026-05-05T08:59:05.738Z</time></trkpt><trkpt lat="37.0926588" lon="10.098338"><ele>4.0</ele><time>2026-05-05T08:59:06.711Z</time></trkpt><trkpt lat="37.0925125" lon="10.0984498"><ele>4.0</ele><time>2026-05-05T08:59:07.744Z</time></trkpt><trkpt lat="37.0923759" lon="10.0985664"><ele>4.0</ele><time>2026-05-05T08:59:08.716Z</time></trkpt><trkpt lat="37.0922384" lon="10.0986794"><ele>3.6666666666666665</ele><time>2026-05-05T08:59:09.737Z</time></trkpt><trkpt lat="37.0921037" lon="10.0987887"><ele>3.333333333333333</ele><time>2026-05-05T08:59:10.744Z</time></trkpt><trkpt lat="37.0919696" lon="10.098898"><ele>3.0</ele><time>2026-05-05T08:59:11.739Z</time></trkpt><trkpt lat="37.0918354" lon="10.0990033"><ele>3.0</ele><time>2026-05-05T08:59:12.733Z</time></trkpt><trkpt lat="37.0916971" lon="10.0991097"><ele>3.0</ele><time>2026-05-05T08:59:13.74Z</time></trkpt><trkpt lat="37.0915597" lon="10.099217"><ele>3.0</ele><time>2026-05-05T08:59:14.739Z</time></trkpt><trkpt lat="37.0914196" lon="10.0993253"><ele>3.0</ele><time>2026-05-05T08:59:15.734Z</time></trkpt><trkpt lat="37.0912821" lon="10.0994379"><ele>3.0</ele><time>2026-05-05T08:59:16.741Z</time></trkpt><trkpt lat="37.0911428" lon="10.0995459"><ele>3.0</ele><time>2026-05-05T08:59:17.744Z</time></trkpt><trkpt lat="37.0910043" lon="10.0996635"><ele>3.0</ele><time>2026-05-05T08:59:18.748Z</time></trkpt><trkpt lat="37.0908633" lon="10.0997757"><ele>3.0</ele><time>2026-05-05T08:59:19.737Z</time></trkpt><trkpt lat="37.0907195" lon="10.0998884"><ele>3.0</ele><time>2026-05-05T08:59:20.735Z</time></trkpt><trkpt lat="37.0905825" lon="10.0999951"><ele>3.0</ele><time>2026-05-05T08:59:21.732Z</time></trkpt><trkpt lat="37.0904475" lon="10.1001041"><ele>3.0</ele><time>2026-05-05T08:59:22.741Z</time></trkpt><trkpt lat="37.0903146" lon="10.1002084"><ele>3.0</ele><time>2026-05-05T08:59:23.738Z</time></trkpt><trkpt lat="37.0901812" lon="10.1003153"><ele>3.0</ele><time>2026-05-05T08:59:24.74Z</time></trkpt><trkpt lat="37.0900462" lon="10.1004243"><ele>3.0</ele><time>2026-05-05T08:59:25.751Z</time></trkpt><trkpt lat="37.0899051" lon="10.1005301"><ele>3.0</ele><time>2026-05-05T08:59:26.719Z</time></trkpt><trkpt lat="37.0897692" lon="10.1006403"><ele>3.333333333333333</ele><time>2026-05-05T08:59:27.731Z</time></trkpt><trkpt lat="37.0896335" lon="10.100747"><ele>3.6666666666666665</ele><time>2026-05-05T08:59:28.742Z</time></trkpt><trkpt lat="37.0894952" lon="10.1008531"><ele>4.0</ele><time>2026-05-05T08:59:29.738Z</time></trkpt><trkpt lat="37.0893506" lon="10.1009668"><ele>4.0</ele><time>2026-05-05T08:59:30.739Z</time></trkpt><trkpt lat="37.0892023" lon="10.10109"><ele>4.0</ele><time>2026-05-05T08:59:31.741Z</time></trkpt><trkpt lat="37.0890459" lon="10.101214"><ele>4.0</ele><time>2026-05-05T08:59:32.736Z</time></trkpt><trkpt lat="37.0888895" lon="10.101337"><ele>4.0</ele><time>2026-05-05T08:59:33.721Z</time></trkpt><trkpt lat="37.0887275" lon="10.1014649"><ele>4.0</ele><time>2026-05-05T08:59:34.728Z</time></trkpt><trkpt lat="37.0885614" lon="10.1016016"><ele>4.0</ele><time>2026-05-05T08:59:35.735Z</time></trkpt><trkpt lat="37.0883884" lon="10.1017336"><ele>4.0</ele><time>2026-05-05T08:59:36.721Z</time></trkpt><trkpt lat="37.0882163" lon="10.1018634"><ele>4.0</ele><time>2026-05-05T08:59:37.744Z</time></trkpt><trkpt lat="37.0880379" lon="10.1020007"><ele>4.0</ele><time>2026-05-05T08:59:38.739Z</time></trkpt><trkpt lat="37.0878609" lon="10.1021423"><ele>4.0</ele><time>2026-05-05T08:59:39.743Z</time></trkpt><trkpt lat="37.0876803" lon="10.1022816"><ele>4.0</ele><time>2026-05-05T08:59:40.738Z</time></trkpt><trkpt lat="37.0875034" lon="10.1024262"><ele>4.0</ele><time>2026-05-05T08:59:41.695Z</time></trkpt><trkpt lat="37.0873348" lon="10.102568"><ele>4.333333333333333</ele><time>2026-05-05T08:59:42.745Z</time></trkpt><trkpt lat="37.0871706" lon="10.1027059"><ele>4.666666666666667</ele><time>2026-05-05T08:59:43.749Z</time></trkpt><trkpt lat="37.0870173" lon="10.1028426"><ele>5.0</ele><time>2026-05-05T08:59:44.731Z</time></trkpt><trkpt lat="37.0868675" lon="10.1029851"><ele>5.0</ele><time>2026-05-05T08:59:45.727Z</time></trkpt><trkpt lat="37.0867143" lon="10.1031411"><ele>5.0</ele><time>2026-05-05T08:59:46.73Z</time></trkpt><trkpt lat="37.0865619" lon="10.1033091"><ele>5.0</ele><time>2026-05-05T08:59:47.722Z</time></trkpt><trkpt lat="37.0864016" lon="10.103482"><ele>4.333333333333334</ele><time>2026-05-05T08:59:48.725Z</time></trkpt><trkpt lat="37.0862324" lon="10.1036449"><ele>3.666666666666667</ele><time>2026-05-05T08:59:49.743Z</time></trkpt><trkpt lat="37.0860602" lon="10.1037963"><ele>3.0</ele><time>2026-05-05T08:59:50.73Z</time></trkpt><trkpt lat="37.085889" lon="10.1039526"><ele>2.6666666666666665</ele><time>2026-05-05T08:59:51.732Z</time></trkpt><trkpt lat="37.0857206" lon="10.1041124"><ele>2.333333333333333</ele><time>2026-05-05T08:59:52.742Z</time></trkpt><trkpt lat="37.085556" lon="10.1042814"><ele>2.0</ele><time>2026-05-05T08:59:53.738Z</time></trkpt><trkpt lat="37.0853958" lon="10.1044444"><ele>2.0</ele><time>2026-05-05T08:59:54.733Z</time></trkpt><trkpt lat="37.085233" lon="10.1046087"><ele>2.0</ele><time>2026-05-05T08:59:55.733Z</time></trkpt><trkpt lat="37.0850758" lon="10.1047734"><ele>2.0</ele><time>2026-05-05T08:59:56.744Z</time></trkpt><trkpt lat="37.0849174" lon="10.1049386"><ele>2.333333333333333</ele><time>2026-05-05T08:59:57.746Z</time></trkpt><trkpt lat="37.0847631" lon="10.1050992"><ele>2.6666666666666665</ele><time>2026-05-05T08:59:58.714Z</time></trkpt><trkpt lat="37.0846107" lon="10.105259"><ele>3.0</ele><time>2026-05-05T08:59:59.728Z</time></trkpt><trkpt lat="37.0844583" lon="10.1054204"><ele>3.0</ele><time>2026-05-05T09:00:00.731Z</time></trkpt><trkpt lat="37.0843046" lon="10.1055774"><ele>3.0</ele><time>2026-05-05T09:00:01.746Z</time></trkpt><trkpt lat="37.0841459" lon="10.105737"><ele>3.0</ele><time>2026-05-05T09:00:02.737Z</time></trkpt><trkpt lat="37.083988" lon="10.1058918"><ele>3.0</ele><time>2026-05-05T09:00:03.751Z</time></trkpt><trkpt lat="37.0838306" lon="10.1060495"><ele>3.0</ele><time>2026-05-05T09:00:04.737Z</time></trkpt><trkpt lat="37.0836722" lon="10.1062176"><ele>3.0</ele><time>2026-05-05T09:00:05.75Z</time></trkpt><trkpt lat="37.0835209" lon="10.106378"><ele>3.0</ele><time>2026-05-05T09:00:06.75Z</time></trkpt><trkpt lat="37.0833635" lon="10.1065284"><ele>3.0</ele><time>2026-05-05T09:00:07.73Z</time></trkpt><trkpt lat="37.0832044" lon="10.1066767"><ele>3.0</ele><time>2026-05-05T09:00:08.732Z</time></trkpt><trkpt lat="37.0830454" lon="10.1068198"><ele>3.0</ele><time>2026-05-05T09:00:09.743Z</time></trkpt><trkpt lat="37.0828859" lon="10.1069569"><ele>3.0</ele><time>2026-05-05T09:00:10.713Z</time></trkpt><trkpt lat="37.0827235" lon="10.1070978"><ele>3.0</ele><time>2026-05-05T09:00:11.731Z</time></trkpt><trkpt lat="37.0825647" lon="10.107234"><ele>2.6666666666666665</ele><time>2026-05-05T09:00:12.739Z</time></trkpt><trkpt lat="37.082406" lon="10.1073707"><ele>2.333333333333333</ele><time>2026-05-05T09:00:13.737Z</time></trkpt><trkpt lat="37.0822474" lon="10.1075054"><ele>2.0</ele><time>2026-05-05T09:00:14.743Z</time></trkpt><trkpt lat="37.0820873" lon="10.1076382"><ele>1.6666666666666665</ele><time>2026-05-05T09:00:15.732Z</time></trkpt><trkpt lat="37.0819282" lon="10.1077728"><ele>1.3333333333333333</ele><time>2026-05-05T09:00:16.736Z</time></trkpt><trkpt lat="37.0817721" lon="10.1079005"><ele>1.0</ele><time>2026-05-05T09:00:17.733Z</time></trkpt><trkpt lat="37.0816152" lon="10.1080345"><ele>1.3333333333333333</ele><time>2026-05-05T09:00:18.735Z</time></trkpt><trkpt lat="37.0814671" lon="10.1081695"><ele>1.6666666666666665</ele><time>2026-05-05T09:00:19.733Z</time></trkpt><trkpt lat="37.0813162" lon="10.1083002"><ele>2.0</ele><time>2026-05-05T09:00:20.733Z</time></trkpt><trkpt lat="37.0811632" lon="10.1084288"><ele>2.0</ele><time>2026-05-05T09:00:21.737Z</time></trkpt><trkpt lat="37.0810141" lon="10.1085533"><ele>2.0</ele><time>2026-05-05T09:00:22.743Z</time></trkpt><trkpt lat="37.0808664" lon="10.1086817"><ele>2.0</ele><time>2026-05-05T09:00:23.733Z</time></trkpt><trkpt lat="37.0807185" lon="10.1088001"><ele>2.0</ele><time>2026-05-05T09:00:24.729Z</time></trkpt><trkpt lat="37.0805757" lon="10.108919"><ele>2.0</ele><time>2026-05-05T09:00:25.735Z</time></trkpt><trkpt lat="37.0804353" lon="10.1090386"><ele>2.0</ele><time>2026-05-05T09:00:26.713Z</time></trkpt><trkpt lat="37.0802948" lon="10.1091655"><ele>2.0</ele><time>2026-05-05T09:00:27.739Z</time></trkpt><trkpt lat="37.080156" lon="10.1092902"><ele>2.0</ele><time>2026-05-05T09:00:28.742Z</time></trkpt><trkpt lat="37.0800174" lon="10.1094135"><ele>2.0</ele><time>2026-05-05T09:00:29.736Z</time></trkpt><trkpt lat="37.0798773" lon="10.1095404"><ele>2.0</ele><time>2026-05-05T09:00:30.715Z</time></trkpt><trkpt lat="37.0797395" lon="10.1096671"><ele>2.0</ele><time>2026-05-05T09:00:31.737Z</time></trkpt><trkpt lat="37.0796001" lon="10.1097956"><ele>2.0</ele><time>2026-05-05T09:00:32.729Z</time></trkpt><trkpt lat="37.0794597" lon="10.1099292"><ele>2.0</ele><time>2026-05-05T09:00:33.733Z</time></trkpt><trkpt lat="37.0793192" lon="10.1100642"><ele>2.0</ele><time>2026-05-05T09:00:34.717Z</time></trkpt><trkpt lat="37.0791838" lon="10.1101975"><ele>2.0</ele><time>2026-05-05T09:00:35.722Z</time></trkpt><trkpt lat="37.0790466" lon="10.1103346"><ele>1.3333333333333333</ele><time>2026-05-05T09:00:36.751Z</time></trkpt><trkpt lat="37.0789119" lon="10.1104674"><ele>0.6666666666666666</ele><time>2026-05-05T09:00:37.736Z</time></trkpt><trkpt lat="37.0787744" lon="10.1106029"><ele>0.0</ele><time>2026-05-05T09:00:38.746Z</time></trkpt><trkpt lat="37.0786359" lon="10.1107373"><ele>0.3333333333333333</ele><time>2026-05-05T09:00:39.749Z</time></trkpt><trkpt lat="37.0784962" lon="10.1108736"><ele>0.6666666666666666</ele><time>2026-05-05T09:00:40.745Z</time></trkpt><trkpt lat="37.0783592" lon="10.1110097"><ele>1.0</ele><time>2026-05-05T09:00:41.715Z</time></trkpt><trkpt lat="37.0782197" lon="10.1111476"><ele>1.0</ele><time>2026-05-05T09:00:42.697Z</time></trkpt><trkpt lat="37.0780811" lon="10.1112851"><ele>1.0</ele><time>2026-05-05T09:00:43.732Z</time></trkpt><trkpt lat="37.0779361" lon="10.11142"><ele>1.0</ele><time>2026-05-05T09:00:44.757Z</time></trkpt><trkpt lat="37.0777958" lon="10.1115484"><ele>1.3333333333333333</ele><time>2026-05-05T09:00:45.739Z</time></trkpt><trkpt lat="37.0776565" lon="10.1116829"><ele>1.6666666666666665</ele><time>2026-05-05T09:00:46.733Z</time></trkpt><trkpt lat="37.077518" lon="10.1118152"><ele>2.0</ele><time>2026-05-05T09:00:47.743Z</time></trkpt><trkpt lat="37.0773787" lon="10.1119523"><ele>2.333333333333333</ele><time>2026-05-05T09:00:48.737Z</time></trkpt><trkpt lat="37.0772405" lon="10.1120917"><ele>2.6666666666666665</ele><time>2026-05-05T09:00:49.738Z</time></trkpt><trkpt lat="37.0771046" lon="10.1122253"><ele>3.0</ele><time>2026-05-05T09:00:50.735Z</time></trkpt><trkpt lat="37.0769643" lon="10.1123658"><ele>3.0</ele><time>2026-05-05T09:00:51.728Z</time></trkpt><trkpt lat="37.07682" lon="10.1125001"><ele>3.0</ele><time>2026-05-05T09:00:52.71Z</time></trkpt><trkpt lat="37.0766793" lon="10.1126314"><ele>3.0</ele><time>2026-05-05T09:00:53.728Z</time></trkpt><trkpt lat="37.0765408" lon="10.1127683"><ele>3.0</ele><time>2026-05-05T09:00:54.735Z</time></trkpt><trkpt lat="37.0764068" lon="10.1129062"><ele>3.0</ele><time>2026-05-05T09:00:55.742Z</time></trkpt><trkpt lat="37.0762645" lon="10.1130392"><ele>3.0</ele><time>2026-05-05T09:00:56.737Z</time></trkpt><trkpt lat="37.0761196" lon="10.1131722"><ele>2.6666666666666665</ele><time>2026-05-05T09:00:57.734Z</time></trkpt><trkpt lat="37.0759765" lon="10.1133049"><ele>2.333333333333333</ele><time>2026-05-05T09:00:58.723Z</time></trkpt><trkpt lat="37.0758424" lon="10.1134359"><ele>2.0</ele><time>2026-05-05T09:00:59.751Z</time></trkpt><trkpt lat="37.0757057" lon="10.1135682"><ele>2.0</ele><time>2026-05-05T09:01:00.736Z</time></trkpt><trkpt lat="37.0755647" lon="10.1136998"><ele>2.0</ele><time>2026-05-05T09:01:01.737Z</time></trkpt><trkpt lat="37.075426" lon="10.1138315"><ele>2.0</ele><time>2026-05-05T09:01:02.724Z</time></trkpt><trkpt lat="37.075289" lon="10.1139668"><ele>2.0</ele><time>2026-05-05T09:01:03.735Z</time></trkpt><trkpt lat="37.075147" lon="10.1140966"><ele>2.0</ele><time>2026-05-05T09:01:04.74Z</time></trkpt><trkpt lat="37.0750006" lon="10.1142166"><ele>2.0</ele><time>2026-05-05T09:01:05.729Z</time></trkpt><trkpt lat="37.0748453" lon="10.1143327"><ele>1.6666666666666665</ele><time>2026-05-05T09:01:06.738Z</time></trkpt><trkpt lat="37.0746905" lon="10.1144434"><ele>1.3333333333333333</ele><time>2026-05-05T09:01:07.753Z</time></trkpt><trkpt lat="37.0745364" lon="10.114548"><ele>1.0</ele><time>2026-05-05T09:01:08.686Z</time></trkpt><trkpt lat="37.0743857" lon="10.1146522"><ele>1.0</ele><time>2026-05-05T09:01:09.727Z</time></trkpt><trkpt lat="37.0742343" lon="10.1147631"><ele>1.0</ele><time>2026-05-05T09:01:10.745Z</time></trkpt><trkpt lat="37.0740834" lon="10.1148684"><ele>1.0</ele><time>2026-05-05T09:01:11.748Z</time></trkpt><trkpt lat="37.073927" lon="10.1149749"><ele>1.6666666666666665</ele><time>2026-05-05T09:01:12.741Z</time></trkpt><trkpt lat="37.0737716" lon="10.1150824"><ele>2.3333333333333335</ele><time>2026-05-05T09:01:13.739Z</time></trkpt><trkpt lat="37.0736163" lon="10.1151922"><ele>3.0</ele><time>2026-05-05T09:01:14.746Z</time></trkpt><trkpt lat="37.0734618" lon="10.1152932"><ele>3.0</ele><time>2026-05-05T09:01:15.721Z</time></trkpt><trkpt lat="37.0733049" lon="10.1154019"><ele>3.0</ele><time>2026-05-05T09:01:16.743Z</time></trkpt><trkpt lat="37.0731476" lon="10.1155039"><ele>3.0</ele><time>2026-05-05T09:01:17.741Z</time></trkpt><trkpt lat="37.0729931" lon="10.1156055"><ele>3.0</ele><time>2026-05-05T09:01:18.736Z</time></trkpt><trkpt lat="37.0728402" lon="10.115708"><ele>3.0</ele><time>2026-05-05T09:01:19.744Z</time></trkpt><trkpt lat="37.0726861" lon="10.1158063"><ele>3.0</ele><time>2026-05-05T09:01:20.742Z</time></trkpt><trkpt lat="37.0725334" lon="10.1159112"><ele>2.6666666666666665</ele><time>2026-05-05T09:01:21.743Z</time></trkpt><trkpt lat="37.07238" lon="10.1160088"><ele>2.333333333333333</ele><time>2026-05-05T09:01:22.733Z</time></trkpt><trkpt lat="37.0722367" lon="10.1160979"><ele>2.0</ele><time>2026-05-05T09:01:23.736Z</time></trkpt><trkpt lat="37.072096" lon="10.1161772"><ele>2.0</ele><time>2026-05-05T09:01:24.729Z</time></trkpt><trkpt lat="37.071956" lon="10.1162356"><ele>2.0</ele><time>2026-05-05T09:01:25.718Z</time></trkpt><trkpt lat="37.0718219" lon="10.1162795"><ele>2.0</ele><time>2026-05-05T09:01:26.726Z</time></trkpt><trkpt lat="37.0716898" lon="10.1163021"><ele>2.0</ele><time>2026-05-05T09:01:27.74Z</time></trkpt><trkpt lat="37.0715609" lon="10.1163181"><ele>1.75</ele><time>2026-05-05T09:01:28.738Z</time></trkpt><trkpt lat="37.0714309" lon="10.1163234"><ele>1.5</ele><time>2026-05-05T09:01:29.738Z</time></trkpt><trkpt lat="37.0712974" lon="10.1163267"><ele>1.25</ele><time>2026-05-05T09:01:30.731Z</time></trkpt><trkpt lat="37.0711675" lon="10.1163053"><ele>1.0</ele><time>2026-05-05T09:01:31.724Z</time></trkpt><trkpt lat="37.0710367" lon="10.1162688"><ele>1.0</ele><time>2026-05-05T09:01:32.739Z</time></trkpt><trkpt lat="37.0709096" lon="10.116221"><ele>1.0</ele><time>2026-05-05T09:01:33.734Z</time></trkpt><trkpt lat="37.0707776" lon="10.1161648"><ele>1.0</ele><time>2026-05-05T09:01:34.726Z</time></trkpt><trkpt lat="37.0706443" lon="10.116104"><ele>1.0</ele><time>2026-05-05T09:01:35.713Z</time></trkpt><trkpt lat="37.0705023" lon="10.1160356"><ele>1.6666666666666665</ele><time>2026-05-05T09:01:36.736Z</time></trkpt><trkpt lat="37.0703589" lon="10.1159652"><ele>2.3333333333333335</ele><time>2026-05-05T09:01:37.741Z</time></trkpt><trkpt lat="37.0702184" lon="10.1159003"><ele>3.0</ele><time>2026-05-05T09:01:38.742Z</time></trkpt><trkpt lat="37.0700804" lon="10.1158326"><ele>3.0</ele><time>2026-05-05T09:01:39.725Z</time></trkpt><trkpt lat="37.0699441" lon="10.115763"><ele>3.0</ele><time>2026-05-05T09:01:40.736Z</time></trkpt><trkpt lat="37.0698114" lon="10.1156993"><ele>3.0</ele><time>2026-05-05T09:01:41.722Z</time></trkpt><trkpt lat="37.0696846" lon="10.1156394"><ele>3.0</ele><time>2026-05-05T09:01:42.745Z</time></trkpt><trkpt lat="37.0695558" lon="10.1155822"><ele>3.0</ele><time>2026-05-05T09:01:43.74Z</time></trkpt><trkpt lat="37.0694341" lon="10.115528"><ele>3.0</ele><time>2026-05-05T09:01:44.749Z</time></trkpt><trkpt lat="37.0693133" lon="10.1154725"><ele>3.0</ele><time>2026-05-05T09:01:45.713Z</time></trkpt><trkpt lat="37.0691883" lon="10.1154157"><ele>3.0</ele><time>2026-05-05T09:01:46.751Z</time></trkpt><trkpt lat="37.0690656" lon="10.1153652"><ele>3.0</ele><time>2026-05-05T09:01:47.74Z</time></trkpt><trkpt lat="37.0689465" lon="10.1153106"><ele>3.0</ele><time>2026-05-05T09:01:48.729Z</time></trkpt><trkpt lat="37.0688192" lon="10.1152613"><ele>3.0</ele><time>2026-05-05T09:01:49.736Z</time></trkpt><trkpt lat="37.0686924" lon="10.1152111"><ele>3.0</ele><time>2026-05-05T09:01:50.736Z</time></trkpt><trkpt lat="37.0685676" lon="10.1151647"><ele>3.0</ele><time>2026-05-05T09:01:51.725Z</time></trkpt><trkpt lat="37.0684425" lon="10.1151341"><ele>3.0</ele><time>2026-05-05T09:01:52.745Z</time></trkpt><trkpt lat="37.0683124" lon="10.1151265"><ele>3.0</ele><time>2026-05-05T09:01:53.768Z</time></trkpt><trkpt lat="37.0681759" lon="10.1151386"><ele>3.0</ele><time>2026-05-05T09:01:54.729Z</time></trkpt><trkpt lat="37.0680378" lon="10.115165"><ele>2.5</ele><time>2026-05-05T09:01:55.723Z</time></trkpt><trkpt lat="37.0679006" lon="10.115195"><ele>2.0</ele><time>2026-05-05T09:01:56.744Z</time></trkpt><trkpt lat="37.0677619" lon="10.1152353"><ele>1.5</ele><time>2026-05-05T09:01:57.724Z</time></trkpt><trkpt lat="37.0676298" lon="10.1152775"><ele>1.0</ele><time>2026-05-05T09:01:58.729Z</time></trkpt><trkpt lat="37.0674897" lon="10.1153228"><ele>1.3333333333333333</ele><time>2026-05-05T09:01:59.731Z</time></trkpt><trkpt lat="37.0673437" lon="10.1153789"><ele>1.6666666666666665</ele><time>2026-05-05T09:02:00.735Z</time></trkpt><trkpt lat="37.0671932" lon="10.1154399"><ele>2.0</ele><time>2026-05-05T09:02:01.732Z</time></trkpt><trkpt lat="37.0670338" lon="10.1155063"><ele>2.0</ele><time>2026-05-05T09:02:02.751Z</time></trkpt><trkpt lat="37.0668652" lon="10.1155704"><ele>2.0</ele><time>2026-05-05T09:02:03.731Z</time></trkpt><trkpt lat="37.0666928" lon="10.1156365"><ele>2.0</ele><time>2026-05-05T09:02:04.745Z</time></trkpt><trkpt lat="37.0665246" lon="10.1157094"><ele>3.666666666666667</ele><time>2026-05-05T09:02:05.733Z</time></trkpt><trkpt lat="37.0663643" lon="10.115782"><ele>5.333333333333334</ele><time>2026-05-05T09:02:06.737Z</time></trkpt><trkpt lat="37.0662113" lon="10.1158628"><ele>7.0</ele><time>2026-05-05T09:02:07.726Z</time></trkpt><trkpt lat="37.0660663" lon="10.1159394"><ele>7.0</ele><time>2026-05-05T09:02:08.71Z</time></trkpt><trkpt lat="37.0659344" lon="10.116014"><ele>7.0</ele><time>2026-05-05T09:02:09.732Z</time></trkpt><trkpt lat="37.0658111" lon="10.1160808"><ele>7.0</ele><time>2026-05-05T09:02:10.742Z</time></trkpt><trkpt lat="37.0656945" lon="10.1161488"><ele>7.0</ele><time>2026-05-05T09:02:11.727Z</time></trkpt><trkpt lat="37.0655794" lon="10.1162079"><ele>7.0</ele><time>2026-05-05T09:02:12.74Z</time></trkpt><trkpt lat="37.0654792" lon="10.1162681"><ele>6.999999999999999</ele><time>2026-05-05T09:02:13.729Z</time></trkpt><trkpt lat="37.065395" lon="10.1163114"><ele>6.999999999999999</ele><time>2026-05-05T09:02:14.742Z</time></trkpt><trkpt lat="37.0652869" lon="10.1163614"><ele>7.0</ele><time>2026-05-05T09:02:16.737Z</time></trkpt><trkpt lat="37.06518" lon="10.1164193"><ele>7.0</ele><time>2026-05-05T09:02:18.726Z</time></trkpt><trkpt lat="37.0650701" lon="10.1165017"><ele>7.000000000000001</ele><time>2026-05-05T09:02:20.742Z</time></trkpt><trkpt lat="37.0650126" lon="10.1165553"><ele>7.0</ele><time>2026-05-05T09:02:21.704Z</time></trkpt><trkpt lat="37.0649428" lon="10.1165955"><ele>7.0</ele><time>2026-05-05T09:02:22.716Z</time></trkpt><trkpt lat="37.064876" lon="10.1166379"><ele>7.0</ele><time>2026-05-05T09:02:23.717Z</time></trkpt><trkpt lat="37.0648026" lon="10.116687"><ele>7.000000000000001</ele><time>2026-05-05T09:02:24.742Z</time></trkpt><trkpt lat="37.0647332" lon="10.1167304"><ele>7.0</ele><time>2026-05-05T09:02:25.731Z</time></trkpt><trkpt lat="37.0646731" lon="10.1167826"><ele>6.857142857142857</ele><time>2026-05-05T09:02:26.725Z</time></trkpt><trkpt lat="37.0646077" lon="10.1168349"><ele>6.714285714285714</ele><time>2026-05-05T09:02:27.74Z</time></trkpt><trkpt lat="37.0645484" lon="10.1168866"><ele>6.571428571428571</ele><time>2026-05-05T09:02:28.736Z</time></trkpt><trkpt lat="37.0644853" lon="10.1169346"><ele>6.428571428571429</ele><time>2026-05-05T09:02:29.742Z</time></trkpt><trkpt lat="37.0644291" lon="10.1169906"><ele>6.285714285714286</ele><time>2026-05-05T09:02:30.729Z</time></trkpt><trkpt lat="37.0643698" lon="10.1170414"><ele>6.142857142857142</ele><time>2026-05-05T09:02:31.697Z</time></trkpt><trkpt lat="37.0643105" lon="10.1170909"><ele>6.0</ele><time>2026-05-05T09:02:32.727Z</time></trkpt><trkpt lat="37.0642549" lon="10.1171461"><ele>5.999999999999999</ele><time>2026-05-05T09:02:33.735Z</time></trkpt><trkpt lat="37.0642047" lon="10.117203"><ele>6.0</ele><time>2026-05-05T09:02:34.708Z</time></trkpt><trkpt lat="37.0641468" lon="10.1172601"><ele>6.0</ele><time>2026-05-05T09:02:35.738Z</time></trkpt><trkpt lat="37.0640959" lon="10.1173184"><ele>6.0</ele><time>2026-05-05T09:02:36.729Z</time></trkpt><trkpt lat="37.0640505" lon="10.1173792"><ele>6.0</ele><time>2026-05-05T09:02:37.738Z</time></trkpt><trkpt lat="37.0640051" lon="10.1174434"><ele>5.999999999999999</ele><time>2026-05-05T09:02:38.734Z</time></trkpt><trkpt lat="37.063965" lon="10.1175066"><ele>6.0</ele><time>2026-05-05T09:02:39.723Z</time></trkpt><trkpt lat="37.0638887" lon="10.1176035"><ele>6.0</ele><time>2026-05-05T09:02:41.742Z</time></trkpt><trkpt lat="37.0638061" lon="10.1176984"><ele>6.0</ele><time>2026-05-05T09:02:43.743Z</time></trkpt><trkpt lat="37.0637167" lon="10.1177786"><ele>6.0</ele><time>2026-05-05T09:02:45.745Z</time></trkpt><trkpt lat="37.0636368" lon="10.1178591"><ele>6.0</ele><time>2026-05-05T09:02:47.744Z</time></trkpt><trkpt lat="37.0635491" lon="10.1179327"><ele>6.0</ele><time>2026-05-05T09:02:49.686Z</time></trkpt><trkpt lat="37.063461" lon="10.1180053"><ele>6.0</ele><time>2026-05-05T09:02:51.727Z</time></trkpt><trkpt lat="37.063368" lon="10.1180816"><ele>6.0</ele><time>2026-05-05T09:02:53.713Z</time></trkpt><trkpt lat="37.0632879" lon="10.1181487"><ele>6.0</ele><time>2026-05-05T09:02:55.741Z</time></trkpt><trkpt lat="37.063206" lon="10.1182033"><ele>6.0</ele><time>2026-05-05T09:02:57.738Z</time></trkpt><trkpt lat="37.0631276" lon="10.1182717"><ele>6.0</ele><time>2026-05-05T09:02:59.734Z</time></trkpt><trkpt lat="37.0630562" lon="10.1182897"><ele>6.142857142857142</ele><time>2026-05-05T09:03:01.743Z</time></trkpt><trkpt lat="37.062994" lon="10.1182666"><ele>6.285714285714286</ele><time>2026-05-05T09:03:04.723Z</time></trkpt><trkpt lat="37.0629174" lon="10.1182349"><ele>6.428571428571429</ele><time>2026-05-05T09:03:08.73Z</time></trkpt><trkpt lat="37.0628424" lon="10.1182059"><ele>6.571428571428571</ele><time>2026-05-05T09:03:12.715Z</time></trkpt><trkpt lat="37.0627785" lon="10.1181951"><ele>6.714285714285714</ele><time>2026-05-05T09:03:15.738Z</time></trkpt><trkpt lat="37.0627105" lon="10.1181914"><ele>6.857142857142857</ele><time>2026-05-05T09:03:18.757Z</time></trkpt><trkpt lat="37.0626193" lon="10.1181703"><ele>7.0</ele><time>2026-05-05T09:03:21.719Z</time></trkpt><trkpt lat="37.0625562" lon="10.1181406"><ele>7.000000000000001</ele><time>2026-05-05T09:03:23.728Z</time></trkpt><trkpt lat="37.0624854" lon="10.1181055"><ele>7.0</ele><time>2026-05-05T09:03:26.741Z</time></trkpt><trkpt lat="37.0624066" lon="10.1181153"><ele>7.0</ele><time>2026-05-05T09:03:30.711Z</time></trkpt><trkpt lat="37.0623504" lon="10.1181622"><ele>7.0</ele><time>2026-05-05T09:03:32.718Z</time></trkpt><trkpt lat="37.0622776" lon="10.118199"><ele>7.000000000000001</ele><time>2026-05-05T09:03:34.711Z</time></trkpt><trkpt lat="37.0621983" lon="10.1182405"><ele>7.0</ele><time>2026-05-05T09:03:36.71Z</time></trkpt><trkpt lat="37.0621339" lon="10.1182857"><ele>7.0</ele><time>2026-05-05T09:03:38.712Z</time></trkpt><trkpt lat="37.0620618" lon="10.1183173"><ele>6.999999999999999</ele><time>2026-05-05T09:03:40.729Z</time></trkpt><trkpt lat="37.0619615" lon="10.1183686"><ele>6.999999999999999</ele><time>2026-05-05T09:03:42.729Z</time></trkpt><trkpt lat="37.061848" lon="10.1184188"><ele>7.0</ele><time>2026-05-05T09:03:44.73Z</time></trkpt><trkpt lat="37.0617576" lon="10.1184561"><ele>7.0</ele><time>2026-05-05T09:03:46.737Z</time></trkpt><trkpt lat="37.0616782" lon="10.1184955"><ele>6.8</ele><time>2026-05-05T09:03:48.73Z</time></trkpt><trkpt lat="37.0615739" lon="10.1185371"><ele>6.6</ele><time>2026-05-05T09:03:50.733Z</time></trkpt><trkpt lat="37.0614719" lon="10.1185811"><ele>6.3999999999999995</ele><time>2026-05-05T09:03:52.732Z</time></trkpt><trkpt lat="37.0613819" lon="10.1186239"><ele>6.199999999999999</ele><time>2026-05-05T09:03:54.73Z</time></trkpt><trkpt lat="37.0612885" lon="10.1186524"><ele>6.0</ele><time>2026-05-05T09:03:56.731Z</time></trkpt><trkpt lat="37.0612073" lon="10.1186773"><ele>6.0</ele><time>2026-05-05T09:03:58.716Z</time></trkpt><trkpt lat="37.0611256" lon="10.1187105"><ele>6.0</ele><time>2026-05-05T09:04:00.725Z</time></trkpt><trkpt lat="37.0610514" lon="10.1187351"><ele>6.0</ele><time>2026-05-05T09:04:02.733Z</time></trkpt><trkpt lat="37.0609677" lon="10.1187669"><ele>6.0</ele><time>2026-05-05T09:04:04.729Z</time></trkpt><trkpt lat="37.0608663" lon="10.1188177"><ele>6.0</ele><time>2026-05-05T09:04:06.733Z</time></trkpt><trkpt lat="37.0607487" lon="10.118869"><ele>6.0</ele><time>2026-05-05T09:04:08.721Z</time></trkpt><trkpt lat="37.0606864" lon="10.1188926"><ele>6.0</ele><time>2026-05-05T09:04:09.735Z</time></trkpt><trkpt lat="37.0606244" lon="10.1189246"><ele>6.0</ele><time>2026-05-05T09:04:10.712Z</time></trkpt><trkpt lat="37.0605094" lon="10.1189886"><ele>6.0</ele><time>2026-05-05T09:04:12.734Z</time></trkpt><trkpt lat="37.0604354" lon="10.1190203"><ele>6.0</ele><time>2026-05-05T09:04:13.733Z</time></trkpt><trkpt lat="37.0603655" lon="10.119048"><ele>6.0</ele><time>2026-05-05T09:04:14.732Z</time></trkpt><trkpt lat="37.0602909" lon="10.1190753"><ele>5.833333333333333</ele><time>2026-05-05T09:04:15.733Z</time></trkpt><trkpt lat="37.0602251" lon="10.1191012"><ele>5.666666666666667</ele><time>2026-05-05T09:04:16.74Z</time></trkpt><trkpt lat="37.0601582" lon="10.1191312"><ele>5.5</ele><time>2026-05-05T09:04:17.685Z</time></trkpt><trkpt lat="37.0600942" lon="10.1191544"><ele>5.333333333333334</ele><time>2026-05-05T09:04:18.745Z</time></trkpt><trkpt lat="37.0599906" lon="10.119195"><ele>5.166666666666667</ele><time>2026-05-05T09:04:20.72Z</time></trkpt><trkpt lat="37.0599124" lon="10.1192184"><ele>5.0</ele><time>2026-05-05T09:04:22.745Z</time></trkpt><trkpt lat="37.0598449" lon="10.1192523"><ele>4.5</ele><time>2026-05-05T09:04:24.739Z</time></trkpt><trkpt lat="37.0597316" lon="10.1193069"><ele>4.0</ele><time>2026-05-05T09:04:26.75Z</time></trkpt><trkpt lat="37.0596697" lon="10.1193346"><ele>3.5</ele><time>2026-05-05T09:04:27.702Z</time></trkpt><trkpt lat="37.0595995" lon="10.1193647"><ele>3.0</ele><time>2026-05-05T09:04:28.729Z</time></trkpt><trkpt lat="37.059528" lon="10.1193898"><ele>2.5</ele><time>2026-05-05T09:04:29.741Z</time></trkpt><trkpt lat="37.0594477" lon="10.1194076"><ele>2.0</ele><time>2026-05-05T09:04:30.736Z</time></trkpt><trkpt lat="37.0593635" lon="10.1194311"><ele>1.9999999999999998</ele><time>2026-05-05T09:04:31.742Z</time></trkpt><trkpt lat="37.0592845" lon="10.1194634"><ele>2.0</ele><time>2026-05-05T09:04:32.733Z</time></trkpt><trkpt lat="37.0592033" lon="10.1194891"><ele>2.0</ele><time>2026-05-05T09:04:33.737Z</time></trkpt><trkpt lat="37.059122" lon="10.1195173"><ele>2.0</ele><time>2026-05-05T09:04:34.706Z</time></trkpt><trkpt lat="37.0590425" lon="10.119551"><ele>1.9999999999999998</ele><time>2026-05-05T09:04:35.731Z</time></trkpt><trkpt lat="37.0589652" lon="10.1195825"><ele>2.0</ele><time>2026-05-05T09:04:36.73Z</time></trkpt><trkpt lat="37.0588815" lon="10.1196108"><ele>2.1666666666666665</ele><time>2026-05-05T09:04:37.726Z</time></trkpt><trkpt lat="37.0587985" lon="10.1196408"><ele>2.333333333333333</ele><time>2026-05-05T09:04:38.698Z</time></trkpt><trkpt lat="37.0587148" lon="10.1196786"><ele>2.5</ele><time>2026-05-05T09:04:39.71Z</time></trkpt><trkpt lat="37.0586375" lon="10.1197064"><ele>2.6666666666666665</ele><time>2026-05-05T09:04:40.735Z</time></trkpt><trkpt lat="37.0585546" lon="10.1197283"><ele>2.8333333333333335</ele><time>2026-05-05T09:04:41.723Z</time></trkpt><trkpt lat="37.0584771" lon="10.1197535"><ele>3.0</ele><time>2026-05-05T09:04:42.719Z</time></trkpt><trkpt lat="37.0584009" lon="10.1197812"><ele>3.0</ele><time>2026-05-05T09:04:43.715Z</time></trkpt><trkpt lat="37.0583272" lon="10.1198143"><ele>3.0</ele><time>2026-05-05T09:04:44.728Z</time></trkpt><trkpt lat="37.058252" lon="10.1198432"><ele>3.0</ele><time>2026-05-05T09:04:45.71Z</time></trkpt><trkpt lat="37.0581775" lon="10.1198686"><ele>3.0</ele><time>2026-05-05T09:04:46.697Z</time></trkpt><trkpt lat="37.0581041" lon="10.1198971"><ele>3.0</ele><time>2026-05-05T09:04:47.723Z</time></trkpt><trkpt lat="37.0580343" lon="10.1199262"><ele>3.0</ele><time>2026-05-05T09:04:48.726Z</time></trkpt><trkpt lat="37.0579637" lon="10.119963"><ele>3.0</ele><time>2026-05-05T09:04:49.736Z</time></trkpt><trkpt lat="37.0578989" lon="10.1199941"><ele>3.0</ele><time>2026-05-05T09:04:50.741Z</time></trkpt><trkpt lat="37.0578339" lon="10.1200215"><ele>3.0</ele><time>2026-05-05T09:04:51.712Z</time></trkpt><trkpt lat="37.0577099" lon="10.1200564"><ele>3.0</ele><time>2026-05-05T09:04:53.742Z</time></trkpt><trkpt lat="37.0576378" lon="10.1200763"><ele>3.0</ele><time>2026-05-05T09:04:54.746Z</time></trkpt><trkpt lat="37.0575678" lon="10.1200972"><ele>3.0</ele><time>2026-05-05T09:04:55.717Z</time></trkpt><trkpt lat="37.0574917" lon="10.1201195"><ele>2.9999999999999996</ele><time>2026-05-05T09:04:56.733Z</time></trkpt><trkpt lat="37.0574165" lon="10.1201485"><ele>3.0</ele><time>2026-05-05T09:04:57.735Z</time></trkpt><trkpt lat="37.0573439" lon="10.1201722"><ele>3.0</ele><time>2026-05-05T09:04:58.69Z</time></trkpt><trkpt lat="37.0572745" lon="10.1201973"><ele>3.0</ele><time>2026-05-05T09:04:59.721Z</time></trkpt><trkpt lat="37.0572079" lon="10.120224"><ele>3.0</ele><time>2026-05-05T09:05:00.713Z</time></trkpt><trkpt lat="37.0571452" lon="10.1202484"><ele>2.9999999999999996</ele><time>2026-05-05T09:05:01.737Z</time></trkpt><trkpt lat="37.057083" lon="10.1202764"><ele>3.0</ele><time>2026-05-05T09:05:02.751Z</time></trkpt><trkpt lat="37.0569782" lon="10.1203206"><ele>2.9999999999999996</ele><time>2026-05-05T09:05:04.745Z</time></trkpt><trkpt lat="37.056913" lon="10.1203321"><ele>3.0</ele><time>2026-05-05T09:05:05.748Z</time></trkpt><trkpt lat="37.0568463" lon="10.1203552"><ele>3.0</ele><time>2026-05-05T09:05:06.72Z</time></trkpt><trkpt lat="37.0567735" lon="10.120388"><ele>3.0</ele><time>2026-05-05T09:05:07.747Z</time></trkpt><trkpt lat="37.0566972" lon="10.1204147"><ele>3.0</ele><time>2026-05-05T09:05:08.739Z</time></trkpt><trkpt lat="37.0566265" lon="10.1204404"><ele>2.9999999999999996</ele><time>2026-05-05T09:05:09.74Z</time></trkpt><trkpt lat="37.0565554" lon="10.1204661"><ele>3.0</ele><time>2026-05-05T09:05:10.747Z</time></trkpt><trkpt lat="37.0564866" lon="10.1204913"><ele>2.9999999999999996</ele><time>2026-05-05T09:05:11.737Z</time></trkpt><trkpt lat="37.0564214" lon="10.1205176"><ele>3.0</ele><time>2026-05-05T09:05:12.731Z</time></trkpt><trkpt lat="37.0563565" lon="10.1205446"><ele>3.0</ele><time>2026-05-05T09:05:13.746Z</time></trkpt><trkpt lat="37.0562909" lon="10.120571"><ele>3.0</ele><time>2026-05-05T09:05:14.732Z</time></trkpt><trkpt lat="37.0562226" lon="10.1206028"><ele>3.0</ele><time>2026-05-05T09:05:15.729Z</time></trkpt><trkpt lat="37.0561489" lon="10.1206301"><ele>2.9999999999999996</ele><time>2026-05-05T09:05:16.749Z</time></trkpt><trkpt lat="37.0560767" lon="10.1206623"><ele>3.0</ele><time>2026-05-05T09:05:17.709Z</time></trkpt><trkpt lat="37.0560045" lon="10.1206849"><ele>3.0</ele><time>2026-05-05T09:05:18.711Z</time></trkpt><trkpt lat="37.0559347" lon="10.1207094"><ele>3.0</ele><time>2026-05-05T09:05:19.74Z</time></trkpt><trkpt lat="37.0558625" lon="10.120737"><ele>3.0</ele><time>2026-05-05T09:05:20.718Z</time></trkpt><trkpt lat="37.055796" lon="10.1207644"><ele>3.0</ele><time>2026-05-05T09:05:21.744Z</time></trkpt><trkpt lat="37.0557231" lon="10.1207971"><ele>3.0</ele><time>2026-05-05T09:05:22.736Z</time></trkpt><trkpt lat="37.0556491" lon="10.1208299"><ele>3.0</ele><time>2026-05-05T09:05:23.757Z</time></trkpt><trkpt lat="37.0555743" lon="10.1208658"><ele>3.0</ele><time>2026-05-05T09:05:24.744Z</time></trkpt><trkpt lat="37.055491" lon="10.1208941"><ele>3.0</ele><time>2026-05-05T09:05:25.739Z</time></trkpt><trkpt lat="37.055413" lon="10.1209323"><ele>3.0</ele><time>2026-05-05T09:05:26.733Z</time></trkpt><trkpt lat="37.0553331" lon="10.1209672"><ele>3.0</ele><time>2026-05-05T09:05:27.695Z</time></trkpt><trkpt lat="37.0552521" lon="10.1210014"><ele>3.0</ele><time>2026-05-05T09:05:28.687Z</time></trkpt><trkpt lat="37.0551801" lon="10.121044"><ele>3.0</ele><time>2026-05-05T09:05:29.696Z</time></trkpt><trkpt lat="37.0551005" lon="10.1210808"><ele>3.0</ele><time>2026-05-05T09:05:30.717Z</time></trkpt><trkpt lat="37.0550258" lon="10.1211081"><ele>3.0</ele><time>2026-05-05T09:05:31.746Z</time></trkpt><trkpt lat="37.0549493" lon="10.1211317"><ele>3.0</ele><time>2026-05-05T09:05:32.689Z</time></trkpt><trkpt lat="37.0548904" lon="10.1211648"><ele>3.0</ele><time>2026-05-05T09:05:33.725Z</time></trkpt><trkpt lat="37.0547792" lon="10.1212061"><ele>3.0</ele><time>2026-05-05T09:05:35.739Z</time></trkpt><trkpt lat="37.0546848" lon="10.1212589"><ele>3.0</ele><time>2026-05-05T09:05:37.696Z</time></trkpt><trkpt lat="37.0545928" lon="10.1213145"><ele>3.0</ele><time>2026-05-05T09:05:39.73Z</time></trkpt><trkpt lat="37.0544823" lon="10.1213683"><ele>3.0</ele><time>2026-05-05T09:05:41.719Z</time></trkpt><trkpt lat="37.0543755" lon="10.1214187"><ele>3.0</ele><time>2026-05-05T09:05:43.711Z</time></trkpt><trkpt lat="37.0542774" lon="10.1214671"><ele>3.0</ele><time>2026-05-05T09:05:45.7Z</time></trkpt><trkpt lat="37.0541793" lon="10.1215094"><ele>3.0</ele><time>2026-05-05T09:05:47.73Z</time></trkpt><trkpt lat="37.0540827" lon="10.1215634"><ele>3.0</ele><time>2026-05-05T09:05:49.743Z</time></trkpt><trkpt lat="37.0539828" lon="10.1216201"><ele>3.0</ele><time>2026-05-05T09:05:51.735Z</time></trkpt><trkpt lat="37.0538964" lon="10.1216635"><ele>3.0</ele><time>2026-05-05T09:05:53.712Z</time></trkpt><trkpt lat="37.0538064" lon="10.1217082"><ele>3.0</ele><time>2026-05-05T09:05:55.75Z</time></trkpt><trkpt lat="37.0537042" lon="10.1217656"><ele>3.0</ele><time>2026-05-05T09:05:57.742Z</time></trkpt><trkpt lat="37.0535829" lon="10.1218241"><ele>3.0</ele><time>2026-05-05T09:05:59.741Z</time></trkpt><trkpt lat="37.0535223" lon="10.1218551"><ele>3.0</ele><time>2026-05-05T09:06:00.736Z</time></trkpt><trkpt lat="37.0534633" lon="10.121887"><ele>3.0</ele><time>2026-05-05T09:06:01.72Z</time></trkpt><trkpt lat="37.0533555" lon="10.1219378"><ele>3.0</ele><time>2026-05-05T09:06:03.735Z</time></trkpt><trkpt lat="37.0532608" lon="10.1219866"><ele>3.0</ele><time>2026-05-05T09:06:05.718Z</time></trkpt><trkpt lat="37.0531524" lon="10.1220421"><ele>2.6666666666666665</ele><time>2026-05-05T09:06:07.74Z</time></trkpt><trkpt lat="37.0530864" lon="10.1220728"><ele>2.3333333333333335</ele><time>2026-05-05T09:06:08.727Z</time></trkpt><trkpt lat="37.0530162" lon="10.1221104"><ele>2.0</ele><time>2026-05-05T09:06:09.732Z</time></trkpt><trkpt lat="37.0529412" lon="10.1221451"><ele>1.6666666666666665</ele><time>2026-05-05T09:06:10.739Z</time></trkpt><trkpt lat="37.0528649" lon="10.1221925"><ele>1.3333333333333333</ele><time>2026-05-05T09:06:11.73Z</time></trkpt><trkpt lat="37.0527877" lon="10.122234"><ele>1.0</ele><time>2026-05-05T09:06:12.741Z</time></trkpt><trkpt lat="37.0527055" lon="10.1222771"><ele>1.0</ele><time>2026-05-05T09:06:13.743Z</time></trkpt><trkpt lat="37.0526231" lon="10.1223198"><ele>1.0</ele><time>2026-05-05T09:06:14.743Z</time></trkpt><trkpt lat="37.0525378" lon="10.1223597"><ele>1.0</ele><time>2026-05-05T09:06:15.73Z</time></trkpt><trkpt lat="37.0524466" lon="10.1224054"><ele>1.0</ele><time>2026-05-05T09:06:16.728Z</time></trkpt><trkpt lat="37.0523453" lon="10.1224513"><ele>1.0</ele><time>2026-05-05T09:06:17.727Z</time></trkpt><trkpt lat="37.0522428" lon="10.1224933"><ele>1.0</ele><time>2026-05-05T09:06:18.731Z</time></trkpt><trkpt lat="37.052138" lon="10.1225408"><ele>1.0</ele><time>2026-05-05T09:06:19.752Z</time></trkpt><trkpt lat="37.0520308" lon="10.1225807"><ele>1.0</ele><time>2026-05-05T09:06:20.733Z</time></trkpt><trkpt lat="37.0519283" lon="10.1226194"><ele>1.0</ele><time>2026-05-05T09:06:21.743Z</time></trkpt><trkpt lat="37.0518308" lon="10.1226537"><ele>1.0</ele><time>2026-05-05T09:06:22.74Z</time></trkpt><trkpt lat="37.0517349" lon="10.1226897"><ele>1.0</ele><time>2026-05-05T09:06:23.746Z</time></trkpt><trkpt lat="37.0516368" lon="10.1227339"><ele>1.0</ele><time>2026-05-05T09:06:24.734Z</time></trkpt><trkpt lat="37.0515338" lon="10.1227799"><ele>1.0</ele><time>2026-05-05T09:06:25.757Z</time></trkpt><trkpt lat="37.051425" lon="10.122826"><ele>1.0</ele><time>2026-05-05T09:06:26.736Z</time></trkpt><trkpt lat="37.051307" lon="10.1228733"><ele>0.75</ele><time>2026-05-05T09:06:27.713Z</time></trkpt><trkpt lat="37.0511816" lon="10.1229218"><ele>0.5</ele><time>2026-05-05T09:06:28.738Z</time></trkpt><trkpt lat="37.0510531" lon="10.1229729"><ele>0.25</ele><time>2026-05-05T09:06:29.723Z</time></trkpt><trkpt lat="37.0509245" lon="10.123027"><ele>0.0</ele><time>2026-05-05T09:06:30.742Z</time></trkpt><trkpt lat="37.0507985" lon="10.1230823"><ele>-0.25</ele><time>2026-05-05T09:06:31.75Z</time></trkpt><trkpt lat="37.0506718" lon="10.1231445"><ele>-0.5</ele><time>2026-05-05T09:06:32.751Z</time></trkpt><trkpt lat="37.0505415" lon="10.1232067"><ele>-0.75</ele><time>2026-05-05T09:06:33.731Z</time></trkpt><trkpt lat="37.0503999" lon="10.123273"><ele>-1.0</ele><time>2026-05-05T09:06:34.722Z</time></trkpt><trkpt lat="37.0502552" lon="10.1233387"><ele>-1.0</ele><time>2026-05-05T09:06:35.712Z</time></trkpt><trkpt lat="37.0501103" lon="10.1234109"><ele>-1.0</ele><time>2026-05-05T09:06:36.731Z</time></trkpt><trkpt lat="37.049964" lon="10.1234824"><ele>-1.0</ele><time>2026-05-05T09:06:37.732Z</time></trkpt><trkpt lat="37.0498228" lon="10.1235523"><ele>-0.6666666666666666</ele><time>2026-05-05T09:06:38.724Z</time></trkpt><trkpt lat="37.0496771" lon="10.1236252"><ele>-0.3333333333333333</ele><time>2026-05-05T09:06:39.739Z</time></trkpt><trkpt lat="37.0495311" lon="10.123702"><ele>0.0</ele><time>2026-05-05T09:06:40.733Z</time></trkpt><trkpt lat="37.0493752" lon="10.123773"><ele>0.0</ele><time>2026-05-05T09:06:41.737Z</time></trkpt><trkpt lat="37.0492225" lon="10.1238435"><ele>0.0</ele><time>2026-05-05T09:06:42.726Z</time></trkpt><trkpt lat="37.049072" lon="10.1239212"><ele>0.0</ele><time>2026-05-05T09:06:43.743Z</time></trkpt><trkpt lat="37.0489152" lon="10.1239993"><ele>0.3333333333333333</ele><time>2026-05-05T09:06:44.732Z</time></trkpt><trkpt lat="37.0487632" lon="10.1240694"><ele>0.6666666666666666</ele><time>2026-05-05T09:06:45.736Z</time></trkpt><trkpt lat="37.0486134" lon="10.1241428"><ele>1.0</ele><time>2026-05-05T09:06:46.737Z</time></trkpt><trkpt lat="37.0484631" lon="10.124212"><ele>1.0</ele><time>2026-05-05T09:06:47.712Z</time></trkpt><trkpt lat="37.0483155" lon="10.1242823"><ele>1.0</ele><time>2026-05-05T09:06:48.749Z</time></trkpt><trkpt lat="37.0481709" lon="10.1243505"><ele>1.0</ele><time>2026-05-05T09:06:49.729Z</time></trkpt><trkpt lat="37.0480295" lon="10.1244207"><ele>1.0</ele><time>2026-05-05T09:06:50.734Z</time></trkpt><trkpt lat="37.0478861" lon="10.1244963"><ele>1.0</ele><time>2026-05-05T09:06:51.736Z</time></trkpt><trkpt lat="37.0477495" lon="10.124579"><ele>1.0</ele><time>2026-05-05T09:06:52.729Z</time></trkpt><trkpt lat="37.0476129" lon="10.1246605"><ele>1.0</ele><time>2026-05-05T09:06:53.731Z</time></trkpt><trkpt lat="37.047474" lon="10.1247428"><ele>1.0</ele><time>2026-05-05T09:06:54.734Z</time></trkpt><trkpt lat="37.0473385" lon="10.1248267"><ele>1.0</ele><time>2026-05-05T09:06:55.714Z</time></trkpt><trkpt lat="37.047203" lon="10.1249161"><ele>0.3333333333333333</ele><time>2026-05-05T09:06:56.734Z</time></trkpt><trkpt lat="37.0470657" lon="10.1250099"><ele>-0.3333333333333333</ele><time>2026-05-05T09:06:57.737Z</time></trkpt><trkpt lat="37.0469314" lon="10.1251093"><ele>-1.0</ele><time>2026-05-05T09:06:58.725Z</time></trkpt><trkpt lat="37.0467926" lon="10.125203"><ele>-1.0</ele><time>2026-05-05T09:06:59.733Z</time></trkpt><trkpt lat="37.0466569" lon="10.1253089"><ele>-1.0</ele><time>2026-05-05T09:07:00.737Z</time></trkpt><trkpt lat="37.0465215" lon="10.1254229"><ele>-1.0</ele><time>2026-05-05T09:07:01.744Z</time></trkpt><trkpt lat="37.0463817" lon="10.1255467"><ele>-0.3333333333333333</ele><time>2026-05-05T09:07:02.745Z</time></trkpt><trkpt lat="37.0462328" lon="10.1256927"><ele>0.3333333333333333</ele><time>2026-05-05T09:07:03.731Z</time></trkpt><trkpt lat="37.046077" lon="10.1258555"><ele>1.0</ele><time>2026-05-05T09:07:04.735Z</time></trkpt><trkpt lat="37.0459075" lon="10.1260257"><ele>0.6666666666666666</ele><time>2026-05-05T09:07:05.714Z</time></trkpt><trkpt lat="37.0457331" lon="10.1261982"><ele>0.3333333333333333</ele><time>2026-05-05T09:07:06.738Z</time></trkpt><trkpt lat="37.0455565" lon="10.1263677"><ele>0.0</ele><time>2026-05-05T09:07:07.736Z</time></trkpt><trkpt lat="37.045383" lon="10.1265386"><ele>0.0</ele><time>2026-05-05T09:07:08.728Z</time></trkpt><trkpt lat="37.0452055" lon="10.1266977"><ele>0.0</ele><time>2026-05-05T09:07:09.724Z</time></trkpt><trkpt lat="37.045031" lon="10.1268455"><ele>0.0</ele><time>2026-05-05T09:07:10.71Z</time></trkpt><trkpt lat="37.0448544" lon="10.1269826"><ele>0.0</ele><time>2026-05-05T09:07:11.74Z</time></trkpt><trkpt lat="37.0446837" lon="10.1271295"><ele>0.0</ele><time>2026-05-05T09:07:12.727Z</time></trkpt><trkpt lat="37.0445161" lon="10.1272727"><ele>0.0</ele><time>2026-05-05T09:07:13.703Z</time></trkpt><trkpt lat="37.0443479" lon="10.1274228"><ele>0.0</ele><time>2026-05-05T09:07:14.725Z</time></trkpt><trkpt lat="37.0441809" lon="10.1275752"><ele>0.0</ele><time>2026-05-05T09:07:15.724Z</time></trkpt><trkpt lat="37.0440114" lon="10.1277314"><ele>0.0</ele><time>2026-05-05T09:07:16.734Z</time></trkpt><trkpt lat="37.043836" lon="10.1278973"><ele>0.0</ele><time>2026-05-05T09:07:17.74Z</time></trkpt><trkpt lat="37.0436568" lon="10.1280569"><ele>0.0</ele><time>2026-05-05T09:07:18.737Z</time></trkpt><trkpt lat="37.0434842" lon="10.1282178"><ele>0.0</ele><time>2026-05-05T09:07:19.718Z</time></trkpt><trkpt lat="37.0433137" lon="10.1283788"><ele>0.3333333333333333</ele><time>2026-05-05T09:07:20.742Z</time></trkpt><trkpt lat="37.0431367" lon="10.1285387"><ele>0.6666666666666666</ele><time>2026-05-05T09:07:21.728Z</time></trkpt><trkpt lat="37.0429608" lon="10.1287007"><ele>1.0</ele><time>2026-05-05T09:07:22.721Z</time></trkpt><trkpt lat="37.0427867" lon="10.1288564"><ele>1.0</ele><time>2026-05-05T09:07:23.733Z</time></trkpt><trkpt lat="37.0426142" lon="10.1290186"><ele>1.0</ele><time>2026-05-05T09:07:24.729Z</time></trkpt><trkpt lat="37.0424407" lon="10.1291746"><ele>1.0</ele><time>2026-05-05T09:07:25.727Z</time></trkpt><trkpt lat="37.0422687" lon="10.1293289"><ele>0.6666666666666666</ele><time>2026-05-05T09:07:26.725Z</time></trkpt><trkpt lat="37.0420943" lon="10.1294874"><ele>0.3333333333333333</ele><time>2026-05-05T09:07:27.734Z</time></trkpt><trkpt lat="37.0419195" lon="10.1296462"><ele>0.0</ele><time>2026-05-05T09:07:28.699Z</time></trkpt><trkpt lat="37.041742" lon="10.1298026"><ele>0.3333333333333333</ele><time>2026-05-05T09:07:29.728Z</time></trkpt><trkpt lat="37.0415688" lon="10.129959"><ele>0.6666666666666666</ele><time>2026-05-05T09:07:30.713Z</time></trkpt><trkpt lat="37.0413939" lon="10.1301196"><ele>1.0</ele><time>2026-05-05T09:07:31.731Z</time></trkpt><trkpt lat="37.0412189" lon="10.1302774"><ele>1.0</ele><time>2026-05-05T09:07:32.737Z</time></trkpt><trkpt lat="37.0410506" lon="10.1304343"><ele>1.0</ele><time>2026-05-05T09:07:33.743Z</time></trkpt><trkpt lat="37.0408891" lon="10.1305826"><ele>1.0</ele><time>2026-05-05T09:07:34.721Z</time></trkpt><trkpt lat="37.0407405" lon="10.1307202"><ele>0.3333333333333333</ele><time>2026-05-05T09:07:35.712Z</time></trkpt><trkpt lat="37.0405916" lon="10.1308535"><ele>-0.3333333333333333</ele><time>2026-05-05T09:07:36.727Z</time></trkpt><trkpt lat="37.0404423" lon="10.1309858"><ele>-1.0</ele><time>2026-05-05T09:07:37.73Z</time></trkpt><trkpt lat="37.0403015" lon="10.131112"><ele>-1.0</ele><time>2026-05-05T09:07:38.73Z</time></trkpt><trkpt lat="37.04016" lon="10.1312347"><ele>-1.0</ele><time>2026-05-05T09:07:39.728Z</time></trkpt><trkpt lat="37.0400164" lon="10.131355"><ele>-1.0</ele><time>2026-05-05T09:07:40.739Z</time></trkpt><trkpt lat="37.0398739" lon="10.1314745"><ele>-1.3333333333333333</ele><time>2026-05-05T09:07:41.735Z</time></trkpt><trkpt lat="37.039723" lon="10.1315924"><ele>-1.6666666666666665</ele><time>2026-05-05T09:07:42.713Z</time></trkpt><trkpt lat="37.0395711" lon="10.1317068"><ele>-2.0</ele><time>2026-05-05T09:07:43.733Z</time></trkpt><trkpt lat="37.0394102" lon="10.1318172"><ele>-2.0</ele><time>2026-05-05T09:07:44.731Z</time></trkpt><trkpt lat="37.0392461" lon="10.1319286"><ele>-2.0</ele><time>2026-05-05T09:07:45.737Z</time></trkpt><trkpt lat="37.0390788" lon="10.1320355"><ele>-2.0</ele><time>2026-05-05T09:07:46.738Z</time></trkpt><trkpt lat="37.0389072" lon="10.1321441"><ele>-1.6666666666666665</ele><time>2026-05-05T09:07:47.737Z</time></trkpt><trkpt lat="37.038728" lon="10.1322478"><ele>-1.3333333333333333</ele><time>2026-05-05T09:07:48.737Z</time></trkpt><trkpt lat="37.0385466" lon="10.1323479"><ele>-1.0</ele><time>2026-05-05T09:07:49.718Z</time></trkpt><trkpt lat="37.0383556" lon="10.1324425"><ele>-1.0</ele><time>2026-05-05T09:07:50.735Z</time></trkpt><trkpt lat="37.0381606" lon="10.1325234"><ele>-1.0</ele><time>2026-05-05T09:07:51.727Z</time></trkpt><trkpt lat="37.0379649" lon="10.1326007"><ele>-1.0</ele><time>2026-05-05T09:07:52.729Z</time></trkpt><trkpt lat="37.0377651" lon="10.1326767"><ele>-1.0</ele><time>2026-05-05T09:07:53.739Z</time></trkpt><trkpt lat="37.0375683" lon="10.1327546"><ele>-1.0</ele><time>2026-05-05T09:07:54.735Z</time></trkpt><trkpt lat="37.0373709" lon="10.1328303"><ele>-1.0</ele><time>2026-05-05T09:07:55.735Z</time></trkpt><trkpt lat="37.0371695" lon="10.132913"><ele>-1.0</ele><time>2026-05-05T09:07:56.705Z</time></trkpt><trkpt lat="37.0369711" lon="10.1329944"><ele>-1.0</ele><time>2026-05-05T09:07:57.733Z</time></trkpt><trkpt lat="37.0367752" lon="10.1330866"><ele>-1.0</ele><time>2026-05-05T09:07:58.714Z</time></trkpt><trkpt lat="37.0365831" lon="10.1331796"><ele>-0.6666666666666666</ele><time>2026-05-05T09:07:59.742Z</time></trkpt><trkpt lat="37.0363916" lon="10.1332773"><ele>-0.3333333333333333</ele><time>2026-05-05T09:08:00.719Z</time></trkpt><trkpt lat="37.0362005" lon="10.1333831"><ele>0.0</ele><time>2026-05-05T09:08:01.729Z</time></trkpt><trkpt lat="37.0360115" lon="10.1334891"><ele>0.0</ele><time>2026-05-05T09:08:02.741Z</time></trkpt><trkpt lat="37.0358183" lon="10.1335919"><ele>0.0</ele><time>2026-05-05T09:08:03.734Z</time></trkpt><trkpt lat="37.0356244" lon="10.1337014"><ele>0.0</ele><time>2026-05-05T09:08:04.732Z</time></trkpt><trkpt lat="37.0354307" lon="10.1338095"><ele>0.3333333333333333</ele><time>2026-05-05T09:08:05.742Z</time></trkpt><trkpt lat="37.0352347" lon="10.13392"><ele>0.6666666666666666</ele><time>2026-05-05T09:08:06.741Z</time></trkpt><trkpt lat="37.0350359" lon="10.1340275"><ele>1.0</ele><time>2026-05-05T09:08:07.735Z</time></trkpt><trkpt lat="37.0348453" lon="10.1341372"><ele>1.3333333333333333</ele><time>2026-05-05T09:08:08.734Z</time></trkpt><trkpt lat="37.034653" lon="10.1342422"><ele>1.6666666666666665</ele><time>2026-05-05T09:08:09.728Z</time></trkpt><trkpt lat="37.034463" lon="10.134347"><ele>2.0</ele><time>2026-05-05T09:08:10.727Z</time></trkpt><trkpt lat="37.0342726" lon="10.1344559"><ele>1.6666666666666665</ele><time>2026-05-05T09:08:11.731Z</time></trkpt><trkpt lat="37.0340844" lon="10.1345607"><ele>1.3333333333333333</ele><time>2026-05-05T09:08:12.735Z</time></trkpt><trkpt lat="37.0338887" lon="10.1346646"><ele>1.0</ele><time>2026-05-05T09:08:13.72Z</time></trkpt><trkpt lat="37.0336964" lon="10.1347726"><ele>1.0</ele><time>2026-05-05T09:08:14.728Z</time></trkpt><trkpt lat="37.0335075" lon="10.1348791"><ele>1.0</ele><time>2026-05-05T09:08:15.73Z</time></trkpt><trkpt lat="37.0333127" lon="10.1349855"><ele>1.0</ele><time>2026-05-05T09:08:16.727Z</time></trkpt><trkpt lat="37.0331214" lon="10.1350926"><ele>1.0</ele><time>2026-05-05T09:08:17.726Z</time></trkpt><trkpt lat="37.0329256" lon="10.1351991"><ele>1.0</ele><time>2026-05-05T09:08:18.734Z</time></trkpt><trkpt lat="37.0327305" lon="10.1353029"><ele>1.0</ele><time>2026-05-05T09:08:19.733Z</time></trkpt><trkpt lat="37.0325328" lon="10.1354115"><ele>0.6666666666666666</ele><time>2026-05-05T09:08:20.744Z</time></trkpt><trkpt lat="37.0323417" lon="10.1355142"><ele>0.3333333333333333</ele><time>2026-05-05T09:08:21.737Z</time></trkpt><trkpt lat="37.0321473" lon="10.1356196"><ele>0.0</ele><time>2026-05-05T09:08:22.728Z</time></trkpt><trkpt lat="37.0319541" lon="10.1357269"><ele>0.0</ele><time>2026-05-05T09:08:23.736Z</time></trkpt><trkpt lat="37.0317607" lon="10.1358292"><ele>0.0</ele><time>2026-05-05T09:08:24.728Z</time></trkpt><trkpt lat="37.0315673" lon="10.1359347"><ele>0.0</ele><time>2026-05-05T09:08:25.735Z</time></trkpt><trkpt lat="37.0313743" lon="10.13604"><ele>0.0</ele><time>2026-05-05T09:08:26.728Z</time></trkpt><trkpt lat="37.0311815" lon="10.1361409"><ele>0.0</ele><time>2026-05-05T09:08:27.711Z</time></trkpt><trkpt lat="37.0309895" lon="10.1362467"><ele>0.0</ele><time>2026-05-05T09:08:28.73Z</time></trkpt><trkpt lat="37.0307943" lon="10.136354"><ele>0.0</ele><time>2026-05-05T09:08:29.752Z</time></trkpt><trkpt lat="37.030601" lon="10.1364585"><ele>0.0</ele><time>2026-05-05T09:08:30.685Z</time></trkpt><trkpt lat="37.0304109" lon="10.1365651"><ele>0.0</ele><time>2026-05-05T09:08:31.71Z</time></trkpt><trkpt lat="37.030227" lon="10.1366726"><ele>-0.3333333333333333</ele><time>2026-05-05T09:08:32.719Z</time></trkpt><trkpt lat="37.0300362" lon="10.136773"><ele>-0.6666666666666666</ele><time>2026-05-05T09:08:33.734Z</time></trkpt><trkpt lat="37.0298512" lon="10.136875"><ele>-1.0</ele><time>2026-05-05T09:08:34.712Z</time></trkpt><trkpt lat="37.0296643" lon="10.1369814"><ele>-1.0</ele><time>2026-05-05T09:08:35.72Z</time></trkpt><trkpt lat="37.0294781" lon="10.1370882"><ele>-1.0</ele><time>2026-05-05T09:08:36.739Z</time></trkpt><trkpt lat="37.0292944" lon="10.137187"><ele>-1.0</ele><time>2026-05-05T09:08:37.729Z</time></trkpt><trkpt lat="37.0291115" lon="10.1372919"><ele>-0.3333333333333333</ele><time>2026-05-05T09:08:38.735Z</time></trkpt><trkpt lat="37.028928" lon="10.1373935"><ele>0.3333333333333333</ele><time>2026-05-05T09:08:39.74Z</time></trkpt><trkpt lat="37.0287459" lon="10.1374889"><ele>1.0</ele><time>2026-05-05T09:08:40.737Z</time></trkpt><trkpt lat="37.0285643" lon="10.1375867"><ele>1.0</ele><time>2026-05-05T09:08:41.725Z</time></trkpt><trkpt lat="37.0283864" lon="10.1376888"><ele>1.0</ele><time>2026-05-05T09:08:42.728Z</time></trkpt><trkpt lat="37.0282029" lon="10.1377911"><ele>1.0</ele><time>2026-05-05T09:08:43.734Z</time></trkpt><trkpt lat="37.02802" lon="10.1378906"><ele>0.6666666666666666</ele><time>2026-05-05T09:08:44.718Z</time></trkpt><trkpt lat="37.0278381" lon="10.1379924"><ele>0.3333333333333333</ele><time>2026-05-05T09:08:45.733Z</time></trkpt><trkpt lat="37.0276561" lon="10.1380929"><ele>0.0</ele><time>2026-05-05T09:08:46.731Z</time></trkpt><trkpt lat="37.0274745" lon="10.1381894"><ele>0.0</ele><time>2026-05-05T09:08:47.735Z</time></trkpt><trkpt lat="37.0272873" lon="10.1382887"><ele>0.0</ele><time>2026-05-05T09:08:48.72Z</time></trkpt><trkpt lat="37.0271089" lon="10.1383875"><ele>0.0</ele><time>2026-05-05T09:08:49.738Z</time></trkpt><trkpt lat="37.0269243" lon="10.1384918"><ele>0.0</ele><time>2026-05-05T09:08:50.729Z</time></trkpt><trkpt lat="37.0267428" lon="10.1385926"><ele>0.0</ele><time>2026-05-05T09:08:51.736Z</time></trkpt><trkpt lat="37.0265584" lon="10.1386934"><ele>0.0</ele><time>2026-05-05T09:08:52.729Z</time></trkpt><trkpt lat="37.0263771" lon="10.1387937"><ele>0.3333333333333333</ele><time>2026-05-05T09:08:53.747Z</time></trkpt><trkpt lat="37.0261966" lon="10.1388902"><ele>0.6666666666666666</ele><time>2026-05-05T09:08:54.731Z</time></trkpt><trkpt lat="37.0260145" lon="10.1389883"><ele>1.0</ele><time>2026-05-05T09:08:55.712Z</time></trkpt><trkpt lat="37.0258286" lon="10.1390823"><ele>1.3333333333333333</ele><time>2026-05-05T09:08:56.736Z</time></trkpt><trkpt lat="37.0256439" lon="10.1391843"><ele>1.6666666666666665</ele><time>2026-05-05T09:08:57.723Z</time></trkpt><trkpt lat="37.0254613" lon="10.1392839"><ele>2.0</ele><time>2026-05-05T09:08:58.715Z</time></trkpt><trkpt lat="37.0252823" lon="10.1393905"><ele>2.0</ele><time>2026-05-05T09:08:59.701Z</time></trkpt><trkpt lat="37.025101" lon="10.1394924"><ele>2.0</ele><time>2026-05-05T09:09:00.732Z</time></trkpt><trkpt lat="37.0249181" lon="10.1395891"><ele>2.0</ele><time>2026-05-05T09:09:01.733Z</time></trkpt><trkpt lat="37.0247333" lon="10.1396855"><ele>2.0</ele><time>2026-05-05T09:09:02.72Z</time></trkpt><trkpt lat="37.0245501" lon="10.1397789"><ele>2.0</ele><time>2026-05-05T09:09:03.737Z</time></trkpt><trkpt lat="37.0243659" lon="10.1398761"><ele>2.0</ele><time>2026-05-05T09:09:04.69Z</time></trkpt><trkpt lat="37.024181" lon="10.139969"><ele>2.0</ele><time>2026-05-05T09:09:05.697Z</time></trkpt><trkpt lat="37.0240042" lon="10.1400561"><ele>2.0</ele><time>2026-05-05T09:09:06.741Z</time></trkpt><trkpt lat="37.0238375" lon="10.1401378"><ele>2.0</ele><time>2026-05-05T09:09:07.725Z</time></trkpt><trkpt lat="37.0236754" lon="10.1402229"><ele>2.0</ele><time>2026-05-05T09:09:08.731Z</time></trkpt><trkpt lat="37.0235144" lon="10.1403022"><ele>2.0</ele><time>2026-05-05T09:09:09.741Z</time></trkpt><trkpt lat="37.0233539" lon="10.1403897"><ele>2.0</ele><time>2026-05-05T09:09:10.742Z</time></trkpt><trkpt lat="37.0231966" lon="10.1404747"><ele>1.6666666666666665</ele><time>2026-05-05T09:09:11.727Z</time></trkpt><trkpt lat="37.0230397" lon="10.1405596"><ele>1.3333333333333333</ele><time>2026-05-05T09:09:12.725Z</time></trkpt><trkpt lat="37.0228803" lon="10.1406448"><ele>1.0</ele><time>2026-05-05T09:09:13.713Z</time></trkpt><trkpt lat="37.0227172" lon="10.1407304"><ele>1.0</ele><time>2026-05-05T09:09:14.706Z</time></trkpt><trkpt lat="37.0225575" lon="10.1408116"><ele>1.0</ele><time>2026-05-05T09:09:15.73Z</time></trkpt><trkpt lat="37.0223941" lon="10.1408936"><ele>1.0</ele><time>2026-05-05T09:09:16.732Z</time></trkpt><trkpt lat="37.0222241" lon="10.1409723"><ele>1.3333333333333333</ele><time>2026-05-05T09:09:17.732Z</time></trkpt><trkpt lat="37.0220523" lon="10.1410533"><ele>1.6666666666666665</ele><time>2026-05-05T09:09:18.739Z</time></trkpt><trkpt lat="37.0218814" lon="10.14113"><ele>2.0</ele><time>2026-05-05T09:09:19.731Z</time></trkpt><trkpt lat="37.0217075" lon="10.1411978"><ele>2.0</ele><time>2026-05-05T09:09:20.726Z</time></trkpt><trkpt lat="37.0215285" lon="10.1412636"><ele>2.0</ele><time>2026-05-05T09:09:21.729Z</time></trkpt><trkpt lat="37.0213565" lon="10.1413299"><ele>2.0</ele><time>2026-05-05T09:09:22.734Z</time></trkpt><trkpt lat="37.0211833" lon="10.1413966"><ele>2.0</ele><time>2026-05-05T09:09:23.745Z</time></trkpt><trkpt lat="37.0210094" lon="10.1414662"><ele>2.0</ele><time>2026-05-05T09:09:24.725Z</time></trkpt><trkpt lat="37.0208417" lon="10.1415366"><ele>2.0</ele><time>2026-05-05T09:09:25.732Z</time></trkpt><trkpt lat="37.0206735" lon="10.1416058"><ele>1.3333333333333333</ele><time>2026-05-05T09:09:26.732Z</time></trkpt><trkpt lat="37.0205076" lon="10.1416664"><ele>0.6666666666666666</ele><time>2026-05-05T09:09:27.725Z</time></trkpt><trkpt lat="37.0203395" lon="10.1417389"><ele>0.0</ele><time>2026-05-05T09:09:28.739Z</time></trkpt><trkpt lat="37.0201709" lon="10.14181"><ele>0.0</ele><time>2026-05-05T09:09:29.74Z</time></trkpt><trkpt lat="37.0200012" lon="10.1418795"><ele>0.0</ele><time>2026-05-05T09:09:30.733Z</time></trkpt><trkpt lat="37.0198294" lon="10.1419504"><ele>0.0</ele><time>2026-05-05T09:09:31.738Z</time></trkpt><trkpt lat="37.0196638" lon="10.1420188"><ele>0.3333333333333333</ele><time>2026-05-05T09:09:32.735Z</time></trkpt><trkpt lat="37.0194941" lon="10.1420888"><ele>0.6666666666666666</ele><time>2026-05-05T09:09:33.744Z</time></trkpt><trkpt lat="37.0193189" lon="10.1421598"><ele>1.0</ele><time>2026-05-05T09:09:34.703Z</time></trkpt><trkpt lat="37.0191361" lon="10.1422331"><ele>1.0</ele><time>2026-05-05T09:09:35.702Z</time></trkpt><trkpt lat="37.0189481" lon="10.1423081"><ele>1.0</ele><time>2026-05-05T09:09:36.722Z</time></trkpt><trkpt lat="37.0187618" lon="10.142383"><ele>1.0</ele><time>2026-05-05T09:09:37.733Z</time></trkpt><trkpt lat="37.0185755" lon="10.1424597"><ele>0.6666666666666666</ele><time>2026-05-05T09:09:38.727Z</time></trkpt><trkpt lat="37.018383" lon="10.1425516"><ele>0.3333333333333333</ele><time>2026-05-05T09:09:39.722Z</time></trkpt><trkpt lat="37.018192" lon="10.1426469"><ele>0.0</ele><time>2026-05-05T09:09:40.742Z</time></trkpt><trkpt lat="37.0180038" lon="10.1427589"><ele>0.0</ele><time>2026-05-05T09:09:41.713Z</time></trkpt><trkpt lat="37.0178156" lon="10.1428741"><ele>0.0</ele><time>2026-05-05T09:09:42.731Z</time></trkpt><trkpt lat="37.0176294" lon="10.1429906"><ele>0.0</ele><time>2026-05-05T09:09:43.724Z</time></trkpt><trkpt lat="37.0174466" lon="10.1431142"><ele>0.0</ele><time>2026-05-05T09:09:44.74Z</time></trkpt><trkpt lat="37.0172643" lon="10.1432385"><ele>0.0</ele><time>2026-05-05T09:09:45.743Z</time></trkpt><trkpt lat="37.0170884" lon="10.1433751"><ele>0.0</ele><time>2026-05-05T09:09:46.734Z</time></trkpt><trkpt lat="37.0169142" lon="10.1435112"><ele>0.0</ele><time>2026-05-05T09:09:47.732Z</time></trkpt><trkpt lat="37.0167384" lon="10.1436511"><ele>0.0</ele><time>2026-05-05T09:09:48.692Z</time></trkpt><trkpt lat="37.0165656" lon="10.1437985"><ele>0.0</ele><time>2026-05-05T09:09:49.738Z</time></trkpt><trkpt lat="37.0163959" lon="10.1439505"><ele>0.0</ele><time>2026-05-05T09:09:50.732Z</time></trkpt><trkpt lat="37.0162272" lon="10.1441007"><ele>0.0</ele><time>2026-05-05T09:09:51.717Z</time></trkpt><trkpt lat="37.0160595" lon="10.1442484"><ele>0.0</ele><time>2026-05-05T09:09:52.736Z</time></trkpt><trkpt lat="37.0158856" lon="10.1443999"><ele>0.0</ele><time>2026-05-05T09:09:53.742Z</time></trkpt><trkpt lat="37.0157081" lon="10.1445562"><ele>0.0</ele><time>2026-05-05T09:09:54.74Z</time></trkpt><trkpt lat="37.0155355" lon="10.1447089"><ele>0.0</ele><time>2026-05-05T09:09:55.735Z</time></trkpt><trkpt lat="37.0153648" lon="10.14486"><ele>0.0</ele><time>2026-05-05T09:09:56.738Z</time></trkpt><trkpt lat="37.0151951" lon="10.1450081"><ele>0.0</ele><time>2026-05-05T09:09:57.738Z</time></trkpt><trkpt lat="37.0150259" lon="10.1451546"><ele>0.0</ele><time>2026-05-05T09:09:58.734Z</time></trkpt><trkpt lat="37.014857" lon="10.145305"><ele>0.0</ele><time>2026-05-05T09:09:59.718Z</time></trkpt><trkpt lat="37.0146883" lon="10.1454579"><ele>0.0</ele><time>2026-05-05T09:10:00.736Z</time></trkpt><trkpt lat="37.0145151" lon="10.1456096"><ele>0.0</ele><time>2026-05-05T09:10:01.741Z</time></trkpt><trkpt lat="37.0143424" lon="10.1457561"><ele>0.0</ele><time>2026-05-05T09:10:02.734Z</time></trkpt><trkpt lat="37.0141718" lon="10.1459042"><ele>0.0</ele><time>2026-05-05T09:10:03.745Z</time></trkpt><trkpt lat="37.0139958" lon="10.14605"><ele>0.0</ele><time>2026-05-05T09:10:04.718Z</time></trkpt><trkpt lat="37.0138199" lon="10.1461948"><ele>0.0</ele><time>2026-05-05T09:10:05.734Z</time></trkpt><trkpt lat="37.0136482" lon="10.1463345"><ele>0.0</ele><time>2026-05-05T09:10:06.735Z</time></trkpt><trkpt lat="37.0134704" lon="10.1464673"><ele>0.0</ele><time>2026-05-05T09:10:07.736Z</time></trkpt><trkpt lat="37.0132881" lon="10.1466001"><ele>-0.6666666666666666</ele><time>2026-05-05T09:10:08.736Z</time></trkpt><trkpt lat="37.0131051" lon="10.1467262"><ele>-1.3333333333333333</ele><time>2026-05-05T09:10:09.734Z</time></trkpt><trkpt lat="37.0129179" lon="10.1468473"><ele>-2.0</ele><time>2026-05-05T09:10:10.731Z</time></trkpt><trkpt lat="37.0127369" lon="10.1469564"><ele>-2.0</ele><time>2026-05-05T09:10:11.733Z</time></trkpt><trkpt lat="37.0125699" lon="10.1470573"><ele>-2.0</ele><time>2026-05-05T09:10:12.729Z</time></trkpt><trkpt lat="37.0124067" lon="10.1471506"><ele>-2.0</ele><time>2026-05-05T09:10:13.707Z</time></trkpt><trkpt lat="37.0122552" lon="10.1472426"><ele>-1.6666666666666665</ele><time>2026-05-05T09:10:14.7Z</time></trkpt><trkpt lat="37.0121029" lon="10.1473375"><ele>-1.3333333333333333</ele><time>2026-05-05T09:10:15.734Z</time></trkpt><trkpt lat="37.0119603" lon="10.1474197"><ele>-1.0</ele><time>2026-05-05T09:10:16.708Z</time></trkpt><trkpt lat="37.011822" lon="10.1474938"><ele>-0.75</ele><time>2026-05-05T09:10:17.716Z</time></trkpt><trkpt lat="37.0116978" lon="10.1475684"><ele>-0.5</ele><time>2026-05-05T09:10:18.719Z</time></trkpt><trkpt lat="37.0115768" lon="10.1476397"><ele>-0.25</ele><time>2026-05-05T09:10:19.734Z</time></trkpt><trkpt lat="37.0114678" lon="10.1477086"><ele>0.0</ele><time>2026-05-05T09:10:20.721Z</time></trkpt><trkpt lat="37.0113557" lon="10.1477597"><ele>0.0</ele><time>2026-05-05T09:10:21.73Z</time></trkpt><trkpt lat="37.0112471" lon="10.1478247"><ele>0.0</ele><time>2026-05-05T09:10:22.738Z</time></trkpt><trkpt lat="37.0111349" lon="10.1479097"><ele>0.0</ele><time>2026-05-05T09:10:23.738Z</time></trkpt><trkpt lat="37.0110177" lon="10.148002"><ele>0.0</ele><time>2026-05-05T09:10:24.734Z</time></trkpt><trkpt lat="37.0108934" lon="10.148093"><ele>0.0</ele><time>2026-05-05T09:10:25.685Z</time></trkpt><trkpt lat="37.0107467" lon="10.1481814"><ele>0.0</ele><time>2026-05-05T09:10:26.692Z</time></trkpt><trkpt lat="37.0105915" lon="10.148274"><ele>0.0</ele><time>2026-05-05T09:10:27.692Z</time></trkpt><trkpt lat="37.0104298" lon="10.1483671"><ele>0.0</ele><time>2026-05-05T09:10:28.715Z</time></trkpt><trkpt lat="37.0102702" lon="10.1484628"><ele>0.0</ele><time>2026-05-05T09:10:29.693Z</time></trkpt><trkpt lat="37.0101111" lon="10.1485618"><ele>0.0</ele><time>2026-05-05T09:10:30.69Z</time></trkpt><trkpt lat="37.0099459" lon="10.1486677"><ele>0.0</ele><time>2026-05-05T09:10:31.738Z</time></trkpt><trkpt lat="37.0097812" lon="10.1487813"><ele>0.0</ele><time>2026-05-05T09:10:32.74Z</time></trkpt><trkpt lat="37.0096202" lon="10.1488983"><ele>0.0</ele><time>2026-05-05T09:10:33.737Z</time></trkpt><trkpt lat="37.0094573" lon="10.1490185"><ele>-0.3333333333333333</ele><time>2026-05-05T09:10:34.717Z</time></trkpt><trkpt lat="37.0092852" lon="10.1491451"><ele>-0.6666666666666666</ele><time>2026-05-05T09:10:35.73Z</time></trkpt><trkpt lat="37.0091134" lon="10.149271"><ele>-1.0</ele><time>2026-05-05T09:10:36.739Z</time></trkpt><trkpt lat="37.0089444" lon="10.1493999"><ele>-1.0</ele><time>2026-05-05T09:10:37.734Z</time></trkpt><trkpt lat="37.0087733" lon="10.149523"><ele>-1.0</ele><time>2026-05-05T09:10:38.734Z</time></trkpt><trkpt lat="37.0086001" lon="10.1496452"><ele>-1.0</ele><time>2026-05-05T09:10:39.738Z</time></trkpt><trkpt lat="37.0084296" lon="10.149772"><ele>-1.0</ele><time>2026-05-05T09:10:40.729Z</time></trkpt><trkpt lat="37.0082591" lon="10.1498991"><ele>-1.0</ele><time>2026-05-05T09:10:41.736Z</time></trkpt><trkpt lat="37.0080924" lon="10.1500266"><ele>-1.0</ele><time>2026-05-05T09:10:42.745Z</time></trkpt><trkpt lat="37.0079283" lon="10.1501572"><ele>-1.0</ele><time>2026-05-05T09:10:43.733Z</time></trkpt><trkpt lat="37.0077554" lon="10.1502882"><ele>-1.0</ele><time>2026-05-05T09:10:44.72Z</time></trkpt><trkpt lat="37.0075846" lon="10.1504198"><ele>-1.0</ele><time>2026-05-05T09:10:45.739Z</time></trkpt><trkpt lat="37.0074139" lon="10.1505484"><ele>-1.0</ele><time>2026-05-05T09:10:46.727Z</time></trkpt><trkpt lat="37.0072426" lon="10.1506793"><ele>-1.0</ele><time>2026-05-05T09:10:47.708Z</time></trkpt><trkpt lat="37.0070678" lon="10.1508082"><ele>-1.0</ele><time>2026-05-05T09:10:48.707Z</time></trkpt><trkpt lat="37.0068848" lon="10.1509411"><ele>-1.0</ele><time>2026-05-05T09:10:49.731Z</time></trkpt><trkpt lat="37.006705" lon="10.1510718"><ele>-1.0</ele><time>2026-05-05T09:10:50.719Z</time></trkpt><trkpt lat="37.0065254" lon="10.1512016"><ele>-1.0</ele><time>2026-05-05T09:10:51.728Z</time></trkpt><trkpt lat="37.0063475" lon="10.1513316"><ele>-1.0</ele><time>2026-05-05T09:10:52.73Z</time></trkpt><trkpt lat="37.0061673" lon="10.1514632"><ele>-1.0</ele><time>2026-05-05T09:10:53.714Z</time></trkpt><trkpt lat="37.0059886" lon="10.1515941"><ele>-1.0</ele><time>2026-05-05T09:10:54.713Z</time></trkpt><trkpt lat="37.0058085" lon="10.1517234"><ele>-0.6666666666666666</ele><time>2026-05-05T09:10:55.715Z</time></trkpt><trkpt lat="37.0056285" lon="10.1518466"><ele>-0.3333333333333333</ele><time>2026-05-05T09:10:56.725Z</time></trkpt><trkpt lat="37.0054429" lon="10.1519708"><ele>0.0</ele><time>2026-05-05T09:10:57.711Z</time></trkpt><trkpt lat="37.0052585" lon="10.1520842"><ele>0.0</ele><time>2026-05-05T09:10:58.727Z</time></trkpt><trkpt lat="37.0050728" lon="10.1521968"><ele>0.0</ele><time>2026-05-05T09:10:59.731Z</time></trkpt><trkpt lat="37.004888" lon="10.1523075"><ele>0.0</ele><time>2026-05-05T09:11:00.716Z</time></trkpt><trkpt lat="37.004701" lon="10.1524223"><ele>0.0</ele><time>2026-05-05T09:11:01.74Z</time></trkpt><trkpt lat="37.0045164" lon="10.1525306"><ele>0.0</ele><time>2026-05-05T09:11:02.727Z</time></trkpt><trkpt lat="37.0043411" lon="10.1526404"><ele>0.0</ele><time>2026-05-05T09:11:03.713Z</time></trkpt><trkpt lat="37.0041624" lon="10.152752"><ele>-0.3333333333333333</ele><time>2026-05-05T09:11:04.73Z</time></trkpt><trkpt lat="37.0039887" lon="10.1528597"><ele>-0.6666666666666666</ele><time>2026-05-05T09:11:05.695Z</time></trkpt><trkpt lat="37.0038158" lon="10.1529665"><ele>-1.0</ele><time>2026-05-05T09:11:06.732Z</time></trkpt><trkpt lat="37.0036437" lon="10.1530767"><ele>-1.0</ele><time>2026-05-05T09:11:07.726Z</time></trkpt><trkpt lat="37.0034715" lon="10.1531912"><ele>-1.0</ele><time>2026-05-05T09:11:08.73Z</time></trkpt><trkpt lat="37.0032959" lon="10.1533016"><ele>-1.0</ele><time>2026-05-05T09:11:09.733Z</time></trkpt><trkpt lat="37.003122" lon="10.1534083"><ele>-0.3333333333333333</ele><time>2026-05-05T09:11:10.708Z</time></trkpt><trkpt lat="37.0029423" lon="10.153516"><ele>0.3333333333333333</ele><time>2026-05-05T09:11:11.731Z</time></trkpt><trkpt lat="37.002761" lon="10.1536266"><ele>1.0</ele><time>2026-05-05T09:11:12.743Z</time></trkpt><trkpt lat="37.0025849" lon="10.1537404"><ele>1.0</ele><time>2026-05-05T09:11:13.737Z</time></trkpt><trkpt lat="37.0024107" lon="10.1538563"><ele>1.0</ele><time>2026-05-05T09:11:14.708Z</time></trkpt><trkpt lat="37.0022362" lon="10.1539683"><ele>1.0</ele><time>2026-05-05T09:11:15.717Z</time></trkpt><trkpt lat="37.00206" lon="10.1540843"><ele>0.6666666666666666</ele><time>2026-05-05T09:11:16.724Z</time></trkpt><trkpt lat="37.0018843" lon="10.1541951"><ele>0.3333333333333333</ele><time>2026-05-05T09:11:17.724Z</time></trkpt><trkpt lat="37.0017033" lon="10.154312"><ele>0.0</ele><time>2026-05-05T09:11:18.725Z</time></trkpt><trkpt lat="37.0015324" lon="10.1544322"><ele>0.0</ele><time>2026-05-05T09:11:19.72Z</time></trkpt><trkpt lat="37.0013583" lon="10.1545577"><ele>0.0</ele><time>2026-05-05T09:11:20.727Z</time></trkpt><trkpt lat="37.0011886" lon="10.1546831"><ele>0.0</ele><time>2026-05-05T09:11:21.733Z</time></trkpt><trkpt lat="37.0010185" lon="10.1548127"><ele>0.0</ele><time>2026-05-05T09:11:22.734Z</time></trkpt><trkpt lat="37.0008511" lon="10.1549398"><ele>0.0</ele><time>2026-05-05T09:11:23.736Z</time></trkpt><trkpt lat="37.000683" lon="10.1550706"><ele>0.0</ele><time>2026-05-05T09:11:24.703Z</time></trkpt><trkpt lat="37.0005163" lon="10.1551924"><ele>0.3333333333333333</ele><time>2026-05-05T09:11:25.745Z</time></trkpt><trkpt lat="37.0003466" lon="10.1553205"><ele>0.6666666666666666</ele><time>2026-05-05T09:11:26.744Z</time></trkpt><trkpt lat="37.0001806" lon="10.1554496"><ele>1.0</ele><time>2026-05-05T09:11:27.735Z</time></trkpt><trkpt lat="37.0000138" lon="10.1555776"><ele>0.3333333333333333</ele><time>2026-05-05T09:11:28.727Z</time></trkpt><trkpt lat="36.9998456" lon="10.1557068"><ele>-0.3333333333333333</ele><time>2026-05-05T09:11:29.729Z</time></trkpt><trkpt lat="36.9996793" lon="10.155831"><ele>-1.0</ele><time>2026-05-05T09:11:30.729Z</time></trkpt><trkpt lat="36.9995128" lon="10.1559616"><ele>-1.0</ele><time>2026-05-05T09:11:31.731Z</time></trkpt><trkpt lat="36.9993438" lon="10.156088"><ele>-1.0</ele><time>2026-05-05T09:11:32.745Z</time></trkpt><trkpt lat="36.9991754" lon="10.1562133"><ele>-1.0</ele><time>2026-05-05T09:11:33.721Z</time></trkpt><trkpt lat="36.999008" lon="10.1563402"><ele>-1.0</ele><time>2026-05-05T09:11:34.71Z</time></trkpt><trkpt lat="36.9988405" lon="10.1564648"><ele>-1.0</ele><time>2026-05-05T09:11:35.717Z</time></trkpt><trkpt lat="36.9986718" lon="10.1565953"><ele>-1.0</ele><time>2026-05-05T09:11:36.734Z</time></trkpt><trkpt lat="36.9984991" lon="10.1567259"><ele>-0.6666666666666666</ele><time>2026-05-05T09:11:37.743Z</time></trkpt><trkpt lat="36.9983288" lon="10.156858"><ele>-0.3333333333333333</ele><time>2026-05-05T09:11:38.755Z</time></trkpt><trkpt lat="36.9981617" lon="10.1569883"><ele>0.0</ele><time>2026-05-05T09:11:39.736Z</time></trkpt><trkpt lat="36.9979957" lon="10.1571209"><ele>0.0</ele><time>2026-05-05T09:11:40.735Z</time></trkpt><trkpt lat="36.997832" lon="10.1572589"><ele>0.0</ele><time>2026-05-05T09:11:41.698Z</time></trkpt><trkpt lat="36.9976727" lon="10.1574009"><ele>0.0</ele><time>2026-05-05T09:11:42.715Z</time></trkpt><trkpt lat="36.9975106" lon="10.1575486"><ele>0.0</ele><time>2026-05-05T09:11:43.732Z</time></trkpt><trkpt lat="36.9973551" lon="10.1576953"><ele>0.0</ele><time>2026-05-05T09:11:44.729Z</time></trkpt><trkpt lat="36.9971976" lon="10.1578405"><ele>0.0</ele><time>2026-05-05T09:11:45.733Z</time></trkpt><trkpt lat="36.9970442" lon="10.1579913"><ele>0.0</ele><time>2026-05-05T09:11:46.733Z</time></trkpt><trkpt lat="36.9968907" lon="10.1581412"><ele>0.0</ele><time>2026-05-05T09:11:47.746Z</time></trkpt><trkpt lat="36.9967365" lon="10.1582905"><ele>0.0</ele><time>2026-05-05T09:11:48.737Z</time></trkpt><trkpt lat="36.9965847" lon="10.1584283"><ele>0.3333333333333333</ele><time>2026-05-05T09:11:49.701Z</time></trkpt><trkpt lat="36.9964416" lon="10.1585558"><ele>0.6666666666666666</ele><time>2026-05-05T09:11:50.711Z</time></trkpt><trkpt lat="36.9963173" lon="10.1586666"><ele>1.0</ele><time>2026-05-05T09:11:51.693Z</time></trkpt><trkpt lat="36.9962" lon="10.1587603"><ele>1.0</ele><time>2026-05-05T09:11:52.734Z</time></trkpt><trkpt lat="36.9960855" lon="10.1588459"><ele>1.0</ele><time>2026-05-05T09:11:53.742Z</time></trkpt><trkpt lat="36.9959759" lon="10.1589265"><ele>1.0</ele><time>2026-05-05T09:11:54.732Z</time></trkpt><trkpt lat="36.9958656" lon="10.1589748"><ele>1.0</ele><time>2026-05-05T09:11:55.744Z</time></trkpt><trkpt lat="36.9957589" lon="10.1590127"><ele>0.75</ele><time>2026-05-05T09:11:56.734Z</time></trkpt><trkpt lat="36.9956495" lon="10.1590647"><ele>0.5</ele><time>2026-05-05T09:11:57.734Z</time></trkpt><trkpt lat="36.9955409" lon="10.1591401"><ele>0.25</ele><time>2026-05-05T09:11:58.736Z</time></trkpt><trkpt lat="36.9954351" lon="10.1592532"><ele>0.0</ele><time>2026-05-05T09:11:59.746Z</time></trkpt><trkpt lat="36.9953018" lon="10.1593692"><ele>0.0</ele><time>2026-05-05T09:12:00.704Z</time></trkpt><trkpt lat="36.9951505" lon="10.1594693"><ele>0.0</ele><time>2026-05-05T09:12:01.731Z</time></trkpt><trkpt lat="36.9949745" lon="10.1595768"><ele>0.0</ele><time>2026-05-05T09:12:02.728Z</time></trkpt><trkpt lat="36.9947724" lon="10.1596793"><ele>0.0</ele><time>2026-05-05T09:12:03.718Z</time></trkpt><trkpt lat="36.994555" lon="10.1597913"><ele>0.0</ele><time>2026-05-05T09:12:04.73Z</time></trkpt><trkpt lat="36.9943142" lon="10.1599006"><ele>0.5</ele><time>2026-05-05T09:12:05.725Z</time></trkpt><trkpt lat="36.9940525" lon="10.1600251"><ele>1.0</ele><time>2026-05-05T09:12:06.731Z</time></trkpt><trkpt lat="36.9937753" lon="10.1601461"><ele>1.0</ele><time>2026-05-05T09:12:07.734Z</time></trkpt><trkpt lat="36.9935105" lon="10.1602675"><ele>1.0</ele><time>2026-05-05T09:12:08.743Z</time></trkpt><trkpt lat="36.9932592" lon="10.1603823"><ele>1.0</ele><time>2026-05-05T09:12:09.728Z</time></trkpt><trkpt lat="36.9930323" lon="10.1604895"><ele>1.0</ele><time>2026-05-05T09:12:10.737Z</time></trkpt><trkpt lat="36.9928171" lon="10.1605911"><ele>1.0</ele><time>2026-05-05T09:12:11.753Z</time></trkpt><trkpt lat="36.9926052" lon="10.1606925"><ele>1.0</ele><time>2026-05-05T09:12:12.743Z</time></trkpt><trkpt lat="36.9923962" lon="10.1608019"><ele>1.0</ele><time>2026-05-05T09:12:13.732Z</time></trkpt><trkpt lat="36.992187" lon="10.1609096"><ele>1.0</ele><time>2026-05-05T09:12:14.717Z</time></trkpt><trkpt lat="36.9919809" lon="10.161016"><ele>1.0</ele><time>2026-05-05T09:12:15.734Z</time></trkpt><trkpt lat="36.991779" lon="10.1611199"><ele>1.0</ele><time>2026-05-05T09:12:16.749Z</time></trkpt><trkpt lat="36.9915778" lon="10.1612303"><ele>1.0</ele><time>2026-05-05T09:12:17.698Z</time></trkpt><trkpt lat="36.9913783" lon="10.1613432"><ele>1.0</ele><time>2026-05-05T09:12:18.745Z</time></trkpt><trkpt lat="36.9911786" lon="10.1614586"><ele>1.0</ele><time>2026-05-05T09:12:19.714Z</time></trkpt><trkpt lat="36.9909771" lon="10.1615665"><ele>1.0</ele><time>2026-05-05T09:12:20.737Z</time></trkpt><trkpt lat="36.9907795" lon="10.1616718"><ele>1.0</ele><time>2026-05-05T09:12:21.732Z</time></trkpt><trkpt lat="36.9905852" lon="10.1617787"><ele>1.0</ele><time>2026-05-05T09:12:22.743Z</time></trkpt><trkpt lat="36.9903969" lon="10.1618877"><ele>1.0</ele><time>2026-05-05T09:12:23.729Z</time></trkpt><trkpt lat="36.9902076" lon="10.161991"><ele>1.0</ele><time>2026-05-05T09:12:24.731Z</time></trkpt><trkpt lat="36.9900173" lon="10.1621009"><ele>1.3333333333333333</ele><time>2026-05-05T09:12:25.717Z</time></trkpt><trkpt lat="36.9898335" lon="10.1622036"><ele>1.6666666666666665</ele><time>2026-05-05T09:12:26.714Z</time></trkpt><trkpt lat="36.9896555" lon="10.1623103"><ele>2.0</ele><time>2026-05-05T09:12:27.739Z</time></trkpt><trkpt lat="36.9894804" lon="10.1624083"><ele>2.0</ele><time>2026-05-05T09:12:28.735Z</time></trkpt><trkpt lat="36.9893112" lon="10.1624999"><ele>2.0</ele><time>2026-05-05T09:12:29.734Z</time></trkpt><trkpt lat="36.9891412" lon="10.1625927"><ele>2.0</ele><time>2026-05-05T09:12:30.732Z</time></trkpt><trkpt lat="36.9889705" lon="10.1626763"><ele>2.0</ele><time>2026-05-05T09:12:31.74Z</time></trkpt><trkpt lat="36.9887966" lon="10.1627589"><ele>2.0</ele><time>2026-05-05T09:12:32.73Z</time></trkpt><trkpt lat="36.9886173" lon="10.1628387"><ele>2.0</ele><time>2026-05-05T09:12:33.729Z</time></trkpt><trkpt lat="36.9884345" lon="10.1629141"><ele>1.6666666666666665</ele><time>2026-05-05T09:12:34.7Z</time></trkpt><trkpt lat="36.9882534" lon="10.1629914"><ele>1.3333333333333333</ele><time>2026-05-05T09:12:35.736Z</time></trkpt><trkpt lat="36.9880805" lon="10.1630622"><ele>1.0</ele><time>2026-05-05T09:12:36.741Z</time></trkpt><trkpt lat="36.9879085" lon="10.1631213"><ele>1.0</ele><time>2026-05-05T09:12:37.737Z</time></trkpt><trkpt lat="36.9877389" lon="10.1631754"><ele>1.0</ele><time>2026-05-05T09:12:38.745Z</time></trkpt><trkpt lat="36.9875804" lon="10.1632223"><ele>1.0</ele><time>2026-05-05T09:12:39.705Z</time></trkpt><trkpt lat="36.98743" lon="10.1632573"><ele>1.25</ele><time>2026-05-05T09:12:40.744Z</time></trkpt><trkpt lat="36.9873035" lon="10.1632833"><ele>1.5</ele><time>2026-05-05T09:12:41.735Z</time></trkpt><trkpt lat="36.9871851" lon="10.1632957"><ele>1.75</ele><time>2026-05-05T09:12:42.741Z</time></trkpt><trkpt lat="36.9870722" lon="10.1632943"><ele>2.0</ele><time>2026-05-05T09:12:43.739Z</time></trkpt><trkpt lat="36.9869652" lon="10.1632874"><ele>2.0</ele><time>2026-05-05T09:12:44.742Z</time></trkpt><trkpt lat="36.9868551" lon="10.1633018"><ele>2.0</ele><time>2026-05-05T09:12:45.752Z</time></trkpt><trkpt lat="36.9867521" lon="10.1633577"><ele>2.0</ele><time>2026-05-05T09:12:46.731Z</time></trkpt><trkpt lat="36.9866696" lon="10.1634299"><ele>2.0</ele><time>2026-05-05T09:12:47.742Z</time></trkpt><trkpt lat="36.9865701" lon="10.1635189"><ele>2.0</ele><time>2026-05-05T09:12:48.744Z</time></trkpt><trkpt lat="36.9864592" lon="10.1635832"><ele>2.333333333333333</ele><time>2026-05-05T09:12:49.732Z</time></trkpt><trkpt lat="36.9863177" lon="10.1636303"><ele>2.6666666666666665</ele><time>2026-05-05T09:12:50.738Z</time></trkpt><trkpt lat="36.9861614" lon="10.1636688"><ele>3.0</ele><time>2026-05-05T09:12:51.712Z</time></trkpt><trkpt lat="36.9859879" lon="10.1637202"><ele>2.3333333333333335</ele><time>2026-05-05T09:12:52.737Z</time></trkpt><trkpt lat="36.9857891" lon="10.1637785"><ele>1.6666666666666665</ele><time>2026-05-05T09:12:53.741Z</time></trkpt><trkpt lat="36.9855842" lon="10.1638364"><ele>1.0</ele><time>2026-05-05T09:12:54.729Z</time></trkpt><trkpt lat="36.9853739" lon="10.1638978"><ele>1.0</ele><time>2026-05-05T09:12:55.736Z</time></trkpt><trkpt lat="36.9851525" lon="10.1639569"><ele>1.0</ele><time>2026-05-05T09:12:56.733Z</time></trkpt><trkpt lat="36.9849357" lon="10.1640184"><ele>1.0</ele><time>2026-05-05T09:12:57.729Z</time></trkpt><trkpt lat="36.9847113" lon="10.1640727"><ele>1.0</ele><time>2026-05-05T09:12:58.72Z</time></trkpt><trkpt lat="36.9844926" lon="10.1641228"><ele>1.0</ele><time>2026-05-05T09:12:59.726Z</time></trkpt><trkpt lat="36.9842795" lon="10.1641709"><ele>1.0</ele><time>2026-05-05T09:13:00.745Z</time></trkpt><trkpt lat="36.9840669" lon="10.1642134"><ele>1.6666666666666665</ele><time>2026-05-05T09:13:01.725Z</time></trkpt><trkpt lat="36.9838548" lon="10.1642509"><ele>2.3333333333333335</ele><time>2026-05-05T09:13:02.733Z</time></trkpt><trkpt lat="36.9836554" lon="10.1642943"><ele>3.0</ele><time>2026-05-05T09:13:03.747Z</time></trkpt><trkpt lat="36.9834574" lon="10.1643295"><ele>2.6666666666666665</ele><time>2026-05-05T09:13:04.731Z</time></trkpt><trkpt lat="36.9832608" lon="10.1643689"><ele>2.333333333333333</ele><time>2026-05-05T09:13:05.735Z</time></trkpt><trkpt lat="36.9830675" lon="10.1644043"><ele>2.0</ele><time>2026-05-05T09:13:06.742Z</time></trkpt><trkpt lat="36.9828786" lon="10.1644458"><ele>2.0</ele><time>2026-05-05T09:13:07.748Z</time></trkpt><trkpt lat="36.98269" lon="10.1644875"><ele>2.0</ele><time>2026-05-05T09:13:08.745Z</time></trkpt><trkpt lat="36.9825029" lon="10.1645239"><ele>2.0</ele><time>2026-05-05T09:13:09.719Z</time></trkpt><trkpt lat="36.9823158" lon="10.1645561"><ele>2.0</ele><time>2026-05-05T09:13:10.733Z</time></trkpt><trkpt lat="36.9821326" lon="10.1645912"><ele>2.0</ele><time>2026-05-05T09:13:11.731Z</time></trkpt><trkpt lat="36.981954" lon="10.1646286"><ele>2.0</ele><time>2026-05-05T09:13:12.73Z</time></trkpt><trkpt lat="36.981776" lon="10.1646624"><ele>2.6666666666666665</ele><time>2026-05-05T09:13:13.746Z</time></trkpt><trkpt lat="36.9815983" lon="10.1646961"><ele>3.333333333333333</ele><time>2026-05-05T09:13:14.723Z</time></trkpt><trkpt lat="36.9814176" lon="10.1647301"><ele>4.0</ele><time>2026-05-05T09:13:15.739Z</time></trkpt><trkpt lat="36.9812401" lon="10.1647626"><ele>4.0</ele><time>2026-05-05T09:13:16.737Z</time></trkpt><trkpt lat="36.9810601" lon="10.1647988"><ele>4.0</ele><time>2026-05-05T09:13:17.717Z</time></trkpt><trkpt lat="36.9808781" lon="10.1648341"><ele>4.0</ele><time>2026-05-05T09:13:18.729Z</time></trkpt><trkpt lat="36.9806939" lon="10.1648753"><ele>3.0</ele><time>2026-05-05T09:13:19.744Z</time></trkpt><trkpt lat="36.9805039" lon="10.164916"><ele>2.0</ele><time>2026-05-05T09:13:20.735Z</time></trkpt><trkpt lat="36.98031" lon="10.1649601"><ele>1.0</ele><time>2026-05-05T09:13:21.744Z</time></trkpt><trkpt lat="36.980111" lon="10.1649936"><ele>1.6666666666666665</ele><time>2026-05-05T09:13:22.736Z</time></trkpt><trkpt lat="36.9799094" lon="10.1650306"><ele>2.3333333333333335</ele><time>2026-05-05T09:13:23.739Z</time></trkpt><trkpt lat="36.9797102" lon="10.1650684"><ele>3.0</ele><time>2026-05-05T09:13:24.735Z</time></trkpt><trkpt lat="36.9795035" lon="10.1651028"><ele>3.0</ele><time>2026-05-05T09:13:25.734Z</time></trkpt><trkpt lat="36.9793036" lon="10.1651463"><ele>3.0</ele><time>2026-05-05T09:13:26.737Z</time></trkpt><trkpt lat="36.9791006" lon="10.1651837"><ele>3.0</ele><time>2026-05-05T09:13:27.738Z</time></trkpt><trkpt lat="36.9788971" lon="10.1652253"><ele>2.6666666666666665</ele><time>2026-05-05T09:13:28.733Z</time></trkpt><trkpt lat="36.9786946" lon="10.1652641"><ele>2.333333333333333</ele><time>2026-05-05T09:13:29.732Z</time></trkpt><trkpt lat="36.97849" lon="10.1653003"><ele>2.0</ele><time>2026-05-05T09:13:30.737Z</time></trkpt><trkpt lat="36.9782861" lon="10.165344"><ele>1.3333333333333333</ele><time>2026-05-05T09:13:31.717Z</time></trkpt><trkpt lat="36.978085" lon="10.1653923"><ele>0.6666666666666666</ele><time>2026-05-05T09:13:32.697Z</time></trkpt><trkpt lat="36.9778834" lon="10.1654434"><ele>0.0</ele><time>2026-05-05T09:13:33.714Z</time></trkpt><trkpt lat="36.9776812" lon="10.1655"><ele>0.6666666666666666</ele><time>2026-05-05T09:13:34.705Z</time></trkpt><trkpt lat="36.9774816" lon="10.1655666"><ele>1.3333333333333333</ele><time>2026-05-05T09:13:35.732Z</time></trkpt><trkpt lat="36.9772753" lon="10.1656281"><ele>2.0</ele><time>2026-05-05T09:13:36.714Z</time></trkpt><trkpt lat="36.9770744" lon="10.1656936"><ele>2.0</ele><time>2026-05-05T09:13:37.738Z</time></trkpt><trkpt lat="36.9768696" lon="10.1657525"><ele>2.0</ele><time>2026-05-05T09:13:38.733Z</time></trkpt><trkpt lat="36.9766669" lon="10.1658022"><ele>2.0</ele><time>2026-05-05T09:13:39.723Z</time></trkpt><trkpt lat="36.9764651" lon="10.1658519"><ele>2.0</ele><time>2026-05-05T09:13:40.704Z</time></trkpt><trkpt lat="36.9762603" lon="10.1658945"><ele>2.0</ele><time>2026-05-05T09:13:41.733Z</time></trkpt><trkpt lat="36.9760592" lon="10.1659411"><ele>2.0</ele><time>2026-05-05T09:13:42.736Z</time></trkpt><trkpt lat="36.9758564" lon="10.1659935"><ele>1.6666666666666665</ele><time>2026-05-05T09:13:43.731Z</time></trkpt><trkpt lat="36.9756496" lon="10.1660496"><ele>1.3333333333333333</ele><time>2026-05-05T09:13:44.74Z</time></trkpt><trkpt lat="36.9754482" lon="10.1661142"><ele>1.0</ele><time>2026-05-05T09:13:45.744Z</time></trkpt><trkpt lat="36.9752454" lon="10.1661869"><ele>1.0</ele><time>2026-05-05T09:13:46.738Z</time></trkpt><trkpt lat="36.975045" lon="10.1662588"><ele>1.0</ele><time>2026-05-05T09:13:47.743Z</time></trkpt><trkpt lat="36.9748402" lon="10.1663413"><ele>1.0</ele><time>2026-05-05T09:13:48.743Z</time></trkpt><trkpt lat="36.9746402" lon="10.1664307"><ele>1.0</ele><time>2026-05-05T09:13:49.742Z</time></trkpt><trkpt lat="36.9744431" lon="10.166525"><ele>1.0</ele><time>2026-05-05T09:13:50.743Z</time></trkpt><trkpt lat="36.9742414" lon="10.1666239"><ele>1.0</ele><time>2026-05-05T09:13:51.721Z</time></trkpt><trkpt lat="36.9740475" lon="10.1667196"><ele>0.6666666666666666</ele><time>2026-05-05T09:13:52.739Z</time></trkpt><trkpt lat="36.9738566" lon="10.1668176"><ele>0.3333333333333333</ele><time>2026-05-05T09:13:53.738Z</time></trkpt><trkpt lat="36.9736604" lon="10.1669162"><ele>0.0</ele><time>2026-05-05T09:13:54.743Z</time></trkpt><trkpt lat="36.9734674" lon="10.1670131"><ele>0.6666666666666666</ele><time>2026-05-05T09:13:55.721Z</time></trkpt><trkpt lat="36.9732758" lon="10.1671142"><ele>1.3333333333333333</ele><time>2026-05-05T09:13:56.728Z</time></trkpt><trkpt lat="36.9730861" lon="10.1672093"><ele>2.0</ele><time>2026-05-05T09:13:57.736Z</time></trkpt><trkpt lat="36.9728952" lon="10.1673094"><ele>1.6666666666666665</ele><time>2026-05-05T09:13:58.722Z</time></trkpt><trkpt lat="36.9727052" lon="10.167405"><ele>1.3333333333333333</ele><time>2026-05-05T09:13:59.733Z</time></trkpt><trkpt lat="36.9725132" lon="10.1675049"><ele>1.0</ele><time>2026-05-05T09:14:00.71Z</time></trkpt><trkpt lat="36.9723229" lon="10.167606"><ele>1.0</ele><time>2026-05-05T09:14:01.736Z</time></trkpt><trkpt lat="36.9721293" lon="10.1677044"><ele>1.0</ele><time>2026-05-05T09:14:02.715Z</time></trkpt><trkpt lat="36.9719315" lon="10.1678001"><ele>1.0</ele><time>2026-05-05T09:14:03.743Z</time></trkpt><trkpt lat="36.9717369" lon="10.1679005"><ele>0.6666666666666666</ele><time>2026-05-05T09:14:04.723Z</time></trkpt><trkpt lat="36.9715431" lon="10.1680044"><ele>0.3333333333333333</ele><time>2026-05-05T09:14:05.74Z</time></trkpt><trkpt lat="36.9713515" lon="10.1681084"><ele>0.0</ele><time>2026-05-05T09:14:06.743Z</time></trkpt><trkpt lat="36.9711578" lon="10.1682154"><ele>0.0</ele><time>2026-05-05T09:14:07.73Z</time></trkpt><trkpt lat="36.9709606" lon="10.1683215"><ele>0.0</ele><time>2026-05-05T09:14:08.723Z</time></trkpt><trkpt lat="36.9707608" lon="10.1684277"><ele>0.0</ele><time>2026-05-05T09:14:09.729Z</time></trkpt><trkpt lat="36.9705636" lon="10.1685353"><ele>0.3333333333333333</ele><time>2026-05-05T09:14:10.719Z</time></trkpt><trkpt lat="36.970371" lon="10.1686371"><ele>0.6666666666666666</ele><time>2026-05-05T09:14:11.737Z</time></trkpt><trkpt lat="36.9701759" lon="10.168743"><ele>1.0</ele><time>2026-05-05T09:14:12.72Z</time></trkpt><trkpt lat="36.9699838" lon="10.1688471"><ele>1.0</ele><time>2026-05-05T09:14:13.742Z</time></trkpt><trkpt lat="36.9697951" lon="10.1689728"><ele>1.0</ele><time>2026-05-05T09:14:14.726Z</time></trkpt><trkpt lat="36.9696034" lon="10.1690938"><ele>1.0</ele><time>2026-05-05T09:14:15.739Z</time></trkpt><trkpt lat="36.9694145" lon="10.1692225"><ele>1.0</ele><time>2026-05-05T09:14:16.724Z</time></trkpt><trkpt lat="36.9692261" lon="10.1693526"><ele>1.0</ele><time>2026-05-05T09:14:17.736Z</time></trkpt><trkpt lat="36.9690433" lon="10.1694871"><ele>1.0</ele><time>2026-05-05T09:14:18.733Z</time></trkpt><trkpt lat="36.9688611" lon="10.1696237"><ele>1.0</ele><time>2026-05-05T09:14:19.735Z</time></trkpt><trkpt lat="36.9686772" lon="10.169759"><ele>1.0</ele><time>2026-05-05T09:14:20.733Z</time></trkpt><trkpt lat="36.9684885" lon="10.1698913"><ele>1.0</ele><time>2026-05-05T09:14:21.738Z</time></trkpt><trkpt lat="36.9682997" lon="10.1700215"><ele>0.3333333333333333</ele><time>2026-05-05T09:14:22.737Z</time></trkpt><trkpt lat="36.9681114" lon="10.1701427"><ele>-0.3333333333333333</ele><time>2026-05-05T09:14:23.74Z</time></trkpt><trkpt lat="36.9679189" lon="10.1702618"><ele>-1.0</ele><time>2026-05-05T09:14:24.732Z</time></trkpt><trkpt lat="36.9677233" lon="10.1703743"><ele>-0.3333333333333333</ele><time>2026-05-05T09:14:25.725Z</time></trkpt><trkpt lat="36.9675253" lon="10.1704812"><ele>0.3333333333333333</ele><time>2026-05-05T09:14:26.713Z</time></trkpt><trkpt lat="36.9673281" lon="10.1705838"><ele>1.0</ele><time>2026-05-05T09:14:27.741Z</time></trkpt><trkpt lat="36.9671264" lon="10.1706753"><ele>1.3333333333333333</ele><time>2026-05-05T09:14:28.728Z</time></trkpt><trkpt lat="36.9669189" lon="10.1707592"><ele>1.6666666666666665</ele><time>2026-05-05T09:14:29.743Z</time></trkpt><trkpt lat="36.9667114" lon="10.1708377"><ele>2.0</ele><time>2026-05-05T09:14:30.726Z</time></trkpt><trkpt lat="36.966501" lon="10.1709096"><ele>2.0</ele><time>2026-05-05T09:14:31.748Z</time></trkpt><trkpt lat="36.9662862" lon="10.1709798"><ele>2.0</ele><time>2026-05-05T09:14:32.715Z</time></trkpt><trkpt lat="36.9660693" lon="10.1710463"><ele>2.0</ele><time>2026-05-05T09:14:33.729Z</time></trkpt><trkpt lat="36.9658555" lon="10.1711103"><ele>1.6666666666666665</ele><time>2026-05-05T09:14:34.72Z</time></trkpt><trkpt lat="36.9656454" lon="10.1711733"><ele>1.3333333333333333</ele><time>2026-05-05T09:14:35.721Z</time></trkpt><trkpt lat="36.9654297" lon="10.1712263"><ele>1.0</ele><time>2026-05-05T09:14:36.732Z</time></trkpt><trkpt lat="36.9652156" lon="10.1712809"><ele>1.3333333333333333</ele><time>2026-05-05T09:14:37.721Z</time></trkpt><trkpt lat="36.9650042" lon="10.1713351"><ele>1.6666666666666665</ele><time>2026-05-05T09:14:38.734Z</time></trkpt><trkpt lat="36.9647959" lon="10.1713936"><ele>2.0</ele><time>2026-05-05T09:14:39.757Z</time></trkpt><trkpt lat="36.9645896" lon="10.1714441"><ele>2.0</ele><time>2026-05-05T09:14:40.733Z</time></trkpt><trkpt lat="36.9643824" lon="10.1714745"><ele>2.0</ele><time>2026-05-05T09:14:41.726Z</time></trkpt><trkpt lat="36.9641701" lon="10.171488"><ele>2.0</ele><time>2026-05-05T09:14:42.731Z</time></trkpt><trkpt lat="36.9639606" lon="10.1714824"><ele>2.0</ele><time>2026-05-05T09:14:43.751Z</time></trkpt><trkpt lat="36.963758" lon="10.1714582"><ele>2.0</ele><time>2026-05-05T09:14:44.732Z</time></trkpt><trkpt lat="36.9635496" lon="10.1714127"><ele>2.0</ele><time>2026-05-05T09:14:45.738Z</time></trkpt><trkpt lat="36.963337" lon="10.1713534"><ele>1.6666666666666665</ele><time>2026-05-05T09:14:46.723Z</time></trkpt><trkpt lat="36.9631271" lon="10.1712882"><ele>1.3333333333333333</ele><time>2026-05-05T09:14:47.736Z</time></trkpt><trkpt lat="36.96291" lon="10.1712211"><ele>1.0</ele><time>2026-05-05T09:14:48.731Z</time></trkpt><trkpt lat="36.9626939" lon="10.1711486"><ele>1.3333333333333333</ele><time>2026-05-05T09:14:49.745Z</time></trkpt><trkpt lat="36.9624751" lon="10.1710842"><ele>1.6666666666666665</ele><time>2026-05-05T09:14:50.738Z</time></trkpt><trkpt lat="36.9622594" lon="10.1710194"><ele>2.0</ele><time>2026-05-05T09:14:51.731Z</time></trkpt><trkpt lat="36.9620434" lon="10.1709611"><ele>2.0</ele><time>2026-05-05T09:14:52.732Z</time></trkpt><trkpt lat="36.9618305" lon="10.1709103"><ele>2.0</ele><time>2026-05-05T09:14:53.732Z</time></trkpt><trkpt lat="36.9616112" lon="10.1708745"><ele>2.0</ele><time>2026-05-05T09:14:54.741Z</time></trkpt><trkpt lat="36.9613913" lon="10.1708439"><ele>2.333333333333333</ele><time>2026-05-05T09:14:55.746Z</time></trkpt><trkpt lat="36.9611724" lon="10.1708186"><ele>2.6666666666666665</ele><time>2026-05-05T09:14:56.729Z</time></trkpt><trkpt lat="36.9609555" lon="10.170801"><ele>3.0</ele><time>2026-05-05T09:14:57.735Z</time></trkpt><trkpt lat="36.9607377" lon="10.1707915"><ele>3.0</ele><time>2026-05-05T09:14:58.716Z</time></trkpt><trkpt lat="36.9605169" lon="10.1707809"><ele>3.0</ele><time>2026-05-05T09:14:59.732Z</time></trkpt><trkpt lat="36.9602983" lon="10.1707752"><ele>3.0</ele><time>2026-05-05T09:15:00.719Z</time></trkpt><trkpt lat="36.9600804" lon="10.1707757"><ele>3.333333333333333</ele><time>2026-05-05T09:15:01.74Z</time></trkpt><trkpt lat="36.9598662" lon="10.170772"><ele>3.6666666666666665</ele><time>2026-05-05T09:15:02.732Z</time></trkpt><trkpt lat="36.9596502" lon="10.1707713"><ele>4.0</ele><time>2026-05-05T09:15:03.739Z</time></trkpt><trkpt lat="36.9594373" lon="10.1707701"><ele>4.0</ele><time>2026-05-05T09:15:04.71Z</time></trkpt><trkpt lat="36.9592271" lon="10.1707684"><ele>4.0</ele><time>2026-05-05T09:15:05.732Z</time></trkpt><trkpt lat="36.9590152" lon="10.1707671"><ele>4.0</ele><time>2026-05-05T09:15:06.739Z</time></trkpt><trkpt lat="36.9588059" lon="10.1707678"><ele>3.6666666666666665</ele><time>2026-05-05T09:15:07.738Z</time></trkpt><trkpt lat="36.9586064" lon="10.1707793"><ele>3.333333333333333</ele><time>2026-05-05T09:15:08.742Z</time></trkpt><trkpt lat="36.9584176" lon="10.1707973"><ele>3.0</ele><time>2026-05-05T09:15:09.748Z</time></trkpt><trkpt lat="36.9582368" lon="10.1708138"><ele>2.6666666666666665</ele><time>2026-05-05T09:15:10.746Z</time></trkpt><trkpt lat="36.9580594" lon="10.1708347"><ele>2.333333333333333</ele><time>2026-05-05T09:15:11.697Z</time></trkpt><trkpt lat="36.9578842" lon="10.1708589"><ele>2.0</ele><time>2026-05-05T09:15:12.696Z</time></trkpt><trkpt lat="36.9577147" lon="10.1708844"><ele>2.0</ele><time>2026-05-05T09:15:13.689Z</time></trkpt><trkpt lat="36.9575461" lon="10.1709151"><ele>2.0</ele><time>2026-05-05T09:15:14.716Z</time></trkpt><trkpt lat="36.9573782" lon="10.1709517"><ele>2.0</ele><time>2026-05-05T09:15:15.739Z</time></trkpt><trkpt lat="36.9572057" lon="10.1709915"><ele>2.0</ele><time>2026-05-05T09:15:16.691Z</time></trkpt><trkpt lat="36.9570339" lon="10.1710393"><ele>2.0</ele><time>2026-05-05T09:15:17.723Z</time></trkpt><trkpt lat="36.9568644" lon="10.1710829"><ele>2.0</ele><time>2026-05-05T09:15:18.705Z</time></trkpt><trkpt lat="36.9566928" lon="10.1711299"><ele>2.333333333333333</ele><time>2026-05-05T09:15:19.708Z</time></trkpt><trkpt lat="36.9565171" lon="10.1711719"><ele>2.6666666666666665</ele><time>2026-05-05T09:15:20.734Z</time></trkpt><trkpt lat="36.956334" lon="10.1712222"><ele>3.0</ele><time>2026-05-05T09:15:21.742Z</time></trkpt><trkpt lat="36.9561516" lon="10.1712684"><ele>3.0</ele><time>2026-05-05T09:15:22.698Z</time></trkpt><trkpt lat="36.9559681" lon="10.1713129"><ele>3.0</ele><time>2026-05-05T09:15:23.687Z</time></trkpt><trkpt lat="36.9557873" lon="10.1713558"><ele>3.0</ele><time>2026-05-05T09:15:24.731Z</time></trkpt><trkpt lat="36.9556026" lon="10.1713933"><ele>3.0</ele><time>2026-05-05T09:15:25.746Z</time></trkpt><trkpt lat="36.9554116" lon="10.1714265"><ele>3.0</ele><time>2026-05-05T09:15:26.73Z</time></trkpt><trkpt lat="36.9552244" lon="10.1714605"><ele>3.0</ele><time>2026-05-05T09:15:27.697Z</time></trkpt><trkpt lat="36.9550372" lon="10.1714994"><ele>3.0</ele><time>2026-05-05T09:15:28.739Z</time></trkpt><trkpt lat="36.9548525" lon="10.1715415"><ele>3.0</ele><time>2026-05-05T09:15:29.735Z</time></trkpt><trkpt lat="36.9546705" lon="10.1715718"><ele>3.0</ele><time>2026-05-05T09:15:30.728Z</time></trkpt><trkpt lat="36.9544934" lon="10.1716076"><ele>3.0</ele><time>2026-05-05T09:15:31.729Z</time></trkpt><trkpt lat="36.9543218" lon="10.1716464"><ele>3.0</ele><time>2026-05-05T09:15:32.73Z</time></trkpt><trkpt lat="36.9541596" lon="10.171679"><ele>3.0</ele><time>2026-05-05T09:15:33.741Z</time></trkpt><trkpt lat="36.9540042" lon="10.1717092"><ele>2.75</ele><time>2026-05-05T09:15:34.709Z</time></trkpt><trkpt lat="36.9538568" lon="10.1717377"><ele>2.5</ele><time>2026-05-05T09:15:35.726Z</time></trkpt><trkpt lat="36.9537115" lon="10.1717645"><ele>2.25</ele><time>2026-05-05T09:15:36.739Z</time></trkpt><trkpt lat="36.9535769" lon="10.171789"><ele>2.0</ele><time>2026-05-05T09:15:37.738Z</time></trkpt><trkpt lat="36.9534524" lon="10.1718097"><ele>2.0</ele><time>2026-05-05T09:15:38.751Z</time></trkpt><trkpt lat="36.9533303" lon="10.1718298"><ele>2.0</ele><time>2026-05-05T09:15:39.729Z</time></trkpt><trkpt lat="36.9532001" lon="10.1718486"><ele>2.0</ele><time>2026-05-05T09:15:40.735Z</time></trkpt><trkpt lat="36.9530707" lon="10.1718674"><ele>2.0</ele><time>2026-05-05T09:15:41.734Z</time></trkpt><trkpt lat="36.9529431" lon="10.1718837"><ele>2.0</ele><time>2026-05-05T09:15:42.732Z</time></trkpt><trkpt lat="36.9528152" lon="10.1719052"><ele>2.0</ele><time>2026-05-05T09:15:43.734Z</time></trkpt><trkpt lat="36.9526915" lon="10.1719284"><ele>2.0</ele><time>2026-05-05T09:15:44.725Z</time></trkpt><trkpt lat="36.952569" lon="10.1719499"><ele>2.0</ele><time>2026-05-05T09:15:45.726Z</time></trkpt><trkpt lat="36.9524469" lon="10.1719685"><ele>1.75</ele><time>2026-05-05T09:15:46.734Z</time></trkpt><trkpt lat="36.9523246" lon="10.1719916"><ele>1.5</ele><time>2026-05-05T09:15:47.743Z</time></trkpt><trkpt lat="36.9522002" lon="10.1720154"><ele>1.25</ele><time>2026-05-05T09:15:48.733Z</time></trkpt><trkpt lat="36.9520806" lon="10.1720417"><ele>1.0</ele><time>2026-05-05T09:15:49.735Z</time></trkpt><trkpt lat="36.9519567" lon="10.1720625"><ele>1.0</ele><time>2026-05-05T09:15:50.719Z</time></trkpt><trkpt lat="36.9518295" lon="10.1720881"><ele>1.0</ele><time>2026-05-05T09:15:51.711Z</time></trkpt><trkpt lat="36.9517003" lon="10.1721264"><ele>1.0</ele><time>2026-05-05T09:15:52.735Z</time></trkpt><trkpt lat="36.9515664" lon="10.1721701"><ele>1.0</ele><time>2026-05-05T09:15:53.729Z</time></trkpt><trkpt lat="36.9514304" lon="10.1722234"><ele>1.25</ele><time>2026-05-05T09:15:54.725Z</time></trkpt><trkpt lat="36.9512935" lon="10.1722816"><ele>1.5</ele><time>2026-05-05T09:15:55.729Z</time></trkpt><trkpt lat="36.9511536" lon="10.1723478"><ele>1.75</ele><time>2026-05-05T09:15:56.744Z</time></trkpt><trkpt lat="36.9510119" lon="10.1724116"><ele>2.0</ele><time>2026-05-05T09:15:57.716Z</time></trkpt><trkpt lat="36.9508705" lon="10.1724789"><ele>2.25</ele><time>2026-05-05T09:15:58.734Z</time></trkpt><trkpt lat="36.9507293" lon="10.1725452"><ele>2.5</ele><time>2026-05-05T09:15:59.736Z</time></trkpt><trkpt lat="36.9505941" lon="10.1726088"><ele>2.75</ele><time>2026-05-05T09:16:00.716Z</time></trkpt><trkpt lat="36.9504618" lon="10.1726716"><ele>3.0</ele><time>2026-05-05T09:16:01.744Z</time></trkpt><trkpt lat="36.9503267" lon="10.1727286"><ele>3.0</ele><time>2026-05-05T09:16:02.732Z</time></trkpt><trkpt lat="36.9501918" lon="10.1727835"><ele>3.0</ele><time>2026-05-05T09:16:03.69Z</time></trkpt><trkpt lat="36.9500525" lon="10.1728284"><ele>3.0</ele><time>2026-05-05T09:16:04.738Z</time></trkpt><trkpt lat="36.9499104" lon="10.1728695"><ele>3.0</ele><time>2026-05-05T09:16:05.724Z</time></trkpt><trkpt lat="36.949769" lon="10.1729042"><ele>3.25</ele><time>2026-05-05T09:16:06.74Z</time></trkpt><trkpt lat="36.9496306" lon="10.1729434"><ele>3.5</ele><time>2026-05-05T09:16:07.745Z</time></trkpt><trkpt lat="36.9494915" lon="10.1729848"><ele>3.75</ele><time>2026-05-05T09:16:08.737Z</time></trkpt><trkpt lat="36.9493524" lon="10.1730143"><ele>4.0</ele><time>2026-05-05T09:16:09.719Z</time></trkpt><trkpt lat="36.9492164" lon="10.1730515"><ele>4.0</ele><time>2026-05-05T09:16:10.744Z</time></trkpt><trkpt lat="36.949085" lon="10.1730879"><ele>4.0</ele><time>2026-05-05T09:16:11.725Z</time></trkpt><trkpt lat="36.9489536" lon="10.1731243"><ele>4.0</ele><time>2026-05-05T09:16:12.735Z</time></trkpt><trkpt lat="36.9488274" lon="10.1731631"><ele>4.0</ele><time>2026-05-05T09:16:13.703Z</time></trkpt><trkpt lat="36.9487001" lon="10.1732049"><ele>3.75</ele><time>2026-05-05T09:16:14.731Z</time></trkpt><trkpt lat="36.9485709" lon="10.1732477"><ele>3.5</ele><time>2026-05-05T09:16:15.725Z</time></trkpt><trkpt lat="36.9484439" lon="10.1732994"><ele>3.25</ele><time>2026-05-05T09:16:16.727Z</time></trkpt><trkpt lat="36.9483177" lon="10.1733489"><ele>3.0</ele><time>2026-05-05T09:16:17.684Z</time></trkpt><trkpt lat="36.9481898" lon="10.1733989"><ele>2.75</ele><time>2026-05-05T09:16:18.707Z</time></trkpt><trkpt lat="36.9480714" lon="10.1734508"><ele>2.5</ele><time>2026-05-05T09:16:19.747Z</time></trkpt><trkpt lat="36.9479546" lon="10.1735056"><ele>2.25</ele><time>2026-05-05T09:16:20.731Z</time></trkpt><trkpt lat="36.9478386" lon="10.1735574"><ele>2.0</ele><time>2026-05-05T09:16:21.73Z</time></trkpt><trkpt lat="36.9477277" lon="10.1736144"><ele>2.0</ele><time>2026-05-05T09:16:22.731Z</time></trkpt><trkpt lat="36.9476182" lon="10.173671"><ele>2.0</ele><time>2026-05-05T09:16:23.718Z</time></trkpt><trkpt lat="36.947501" lon="10.1737283"><ele>2.0</ele><time>2026-05-05T09:16:24.732Z</time></trkpt><trkpt lat="36.9473891" lon="10.1737858"><ele>2.0</ele><time>2026-05-05T09:16:25.734Z</time></trkpt><trkpt lat="36.9472799" lon="10.1738345"><ele>2.2</ele><time>2026-05-05T09:16:26.75Z</time></trkpt><trkpt lat="36.9471781" lon="10.1738758"><ele>2.4000000000000004</ele><time>2026-05-05T09:16:27.734Z</time></trkpt><trkpt lat="36.947078" lon="10.1739142"><ele>2.5999999999999996</ele><time>2026-05-05T09:16:28.725Z</time></trkpt><trkpt lat="36.9469859" lon="10.1739542"><ele>2.8</ele><time>2026-05-05T09:16:29.732Z</time></trkpt><trkpt lat="36.946898" lon="10.1739956"><ele>3.0</ele><time>2026-05-05T09:16:30.728Z</time></trkpt><trkpt lat="36.9468201" lon="10.1740304"><ele>3.0</ele><time>2026-05-05T09:16:31.718Z</time></trkpt><trkpt lat="36.946739" lon="10.1740657"><ele>3.0</ele><time>2026-05-05T09:16:32.718Z</time></trkpt><trkpt lat="36.9466571" lon="10.1740971"><ele>3.0</ele><time>2026-05-05T09:16:33.685Z</time></trkpt><trkpt lat="36.9465721" lon="10.174136"><ele>3.0</ele><time>2026-05-05T09:16:34.692Z</time></trkpt><trkpt lat="36.9464842" lon="10.1741737"><ele>3.0</ele><time>2026-05-05T09:16:35.694Z</time></trkpt><trkpt lat="36.9463975" lon="10.174209"><ele>3.0</ele><time>2026-05-05T09:16:36.729Z</time></trkpt><trkpt lat="36.9463133" lon="10.1742479"><ele>3.0</ele><time>2026-05-05T09:16:37.733Z</time></trkpt><trkpt lat="36.9462283" lon="10.1742885"><ele>3.0</ele><time>2026-05-05T09:16:38.737Z</time></trkpt><trkpt lat="36.9461456" lon="10.1743241"><ele>3.0</ele><time>2026-05-05T09:16:39.706Z</time></trkpt><trkpt lat="36.9460665" lon="10.1743559"><ele>3.0</ele><time>2026-05-05T09:16:40.703Z</time></trkpt><trkpt lat="36.9459952" lon="10.1743874"><ele>3.0</ele><time>2026-05-05T09:16:41.71Z</time></trkpt><trkpt lat="36.945926" lon="10.1744118"><ele>3.0</ele><time>2026-05-05T09:16:42.744Z</time></trkpt><trkpt lat="36.9458652" lon="10.174439"><ele>2.8333333333333335</ele><time>2026-05-05T09:16:43.684Z</time></trkpt><trkpt lat="36.9458063" lon="10.1744759"><ele>2.6666666666666665</ele><time>2026-05-05T09:16:44.733Z</time></trkpt><trkpt lat="36.9457453" lon="10.1745111"><ele>2.5</ele><time>2026-05-05T09:16:45.734Z</time></trkpt><trkpt lat="36.9456809" lon="10.1745483"><ele>2.333333333333333</ele><time>2026-05-05T09:16:46.718Z</time></trkpt><trkpt lat="36.9456094" lon="10.1745862"><ele>2.1666666666666665</ele><time>2026-05-05T09:16:47.728Z</time></trkpt><trkpt lat="36.9455322" lon="10.1746328"><ele>2.0</ele><time>2026-05-05T09:16:48.736Z</time></trkpt><trkpt lat="36.9454517" lon="10.1746898"><ele>1.9999999999999998</ele><time>2026-05-05T09:16:49.743Z</time></trkpt><trkpt lat="36.9453755" lon="10.1747475"><ele>2.0</ele><time>2026-05-05T09:16:50.749Z</time></trkpt><trkpt lat="36.9452978" lon="10.1747936"><ele>2.0</ele><time>2026-05-05T09:16:51.704Z</time></trkpt><trkpt lat="36.9452224" lon="10.1748413"><ele>2.0</ele><time>2026-05-05T09:16:52.722Z</time></trkpt><trkpt lat="36.9451526" lon="10.1748802"><ele>1.9999999999999998</ele><time>2026-05-05T09:16:53.689Z</time></trkpt><trkpt lat="36.9450865" lon="10.1749093"><ele>2.0</ele><time>2026-05-05T09:16:54.729Z</time></trkpt><trkpt lat="36.9449766" lon="10.1749653"><ele>2.0</ele><time>2026-05-05T09:16:56.73Z</time></trkpt><trkpt lat="36.944874" lon="10.1750061"><ele>2.0</ele><time>2026-05-05T09:16:58.742Z</time></trkpt><trkpt lat="36.9447785" lon="10.1750455"><ele>2.0</ele><time>2026-05-05T09:17:00.709Z</time></trkpt><trkpt lat="36.9446874" lon="10.1750845"><ele>2.0</ele><time>2026-05-05T09:17:02.733Z</time></trkpt><trkpt lat="36.9446031" lon="10.1751259"><ele>2.0</ele><time>2026-05-05T09:17:04.736Z</time></trkpt><trkpt lat="36.9445284" lon="10.1751726"><ele>1.9999999999999998</ele><time>2026-05-05T09:17:06.731Z</time></trkpt><trkpt lat="36.9444676" lon="10.1752182"><ele>2.0</ele><time>2026-05-05T09:17:08.728Z</time></trkpt><trkpt lat="36.9443939" lon="10.1752621"><ele>2.0</ele><time>2026-05-05T09:17:10.732Z</time></trkpt><trkpt lat="36.9442995" lon="10.1753291"><ele>2.0</ele><time>2026-05-05T09:17:12.733Z</time></trkpt><trkpt lat="36.9442319" lon="10.1753679"><ele>1.9999999999999998</ele><time>2026-05-05T09:17:13.734Z</time></trkpt><trkpt lat="36.944152" lon="10.1754062"><ele>2.0</ele><time>2026-05-05T09:17:14.725Z</time></trkpt><trkpt lat="36.9440776" lon="10.1754335"><ele>2.333333333333333</ele><time>2026-05-05T09:17:15.736Z</time></trkpt><trkpt lat="36.9440067" lon="10.1754733"><ele>2.6666666666666665</ele><time>2026-05-05T09:17:16.73Z</time></trkpt><trkpt lat="36.9439284" lon="10.1755117"><ele>3.0</ele><time>2026-05-05T09:17:17.701Z</time></trkpt><trkpt lat="36.9438525" lon="10.1755574"><ele>3.333333333333333</ele><time>2026-05-05T09:17:18.706Z</time></trkpt><trkpt lat="36.9437744" lon="10.1756023"><ele>3.6666666666666665</ele><time>2026-05-05T09:17:19.747Z</time></trkpt><trkpt lat="36.9436935" lon="10.1756462"><ele>4.0</ele><time>2026-05-05T09:17:20.739Z</time></trkpt><trkpt lat="36.9436127" lon="10.1756874"><ele>3.9999999999999996</ele><time>2026-05-05T09:17:21.737Z</time></trkpt><trkpt lat="36.9435342" lon="10.175731"><ele>4.0</ele><time>2026-05-05T09:17:22.732Z</time></trkpt><trkpt lat="36.9434488" lon="10.17577"><ele>4.0</ele><time>2026-05-05T09:17:23.739Z</time></trkpt><trkpt lat="36.9433635" lon="10.1758146"><ele>4.0</ele><time>2026-05-05T09:17:24.731Z</time></trkpt><trkpt lat="36.9432798" lon="10.1758646"><ele>3.9999999999999996</ele><time>2026-05-05T09:17:25.729Z</time></trkpt><trkpt lat="36.9432035" lon="10.1759119"><ele>4.0</ele><time>2026-05-05T09:17:26.746Z</time></trkpt><trkpt lat="36.9431256" lon="10.1759571"><ele>4.166666666666666</ele><time>2026-05-05T09:17:27.735Z</time></trkpt><trkpt lat="36.9430449" lon="10.1759988"><ele>4.333333333333333</ele><time>2026-05-05T09:17:28.739Z</time></trkpt><trkpt lat="36.9429638" lon="10.1760393"><ele>4.5</ele><time>2026-05-05T09:17:29.75Z</time></trkpt><trkpt lat="36.9428803" lon="10.1760844"><ele>4.666666666666667</ele><time>2026-05-05T09:17:30.741Z</time></trkpt><trkpt lat="36.9428009" lon="10.1761324"><ele>4.833333333333334</ele><time>2026-05-05T09:17:31.725Z</time></trkpt><trkpt lat="36.9427191" lon="10.1761799"><ele>5.0</ele><time>2026-05-05T09:17:32.734Z</time></trkpt><trkpt lat="36.9426406" lon="10.176224"><ele>5.0</ele><time>2026-05-05T09:17:33.716Z</time></trkpt><trkpt lat="36.9425624" lon="10.1762701"><ele>5.0</ele><time>2026-05-05T09:17:34.7Z</time></trkpt><trkpt lat="36.9424821" lon="10.1763101"><ele>5.0</ele><time>2026-05-05T09:17:35.71Z</time></trkpt><trkpt lat="36.9424093" lon="10.1763632"><ele>5.0</ele><time>2026-05-05T09:17:36.699Z</time></trkpt><trkpt lat="36.9423321" lon="10.1764053"><ele>5.0</ele><time>2026-05-05T09:17:37.74Z</time></trkpt><trkpt lat="36.9422527" lon="10.1764484"><ele>5.0</ele><time>2026-05-05T09:17:38.717Z</time></trkpt><trkpt lat="36.9421716" lon="10.1764906"><ele>5.0</ele><time>2026-05-05T09:17:39.708Z</time></trkpt><trkpt lat="36.9420927" lon="10.1765313"><ele>5.0</ele><time>2026-05-05T09:17:40.716Z</time></trkpt><trkpt lat="36.9420138" lon="10.1765689"><ele>5.0</ele><time>2026-05-05T09:17:41.725Z</time></trkpt><trkpt lat="36.9419322" lon="10.1766074"><ele>5.0</ele><time>2026-05-05T09:17:42.738Z</time></trkpt><trkpt lat="36.9418523" lon="10.1766468"><ele>5.0</ele><time>2026-05-05T09:17:43.742Z</time></trkpt><trkpt lat="36.9417728" lon="10.1766841"><ele>5.0</ele><time>2026-05-05T09:17:44.729Z</time></trkpt><trkpt lat="36.9416957" lon="10.1767241"><ele>4.833333333333334</ele><time>2026-05-05T09:17:45.736Z</time></trkpt><trkpt lat="36.9416231" lon="10.1767644"><ele>4.666666666666667</ele><time>2026-05-05T09:17:46.729Z</time></trkpt><trkpt lat="36.941563" lon="10.176799"><ele>4.5</ele><time>2026-05-05T09:17:47.74Z</time></trkpt><trkpt lat="36.9415034" lon="10.1768284"><ele>4.333333333333333</ele><time>2026-05-05T09:17:48.753Z</time></trkpt><trkpt lat="36.9414084" lon="10.1768782"><ele>4.166666666666666</ele><time>2026-05-05T09:17:50.718Z</time></trkpt><trkpt lat="36.9413333" lon="10.176914"><ele>4.0</ele><time>2026-05-05T09:17:53.738Z</time></trkpt><trkpt lat="36.9412674" lon="10.1769356"><ele>4.0</ele><time>2026-05-05T09:18:11.713Z</time></trkpt><trkpt lat="36.9411855" lon="10.1769811"><ele>3.9999999999999996</ele><time>2026-05-05T09:18:15.726Z</time></trkpt><trkpt lat="36.9411146" lon="10.1770078"><ele>4.0</ele><time>2026-05-05T09:18:18.709Z</time></trkpt><trkpt lat="36.9410553" lon="10.1770428"><ele>4.0</ele><time>2026-05-05T09:18:21.735Z</time></trkpt><trkpt lat="36.9409912" lon="10.1770813"><ele>3.9999999999999996</ele><time>2026-05-05T09:18:36.723Z</time></trkpt><trkpt lat="36.9409332" lon="10.1771151"><ele>4.0</ele><time>2026-05-05T09:18:39.714Z</time></trkpt><trkpt lat="36.9408735" lon="10.1771428"><ele>4.0</ele><time>2026-05-05T09:18:41.721Z</time></trkpt><trkpt lat="36.9408087" lon="10.1771728"><ele>3.833333333333333</ele><time>2026-05-05T09:18:43.712Z</time></trkpt><trkpt lat="36.940746" lon="10.1772014"><ele>3.6666666666666665</ele><time>2026-05-05T09:18:45.742Z</time></trkpt><trkpt lat="36.9406819" lon="10.1772393"><ele>3.5</ele><time>2026-05-05T09:18:47.75Z</time></trkpt><trkpt lat="36.940622" lon="10.1772729"><ele>3.333333333333333</ele><time>2026-05-05T09:18:49.756Z</time></trkpt><trkpt lat="36.9405387" lon="10.1773109"><ele>3.1666666666666665</ele><time>2026-05-05T09:18:51.736Z</time></trkpt><trkpt lat="36.9404778" lon="10.1773493"><ele>3.0</ele><time>2026-05-05T09:18:53.729Z</time></trkpt><trkpt lat="36.9403913" lon="10.1773999"><ele>3.2</ele><time>2026-05-05T09:18:56.712Z</time></trkpt><trkpt lat="36.940307" lon="10.1774513"><ele>3.4</ele><time>2026-05-05T09:18:58.727Z</time></trkpt><trkpt lat="36.940228" lon="10.1775015"><ele>3.6000000000000005</ele><time>2026-05-05T09:19:00.733Z</time></trkpt><trkpt lat="36.9401639" lon="10.177559"><ele>3.8000000000000003</ele><time>2026-05-05T09:19:02.708Z</time></trkpt><trkpt lat="36.9400674" lon="10.1776074"><ele>4.0</ele><time>2026-05-05T09:19:04.715Z</time></trkpt><trkpt lat="36.9399644" lon="10.1776527"><ele>3.9999999999999996</ele><time>2026-05-05T09:19:06.718Z</time></trkpt><trkpt lat="36.9398641" lon="10.1777066"><ele>4.0</ele><time>2026-05-05T09:19:08.724Z</time></trkpt><trkpt lat="36.9397807" lon="10.1777478"><ele>4.0</ele><time>2026-05-05T09:19:10.734Z</time></trkpt><trkpt lat="36.9397116" lon="10.1777807"><ele>4.0</ele><time>2026-05-05T09:19:12.742Z</time></trkpt><trkpt lat="36.9396476" lon="10.1778106"><ele>3.9999999999999996</ele><time>2026-05-05T09:19:14.74Z</time></trkpt><trkpt lat="36.9395864" lon="10.1778335"><ele>4.0</ele><time>2026-05-05T09:19:16.732Z</time></trkpt><trkpt lat="36.9394931" lon="10.1778729"><ele>3.9999999999999996</ele><time>2026-05-05T09:19:19.688Z</time></trkpt><trkpt lat="36.9394013" lon="10.1779244"><ele>4.0</ele><time>2026-05-05T09:19:21.75Z</time></trkpt><trkpt lat="36.9393326" lon="10.1779879"><ele>4.0</ele><time>2026-05-05T09:19:23.746Z</time></trkpt><trkpt lat="36.9393111" lon="10.1780861"><ele>4.0</ele><time>2026-05-05T09:19:25.744Z</time></trkpt><trkpt lat="36.9393258" lon="10.1781963"><ele>3.9999999999999996</ele><time>2026-05-05T09:19:27.742Z</time></trkpt><trkpt lat="36.9393704" lon="10.1782723"><ele>4.0</ele><time>2026-05-05T09:19:29.737Z</time></trkpt><trkpt lat="36.9394578" lon="10.1783319"><ele>4.0</ele><time>2026-05-05T09:19:31.707Z</time></trkpt><trkpt lat="36.939548" lon="10.1783889"><ele>4.0</ele><time>2026-05-05T09:19:33.733Z</time></trkpt><trkpt lat="36.9396379" lon="10.17844"><ele>4.0</ele><time>2026-05-05T09:19:35.736Z</time></trkpt><trkpt lat="36.9397371" lon="10.1785104"><ele>4.0</ele><time>2026-05-05T09:19:37.739Z</time></trkpt><trkpt lat="36.9398356" lon="10.1786014"><ele>4.0</ele><time>2026-05-05T09:19:39.726Z</time></trkpt><trkpt lat="36.9399318" lon="10.1786733"><ele>3.9999999999999996</ele><time>2026-05-05T09:19:41.747Z</time></trkpt><trkpt lat="36.9400283" lon="10.1787547"><ele>4.0</ele><time>2026-05-05T09:19:43.733Z</time></trkpt><trkpt lat="36.9401334" lon="10.1788476"><ele>4.0</ele><time>2026-05-05T09:19:45.746Z</time></trkpt><trkpt lat="36.9401889" lon="10.1788931"><ele>4.0</ele><time>2026-05-05T09:19:46.741Z</time></trkpt><trkpt lat="36.9402455" lon="10.1789421"><ele>3.9999999999999996</ele><time>2026-05-05T09:19:47.729Z</time></trkpt><trkpt lat="36.9403028" lon="10.1789905"><ele>4.0</ele><time>2026-05-05T09:19:48.733Z</time></trkpt><trkpt lat="36.9403612" lon="10.1790336"><ele>3.9999999999999996</ele><time>2026-05-05T09:19:49.733Z</time></trkpt><trkpt lat="36.9404155" lon="10.1790754"><ele>4.0</ele><time>2026-05-05T09:19:50.735Z</time></trkpt><trkpt lat="36.9404721" lon="10.1791321"><ele>4.0</ele><time>2026-05-05T09:19:51.719Z</time></trkpt><trkpt lat="36.9405323" lon="10.1791878"><ele>4.0</ele><time>2026-05-05T09:19:52.748Z</time></trkpt><trkpt lat="36.9405999" lon="10.1792441"><ele>3.9999999999999996</ele><time>2026-05-05T09:19:53.747Z</time></trkpt><trkpt lat="36.9406738" lon="10.1793073"><ele>4.0</ele><time>2026-05-05T09:19:54.738Z</time></trkpt><trkpt lat="36.9407421" lon="10.1793706"><ele>3.9999999999999996</ele><time>2026-05-05T09:19:55.74Z</time></trkpt><trkpt lat="36.9408138" lon="10.1794349"><ele>4.0</ele><time>2026-05-05T09:19:56.736Z</time></trkpt><trkpt lat="36.9408858" lon="10.1794987"><ele>4.0</ele><time>2026-05-05T09:19:57.718Z</time></trkpt><trkpt lat="36.9409516" lon="10.1795636"><ele>4.0</ele><time>2026-05-05T09:19:58.734Z</time></trkpt><trkpt lat="36.9410162" lon="10.1796202"><ele>3.9999999999999996</ele><time>2026-05-05T09:19:59.736Z</time></trkpt><trkpt lat="36.941078" lon="10.1796796"><ele>4.0</ele><time>2026-05-05T09:20:00.765Z</time></trkpt><trkpt lat="36.9411439" lon="10.1797407"><ele>4.0</ele><time>2026-05-05T09:20:01.713Z</time></trkpt><trkpt lat="36.9412109" lon="10.1797984"><ele>4.0</ele><time>2026-05-05T09:20:02.721Z</time></trkpt><trkpt lat="36.9412815" lon="10.1798565"><ele>4.0</ele><time>2026-05-05T09:20:03.74Z</time></trkpt><trkpt lat="36.9413564" lon="10.1799245"><ele>4.0</ele><time>2026-05-05T09:20:04.734Z</time></trkpt><trkpt lat="36.9414362" lon="10.1799885"><ele>4.0</ele><time>2026-05-05T09:20:05.729Z</time></trkpt><trkpt lat="36.9415206" lon="10.1800615"><ele>4.0</ele><time>2026-05-05T09:20:06.734Z</time></trkpt><trkpt lat="36.9416089" lon="10.1801345"><ele>4.0</ele><time>2026-05-05T09:20:07.747Z</time></trkpt><trkpt lat="36.9417035" lon="10.1802122"><ele>4.0</ele><time>2026-05-05T09:20:08.734Z</time></trkpt><trkpt lat="36.9417962" lon="10.18029"><ele>4.0</ele><time>2026-05-05T09:20:09.732Z</time></trkpt><trkpt lat="36.9418869" lon="10.1803692"><ele>4.0</ele><time>2026-05-05T09:20:10.736Z</time></trkpt><trkpt lat="36.9419765" lon="10.180453"><ele>4.0</ele><time>2026-05-05T09:20:11.72Z</time></trkpt><trkpt lat="36.9420615" lon="10.1805295"><ele>4.0</ele><time>2026-05-05T09:20:12.722Z</time></trkpt><trkpt lat="36.9421381" lon="10.1805951"><ele>4.0</ele><time>2026-05-05T09:20:13.692Z</time></trkpt><trkpt lat="36.9422113" lon="10.1806612"><ele>4.0</ele><time>2026-05-05T09:20:14.692Z</time></trkpt><trkpt lat="36.9422851" lon="10.1807318"><ele>4.0</ele><time>2026-05-05T09:20:15.733Z</time></trkpt><trkpt lat="36.9423642" lon="10.1807969"><ele>3.9999999999999996</ele><time>2026-05-05T09:20:16.733Z</time></trkpt><trkpt lat="36.942445" lon="10.180864"><ele>4.0</ele><time>2026-05-05T09:20:17.736Z</time></trkpt><trkpt lat="36.9425218" lon="10.180934"><ele>4.0</ele><time>2026-05-05T09:20:18.715Z</time></trkpt><trkpt lat="36.9425926" lon="10.1809991"><ele>4.0</ele><time>2026-05-05T09:20:19.729Z</time></trkpt><trkpt lat="36.9426651" lon="10.1810645"><ele>3.9999999999999996</ele><time>2026-05-05T09:20:20.731Z</time></trkpt><trkpt lat="36.9427271" lon="10.1811217"><ele>4.0</ele><time>2026-05-05T09:20:21.734Z</time></trkpt><trkpt lat="36.9427869" lon="10.1811768"><ele>4.0</ele><time>2026-05-05T09:20:22.73Z</time></trkpt><trkpt lat="36.9428481" lon="10.1812286"><ele>3.9999999999999996</ele><time>2026-05-05T09:20:23.73Z</time></trkpt><trkpt lat="36.9429072" lon="10.1812805"><ele>4.0</ele><time>2026-05-05T09:20:24.73Z</time></trkpt><trkpt lat="36.9429686" lon="10.1813423"><ele>4.0</ele><time>2026-05-05T09:20:25.726Z</time></trkpt><trkpt lat="36.9430313" lon="10.1813967"><ele>3.9999999999999996</ele><time>2026-05-05T09:20:26.717Z</time></trkpt><trkpt lat="36.9430909" lon="10.1814528"><ele>4.0</ele><time>2026-05-05T09:20:27.74Z</time></trkpt><trkpt lat="36.9431537" lon="10.1815"><ele>4.0</ele><time>2026-05-05T09:20:28.726Z</time></trkpt><trkpt lat="36.9432167" lon="10.1815446"><ele>3.9999999999999996</ele><time>2026-05-05T09:20:29.74Z</time></trkpt><trkpt lat="36.9432756" lon="10.1815899"><ele>4.0</ele><time>2026-05-05T09:20:30.734Z</time></trkpt><trkpt lat="36.9433374" lon="10.1816423"><ele>4.0</ele><time>2026-05-05T09:20:31.738Z</time></trkpt><trkpt lat="36.9434011" lon="10.1816978"><ele>4.0</ele><time>2026-05-05T09:20:32.751Z</time></trkpt><trkpt lat="36.9434669" lon="10.1817559"><ele>3.9999999999999996</ele><time>2026-05-05T09:20:33.743Z</time></trkpt><trkpt lat="36.9435402" lon="10.1818155"><ele>4.0</ele><time>2026-05-05T09:20:34.706Z</time></trkpt><trkpt lat="36.9436128" lon="10.1818745"><ele>4.2</ele><time>2026-05-05T09:20:35.72Z</time></trkpt><trkpt lat="36.9436879" lon="10.18194"><ele>4.4</ele><time>2026-05-05T09:20:36.734Z</time></trkpt><trkpt lat="36.9437609" lon="10.1820051"><ele>4.6</ele><time>2026-05-05T09:20:37.749Z</time></trkpt><trkpt lat="36.9438336" lon="10.1820656"><ele>4.8</ele><time>2026-05-05T09:20:38.735Z</time></trkpt><trkpt lat="36.9439054" lon="10.1821332"><ele>5.0</ele><time>2026-05-05T09:20:39.74Z</time></trkpt><trkpt lat="36.9439808" lon="10.1822054"><ele>5.0</ele><time>2026-05-05T09:20:40.734Z</time></trkpt><trkpt lat="36.9440542" lon="10.1822695"><ele>5.0</ele><time>2026-05-05T09:20:41.733Z</time></trkpt><trkpt lat="36.9441282" lon="10.1823366"><ele>5.0</ele><time>2026-05-05T09:20:42.735Z</time></trkpt><trkpt lat="36.9442052" lon="10.1824091"><ele>5.0</ele><time>2026-05-05T09:20:43.735Z</time></trkpt><trkpt lat="36.9442809" lon="10.1824734"><ele>5.0</ele><time>2026-05-05T09:20:44.72Z</time></trkpt><trkpt lat="36.9443576" lon="10.1825327"><ele>4.833333333333334</ele><time>2026-05-05T09:20:45.743Z</time></trkpt><trkpt lat="36.9444357" lon="10.1825971"><ele>4.666666666666667</ele><time>2026-05-05T09:20:46.731Z</time></trkpt><trkpt lat="36.9445108" lon="10.182655"><ele>4.5</ele><time>2026-05-05T09:20:47.735Z</time></trkpt><trkpt lat="36.944584" lon="10.1827148"><ele>4.333333333333333</ele><time>2026-05-05T09:20:48.737Z</time></trkpt><trkpt lat="36.9446575" lon="10.1827655"><ele>4.166666666666666</ele><time>2026-05-05T09:20:49.728Z</time></trkpt><trkpt lat="36.9447318" lon="10.1828181"><ele>4.0</ele><time>2026-05-05T09:20:50.733Z</time></trkpt><trkpt lat="36.9448052" lon="10.1828784"><ele>3.9999999999999996</ele><time>2026-05-05T09:20:51.742Z</time></trkpt><trkpt lat="36.9448776" lon="10.1829385"><ele>4.0</ele><time>2026-05-05T09:20:52.733Z</time></trkpt><trkpt lat="36.9449435" lon="10.1830058"><ele>4.0</ele><time>2026-05-05T09:20:53.725Z</time></trkpt><trkpt lat="36.9450118" lon="10.1830721"><ele>4.0</ele><time>2026-05-05T09:20:54.731Z</time></trkpt><trkpt lat="36.9450797" lon="10.1831387"><ele>3.9999999999999996</ele><time>2026-05-05T09:20:55.73Z</time></trkpt><trkpt lat="36.9451487" lon="10.1831946"><ele>4.0</ele><time>2026-05-05T09:20:56.725Z</time></trkpt><trkpt lat="36.9452168" lon="10.1832553"><ele>3.9999999999999996</ele><time>2026-05-05T09:20:57.731Z</time></trkpt><trkpt lat="36.9452839" lon="10.18332"><ele>4.0</ele><time>2026-05-05T09:20:58.724Z</time></trkpt><trkpt lat="36.9453538" lon="10.1833833"><ele>4.0</ele><time>2026-05-05T09:20:59.724Z</time></trkpt><trkpt lat="36.9454217" lon="10.1834442"><ele>4.0</ele><time>2026-05-05T09:21:00.732Z</time></trkpt><trkpt lat="36.9454884" lon="10.1835027"><ele>3.9999999999999996</ele><time>2026-05-05T09:21:01.75Z</time></trkpt><trkpt lat="36.945556" lon="10.183556"><ele>4.0</ele><time>2026-05-05T09:21:02.738Z</time></trkpt><trkpt lat="36.9456228" lon="10.1836068"><ele>3.9999999999999996</ele><time>2026-05-05T09:21:03.728Z</time></trkpt><trkpt lat="36.9456906" lon="10.1836584"><ele>4.0</ele><time>2026-05-05T09:21:04.719Z</time></trkpt><trkpt lat="36.9457585" lon="10.1837035"><ele>4.0</ele><time>2026-05-05T09:21:05.722Z</time></trkpt><trkpt lat="36.9458258" lon="10.1837474"><ele>4.0</ele><time>2026-05-05T09:21:06.739Z</time></trkpt><trkpt lat="36.9458943" lon="10.1837823"><ele>3.9999999999999996</ele><time>2026-05-05T09:21:07.714Z</time></trkpt><trkpt lat="36.9459639" lon="10.1838172"><ele>4.0</ele><time>2026-05-05T09:21:08.73Z</time></trkpt><trkpt lat="36.9460361" lon="10.1838481"><ele>4.166666666666666</ele><time>2026-05-05T09:21:09.69Z</time></trkpt><trkpt lat="36.9461097" lon="10.1838835"><ele>4.333333333333333</ele><time>2026-05-05T09:21:10.739Z</time></trkpt><trkpt lat="36.946179" lon="10.1839123"><ele>4.5</ele><time>2026-05-05T09:21:11.731Z</time></trkpt><trkpt lat="36.946262" lon="10.1839477"><ele>4.666666666666667</ele><time>2026-05-05T09:21:12.711Z</time></trkpt><trkpt lat="36.946348" lon="10.1839761"><ele>4.833333333333334</ele><time>2026-05-05T09:21:13.73Z</time></trkpt><trkpt lat="36.9464393" lon="10.1840061"><ele>5.0</ele><time>2026-05-05T09:21:14.704Z</time></trkpt><trkpt lat="36.9465285" lon="10.1840376"><ele>5.0</ele><time>2026-05-05T09:21:15.722Z</time></trkpt><trkpt lat="36.9466172" lon="10.1840645"><ele>5.0</ele><time>2026-05-05T09:21:16.716Z</time></trkpt><trkpt lat="36.9467036" lon="10.1840905"><ele>5.0</ele><time>2026-05-05T09:21:17.71Z</time></trkpt><trkpt lat="36.9467838" lon="10.1841212"><ele>5.0</ele><time>2026-05-05T09:21:18.736Z</time></trkpt><trkpt lat="36.9468652" lon="10.1841502"><ele>5.0</ele><time>2026-05-05T09:21:19.729Z</time></trkpt><trkpt lat="36.9469454" lon="10.1841732"><ele>5.0</ele><time>2026-05-05T09:21:20.739Z</time></trkpt><trkpt lat="36.9470219" lon="10.1842054"><ele>5.0</ele><time>2026-05-05T09:21:21.74Z</time></trkpt><trkpt lat="36.94709" lon="10.184226"><ele>5.0</ele><time>2026-05-05T09:21:22.734Z</time></trkpt><trkpt lat="36.9471556" lon="10.1842491"><ele>5.0</ele><time>2026-05-05T09:21:23.728Z</time></trkpt><trkpt lat="36.947218" lon="10.1842643"><ele>5.0</ele><time>2026-05-05T09:21:24.755Z</time></trkpt><trkpt lat="36.9473409" lon="10.1843019"><ele>5.0</ele><time>2026-05-05T09:21:26.732Z</time></trkpt><trkpt lat="36.9474145" lon="10.184327"><ele>5.0</ele><time>2026-05-05T09:21:27.741Z</time></trkpt><trkpt lat="36.9474898" lon="10.1843522"><ele>4.833333333333334</ele><time>2026-05-05T09:21:28.726Z</time></trkpt><trkpt lat="36.9475728" lon="10.1843739"><ele>4.666666666666667</ele><time>2026-05-05T09:21:29.735Z</time></trkpt><trkpt lat="36.9476546" lon="10.1844003"><ele>4.5</ele><time>2026-05-05T09:21:30.736Z</time></trkpt><trkpt lat="36.9477436" lon="10.1844301"><ele>4.333333333333333</ele><time>2026-05-05T09:21:31.728Z</time></trkpt><trkpt lat="36.9478294" lon="10.1844589"><ele>4.166666666666666</ele><time>2026-05-05T09:21:32.747Z</time></trkpt><trkpt lat="36.9479138" lon="10.1844833"><ele>4.0</ele><time>2026-05-05T09:21:33.741Z</time></trkpt><trkpt lat="36.9480041" lon="10.184512"><ele>3.9999999999999996</ele><time>2026-05-05T09:21:34.72Z</time></trkpt><trkpt lat="36.948095" lon="10.1845401"><ele>4.0</ele><time>2026-05-05T09:21:35.697Z</time></trkpt><trkpt lat="36.9481815" lon="10.1845698"><ele>4.0</ele><time>2026-05-05T09:21:36.719Z</time></trkpt><trkpt lat="36.9482622" lon="10.1846008"><ele>4.0</ele><time>2026-05-05T09:21:37.735Z</time></trkpt><trkpt lat="36.94834" lon="10.1846306"><ele>3.9999999999999996</ele><time>2026-05-05T09:21:38.734Z</time></trkpt><trkpt lat="36.9484167" lon="10.1846624"><ele>4.0</ele><time>2026-05-05T09:21:39.749Z</time></trkpt><trkpt lat="36.9484939" lon="10.1846855"><ele>3.833333333333333</ele><time>2026-05-05T09:21:40.729Z</time></trkpt><trkpt lat="36.9485687" lon="10.1847106"><ele>3.6666666666666665</ele><time>2026-05-05T09:21:41.737Z</time></trkpt><trkpt lat="36.9486409" lon="10.1847364"><ele>3.5</ele><time>2026-05-05T09:21:42.757Z</time></trkpt><trkpt lat="36.9487109" lon="10.1847556"><ele>3.333333333333333</ele><time>2026-05-05T09:21:43.731Z</time></trkpt><trkpt lat="36.948783" lon="10.1847779"><ele>3.1666666666666665</ele><time>2026-05-05T09:21:44.72Z</time></trkpt><trkpt lat="36.9488588" lon="10.1848035"><ele>3.0</ele><time>2026-05-05T09:21:45.715Z</time></trkpt><trkpt lat="36.948931" lon="10.184835"><ele>3.3333333333333335</ele><time>2026-05-05T09:21:46.706Z</time></trkpt><trkpt lat="36.9490026" lon="10.1848602"><ele>3.666666666666667</ele><time>2026-05-05T09:21:47.713Z</time></trkpt><trkpt lat="36.9490782" lon="10.1848803"><ele>4.0</ele><time>2026-05-05T09:21:48.73Z</time></trkpt><trkpt lat="36.9491551" lon="10.1849023"><ele>4.333333333333334</ele><time>2026-05-05T09:21:49.739Z</time></trkpt><trkpt lat="36.9492368" lon="10.1849314"><ele>4.666666666666667</ele><time>2026-05-05T09:21:50.741Z</time></trkpt><trkpt lat="36.9493208" lon="10.1849593"><ele>5.0</ele><time>2026-05-05T09:21:51.727Z</time></trkpt><trkpt lat="36.9494042" lon="10.1849848"><ele>5.0</ele><time>2026-05-05T09:21:52.733Z</time></trkpt><trkpt lat="36.9494894" lon="10.1850106"><ele>5.0</ele><time>2026-05-05T09:21:53.71Z</time></trkpt><trkpt lat="36.949572" lon="10.1850369"><ele>5.0</ele><time>2026-05-05T09:21:54.752Z</time></trkpt><trkpt lat="36.9496533" lon="10.1850677"><ele>5.0</ele><time>2026-05-05T09:21:55.732Z</time></trkpt><trkpt lat="36.9497262" lon="10.1850869"><ele>5.0</ele><time>2026-05-05T09:21:56.726Z</time></trkpt><trkpt lat="36.9497923" lon="10.1851139"><ele>5.0</ele><time>2026-05-05T09:21:57.689Z</time></trkpt><trkpt lat="36.9499132" lon="10.1851554"><ele>4.8</ele><time>2026-05-05T09:21:59.734Z</time></trkpt><trkpt lat="36.9500436" lon="10.185199"><ele>4.6</ele><time>2026-05-05T09:22:01.735Z</time></trkpt><trkpt lat="36.9501147" lon="10.1852242"><ele>4.4</ele><time>2026-05-05T09:22:02.728Z</time></trkpt><trkpt lat="36.9501904" lon="10.185252"><ele>4.2</ele><time>2026-05-05T09:22:03.708Z</time></trkpt><trkpt lat="36.9502717" lon="10.1852811"><ele>4.0</ele><time>2026-05-05T09:22:04.725Z</time></trkpt><trkpt lat="36.9503604" lon="10.1853071"><ele>3.9999999999999996</ele><time>2026-05-05T09:22:05.735Z</time></trkpt><trkpt lat="36.9504458" lon="10.1853331"><ele>4.0</ele><time>2026-05-05T09:22:06.725Z</time></trkpt><trkpt lat="36.9505295" lon="10.1853633"><ele>4.0</ele><time>2026-05-05T09:22:07.724Z</time></trkpt><trkpt lat="36.9506091" lon="10.1853934"><ele>4.0</ele><time>2026-05-05T09:22:08.706Z</time></trkpt><trkpt lat="36.9506809" lon="10.1854212"><ele>3.9999999999999996</ele><time>2026-05-05T09:22:09.692Z</time></trkpt><trkpt lat="36.9507477" lon="10.185445"><ele>4.0</ele><time>2026-05-05T09:22:10.747Z</time></trkpt><trkpt lat="36.9508207" lon="10.1854657"><ele>3.9999999999999996</ele><time>2026-05-05T09:22:11.718Z</time></trkpt><trkpt lat="36.9508983" lon="10.1854839"><ele>4.0</ele><time>2026-05-05T09:22:12.727Z</time></trkpt><trkpt lat="36.950978" lon="10.1855037"><ele>4.0</ele><time>2026-05-05T09:22:13.733Z</time></trkpt><trkpt lat="36.9510572" lon="10.1855245"><ele>4.0</ele><time>2026-05-05T09:22:14.712Z</time></trkpt><trkpt lat="36.9511305" lon="10.1855442"><ele>3.9999999999999996</ele><time>2026-05-05T09:22:15.707Z</time></trkpt><trkpt lat="36.951206" lon="10.1855685"><ele>4.0</ele><time>2026-05-05T09:22:16.711Z</time></trkpt><trkpt lat="36.9512844" lon="10.1855884"><ele>4.0</ele><time>2026-05-05T09:22:17.739Z</time></trkpt><trkpt lat="36.9513559" lon="10.1856113"><ele>3.9999999999999996</ele><time>2026-05-05T09:22:18.748Z</time></trkpt><trkpt lat="36.9514261" lon="10.1856358"><ele>4.0</ele><time>2026-05-05T09:22:19.73Z</time></trkpt><trkpt lat="36.951494" lon="10.185666"><ele>4.0</ele><time>2026-05-05T09:22:20.733Z</time></trkpt><trkpt lat="36.9515636" lon="10.1856946"><ele>3.9999999999999996</ele><time>2026-05-05T09:22:21.726Z</time></trkpt><trkpt lat="36.9516347" lon="10.1857319"><ele>4.0</ele><time>2026-05-05T09:22:22.733Z</time></trkpt><trkpt lat="36.9517034" lon="10.1857769"><ele>4.0</ele><time>2026-05-05T09:22:23.684Z</time></trkpt><trkpt lat="36.9517709" lon="10.1858297"><ele>4.166666666666666</ele><time>2026-05-05T09:22:24.716Z</time></trkpt><trkpt lat="36.9518346" lon="10.185887"><ele>4.333333333333333</ele><time>2026-05-05T09:22:25.736Z</time></trkpt><trkpt lat="36.9518972" lon="10.1859515"><ele>4.5</ele><time>2026-05-05T09:22:26.762Z</time></trkpt><trkpt lat="36.9519553" lon="10.1860108"><ele>4.666666666666667</ele><time>2026-05-05T09:22:27.747Z</time></trkpt><trkpt lat="36.9520117" lon="10.1860723"><ele>4.833333333333334</ele><time>2026-05-05T09:22:28.698Z</time></trkpt><trkpt lat="36.9520646" lon="10.1861442"><ele>5.0</ele><time>2026-05-05T09:22:29.747Z</time></trkpt><trkpt lat="36.9521075" lon="10.1862131"><ele>5.0</ele><time>2026-05-05T09:22:30.739Z</time></trkpt><trkpt lat="36.9521549" lon="10.1862834"><ele>5.0</ele><time>2026-05-05T09:22:31.741Z</time></trkpt><trkpt lat="36.952206" lon="10.1863546"><ele>5.0</ele><time>2026-05-05T09:22:32.716Z</time></trkpt><trkpt lat="36.952252" lon="10.1864273"><ele>5.0</ele><time>2026-05-05T09:22:33.73Z</time></trkpt><trkpt lat="36.9522967" lon="10.1865043"><ele>5.0</ele><time>2026-05-05T09:22:34.714Z</time></trkpt><trkpt lat="36.9523406" lon="10.1865875"><ele>5.0</ele><time>2026-05-05T09:22:35.716Z</time></trkpt><trkpt lat="36.9523901" lon="10.1866765"><ele>4.833333333333334</ele><time>2026-05-05T09:22:36.741Z</time></trkpt><trkpt lat="36.9524371" lon="10.1867636"><ele>4.666666666666667</ele><time>2026-05-05T09:22:37.728Z</time></trkpt><trkpt lat="36.9524824" lon="10.1868523"><ele>4.5</ele><time>2026-05-05T09:22:38.731Z</time></trkpt><trkpt lat="36.9525307" lon="10.186945"><ele>4.333333333333333</ele><time>2026-05-05T09:22:39.716Z</time></trkpt><trkpt lat="36.9525749" lon="10.1870405"><ele>4.166666666666666</ele><time>2026-05-05T09:22:40.727Z</time></trkpt><trkpt lat="36.9526215" lon="10.1871289"><ele>4.0</ele><time>2026-05-05T09:22:41.726Z</time></trkpt><trkpt lat="36.9526703" lon="10.1872218"><ele>3.833333333333333</ele><time>2026-05-05T09:22:42.708Z</time></trkpt><trkpt lat="36.9527213" lon="10.1873114"><ele>3.6666666666666665</ele><time>2026-05-05T09:22:43.738Z</time></trkpt><trkpt lat="36.9527633" lon="10.1873998"><ele>3.5</ele><time>2026-05-05T09:22:44.725Z</time></trkpt><trkpt lat="36.952799" lon="10.1874779"><ele>3.333333333333333</ele><time>2026-05-05T09:22:45.724Z</time></trkpt><trkpt lat="36.9528304" lon="10.1875512"><ele>3.1666666666666665</ele><time>2026-05-05T09:22:46.731Z</time></trkpt><trkpt lat="36.9528956" lon="10.1876649"><ele>3.0</ele><time>2026-05-05T09:22:48.741Z</time></trkpt><trkpt lat="36.9529569" lon="10.1877809"><ele>3.0</ele><time>2026-05-05T09:22:50.713Z</time></trkpt><trkpt lat="36.9530205" lon="10.1879137"><ele>3.0</ele><time>2026-05-05T09:22:52.724Z</time></trkpt><trkpt lat="36.953088" lon="10.1880444"><ele>3.0</ele><time>2026-05-05T09:22:54.737Z</time></trkpt><trkpt lat="36.9531594" lon="10.1881672"><ele>3.0</ele><time>2026-05-05T09:22:56.73Z</time></trkpt><trkpt lat="36.9532221" lon="10.1882866"><ele>3.0</ele><time>2026-05-05T09:22:58.747Z</time></trkpt><trkpt lat="36.9532775" lon="10.1883986"><ele>3.0</ele><time>2026-05-05T09:23:00.732Z</time></trkpt><trkpt lat="36.9533332" lon="10.1885071"><ele>3.0</ele><time>2026-05-05T09:23:02.727Z</time></trkpt><trkpt lat="36.9534026" lon="10.1886423"><ele>3.0</ele><time>2026-05-05T09:23:04.706Z</time></trkpt><trkpt lat="36.9534377" lon="10.1887201"><ele>3.0</ele><time>2026-05-05T09:23:05.73Z</time></trkpt><trkpt lat="36.9534676" lon="10.1887901"><ele>3.0</ele><time>2026-05-05T09:23:06.702Z</time></trkpt><trkpt lat="36.9535012" lon="10.1888585"><ele>3.0</ele><time>2026-05-05T09:23:07.717Z</time></trkpt><trkpt lat="36.9535771" lon="10.1889899"><ele>3.0</ele><time>2026-05-05T09:23:09.715Z</time></trkpt><trkpt lat="36.9536229" lon="10.1890649"><ele>3.0</ele><time>2026-05-05T09:23:10.735Z</time></trkpt><trkpt lat="36.9536703" lon="10.1891469"><ele>3.0</ele><time>2026-05-05T09:23:11.736Z</time></trkpt><trkpt lat="36.9537218" lon="10.1892301"><ele>3.0</ele><time>2026-05-05T09:23:12.723Z</time></trkpt><trkpt lat="36.9537676" lon="10.1893199"><ele>2.8333333333333335</ele><time>2026-05-05T09:23:13.744Z</time></trkpt><trkpt lat="36.953812" lon="10.1894116"><ele>2.6666666666666665</ele><time>2026-05-05T09:23:14.742Z</time></trkpt><trkpt lat="36.9538587" lon="10.1895002"><ele>2.5</ele><time>2026-05-05T09:23:15.703Z</time></trkpt><trkpt lat="36.9539013" lon="10.1895869"><ele>2.333333333333333</ele><time>2026-05-05T09:23:16.733Z</time></trkpt><trkpt lat="36.9539411" lon="10.1896679"><ele>2.1666666666666665</ele><time>2026-05-05T09:23:17.741Z</time></trkpt><trkpt lat="36.9539796" lon="10.1897458"><ele>2.0</ele><time>2026-05-05T09:23:18.722Z</time></trkpt><trkpt lat="36.9540233" lon="10.1898376"><ele>2.0</ele><time>2026-05-05T09:23:19.729Z</time></trkpt><trkpt lat="36.9540706" lon="10.1899275"><ele>2.0</ele><time>2026-05-05T09:23:20.715Z</time></trkpt><trkpt lat="36.954121" lon="10.190023"><ele>2.0</ele><time>2026-05-05T09:23:21.738Z</time></trkpt><trkpt lat="36.9541784" lon="10.1901306"><ele>2.0</ele><time>2026-05-05T09:23:22.741Z</time></trkpt><trkpt lat="36.9542316" lon="10.1902444"><ele>2.0</ele><time>2026-05-05T09:23:23.735Z</time></trkpt><trkpt lat="36.9542861" lon="10.1903498"><ele>2.0</ele><time>2026-05-05T09:23:24.734Z</time></trkpt><trkpt lat="36.954335" lon="10.1904577"><ele>2.0</ele><time>2026-05-05T09:23:25.737Z</time></trkpt><trkpt lat="36.9543884" lon="10.1905644"><ele>2.0</ele><time>2026-05-05T09:23:26.727Z</time></trkpt><trkpt lat="36.9544426" lon="10.1906708"><ele>2.0</ele><time>2026-05-05T09:23:27.734Z</time></trkpt><trkpt lat="36.9544907" lon="10.1907745"><ele>2.0</ele><time>2026-05-05T09:23:28.729Z</time></trkpt><trkpt lat="36.9545361" lon="10.190875"><ele>2.142857142857143</ele><time>2026-05-05T09:23:29.741Z</time></trkpt><trkpt lat="36.9545803" lon="10.1909656"><ele>2.2857142857142856</ele><time>2026-05-05T09:23:30.739Z</time></trkpt><trkpt lat="36.954618" lon="10.1910499"><ele>2.4285714285714284</ele><time>2026-05-05T09:23:31.742Z</time></trkpt><trkpt lat="36.9546574" lon="10.1911278"><ele>2.571428571428571</ele><time>2026-05-05T09:23:32.741Z</time></trkpt><trkpt lat="36.9546925" lon="10.1911994"><ele>2.7142857142857144</ele><time>2026-05-05T09:23:33.716Z</time></trkpt><trkpt lat="36.9547322" lon="10.1912653"><ele>2.8571428571428568</ele><time>2026-05-05T09:23:34.716Z</time></trkpt><trkpt lat="36.9547672" lon="10.1913338"><ele>3.0</ele><time>2026-05-05T09:23:35.711Z</time></trkpt><trkpt lat="36.9547969" lon="10.1914115"><ele>3.0</ele><time>2026-05-05T09:23:36.704Z</time></trkpt><trkpt lat="36.954819" lon="10.1914998"><ele>3.0</ele><time>2026-05-05T09:23:37.734Z</time></trkpt><trkpt lat="36.9548441" lon="10.1915955"><ele>3.0</ele><time>2026-05-05T09:23:38.693Z</time></trkpt><trkpt lat="36.9548724" lon="10.1916929"><ele>3.0</ele><time>2026-05-05T09:23:39.725Z</time></trkpt><trkpt lat="36.9549001" lon="10.1917864"><ele>3.0</ele><time>2026-05-05T09:23:40.742Z</time></trkpt><trkpt lat="36.9549275" lon="10.1918835"><ele>3.0</ele><time>2026-05-05T09:23:41.714Z</time></trkpt><trkpt lat="36.9549566" lon="10.1919804"><ele>3.0</ele><time>2026-05-05T09:23:42.727Z</time></trkpt><trkpt lat="36.9549868" lon="10.1920815"><ele>3.0</ele><time>2026-05-05T09:23:43.729Z</time></trkpt><trkpt lat="36.9550107" lon="10.1921816"><ele>3.0</ele><time>2026-05-05T09:23:44.7Z</time></trkpt><trkpt lat="36.9550359" lon="10.19228"><ele>3.0</ele><time>2026-05-05T09:23:45.727Z</time></trkpt><trkpt lat="36.9550679" lon="10.1923879"><ele>3.0</ele><time>2026-05-05T09:23:46.738Z</time></trkpt><trkpt lat="36.9550959" lon="10.1925049"><ele>3.0</ele><time>2026-05-05T09:23:47.729Z</time></trkpt><trkpt lat="36.9551175" lon="10.1926228"><ele>3.0</ele><time>2026-05-05T09:23:48.73Z</time></trkpt><trkpt lat="36.9551396" lon="10.1927332"><ele>3.0</ele><time>2026-05-05T09:23:49.732Z</time></trkpt><trkpt lat="36.955158" lon="10.1928487"><ele>3.0</ele><time>2026-05-05T09:23:50.73Z</time></trkpt><trkpt lat="36.955178" lon="10.1929683"><ele>3.0</ele><time>2026-05-05T09:23:51.733Z</time></trkpt><trkpt lat="36.9551964" lon="10.193099"><ele>3.0</ele><time>2026-05-05T09:23:52.725Z</time></trkpt><trkpt lat="36.9552176" lon="10.1932258"><ele>3.2</ele><time>2026-05-05T09:23:53.728Z</time></trkpt><trkpt lat="36.9552324" lon="10.1933459"><ele>3.4</ele><time>2026-05-05T09:23:54.739Z</time></trkpt><trkpt lat="36.9552515" lon="10.1934674"><ele>3.6000000000000005</ele><time>2026-05-05T09:23:55.734Z</time></trkpt><trkpt lat="36.9552747" lon="10.1935908"><ele>3.8000000000000003</ele><time>2026-05-05T09:23:56.729Z</time></trkpt><trkpt lat="36.9552912" lon="10.193711"><ele>4.0</ele><time>2026-05-05T09:23:57.726Z</time></trkpt><trkpt lat="36.9553065" lon="10.193834"><ele>4.0</ele><time>2026-05-05T09:23:58.733Z</time></trkpt><trkpt lat="36.9553226" lon="10.1939562"><ele>4.0</ele><time>2026-05-05T09:23:59.732Z</time></trkpt><trkpt lat="36.9553406" lon="10.1940756"><ele>4.0</ele><time>2026-05-05T09:24:00.735Z</time></trkpt><trkpt lat="36.9553611" lon="10.1941989"><ele>4.0</ele><time>2026-05-05T09:24:01.734Z</time></trkpt><trkpt lat="36.9553811" lon="10.1943112"><ele>4.0</ele><time>2026-05-05T09:24:02.725Z</time></trkpt><trkpt lat="36.9554041" lon="10.1944247"><ele>4.0</ele><time>2026-05-05T09:24:03.732Z</time></trkpt><trkpt lat="36.9554243" lon="10.1945402"><ele>4.0</ele><time>2026-05-05T09:24:04.743Z</time></trkpt><trkpt lat="36.9554474" lon="10.194649"><ele>4.0</ele><time>2026-05-05T09:24:05.726Z</time></trkpt><trkpt lat="36.9554659" lon="10.1947604"><ele>4.0</ele><time>2026-05-05T09:24:06.736Z</time></trkpt><trkpt lat="36.95548" lon="10.194877"><ele>4.0</ele><time>2026-05-05T09:24:07.716Z</time></trkpt><trkpt lat="36.9554938" lon="10.1949906"><ele>3.9999999999999996</ele><time>2026-05-05T09:24:08.731Z</time></trkpt><trkpt lat="36.9555109" lon="10.195103"><ele>4.0</ele><time>2026-05-05T09:24:09.736Z</time></trkpt><trkpt lat="36.9555266" lon="10.1952101"><ele>4.0</ele><time>2026-05-05T09:24:10.7Z</time></trkpt><trkpt lat="36.9555459" lon="10.1953213"><ele>4.0</ele><time>2026-05-05T09:24:11.738Z</time></trkpt><trkpt lat="36.9555615" lon="10.1954303"><ele>3.9999999999999996</ele><time>2026-05-05T09:24:12.733Z</time></trkpt><trkpt lat="36.9555714" lon="10.1955396"><ele>4.0</ele><time>2026-05-05T09:24:13.73Z</time></trkpt><trkpt lat="36.955588" lon="10.195635"><ele>4.166666666666666</ele><time>2026-05-05T09:24:14.724Z</time></trkpt><trkpt lat="36.9556045" lon="10.1957373"><ele>4.333333333333333</ele><time>2026-05-05T09:24:15.73Z</time></trkpt><trkpt lat="36.9556202" lon="10.195837"><ele>4.5</ele><time>2026-05-05T09:24:16.704Z</time></trkpt><trkpt lat="36.9556358" lon="10.1959262"><ele>4.666666666666667</ele><time>2026-05-05T09:24:17.736Z</time></trkpt><trkpt lat="36.9556489" lon="10.1960139"><ele>4.833333333333334</ele><time>2026-05-05T09:24:18.722Z</time></trkpt><trkpt lat="36.9556692" lon="10.1961007"><ele>5.0</ele><time>2026-05-05T09:24:19.724Z</time></trkpt><trkpt lat="36.9556907" lon="10.1961866"><ele>5.0</ele><time>2026-05-05T09:24:20.701Z</time></trkpt><trkpt lat="36.9557064" lon="10.196282"><ele>5.0</ele><time>2026-05-05T09:24:21.729Z</time></trkpt><trkpt lat="36.9557253" lon="10.1963774"><ele>5.0</ele><time>2026-05-05T09:24:22.69Z</time></trkpt><trkpt lat="36.9557413" lon="10.196476"><ele>5.0</ele><time>2026-05-05T09:24:23.736Z</time></trkpt><trkpt lat="36.9557556" lon="10.1965764"><ele>5.0</ele><time>2026-05-05T09:24:24.732Z</time></trkpt><trkpt lat="36.955773" lon="10.1966864"><ele>5.0</ele><time>2026-05-05T09:24:25.702Z</time></trkpt><trkpt lat="36.9557882" lon="10.1967955"><ele>5.166666666666667</ele><time>2026-05-05T09:24:26.729Z</time></trkpt><trkpt lat="36.9558092" lon="10.1968998"><ele>5.333333333333334</ele><time>2026-05-05T09:24:27.753Z</time></trkpt><trkpt lat="36.9558259" lon="10.1970058"><ele>5.5</ele><time>2026-05-05T09:24:28.73Z</time></trkpt><trkpt lat="36.9558394" lon="10.1970997"><ele>5.666666666666667</ele><time>2026-05-05T09:24:29.719Z</time></trkpt><trkpt lat="36.9558477" lon="10.1971867"><ele>5.833333333333333</ele><time>2026-05-05T09:24:30.706Z</time></trkpt><trkpt lat="36.9558683" lon="10.1973177"><ele>6.0</ele><time>2026-05-05T09:24:32.739Z</time></trkpt><trkpt lat="36.9558902" lon="10.1974266"><ele>5.666666666666667</ele><time>2026-05-05T09:24:34.733Z</time></trkpt><trkpt lat="36.9559101" lon="10.197538"><ele>5.333333333333333</ele><time>2026-05-05T09:24:36.68Z</time></trkpt><trkpt lat="36.9559273" lon="10.1976732"><ele>5.0</ele><time>2026-05-05T09:24:38.682Z</time></trkpt><trkpt lat="36.9559417" lon="10.1977516"><ele>4.666666666666666</ele><time>2026-05-05T09:24:39.688Z</time></trkpt><trkpt lat="36.9559527" lon="10.1978344"><ele>4.333333333333333</ele><time>2026-05-05T09:24:40.692Z</time></trkpt><trkpt lat="36.9559654" lon="10.1979178"><ele>4.0</ele><time>2026-05-05T09:24:41.687Z</time></trkpt><trkpt lat="36.9559821" lon="10.1979993"><ele>3.9999999999999996</ele><time>2026-05-05T09:24:42.724Z</time></trkpt><trkpt lat="36.9559956" lon="10.1980769"><ele>4.0</ele><time>2026-05-05T09:24:43.721Z</time></trkpt><trkpt lat="36.9560111" lon="10.1981644"><ele>4.0</ele><time>2026-05-05T09:24:44.737Z</time></trkpt><trkpt lat="36.9560254" lon="10.1982663"><ele>4.0</ele><time>2026-05-05T09:24:45.733Z</time></trkpt><trkpt lat="36.9560394" lon="10.1983662"><ele>3.9999999999999996</ele><time>2026-05-05T09:24:46.685Z</time></trkpt><trkpt lat="36.9560554" lon="10.198469"><ele>4.0</ele><time>2026-05-05T09:24:47.755Z</time></trkpt><trkpt lat="36.956078" lon="10.1985772"><ele>3.8000000000000003</ele><time>2026-05-05T09:24:48.727Z</time></trkpt><trkpt lat="36.9561019" lon="10.1986897"><ele>3.6000000000000005</ele><time>2026-05-05T09:24:49.726Z</time></trkpt><trkpt lat="36.9561151" lon="10.1988086"><ele>3.4</ele><time>2026-05-05T09:24:50.719Z</time></trkpt><trkpt lat="36.9561338" lon="10.1989282"><ele>3.2</ele><time>2026-05-05T09:24:51.723Z</time></trkpt><trkpt lat="36.9561519" lon="10.1990501"><ele>3.0</ele><time>2026-05-05T09:24:52.721Z</time></trkpt><trkpt lat="36.9561736" lon="10.1991679"><ele>3.0</ele><time>2026-05-05T09:24:53.739Z</time></trkpt><trkpt lat="36.9561911" lon="10.1992925"><ele>3.0</ele><time>2026-05-05T09:24:54.733Z</time></trkpt><trkpt lat="36.9562136" lon="10.1994192"><ele>3.0</ele><time>2026-05-05T09:24:55.734Z</time></trkpt><trkpt lat="36.9562397" lon="10.1995492"><ele>3.0</ele><time>2026-05-05T09:24:56.733Z</time></trkpt><trkpt lat="36.9562587" lon="10.1996826"><ele>3.0</ele><time>2026-05-05T09:24:57.732Z</time></trkpt><trkpt lat="36.9562838" lon="10.1998134"><ele>3.0</ele><time>2026-05-05T09:24:58.729Z</time></trkpt><trkpt lat="36.9563081" lon="10.1999479"><ele>3.0</ele><time>2026-05-05T09:24:59.739Z</time></trkpt><trkpt lat="36.9563336" lon="10.2000816"><ele>3.0</ele><time>2026-05-05T09:25:00.716Z</time></trkpt><trkpt lat="36.9563592" lon="10.2002157"><ele>3.0</ele><time>2026-05-05T09:25:01.703Z</time></trkpt><trkpt lat="36.9563811" lon="10.2003565"><ele>3.0</ele><time>2026-05-05T09:25:02.712Z</time></trkpt><trkpt lat="36.9564003" lon="10.2005006"><ele>3.0</ele><time>2026-05-05T09:25:03.711Z</time></trkpt><trkpt lat="36.9564219" lon="10.2006443"><ele>3.0</ele><time>2026-05-05T09:25:04.729Z</time></trkpt><trkpt lat="36.9564439" lon="10.2007904"><ele>3.0</ele><time>2026-05-05T09:25:05.742Z</time></trkpt><trkpt lat="36.9564659" lon="10.2009442"><ele>3.0</ele><time>2026-05-05T09:25:06.686Z</time></trkpt><trkpt lat="36.9564865" lon="10.2011032"><ele>3.0</ele><time>2026-05-05T09:25:07.744Z</time></trkpt><trkpt lat="36.9565072" lon="10.2012581"><ele>3.0</ele><time>2026-05-05T09:25:08.733Z</time></trkpt><trkpt lat="36.9565332" lon="10.2014066"><ele>3.0</ele><time>2026-05-05T09:25:09.725Z</time></trkpt><trkpt lat="36.9565545" lon="10.2015531"><ele>3.0</ele><time>2026-05-05T09:25:10.729Z</time></trkpt><trkpt lat="36.9565747" lon="10.2017006"><ele>3.0</ele><time>2026-05-05T09:25:11.726Z</time></trkpt><trkpt lat="36.9565937" lon="10.2018459"><ele>3.0</ele><time>2026-05-05T09:25:12.724Z</time></trkpt><trkpt lat="36.9566168" lon="10.2019853"><ele>3.0</ele><time>2026-05-05T09:25:13.706Z</time></trkpt><trkpt lat="36.9566401" lon="10.202115"><ele>3.0</ele><time>2026-05-05T09:25:14.731Z</time></trkpt><trkpt lat="36.9566665" lon="10.2022462"><ele>3.0</ele><time>2026-05-05T09:25:15.732Z</time></trkpt><trkpt lat="36.9566923" lon="10.2023815"><ele>2.8</ele><time>2026-05-05T09:25:16.729Z</time></trkpt><trkpt lat="36.9567146" lon="10.2025141"><ele>2.5999999999999996</ele><time>2026-05-05T09:25:17.729Z</time></trkpt><trkpt lat="36.9567327" lon="10.2026463"><ele>2.4000000000000004</ele><time>2026-05-05T09:25:18.684Z</time></trkpt><trkpt lat="36.956753" lon="10.2027756"><ele>2.2</ele><time>2026-05-05T09:25:19.711Z</time></trkpt><trkpt lat="36.9567724" lon="10.202904"><ele>2.0</ele><time>2026-05-05T09:25:20.733Z</time></trkpt><trkpt lat="36.9567893" lon="10.2030288"><ele>2.0</ele><time>2026-05-05T09:25:21.741Z</time></trkpt><trkpt lat="36.9568096" lon="10.2031564"><ele>2.0</ele><time>2026-05-05T09:25:22.718Z</time></trkpt><trkpt lat="36.9568317" lon="10.203283"><ele>2.0</ele><time>2026-05-05T09:25:23.742Z</time></trkpt><trkpt lat="36.9568517" lon="10.2034128"><ele>2.0</ele><time>2026-05-05T09:25:24.726Z</time></trkpt><trkpt lat="36.956874" lon="10.2035365"><ele>2.0</ele><time>2026-05-05T09:25:25.736Z</time></trkpt><trkpt lat="36.9568934" lon="10.2036652"><ele>2.0</ele><time>2026-05-05T09:25:26.686Z</time></trkpt><trkpt lat="36.9569154" lon="10.2037944"><ele>2.0</ele><time>2026-05-05T09:25:27.717Z</time></trkpt><trkpt lat="36.9569361" lon="10.2039234"><ele>2.0</ele><time>2026-05-05T09:25:28.706Z</time></trkpt><trkpt lat="36.9569538" lon="10.2040471"><ele>2.0</ele><time>2026-05-05T09:25:29.676Z</time></trkpt><trkpt lat="36.956971" lon="10.2041726"><ele>2.0</ele><time>2026-05-05T09:25:30.691Z</time></trkpt><trkpt lat="36.9569877" lon="10.2042963"><ele>2.0</ele><time>2026-05-05T09:25:31.714Z</time></trkpt><trkpt lat="36.9570035" lon="10.2044152"><ele>2.0</ele><time>2026-05-05T09:25:32.722Z</time></trkpt><trkpt lat="36.9570205" lon="10.2045323"><ele>2.0</ele><time>2026-05-05T09:25:33.699Z</time></trkpt><trkpt lat="36.9570306" lon="10.2046529"><ele>2.0</ele><time>2026-05-05T09:25:34.703Z</time></trkpt><trkpt lat="36.9570413" lon="10.2047751"><ele>2.0</ele><time>2026-05-05T09:25:35.74Z</time></trkpt><trkpt lat="36.9570475" lon="10.2049023"><ele>1.8</ele><time>2026-05-05T09:25:36.726Z</time></trkpt><trkpt lat="36.9570524" lon="10.2050286"><ele>1.6</ele><time>2026-05-05T09:25:37.723Z</time></trkpt><trkpt lat="36.9570546" lon="10.205159"><ele>1.4000000000000001</ele><time>2026-05-05T09:25:38.716Z</time></trkpt><trkpt lat="36.9570528" lon="10.2052849"><ele>1.2000000000000002</ele><time>2026-05-05T09:25:39.717Z</time></trkpt><trkpt lat="36.9570522" lon="10.2054119"><ele>1.0</ele><time>2026-05-05T09:25:40.724Z</time></trkpt><trkpt lat="36.9570527" lon="10.2055376"><ele>0.9999999999999999</ele><time>2026-05-05T09:25:41.737Z</time></trkpt><trkpt lat="36.9570524" lon="10.2056579"><ele>1.0</ele><time>2026-05-05T09:25:42.726Z</time></trkpt><trkpt lat="36.9570465" lon="10.2057742"><ele>1.0</ele><time>2026-05-05T09:25:43.71Z</time></trkpt><trkpt lat="36.9570428" lon="10.2058805"><ele>1.0</ele><time>2026-05-05T09:25:44.699Z</time></trkpt><trkpt lat="36.9570327" lon="10.2059817"><ele>0.9999999999999999</ele><time>2026-05-05T09:25:45.718Z</time></trkpt><trkpt lat="36.9570252" lon="10.2060758"><ele>1.0</ele><time>2026-05-05T09:25:46.749Z</time></trkpt><trkpt lat="36.957015" lon="10.2061698"><ele>1.0</ele><time>2026-05-05T09:25:47.738Z</time></trkpt><trkpt lat="36.9570027" lon="10.2062546"><ele>0.9999999999999999</ele><time>2026-05-05T09:25:48.723Z</time></trkpt><trkpt lat="36.956989" lon="10.2063414"><ele>1.0</ele><time>2026-05-05T09:25:49.708Z</time></trkpt><trkpt lat="36.9569803" lon="10.2064293"><ele>1.0</ele><time>2026-05-05T09:25:50.704Z</time></trkpt><trkpt lat="36.9569734" lon="10.2065209"><ele>0.9999999999999999</ele><time>2026-05-05T09:25:51.74Z</time></trkpt><trkpt lat="36.9569631" lon="10.2066186"><ele>1.0</ele><time>2026-05-05T09:25:52.726Z</time></trkpt><trkpt lat="36.9569486" lon="10.2067207"><ele>1.0</ele><time>2026-05-05T09:25:53.735Z</time></trkpt><trkpt lat="36.9569344" lon="10.2068279"><ele>1.0</ele><time>2026-05-05T09:25:54.732Z</time></trkpt><trkpt lat="36.9569189" lon="10.2069445"><ele>1.0</ele><time>2026-05-05T09:25:55.728Z</time></trkpt><trkpt lat="36.9569061" lon="10.2070611"><ele>1.0</ele><time>2026-05-05T09:25:56.693Z</time></trkpt><trkpt lat="36.9568896" lon="10.2071854"><ele>1.0</ele><time>2026-05-05T09:25:57.734Z</time></trkpt><trkpt lat="36.9568715" lon="10.2073061"><ele>1.0</ele><time>2026-05-05T09:25:58.73Z</time></trkpt><trkpt lat="36.9568525" lon="10.2074284"><ele>1.0</ele><time>2026-05-05T09:25:59.734Z</time></trkpt><trkpt lat="36.9568266" lon="10.2075503"><ele>1.0</ele><time>2026-05-05T09:26:00.737Z</time></trkpt><trkpt lat="36.9568043" lon="10.2076692"><ele>1.0</ele><time>2026-05-05T09:26:01.736Z</time></trkpt><trkpt lat="36.9567847" lon="10.2077972"><ele>1.0</ele><time>2026-05-05T09:26:02.727Z</time></trkpt><trkpt lat="36.956768" lon="10.2079269"><ele>1.0</ele><time>2026-05-05T09:26:03.73Z</time></trkpt><trkpt lat="36.956754" lon="10.2080449"><ele>0.9999999999999999</ele><time>2026-05-05T09:26:04.744Z</time></trkpt><trkpt lat="36.9567397" lon="10.2081562"><ele>1.0</ele><time>2026-05-05T09:26:05.727Z</time></trkpt><trkpt lat="36.9567253" lon="10.2082487"><ele>1.0</ele><time>2026-05-05T09:26:06.753Z</time></trkpt><trkpt lat="36.9567082" lon="10.2083367"><ele>1.0</ele><time>2026-05-05T09:26:07.733Z</time></trkpt><trkpt lat="36.9566911" lon="10.208417"><ele>0.9999999999999999</ele><time>2026-05-05T09:26:08.72Z</time></trkpt><trkpt lat="36.9566782" lon="10.2085511"><ele>1.0</ele><time>2026-05-05T09:26:10.724Z</time></trkpt><trkpt lat="36.9566599" lon="10.2086776"><ele>1.1666666666666665</ele><time>2026-05-05T09:26:12.746Z</time></trkpt><trkpt lat="36.9566408" lon="10.2088095"><ele>1.3333333333333333</ele><time>2026-05-05T09:26:14.743Z</time></trkpt><trkpt lat="36.9566313" lon="10.2088888"><ele>1.5</ele><time>2026-05-05T09:26:15.733Z</time></trkpt><trkpt lat="36.9566241" lon="10.2089707"><ele>1.6666666666666665</ele><time>2026-05-05T09:26:16.734Z</time></trkpt><trkpt lat="36.956617" lon="10.2090592"><ele>1.8333333333333333</ele><time>2026-05-05T09:26:17.73Z</time></trkpt><trkpt lat="36.9566072" lon="10.2091551"><ele>2.0</ele><time>2026-05-05T09:26:18.69Z</time></trkpt><trkpt lat="36.9565976" lon="10.2092423"><ele>2.1666666666666665</ele><time>2026-05-05T09:26:19.729Z</time></trkpt><trkpt lat="36.9565853" lon="10.2093291"><ele>2.333333333333333</ele><time>2026-05-05T09:26:20.709Z</time></trkpt><trkpt lat="36.9565727" lon="10.2094179"><ele>2.5</ele><time>2026-05-05T09:26:21.731Z</time></trkpt><trkpt lat="36.9565579" lon="10.2095149"><ele>2.6666666666666665</ele><time>2026-05-05T09:26:22.731Z</time></trkpt><trkpt lat="36.9565465" lon="10.2096088"><ele>2.8333333333333335</ele><time>2026-05-05T09:26:23.737Z</time></trkpt><trkpt lat="36.9565382" lon="10.2097116"><ele>3.0</ele><time>2026-05-05T09:26:24.719Z</time></trkpt><trkpt lat="36.9565255" lon="10.2098175"><ele>3.0</ele><time>2026-05-05T09:26:25.723Z</time></trkpt><trkpt lat="36.9565059" lon="10.2099326"><ele>3.0</ele><time>2026-05-05T09:26:26.741Z</time></trkpt><trkpt lat="36.9564804" lon="10.2100417"><ele>3.0</ele><time>2026-05-05T09:26:27.695Z</time></trkpt><trkpt lat="36.9564536" lon="10.2101604"><ele>3.0</ele><time>2026-05-05T09:26:28.729Z</time></trkpt><trkpt lat="36.9564385" lon="10.210288"><ele>3.0</ele><time>2026-05-05T09:26:29.717Z</time></trkpt><trkpt lat="36.956422" lon="10.210423"><ele>3.0</ele><time>2026-05-05T09:26:30.715Z</time></trkpt><trkpt lat="36.9564018" lon="10.2105674"><ele>3.0</ele><time>2026-05-05T09:26:31.732Z</time></trkpt><trkpt lat="36.9563826" lon="10.2107168"><ele>3.0</ele><time>2026-05-05T09:26:32.742Z</time></trkpt><trkpt lat="36.9563598" lon="10.210869"><ele>3.0</ele><time>2026-05-05T09:26:33.745Z</time></trkpt><trkpt lat="36.9563376" lon="10.2110252"><ele>3.0</ele><time>2026-05-05T09:26:34.715Z</time></trkpt><trkpt lat="36.9563175" lon="10.2111732"><ele>3.0</ele><time>2026-05-05T09:26:35.728Z</time></trkpt><trkpt lat="36.9562954" lon="10.211316"><ele>3.0</ele><time>2026-05-05T09:26:36.739Z</time></trkpt><trkpt lat="36.9562757" lon="10.2114534"><ele>3.0</ele><time>2026-05-05T09:26:37.763Z</time></trkpt><trkpt lat="36.9562584" lon="10.2115878"><ele>2.6</ele><time>2026-05-05T09:26:38.729Z</time></trkpt><trkpt lat="36.9562417" lon="10.211716"><ele>2.1999999999999997</ele><time>2026-05-05T09:26:39.741Z</time></trkpt><trkpt lat="36.9562234" lon="10.211835"><ele>1.8</ele><time>2026-05-05T09:26:40.689Z</time></trkpt><trkpt lat="36.9562096" lon="10.2119589"><ele>1.4</ele><time>2026-05-05T09:26:41.732Z</time></trkpt><trkpt lat="36.9561977" lon="10.2120794"><ele>1.0</ele><time>2026-05-05T09:26:42.717Z</time></trkpt><trkpt lat="36.9561891" lon="10.2121994"><ele>1.0</ele><time>2026-05-05T09:26:43.731Z</time></trkpt><trkpt lat="36.9561793" lon="10.2123183"><ele>1.0</ele><time>2026-05-05T09:26:44.732Z</time></trkpt><trkpt lat="36.9561716" lon="10.2124424"><ele>1.0</ele><time>2026-05-05T09:26:45.73Z</time></trkpt><trkpt lat="36.95617" lon="10.2125703"><ele>1.0</ele><time>2026-05-05T09:26:46.724Z</time></trkpt><trkpt lat="36.9561654" lon="10.2126921"><ele>1.0</ele><time>2026-05-05T09:26:47.731Z</time></trkpt><trkpt lat="36.9561628" lon="10.2128148"><ele>1.1666666666666665</ele><time>2026-05-05T09:26:48.738Z</time></trkpt><trkpt lat="36.956157" lon="10.2129416"><ele>1.3333333333333333</ele><time>2026-05-05T09:26:49.726Z</time></trkpt><trkpt lat="36.9561503" lon="10.2130587"><ele>1.5</ele><time>2026-05-05T09:26:50.727Z</time></trkpt><trkpt lat="36.9561517" lon="10.2131605"><ele>1.6666666666666665</ele><time>2026-05-05T09:26:51.737Z</time></trkpt><trkpt lat="36.9561499" lon="10.2132745"><ele>1.8333333333333333</ele><time>2026-05-05T09:26:52.737Z</time></trkpt><trkpt lat="36.9561502" lon="10.2133739"><ele>2.0</ele><time>2026-05-05T09:26:53.734Z</time></trkpt><trkpt lat="36.9561501" lon="10.2134801"><ele>2.0</ele><time>2026-05-05T09:26:54.72Z</time></trkpt><trkpt lat="36.9561498" lon="10.2135871"><ele>2.0</ele><time>2026-05-05T09:26:55.72Z</time></trkpt><trkpt lat="36.9561521" lon="10.2137027"><ele>2.0</ele><time>2026-05-05T09:26:56.736Z</time></trkpt><trkpt lat="36.9561511" lon="10.213833"><ele>2.0</ele><time>2026-05-05T09:26:57.731Z</time></trkpt><trkpt lat="36.9561546" lon="10.2139864"><ele>2.0</ele><time>2026-05-05T09:26:58.731Z</time></trkpt><trkpt lat="36.9561587" lon="10.2141422"><ele>2.2</ele><time>2026-05-05T09:26:59.733Z</time></trkpt><trkpt lat="36.9561599" lon="10.2142896"><ele>2.4000000000000004</ele><time>2026-05-05T09:27:00.735Z</time></trkpt><trkpt lat="36.9561551" lon="10.2144167"><ele>2.5999999999999996</ele><time>2026-05-05T09:27:01.733Z</time></trkpt><trkpt lat="36.9561591" lon="10.2145352"><ele>2.8</ele><time>2026-05-05T09:27:02.732Z</time></trkpt><trkpt lat="36.9561628" lon="10.2146488"><ele>3.0</ele><time>2026-05-05T09:27:03.73Z</time></trkpt><trkpt lat="36.9561593" lon="10.2147553"><ele>2.6</ele><time>2026-05-05T09:27:04.737Z</time></trkpt><trkpt lat="36.9561614" lon="10.2148538"><ele>2.1999999999999997</ele><time>2026-05-05T09:27:05.743Z</time></trkpt><trkpt lat="36.956163" lon="10.2149621"><ele>1.8</ele><time>2026-05-05T09:27:06.75Z</time></trkpt><trkpt lat="36.9561666" lon="10.2150779"><ele>1.4</ele><time>2026-05-05T09:27:07.742Z</time></trkpt><trkpt lat="36.9561662" lon="10.215198"><ele>1.0</ele><time>2026-05-05T09:27:08.744Z</time></trkpt><trkpt lat="36.9561708" lon="10.2153223"><ele>1.0</ele><time>2026-05-05T09:27:09.733Z</time></trkpt><trkpt lat="36.9561715" lon="10.2154609"><ele>1.0</ele><time>2026-05-05T09:27:10.731Z</time></trkpt><trkpt lat="36.9561733" lon="10.2156111"><ele>1.0</ele><time>2026-05-05T09:27:11.713Z</time></trkpt><trkpt lat="36.9561744" lon="10.2157657"><ele>1.0</ele><time>2026-05-05T09:27:12.728Z</time></trkpt><trkpt lat="36.9561742" lon="10.2159261"><ele>1.0</ele><time>2026-05-05T09:27:13.727Z</time></trkpt><trkpt lat="36.9561693" lon="10.2160883"><ele>1.0</ele><time>2026-05-05T09:27:14.687Z</time></trkpt><trkpt lat="36.9561682" lon="10.2162527"><ele>1.0</ele><time>2026-05-05T09:27:15.721Z</time></trkpt><trkpt lat="36.956164" lon="10.2164157"><ele>1.0</ele><time>2026-05-05T09:27:16.727Z</time></trkpt><trkpt lat="36.9561614" lon="10.2165719"><ele>1.0</ele><time>2026-05-05T09:27:17.733Z</time></trkpt><trkpt lat="36.9561608" lon="10.21673"><ele>1.0</ele><time>2026-05-05T09:27:18.734Z</time></trkpt><trkpt lat="36.9561622" lon="10.2168804"><ele>1.0</ele><time>2026-05-05T09:27:19.707Z</time></trkpt><trkpt lat="36.9561618" lon="10.2170337"><ele>1.0</ele><time>2026-05-05T09:27:20.737Z</time></trkpt><trkpt lat="36.9561594" lon="10.2171923"><ele>1.25</ele><time>2026-05-05T09:27:21.726Z</time></trkpt><trkpt lat="36.9561547" lon="10.2173505"><ele>1.5</ele><time>2026-05-05T09:27:22.722Z</time></trkpt><trkpt lat="36.956154" lon="10.2175062"><ele>1.75</ele><time>2026-05-05T09:27:23.727Z</time></trkpt><trkpt lat="36.9561566" lon="10.2176556"><ele>2.0</ele><time>2026-05-05T09:27:24.731Z</time></trkpt><trkpt lat="36.9561584" lon="10.2178127"><ele>2.0</ele><time>2026-05-05T09:27:25.736Z</time></trkpt><trkpt lat="36.9561578" lon="10.2179653"><ele>2.0</ele><time>2026-05-05T09:27:26.707Z</time></trkpt><trkpt lat="36.9561579" lon="10.2181144"><ele>2.0</ele><time>2026-05-05T09:27:27.728Z</time></trkpt><trkpt lat="36.9561596" lon="10.218263"><ele>2.0</ele><time>2026-05-05T09:27:28.748Z</time></trkpt><trkpt lat="36.9561597" lon="10.2184079"><ele>1.8</ele><time>2026-05-05T09:27:29.729Z</time></trkpt><trkpt lat="36.9561622" lon="10.2185401"><ele>1.6</ele><time>2026-05-05T09:27:30.733Z</time></trkpt><trkpt lat="36.9561611" lon="10.2186728"><ele>1.4000000000000001</ele><time>2026-05-05T09:27:31.736Z</time></trkpt><trkpt lat="36.9561633" lon="10.2188103"><ele>1.2000000000000002</ele><time>2026-05-05T09:27:32.733Z</time></trkpt><trkpt lat="36.9561628" lon="10.2189401"><ele>1.0</ele><time>2026-05-05T09:27:33.729Z</time></trkpt><trkpt lat="36.9561634" lon="10.2190727"><ele>1.0</ele><time>2026-05-05T09:27:34.717Z</time></trkpt><trkpt lat="36.9561601" lon="10.2192067"><ele>1.0</ele><time>2026-05-05T09:27:35.715Z</time></trkpt><trkpt lat="36.9561596" lon="10.219344"><ele>1.0</ele><time>2026-05-05T09:27:36.718Z</time></trkpt><trkpt lat="36.9561591" lon="10.2194779"><ele>1.0</ele><time>2026-05-05T09:27:37.723Z</time></trkpt><trkpt lat="36.9561611" lon="10.2196116"><ele>1.0</ele><time>2026-05-05T09:27:38.716Z</time></trkpt><trkpt lat="36.9561641" lon="10.2197475"><ele>1.0</ele><time>2026-05-05T09:27:39.732Z</time></trkpt><trkpt lat="36.9561634" lon="10.2198919"><ele>1.0</ele><time>2026-05-05T09:27:40.734Z</time></trkpt><trkpt lat="36.9561619" lon="10.2200337"><ele>1.0</ele><time>2026-05-05T09:27:41.713Z</time></trkpt><trkpt lat="36.9561628" lon="10.2201747"><ele>1.0</ele><time>2026-05-05T09:27:42.706Z</time></trkpt><trkpt lat="36.9561682" lon="10.2203093"><ele>1.0</ele><time>2026-05-05T09:27:43.723Z</time></trkpt><trkpt lat="36.9561697" lon="10.220442"><ele>1.0</ele><time>2026-05-05T09:27:44.729Z</time></trkpt><trkpt lat="36.9561706" lon="10.2205692"><ele>1.0</ele><time>2026-05-05T09:27:45.725Z</time></trkpt><trkpt lat="36.9561723" lon="10.2206982"><ele>1.0</ele><time>2026-05-05T09:27:46.728Z</time></trkpt><trkpt lat="36.956171" lon="10.2208195"><ele>1.0</ele><time>2026-05-05T09:27:47.714Z</time></trkpt><trkpt lat="36.9561693" lon="10.2209405"><ele>1.0</ele><time>2026-05-05T09:27:48.734Z</time></trkpt><trkpt lat="36.9561673" lon="10.2210684"><ele>1.2000000000000002</ele><time>2026-05-05T09:27:49.706Z</time></trkpt><trkpt lat="36.9561705" lon="10.2211964"><ele>1.4000000000000001</ele><time>2026-05-05T09:27:50.729Z</time></trkpt><trkpt lat="36.9561734" lon="10.2213248"><ele>1.6</ele><time>2026-05-05T09:27:51.726Z</time></trkpt><trkpt lat="36.9561759" lon="10.2214568"><ele>1.8</ele><time>2026-05-05T09:27:52.705Z</time></trkpt><trkpt lat="36.9561741" lon="10.2215904"><ele>2.0</ele><time>2026-05-05T09:27:53.734Z</time></trkpt><trkpt lat="36.9561703" lon="10.2217205"><ele>2.0</ele><time>2026-05-05T09:27:54.722Z</time></trkpt><trkpt lat="36.9561687" lon="10.2218514"><ele>2.0</ele><time>2026-05-05T09:27:55.73Z</time></trkpt><trkpt lat="36.9561684" lon="10.2219841"><ele>2.0</ele><time>2026-05-05T09:27:56.723Z</time></trkpt><trkpt lat="36.9561707" lon="10.2221161"><ele>2.0</ele><time>2026-05-05T09:27:57.718Z</time></trkpt><trkpt lat="36.9561647" lon="10.2222547"><ele>2.0</ele><time>2026-05-05T09:27:58.727Z</time></trkpt><trkpt lat="36.9561566" lon="10.2223948"><ele>1.6</ele><time>2026-05-05T09:27:59.739Z</time></trkpt><trkpt lat="36.956145" lon="10.2225285"><ele>1.2000000000000002</ele><time>2026-05-05T09:28:00.733Z</time></trkpt><trkpt lat="36.9561313" lon="10.2226686"><ele>0.8</ele><time>2026-05-05T09:28:01.731Z</time></trkpt><trkpt lat="36.9561142" lon="10.2228122"><ele>0.4</ele><time>2026-05-05T09:28:02.716Z</time></trkpt><trkpt lat="36.9560974" lon="10.2229473"><ele>0.0</ele><time>2026-05-05T09:28:03.726Z</time></trkpt><trkpt lat="36.9560762" lon="10.2230868"><ele>0.25</ele><time>2026-05-05T09:28:04.727Z</time></trkpt><trkpt lat="36.9560565" lon="10.223228"><ele>0.5</ele><time>2026-05-05T09:28:05.723Z</time></trkpt><trkpt lat="36.9560363" lon="10.2233734"><ele>0.75</ele><time>2026-05-05T09:28:06.73Z</time></trkpt><trkpt lat="36.9560042" lon="10.2235339"><ele>1.0</ele><time>2026-05-05T09:28:07.738Z</time></trkpt><trkpt lat="36.9559616" lon="10.2237042"><ele>1.0</ele><time>2026-05-05T09:28:08.722Z</time></trkpt><trkpt lat="36.9559159" lon="10.223885"><ele>1.0</ele><time>2026-05-05T09:28:09.718Z</time></trkpt><trkpt lat="36.9558755" lon="10.2240643"><ele>1.0</ele><time>2026-05-05T09:28:10.695Z</time></trkpt><trkpt lat="36.9558315" lon="10.2242414"><ele>1.0</ele><time>2026-05-05T09:28:11.732Z</time></trkpt><trkpt lat="36.9557906" lon="10.2244222"><ele>1.0</ele><time>2026-05-05T09:28:12.733Z</time></trkpt><trkpt lat="36.9557447" lon="10.2246082"><ele>1.0</ele><time>2026-05-05T09:28:13.726Z</time></trkpt><trkpt lat="36.9556954" lon="10.2248034"><ele>1.0</ele><time>2026-05-05T09:28:14.728Z</time></trkpt><trkpt lat="36.9556496" lon="10.2250022"><ele>1.0</ele><time>2026-05-05T09:28:15.748Z</time></trkpt><trkpt lat="36.9556031" lon="10.2252043"><ele>1.0</ele><time>2026-05-05T09:28:16.721Z</time></trkpt><trkpt lat="36.9555564" lon="10.225405"><ele>1.0</ele><time>2026-05-05T09:28:17.737Z</time></trkpt><trkpt lat="36.9555071" lon="10.2256055"><ele>1.3333333333333333</ele><time>2026-05-05T09:28:18.733Z</time></trkpt><trkpt lat="36.9554618" lon="10.225805"><ele>1.6666666666666665</ele><time>2026-05-05T09:28:19.718Z</time></trkpt><trkpt lat="36.9554179" lon="10.225996"><ele>2.0</ele><time>2026-05-05T09:28:20.735Z</time></trkpt><trkpt lat="36.9553759" lon="10.2261908"><ele>2.0</ele><time>2026-05-05T09:28:21.729Z</time></trkpt><trkpt lat="36.9553355" lon="10.2263843"><ele>2.0</ele><time>2026-05-05T09:28:22.737Z</time></trkpt><trkpt lat="36.9552917" lon="10.2265716"><ele>2.0</ele><time>2026-05-05T09:28:23.728Z</time></trkpt><trkpt lat="36.9552491" lon="10.2267579"><ele>2.333333333333333</ele><time>2026-05-05T09:28:24.731Z</time></trkpt><trkpt lat="36.9552035" lon="10.2269416"><ele>2.6666666666666665</ele><time>2026-05-05T09:28:25.736Z</time></trkpt><trkpt lat="36.9551571" lon="10.2271275"><ele>3.0</ele><time>2026-05-05T09:28:26.732Z</time></trkpt><trkpt lat="36.9551138" lon="10.2273149"><ele>2.3333333333333335</ele><time>2026-05-05T09:28:27.726Z</time></trkpt><trkpt lat="36.9550733" lon="10.2275008"><ele>1.6666666666666665</ele><time>2026-05-05T09:28:28.731Z</time></trkpt><trkpt lat="36.9550297" lon="10.2276879"><ele>1.0</ele><time>2026-05-05T09:28:29.738Z</time></trkpt><trkpt lat="36.9549837" lon="10.2278777"><ele>0.6666666666666666</ele><time>2026-05-05T09:28:30.723Z</time></trkpt><trkpt lat="36.9549415" lon="10.2280659"><ele>0.3333333333333333</ele><time>2026-05-05T09:28:31.73Z</time></trkpt><trkpt lat="36.9548991" lon="10.2282524"><ele>0.0</ele><time>2026-05-05T09:28:32.739Z</time></trkpt><trkpt lat="36.954858" lon="10.228437"><ele>0.0</ele><time>2026-05-05T09:28:33.713Z</time></trkpt><trkpt lat="36.9548168" lon="10.2286241"><ele>0.0</ele><time>2026-05-05T09:28:34.712Z</time></trkpt><trkpt lat="36.9547764" lon="10.2288161"><ele>0.0</ele><time>2026-05-05T09:28:35.712Z</time></trkpt><trkpt lat="36.954735" lon="10.229013"><ele>-0.3333333333333333</ele><time>2026-05-05T09:28:36.723Z</time></trkpt><trkpt lat="36.954695" lon="10.2292113"><ele>-0.6666666666666666</ele><time>2026-05-05T09:28:37.72Z</time></trkpt><trkpt lat="36.9546525" lon="10.2294084"><ele>-1.0</ele><time>2026-05-05T09:28:38.728Z</time></trkpt><trkpt lat="36.9546051" lon="10.2296129"><ele>-1.0</ele><time>2026-05-05T09:28:39.73Z</time></trkpt><trkpt lat="36.9545547" lon="10.2298106"><ele>-1.0</ele><time>2026-05-05T09:28:40.734Z</time></trkpt><trkpt lat="36.9545067" lon="10.2300103"><ele>-1.0</ele><time>2026-05-05T09:28:41.734Z</time></trkpt><trkpt lat="36.9544572" lon="10.230213"><ele>-1.0</ele><time>2026-05-05T09:28:42.728Z</time></trkpt><trkpt lat="36.9544031" lon="10.2304045"><ele>-1.0</ele><time>2026-05-05T09:28:43.716Z</time></trkpt><trkpt lat="36.9543476" lon="10.2305945"><ele>-1.0</ele><time>2026-05-05T09:28:44.724Z</time></trkpt><trkpt lat="36.9542881" lon="10.2307815"><ele>-0.6666666666666666</ele><time>2026-05-05T09:28:45.728Z</time></trkpt><trkpt lat="36.9542303" lon="10.2309727"><ele>-0.3333333333333333</ele><time>2026-05-05T09:28:46.708Z</time></trkpt><trkpt lat="36.9541692" lon="10.2311693"><ele>0.0</ele><time>2026-05-05T09:28:47.705Z</time></trkpt><trkpt lat="36.9541031" lon="10.2313691"><ele>0.3333333333333333</ele><time>2026-05-05T09:28:48.736Z</time></trkpt><trkpt lat="36.9540249" lon="10.2315667"><ele>0.6666666666666666</ele><time>2026-05-05T09:28:49.736Z</time></trkpt><trkpt lat="36.9539458" lon="10.2317636"><ele>1.0</ele><time>2026-05-05T09:28:50.716Z</time></trkpt><trkpt lat="36.9538572" lon="10.2319526"><ele>1.0</ele><time>2026-05-05T09:28:51.734Z</time></trkpt><trkpt lat="36.9537601" lon="10.2321313"><ele>1.0</ele><time>2026-05-05T09:28:52.73Z</time></trkpt><trkpt lat="36.953664" lon="10.2323121"><ele>1.0</ele><time>2026-05-05T09:28:53.722Z</time></trkpt><trkpt lat="36.9535676" lon="10.232483"><ele>1.0</ele><time>2026-05-05T09:28:54.726Z</time></trkpt><trkpt lat="36.9534655" lon="10.2326529"><ele>1.0</ele><time>2026-05-05T09:28:55.743Z</time></trkpt><trkpt lat="36.9533556" lon="10.2328265"><ele>1.0</ele><time>2026-05-05T09:28:56.713Z</time></trkpt><trkpt lat="36.95325" lon="10.2329946"><ele>1.3333333333333333</ele><time>2026-05-05T09:28:57.729Z</time></trkpt><trkpt lat="36.9531412" lon="10.2331644"><ele>1.6666666666666665</ele><time>2026-05-05T09:28:58.739Z</time></trkpt><trkpt lat="36.9530318" lon="10.233331"><ele>2.0</ele><time>2026-05-05T09:28:59.723Z</time></trkpt><trkpt lat="36.9529216" lon="10.2334983"><ele>2.0</ele><time>2026-05-05T09:29:00.733Z</time></trkpt><trkpt lat="36.9528123" lon="10.233658"><ele>2.0</ele><time>2026-05-05T09:29:01.73Z</time></trkpt><trkpt lat="36.9527048" lon="10.2338175"><ele>2.0</ele><time>2026-05-05T09:29:02.722Z</time></trkpt><trkpt lat="36.952592" lon="10.2339773"><ele>2.0</ele><time>2026-05-05T09:29:03.737Z</time></trkpt><trkpt lat="36.9524805" lon="10.2341345"><ele>2.0</ele><time>2026-05-05T09:29:04.722Z</time></trkpt><trkpt lat="36.9523701" lon="10.2343007"><ele>2.0</ele><time>2026-05-05T09:29:05.739Z</time></trkpt><trkpt lat="36.952259" lon="10.2344662"><ele>2.0</ele><time>2026-05-05T09:29:06.731Z</time></trkpt><trkpt lat="36.9521417" lon="10.2346354"><ele>2.0</ele><time>2026-05-05T09:29:07.722Z</time></trkpt><trkpt lat="36.9520265" lon="10.2348032"><ele>2.0</ele><time>2026-05-05T09:29:08.738Z</time></trkpt><trkpt lat="36.9519114" lon="10.2349675"><ele>2.0</ele><time>2026-05-05T09:29:09.727Z</time></trkpt><trkpt lat="36.9517941" lon="10.2351311"><ele>2.0</ele><time>2026-05-05T09:29:10.724Z</time></trkpt><trkpt lat="36.9516809" lon="10.2352943"><ele>2.0</ele><time>2026-05-05T09:29:11.735Z</time></trkpt><trkpt lat="36.9515673" lon="10.2354534"><ele>1.6666666666666665</ele><time>2026-05-05T09:29:12.687Z</time></trkpt><trkpt lat="36.9514556" lon="10.2356134"><ele>1.3333333333333333</ele><time>2026-05-05T09:29:13.676Z</time></trkpt><trkpt lat="36.9513439" lon="10.2357703"><ele>1.0</ele><time>2026-05-05T09:29:14.683Z</time></trkpt><trkpt lat="36.9512304" lon="10.2359345"><ele>1.6666666666666665</ele><time>2026-05-05T09:29:15.732Z</time></trkpt><trkpt lat="36.9511152" lon="10.2361019"><ele>2.3333333333333335</ele><time>2026-05-05T09:29:16.718Z</time></trkpt><trkpt lat="36.9509996" lon="10.23627"><ele>3.0</ele><time>2026-05-05T09:29:17.735Z</time></trkpt><trkpt lat="36.9508906" lon="10.2364332"><ele>2.3333333333333335</ele><time>2026-05-05T09:29:18.725Z</time></trkpt><trkpt lat="36.950775" lon="10.236596"><ele>1.6666666666666665</ele><time>2026-05-05T09:29:19.714Z</time></trkpt><trkpt lat="36.9506594" lon="10.2367541"><ele>1.0</ele><time>2026-05-05T09:29:20.734Z</time></trkpt><trkpt lat="36.950541" lon="10.2369163"><ele>1.0</ele><time>2026-05-05T09:29:21.727Z</time></trkpt><trkpt lat="36.9504287" lon="10.2370815"><ele>1.0</ele><time>2026-05-05T09:29:22.715Z</time></trkpt><trkpt lat="36.950317" lon="10.2372457"><ele>1.0</ele><time>2026-05-05T09:29:23.732Z</time></trkpt><trkpt lat="36.9502077" lon="10.2374097"><ele>1.3333333333333333</ele><time>2026-05-05T09:29:24.683Z</time></trkpt><trkpt lat="36.9500937" lon="10.2375748"><ele>1.6666666666666665</ele><time>2026-05-05T09:29:25.744Z</time></trkpt><trkpt lat="36.9499805" lon="10.2377403"><ele>2.0</ele><time>2026-05-05T09:29:26.74Z</time></trkpt><trkpt lat="36.9498669" lon="10.2379046"><ele>1.3333333333333333</ele><time>2026-05-05T09:29:27.723Z</time></trkpt><trkpt lat="36.9497542" lon="10.2380672"><ele>0.6666666666666666</ele><time>2026-05-05T09:29:28.715Z</time></trkpt><trkpt lat="36.9496393" lon="10.2382297"><ele>0.0</ele><time>2026-05-05T09:29:29.721Z</time></trkpt><trkpt lat="36.9495275" lon="10.2383955"><ele>0.0</ele><time>2026-05-05T09:29:30.733Z</time></trkpt><trkpt lat="36.9494115" lon="10.238554"><ele>0.0</ele><time>2026-05-05T09:29:31.738Z</time></trkpt><trkpt lat="36.9492918" lon="10.2387134"><ele>0.0</ele><time>2026-05-05T09:29:32.702Z</time></trkpt><trkpt lat="36.949173" lon="10.2388739"><ele>0.3333333333333333</ele><time>2026-05-05T09:29:33.73Z</time></trkpt><trkpt lat="36.9490535" lon="10.2390354"><ele>0.6666666666666666</ele><time>2026-05-05T09:29:34.713Z</time></trkpt><trkpt lat="36.9489293" lon="10.2391913"><ele>1.0</ele><time>2026-05-05T09:29:35.723Z</time></trkpt><trkpt lat="36.9488082" lon="10.2393439"><ele>1.0</ele><time>2026-05-05T09:29:36.724Z</time></trkpt><trkpt lat="36.9486857" lon="10.239497"><ele>1.0</ele><time>2026-05-05T09:29:37.737Z</time></trkpt><trkpt lat="36.9485607" lon="10.2396461"><ele>1.0</ele><time>2026-05-05T09:29:38.72Z</time></trkpt><trkpt lat="36.9484325" lon="10.2397923"><ele>0.6666666666666666</ele><time>2026-05-05T09:29:39.727Z</time></trkpt><trkpt lat="36.948307" lon="10.2399445"><ele>0.3333333333333333</ele><time>2026-05-05T09:29:40.735Z</time></trkpt><trkpt lat="36.9481789" lon="10.2400955"><ele>0.0</ele><time>2026-05-05T09:29:41.707Z</time></trkpt><trkpt lat="36.9480532" lon="10.2402564"><ele>0.0</ele><time>2026-05-05T09:29:42.731Z</time></trkpt><trkpt lat="36.9479186" lon="10.240421"><ele>0.0</ele><time>2026-05-05T09:29:43.736Z</time></trkpt><trkpt lat="36.9477828" lon="10.2405859"><ele>0.0</ele><time>2026-05-05T09:29:44.74Z</time></trkpt><trkpt lat="36.9476488" lon="10.24075"><ele>0.3333333333333333</ele><time>2026-05-05T09:29:45.721Z</time></trkpt><trkpt lat="36.9475087" lon="10.2409099"><ele>0.6666666666666666</ele><time>2026-05-05T09:29:46.731Z</time></trkpt><trkpt lat="36.9473709" lon="10.2410744"><ele>1.0</ele><time>2026-05-05T09:29:47.74Z</time></trkpt><trkpt lat="36.9472354" lon="10.2412357"><ele>1.0</ele><time>2026-05-05T09:29:48.722Z</time></trkpt><trkpt lat="36.9470968" lon="10.2413981"><ele>1.0</ele><time>2026-05-05T09:29:49.713Z</time></trkpt><trkpt lat="36.9469611" lon="10.2415569"><ele>1.0</ele><time>2026-05-05T09:29:50.732Z</time></trkpt><trkpt lat="36.9468279" lon="10.241718"><ele>0.0</ele><time>2026-05-05T09:29:51.737Z</time></trkpt><trkpt lat="36.9466933" lon="10.2418788"><ele>-1.0</ele><time>2026-05-05T09:29:52.713Z</time></trkpt><trkpt lat="36.9465616" lon="10.2420457"><ele>-2.0</ele><time>2026-05-05T09:29:53.731Z</time></trkpt><trkpt lat="36.9464284" lon="10.2422128"><ele>-1.0</ele><time>2026-05-05T09:29:54.726Z</time></trkpt><trkpt lat="36.9462955" lon="10.2423792"><ele>0.0</ele><time>2026-05-05T09:29:55.723Z</time></trkpt><trkpt lat="36.946158" lon="10.2425397"><ele>1.0</ele><time>2026-05-05T09:29:56.743Z</time></trkpt><trkpt lat="36.9460211" lon="10.2427068"><ele>1.0</ele><time>2026-05-05T09:29:57.731Z</time></trkpt><trkpt lat="36.9458878" lon="10.2428675"><ele>1.0</ele><time>2026-05-05T09:29:58.725Z</time></trkpt><trkpt lat="36.9457514" lon="10.2430323"><ele>1.0</ele><time>2026-05-05T09:29:59.738Z</time></trkpt><trkpt lat="36.9456181" lon="10.2431928"><ele>0.6666666666666666</ele><time>2026-05-05T09:30:00.72Z</time></trkpt><trkpt lat="36.9454854" lon="10.2433551"><ele>0.3333333333333333</ele><time>2026-05-05T09:30:01.726Z</time></trkpt><trkpt lat="36.9453517" lon="10.2435175"><ele>0.0</ele><time>2026-05-05T09:30:02.699Z</time></trkpt><trkpt lat="36.9452151" lon="10.2436796"><ele>0.0</ele><time>2026-05-05T09:30:03.749Z</time></trkpt><trkpt lat="36.9450772" lon="10.2438465"><ele>0.0</ele><time>2026-05-05T09:30:04.726Z</time></trkpt><trkpt lat="36.9449436" lon="10.244008"><ele>0.0</ele><time>2026-05-05T09:30:05.718Z</time></trkpt><trkpt lat="36.9448079" lon="10.244172"><ele>0.3333333333333333</ele><time>2026-05-05T09:30:06.726Z</time></trkpt><trkpt lat="36.9446735" lon="10.2443323"><ele>0.6666666666666666</ele><time>2026-05-05T09:30:07.709Z</time></trkpt><trkpt lat="36.9445372" lon="10.2445004"><ele>1.0</ele><time>2026-05-05T09:30:08.732Z</time></trkpt><trkpt lat="36.944405" lon="10.2446659"><ele>1.0</ele><time>2026-05-05T09:30:09.736Z</time></trkpt><trkpt lat="36.9442699" lon="10.2448309"><ele>1.0</ele><time>2026-05-05T09:30:10.694Z</time></trkpt><trkpt lat="36.9441337" lon="10.2449915"><ele>1.0</ele><time>2026-05-05T09:30:11.71Z</time></trkpt><trkpt lat="36.9439951" lon="10.2451525"><ele>0.3333333333333333</ele><time>2026-05-05T09:30:12.721Z</time></trkpt><trkpt lat="36.9438576" lon="10.2453137"><ele>-0.3333333333333333</ele><time>2026-05-05T09:30:13.7Z</time></trkpt><trkpt lat="36.9437227" lon="10.2454727"><ele>-1.0</ele><time>2026-05-05T09:30:14.708Z</time></trkpt><trkpt lat="36.9435872" lon="10.2456342"><ele>-1.0</ele><time>2026-05-05T09:30:15.688Z</time></trkpt><trkpt lat="36.943453" lon="10.2457974"><ele>-1.0</ele><time>2026-05-05T09:30:16.69Z</time></trkpt><trkpt lat="36.9433185" lon="10.2459538"><ele>-1.0</ele><time>2026-05-05T09:30:17.689Z</time></trkpt><trkpt lat="36.943182" lon="10.2461142"><ele>-1.3333333333333333</ele><time>2026-05-05T09:30:18.732Z</time></trkpt><trkpt lat="36.9430495" lon="10.2462772"><ele>-1.6666666666666665</ele><time>2026-05-05T09:30:19.727Z</time></trkpt><trkpt lat="36.942918" lon="10.2464419"><ele>-2.0</ele><time>2026-05-05T09:30:20.726Z</time></trkpt><trkpt lat="36.9427787" lon="10.2466047"><ele>-1.6666666666666665</ele><time>2026-05-05T09:30:21.698Z</time></trkpt><trkpt lat="36.9426489" lon="10.2467708"><ele>-1.3333333333333333</ele><time>2026-05-05T09:30:22.72Z</time></trkpt><trkpt lat="36.9425134" lon="10.2469247"><ele>-1.0</ele><time>2026-05-05T09:30:23.736Z</time></trkpt><trkpt lat="36.9423776" lon="10.2470891"><ele>-1.0</ele><time>2026-05-05T09:30:24.714Z</time></trkpt><trkpt lat="36.9422394" lon="10.2472504"><ele>-1.0</ele><time>2026-05-05T09:30:25.734Z</time></trkpt><trkpt lat="36.9421037" lon="10.247413"><ele>-1.0</ele><time>2026-05-05T09:30:26.72Z</time></trkpt><trkpt lat="36.9419708" lon="10.2475775"><ele>-1.0</ele><time>2026-05-05T09:30:27.723Z</time></trkpt><trkpt lat="36.9418448" lon="10.2477359"><ele>-1.0</ele><time>2026-05-05T09:30:28.718Z</time></trkpt><trkpt lat="36.9417227" lon="10.2478874"><ele>-1.0</ele><time>2026-05-05T09:30:29.732Z</time></trkpt><trkpt lat="36.9416022" lon="10.2480312"><ele>-0.6666666666666666</ele><time>2026-05-05T09:30:30.719Z</time></trkpt><trkpt lat="36.9414824" lon="10.2481724"><ele>-0.3333333333333333</ele><time>2026-05-05T09:30:31.733Z</time></trkpt><trkpt lat="36.9413634" lon="10.2483135"><ele>0.0</ele><time>2026-05-05T09:30:32.711Z</time></trkpt><trkpt lat="36.9412492" lon="10.2484544"><ele>0.0</ele><time>2026-05-05T09:30:33.733Z</time></trkpt><trkpt lat="36.9411357" lon="10.2485984"><ele>0.0</ele><time>2026-05-05T09:30:34.702Z</time></trkpt><trkpt lat="36.9410195" lon="10.2487428"><ele>0.0</ele><time>2026-05-05T09:30:35.716Z</time></trkpt><trkpt lat="36.9408992" lon="10.2488962"><ele>0.6666666666666666</ele><time>2026-05-05T09:30:36.721Z</time></trkpt><trkpt lat="36.9407788" lon="10.249057"><ele>1.3333333333333333</ele><time>2026-05-05T09:30:37.732Z</time></trkpt><trkpt lat="36.9406647" lon="10.2492309"><ele>2.0</ele><time>2026-05-05T09:30:38.713Z</time></trkpt><trkpt lat="36.9405423" lon="10.2494236"><ele>2.0</ele><time>2026-05-05T09:30:39.725Z</time></trkpt><trkpt lat="36.9404158" lon="10.2496482"><ele>2.0</ele><time>2026-05-05T09:30:40.729Z</time></trkpt><trkpt lat="36.9402904" lon="10.2498882"><ele>2.0</ele><time>2026-05-05T09:30:41.731Z</time></trkpt><trkpt lat="36.940171" lon="10.250126"><ele>1.6666666666666665</ele><time>2026-05-05T09:30:42.71Z</time></trkpt><trkpt lat="36.9400437" lon="10.2503488"><ele>1.3333333333333333</ele><time>2026-05-05T09:30:43.742Z</time></trkpt><trkpt lat="36.9399196" lon="10.2505508"><ele>1.0</ele><time>2026-05-05T09:30:44.733Z</time></trkpt><trkpt lat="36.9397974" lon="10.250744"><ele>1.0</ele><time>2026-05-05T09:30:45.717Z</time></trkpt><trkpt lat="36.939683" lon="10.2509256"><ele>1.0</ele><time>2026-05-05T09:30:46.743Z</time></trkpt><trkpt lat="36.9395801" lon="10.2510998"><ele>1.0</ele><time>2026-05-05T09:30:47.747Z</time></trkpt><trkpt lat="36.9394796" lon="10.251266"><ele>1.0</ele><time>2026-05-05T09:30:48.698Z</time></trkpt><trkpt lat="36.9393871" lon="10.2514205"><ele>1.0</ele><time>2026-05-05T09:30:49.719Z</time></trkpt><trkpt lat="36.939294" lon="10.2515702"><ele>1.0</ele><time>2026-05-05T09:30:50.712Z</time></trkpt><trkpt lat="36.9392031" lon="10.2517095"><ele>1.0</ele><time>2026-05-05T09:30:51.737Z</time></trkpt><trkpt lat="36.9391037" lon="10.2518361"><ele>1.0</ele><time>2026-05-05T09:30:52.731Z</time></trkpt><trkpt lat="36.938999" lon="10.2519535"><ele>1.0</ele><time>2026-05-05T09:30:53.73Z</time></trkpt><trkpt lat="36.9389019" lon="10.2520461"><ele>1.0</ele><time>2026-05-05T09:30:54.707Z</time></trkpt><trkpt lat="36.9388061" lon="10.2521399"><ele>1.0</ele><time>2026-05-05T09:30:55.687Z</time></trkpt><trkpt lat="36.9387112" lon="10.2522098"><ele>1.0</ele><time>2026-05-05T09:30:56.725Z</time></trkpt><trkpt lat="36.9386167" lon="10.2522723"><ele>1.0</ele><time>2026-05-05T09:30:57.726Z</time></trkpt><trkpt lat="36.9385178" lon="10.2523366"><ele>1.0</ele><time>2026-05-05T09:30:58.727Z</time></trkpt><trkpt lat="36.9384134" lon="10.2524058"><ele>1.0</ele><time>2026-05-05T09:30:59.716Z</time></trkpt><trkpt lat="36.9383048" lon="10.2524712"><ele>0.75</ele><time>2026-05-05T09:31:00.741Z</time></trkpt><trkpt lat="36.9381883" lon="10.252531"><ele>0.5</ele><time>2026-05-05T09:31:01.733Z</time></trkpt><trkpt lat="36.9380676" lon="10.2525876"><ele>0.25</ele><time>2026-05-05T09:31:02.698Z</time></trkpt><trkpt lat="36.9379387" lon="10.2526352"><ele>0.0</ele><time>2026-05-05T09:31:03.701Z</time></trkpt><trkpt lat="36.9377959" lon="10.2526777"><ele>0.0</ele><time>2026-05-05T09:31:04.731Z</time></trkpt><trkpt lat="36.9376413" lon="10.2527119"><ele>0.0</ele><time>2026-05-05T09:31:05.714Z</time></trkpt><trkpt lat="36.9374841" lon="10.2527516"><ele>0.0</ele><time>2026-05-05T09:31:06.74Z</time></trkpt><trkpt lat="36.9373304" lon="10.2527954"><ele>0.0</ele><time>2026-05-05T09:31:07.732Z</time></trkpt><trkpt lat="36.9371803" lon="10.2528327"><ele>0.0</ele><time>2026-05-05T09:31:08.728Z</time></trkpt><trkpt lat="36.9370289" lon="10.2528759"><ele>0.0</ele><time>2026-05-05T09:31:09.726Z</time></trkpt><trkpt lat="36.9368733" lon="10.2529158"><ele>-1.3333333333333333</ele><time>2026-05-05T09:31:10.73Z</time></trkpt><trkpt lat="36.936719" lon="10.2529576"><ele>-2.6666666666666665</ele><time>2026-05-05T09:31:11.731Z</time></trkpt><trkpt lat="36.9365617" lon="10.2529958"><ele>-4.0</ele><time>2026-05-05T09:31:12.728Z</time></trkpt><trkpt lat="36.9364056" lon="10.253041"><ele>-4.0</ele><time>2026-05-05T09:31:13.723Z</time></trkpt><trkpt lat="36.9362536" lon="10.2530968"><ele>-4.0</ele><time>2026-05-05T09:31:14.735Z</time></trkpt><trkpt lat="36.9361031" lon="10.2531609"><ele>-4.0</ele><time>2026-05-05T09:31:15.724Z</time></trkpt><trkpt lat="36.9359611" lon="10.2532337"><ele>-3.5</ele><time>2026-05-05T09:31:16.714Z</time></trkpt><trkpt lat="36.9358244" lon="10.253312"><ele>-3.0</ele><time>2026-05-05T09:31:17.73Z</time></trkpt><trkpt lat="36.9356921" lon="10.2533934"><ele>-2.5</ele><time>2026-05-05T09:31:18.734Z</time></trkpt><trkpt lat="36.9355692" lon="10.2534759"><ele>-2.0</ele><time>2026-05-05T09:31:19.732Z</time></trkpt><trkpt lat="36.9354513" lon="10.253556"><ele>-2.0</ele><time>2026-05-05T09:31:20.705Z</time></trkpt><trkpt lat="36.935345" lon="10.2536466"><ele>-2.0</ele><time>2026-05-05T09:31:21.68Z</time></trkpt><trkpt lat="36.9352463" lon="10.2537458"><ele>-2.0</ele><time>2026-05-05T09:31:22.73Z</time></trkpt><trkpt lat="36.9351439" lon="10.2538623"><ele>-2.0</ele><time>2026-05-05T09:31:23.731Z</time></trkpt><trkpt lat="36.9350479" lon="10.2539844"><ele>-2.25</ele><time>2026-05-05T09:31:24.728Z</time></trkpt><trkpt lat="36.9349571" lon="10.2541215"><ele>-2.5</ele><time>2026-05-05T09:31:25.729Z</time></trkpt><trkpt lat="36.934866" lon="10.2542667"><ele>-2.75</ele><time>2026-05-05T09:31:26.722Z</time></trkpt><trkpt lat="36.9347826" lon="10.2544141"><ele>-3.0</ele><time>2026-05-05T09:31:27.725Z</time></trkpt><trkpt lat="36.9347047" lon="10.2545744"><ele>-3.0</ele><time>2026-05-05T09:31:28.729Z</time></trkpt><trkpt lat="36.9346376" lon="10.2547483"><ele>-3.0</ele><time>2026-05-05T09:31:29.734Z</time></trkpt><trkpt lat="36.934578" lon="10.2549185"><ele>-3.0</ele><time>2026-05-05T09:31:30.738Z</time></trkpt><trkpt lat="36.9345182" lon="10.2550897"><ele>-3.333333333333333</ele><time>2026-05-05T09:31:31.72Z</time></trkpt><trkpt lat="36.9344704" lon="10.2552646"><ele>-3.6666666666666665</ele><time>2026-05-05T09:31:32.722Z</time></trkpt><trkpt lat="36.9344281" lon="10.2554577"><ele>-4.0</ele><time>2026-05-05T09:31:33.751Z</time></trkpt><trkpt lat="36.9344018" lon="10.2556649"><ele>-2.333333333333333</ele><time>2026-05-05T09:31:34.671Z</time></trkpt><trkpt lat="36.9343866" lon="10.2559025"><ele>-0.6666666666666666</ele><time>2026-05-05T09:31:35.679Z</time></trkpt><trkpt lat="36.934372" lon="10.2561694"><ele>1.0</ele><time>2026-05-05T09:31:36.701Z</time></trkpt><trkpt lat="36.934357" lon="10.2564499"><ele>2.0</ele><time>2026-05-05T09:31:37.724Z</time></trkpt><trkpt lat="36.9343521" lon="10.2567478"><ele>3.0</ele><time>2026-05-05T09:31:38.686Z</time></trkpt><trkpt lat="36.9343191" lon="10.2570267"><ele>3.0</ele><time>2026-05-05T09:31:39.686Z</time></trkpt><trkpt lat="36.9342921" lon="10.2572688"><ele>3.0</ele><time>2026-05-05T09:31:40.674Z</time></trkpt><trkpt lat="36.9342733" lon="10.2574859"><ele>3.0</ele><time>2026-05-05T09:31:41.686Z</time></trkpt><trkpt lat="36.934255" lon="10.2576845"><ele>2.75</ele><time>2026-05-05T09:31:42.726Z</time></trkpt><trkpt lat="36.9342427" lon="10.2578729"><ele>2.5</ele><time>2026-05-05T09:31:43.736Z</time></trkpt><trkpt lat="36.9342288" lon="10.2580485"><ele>2.25</ele><time>2026-05-05T09:31:44.72Z</time></trkpt><trkpt lat="36.9342222" lon="10.2582096"><ele>2.0</ele><time>2026-05-05T09:31:45.696Z</time></trkpt><trkpt lat="36.934209" lon="10.2583748"><ele>2.0</ele><time>2026-05-05T09:31:46.709Z</time></trkpt><trkpt lat="36.9342014" lon="10.2585391"><ele>2.0</ele><time>2026-05-05T09:31:47.71Z</time></trkpt><trkpt lat="36.9341921" lon="10.2586975"><ele>2.0</ele><time>2026-05-05T09:31:48.693Z</time></trkpt><trkpt lat="36.9341787" lon="10.2588578"><ele>2.0</ele><time>2026-05-05T09:31:49.737Z</time></trkpt><trkpt lat="36.9341566" lon="10.2590187"><ele>2.0</ele><time>2026-05-05T09:31:50.718Z</time></trkpt><trkpt lat="36.9341367" lon="10.2591796"><ele>2.0</ele><time>2026-05-05T09:31:51.728Z</time></trkpt><trkpt lat="36.9341173" lon="10.2593401"><ele>2.0</ele><time>2026-05-05T09:31:52.718Z</time></trkpt><trkpt lat="36.9340908" lon="10.2595051"><ele>2.0</ele><time>2026-05-05T09:31:53.732Z</time></trkpt><trkpt lat="36.9340635" lon="10.2596682"><ele>2.5</ele><time>2026-05-05T09:31:54.721Z</time></trkpt><trkpt lat="36.9340342" lon="10.2598299"><ele>3.0</ele><time>2026-05-05T09:31:55.739Z</time></trkpt><trkpt lat="36.9340029" lon="10.2599898"><ele>3.5</ele><time>2026-05-05T09:31:56.694Z</time></trkpt><trkpt lat="36.9339682" lon="10.2601453"><ele>4.0</ele><time>2026-05-05T09:31:57.726Z</time></trkpt><trkpt lat="36.9339307" lon="10.2603014"><ele>4.0</ele><time>2026-05-05T09:31:58.729Z</time></trkpt><trkpt lat="36.9338843" lon="10.2604569"><ele>4.0</ele><time>2026-05-05T09:31:59.717Z</time></trkpt><trkpt lat="36.9338298" lon="10.2606095"><ele>4.0</ele><time>2026-05-05T09:32:00.727Z</time></trkpt><trkpt lat="36.9337704" lon="10.2607557"><ele>4.0</ele><time>2026-05-05T09:32:01.716Z</time></trkpt><trkpt lat="36.9336998" lon="10.2608935"><ele>4.0</ele><time>2026-05-05T09:32:02.724Z</time></trkpt><trkpt lat="36.9336202" lon="10.2610265"><ele>4.0</ele><time>2026-05-05T09:32:03.726Z</time></trkpt><trkpt lat="36.9335341" lon="10.261158"><ele>4.0</ele><time>2026-05-05T09:32:04.736Z</time></trkpt><trkpt lat="36.9334496" lon="10.2612825"><ele>4.0</ele><time>2026-05-05T09:32:05.728Z</time></trkpt><trkpt lat="36.9333569" lon="10.2614077"><ele>3.5</ele><time>2026-05-05T09:32:06.726Z</time></trkpt><trkpt lat="36.9332607" lon="10.2615338"><ele>3.0</ele><time>2026-05-05T09:32:07.725Z</time></trkpt><trkpt lat="36.9331661" lon="10.2616567"><ele>2.5</ele><time>2026-05-05T09:32:08.74Z</time></trkpt><trkpt lat="36.9330732" lon="10.2617777"><ele>2.0</ele><time>2026-05-05T09:32:09.726Z</time></trkpt><trkpt lat="36.9329797" lon="10.2619093"><ele>2.0</ele><time>2026-05-05T09:32:10.732Z</time></trkpt><trkpt lat="36.9328812" lon="10.2620386"><ele>2.0</ele><time>2026-05-05T09:32:11.733Z</time></trkpt><trkpt lat="36.9327827" lon="10.2621713"><ele>2.0</ele><time>2026-05-05T09:32:12.73Z</time></trkpt><trkpt lat="36.932687" lon="10.2623039"><ele>2.0</ele><time>2026-05-05T09:32:13.742Z</time></trkpt><trkpt lat="36.9325917" lon="10.2624301"><ele>2.0</ele><time>2026-05-05T09:32:14.721Z</time></trkpt><trkpt lat="36.9324972" lon="10.2625601"><ele>2.0</ele><time>2026-05-05T09:32:15.727Z</time></trkpt><trkpt lat="36.9324027" lon="10.2626922"><ele>2.0</ele><time>2026-05-05T09:32:16.703Z</time></trkpt><trkpt lat="36.9323052" lon="10.2628258"><ele>2.0</ele><time>2026-05-05T09:32:17.712Z</time></trkpt><trkpt lat="36.9322145" lon="10.2629586"><ele>2.0</ele><time>2026-05-05T09:32:18.728Z</time></trkpt><trkpt lat="36.9321281" lon="10.2631026"><ele>2.0</ele><time>2026-05-05T09:32:19.725Z</time></trkpt><trkpt lat="36.9320405" lon="10.2632482"><ele>2.0</ele><time>2026-05-05T09:32:20.707Z</time></trkpt><trkpt lat="36.931953" lon="10.263387"><ele>2.0</ele><time>2026-05-05T09:32:21.709Z</time></trkpt><trkpt lat="36.9318655" lon="10.2635259"><ele>2.0</ele><time>2026-05-05T09:32:22.735Z</time></trkpt><trkpt lat="36.9317781" lon="10.2636776"><ele>2.0</ele><time>2026-05-05T09:32:23.744Z</time></trkpt><trkpt lat="36.9316921" lon="10.263833"><ele>2.0</ele><time>2026-05-05T09:32:24.713Z</time></trkpt><trkpt lat="36.9316078" lon="10.2639864"><ele>2.0</ele><time>2026-05-05T09:32:25.703Z</time></trkpt><trkpt lat="36.9315241" lon="10.2641458"><ele>2.333333333333333</ele><time>2026-05-05T09:32:26.731Z</time></trkpt><trkpt lat="36.9314388" lon="10.2643088"><ele>2.6666666666666665</ele><time>2026-05-05T09:32:27.727Z</time></trkpt><trkpt lat="36.9313516" lon="10.2644769"><ele>3.0</ele><time>2026-05-05T09:32:28.72Z</time></trkpt><trkpt lat="36.9312608" lon="10.2646472"><ele>2.6666666666666665</ele><time>2026-05-05T09:32:29.722Z</time></trkpt><trkpt lat="36.9311691" lon="10.2648235"><ele>2.333333333333333</ele><time>2026-05-05T09:32:30.732Z</time></trkpt><trkpt lat="36.9310789" lon="10.2649924"><ele>2.0</ele><time>2026-05-05T09:32:31.724Z</time></trkpt><trkpt lat="36.9309902" lon="10.2651624"><ele>2.0</ele><time>2026-05-05T09:32:32.737Z</time></trkpt><trkpt lat="36.9309025" lon="10.2653396"><ele>2.0</ele><time>2026-05-05T09:32:33.732Z</time></trkpt><trkpt lat="36.9308164" lon="10.2655093"><ele>2.0</ele><time>2026-05-05T09:32:34.713Z</time></trkpt><trkpt lat="36.930729" lon="10.2656852"><ele>1.6666666666666665</ele><time>2026-05-05T09:32:35.727Z</time></trkpt><trkpt lat="36.9306394" lon="10.2658616"><ele>1.3333333333333333</ele><time>2026-05-05T09:32:36.717Z</time></trkpt><trkpt lat="36.930545" lon="10.2660434"><ele>1.0</ele><time>2026-05-05T09:32:37.73Z</time></trkpt><trkpt lat="36.9304555" lon="10.2662242"><ele>1.0</ele><time>2026-05-05T09:32:38.745Z</time></trkpt><trkpt lat="36.9303658" lon="10.2664025"><ele>1.0</ele><time>2026-05-05T09:32:39.725Z</time></trkpt><trkpt lat="36.9302776" lon="10.2665823"><ele>1.0</ele><time>2026-05-05T09:32:40.737Z</time></trkpt><trkpt lat="36.9301839" lon="10.2667686"><ele>1.0</ele><time>2026-05-05T09:32:41.714Z</time></trkpt><trkpt lat="36.9300871" lon="10.2669616"><ele>1.0</ele><time>2026-05-05T09:32:42.681Z</time></trkpt><trkpt lat="36.9299888" lon="10.2671568"><ele>1.0</ele><time>2026-05-05T09:32:43.711Z</time></trkpt><trkpt lat="36.9298881" lon="10.2673477"><ele>0.6666666666666666</ele><time>2026-05-05T09:32:44.729Z</time></trkpt><trkpt lat="36.9297842" lon="10.2675385"><ele>0.3333333333333333</ele><time>2026-05-05T09:32:45.721Z</time></trkpt><trkpt lat="36.9296757" lon="10.2677264"><ele>0.0</ele><time>2026-05-05T09:32:46.731Z</time></trkpt><trkpt lat="36.9295657" lon="10.267907"><ele>0.0</ele><time>2026-05-05T09:32:47.742Z</time></trkpt><trkpt lat="36.9294539" lon="10.2680843"><ele>0.0</ele><time>2026-05-05T09:32:48.712Z</time></trkpt><trkpt lat="36.9293376" lon="10.2682576"><ele>0.0</ele><time>2026-05-05T09:32:49.728Z</time></trkpt><trkpt lat="36.9292165" lon="10.2684245"><ele>0.6666666666666666</ele><time>2026-05-05T09:32:50.714Z</time></trkpt><trkpt lat="36.9290918" lon="10.2685834"><ele>1.3333333333333333</ele><time>2026-05-05T09:32:51.745Z</time></trkpt><trkpt lat="36.928964" lon="10.2687285"><ele>2.0</ele><time>2026-05-05T09:32:52.72Z</time></trkpt><trkpt lat="36.9288308" lon="10.2688691"><ele>1.3333333333333333</ele><time>2026-05-05T09:32:53.736Z</time></trkpt><trkpt lat="36.9286984" lon="10.269011"><ele>0.6666666666666666</ele><time>2026-05-05T09:32:54.733Z</time></trkpt><trkpt lat="36.9285614" lon="10.2691531"><ele>0.0</ele><time>2026-05-05T09:32:55.726Z</time></trkpt><trkpt lat="36.9284225" lon="10.2692923"><ele>0.3333333333333333</ele><time>2026-05-05T09:32:56.749Z</time></trkpt><trkpt lat="36.9282847" lon="10.2694187"><ele>0.6666666666666666</ele><time>2026-05-05T09:32:57.731Z</time></trkpt><trkpt lat="36.9281441" lon="10.2695442"><ele>1.0</ele><time>2026-05-05T09:32:58.72Z</time></trkpt><trkpt lat="36.928001" lon="10.2696683"><ele>1.0</ele><time>2026-05-05T09:32:59.732Z</time></trkpt><trkpt lat="36.9278574" lon="10.2697966"><ele>1.0</ele><time>2026-05-05T09:33:00.732Z</time></trkpt><trkpt lat="36.9277095" lon="10.2699235"><ele>1.0</ele><time>2026-05-05T09:33:01.742Z</time></trkpt><trkpt lat="36.9275595" lon="10.2700522"><ele>1.6666666666666665</ele><time>2026-05-05T09:33:02.725Z</time></trkpt><trkpt lat="36.9274021" lon="10.2701829"><ele>2.3333333333333335</ele><time>2026-05-05T09:33:03.746Z</time></trkpt><trkpt lat="36.9272453" lon="10.2702996"><ele>3.0</ele><time>2026-05-05T09:33:04.725Z</time></trkpt><trkpt lat="36.9270913" lon="10.2704166"><ele>3.0</ele><time>2026-05-05T09:33:05.733Z</time></trkpt><trkpt lat="36.9269446" lon="10.2705397"><ele>3.0</ele><time>2026-05-05T09:33:06.717Z</time></trkpt><trkpt lat="36.9267975" lon="10.2706684"><ele>3.0</ele><time>2026-05-05T09:33:07.73Z</time></trkpt><trkpt lat="36.9266478" lon="10.2708008"><ele>2.3333333333333335</ele><time>2026-05-05T09:33:08.723Z</time></trkpt><trkpt lat="36.9264991" lon="10.2709321"><ele>1.6666666666666665</ele><time>2026-05-05T09:33:09.729Z</time></trkpt><trkpt lat="36.926355" lon="10.2710654"><ele>1.0</ele><time>2026-05-05T09:33:10.726Z</time></trkpt><trkpt lat="36.9262087" lon="10.2712039"><ele>1.0</ele><time>2026-05-05T09:33:11.729Z</time></trkpt><trkpt lat="36.9260689" lon="10.2713452"><ele>1.0</ele><time>2026-05-05T09:33:12.707Z</time></trkpt><trkpt lat="36.9259307" lon="10.2714891"><ele>1.0</ele><time>2026-05-05T09:33:13.734Z</time></trkpt><trkpt lat="36.9257966" lon="10.2716399"><ele>1.0</ele><time>2026-05-05T09:33:14.695Z</time></trkpt><trkpt lat="36.9256654" lon="10.2717892"><ele>1.0</ele><time>2026-05-05T09:33:15.728Z</time></trkpt><trkpt lat="36.9255356" lon="10.2719405"><ele>1.0</ele><time>2026-05-05T09:33:16.73Z</time></trkpt><trkpt lat="36.9254076" lon="10.2720964"><ele>1.0</ele><time>2026-05-05T09:33:17.728Z</time></trkpt><trkpt lat="36.9252844" lon="10.2722497"><ele>1.0</ele><time>2026-05-05T09:33:18.718Z</time></trkpt><trkpt lat="36.9251621" lon="10.2723985"><ele>1.0</ele><time>2026-05-05T09:33:19.733Z</time></trkpt><trkpt lat="36.9250442" lon="10.2725436"><ele>1.6666666666666665</ele><time>2026-05-05T09:33:20.716Z</time></trkpt><trkpt lat="36.924926" lon="10.2726796"><ele>2.3333333333333335</ele><time>2026-05-05T09:33:21.721Z</time></trkpt><trkpt lat="36.9248156" lon="10.2728159"><ele>3.0</ele><time>2026-05-05T09:33:22.713Z</time></trkpt><trkpt lat="36.924704" lon="10.2729494"><ele>3.0</ele><time>2026-05-05T09:33:23.723Z</time></trkpt><trkpt lat="36.9245903" lon="10.2730858"><ele>3.0</ele><time>2026-05-05T09:33:24.739Z</time></trkpt><trkpt lat="36.9244768" lon="10.2732251"><ele>3.0</ele><time>2026-05-05T09:33:25.734Z</time></trkpt><trkpt lat="36.9243606" lon="10.2733628"><ele>3.0</ele><time>2026-05-05T09:33:26.728Z</time></trkpt><trkpt lat="36.9242449" lon="10.2734925"><ele>3.0</ele><time>2026-05-05T09:33:27.737Z</time></trkpt><trkpt lat="36.9241346" lon="10.2736244"><ele>3.0</ele><time>2026-05-05T09:33:28.726Z</time></trkpt><trkpt lat="36.9240261" lon="10.2737505"><ele>3.0</ele><time>2026-05-05T09:33:29.726Z</time></trkpt><trkpt lat="36.923915" lon="10.2738788"><ele>3.0</ele><time>2026-05-05T09:33:30.738Z</time></trkpt><trkpt lat="36.9238055" lon="10.2740023"><ele>3.0</ele><time>2026-05-05T09:33:31.734Z</time></trkpt><trkpt lat="36.9237015" lon="10.2741259"><ele>3.0</ele><time>2026-05-05T09:33:32.719Z</time></trkpt><trkpt lat="36.9236043" lon="10.2742476"><ele>2.75</ele><time>2026-05-05T09:33:33.709Z</time></trkpt><trkpt lat="36.9235027" lon="10.2743699"><ele>2.5</ele><time>2026-05-05T09:33:34.702Z</time></trkpt><trkpt lat="36.9234011" lon="10.2744912"><ele>2.25</ele><time>2026-05-05T09:33:35.707Z</time></trkpt><trkpt lat="36.9233001" lon="10.2746134"><ele>2.0</ele><time>2026-05-05T09:33:36.721Z</time></trkpt><trkpt lat="36.9232025" lon="10.2747384"><ele>2.0</ele><time>2026-05-05T09:33:37.707Z</time></trkpt><trkpt lat="36.9231003" lon="10.2748595"><ele>2.0</ele><time>2026-05-05T09:33:38.682Z</time></trkpt><trkpt lat="36.9230005" lon="10.2749796"><ele>2.0</ele><time>2026-05-05T09:33:39.721Z</time></trkpt><trkpt lat="36.9228989" lon="10.2751002"><ele>2.0</ele><time>2026-05-05T09:33:40.722Z</time></trkpt><trkpt lat="36.9227967" lon="10.2752222"><ele>2.0</ele><time>2026-05-05T09:33:41.728Z</time></trkpt><trkpt lat="36.9227001" lon="10.2753386"><ele>2.0</ele><time>2026-05-05T09:33:42.723Z</time></trkpt><trkpt lat="36.9226033" lon="10.2754546"><ele>2.0</ele><time>2026-05-05T09:33:43.727Z</time></trkpt><trkpt lat="36.922506" lon="10.2755749"><ele>2.0</ele><time>2026-05-05T09:33:44.686Z</time></trkpt><trkpt lat="36.9224102" lon="10.2756939"><ele>1.25</ele><time>2026-05-05T09:33:45.722Z</time></trkpt><trkpt lat="36.922313" lon="10.2758108"><ele>0.5</ele><time>2026-05-05T09:33:46.718Z</time></trkpt><trkpt lat="36.9222132" lon="10.2759247"><ele>-0.25</ele><time>2026-05-05T09:33:47.724Z</time></trkpt><trkpt lat="36.9221136" lon="10.276046"><ele>-1.0</ele><time>2026-05-05T09:33:48.726Z</time></trkpt><trkpt lat="36.9220111" lon="10.2761664"><ele>-1.0</ele><time>2026-05-05T09:33:49.725Z</time></trkpt><trkpt lat="36.9219056" lon="10.2762858"><ele>-1.0</ele><time>2026-05-05T09:33:50.726Z</time></trkpt><trkpt lat="36.9217992" lon="10.2764113"><ele>-1.0</ele><time>2026-05-05T09:33:51.738Z</time></trkpt><trkpt lat="36.9216983" lon="10.2765379"><ele>-1.0</ele><time>2026-05-05T09:33:52.725Z</time></trkpt><trkpt lat="36.9215949" lon="10.2766626"><ele>-0.5</ele><time>2026-05-05T09:33:53.733Z</time></trkpt><trkpt lat="36.921491" lon="10.2767828"><ele>0.0</ele><time>2026-05-05T09:33:54.699Z</time></trkpt><trkpt lat="36.9213952" lon="10.2769025"><ele>0.5</ele><time>2026-05-05T09:33:55.72Z</time></trkpt><trkpt lat="36.9212943" lon="10.2770237"><ele>1.0</ele><time>2026-05-05T09:33:56.727Z</time></trkpt><trkpt lat="36.9211905" lon="10.277145"><ele>0.6666666666666666</ele><time>2026-05-05T09:33:57.719Z</time></trkpt><trkpt lat="36.9210854" lon="10.2772745"><ele>0.3333333333333333</ele><time>2026-05-05T09:33:58.73Z</time></trkpt><trkpt lat="36.920972" lon="10.2774025"><ele>0.0</ele><time>2026-05-05T09:33:59.722Z</time></trkpt><trkpt lat="36.9208511" lon="10.2775322"><ele>0.6666666666666666</ele><time>2026-05-05T09:34:00.737Z</time></trkpt><trkpt lat="36.9207272" lon="10.2776727"><ele>1.3333333333333333</ele><time>2026-05-05T09:34:01.72Z</time></trkpt><trkpt lat="36.9206019" lon="10.2778209"><ele>2.0</ele><time>2026-05-05T09:34:02.718Z</time></trkpt><trkpt lat="36.9204783" lon="10.2779744"><ele>1.6666666666666665</ele><time>2026-05-05T09:34:03.72Z</time></trkpt><trkpt lat="36.9203567" lon="10.2781315"><ele>1.3333333333333333</ele><time>2026-05-05T09:34:04.724Z</time></trkpt><trkpt lat="36.9202375" lon="10.2782945"><ele>1.0</ele><time>2026-05-05T09:34:05.688Z</time></trkpt><trkpt lat="36.920124" lon="10.2784636"><ele>1.3333333333333333</ele><time>2026-05-05T09:34:06.728Z</time></trkpt><trkpt lat="36.9200144" lon="10.2786357"><ele>1.6666666666666665</ele><time>2026-05-05T09:34:07.713Z</time></trkpt><trkpt lat="36.9199122" lon="10.2788075"><ele>2.0</ele><time>2026-05-05T09:34:08.711Z</time></trkpt><trkpt lat="36.9198128" lon="10.2789886"><ele>2.0</ele><time>2026-05-05T09:34:09.731Z</time></trkpt><trkpt lat="36.9197189" lon="10.2791691"><ele>2.0</ele><time>2026-05-05T09:34:10.736Z</time></trkpt><trkpt lat="36.9196275" lon="10.2793427"><ele>2.0</ele><time>2026-05-05T09:34:11.727Z</time></trkpt><trkpt lat="36.9195448" lon="10.2795127"><ele>2.0</ele><time>2026-05-05T09:34:12.709Z</time></trkpt><trkpt lat="36.9194694" lon="10.2796714"><ele>2.0</ele><time>2026-05-05T09:34:13.724Z</time></trkpt><trkpt lat="36.9193978" lon="10.2798354"><ele>2.0</ele><time>2026-05-05T09:34:14.725Z</time></trkpt><trkpt lat="36.9193264" lon="10.2799929"><ele>2.0</ele><time>2026-05-05T09:34:15.739Z</time></trkpt><trkpt lat="36.9192542" lon="10.2801452"><ele>2.0</ele><time>2026-05-05T09:34:16.732Z</time></trkpt><trkpt lat="36.9191828" lon="10.2802967"><ele>2.0</ele><time>2026-05-05T09:34:17.728Z</time></trkpt><trkpt lat="36.9191163" lon="10.2804408"><ele>2.0</ele><time>2026-05-05T09:34:18.731Z</time></trkpt><trkpt lat="36.9190531" lon="10.2805864"><ele>2.0</ele><time>2026-05-05T09:34:19.706Z</time></trkpt><trkpt lat="36.9189939" lon="10.2807238"><ele>2.0</ele><time>2026-05-05T09:34:20.727Z</time></trkpt><trkpt lat="36.9189406" lon="10.2808535"><ele>2.0</ele><time>2026-05-05T09:34:21.731Z</time></trkpt><trkpt lat="36.918895" lon="10.2809779"><ele>2.0</ele><time>2026-05-05T09:34:22.733Z</time></trkpt><trkpt lat="36.9188461" lon="10.2811016"><ele>2.0</ele><time>2026-05-05T09:34:23.725Z</time></trkpt><trkpt lat="36.918799" lon="10.2812134"><ele>2.0</ele><time>2026-05-05T09:34:24.732Z</time></trkpt><trkpt lat="36.9187492" lon="10.2813206"><ele>1.9999999999999998</ele><time>2026-05-05T09:34:25.719Z</time></trkpt><trkpt lat="36.9187074" lon="10.281419"><ele>2.0</ele><time>2026-05-05T09:34:26.736Z</time></trkpt><trkpt lat="36.9186611" lon="10.2815045"><ele>2.0</ele><time>2026-05-05T09:34:27.725Z</time></trkpt><trkpt lat="36.9186187" lon="10.2815935"><ele>2.0</ele><time>2026-05-05T09:34:28.738Z</time></trkpt><trkpt lat="36.9185719" lon="10.281667"><ele>1.9999999999999998</ele><time>2026-05-05T09:34:29.725Z</time></trkpt><trkpt lat="36.9185189" lon="10.2817198"><ele>2.0</ele><time>2026-05-05T09:34:30.741Z</time></trkpt><trkpt lat="36.9184607" lon="10.2817511"><ele>1.9999999999999998</ele><time>2026-05-05T09:34:31.745Z</time></trkpt><trkpt lat="36.9183981" lon="10.2817646"><ele>2.0</ele><time>2026-05-05T09:34:32.728Z</time></trkpt><trkpt lat="36.9183265" lon="10.2817567"><ele>2.0</ele><time>2026-05-05T09:34:33.684Z</time></trkpt><trkpt lat="36.9182463" lon="10.2817256"><ele>2.0</ele><time>2026-05-05T09:34:34.712Z</time></trkpt><trkpt lat="36.918153" lon="10.2816952"><ele>1.9999999999999998</ele><time>2026-05-05T09:34:35.71Z</time></trkpt><trkpt lat="36.9180518" lon="10.281655"><ele>2.0</ele><time>2026-05-05T09:34:36.731Z</time></trkpt><trkpt lat="36.9179338" lon="10.2816133"><ele>2.0</ele><time>2026-05-05T09:34:37.73Z</time></trkpt><trkpt lat="36.9178189" lon="10.2815718"><ele>2.0</ele><time>2026-05-05T09:34:38.711Z</time></trkpt><trkpt lat="36.9177057" lon="10.2815364"><ele>2.0</ele><time>2026-05-05T09:34:39.737Z</time></trkpt><trkpt lat="36.9175812" lon="10.2814974"><ele>2.0</ele><time>2026-05-05T09:34:40.731Z</time></trkpt><trkpt lat="36.9174487" lon="10.2814668"><ele>1.0</ele><time>2026-05-05T09:34:41.728Z</time></trkpt><trkpt lat="36.917311" lon="10.281432"><ele>0.0</ele><time>2026-05-05T09:34:42.723Z</time></trkpt><trkpt lat="36.9171685" lon="10.2813961"><ele>-1.0</ele><time>2026-05-05T09:34:43.729Z</time></trkpt><trkpt lat="36.9170158" lon="10.2813711"><ele>-2.0</ele><time>2026-05-05T09:34:44.71Z</time></trkpt><trkpt lat="36.9168555" lon="10.2813543"><ele>-2.6666666666666665</ele><time>2026-05-05T09:34:45.72Z</time></trkpt><trkpt lat="36.9166917" lon="10.2813479"><ele>-3.333333333333333</ele><time>2026-05-05T09:34:46.677Z</time></trkpt><trkpt lat="36.9165181" lon="10.2813446"><ele>-4.0</ele><time>2026-05-05T09:34:47.727Z</time></trkpt><trkpt lat="36.9163469" lon="10.281347"><ele>-4.0</ele><time>2026-05-05T09:34:48.734Z</time></trkpt><trkpt lat="36.916176" lon="10.2813563"><ele>-4.0</ele><time>2026-05-05T09:34:49.731Z</time></trkpt><trkpt lat="36.9160097" lon="10.2813664"><ele>-4.0</ele><time>2026-05-05T09:34:50.738Z</time></trkpt><trkpt lat="36.9158443" lon="10.2813842"><ele>-4.0</ele><time>2026-05-05T09:34:51.725Z</time></trkpt><trkpt lat="36.9156779" lon="10.281414"><ele>-4.0</ele><time>2026-05-05T09:34:52.743Z</time></trkpt><trkpt lat="36.915511" lon="10.2814341"><ele>-4.0</ele><time>2026-05-05T09:34:53.738Z</time></trkpt><trkpt lat="36.9153439" lon="10.2814615"><ele>-3.6666666666666665</ele><time>2026-05-05T09:34:54.723Z</time></trkpt><trkpt lat="36.9151816" lon="10.2814894"><ele>-3.333333333333333</ele><time>2026-05-05T09:34:55.73Z</time></trkpt><trkpt lat="36.9150196" lon="10.2815197"><ele>-3.0</ele><time>2026-05-05T09:34:56.731Z</time></trkpt><trkpt lat="36.914857" lon="10.2815465"><ele>-2.6666666666666665</ele><time>2026-05-05T09:34:57.729Z</time></trkpt><trkpt lat="36.9146993" lon="10.2815749"><ele>-2.333333333333333</ele><time>2026-05-05T09:34:58.739Z</time></trkpt><trkpt lat="36.9145391" lon="10.2816074"><ele>-2.0</ele><time>2026-05-05T09:34:59.716Z</time></trkpt><trkpt lat="36.9143782" lon="10.281633"><ele>-2.0</ele><time>2026-05-05T09:35:00.707Z</time></trkpt><trkpt lat="36.9142192" lon="10.2816558"><ele>-2.0</ele><time>2026-05-05T09:35:01.71Z</time></trkpt><trkpt lat="36.9140628" lon="10.2816841"><ele>-2.0</ele><time>2026-05-05T09:35:02.732Z</time></trkpt><trkpt lat="36.9139363" lon="10.2817074"><ele>-2.0</ele><time>2026-05-05T09:35:03.729Z</time></trkpt><trkpt lat="36.9138557" lon="10.2817234"><ele>-2.0</ele><time>2026-05-05T09:35:04.746Z</time></trkpt><trkpt lat="36.9137642" lon="10.2817421"><ele>-2.0</ele><time>2026-05-05T09:35:06.737Z</time></trkpt><trkpt lat="36.9136895" lon="10.2817751"><ele>-2.0</ele><time>2026-05-05T09:35:29.712Z</time></trkpt><trkpt lat="36.9135619" lon="10.281803"><ele>-2.0</ele><time>2026-05-05T09:35:31.725Z</time></trkpt><trkpt lat="36.9134584" lon="10.2818204"><ele>-2.0</ele><time>2026-05-05T09:35:32.715Z</time></trkpt><trkpt lat="36.9133321" lon="10.2818495"><ele>-2.0</ele><time>2026-05-05T09:35:33.709Z</time></trkpt><trkpt lat="36.9131659" lon="10.281874"><ele>-2.0</ele><time>2026-05-05T09:35:34.703Z</time></trkpt><trkpt lat="36.9129709" lon="10.2819173"><ele>-2.0</ele><time>2026-05-05T09:35:35.719Z</time></trkpt><trkpt lat="36.9127369" lon="10.281964"><ele>-2.5</ele><time>2026-05-05T09:35:36.733Z</time></trkpt><trkpt lat="36.9124717" lon="10.2820117"><ele>-3.0</ele><time>2026-05-05T09:35:37.725Z</time></trkpt><trkpt lat="36.9121884" lon="10.2820548"><ele>-3.0</ele><time>2026-05-05T09:35:38.735Z</time></trkpt><trkpt lat="36.9118975" lon="10.2820853"><ele>-3.0</ele><time>2026-05-05T09:35:39.736Z</time></trkpt><trkpt lat="36.9116255" lon="10.2821248"><ele>-3.0</ele><time>2026-05-05T09:35:40.729Z</time></trkpt><trkpt lat="36.9113703" lon="10.2821637"><ele>-3.0</ele><time>2026-05-05T09:35:41.722Z</time></trkpt><trkpt lat="36.9111329" lon="10.2822015"><ele>-3.0</ele><time>2026-05-05T09:35:42.721Z</time></trkpt><trkpt lat="36.9109102" lon="10.2822422"><ele>-3.0</ele><time>2026-05-05T09:35:43.728Z</time></trkpt><trkpt lat="36.9106911" lon="10.2822746"><ele>-3.0</ele><time>2026-05-05T09:35:44.725Z</time></trkpt><trkpt lat="36.9104815" lon="10.2823125"><ele>-2.0</ele><time>2026-05-05T09:35:45.74Z</time></trkpt><trkpt lat="36.9102735" lon="10.2823612"><ele>-1.0</ele><time>2026-05-05T09:35:46.705Z</time></trkpt><trkpt lat="36.9100718" lon="10.2824178"><ele>0.0</ele><time>2026-05-05T09:35:47.724Z</time></trkpt><trkpt lat="36.9098722" lon="10.282483"><ele>0.0</ele><time>2026-05-05T09:35:48.722Z</time></trkpt><trkpt lat="36.9096757" lon="10.2825627"><ele>0.0</ele><time>2026-05-05T09:35:49.729Z</time></trkpt><trkpt lat="36.9094769" lon="10.2826477"><ele>0.0</ele><time>2026-05-05T09:35:50.736Z</time></trkpt><trkpt lat="36.9092829" lon="10.2827402"><ele>0.0</ele><time>2026-05-05T09:35:51.734Z</time></trkpt><trkpt lat="36.9091056" lon="10.282844"><ele>0.0</ele><time>2026-05-05T09:35:52.733Z</time></trkpt><trkpt lat="36.9089329" lon="10.2829508"><ele>0.0</ele><time>2026-05-05T09:35:53.727Z</time></trkpt><trkpt lat="36.9087616" lon="10.2830687"><ele>0.3333333333333333</ele><time>2026-05-05T09:35:54.734Z</time></trkpt><trkpt lat="36.9085915" lon="10.2831949"><ele>0.6666666666666666</ele><time>2026-05-05T09:35:55.725Z</time></trkpt><trkpt lat="36.9084257" lon="10.2833303"><ele>1.0</ele><time>2026-05-05T09:35:56.714Z</time></trkpt><trkpt lat="36.9082564" lon="10.2834664"><ele>1.0</ele><time>2026-05-05T09:35:57.715Z</time></trkpt><trkpt lat="36.9080981" lon="10.2836054"><ele>1.0</ele><time>2026-05-05T09:35:58.726Z</time></trkpt><trkpt lat="36.9079334" lon="10.2837502"><ele>1.0</ele><time>2026-05-05T09:35:59.718Z</time></trkpt><trkpt lat="36.9077771" lon="10.2838927"><ele>1.0</ele><time>2026-05-05T09:36:00.726Z</time></trkpt><trkpt lat="36.9076273" lon="10.2840339"><ele>1.0</ele><time>2026-05-05T09:36:01.735Z</time></trkpt><trkpt lat="36.9074804" lon="10.2841721"><ele>1.0</ele><time>2026-05-05T09:36:02.738Z</time></trkpt><trkpt lat="36.9073455" lon="10.2843179"><ele>1.0</ele><time>2026-05-05T09:36:03.732Z</time></trkpt><trkpt lat="36.907217" lon="10.2844604"><ele>1.0</ele><time>2026-05-05T09:36:04.73Z</time></trkpt><trkpt lat="36.9070953" lon="10.2846074"><ele>1.0</ele><time>2026-05-05T09:36:05.742Z</time></trkpt><trkpt lat="36.906972" lon="10.2847621"><ele>1.0</ele><time>2026-05-05T09:36:06.721Z</time></trkpt><trkpt lat="36.906852" lon="10.2849127"><ele>1.0</ele><time>2026-05-05T09:36:07.713Z</time></trkpt><trkpt lat="36.9067347" lon="10.2850699"><ele>1.0</ele><time>2026-05-05T09:36:08.725Z</time></trkpt><trkpt lat="36.9066125" lon="10.2852317"><ele>1.0</ele><time>2026-05-05T09:36:09.729Z</time></trkpt><trkpt lat="36.9064923" lon="10.2853943"><ele>1.0</ele><time>2026-05-05T09:36:10.747Z</time></trkpt><trkpt lat="36.9063693" lon="10.2855554"><ele>1.0</ele><time>2026-05-05T09:36:11.735Z</time></trkpt><trkpt lat="36.9062447" lon="10.285719"><ele>1.0</ele><time>2026-05-05T09:36:12.742Z</time></trkpt><trkpt lat="36.9061259" lon="10.2858809"><ele>1.0</ele><time>2026-05-05T09:36:13.725Z</time></trkpt><trkpt lat="36.9060073" lon="10.2860376"><ele>1.0</ele><time>2026-05-05T09:36:14.686Z</time></trkpt><trkpt lat="36.9058895" lon="10.2861935"><ele>1.0</ele><time>2026-05-05T09:36:15.694Z</time></trkpt><trkpt lat="36.9057668" lon="10.2863503"><ele>1.0</ele><time>2026-05-05T09:36:16.727Z</time></trkpt><trkpt lat="36.9056437" lon="10.2865066"><ele>1.0</ele><time>2026-05-05T09:36:17.683Z</time></trkpt><trkpt lat="36.9055202" lon="10.2866646"><ele>0.6666666666666666</ele><time>2026-05-05T09:36:18.73Z</time></trkpt><trkpt lat="36.9053958" lon="10.2868234"><ele>0.3333333333333333</ele><time>2026-05-05T09:36:19.709Z</time></trkpt><trkpt lat="36.9052698" lon="10.2869813"><ele>0.0</ele><time>2026-05-05T09:36:20.732Z</time></trkpt><trkpt lat="36.9051425" lon="10.2871396"><ele>-0.3333333333333333</ele><time>2026-05-05T09:36:21.737Z</time></trkpt><trkpt lat="36.9050129" lon="10.2872948"><ele>-0.6666666666666666</ele><time>2026-05-05T09:36:22.728Z</time></trkpt><trkpt lat="36.9048785" lon="10.2874491"><ele>-1.0</ele><time>2026-05-05T09:36:23.732Z</time></trkpt><trkpt lat="36.9047456" lon="10.2876037"><ele>-1.0</ele><time>2026-05-05T09:36:24.73Z</time></trkpt><trkpt lat="36.9046093" lon="10.2877566"><ele>-1.0</ele><time>2026-05-05T09:36:25.743Z</time></trkpt><trkpt lat="36.9044694" lon="10.28791"><ele>-1.0</ele><time>2026-05-05T09:36:26.737Z</time></trkpt><trkpt lat="36.9043285" lon="10.2880557"><ele>-0.3333333333333333</ele><time>2026-05-05T09:36:27.712Z</time></trkpt><trkpt lat="36.9041839" lon="10.288209"><ele>0.3333333333333333</ele><time>2026-05-05T09:36:28.733Z</time></trkpt><trkpt lat="36.9040323" lon="10.2883631"><ele>1.0</ele><time>2026-05-05T09:36:29.703Z</time></trkpt><trkpt lat="36.9038838" lon="10.2885148"><ele>1.0</ele><time>2026-05-05T09:36:30.74Z</time></trkpt><trkpt lat="36.9037307" lon="10.2886711"><ele>1.0</ele><time>2026-05-05T09:36:31.75Z</time></trkpt><trkpt lat="36.9035815" lon="10.2888249"><ele>1.0</ele><time>2026-05-05T09:36:32.728Z</time></trkpt><trkpt lat="36.9034285" lon="10.2889786"><ele>0.6666666666666666</ele><time>2026-05-05T09:36:33.732Z</time></trkpt><trkpt lat="36.9032667" lon="10.289125"><ele>0.3333333333333333</ele><time>2026-05-05T09:36:34.71Z</time></trkpt><trkpt lat="36.9031049" lon="10.2892697"><ele>0.0</ele><time>2026-05-05T09:36:35.709Z</time></trkpt><trkpt lat="36.9029423" lon="10.2894121"><ele>0.0</ele><time>2026-05-05T09:36:36.738Z</time></trkpt><trkpt lat="36.9027824" lon="10.2895568"><ele>0.0</ele><time>2026-05-05T09:36:37.743Z</time></trkpt><trkpt lat="36.9026254" lon="10.289702"><ele>0.0</ele><time>2026-05-05T09:36:38.727Z</time></trkpt><trkpt lat="36.9024672" lon="10.2898483"><ele>0.6666666666666666</ele><time>2026-05-05T09:36:39.733Z</time></trkpt><trkpt lat="36.9023137" lon="10.2899946"><ele>1.3333333333333333</ele><time>2026-05-05T09:36:40.722Z</time></trkpt><trkpt lat="36.9021589" lon="10.290139"><ele>2.0</ele><time>2026-05-05T09:36:41.726Z</time></trkpt><trkpt lat="36.9020034" lon="10.2902839"><ele>2.0</ele><time>2026-05-05T09:36:42.74Z</time></trkpt><trkpt lat="36.9018523" lon="10.2904221"><ele>2.0</ele><time>2026-05-05T09:36:43.732Z</time></trkpt><trkpt lat="36.9017007" lon="10.2905599"><ele>2.0</ele><time>2026-05-05T09:36:44.738Z</time></trkpt><trkpt lat="36.9015515" lon="10.2906992"><ele>2.333333333333333</ele><time>2026-05-05T09:36:45.715Z</time></trkpt><trkpt lat="36.9014091" lon="10.2908267"><ele>2.6666666666666665</ele><time>2026-05-05T09:36:46.725Z</time></trkpt><trkpt lat="36.9012636" lon="10.2909474"><ele>3.0</ele><time>2026-05-05T09:36:47.728Z</time></trkpt><trkpt lat="36.9011175" lon="10.2910704"><ele>3.0</ele><time>2026-05-05T09:36:48.755Z</time></trkpt><trkpt lat="36.900975" lon="10.291186"><ele>3.0</ele><time>2026-05-05T09:36:49.721Z</time></trkpt><trkpt lat="36.9008342" lon="10.2912906"><ele>3.0</ele><time>2026-05-05T09:36:50.723Z</time></trkpt><trkpt lat="36.9006974" lon="10.2913848"><ele>3.0</ele><time>2026-05-05T09:36:51.688Z</time></trkpt><trkpt lat="36.9005695" lon="10.2914704"><ele>3.0</ele><time>2026-05-05T09:36:52.715Z</time></trkpt><trkpt lat="36.9004425" lon="10.2915539"><ele>3.0</ele><time>2026-05-05T09:36:53.725Z</time></trkpt><trkpt lat="36.9003303" lon="10.2916367"><ele>3.0</ele><time>2026-05-05T09:36:54.691Z</time></trkpt><trkpt lat="36.9002117" lon="10.29171"><ele>3.0</ele><time>2026-05-05T09:36:55.715Z</time></trkpt><trkpt lat="36.9000932" lon="10.2917814"><ele>3.0</ele><time>2026-05-05T09:36:56.718Z</time></trkpt><trkpt lat="36.8999705" lon="10.2918507"><ele>3.0</ele><time>2026-05-05T09:36:57.718Z</time></trkpt><trkpt lat="36.8998567" lon="10.2919159"><ele>3.0</ele><time>2026-05-05T09:36:58.719Z</time></trkpt><trkpt lat="36.8997517" lon="10.2919713"><ele>3.0</ele><time>2026-05-05T09:36:59.722Z</time></trkpt><trkpt lat="36.8996527" lon="10.2920205"><ele>3.0</ele><time>2026-05-05T09:37:00.727Z</time></trkpt><trkpt lat="36.8995552" lon="10.2920733"><ele>3.0</ele><time>2026-05-05T09:37:01.683Z</time></trkpt><trkpt lat="36.899453" lon="10.2921299"><ele>3.0</ele><time>2026-05-05T09:37:02.729Z</time></trkpt><trkpt lat="36.8993477" lon="10.2921913"><ele>3.0</ele><time>2026-05-05T09:37:03.725Z</time></trkpt><trkpt lat="36.8992352" lon="10.2922412"><ele>3.5</ele><time>2026-05-05T09:37:04.727Z</time></trkpt><trkpt lat="36.8991157" lon="10.2923018"><ele>4.0</ele><time>2026-05-05T09:37:05.728Z</time></trkpt><trkpt lat="36.8989902" lon="10.2923718"><ele>4.5</ele><time>2026-05-05T09:37:06.729Z</time></trkpt><trkpt lat="36.8988612" lon="10.2924452"><ele>5.0</ele><time>2026-05-05T09:37:07.732Z</time></trkpt><trkpt lat="36.8987299" lon="10.2925183"><ele>5.0</ele><time>2026-05-05T09:37:08.713Z</time></trkpt><trkpt lat="36.8986012" lon="10.2925987"><ele>5.0</ele><time>2026-05-05T09:37:09.724Z</time></trkpt><trkpt lat="36.8984777" lon="10.29268"><ele>5.0</ele><time>2026-05-05T09:37:10.733Z</time></trkpt><trkpt lat="36.8983572" lon="10.2927552"><ele>5.0</ele><time>2026-05-05T09:37:11.726Z</time></trkpt><trkpt lat="36.898235" lon="10.2928323"><ele>4.5</ele><time>2026-05-05T09:37:12.702Z</time></trkpt><trkpt lat="36.8981153" lon="10.2929114"><ele>4.0</ele><time>2026-05-05T09:37:13.72Z</time></trkpt><trkpt lat="36.8979897" lon="10.2929916"><ele>3.5</ele><time>2026-05-05T09:37:14.714Z</time></trkpt><trkpt lat="36.8978607" lon="10.2930789"><ele>3.0</ele><time>2026-05-05T09:37:15.725Z</time></trkpt><trkpt lat="36.8977405" lon="10.2931715"><ele>3.5</ele><time>2026-05-05T09:37:16.727Z</time></trkpt><trkpt lat="36.8976113" lon="10.2932633"><ele>4.0</ele><time>2026-05-05T09:37:17.722Z</time></trkpt><trkpt lat="36.8974811" lon="10.2933549"><ele>4.5</ele><time>2026-05-05T09:37:18.731Z</time></trkpt><trkpt lat="36.8973492" lon="10.2934425"><ele>5.0</ele><time>2026-05-05T09:37:19.729Z</time></trkpt><trkpt lat="36.8972145" lon="10.2935424"><ele>5.0</ele><time>2026-05-05T09:37:20.731Z</time></trkpt><trkpt lat="36.8970792" lon="10.2936375"><ele>5.0</ele><time>2026-05-05T09:37:21.728Z</time></trkpt><trkpt lat="36.8969411" lon="10.2937377"><ele>5.0</ele><time>2026-05-05T09:37:22.738Z</time></trkpt><trkpt lat="36.8967983" lon="10.2938367"><ele>5.0</ele><time>2026-05-05T09:37:23.707Z</time></trkpt><trkpt lat="36.8966573" lon="10.2939441"><ele>5.0</ele><time>2026-05-05T09:37:24.718Z</time></trkpt><trkpt lat="36.8965062" lon="10.2940489"><ele>5.0</ele><time>2026-05-05T09:37:25.724Z</time></trkpt><trkpt lat="36.8963537" lon="10.2941495"><ele>5.0</ele><time>2026-05-05T09:37:26.73Z</time></trkpt><trkpt lat="36.8962063" lon="10.2942517"><ele>5.0</ele><time>2026-05-05T09:37:27.726Z</time></trkpt><trkpt lat="36.8960656" lon="10.2943518"><ele>5.0</ele><time>2026-05-05T09:37:28.7Z</time></trkpt><trkpt lat="36.8959244" lon="10.2944521"><ele>4.333333333333334</ele><time>2026-05-05T09:37:29.728Z</time></trkpt><trkpt lat="36.8957798" lon="10.2945475"><ele>3.666666666666667</ele><time>2026-05-05T09:37:30.691Z</time></trkpt><trkpt lat="36.895636" lon="10.294648"><ele>3.0</ele><time>2026-05-05T09:37:31.731Z</time></trkpt><trkpt lat="36.8954946" lon="10.2947471"><ele>3.0</ele><time>2026-05-05T09:37:32.726Z</time></trkpt><trkpt lat="36.8953538" lon="10.294847"><ele>3.0</ele><time>2026-05-05T09:37:33.718Z</time></trkpt><trkpt lat="36.89521" lon="10.2949452"><ele>3.0</ele><time>2026-05-05T09:37:34.711Z</time></trkpt><trkpt lat="36.8950637" lon="10.2950434"><ele>3.0</ele><time>2026-05-05T09:37:35.726Z</time></trkpt><trkpt lat="36.8949214" lon="10.2951432"><ele>3.0</ele><time>2026-05-05T09:37:36.726Z</time></trkpt><trkpt lat="36.8947764" lon="10.2952419"><ele>3.0</ele><time>2026-05-05T09:37:37.725Z</time></trkpt><trkpt lat="36.8946312" lon="10.2953416"><ele>3.0</ele><time>2026-05-05T09:37:38.733Z</time></trkpt><trkpt lat="36.8944843" lon="10.2954352"><ele>3.0</ele><time>2026-05-05T09:37:39.726Z</time></trkpt><trkpt lat="36.8943379" lon="10.2955311"><ele>3.0</ele><time>2026-05-05T09:37:40.736Z</time></trkpt><trkpt lat="36.8941972" lon="10.2956262"><ele>3.0</ele><time>2026-05-05T09:37:41.721Z</time></trkpt><trkpt lat="36.894056" lon="10.2957237"><ele>3.0</ele><time>2026-05-05T09:37:42.722Z</time></trkpt><trkpt lat="36.8939184" lon="10.2958165"><ele>3.0</ele><time>2026-05-05T09:37:43.723Z</time></trkpt><trkpt lat="36.893786" lon="10.2959144"><ele>3.0</ele><time>2026-05-05T09:37:44.703Z</time></trkpt><trkpt lat="36.8936485" lon="10.2960049"><ele>3.0</ele><time>2026-05-05T09:37:45.725Z</time></trkpt><trkpt lat="36.8935123" lon="10.2960973"><ele>3.0</ele><time>2026-05-05T09:37:46.731Z</time></trkpt><trkpt lat="36.8933764" lon="10.2961877"><ele>3.333333333333333</ele><time>2026-05-05T09:37:47.732Z</time></trkpt><trkpt lat="36.8932373" lon="10.2962781"><ele>3.6666666666666665</ele><time>2026-05-05T09:37:48.724Z</time></trkpt><trkpt lat="36.8930959" lon="10.2963728"><ele>4.0</ele><time>2026-05-05T09:37:49.725Z</time></trkpt><trkpt lat="36.8929531" lon="10.29647"><ele>4.0</ele><time>2026-05-05T09:37:50.724Z</time></trkpt><trkpt lat="36.8928059" lon="10.2965701"><ele>4.0</ele><time>2026-05-05T09:37:51.729Z</time></trkpt><trkpt lat="36.8926529" lon="10.2966681"><ele>4.0</ele><time>2026-05-05T09:37:52.729Z</time></trkpt><trkpt lat="36.892502" lon="10.2967753"><ele>3.0</ele><time>2026-05-05T09:37:53.721Z</time></trkpt><trkpt lat="36.892345" lon="10.2968859"><ele>2.0</ele><time>2026-05-05T09:37:54.726Z</time></trkpt><trkpt lat="36.8921815" lon="10.2970068"><ele>1.0</ele><time>2026-05-05T09:37:55.738Z</time></trkpt><trkpt lat="36.8920129" lon="10.2971307"><ele>1.0</ele><time>2026-05-05T09:37:56.734Z</time></trkpt><trkpt lat="36.891845" lon="10.2972417"><ele>1.0</ele><time>2026-05-05T09:37:57.732Z</time></trkpt><trkpt lat="36.8916813" lon="10.2973542"><ele>1.0</ele><time>2026-05-05T09:37:58.722Z</time></trkpt><trkpt lat="36.8915135" lon="10.2974684"><ele>1.6666666666666665</ele><time>2026-05-05T09:37:59.677Z</time></trkpt><trkpt lat="36.8913513" lon="10.2975854"><ele>2.3333333333333335</ele><time>2026-05-05T09:38:00.718Z</time></trkpt><trkpt lat="36.8911934" lon="10.2976931"><ele>3.0</ele><time>2026-05-05T09:38:01.734Z</time></trkpt><trkpt lat="36.8910294" lon="10.2978054"><ele>3.0</ele><time>2026-05-05T09:38:02.727Z</time></trkpt><trkpt lat="36.8908687" lon="10.2979159"><ele>3.0</ele><time>2026-05-05T09:38:03.732Z</time></trkpt><trkpt lat="36.890708" lon="10.2980295"><ele>3.0</ele><time>2026-05-05T09:38:04.736Z</time></trkpt><trkpt lat="36.8905482" lon="10.2981375"><ele>3.0</ele><time>2026-05-05T09:38:05.705Z</time></trkpt><trkpt lat="36.89039" lon="10.2982429"><ele>3.0</ele><time>2026-05-05T09:38:06.734Z</time></trkpt><trkpt lat="36.8902364" lon="10.298348"><ele>3.0</ele><time>2026-05-05T09:38:07.734Z</time></trkpt><trkpt lat="36.8900836" lon="10.2984532"><ele>3.0</ele><time>2026-05-05T09:38:08.698Z</time></trkpt><trkpt lat="36.8899324" lon="10.2985563"><ele>3.0</ele><time>2026-05-05T09:38:09.729Z</time></trkpt><trkpt lat="36.889779" lon="10.2986577"><ele>3.0</ele><time>2026-05-05T09:38:10.744Z</time></trkpt><trkpt lat="36.88963" lon="10.2987557"><ele>3.0</ele><time>2026-05-05T09:38:11.726Z</time></trkpt><trkpt lat="36.8894818" lon="10.2988547"><ele>3.0</ele><time>2026-05-05T09:38:12.729Z</time></trkpt><trkpt lat="36.8893361" lon="10.2989506"><ele>3.0</ele><time>2026-05-05T09:38:13.732Z</time></trkpt><trkpt lat="36.8891958" lon="10.2990461"><ele>3.25</ele><time>2026-05-05T09:38:14.715Z</time></trkpt><trkpt lat="36.8890624" lon="10.2991376"><ele>3.5</ele><time>2026-05-05T09:38:15.729Z</time></trkpt><trkpt lat="36.8889384" lon="10.2992295"><ele>3.75</ele><time>2026-05-05T09:38:16.722Z</time></trkpt><trkpt lat="36.8888123" lon="10.2993124"><ele>4.0</ele><time>2026-05-05T09:38:17.739Z</time></trkpt><trkpt lat="36.8887007" lon="10.2993886"><ele>4.0</ele><time>2026-05-05T09:38:18.72Z</time></trkpt><trkpt lat="36.8885948" lon="10.299462"><ele>4.0</ele><time>2026-05-05T09:38:19.739Z</time></trkpt><trkpt lat="36.8884934" lon="10.2995376"><ele>4.0</ele><time>2026-05-05T09:38:20.723Z</time></trkpt><trkpt lat="36.8883908" lon="10.2996099"><ele>4.0</ele><time>2026-05-05T09:38:21.725Z</time></trkpt><trkpt lat="36.8882855" lon="10.2996815"><ele>4.0</ele><time>2026-05-05T09:38:22.725Z</time></trkpt><trkpt lat="36.8881848" lon="10.2997541"><ele>4.0</ele><time>2026-05-05T09:38:23.703Z</time></trkpt><trkpt lat="36.8880875" lon="10.2998209"><ele>4.0</ele><time>2026-05-05T09:38:24.728Z</time></trkpt><trkpt lat="36.8879891" lon="10.2998821"><ele>4.0</ele><time>2026-05-05T09:38:25.735Z</time></trkpt><trkpt lat="36.8879018" lon="10.2999424"><ele>4.0</ele><time>2026-05-05T09:38:26.721Z</time></trkpt><trkpt lat="36.887818" lon="10.2999986"><ele>3.9999999999999996</ele><time>2026-05-05T09:38:27.735Z</time></trkpt><trkpt lat="36.8877371" lon="10.3000508"><ele>4.0</ele><time>2026-05-05T09:38:28.726Z</time></trkpt><trkpt lat="36.8876675" lon="10.3001062"><ele>4.0</ele><time>2026-05-05T09:38:29.732Z</time></trkpt><trkpt lat="36.887606" lon="10.3001556"><ele>4.0</ele><time>2026-05-05T09:38:30.714Z</time></trkpt><trkpt lat="36.8875479" lon="10.3002003"><ele>3.9999999999999996</ele><time>2026-05-05T09:38:31.728Z</time></trkpt><trkpt lat="36.8874496" lon="10.3002636"><ele>4.0</ele><time>2026-05-05T09:38:33.732Z</time></trkpt><trkpt lat="36.887373" lon="10.300305"><ele>3.6666666666666665</ele><time>2026-05-05T09:38:35.706Z</time></trkpt><trkpt lat="36.8873035" lon="10.3003633"><ele>3.333333333333333</ele><time>2026-05-05T09:38:52.736Z</time></trkpt><trkpt lat="36.8872254" lon="10.3004273"><ele>3.0</ele><time>2026-05-05T09:38:54.741Z</time></trkpt><trkpt lat="36.8871194" lon="10.3004918"><ele>2.6666666666666665</ele><time>2026-05-05T09:38:56.728Z</time></trkpt><trkpt lat="36.8870609" lon="10.3005275"><ele>2.333333333333333</ele><time>2026-05-05T09:38:57.737Z</time></trkpt><trkpt lat="36.8870025" lon="10.3005685"><ele>2.0</ele><time>2026-05-05T09:38:58.724Z</time></trkpt><trkpt lat="36.88694" lon="10.3006067"><ele>1.9999999999999998</ele><time>2026-05-05T09:38:59.688Z</time></trkpt><trkpt lat="36.8868758" lon="10.3006515"><ele>2.0</ele><time>2026-05-05T09:39:00.697Z</time></trkpt><trkpt lat="36.8868098" lon="10.3007042"><ele>2.0</ele><time>2026-05-05T09:39:01.724Z</time></trkpt><trkpt lat="36.8867358" lon="10.3007627"><ele>2.0</ele><time>2026-05-05T09:39:02.731Z</time></trkpt><trkpt lat="36.8866538" lon="10.3008272"><ele>1.9999999999999998</ele><time>2026-05-05T09:39:03.723Z</time></trkpt><trkpt lat="36.8865629" lon="10.3009008"><ele>2.0</ele><time>2026-05-05T09:39:04.726Z</time></trkpt><trkpt lat="36.8864653" lon="10.3009766"><ele>2.0</ele><time>2026-05-05T09:39:05.717Z</time></trkpt><trkpt lat="36.8863663" lon="10.3010418"><ele>2.0</ele><time>2026-05-05T09:39:06.728Z</time></trkpt><trkpt lat="36.8862661" lon="10.3011115"><ele>2.0</ele><time>2026-05-05T09:39:07.725Z</time></trkpt><trkpt lat="36.8861634" lon="10.3011854"><ele>2.0</ele><time>2026-05-05T09:39:08.73Z</time></trkpt><trkpt lat="36.8860532" lon="10.3012615"><ele>2.0</ele><time>2026-05-05T09:39:09.736Z</time></trkpt><trkpt lat="36.8859381" lon="10.3013428"><ele>2.0</ele><time>2026-05-05T09:39:10.711Z</time></trkpt><trkpt lat="36.8858249" lon="10.3014235"><ele>2.0</ele><time>2026-05-05T09:39:11.739Z</time></trkpt><trkpt lat="36.8857128" lon="10.3015007"><ele>2.0</ele><time>2026-05-05T09:39:12.729Z</time></trkpt><trkpt lat="36.8856024" lon="10.3015823"><ele>2.0</ele><time>2026-05-05T09:39:13.72Z</time></trkpt><trkpt lat="36.8854868" lon="10.3016607"><ele>2.0</ele><time>2026-05-05T09:39:14.74Z</time></trkpt><trkpt lat="36.8853741" lon="10.3017383"><ele>2.0</ele><time>2026-05-05T09:39:15.721Z</time></trkpt><trkpt lat="36.8852604" lon="10.3018163"><ele>2.0</ele><time>2026-05-05T09:39:16.728Z</time></trkpt><trkpt lat="36.8851385" lon="10.3018974"><ele>1.75</ele><time>2026-05-05T09:39:17.729Z</time></trkpt><trkpt lat="36.8850158" lon="10.3019805"><ele>1.5</ele><time>2026-05-05T09:39:18.732Z</time></trkpt><trkpt lat="36.8848944" lon="10.3020688"><ele>1.25</ele><time>2026-05-05T09:39:19.734Z</time></trkpt><trkpt lat="36.8847705" lon="10.3021548"><ele>1.0</ele><time>2026-05-05T09:39:20.715Z</time></trkpt><trkpt lat="36.8846447" lon="10.302239"><ele>1.3333333333333333</ele><time>2026-05-05T09:39:21.727Z</time></trkpt><trkpt lat="36.8845126" lon="10.3023267"><ele>1.6666666666666665</ele><time>2026-05-05T09:39:22.719Z</time></trkpt><trkpt lat="36.8843762" lon="10.3024175"><ele>2.0</ele><time>2026-05-05T09:39:23.702Z</time></trkpt><trkpt lat="36.8842408" lon="10.3025072"><ele>2.0</ele><time>2026-05-05T09:39:24.714Z</time></trkpt><trkpt lat="36.8841097" lon="10.3025992"><ele>2.0</ele><time>2026-05-05T09:39:25.728Z</time></trkpt><trkpt lat="36.8839755" lon="10.3026869"><ele>2.0</ele><time>2026-05-05T09:39:26.738Z</time></trkpt><trkpt lat="36.8838403" lon="10.302774"><ele>2.0</ele><time>2026-05-05T09:39:27.705Z</time></trkpt><trkpt lat="36.883707" lon="10.3028645"><ele>2.0</ele><time>2026-05-05T09:39:28.734Z</time></trkpt><trkpt lat="36.8835773" lon="10.3029502"><ele>2.0</ele><time>2026-05-05T09:39:29.729Z</time></trkpt><trkpt lat="36.88345" lon="10.3030343"><ele>2.0</ele><time>2026-05-05T09:39:30.725Z</time></trkpt><trkpt lat="36.8833296" lon="10.303121"><ele>2.25</ele><time>2026-05-05T09:39:31.726Z</time></trkpt><trkpt lat="36.8832112" lon="10.3032002"><ele>2.5</ele><time>2026-05-05T09:39:32.722Z</time></trkpt><trkpt lat="36.8830962" lon="10.3032792"><ele>2.75</ele><time>2026-05-05T09:39:33.734Z</time></trkpt><trkpt lat="36.8829819" lon="10.3033598"><ele>3.0</ele><time>2026-05-05T09:39:34.708Z</time></trkpt><trkpt lat="36.8828698" lon="10.303439"><ele>3.0</ele><time>2026-05-05T09:39:35.729Z</time></trkpt><trkpt lat="36.8827682" lon="10.3035088"><ele>3.0</ele><time>2026-05-05T09:39:36.727Z</time></trkpt><trkpt lat="36.8826827" lon="10.3035693"><ele>3.0</ele><time>2026-05-05T09:39:37.733Z</time></trkpt><trkpt lat="36.8826138" lon="10.3036158"><ele>3.0</ele><time>2026-05-05T09:39:38.733Z</time></trkpt><trkpt lat="36.8825561" lon="10.3036526"><ele>3.0</ele><time>2026-05-05T09:39:39.754Z</time></trkpt><trkpt lat="36.8824669" lon="10.3037161"><ele>3.0</ele><time>2026-05-05T09:39:41.721Z</time></trkpt><trkpt lat="36.8823883" lon="10.3037747"><ele>3.0</ele><time>2026-05-05T09:39:43.72Z</time></trkpt><trkpt lat="36.8823293" lon="10.3038264"><ele>3.0</ele><time>2026-05-05T09:39:45.718Z</time></trkpt><trkpt lat="36.8822505" lon="10.3038699"><ele>3.0</ele><time>2026-05-05T09:39:49.72Z</time></trkpt><trkpt lat="36.8821886" lon="10.3039163"><ele>3.0</ele><time>2026-05-05T09:39:51.674Z</time></trkpt><trkpt lat="36.8820954" lon="10.3039912"><ele>3.0</ele><time>2026-05-05T09:39:53.676Z</time></trkpt><trkpt lat="36.882037" lon="10.304023"><ele>3.0</ele><time>2026-05-05T09:39:54.718Z</time></trkpt><trkpt lat="36.8819396" lon="10.3040922"><ele>3.0</ele><time>2026-05-05T09:39:56.721Z</time></trkpt><trkpt lat="36.8818503" lon="10.304153"><ele>3.0</ele><time>2026-05-05T09:39:58.709Z</time></trkpt><trkpt lat="36.881791" lon="10.3041866"><ele>3.0</ele><time>2026-05-05T09:40:00.726Z</time></trkpt><trkpt lat="36.8817279" lon="10.3042235"><ele>3.0</ele><time>2026-05-05T09:40:33.727Z</time></trkpt><trkpt lat="36.8816709" lon="10.3042584"><ele>3.0</ele><time>2026-05-05T09:40:36.733Z</time></trkpt><trkpt lat="36.881605" lon="10.3043259"><ele>3.0</ele><time>2026-05-05T09:40:38.731Z</time></trkpt><trkpt lat="36.8814887" lon="10.3043874"><ele>3.0</ele><time>2026-05-05T09:40:40.742Z</time></trkpt><trkpt lat="36.8814153" lon="10.304415"><ele>3.0</ele><time>2026-05-05T09:40:41.709Z</time></trkpt><trkpt lat="36.8813406" lon="10.3044476"><ele>3.0</ele><time>2026-05-05T09:40:42.72Z</time></trkpt><trkpt lat="36.8812654" lon="10.3044904"><ele>3.0</ele><time>2026-05-05T09:40:43.723Z</time></trkpt><trkpt lat="36.8811932" lon="10.3045371"><ele>3.0</ele><time>2026-05-05T09:40:44.721Z</time></trkpt><trkpt lat="36.8811171" lon="10.3045864"><ele>3.0</ele><time>2026-05-05T09:40:45.744Z</time></trkpt><trkpt lat="36.8810393" lon="10.3046414"><ele>3.0</ele><time>2026-05-05T09:40:46.739Z</time></trkpt><trkpt lat="36.8809565" lon="10.3046975"><ele>3.0</ele><time>2026-05-05T09:40:47.735Z</time></trkpt><trkpt lat="36.8808784" lon="10.3047527"><ele>3.0</ele><time>2026-05-05T09:40:48.719Z</time></trkpt><trkpt lat="36.8807952" lon="10.3048139"><ele>3.0</ele><time>2026-05-05T09:40:49.735Z</time></trkpt><trkpt lat="36.88071" lon="10.3048734"><ele>3.0</ele><time>2026-05-05T09:40:50.726Z</time></trkpt><trkpt lat="36.8806231" lon="10.3049389"><ele>3.0</ele><time>2026-05-05T09:40:51.73Z</time></trkpt><trkpt lat="36.8805322" lon="10.3049994"><ele>3.0</ele><time>2026-05-05T09:40:52.74Z</time></trkpt><trkpt lat="36.8804351" lon="10.305069"><ele>3.0</ele><time>2026-05-05T09:40:53.737Z</time></trkpt><trkpt lat="36.8803402" lon="10.3051324"><ele>3.0</ele><time>2026-05-05T09:40:54.691Z</time></trkpt><trkpt lat="36.8802421" lon="10.3051987"><ele>3.0</ele><time>2026-05-05T09:40:55.723Z</time></trkpt><trkpt lat="36.880146" lon="10.3052669"><ele>3.0</ele><time>2026-05-05T09:40:56.69Z</time></trkpt><trkpt lat="36.8800334" lon="10.3053355"><ele>3.0</ele><time>2026-05-05T09:40:57.684Z</time></trkpt><trkpt lat="36.879921" lon="10.3054105"><ele>3.0</ele><time>2026-05-05T09:40:58.703Z</time></trkpt><trkpt lat="36.8798039" lon="10.3054917"><ele>3.0</ele><time>2026-05-05T09:40:59.744Z</time></trkpt><trkpt lat="36.8796879" lon="10.3055679"><ele>3.0</ele><time>2026-05-05T09:41:00.743Z</time></trkpt><trkpt lat="36.8795778" lon="10.3056439"><ele>3.0</ele><time>2026-05-05T09:41:01.726Z</time></trkpt><trkpt lat="36.8794695" lon="10.3057222"><ele>3.0</ele><time>2026-05-05T09:41:02.707Z</time></trkpt><trkpt lat="36.8793548" lon="10.3058044"><ele>3.0</ele><time>2026-05-05T09:41:03.697Z</time></trkpt><trkpt lat="36.8792406" lon="10.3058841"><ele>3.0</ele><time>2026-05-05T09:41:04.718Z</time></trkpt><trkpt lat="36.8791206" lon="10.3059654"><ele>3.0</ele><time>2026-05-05T09:41:05.709Z</time></trkpt><trkpt lat="36.8789989" lon="10.3060379"><ele>3.0</ele><time>2026-05-05T09:41:06.737Z</time></trkpt><trkpt lat="36.8788785" lon="10.3061174"><ele>3.0</ele><time>2026-05-05T09:41:07.738Z</time></trkpt><trkpt lat="36.8787613" lon="10.3061965"><ele>3.0</ele><time>2026-05-05T09:41:08.729Z</time></trkpt><trkpt lat="36.8786402" lon="10.3062715"><ele>3.0</ele><time>2026-05-05T09:41:09.725Z</time></trkpt><trkpt lat="36.8785242" lon="10.3063532"><ele>3.0</ele><time>2026-05-05T09:41:10.73Z</time></trkpt><trkpt lat="36.8784077" lon="10.3064337"><ele>3.25</ele><time>2026-05-05T09:41:11.704Z</time></trkpt><trkpt lat="36.8782889" lon="10.3065118"><ele>3.5</ele><time>2026-05-05T09:41:12.73Z</time></trkpt><trkpt lat="36.8781698" lon="10.3065917"><ele>3.75</ele><time>2026-05-05T09:41:13.737Z</time></trkpt><trkpt lat="36.8780557" lon="10.3066729"><ele>4.0</ele><time>2026-05-05T09:41:14.743Z</time></trkpt><trkpt lat="36.8779412" lon="10.3067548"><ele>4.0</ele><time>2026-05-05T09:41:15.725Z</time></trkpt><trkpt lat="36.8778274" lon="10.3068434"><ele>4.0</ele><time>2026-05-05T09:41:16.71Z</time></trkpt><trkpt lat="36.8777126" lon="10.3069269"><ele>4.0</ele><time>2026-05-05T09:41:17.726Z</time></trkpt><trkpt lat="36.8775921" lon="10.3070085"><ele>4.0</ele><time>2026-05-05T09:41:18.744Z</time></trkpt><trkpt lat="36.8774711" lon="10.307089"><ele>4.0</ele><time>2026-05-05T09:41:19.719Z</time></trkpt><trkpt lat="36.8773532" lon="10.3071702"><ele>4.0</ele><time>2026-05-05T09:41:20.723Z</time></trkpt><trkpt lat="36.87724" lon="10.307249"><ele>4.0</ele><time>2026-05-05T09:41:21.722Z</time></trkpt><trkpt lat="36.8771341" lon="10.3073224"><ele>4.0</ele><time>2026-05-05T09:41:22.742Z</time></trkpt><trkpt lat="36.8770305" lon="10.3073856"><ele>4.0</ele><time>2026-05-05T09:41:23.717Z</time></trkpt><trkpt lat="36.8769387" lon="10.3074453"><ele>4.0</ele><time>2026-05-05T09:41:24.711Z</time></trkpt><trkpt lat="36.8768554" lon="10.3074993"><ele>4.0</ele><time>2026-05-05T09:41:25.739Z</time></trkpt><trkpt lat="36.8767826" lon="10.3075565"><ele>4.0</ele><time>2026-05-05T09:41:26.712Z</time></trkpt><trkpt lat="36.876722" lon="10.307595"><ele>4.0</ele><time>2026-05-05T09:41:27.735Z</time></trkpt><trkpt lat="36.8766278" lon="10.307661"><ele>4.2</ele><time>2026-05-05T09:41:29.72Z</time></trkpt><trkpt lat="36.8765466" lon="10.3076995"><ele>4.4</ele><time>2026-05-05T09:41:31.731Z</time></trkpt><trkpt lat="36.8764761" lon="10.3077555"><ele>4.6</ele><time>2026-05-05T09:41:41.711Z</time></trkpt><trkpt lat="36.8764067" lon="10.3077972"><ele>4.8</ele><time>2026-05-05T09:41:43.729Z</time></trkpt><trkpt lat="36.8763159" lon="10.3078555"><ele>5.0</ele><time>2026-05-05T09:41:45.744Z</time></trkpt><trkpt lat="36.8762194" lon="10.3079345"><ele>5.0</ele><time>2026-05-05T09:41:47.732Z</time></trkpt><trkpt lat="36.8761181" lon="10.3080118"><ele>5.0</ele><time>2026-05-05T09:41:49.742Z</time></trkpt><trkpt lat="36.8760578" lon="10.3080452"><ele>5.0</ele><time>2026-05-05T09:41:50.728Z</time></trkpt><trkpt lat="36.8759486" lon="10.3081194"><ele>5.0</ele><time>2026-05-05T09:41:52.732Z</time></trkpt><trkpt lat="36.8758908" lon="10.308156"><ele>5.0</ele><time>2026-05-05T09:41:53.744Z</time></trkpt><trkpt lat="36.8758342" lon="10.3081948"><ele>5.0</ele><time>2026-05-05T09:41:54.724Z</time></trkpt><trkpt lat="36.8757765" lon="10.3082363"><ele>5.166666666666667</ele><time>2026-05-05T09:41:55.742Z</time></trkpt><trkpt lat="36.8757217" lon="10.308278"><ele>5.333333333333334</ele><time>2026-05-05T09:41:56.734Z</time></trkpt><trkpt lat="36.8756092" lon="10.3083576"><ele>5.5</ele><time>2026-05-05T09:41:58.712Z</time></trkpt><trkpt lat="36.8755437" lon="10.3084035"><ele>5.666666666666667</ele><time>2026-05-05T09:41:59.74Z</time></trkpt><trkpt lat="36.8754783" lon="10.3084508"><ele>5.833333333333333</ele><time>2026-05-05T09:42:00.738Z</time></trkpt><trkpt lat="36.8754107" lon="10.3084936"><ele>6.0</ele><time>2026-05-05T09:42:01.71Z</time></trkpt><trkpt lat="36.8753407" lon="10.3085346"><ele>6.0</ele><time>2026-05-05T09:42:02.722Z</time></trkpt><trkpt lat="36.8752693" lon="10.3085813"><ele>6.0</ele><time>2026-05-05T09:42:03.721Z</time></trkpt><trkpt lat="36.8751954" lon="10.3086305"><ele>6.0</ele><time>2026-05-05T09:42:04.721Z</time></trkpt><trkpt lat="36.8751173" lon="10.3086778"><ele>6.0</ele><time>2026-05-05T09:42:05.724Z</time></trkpt><trkpt lat="36.8750391" lon="10.3087386"><ele>6.0</ele><time>2026-05-05T09:42:06.729Z</time></trkpt><trkpt lat="36.8749581" lon="10.3087994"><ele>6.0</ele><time>2026-05-05T09:42:07.728Z</time></trkpt><trkpt lat="36.8748728" lon="10.3088613"><ele>5.8</ele><time>2026-05-05T09:42:08.728Z</time></trkpt><trkpt lat="36.8747898" lon="10.3089209"><ele>5.6</ele><time>2026-05-05T09:42:09.723Z</time></trkpt><trkpt lat="36.8747101" lon="10.3089802"><ele>5.4</ele><time>2026-05-05T09:42:10.741Z</time></trkpt><trkpt lat="36.87463" lon="10.3090389"><ele>5.2</ele><time>2026-05-05T09:42:11.728Z</time></trkpt><trkpt lat="36.8745442" lon="10.3091"><ele>5.0</ele><time>2026-05-05T09:42:12.73Z</time></trkpt><trkpt lat="36.8744564" lon="10.3091682"><ele>5.0</ele><time>2026-05-05T09:42:13.731Z</time></trkpt><trkpt lat="36.8743725" lon="10.3092385"><ele>5.0</ele><time>2026-05-05T09:42:14.733Z</time></trkpt><trkpt lat="36.8742824" lon="10.3093024"><ele>5.0</ele><time>2026-05-05T09:42:15.692Z</time></trkpt><trkpt lat="36.8741882" lon="10.3093651"><ele>5.0</ele><time>2026-05-05T09:42:16.716Z</time></trkpt><trkpt lat="36.8740911" lon="10.3094284"><ele>5.0</ele><time>2026-05-05T09:42:17.719Z</time></trkpt><trkpt lat="36.8740069" lon="10.3094841"><ele>4.6</ele><time>2026-05-05T09:42:18.704Z</time></trkpt><trkpt lat="36.873923" lon="10.3095394"><ele>4.2</ele><time>2026-05-05T09:42:19.724Z</time></trkpt><trkpt lat="36.8738361" lon="10.3096104"><ele>3.8</ele><time>2026-05-05T09:42:20.7Z</time></trkpt><trkpt lat="36.8737393" lon="10.3096847"><ele>3.4</ele><time>2026-05-05T09:42:21.724Z</time></trkpt><trkpt lat="36.873639" lon="10.309765"><ele>3.0</ele><time>2026-05-05T09:42:22.732Z</time></trkpt><trkpt lat="36.8735334" lon="10.3098453"><ele>3.0</ele><time>2026-05-05T09:42:23.709Z</time></trkpt><trkpt lat="36.8734316" lon="10.3099253"><ele>3.0</ele><time>2026-05-05T09:42:24.736Z</time></trkpt><trkpt lat="36.8733178" lon="10.3099967"><ele>3.0</ele><time>2026-05-05T09:42:25.727Z</time></trkpt><trkpt lat="36.8731931" lon="10.3100853"><ele>3.0</ele><time>2026-05-05T09:42:26.73Z</time></trkpt><trkpt lat="36.8730542" lon="10.3101794"><ele>3.0</ele><time>2026-05-05T09:42:27.717Z</time></trkpt><trkpt lat="36.8729097" lon="10.3102785"><ele>3.0</ele><time>2026-05-05T09:42:28.716Z</time></trkpt><trkpt lat="36.8727542" lon="10.3103938"><ele>3.0</ele><time>2026-05-05T09:42:29.715Z</time></trkpt><trkpt lat="36.8725956" lon="10.3105161"><ele>4.0</ele><time>2026-05-05T09:42:30.717Z</time></trkpt><trkpt lat="36.8724278" lon="10.310645"><ele>5.0</ele><time>2026-05-05T09:42:31.713Z</time></trkpt><trkpt lat="36.872257" lon="10.3107695"><ele>6.0</ele><time>2026-05-05T09:42:32.722Z</time></trkpt><trkpt lat="36.8720904" lon="10.3108968"><ele>6.0</ele><time>2026-05-05T09:42:33.727Z</time></trkpt><trkpt lat="36.8719106" lon="10.3110225"><ele>6.0</ele><time>2026-05-05T09:42:34.714Z</time></trkpt><trkpt lat="36.8717301" lon="10.3111463"><ele>6.0</ele><time>2026-05-05T09:42:35.739Z</time></trkpt><trkpt lat="36.8715552" lon="10.3112702"><ele>6.333333333333334</ele><time>2026-05-05T09:42:36.723Z</time></trkpt><trkpt lat="36.8713856" lon="10.3114006"><ele>6.666666666666667</ele><time>2026-05-05T09:42:37.723Z</time></trkpt><trkpt lat="36.8712205" lon="10.3115366"><ele>7.0</ele><time>2026-05-05T09:42:38.742Z</time></trkpt><trkpt lat="36.871064" lon="10.3116746"><ele>6.333333333333334</ele><time>2026-05-05T09:42:39.728Z</time></trkpt><trkpt lat="36.8709139" lon="10.3117985"><ele>5.666666666666667</ele><time>2026-05-05T09:42:40.734Z</time></trkpt><trkpt lat="36.8707718" lon="10.3119147"><ele>5.0</ele><time>2026-05-05T09:42:41.729Z</time></trkpt><trkpt lat="36.8706274" lon="10.3120256"><ele>5.0</ele><time>2026-05-05T09:42:42.736Z</time></trkpt><trkpt lat="36.8704842" lon="10.3121302"><ele>5.0</ele><time>2026-05-05T09:42:43.728Z</time></trkpt><trkpt lat="36.8703422" lon="10.3122448"><ele>5.0</ele><time>2026-05-05T09:42:44.727Z</time></trkpt><trkpt lat="36.8702022" lon="10.3123569"><ele>6.0</ele><time>2026-05-05T09:42:45.729Z</time></trkpt><trkpt lat="36.8700528" lon="10.3124744"><ele>7.0</ele><time>2026-05-05T09:42:46.713Z</time></trkpt><trkpt lat="36.8698961" lon="10.3125838"><ele>8.0</ele><time>2026-05-05T09:42:47.725Z</time></trkpt><trkpt lat="36.8697375" lon="10.3126941"><ele>8.0</ele><time>2026-05-05T09:42:48.734Z</time></trkpt><trkpt lat="36.8695749" lon="10.3127996"><ele>8.0</ele><time>2026-05-05T09:42:49.719Z</time></trkpt><trkpt lat="36.8694146" lon="10.3129076"><ele>8.0</ele><time>2026-05-05T09:42:50.74Z</time></trkpt><trkpt lat="36.8692557" lon="10.3130167"><ele>7.333333333333333</ele><time>2026-05-05T09:42:51.73Z</time></trkpt><trkpt lat="36.8690909" lon="10.3131309"><ele>6.666666666666666</ele><time>2026-05-05T09:42:52.726Z</time></trkpt><trkpt lat="36.868929" lon="10.3132359"><ele>6.0</ele><time>2026-05-05T09:42:53.74Z</time></trkpt><trkpt lat="36.8687659" lon="10.3133445"><ele>6.0</ele><time>2026-05-05T09:42:54.732Z</time></trkpt><trkpt lat="36.868603" lon="10.3134529"><ele>6.0</ele><time>2026-05-05T09:42:55.729Z</time></trkpt><trkpt lat="36.8684501" lon="10.3135594"><ele>6.0</ele><time>2026-05-05T09:42:56.726Z</time></trkpt><trkpt lat="36.8682968" lon="10.3136599"><ele>6.0</ele><time>2026-05-05T09:42:57.732Z</time></trkpt><trkpt lat="36.8681451" lon="10.3137631"><ele>6.0</ele><time>2026-05-05T09:42:58.724Z</time></trkpt><trkpt lat="36.8679935" lon="10.3138587"><ele>6.0</ele><time>2026-05-05T09:42:59.728Z</time></trkpt><trkpt lat="36.8678384" lon="10.3139541"><ele>6.0</ele><time>2026-05-05T09:43:00.733Z</time></trkpt><trkpt lat="36.8676922" lon="10.3140522"><ele>6.0</ele><time>2026-05-05T09:43:01.724Z</time></trkpt><trkpt lat="36.8675482" lon="10.3141447"><ele>6.0</ele><time>2026-05-05T09:43:02.705Z</time></trkpt><trkpt lat="36.8673994" lon="10.3142297"><ele>6.333333333333334</ele><time>2026-05-05T09:43:03.73Z</time></trkpt><trkpt lat="36.8672528" lon="10.3143125"><ele>6.666666666666667</ele><time>2026-05-05T09:43:04.724Z</time></trkpt><trkpt lat="36.8671109" lon="10.3144001"><ele>7.0</ele><time>2026-05-05T09:43:05.728Z</time></trkpt><trkpt lat="36.8669744" lon="10.3144907"><ele>7.0</ele><time>2026-05-05T09:43:06.731Z</time></trkpt><trkpt lat="36.8668335" lon="10.3145801"><ele>7.0</ele><time>2026-05-05T09:43:07.724Z</time></trkpt><trkpt lat="36.8666964" lon="10.3146709"><ele>7.0</ele><time>2026-05-05T09:43:08.723Z</time></trkpt><trkpt lat="36.8665576" lon="10.3147578"><ele>7.333333333333334</ele><time>2026-05-05T09:43:09.734Z</time></trkpt><trkpt lat="36.8664189" lon="10.3148412"><ele>7.666666666666666</ele><time>2026-05-05T09:43:10.744Z</time></trkpt><trkpt lat="36.8662722" lon="10.3149288"><ele>8.0</ele><time>2026-05-05T09:43:11.723Z</time></trkpt><trkpt lat="36.86613" lon="10.3150166"><ele>8.0</ele><time>2026-05-05T09:43:12.727Z</time></trkpt><trkpt lat="36.8659847" lon="10.3151048"><ele>8.0</ele><time>2026-05-05T09:43:13.725Z</time></trkpt><trkpt lat="36.865836" lon="10.3151906"><ele>8.0</ele><time>2026-05-05T09:43:14.723Z</time></trkpt><trkpt lat="36.8656945" lon="10.3152756"><ele>7.75</ele><time>2026-05-05T09:43:15.736Z</time></trkpt><trkpt lat="36.8655512" lon="10.315359"><ele>7.5</ele><time>2026-05-05T09:43:16.728Z</time></trkpt><trkpt lat="36.8654209" lon="10.3154356"><ele>7.25</ele><time>2026-05-05T09:43:17.706Z</time></trkpt><trkpt lat="36.8652877" lon="10.3155004"><ele>7.0</ele><time>2026-05-05T09:43:18.73Z</time></trkpt><trkpt lat="36.8651656" lon="10.3155606"><ele>7.199999999999999</ele><time>2026-05-05T09:43:19.728Z</time></trkpt><trkpt lat="36.865051" lon="10.3156039"><ele>7.3999999999999995</ele><time>2026-05-05T09:43:20.729Z</time></trkpt><trkpt lat="36.8649553" lon="10.3156386"><ele>7.6000000000000005</ele><time>2026-05-05T09:43:21.737Z</time></trkpt><trkpt lat="36.864872" lon="10.3156694"><ele>7.800000000000001</ele><time>2026-05-05T09:43:22.737Z</time></trkpt><trkpt lat="36.8647971" lon="10.3156927"><ele>8.0</ele><time>2026-05-05T09:43:23.73Z</time></trkpt><trkpt lat="36.8647228" lon="10.3157176"><ele>7.999999999999999</ele><time>2026-05-05T09:43:25.742Z</time></trkpt><trkpt lat="36.8646342" lon="10.3157237"><ele>8.0</ele><time>2026-05-05T09:43:57.735Z</time></trkpt><trkpt lat="36.8645629" lon="10.315744"><ele>8.0</ele><time>2026-05-05T09:43:58.734Z</time></trkpt><trkpt lat="36.8644773" lon="10.3157547"><ele>8.0</ele><time>2026-05-05T09:43:59.744Z</time></trkpt><trkpt lat="36.8643866" lon="10.3157661"><ele>7.999999999999999</ele><time>2026-05-05T09:44:00.723Z</time></trkpt><trkpt lat="36.8642961" lon="10.3157793"><ele>8.0</ele><time>2026-05-05T09:44:01.728Z</time></trkpt><trkpt lat="36.8641923" lon="10.3157915"><ele>8.25</ele><time>2026-05-05T09:44:02.727Z</time></trkpt><trkpt lat="36.8640793" lon="10.3158021"><ele>8.5</ele><time>2026-05-05T09:44:03.722Z</time></trkpt><trkpt lat="36.8639634" lon="10.3158174"><ele>8.75</ele><time>2026-05-05T09:44:04.725Z</time></trkpt><trkpt lat="36.8638466" lon="10.3158262"><ele>9.0</ele><time>2026-05-05T09:44:05.73Z</time></trkpt><trkpt lat="36.8637338" lon="10.3158324"><ele>9.0</ele><time>2026-05-05T09:44:06.724Z</time></trkpt><trkpt lat="36.8636314" lon="10.3158407"><ele>9.0</ele><time>2026-05-05T09:44:07.727Z</time></trkpt><trkpt lat="36.8635343" lon="10.3158467"><ele>9.0</ele><time>2026-05-05T09:44:08.728Z</time></trkpt><trkpt lat="36.8634371" lon="10.3158421"><ele>9.0</ele><time>2026-05-05T09:44:09.702Z</time></trkpt><trkpt lat="36.8633299" lon="10.3158402"><ele>9.0</ele><time>2026-05-05T09:44:10.72Z</time></trkpt><trkpt lat="36.8632238" lon="10.315832"><ele>8.75</ele><time>2026-05-05T09:44:11.724Z</time></trkpt><trkpt lat="36.8631119" lon="10.3158191"><ele>8.5</ele><time>2026-05-05T09:44:12.722Z</time></trkpt><trkpt lat="36.8629918" lon="10.3158038"><ele>8.25</ele><time>2026-05-05T09:44:13.727Z</time></trkpt><trkpt lat="36.8628651" lon="10.3157742"><ele>8.0</ele><time>2026-05-05T09:44:14.729Z</time></trkpt><trkpt lat="36.8627368" lon="10.3157445"><ele>8.5</ele><time>2026-05-05T09:44:15.728Z</time></trkpt><trkpt lat="36.8626047" lon="10.315716"><ele>9.0</ele><time>2026-05-05T09:44:16.729Z</time></trkpt><trkpt lat="36.8624796" lon="10.3156889"><ele>9.5</ele><time>2026-05-05T09:44:17.736Z</time></trkpt><trkpt lat="36.8623526" lon="10.3156558"><ele>10.0</ele><time>2026-05-05T09:44:18.734Z</time></trkpt><trkpt lat="36.8622301" lon="10.3156099"><ele>9.5</ele><time>2026-05-05T09:44:19.715Z</time></trkpt><trkpt lat="36.8621053" lon="10.3155617"><ele>9.0</ele><time>2026-05-05T09:44:20.718Z</time></trkpt><trkpt lat="36.8619713" lon="10.315504"><ele>8.5</ele><time>2026-05-05T09:44:21.683Z</time></trkpt><trkpt lat="36.8618357" lon="10.3154442"><ele>8.0</ele><time>2026-05-05T09:44:22.724Z</time></trkpt><trkpt lat="36.8617013" lon="10.3153759"><ele>7.666666666666666</ele><time>2026-05-05T09:44:23.692Z</time></trkpt><trkpt lat="36.861569" lon="10.3153076"><ele>7.333333333333334</ele><time>2026-05-05T09:44:24.718Z</time></trkpt><trkpt lat="36.861432" lon="10.3152328"><ele>7.0</ele><time>2026-05-05T09:44:25.739Z</time></trkpt><trkpt lat="36.8612825" lon="10.3151499"><ele>7.0</ele><time>2026-05-05T09:44:26.718Z</time></trkpt><trkpt lat="36.8611359" lon="10.3150616"><ele>7.0</ele><time>2026-05-05T09:44:27.721Z</time></trkpt><trkpt lat="36.8609936" lon="10.314959"><ele>7.0</ele><time>2026-05-05T09:44:28.72Z</time></trkpt><trkpt lat="36.8608442" lon="10.3148468"><ele>7.0</ele><time>2026-05-05T09:44:29.719Z</time></trkpt><trkpt lat="36.8607007" lon="10.3147343"><ele>7.0</ele><time>2026-05-05T09:44:30.72Z</time></trkpt><trkpt lat="36.8605621" lon="10.3146172"><ele>7.0</ele><time>2026-05-05T09:44:31.732Z</time></trkpt><trkpt lat="36.8604271" lon="10.3144907"><ele>7.0</ele><time>2026-05-05T09:44:32.73Z</time></trkpt><trkpt lat="36.8603013" lon="10.3143685"><ele>7.0</ele><time>2026-05-05T09:44:33.73Z</time></trkpt><trkpt lat="36.8601774" lon="10.3142471"><ele>7.0</ele><time>2026-05-05T09:44:34.698Z</time></trkpt><trkpt lat="36.8600601" lon="10.3141325"><ele>7.0</ele><time>2026-05-05T09:44:35.718Z</time></trkpt><trkpt lat="36.8599564" lon="10.31403"><ele>7.0</ele><time>2026-05-05T09:44:36.728Z</time></trkpt><trkpt lat="36.8598564" lon="10.3139303"><ele>7.0</ele><time>2026-05-05T09:44:37.712Z</time></trkpt><trkpt lat="36.8597625" lon="10.313834"><ele>7.0</ele><time>2026-05-05T09:44:38.726Z</time></trkpt><trkpt lat="36.8596717" lon="10.3137414"><ele>7.0</ele><time>2026-05-05T09:44:39.728Z</time></trkpt><trkpt lat="36.8595844" lon="10.3136496"><ele>6.999999999999999</ele><time>2026-05-05T09:44:40.736Z</time></trkpt><trkpt lat="36.8595061" lon="10.3135728"><ele>6.999999999999999</ele><time>2026-05-05T09:44:41.729Z</time></trkpt><trkpt lat="36.8594452" lon="10.3135111"><ele>7.0</ele><time>2026-05-05T09:44:42.728Z</time></trkpt><trkpt lat="36.8593928" lon="10.3134597"><ele>7.0</ele><time>2026-05-05T09:44:43.725Z</time></trkpt><trkpt lat="36.8593189" lon="10.3133862"><ele>7.500000000000001</ele><time>2026-05-05T09:44:45.726Z</time></trkpt><trkpt lat="36.8592698" lon="10.3133348"><ele>8.0</ele><time>2026-05-05T09:44:47.711Z</time></trkpt><trkpt lat="36.8592135" lon="10.3132752"><ele>8.5</ele><time>2026-05-05T09:45:01.717Z</time></trkpt><trkpt lat="36.8591477" lon="10.3132034"><ele>9.0</ele><time>2026-05-05T09:45:04.725Z</time></trkpt><trkpt lat="36.8590999" lon="10.313128"><ele>9.5</ele><time>2026-05-05T09:45:06.743Z</time></trkpt><trkpt lat="36.8590592" lon="10.3130403"><ele>10.0</ele><time>2026-05-05T09:45:09.726Z</time></trkpt><trkpt lat="36.8590238" lon="10.3129662"><ele>10.0</ele><time>2026-05-05T09:45:11.733Z</time></trkpt><trkpt lat="36.8589846" lon="10.3128543"><ele>10.0</ele><time>2026-05-05T09:45:14.728Z</time></trkpt><trkpt lat="36.8589468" lon="10.3127632"><ele>10.0</ele><time>2026-05-05T09:45:16.723Z</time></trkpt><trkpt lat="36.8589016" lon="10.3126907"><ele>10.0</ele><time>2026-05-05T09:45:18.708Z</time></trkpt><trkpt lat="36.8588426" lon="10.3126493"><ele>10.0</ele><time>2026-05-05T09:45:20.715Z</time></trkpt><trkpt lat="36.8587629" lon="10.3126234"><ele>10.0</ele><time>2026-05-05T09:45:22.728Z</time></trkpt><trkpt lat="36.8586525" lon="10.3126432"><ele>10.0</ele><time>2026-05-05T09:45:24.689Z</time></trkpt><trkpt lat="36.8585665" lon="10.3127379"><ele>10.0</ele><time>2026-05-05T09:45:26.676Z</time></trkpt><trkpt lat="36.858507" lon="10.3128677"><ele>10.0</ele><time>2026-05-05T09:45:28.708Z</time></trkpt><trkpt lat="36.8585054" lon="10.3129946"><ele>10.0</ele><time>2026-05-05T09:45:30.704Z</time></trkpt><trkpt lat="36.8585377" lon="10.3130891"><ele>10.0</ele><time>2026-05-05T09:45:32.714Z</time></trkpt><trkpt lat="36.858527" lon="10.3132252"><ele>10.2</ele><time>2026-05-05T09:45:35.675Z</time></trkpt><trkpt lat="36.858491" lon="10.3133077"><ele>10.4</ele><time>2026-05-05T09:45:36.72Z</time></trkpt><trkpt lat="36.8584355" lon="10.3134031"><ele>10.600000000000001</ele><time>2026-05-05T09:45:37.722Z</time></trkpt><trkpt lat="36.8583702" lon="10.3135289"><ele>10.8</ele><time>2026-05-05T09:45:38.729Z</time></trkpt><trkpt lat="36.8582961" lon="10.3136644"><ele>11.0</ele><time>2026-05-05T09:45:39.726Z</time></trkpt><trkpt lat="36.8582281" lon="10.3138063"><ele>11.0</ele><time>2026-05-05T09:45:40.733Z</time></trkpt><trkpt lat="36.8581565" lon="10.313952"><ele>11.0</ele><time>2026-05-05T09:45:41.74Z</time></trkpt><trkpt lat="36.8580856" lon="10.3140947"><ele>11.0</ele><time>2026-05-05T09:45:42.722Z</time></trkpt><trkpt lat="36.8580114" lon="10.3142395"><ele>11.0</ele><time>2026-05-05T09:45:43.736Z</time></trkpt><trkpt lat="36.8579361" lon="10.3143887"><ele>11.0</ele><time>2026-05-05T09:45:44.71Z</time></trkpt><trkpt lat="36.8578641" lon="10.3145365"><ele>11.0</ele><time>2026-05-05T09:45:45.705Z</time></trkpt><trkpt lat="36.8577904" lon="10.3146755"><ele>11.0</ele><time>2026-05-05T09:45:46.715Z</time></trkpt><trkpt lat="36.8577255" lon="10.3148031"><ele>11.0</ele><time>2026-05-05T09:45:47.722Z</time></trkpt><trkpt lat="36.857656" lon="10.3149254"><ele>11.5</ele><time>2026-05-05T09:45:48.728Z</time></trkpt><trkpt lat="36.8575858" lon="10.3150568"><ele>12.0</ele><time>2026-05-05T09:45:49.732Z</time></trkpt><trkpt lat="36.8575171" lon="10.3151763"><ele>12.5</ele><time>2026-05-05T09:45:50.737Z</time></trkpt><trkpt lat="36.8574469" lon="10.3152942"><ele>13.0</ele><time>2026-05-05T09:45:51.71Z</time></trkpt><trkpt lat="36.8573815" lon="10.3154098"><ele>13.0</ele><time>2026-05-05T09:45:52.696Z</time></trkpt><trkpt lat="36.8573211" lon="10.3155271"><ele>13.0</ele><time>2026-05-05T09:45:53.703Z</time></trkpt><trkpt lat="36.857255" lon="10.3156473"><ele>13.0</ele><time>2026-05-05T09:45:54.73Z</time></trkpt><trkpt lat="36.8571928" lon="10.3157731"><ele>13.0</ele><time>2026-05-05T09:45:55.703Z</time></trkpt><trkpt lat="36.8571322" lon="10.3158946"><ele>13.25</ele><time>2026-05-05T09:45:56.728Z</time></trkpt><trkpt lat="36.8570664" lon="10.3160139"><ele>13.5</ele><time>2026-05-05T09:45:57.725Z</time></trkpt><trkpt lat="36.856996" lon="10.3161346"><ele>13.75</ele><time>2026-05-05T09:45:58.725Z</time></trkpt><trkpt lat="36.8569203" lon="10.3162644"><ele>14.0</ele><time>2026-05-05T09:45:59.71Z</time></trkpt><trkpt lat="36.8568571" lon="10.3164014"><ele>14.5</ele><time>2026-05-05T09:46:00.705Z</time></trkpt><trkpt lat="36.8567926" lon="10.3165347"><ele>15.0</ele><time>2026-05-05T09:46:01.727Z</time></trkpt><trkpt lat="36.8567406" lon="10.3166532"><ele>15.5</ele><time>2026-05-05T09:46:02.686Z</time></trkpt><trkpt lat="36.8566883" lon="10.3167842"><ele>16.0</ele><time>2026-05-05T09:46:03.71Z</time></trkpt><trkpt lat="36.856636" lon="10.3169194"><ele>16.0</ele><time>2026-05-05T09:46:04.728Z</time></trkpt><trkpt lat="36.8565873" lon="10.3170563"><ele>16.0</ele><time>2026-05-05T09:46:05.726Z</time></trkpt><trkpt lat="36.8565447" lon="10.3171897"><ele>16.0</ele><time>2026-05-05T09:46:06.721Z</time></trkpt><trkpt lat="36.8565116" lon="10.3173183"><ele>16.0</ele><time>2026-05-05T09:46:07.716Z</time></trkpt><trkpt lat="36.8564842" lon="10.3174357"><ele>16.0</ele><time>2026-05-05T09:46:08.725Z</time></trkpt><trkpt lat="36.8564624" lon="10.3175556"><ele>16.666666666666664</ele><time>2026-05-05T09:46:09.711Z</time></trkpt><trkpt lat="36.8564417" lon="10.3176672"><ele>17.333333333333332</ele><time>2026-05-05T09:46:10.728Z</time></trkpt><trkpt lat="36.8564196" lon="10.3177772"><ele>18.0</ele><time>2026-05-05T09:46:11.722Z</time></trkpt><trkpt lat="36.8564051" lon="10.3178844"><ele>18.666666666666668</ele><time>2026-05-05T09:46:12.738Z</time></trkpt><trkpt lat="36.8563953" lon="10.3179876"><ele>19.333333333333336</ele><time>2026-05-05T09:46:13.726Z</time></trkpt><trkpt lat="36.8563826" lon="10.3180848"><ele>20.0</ele><time>2026-05-05T09:46:14.721Z</time></trkpt><trkpt lat="36.8563738" lon="10.3181676"><ele>20.2</ele><time>2026-05-05T09:46:15.712Z</time></trkpt><trkpt lat="36.8563678" lon="10.3183149"><ele>20.4</ele><time>2026-05-05T09:46:17.727Z</time></trkpt><trkpt lat="36.8563558" lon="10.3184364"><ele>20.6</ele><time>2026-05-05T09:46:19.721Z</time></trkpt><trkpt lat="36.8563447" lon="10.3185445"><ele>20.8</ele><time>2026-05-05T09:46:21.724Z</time></trkpt><trkpt lat="36.856345" lon="10.3186569"><ele>21.0</ele><time>2026-05-05T09:46:24.723Z</time></trkpt><trkpt lat="36.8563355" lon="10.318737"><ele>21.0</ele><time>2026-05-05T09:46:27.725Z</time></trkpt><trkpt lat="36.8563456" lon="10.31884"><ele>21.0</ele><time>2026-05-05T09:46:30.726Z</time></trkpt><trkpt lat="36.8563568" lon="10.3189576"><ele>21.0</ele><time>2026-05-05T09:46:32.728Z</time></trkpt><trkpt lat="36.8563694" lon="10.3191198"><ele>21.0</ele><time>2026-05-05T09:46:34.697Z</time></trkpt><trkpt lat="36.8563832" lon="10.3192246"><ele>21.0</ele><time>2026-05-05T09:46:35.707Z</time></trkpt><trkpt lat="36.856396" lon="10.3193366"><ele>21.0</ele><time>2026-05-05T09:46:36.726Z</time></trkpt><trkpt lat="36.856409" lon="10.3194636"><ele>21.0</ele><time>2026-05-05T09:46:37.729Z</time></trkpt><trkpt lat="36.8564299" lon="10.3196064"><ele>21.0</ele><time>2026-05-05T09:46:38.719Z</time></trkpt><trkpt lat="36.856451" lon="10.3197563"><ele>21.0</ele><time>2026-05-05T09:46:39.721Z</time></trkpt><trkpt lat="36.8564747" lon="10.3199072"><ele>21.75</ele><time>2026-05-05T09:46:40.733Z</time></trkpt><trkpt lat="36.8564862" lon="10.320061"><ele>22.5</ele><time>2026-05-05T09:46:41.685Z</time></trkpt><trkpt lat="36.8564957" lon="10.320216"><ele>23.25</ele><time>2026-05-05T09:46:42.726Z</time></trkpt><trkpt lat="36.856509" lon="10.3203712"><ele>24.0</ele><time>2026-05-05T09:46:43.713Z</time></trkpt><trkpt lat="36.8565209" lon="10.3205348"><ele>25.0</ele><time>2026-05-05T09:46:44.726Z</time></trkpt><trkpt lat="36.8565303" lon="10.3206991"><ele>26.0</ele><time>2026-05-05T09:46:45.723Z</time></trkpt><trkpt lat="36.856546" lon="10.3208587"><ele>27.0</ele><time>2026-05-05T09:46:46.705Z</time></trkpt><trkpt lat="36.8565673" lon="10.3210122"><ele>28.0</ele><time>2026-05-05T09:46:47.721Z</time></trkpt><trkpt lat="36.856583" lon="10.3211723"><ele>28.0</ele><time>2026-05-05T09:46:48.722Z</time></trkpt><trkpt lat="36.8566005" lon="10.3213337"><ele>28.0</ele><time>2026-05-05T09:46:49.724Z</time></trkpt><trkpt lat="36.8566142" lon="10.3214997"><ele>28.0</ele><time>2026-05-05T09:46:50.736Z</time></trkpt><trkpt lat="36.8566242" lon="10.3216751"><ele>28.0</ele><time>2026-05-05T09:46:51.736Z</time></trkpt><trkpt lat="36.8566298" lon="10.3218616"><ele>28.666666666666668</ele><time>2026-05-05T09:46:52.689Z</time></trkpt><trkpt lat="36.8566517" lon="10.3220479"><ele>29.333333333333336</ele><time>2026-05-05T09:46:53.734Z</time></trkpt><trkpt lat="36.8566707" lon="10.3222441"><ele>30.0</ele><time>2026-05-05T09:46:54.725Z</time></trkpt><trkpt lat="36.856685" lon="10.3224326"><ele>31.0</ele><time>2026-05-05T09:46:55.712Z</time></trkpt><trkpt lat="36.8567012" lon="10.322621"><ele>32.0</ele><time>2026-05-05T09:46:56.711Z</time></trkpt><trkpt lat="36.8567211" lon="10.3228188"><ele>33.0</ele><time>2026-05-05T09:46:57.72Z</time></trkpt><trkpt lat="36.8567381" lon="10.3230157"><ele>34.0</ele><time>2026-05-05T09:46:58.71Z</time></trkpt><trkpt lat="36.8567524" lon="10.3232149"><ele>35.0</ele><time>2026-05-05T09:46:59.726Z</time></trkpt><trkpt lat="36.8567663" lon="10.323413"><ele>36.0</ele><time>2026-05-05T09:47:00.73Z</time></trkpt><trkpt lat="36.8567848" lon="10.3236147"><ele>36.333333333333336</ele><time>2026-05-05T09:47:01.716Z</time></trkpt><trkpt lat="36.8568041" lon="10.3238142"><ele>36.66666666666667</ele><time>2026-05-05T09:47:02.709Z</time></trkpt><trkpt lat="36.8568255" lon="10.3240129"><ele>37.0</ele><time>2026-05-05T09:47:03.721Z</time></trkpt><trkpt lat="36.8568441" lon="10.3242035"><ele>37.25</ele><time>2026-05-05T09:47:04.699Z</time></trkpt><trkpt lat="36.8568593" lon="10.3243843"><ele>37.5</ele><time>2026-05-05T09:47:05.705Z</time></trkpt><trkpt lat="36.8568695" lon="10.3245535"><ele>37.75</ele><time>2026-05-05T09:47:06.678Z</time></trkpt><trkpt lat="36.8568832" lon="10.3247095"><ele>38.0</ele><time>2026-05-05T09:47:07.708Z</time></trkpt><trkpt lat="36.8568944" lon="10.3248535"><ele>38.5</ele><time>2026-05-05T09:47:08.68Z</time></trkpt><trkpt lat="36.8569071" lon="10.3249812"><ele>39.0</ele><time>2026-05-05T09:47:09.687Z</time></trkpt><trkpt lat="36.8569181" lon="10.3250993"><ele>39.5</ele><time>2026-05-05T09:47:10.676Z</time></trkpt><trkpt lat="36.8569176" lon="10.3252099"><ele>40.0</ele><time>2026-05-05T09:47:11.682Z</time></trkpt><trkpt lat="36.8569163" lon="10.3253063"><ele>40.5</ele><time>2026-05-05T09:47:12.714Z</time></trkpt><trkpt lat="36.8569211" lon="10.3253884"><ele>41.0</ele><time>2026-05-05T09:47:13.692Z</time></trkpt><trkpt lat="36.8569207" lon="10.3254864"><ele>41.199999999999996</ele><time>2026-05-05T09:47:15.729Z</time></trkpt><trkpt lat="36.8569435" lon="10.3255627"><ele>41.4</ele><time>2026-05-05T09:47:24.7Z</time></trkpt><trkpt lat="36.8569451" lon="10.3256752"><ele>41.6</ele><time>2026-05-05T09:48:30.726Z</time></trkpt><trkpt lat="36.8569331" lon="10.3258244"><ele>41.8</ele><time>2026-05-05T09:48:32.735Z</time></trkpt><trkpt lat="36.8569403" lon="10.3259678"><ele>42.0</ele><time>2026-05-05T09:48:34.705Z</time></trkpt><trkpt lat="36.8569597" lon="10.3260463"><ele>42.0</ele><time>2026-05-05T09:48:35.712Z</time></trkpt><trkpt lat="36.8570249" lon="10.3261621"><ele>42.0</ele><time>2026-05-05T09:48:37.721Z</time></trkpt><trkpt lat="36.8570837" lon="10.3262148"><ele>42.0</ele><time>2026-05-05T09:48:38.71Z</time></trkpt><trkpt lat="36.8571579" lon="10.326272"><ele>42.0</ele><time>2026-05-05T09:48:39.703Z</time></trkpt><trkpt lat="36.8572393" lon="10.3263343"><ele>42.0</ele><time>2026-05-05T09:48:40.701Z</time></trkpt><trkpt lat="36.8573312" lon="10.3264029"><ele>42.75</ele><time>2026-05-05T09:48:41.695Z</time></trkpt><trkpt lat="36.8574315" lon="10.3264827"><ele>43.5</ele><time>2026-05-05T09:48:42.743Z</time></trkpt><trkpt lat="36.85753" lon="10.3265549"><ele>44.25</ele><time>2026-05-05T09:48:43.695Z</time></trkpt><trkpt lat="36.8576293" lon="10.326622"><ele>45.0</ele><time>2026-05-05T09:48:44.725Z</time></trkpt><trkpt lat="36.85773" lon="10.3266932"><ele>45.5</ele><time>2026-05-05T09:48:45.728Z</time></trkpt><trkpt lat="36.8578366" lon="10.3267617"><ele>46.0</ele><time>2026-05-05T09:48:46.723Z</time></trkpt><trkpt lat="36.8579471" lon="10.3268345"><ele>46.5</ele><time>2026-05-05T09:48:47.733Z</time></trkpt><trkpt lat="36.8580595" lon="10.3269136"><ele>47.0</ele><time>2026-05-05T09:48:48.728Z</time></trkpt><trkpt lat="36.8581654" lon="10.3269861"><ele>47.0</ele><time>2026-05-05T09:48:49.758Z</time></trkpt><trkpt lat="36.8582652" lon="10.3270577"><ele>47.0</ele><time>2026-05-05T09:48:50.738Z</time></trkpt><trkpt lat="36.8583658" lon="10.3271373"><ele>47.0</ele><time>2026-05-05T09:48:51.736Z</time></trkpt><trkpt lat="36.8584658" lon="10.3272164"><ele>47.0</ele><time>2026-05-05T09:48:52.713Z</time></trkpt><trkpt lat="36.8585645" lon="10.3272916"><ele>47.75</ele><time>2026-05-05T09:48:53.709Z</time></trkpt><trkpt lat="36.858659" lon="10.3273628"><ele>48.5</ele><time>2026-05-05T09:48:54.73Z</time></trkpt><trkpt lat="36.858755" lon="10.3274307"><ele>49.25</ele><time>2026-05-05T09:48:55.749Z</time></trkpt><trkpt lat="36.8588574" lon="10.3275075"><ele>50.0</ele><time>2026-05-05T09:48:56.727Z</time></trkpt><trkpt lat="36.8589658" lon="10.3275926"><ele>50.0</ele><time>2026-05-05T09:48:57.731Z</time></trkpt><trkpt lat="36.8590712" lon="10.3276678"><ele>50.0</ele><time>2026-05-05T09:48:58.735Z</time></trkpt><trkpt lat="36.8591801" lon="10.3277424"><ele>50.0</ele><time>2026-05-05T09:48:59.744Z</time></trkpt><trkpt lat="36.8592889" lon="10.3278122"><ele>50.0</ele><time>2026-05-05T09:49:00.745Z</time></trkpt><trkpt lat="36.8593959" lon="10.3278786"><ele>50.0</ele><time>2026-05-05T09:49:01.742Z</time></trkpt><trkpt lat="36.8595013" lon="10.3279376"><ele>50.0</ele><time>2026-05-05T09:49:02.724Z</time></trkpt><trkpt lat="36.8596103" lon="10.3279971"><ele>50.0</ele><time>2026-05-05T09:49:03.725Z</time></trkpt><trkpt lat="36.8597188" lon="10.3280544"><ele>50.0</ele><time>2026-05-05T09:49:04.745Z</time></trkpt><trkpt lat="36.8598302" lon="10.3281169"><ele>50.25</ele><time>2026-05-05T09:49:05.725Z</time></trkpt><trkpt lat="36.8599336" lon="10.3281782"><ele>50.5</ele><time>2026-05-05T09:49:06.738Z</time></trkpt><trkpt lat="36.8600341" lon="10.3282388"><ele>50.75</ele><time>2026-05-05T09:49:07.725Z</time></trkpt><trkpt lat="36.8601367" lon="10.3282995"><ele>51.0</ele><time>2026-05-05T09:49:08.742Z</time></trkpt><trkpt lat="36.8602469" lon="10.3283506"><ele>49.75</ele><time>2026-05-05T09:49:09.721Z</time></trkpt><trkpt lat="36.8603616" lon="10.328408"><ele>48.5</ele><time>2026-05-05T09:49:10.735Z</time></trkpt><trkpt lat="36.8604718" lon="10.3284761"><ele>47.25</ele><time>2026-05-05T09:49:11.727Z</time></trkpt><trkpt lat="36.860574" lon="10.3285687"><ele>46.0</ele><time>2026-05-05T09:49:12.715Z</time></trkpt><trkpt lat="36.8606699" lon="10.3286657"><ele>46.0</ele><time>2026-05-05T09:49:13.702Z</time></trkpt><trkpt lat="36.8607647" lon="10.3287731"><ele>46.0</ele><time>2026-05-05T09:49:14.708Z</time></trkpt><trkpt lat="36.8608551" lon="10.3289037"><ele>46.0</ele><time>2026-05-05T09:49:15.716Z</time></trkpt><trkpt lat="36.8609434" lon="10.3290522"><ele>46.0</ele><time>2026-05-05T09:49:16.732Z</time></trkpt><trkpt lat="36.8610261" lon="10.3292102"><ele>43.66666666666667</ele><time>2026-05-05T09:49:17.709Z</time></trkpt><trkpt lat="36.8611071" lon="10.329382"><ele>41.333333333333336</ele><time>2026-05-05T09:49:18.722Z</time></trkpt><trkpt lat="36.8611804" lon="10.3295481"><ele>39.0</ele><time>2026-05-05T09:49:19.727Z</time></trkpt><trkpt lat="36.8612546" lon="10.3297138"><ele>38.75</ele><time>2026-05-05T09:49:20.719Z</time></trkpt><trkpt lat="36.8613326" lon="10.329872"><ele>38.5</ele><time>2026-05-05T09:49:21.74Z</time></trkpt><trkpt lat="36.8614091" lon="10.330025"><ele>38.25</ele><time>2026-05-05T09:49:22.731Z</time></trkpt><trkpt lat="36.8614836" lon="10.330178"><ele>38.0</ele><time>2026-05-05T09:49:23.736Z</time></trkpt><trkpt lat="36.8615544" lon="10.3303273"><ele>38.0</ele><time>2026-05-05T09:49:24.713Z</time></trkpt><trkpt lat="36.8616251" lon="10.3304691"><ele>38.0</ele><time>2026-05-05T09:49:25.729Z</time></trkpt><trkpt lat="36.8616887" lon="10.3306071"><ele>38.0</ele><time>2026-05-05T09:49:26.744Z</time></trkpt><trkpt lat="36.861747" lon="10.3307295"><ele>38.0</ele><time>2026-05-05T09:49:27.731Z</time></trkpt><trkpt lat="36.861804" lon="10.3308388"><ele>38.0</ele><time>2026-05-05T09:49:28.73Z</time></trkpt><trkpt lat="36.8618556" lon="10.330949"><ele>38.0</ele><time>2026-05-05T09:49:29.748Z</time></trkpt><trkpt lat="36.8619073" lon="10.3310597"><ele>38.0</ele><time>2026-05-05T09:49:30.734Z</time></trkpt><trkpt lat="36.8619564" lon="10.3311614"><ele>38.0</ele><time>2026-05-05T09:49:31.728Z</time></trkpt><trkpt lat="36.8620023" lon="10.3312739"><ele>38.0</ele><time>2026-05-05T09:49:32.727Z</time></trkpt><trkpt lat="36.8620508" lon="10.3313801"><ele>38.33333333333333</ele><time>2026-05-05T09:49:33.736Z</time></trkpt><trkpt lat="36.8621002" lon="10.331475"><ele>38.666666666666664</ele><time>2026-05-05T09:49:34.674Z</time></trkpt><trkpt lat="36.8621353" lon="10.3315547"><ele>39.0</ele><time>2026-05-05T09:49:35.718Z</time></trkpt><trkpt lat="36.8621751" lon="10.3316615"><ele>39.333333333333336</ele><time>2026-05-05T09:49:37.726Z</time></trkpt><trkpt lat="36.8621604" lon="10.3317493"><ele>39.66666666666667</ele><time>2026-05-05T09:49:41.735Z</time></trkpt><trkpt lat="36.8622158" lon="10.3318029"><ele>40.0</ele><time>2026-05-05T09:54:04.676Z</time></trkpt><trkpt lat="36.8622928" lon="10.3319307"><ele>40.0</ele><time>2026-05-05T09:54:07.679Z</time></trkpt><trkpt lat="36.862336" lon="10.3320293"><ele>40.0</ele><time>2026-05-05T09:54:08.671Z</time></trkpt><trkpt lat="36.8623896" lon="10.332139"><ele>40.0</ele><time>2026-05-05T09:54:09.689Z</time></trkpt><trkpt lat="36.8624506" lon="10.3322475"><ele>40.0</ele><time>2026-05-05T09:54:10.687Z</time></trkpt><trkpt lat="36.862516" lon="10.3323735"><ele>40.0</ele><time>2026-05-05T09:54:11.703Z</time></trkpt><trkpt lat="36.862578" lon="10.3324958"><ele>41.0</ele><time>2026-05-05T09:54:12.709Z</time></trkpt><trkpt lat="36.8626383" lon="10.3326268"><ele>42.0</ele><time>2026-05-05T09:54:13.688Z</time></trkpt><trkpt lat="36.8627086" lon="10.3327667"><ele>43.0</ele><time>2026-05-05T09:54:14.709Z</time></trkpt><trkpt lat="36.8627781" lon="10.3329064"><ele>44.0</ele><time>2026-05-05T09:54:15.677Z</time></trkpt><trkpt lat="36.8628484" lon="10.3330468"><ele>44.0</ele><time>2026-05-05T09:54:16.711Z</time></trkpt><trkpt lat="36.8629195" lon="10.333187"><ele>44.0</ele><time>2026-05-05T09:54:17.68Z</time></trkpt><trkpt lat="36.8629893" lon="10.3333339"><ele>44.0</ele><time>2026-05-05T09:54:18.706Z</time></trkpt><trkpt lat="36.8630601" lon="10.3334825"><ele>44.0</ele><time>2026-05-05T09:54:19.692Z</time></trkpt><trkpt lat="36.8631258" lon="10.3336217"><ele>44.0</ele><time>2026-05-05T09:54:20.675Z</time></trkpt><trkpt lat="36.8631921" lon="10.3337631"><ele>44.0</ele><time>2026-05-05T09:54:21.692Z</time></trkpt><trkpt lat="36.8632588" lon="10.3339052"><ele>44.0</ele><time>2026-05-05T09:54:22.678Z</time></trkpt><trkpt lat="36.8633265" lon="10.3340399"><ele>44.0</ele><time>2026-05-05T09:54:23.676Z</time></trkpt><trkpt lat="36.8633933" lon="10.3341717"><ele>43.800000000000004</ele><time>2026-05-05T09:54:24.67Z</time></trkpt><trkpt lat="36.8634504" lon="10.3342995"><ele>43.6</ele><time>2026-05-05T09:54:25.688Z</time></trkpt><trkpt lat="36.8635053" lon="10.3344189"><ele>43.4</ele><time>2026-05-05T09:54:26.683Z</time></trkpt><trkpt lat="36.863556" lon="10.3345337"><ele>43.2</ele><time>2026-05-05T09:54:27.683Z</time></trkpt><trkpt lat="36.8636021" lon="10.3346336"><ele>43.0</ele><time>2026-05-05T09:54:28.708Z</time></trkpt><trkpt lat="36.8636469" lon="10.3347283"><ele>42.66666666666667</ele><time>2026-05-05T09:54:29.706Z</time></trkpt><trkpt lat="36.8636857" lon="10.3348178"><ele>42.333333333333336</ele><time>2026-05-05T09:54:30.697Z</time></trkpt><trkpt lat="36.8637282" lon="10.3349042"><ele>42.0</ele><time>2026-05-05T09:54:31.695Z</time></trkpt><trkpt lat="36.8637711" lon="10.3349904"><ele>41.666666666666664</ele><time>2026-05-05T09:54:32.716Z</time></trkpt><trkpt lat="36.8638108" lon="10.3350728"><ele>41.33333333333333</ele><time>2026-05-05T09:54:33.711Z</time></trkpt><trkpt lat="36.8638526" lon="10.3351534"><ele>41.0</ele><time>2026-05-05T09:54:34.707Z</time></trkpt><trkpt lat="36.8638866" lon="10.3352321"><ele>41.0</ele><time>2026-05-05T09:54:35.696Z</time></trkpt><trkpt lat="36.8639245" lon="10.335304"><ele>41.0</ele><time>2026-05-05T09:54:36.702Z</time></trkpt><trkpt lat="36.8639589" lon="10.335374"><ele>41.0</ele><time>2026-05-05T09:54:37.708Z</time></trkpt><trkpt lat="36.863998" lon="10.3354476"><ele>41.0</ele><time>2026-05-05T09:54:38.706Z</time></trkpt><trkpt lat="36.8640353" lon="10.3355248"><ele>41.0</ele><time>2026-05-05T09:54:39.676Z</time></trkpt><trkpt lat="36.8640677" lon="10.3356075"><ele>41.0</ele><time>2026-05-05T09:54:40.703Z</time></trkpt><trkpt lat="36.864106" lon="10.3357419"><ele>41.285714285714285</ele><time>2026-05-05T09:54:42.7Z</time></trkpt><trkpt lat="36.8641039" lon="10.3358236"><ele>41.57142857142857</ele><time>2026-05-05T09:54:44.708Z</time></trkpt><trkpt lat="36.8641052" lon="10.3359034"><ele>41.85714285714286</ele><time>2026-05-05T09:54:48.699Z</time></trkpt><trkpt lat="36.8640742" lon="10.3359722"><ele>42.14285714285714</ele><time>2026-05-05T09:54:51.708Z</time></trkpt><trkpt lat="36.8640409" lon="10.3360584"><ele>42.42857142857143</ele><time>2026-05-05T09:54:53.704Z</time></trkpt><trkpt lat="36.8640126" lon="10.3361574"><ele>42.714285714285715</ele><time>2026-05-05T09:54:55.718Z</time></trkpt><trkpt lat="36.8639619" lon="10.3362393"><ele>43.0</ele><time>2026-05-05T09:54:57.687Z</time></trkpt><trkpt lat="36.8638722" lon="10.3362886"><ele>43.0</ele><time>2026-05-05T09:54:59.693Z</time></trkpt><trkpt lat="36.863748" lon="10.3363006"><ele>43.0</ele><time>2026-05-05T09:55:01.693Z</time></trkpt><trkpt lat="36.8636783" lon="10.336284"><ele>43.0</ele><time>2026-05-05T09:55:02.698Z</time></trkpt><trkpt lat="36.863601" lon="10.3362658"><ele>43.0</ele><time>2026-05-05T09:55:03.698Z</time></trkpt><trkpt lat="36.8635262" lon="10.3362368"><ele>43.0</ele><time>2026-05-05T09:55:04.681Z</time></trkpt><trkpt lat="36.8634393" lon="10.3362052"><ele>43.0</ele><time>2026-05-05T09:55:05.72Z</time></trkpt><trkpt lat="36.8633358" lon="10.336169"><ele>43.25</ele><time>2026-05-05T09:55:06.703Z</time></trkpt><trkpt lat="36.863219" lon="10.3361278"><ele>43.5</ele><time>2026-05-05T09:55:07.71Z</time></trkpt><trkpt lat="36.8630983" lon="10.3360791"><ele>43.75</ele><time>2026-05-05T09:55:08.711Z</time></trkpt><trkpt lat="36.862983" lon="10.33604"><ele>44.0</ele><time>2026-05-05T09:55:09.714Z</time></trkpt><trkpt lat="36.8628676" lon="10.3359993"><ele>44.0</ele><time>2026-05-05T09:55:10.713Z</time></trkpt><trkpt lat="36.862755" lon="10.33596"><ele>44.0</ele><time>2026-05-05T09:55:11.69Z</time></trkpt><trkpt lat="36.8626499" lon="10.3359198"><ele>44.0</ele><time>2026-05-05T09:55:12.699Z</time></trkpt><trkpt lat="36.8625468" lon="10.3358841"><ele>44.0</ele><time>2026-05-05T09:55:13.702Z</time></trkpt><trkpt lat="36.8624493" lon="10.335854"><ele>44.0</ele><time>2026-05-05T09:55:14.701Z</time></trkpt><trkpt lat="36.862359" lon="10.3358315"><ele>44.166666666666664</ele><time>2026-05-05T09:55:15.707Z</time></trkpt><trkpt lat="36.8622703" lon="10.3358022"><ele>44.33333333333333</ele><time>2026-05-05T09:55:16.696Z</time></trkpt><trkpt lat="36.8621825" lon="10.3357728"><ele>44.5</ele><time>2026-05-05T09:55:17.716Z</time></trkpt><trkpt lat="36.8620988" lon="10.335743"><ele>44.666666666666664</ele><time>2026-05-05T09:55:18.706Z</time></trkpt><trkpt lat="36.8620195" lon="10.3357082"><ele>44.833333333333336</ele><time>2026-05-05T09:55:19.707Z</time></trkpt><trkpt lat="36.8619396" lon="10.3356684"><ele>45.0</ele><time>2026-05-05T09:55:20.679Z</time></trkpt><trkpt lat="36.8618579" lon="10.335632"><ele>45.166666666666664</ele><time>2026-05-05T09:55:21.678Z</time></trkpt><trkpt lat="36.8617728" lon="10.3356108"><ele>45.333333333333336</ele><time>2026-05-05T09:55:22.711Z</time></trkpt><trkpt lat="36.8616973" lon="10.3355893"><ele>45.5</ele><time>2026-05-05T09:55:23.711Z</time></trkpt><trkpt lat="36.8616193" lon="10.3355645"><ele>45.66666666666667</ele><time>2026-05-05T09:55:24.702Z</time></trkpt><trkpt lat="36.861536" lon="10.3355342"><ele>45.833333333333336</ele><time>2026-05-05T09:55:25.702Z</time></trkpt><trkpt lat="36.8614563" lon="10.3355089"><ele>46.0</ele><time>2026-05-05T09:55:26.707Z</time></trkpt><trkpt lat="36.8613784" lon="10.3354826"><ele>46.0</ele><time>2026-05-05T09:55:27.703Z</time></trkpt><trkpt lat="36.8613029" lon="10.3354546"><ele>46.0</ele><time>2026-05-05T09:55:28.7Z</time></trkpt><trkpt lat="36.861241" lon="10.3354254"><ele>46.0</ele><time>2026-05-05T09:55:29.703Z</time></trkpt><trkpt lat="36.861132" lon="10.3353831"><ele>46.0</ele><time>2026-05-05T09:55:31.703Z</time></trkpt><trkpt lat="36.8610709" lon="10.3353637"><ele>46.0</ele><time>2026-05-05T09:55:32.708Z</time></trkpt><trkpt lat="36.8610058" lon="10.3353371"><ele>46.0</ele><time>2026-05-05T09:55:33.722Z</time></trkpt><trkpt lat="36.8609364" lon="10.3353069"><ele>46.333333333333336</ele><time>2026-05-05T09:55:34.719Z</time></trkpt><trkpt lat="36.86086" lon="10.3352682"><ele>46.66666666666667</ele><time>2026-05-05T09:55:35.71Z</time></trkpt><trkpt lat="36.8607813" lon="10.3352283"><ele>47.0</ele><time>2026-05-05T09:55:36.704Z</time></trkpt><trkpt lat="36.8607033" lon="10.3351895"><ele>47.333333333333336</ele><time>2026-05-05T09:55:37.709Z</time></trkpt><trkpt lat="36.860631" lon="10.3351489"><ele>47.666666666666664</ele><time>2026-05-05T09:55:38.68Z</time></trkpt><trkpt lat="36.8605688" lon="10.3351098"><ele>48.0</ele><time>2026-05-05T09:55:39.705Z</time></trkpt><trkpt lat="36.8605103" lon="10.3350712"><ele>48.0</ele><time>2026-05-05T09:55:40.708Z</time></trkpt><trkpt lat="36.8604524" lon="10.3350281"><ele>48.0</ele><time>2026-05-05T09:55:41.69Z</time></trkpt><trkpt lat="36.8603844" lon="10.334981"><ele>48.0</ele><time>2026-05-05T09:55:42.712Z</time></trkpt><trkpt lat="36.8603116" lon="10.3349399"><ele>48.0</ele><time>2026-05-05T09:55:43.718Z</time></trkpt><trkpt lat="36.8602283" lon="10.3348919"><ele>48.0</ele><time>2026-05-05T09:55:44.716Z</time></trkpt><trkpt lat="36.8601459" lon="10.3348425"><ele>48.0</ele><time>2026-05-05T09:55:45.741Z</time></trkpt><trkpt lat="36.8600569" lon="10.3347951"><ele>48.0</ele><time>2026-05-05T09:55:46.696Z</time></trkpt><trkpt lat="36.8599656" lon="10.3347415"><ele>48.0</ele><time>2026-05-05T09:55:47.708Z</time></trkpt><trkpt lat="36.8598709" lon="10.334689"><ele>48.0</ele><time>2026-05-05T09:55:48.73Z</time></trkpt><trkpt lat="36.859782" lon="10.3346355"><ele>48.0</ele><time>2026-05-05T09:55:49.702Z</time></trkpt><trkpt lat="36.8596909" lon="10.334586"><ele>48.0</ele><time>2026-05-05T09:55:50.706Z</time></trkpt><trkpt lat="36.8595942" lon="10.334532"><ele>47.8</ele><time>2026-05-05T09:55:51.7Z</time></trkpt><trkpt lat="36.8595048" lon="10.3344714"><ele>47.599999999999994</ele><time>2026-05-05T09:55:52.708Z</time></trkpt><trkpt lat="36.8594107" lon="10.3344171"><ele>47.400000000000006</ele><time>2026-05-05T09:55:53.686Z</time></trkpt><trkpt lat="36.8593169" lon="10.3343615"><ele>47.2</ele><time>2026-05-05T09:55:54.695Z</time></trkpt><trkpt lat="36.8592307" lon="10.3343052"><ele>47.0</ele><time>2026-05-05T09:55:55.708Z</time></trkpt><trkpt lat="36.8591441" lon="10.3342516"><ele>46.6</ele><time>2026-05-05T09:55:56.702Z</time></trkpt><trkpt lat="36.8590576" lon="10.3341982"><ele>46.2</ele><time>2026-05-05T09:55:57.716Z</time></trkpt><trkpt lat="36.8589703" lon="10.3341426"><ele>45.8</ele><time>2026-05-05T09:55:58.711Z</time></trkpt><trkpt lat="36.8588876" lon="10.334084"><ele>45.4</ele><time>2026-05-05T09:55:59.725Z</time></trkpt><trkpt lat="36.8587981" lon="10.3340227"><ele>45.0</ele><time>2026-05-05T09:56:00.703Z</time></trkpt><trkpt lat="36.8587038" lon="10.3339563"><ele>45.25</ele><time>2026-05-05T09:56:01.713Z</time></trkpt><trkpt lat="36.8586076" lon="10.3338872"><ele>45.5</ele><time>2026-05-05T09:56:02.713Z</time></trkpt><trkpt lat="36.858506" lon="10.3338171"><ele>45.75</ele><time>2026-05-05T09:56:03.712Z</time></trkpt><trkpt lat="36.8584061" lon="10.3337406"><ele>46.0</ele><time>2026-05-05T09:56:04.706Z</time></trkpt><trkpt lat="36.8583069" lon="10.3336686"><ele>45.0</ele><time>2026-05-05T09:56:05.712Z</time></trkpt><trkpt lat="36.8582078" lon="10.3336044"><ele>44.0</ele><time>2026-05-05T09:56:06.705Z</time></trkpt><trkpt lat="36.8581063" lon="10.3335293"><ele>43.0</ele><time>2026-05-05T09:56:07.712Z</time></trkpt><trkpt lat="36.8580076" lon="10.3334623"><ele>42.0</ele><time>2026-05-05T09:56:08.701Z</time></trkpt><trkpt lat="36.857908" lon="10.3333907"><ele>42.0</ele><time>2026-05-05T09:56:09.709Z</time></trkpt><trkpt lat="36.8578128" lon="10.3333159"><ele>42.0</ele><time>2026-05-05T09:56:10.693Z</time></trkpt><trkpt lat="36.8577191" lon="10.3332468"><ele>42.0</ele><time>2026-05-05T09:56:11.693Z</time></trkpt><trkpt lat="36.857628" lon="10.3331769"><ele>42.0</ele><time>2026-05-05T09:56:12.701Z</time></trkpt><trkpt lat="36.8575383" lon="10.3331078"><ele>42.0</ele><time>2026-05-05T09:56:13.708Z</time></trkpt><trkpt lat="36.8574464" lon="10.3330369"><ele>40.6</ele><time>2026-05-05T09:56:14.7Z</time></trkpt><trkpt lat="36.8573634" lon="10.3329646"><ele>39.2</ele><time>2026-05-05T09:56:15.705Z</time></trkpt><trkpt lat="36.8572825" lon="10.3328927"><ele>37.8</ele><time>2026-05-05T09:56:16.716Z</time></trkpt><trkpt lat="36.8571986" lon="10.3328251"><ele>36.4</ele><time>2026-05-05T09:56:17.709Z</time></trkpt><trkpt lat="36.8571141" lon="10.33276"><ele>35.0</ele><time>2026-05-05T09:56:18.714Z</time></trkpt><trkpt lat="36.8570312" lon="10.3326957"><ele>35.0</ele><time>2026-05-05T09:56:19.701Z</time></trkpt><trkpt lat="36.8569427" lon="10.3326355"><ele>35.0</ele><time>2026-05-05T09:56:20.712Z</time></trkpt><trkpt lat="36.8568529" lon="10.3325788"><ele>35.0</ele><time>2026-05-05T09:56:21.711Z</time></trkpt><trkpt lat="36.8567645" lon="10.332523"><ele>35.0</ele><time>2026-05-05T09:56:22.712Z</time></trkpt><trkpt lat="36.8566836" lon="10.3324683"><ele>35.0</ele><time>2026-05-05T09:56:23.692Z</time></trkpt><trkpt lat="36.8566071" lon="10.3324177"><ele>34.666666666666664</ele><time>2026-05-05T09:56:24.716Z</time></trkpt><trkpt lat="36.8565287" lon="10.3323705"><ele>34.33333333333333</ele><time>2026-05-05T09:56:25.699Z</time></trkpt><trkpt lat="36.8564483" lon="10.3323195"><ele>34.0</ele><time>2026-05-05T09:56:26.699Z</time></trkpt><trkpt lat="36.8563708" lon="10.3322661"><ele>33.666666666666664</ele><time>2026-05-05T09:56:27.706Z</time></trkpt><trkpt lat="36.8562975" lon="10.3322139"><ele>33.333333333333336</ele><time>2026-05-05T09:56:28.697Z</time></trkpt><trkpt lat="36.8562135" lon="10.3321638"><ele>33.0</ele><time>2026-05-05T09:56:29.698Z</time></trkpt><trkpt lat="36.8561359" lon="10.332115"><ele>33.0</ele><time>2026-05-05T09:56:30.713Z</time></trkpt><trkpt lat="36.8560595" lon="10.3320671"><ele>33.0</ele><time>2026-05-05T09:56:31.706Z</time></trkpt><trkpt lat="36.855983" lon="10.3320167"><ele>33.0</ele><time>2026-05-05T09:56:32.713Z</time></trkpt><trkpt lat="36.855908" lon="10.3319666"><ele>33.0</ele><time>2026-05-05T09:56:33.705Z</time></trkpt><trkpt lat="36.8558322" lon="10.3319126"><ele>33.0</ele><time>2026-05-05T09:56:34.705Z</time></trkpt><trkpt lat="36.8557563" lon="10.3318609"><ele>33.0</ele><time>2026-05-05T09:56:35.704Z</time></trkpt><trkpt lat="36.8556823" lon="10.3318009"><ele>31.333333333333332</ele><time>2026-05-05T09:56:36.693Z</time></trkpt><trkpt lat="36.8556082" lon="10.3317419"><ele>29.666666666666668</ele><time>2026-05-05T09:56:37.694Z</time></trkpt><trkpt lat="36.8555299" lon="10.331683"><ele>28.0</ele><time>2026-05-05T09:56:38.7Z</time></trkpt><trkpt lat="36.8554602" lon="10.3316242"><ele>26.333333333333336</ele><time>2026-05-05T09:56:39.682Z</time></trkpt><trkpt lat="36.8553906" lon="10.3315687"><ele>24.666666666666668</ele><time>2026-05-05T09:56:40.704Z</time></trkpt><trkpt lat="36.8553257" lon="10.3315166"><ele>23.0</ele><time>2026-05-05T09:56:41.698Z</time></trkpt><trkpt lat="36.8552724" lon="10.3314686"><ele>23.0</ele><time>2026-05-05T09:56:42.71Z</time></trkpt><trkpt lat="36.855188" lon="10.3314043"><ele>23.0</ele><time>2026-05-05T09:56:44.69Z</time></trkpt><trkpt lat="36.8551325" lon="10.3313416"><ele>23.0</ele><time>2026-05-05T09:56:47.694Z</time></trkpt><trkpt lat="36.855065" lon="10.3312931"><ele>23.0</ele><time>2026-05-05T09:57:31.705Z</time></trkpt><trkpt lat="36.8549985" lon="10.3312021"><ele>23.0</ele><time>2026-05-05T09:57:33.715Z</time></trkpt><trkpt lat="36.8549464" lon="10.3310709"><ele>22.666666666666668</ele><time>2026-05-05T09:57:35.713Z</time></trkpt><trkpt lat="36.8549361" lon="10.3309831"><ele>22.333333333333336</ele><time>2026-05-05T09:57:36.7Z</time></trkpt><trkpt lat="36.8549455" lon="10.330887"><ele>22.0</ele><time>2026-05-05T09:57:37.715Z</time></trkpt><trkpt lat="36.8549637" lon="10.330807"><ele>21.666666666666668</ele><time>2026-05-05T09:57:38.72Z</time></trkpt><trkpt lat="36.8549899" lon="10.3307114"><ele>21.333333333333332</ele><time>2026-05-05T09:57:39.736Z</time></trkpt><trkpt lat="36.8550232" lon="10.3306173"><ele>21.0</ele><time>2026-05-05T09:57:40.704Z</time></trkpt><trkpt lat="36.8550514" lon="10.3305237"><ele>21.0</ele><time>2026-05-05T09:57:41.681Z</time></trkpt><trkpt lat="36.8550898" lon="10.3304341"><ele>21.0</ele><time>2026-05-05T09:57:42.711Z</time></trkpt><trkpt lat="36.8551417" lon="10.3303432"><ele>21.0</ele><time>2026-05-05T09:57:43.687Z</time></trkpt><trkpt lat="36.8551947" lon="10.3302464"><ele>21.0</ele><time>2026-05-05T09:57:44.717Z</time></trkpt><trkpt lat="36.855248" lon="10.3301381"><ele>21.0</ele><time>2026-05-05T09:57:45.709Z</time></trkpt><trkpt lat="36.8553016" lon="10.3300311"><ele>21.833333333333332</ele><time>2026-05-05T09:57:46.688Z</time></trkpt><trkpt lat="36.8553497" lon="10.3299342"><ele>22.666666666666664</ele><time>2026-05-05T09:57:47.675Z</time></trkpt><trkpt lat="36.8553973" lon="10.32985"><ele>23.5</ele><time>2026-05-05T09:57:48.739Z</time></trkpt><trkpt lat="36.8554246" lon="10.3297702"><ele>24.333333333333332</ele><time>2026-05-05T09:57:49.727Z</time></trkpt><trkpt lat="36.8554798" lon="10.3296602"><ele>25.166666666666664</ele><time>2026-05-05T09:57:51.73Z</time></trkpt><trkpt lat="36.8555261" lon="10.3295542"><ele>26.0</ele><time>2026-05-05T09:57:53.731Z</time></trkpt><trkpt lat="36.8555876" lon="10.3294502"><ele>26.4</ele><time>2026-05-05T09:57:55.741Z</time></trkpt><trkpt lat="36.8556501" lon="10.3293183"><ele>26.8</ele><time>2026-05-05T09:57:57.734Z</time></trkpt><trkpt lat="36.8556853" lon="10.3292365"><ele>27.199999999999996</ele><time>2026-05-05T09:57:58.723Z</time></trkpt><trkpt lat="36.8557202" lon="10.3291656"><ele>27.599999999999998</ele><time>2026-05-05T09:57:59.735Z</time></trkpt><trkpt lat="36.8558011" lon="10.329109"><ele>28.0</ele><time>2026-05-05T09:58:01.733Z</time></trkpt><trkpt lat="36.8558996" lon="10.329139"><ele>28.599999999999998</ele><time>2026-05-05T09:58:03.734Z</time></trkpt><trkpt lat="36.8559866" lon="10.3292078"><ele>29.199999999999996</ele><time>2026-05-05T09:58:05.699Z</time></trkpt><trkpt lat="36.8560773" lon="10.3293151"><ele>29.8</ele><time>2026-05-05T09:58:07.712Z</time></trkpt><trkpt lat="36.8561376" lon="10.3294314"><ele>30.4</ele><time>2026-05-05T09:58:09.715Z</time></trkpt><trkpt lat="36.8561584" lon="10.3295459"><ele>31.0</ele><time>2026-05-05T09:58:11.718Z</time></trkpt><trkpt lat="36.8561627" lon="10.3296635"><ele>31.4</ele><time>2026-05-05T09:58:13.709Z</time></trkpt><trkpt lat="36.8561692" lon="10.3297825"><ele>31.8</ele><time>2026-05-05T09:58:15.705Z</time></trkpt><trkpt lat="36.8561611" lon="10.3299159"><ele>32.199999999999996</ele><time>2026-05-05T09:58:17.737Z</time></trkpt><trkpt lat="36.8561592" lon="10.3300321"><ele>32.6</ele><time>2026-05-05T09:58:19.683Z</time></trkpt><trkpt lat="36.8561557" lon="10.3301253"><ele>33.0</ele><time>2026-05-05T09:58:21.702Z</time></trkpt><trkpt lat="36.8561391" lon="10.3302327"><ele>33.0</ele><time>2026-05-05T09:58:24.705Z</time></trkpt><trkpt lat="36.8561267" lon="10.3303372"><ele>33.0</ele><time>2026-05-05T09:58:27.708Z</time></trkpt><trkpt lat="36.8561181" lon="10.3304254"><ele>33.0</ele><time>2026-05-05T09:58:30.708Z</time></trkpt><trkpt lat="36.8561077" lon="10.330542"><ele>33.0</ele><time>2026-05-05T09:58:33.713Z</time></trkpt><trkpt lat="36.856104" lon="10.330665"><ele>33.0</ele><time>2026-05-05T09:58:35.704Z</time></trkpt><trkpt lat="36.8561016" lon="10.3308042"><ele>33.0</ele><time>2026-05-05T09:58:37.714Z</time></trkpt><trkpt lat="36.8561032" lon="10.3309471"><ele>33.0</ele><time>2026-05-05T09:58:39.724Z</time></trkpt><trkpt lat="36.856095" lon="10.3310928"><ele>33.0</ele><time>2026-05-05T09:58:41.706Z</time></trkpt><trkpt lat="36.8561101" lon="10.331226"><ele>33.0</ele><time>2026-05-05T09:58:43.703Z</time></trkpt><trkpt lat="36.8561435" lon="10.3313248"><ele>33.0</ele><time>2026-05-05T09:58:45.734Z</time></trkpt><trkpt lat="36.8561502" lon="10.3314092"><ele>33.4</ele><time>2026-05-05T09:58:49.721Z</time></trkpt><trkpt lat="36.8561158" lon="10.3313007"><ele>33.8</ele><time>2026-05-05T09:59:06.69Z</time></trkpt><trkpt lat="36.8560925" lon="10.3312128"><ele>34.2</ele><time>2026-05-05T09:59:08.709Z</time></trkpt><trkpt lat="36.8560849" lon="10.3311055"><ele>34.6</ele><time>2026-05-05T09:59:10.684Z</time></trkpt><trkpt lat="36.8561008" lon="10.3309756"><ele>35.0</ele><time>2026-05-05T09:59:12.71Z</time></trkpt><trkpt lat="36.8561118" lon="10.3308488"><ele>35.0</ele><time>2026-05-05T09:59:14.706Z</time></trkpt><trkpt lat="36.8561214" lon="10.3307076"><ele>35.0</ele><time>2026-05-05T09:59:16.714Z</time></trkpt><trkpt lat="36.8561238" lon="10.3305704"><ele>35.0</ele><time>2026-05-05T09:59:18.704Z</time></trkpt><trkpt lat="36.8561265" lon="10.3304324"><ele>35.0</ele><time>2026-05-05T09:59:20.714Z</time></trkpt><trkpt lat="36.8561301" lon="10.3303222"><ele>35.0</ele><time>2026-05-05T09:59:22.716Z</time></trkpt><trkpt lat="36.8561404" lon="10.3302425"><ele>34.666666666666664</ele><time>2026-05-05T09:59:24.689Z</time></trkpt><trkpt lat="36.8561512" lon="10.3301435"><ele>34.33333333333333</ele><time>2026-05-05T09:59:27.721Z</time></trkpt><trkpt lat="36.8561637" lon="10.3300592"><ele>34.0</ele><time>2026-05-05T09:59:30.714Z</time></trkpt><trkpt lat="36.8561686" lon="10.3299326"><ele>33.666666666666664</ele><time>2026-05-05T09:59:33.708Z</time></trkpt><trkpt lat="36.8561764" lon="10.3298364"><ele>33.333333333333336</ele><time>2026-05-05T09:59:35.69Z</time></trkpt><trkpt lat="36.8561768" lon="10.3297168"><ele>33.0</ele><time>2026-05-05T09:59:37.708Z</time></trkpt><trkpt lat="36.8561675" lon="10.3296002"><ele>32.666666666666664</ele><time>2026-05-05T09:59:39.724Z</time></trkpt><trkpt lat="36.8561653" lon="10.3294931"><ele>32.333333333333336</ele><time>2026-05-05T09:59:41.698Z</time></trkpt><trkpt lat="36.8562272" lon="10.3294155"><ele>32.0</ele><time>2026-05-05T09:59:44.703Z</time></trkpt><trkpt lat="36.8563122" lon="10.329404"><ele>31.666666666666668</ele><time>2026-05-05T09:59:46.699Z</time></trkpt><trkpt lat="36.8564025" lon="10.3294027"><ele>31.333333333333336</ele><time>2026-05-05T09:59:48.72Z</time></trkpt><trkpt lat="36.8564854" lon="10.3294109"><ele>31.0</ele><time>2026-05-05T09:59:50.735Z</time></trkpt><trkpt lat="36.8565615" lon="10.3294266"><ele>31.000000000000004</ele><time>2026-05-05T09:59:53.72Z</time></trkpt><trkpt lat="36.8566496" lon="10.3294621"><ele>31.0</ele><time>2026-05-05T09:59:56.723Z</time></trkpt><trkpt lat="36.8567389" lon="10.329481"><ele>31.0</ele><time>2026-05-05T09:59:59.701Z</time></trkpt><trkpt lat="36.8567975" lon="10.3294206"><ele>31.0</ele><time>2026-05-05T10:00:03.699Z</time></trkpt><trkpt lat="36.8567386" lon="10.3293485"><ele>31.000000000000004</ele><time>2026-05-05T10:00:07.72Z</time></trkpt><trkpt lat="36.8566753" lon="10.3294041"><ele>31.0</ele><time>2026-05-05T10:00:10.722Z</time></trkpt><trkpt lat="36.8566194" lon="10.3294622"><ele>31.000000000000004</ele><time>2026-05-05T10:00:14.723Z</time></trkpt><trkpt lat="36.8565539" lon="10.3294323"><ele>31.0</ele><time>2026-05-05T10:00:17.718Z</time></trkpt><trkpt lat="36.8564637" lon="10.3294044"><ele>31.0</ele><time>2026-05-05T10:00:20.718Z</time></trkpt><trkpt lat="36.8563731" lon="10.3294036"><ele>31.0</ele><time>2026-05-05T10:00:22.708Z</time></trkpt><trkpt lat="36.8562702" lon="10.3294221"><ele>31.000000000000004</ele><time>2026-05-05T10:00:24.721Z</time></trkpt><trkpt lat="36.8561837" lon="10.3294342"><ele>31.0</ele><time>2026-05-05T10:00:26.705Z</time></trkpt><trkpt lat="36.8561085" lon="10.329397"><ele>31.000000000000004</ele><time>2026-05-05T10:00:28.727Z</time></trkpt><trkpt lat="36.8560465" lon="10.3293224"><ele>31.0</ele><time>2026-05-05T10:00:30.731Z</time></trkpt><trkpt lat="36.8559985" lon="10.3292375"><ele>31.0</ele><time>2026-05-05T10:00:32.71Z</time></trkpt><trkpt lat="36.8559224" lon="10.3291515"><ele>31.0</ele><time>2026-05-05T10:00:34.721Z</time></trkpt><trkpt lat="36.8558525" lon="10.3290697"><ele>31.000000000000004</ele><time>2026-05-05T10:00:36.68Z</time></trkpt><trkpt lat="36.8558325" lon="10.328979"><ele>31.0</ele><time>2026-05-05T10:00:39.69Z</time></trkpt><trkpt lat="36.8558628" lon="10.3288582"><ele>31.6</ele><time>2026-05-05T10:00:42.712Z</time></trkpt><trkpt lat="36.8559291" lon="10.3287044"><ele>32.2</ele><time>2026-05-05T10:00:44.714Z</time></trkpt><trkpt lat="36.8559575" lon="10.3286252"><ele>32.8</ele><time>2026-05-05T10:00:45.694Z</time></trkpt><trkpt lat="36.8559911" lon="10.3285485"><ele>33.4</ele><time>2026-05-05T10:00:46.685Z</time></trkpt><trkpt lat="36.856023" lon="10.328473"><ele>34.0</ele><time>2026-05-05T10:00:47.699Z</time></trkpt><trkpt lat="36.8560806" lon="10.3283508"><ele>33.99999999999999</ele><time>2026-05-05T10:00:49.71Z</time></trkpt><trkpt lat="36.8561312" lon="10.3282967"><ele>34.0</ele><time>2026-05-05T10:00:51.698Z</time></trkpt><trkpt lat="36.8561951" lon="10.3283088"><ele>34.0</ele><time>2026-05-05T10:00:54.713Z</time></trkpt><trkpt lat="36.8562324" lon="10.3283834"><ele>34.0</ele><time>2026-05-05T10:01:13.706Z</time></trkpt><trkpt lat="36.856206" lon="10.3284723"><ele>34.0</ele><time>2026-05-05T10:01:16.711Z</time></trkpt><trkpt lat="36.8561559" lon="10.3285525"><ele>33.99999999999999</ele><time>2026-05-05T10:01:19.686Z</time></trkpt><trkpt lat="36.8561331" lon="10.3286485"><ele>34.0</ele><time>2026-05-05T10:01:22.688Z</time></trkpt><trkpt lat="36.8561556" lon="10.3287232"><ele>34.0</ele><time>2026-05-05T10:01:25.721Z</time></trkpt><trkpt lat="36.8562042" lon="10.3287771"><ele>34.0</ele><time>2026-05-05T10:01:29.714Z</time></trkpt><trkpt lat="36.8562398" lon="10.3288422"><ele>34.0</ele><time>2026-05-05T10:01:40.729Z</time></trkpt><trkpt lat="36.8561769" lon="10.3288329"><ele>34.0</ele><time>2026-05-05T10:02:10.715Z</time></trkpt></trkseg><trkseg><trkpt lat="36.8562057" lon="10.3287759"><ele>34.0</ele><time>2026-05-05T10:31:46.692Z</time></trkpt><trkpt lat="36.8561715" lon="10.3286581"><ele>34.0</ele><time>2026-05-05T10:31:48.649Z</time></trkpt><trkpt lat="36.8561773" lon="10.328568"><ele>34.0</ele><time>2026-05-05T10:31:50.701Z</time></trkpt><trkpt lat="36.8561971" lon="10.3284684"><ele>34.0</ele><time>2026-05-05T10:31:52.659Z</time></trkpt><trkpt lat="36.856225" lon="10.328368"><ele>34.0</ele><time>2026-05-05T10:31:54.668Z</time></trkpt><trkpt lat="36.8562042" lon="10.3282801"><ele>34.0</ele><time>2026-05-05T10:31:57.704Z</time></trkpt><trkpt lat="36.856142" lon="10.3282547"><ele>34.0</ele><time>2026-05-05T10:32:15.678Z</time></trkpt><trkpt lat="36.8560881" lon="10.3283333"><ele>34.0</ele><time>2026-05-05T10:32:21.657Z</time></trkpt><trkpt lat="36.856034" lon="10.3284475"><ele>34.0</ele><time>2026-05-05T10:32:22.677Z</time></trkpt><trkpt lat="36.8559668" lon="10.3285757"><ele>34.0</ele><time>2026-05-05T10:32:23.688Z</time></trkpt><trkpt lat="36.8559127" lon="10.3286928"><ele>34.0</ele><time>2026-05-05T10:32:24.667Z</time></trkpt><trkpt lat="36.8558594" lon="10.3287978"><ele>33.0</ele><time>2026-05-05T10:32:25.681Z</time></trkpt><trkpt lat="36.855807" lon="10.3289041"><ele>32.0</ele><time>2026-05-05T10:32:26.699Z</time></trkpt><trkpt lat="36.8557557" lon="10.3290021"><ele>31.0</ele><time>2026-05-05T10:32:27.691Z</time></trkpt><trkpt lat="36.8557056" lon="10.3290888"><ele>30.0</ele><time>2026-05-05T10:32:28.681Z</time></trkpt><trkpt lat="36.8556579" lon="10.3291691"><ele>29.000000000000004</ele><time>2026-05-05T10:32:29.701Z</time></trkpt><trkpt lat="36.8556136" lon="10.3292575"><ele>28.0</ele><time>2026-05-05T10:32:30.692Z</time></trkpt><trkpt lat="36.8555665" lon="10.3293396"><ele>28.000000000000004</ele><time>2026-05-05T10:32:31.681Z</time></trkpt><trkpt lat="36.8555245" lon="10.3294271"><ele>28.0</ele><time>2026-05-05T10:32:32.671Z</time></trkpt><trkpt lat="36.8554802" lon="10.32952"><ele>28.0</ele><time>2026-05-05T10:32:33.688Z</time></trkpt><trkpt lat="36.8554308" lon="10.3296169"><ele>28.0</ele><time>2026-05-05T10:32:34.681Z</time></trkpt><trkpt lat="36.855384" lon="10.3297125"><ele>28.000000000000004</ele><time>2026-05-05T10:32:35.681Z</time></trkpt><trkpt lat="36.8553359" lon="10.3298166"><ele>28.0</ele><time>2026-05-05T10:32:36.685Z</time></trkpt><trkpt lat="36.8552887" lon="10.329917"><ele>27.599999999999998</ele><time>2026-05-05T10:32:37.688Z</time></trkpt><trkpt lat="36.8552389" lon="10.3300225"><ele>27.199999999999996</ele><time>2026-05-05T10:32:38.7Z</time></trkpt><trkpt lat="36.8551908" lon="10.3301249"><ele>26.8</ele><time>2026-05-05T10:32:39.684Z</time></trkpt><trkpt lat="36.8551535" lon="10.3302151"><ele>26.4</ele><time>2026-05-05T10:32:40.673Z</time></trkpt><trkpt lat="36.8551074" lon="10.3303176"><ele>26.0</ele><time>2026-05-05T10:32:41.683Z</time></trkpt><trkpt lat="36.8550641" lon="10.3304054"><ele>25.285714285714285</ele><time>2026-05-05T10:32:42.686Z</time></trkpt><trkpt lat="36.8550247" lon="10.3304924"><ele>24.571428571428573</ele><time>2026-05-05T10:32:43.687Z</time></trkpt><trkpt lat="36.8549845" lon="10.3305749"><ele>23.857142857142858</ele><time>2026-05-05T10:32:44.688Z</time></trkpt><trkpt lat="36.8549413" lon="10.3306506"><ele>23.142857142857142</ele><time>2026-05-05T10:32:45.682Z</time></trkpt><trkpt lat="36.8548882" lon="10.3307304"><ele>22.42857142857143</ele><time>2026-05-05T10:32:46.658Z</time></trkpt><trkpt lat="36.8548434" lon="10.3307926"><ele>21.714285714285715</ele><time>2026-05-05T10:32:47.679Z</time></trkpt><trkpt lat="36.8547947" lon="10.3308469"><ele>21.0</ele><time>2026-05-05T10:32:48.669Z</time></trkpt><trkpt lat="36.8547032" lon="10.3308914"><ele>20.333333333333332</ele><time>2026-05-05T10:32:50.69Z</time></trkpt><trkpt lat="36.8546252" lon="10.3309106"><ele>19.666666666666668</ele><time>2026-05-05T10:32:52.683Z</time></trkpt><trkpt lat="36.8545509" lon="10.3309021"><ele>19.0</ele><time>2026-05-05T10:32:54.668Z</time></trkpt><trkpt lat="36.8544612" lon="10.3308669"><ele>18.333333333333336</ele><time>2026-05-05T10:32:56.685Z</time></trkpt><trkpt lat="36.85437" lon="10.3308212"><ele>17.666666666666668</ele><time>2026-05-05T10:32:58.667Z</time></trkpt><trkpt lat="36.8542818" lon="10.3307658"><ele>17.0</ele><time>2026-05-05T10:33:00.674Z</time></trkpt><trkpt lat="36.8542028" lon="10.3307149"><ele>17.166666666666668</ele><time>2026-05-05T10:33:02.697Z</time></trkpt><trkpt lat="36.8541429" lon="10.3306653"><ele>17.333333333333336</ele><time>2026-05-05T10:33:04.686Z</time></trkpt><trkpt lat="36.8540883" lon="10.3306183"><ele>17.5</ele><time>2026-05-05T10:33:06.667Z</time></trkpt><trkpt lat="36.8540163" lon="10.3305595"><ele>17.666666666666668</ele><time>2026-05-05T10:33:08.698Z</time></trkpt><trkpt lat="36.8539011" lon="10.330473"><ele>17.833333333333332</ele><time>2026-05-05T10:33:10.685Z</time></trkpt><trkpt lat="36.8538364" lon="10.3304125"><ele>18.0</ele><time>2026-05-05T10:33:11.717Z</time></trkpt><trkpt lat="36.8537594" lon="10.330348"><ele>18.0</ele><time>2026-05-05T10:33:12.726Z</time></trkpt><trkpt lat="36.8536885" lon="10.3302817"><ele>18.0</ele><time>2026-05-05T10:33:13.684Z</time></trkpt><trkpt lat="36.8536098" lon="10.330216"><ele>18.0</ele><time>2026-05-05T10:33:14.686Z</time></trkpt><trkpt lat="36.8535196" lon="10.3301513"><ele>18.0</ele><time>2026-05-05T10:33:15.7Z</time></trkpt><trkpt lat="36.8534296" lon="10.3300803"><ele>18.0</ele><time>2026-05-05T10:33:16.697Z</time></trkpt><trkpt lat="36.8533408" lon="10.3300155"><ele>17.833333333333332</ele><time>2026-05-05T10:33:17.696Z</time></trkpt><trkpt lat="36.8532563" lon="10.3299576"><ele>17.666666666666668</ele><time>2026-05-05T10:33:18.691Z</time></trkpt><trkpt lat="36.8531827" lon="10.3299015"><ele>17.5</ele><time>2026-05-05T10:33:19.699Z</time></trkpt><trkpt lat="36.8531081" lon="10.3298447"><ele>17.333333333333336</ele><time>2026-05-05T10:33:20.706Z</time></trkpt><trkpt lat="36.8530326" lon="10.3297957"><ele>17.166666666666668</ele><time>2026-05-05T10:33:21.7Z</time></trkpt><trkpt lat="36.8529688" lon="10.3297524"><ele>17.0</ele><time>2026-05-05T10:33:22.697Z</time></trkpt><trkpt lat="36.8529086" lon="10.329713"><ele>17.0</ele><time>2026-05-05T10:33:23.689Z</time></trkpt><trkpt lat="36.852813" lon="10.3296519"><ele>17.0</ele><time>2026-05-05T10:33:25.724Z</time></trkpt><trkpt lat="36.8527534" lon="10.3296167"><ele>17.0</ele><time>2026-05-05T10:33:27.708Z</time></trkpt><trkpt lat="36.8526934" lon="10.3295771"><ele>17.0</ele><time>2026-05-05T10:33:31.702Z</time></trkpt><trkpt lat="36.8526311" lon="10.3296151"><ele>17.0</ele><time>2026-05-05T10:33:34.673Z</time></trkpt><trkpt lat="36.852587" lon="10.3297172"><ele>17.0</ele><time>2026-05-05T10:33:36.687Z</time></trkpt><trkpt lat="36.8525528" lon="10.3298387"><ele>16.0</ele><time>2026-05-05T10:33:38.682Z</time></trkpt><trkpt lat="36.8524727" lon="10.3299832"><ele>15.0</ele><time>2026-05-05T10:33:40.7Z</time></trkpt><trkpt lat="36.8524301" lon="10.3300713"><ele>14.0</ele><time>2026-05-05T10:33:41.687Z</time></trkpt><trkpt lat="36.8523823" lon="10.3301619"><ele>13.0</ele><time>2026-05-05T10:33:42.684Z</time></trkpt><trkpt lat="36.8523385" lon="10.330253"><ele>12.0</ele><time>2026-05-05T10:33:43.711Z</time></trkpt><trkpt lat="36.8522926" lon="10.3303476"><ele>12.0</ele><time>2026-05-05T10:33:44.705Z</time></trkpt><trkpt lat="36.8522549" lon="10.3304383"><ele>12.0</ele><time>2026-05-05T10:33:45.703Z</time></trkpt><trkpt lat="36.8522087" lon="10.3305294"><ele>12.0</ele><time>2026-05-05T10:33:46.683Z</time></trkpt><trkpt lat="36.8521619" lon="10.3306165"><ele>12.0</ele><time>2026-05-05T10:33:47.706Z</time></trkpt><trkpt lat="36.8521176" lon="10.3306973"><ele>12.0</ele><time>2026-05-05T10:33:48.711Z</time></trkpt><trkpt lat="36.8520762" lon="10.3307843"><ele>12.0</ele><time>2026-05-05T10:33:49.695Z</time></trkpt><trkpt lat="36.8520354" lon="10.3308667"><ele>11.666666666666666</ele><time>2026-05-05T10:33:50.672Z</time></trkpt><trkpt lat="36.8519981" lon="10.3309443"><ele>11.333333333333334</ele><time>2026-05-05T10:33:51.7Z</time></trkpt><trkpt lat="36.8519652" lon="10.3310206"><ele>11.0</ele><time>2026-05-05T10:33:52.692Z</time></trkpt><trkpt lat="36.8519078" lon="10.3311391"><ele>10.666666666666668</ele><time>2026-05-05T10:33:54.676Z</time></trkpt><trkpt lat="36.8518505" lon="10.3311986"><ele>10.333333333333334</ele><time>2026-05-05T10:33:56.7Z</time></trkpt><trkpt lat="36.8517864" lon="10.3312164"><ele>10.0</ele><time>2026-05-05T10:33:58.73Z</time></trkpt><trkpt lat="36.8516978" lon="10.3311558"><ele>9.6</ele><time>2026-05-05T10:34:00.706Z</time></trkpt><trkpt lat="36.8516112" lon="10.3310735"><ele>9.2</ele><time>2026-05-05T10:34:02.686Z</time></trkpt><trkpt lat="36.8515146" lon="10.3309931"><ele>8.8</ele><time>2026-05-05T10:34:04.676Z</time></trkpt><trkpt lat="36.8514417" lon="10.3309345"><ele>8.4</ele><time>2026-05-05T10:34:06.711Z</time></trkpt><trkpt lat="36.8513722" lon="10.3308861"><ele>8.0</ele><time>2026-05-05T10:34:08.695Z</time></trkpt><trkpt lat="36.8513056" lon="10.3308361"><ele>8.0</ele><time>2026-05-05T10:34:10.69Z</time></trkpt><trkpt lat="36.8512265" lon="10.3307641"><ele>8.0</ele><time>2026-05-05T10:34:12.705Z</time></trkpt><trkpt lat="36.8511435" lon="10.3306921"><ele>8.0</ele><time>2026-05-05T10:34:14.697Z</time></trkpt><trkpt lat="36.8510564" lon="10.3306299"><ele>8.0</ele><time>2026-05-05T10:34:16.72Z</time></trkpt><trkpt lat="36.850951" lon="10.330564"><ele>8.0</ele><time>2026-05-05T10:34:18.652Z</time></trkpt><trkpt lat="36.8508427" lon="10.3304984"><ele>7.833333333333333</ele><time>2026-05-05T10:34:20.719Z</time></trkpt><trkpt lat="36.8507346" lon="10.3304345"><ele>7.666666666666666</ele><time>2026-05-05T10:34:22.699Z</time></trkpt><trkpt lat="36.8506799" lon="10.3303952"><ele>7.5</ele><time>2026-05-05T10:34:23.679Z</time></trkpt><trkpt lat="36.8506247" lon="10.3303541"><ele>7.333333333333334</ele><time>2026-05-05T10:34:24.688Z</time></trkpt><trkpt lat="36.8505708" lon="10.3303086"><ele>7.166666666666667</ele><time>2026-05-05T10:34:25.701Z</time></trkpt><trkpt lat="36.8505089" lon="10.3302645"><ele>7.0</ele><time>2026-05-05T10:34:26.703Z</time></trkpt><trkpt lat="36.8504078" lon="10.3301877"><ele>7.0</ele><time>2026-05-05T10:34:28.686Z</time></trkpt><trkpt lat="36.8503286" lon="10.3301142"><ele>6.999999999999999</ele><time>2026-05-05T10:34:30.707Z</time></trkpt><trkpt lat="36.8502268" lon="10.3300409"><ele>6.999999999999999</ele><time>2026-05-05T10:34:32.701Z</time></trkpt><trkpt lat="36.8501133" lon="10.3299772"><ele>7.0</ele><time>2026-05-05T10:34:34.705Z</time></trkpt><trkpt lat="36.8500542" lon="10.329944"><ele>7.0</ele><time>2026-05-05T10:34:35.685Z</time></trkpt><trkpt lat="36.8499977" lon="10.3298892"><ele>7.000000000000001</ele><time>2026-05-05T10:34:36.701Z</time></trkpt><trkpt lat="36.8499469" lon="10.3298311"><ele>7.0</ele><time>2026-05-05T10:34:37.708Z</time></trkpt><trkpt lat="36.8498989" lon="10.3297746"><ele>7.0</ele><time>2026-05-05T10:34:38.709Z</time></trkpt><trkpt lat="36.8498442" lon="10.3297239"><ele>7.0</ele><time>2026-05-05T10:34:39.714Z</time></trkpt><trkpt lat="36.8497533" lon="10.3296237"><ele>7.000000000000001</ele><time>2026-05-05T10:34:41.706Z</time></trkpt><trkpt lat="36.8496933" lon="10.3295463"><ele>7.0</ele><time>2026-05-05T10:34:43.739Z</time></trkpt><trkpt lat="36.8496283" lon="10.3294635"><ele>7.0</ele><time>2026-05-05T10:34:45.704Z</time></trkpt><trkpt lat="36.849561" lon="10.3293827"><ele>6.999999999999999</ele><time>2026-05-05T10:34:47.718Z</time></trkpt><trkpt lat="36.8494868" lon="10.3293007"><ele>6.999999999999999</ele><time>2026-05-05T10:34:49.705Z</time></trkpt><trkpt lat="36.8494123" lon="10.3292214"><ele>7.0</ele><time>2026-05-05T10:34:51.701Z</time></trkpt><trkpt lat="36.8493158" lon="10.3291496"><ele>7.0</ele><time>2026-05-05T10:34:53.668Z</time></trkpt><trkpt lat="36.8492296" lon="10.3290733"><ele>6.6</ele><time>2026-05-05T10:34:55.707Z</time></trkpt><trkpt lat="36.8491346" lon="10.3290003"><ele>6.199999999999999</ele><time>2026-05-05T10:34:57.699Z</time></trkpt><trkpt lat="36.8490795" lon="10.3289542"><ele>5.8</ele><time>2026-05-05T10:34:58.698Z</time></trkpt><trkpt lat="36.8490337" lon="10.3289002"><ele>5.4</ele><time>2026-05-05T10:34:59.697Z</time></trkpt><trkpt lat="36.8489415" lon="10.328805"><ele>5.0</ele><time>2026-05-05T10:35:01.697Z</time></trkpt><trkpt lat="36.8488536" lon="10.3287346"><ele>5.0</ele><time>2026-05-05T10:35:03.682Z</time></trkpt><trkpt lat="36.8487777" lon="10.3286827"><ele>5.0</ele><time>2026-05-05T10:35:05.691Z</time></trkpt><trkpt lat="36.8486946" lon="10.3285868"><ele>5.0</ele><time>2026-05-05T10:35:07.701Z</time></trkpt><trkpt lat="36.8485865" lon="10.3284771"><ele>5.0</ele><time>2026-05-05T10:35:09.696Z</time></trkpt><trkpt lat="36.8485229" lon="10.3284244"><ele>5.0</ele><time>2026-05-05T10:35:10.689Z</time></trkpt><trkpt lat="36.8484637" lon="10.328374"><ele>5.0</ele><time>2026-05-05T10:35:11.71Z</time></trkpt><trkpt lat="36.8483716" lon="10.3282921"><ele>5.0</ele><time>2026-05-05T10:35:13.694Z</time></trkpt><trkpt lat="36.8482908" lon="10.3282105"><ele>5.0</ele><time>2026-05-05T10:35:15.696Z</time></trkpt><trkpt lat="36.8482119" lon="10.3281238"><ele>5.0</ele><time>2026-05-05T10:35:17.7Z</time></trkpt><trkpt lat="36.8481195" lon="10.3280514"><ele>5.0</ele><time>2026-05-05T10:35:19.691Z</time></trkpt><trkpt lat="36.8480256" lon="10.3279589"><ele>5.0</ele><time>2026-05-05T10:35:21.697Z</time></trkpt><trkpt lat="36.8479389" lon="10.3278705"><ele>5.0</ele><time>2026-05-05T10:35:23.692Z</time></trkpt><trkpt lat="36.8478498" lon="10.3277961"><ele>5.0</ele><time>2026-05-05T10:35:25.713Z</time></trkpt><trkpt lat="36.8477694" lon="10.3277197"><ele>5.0</ele><time>2026-05-05T10:35:27.705Z</time></trkpt><trkpt lat="36.8476897" lon="10.3276526"><ele>5.0</ele><time>2026-05-05T10:35:29.684Z</time></trkpt><trkpt lat="36.8476008" lon="10.3275673"><ele>5.0</ele><time>2026-05-05T10:35:31.709Z</time></trkpt><trkpt lat="36.8475182" lon="10.3275053"><ele>5.0</ele><time>2026-05-05T10:35:33.689Z</time></trkpt><trkpt lat="36.8474448" lon="10.3274325"><ele>5.0</ele><time>2026-05-05T10:35:35.725Z</time></trkpt><trkpt lat="36.8473782" lon="10.3273693"><ele>5.0</ele><time>2026-05-05T10:35:37.699Z</time></trkpt><trkpt lat="36.8473176" lon="10.3273033"><ele>5.0</ele><time>2026-05-05T10:35:40.686Z</time></trkpt><trkpt lat="36.8472531" lon="10.3272699"><ele>5.0</ele><time>2026-05-05T10:35:43.704Z</time></trkpt><trkpt lat="36.8472012" lon="10.327322"><ele>5.0</ele><time>2026-05-05T10:35:45.713Z</time></trkpt><trkpt lat="36.8471484" lon="10.3274178"><ele>5.0</ele><time>2026-05-05T10:35:47.699Z</time></trkpt><trkpt lat="36.8471111" lon="10.3275018"><ele>5.0</ele><time>2026-05-05T10:35:49.718Z</time></trkpt><trkpt lat="36.8470709" lon="10.3275784"><ele>5.0</ele><time>2026-05-05T10:35:51.7Z</time></trkpt><trkpt lat="36.8470383" lon="10.3276515"><ele>5.0</ele><time>2026-05-05T10:35:53.676Z</time></trkpt><trkpt lat="36.8470002" lon="10.3277237"><ele>5.0</ele><time>2026-05-05T10:35:55.693Z</time></trkpt><trkpt lat="36.8469601" lon="10.3278161"><ele>5.0</ele><time>2026-05-05T10:35:58.687Z</time></trkpt><trkpt lat="36.846865" lon="10.3278144"><ele>5.0</ele><time>2026-05-05T10:36:02.674Z</time></trkpt><trkpt lat="36.846808" lon="10.3277751"><ele>5.0</ele><time>2026-05-05T10:36:03.68Z</time></trkpt><trkpt lat="36.8467489" lon="10.3277274"><ele>5.0</ele><time>2026-05-05T10:36:04.67Z</time></trkpt><trkpt lat="36.8466528" lon="10.3276467"><ele>5.0</ele><time>2026-05-05T10:36:06.691Z</time></trkpt><trkpt lat="36.8465683" lon="10.3275744"><ele>5.0</ele><time>2026-05-05T10:36:08.691Z</time></trkpt><trkpt lat="36.8464901" lon="10.327512"><ele>5.0</ele><time>2026-05-05T10:36:10.683Z</time></trkpt><trkpt lat="36.8464261" lon="10.3274649"><ele>5.0</ele><time>2026-05-05T10:36:12.693Z</time></trkpt><trkpt lat="36.8463571" lon="10.3274229"><ele>5.0</ele><time>2026-05-05T10:36:14.671Z</time></trkpt><trkpt lat="36.8462726" lon="10.327383"><ele>5.0</ele><time>2026-05-05T10:36:16.69Z</time></trkpt><trkpt lat="36.8461995" lon="10.3273339"><ele>5.0</ele><time>2026-05-05T10:36:18.699Z</time></trkpt><trkpt lat="36.8461231" lon="10.3272835"><ele>5.0</ele><time>2026-05-05T10:36:20.688Z</time></trkpt><trkpt lat="36.8460559" lon="10.3272447"><ele>5.0</ele><time>2026-05-05T10:36:22.688Z</time></trkpt><trkpt lat="36.8460012" lon="10.3271974"><ele>5.0</ele><time>2026-05-05T10:36:25.662Z</time></trkpt><trkpt lat="36.8459442" lon="10.3271474"><ele>5.0</ele><time>2026-05-05T10:36:30.706Z</time></trkpt><trkpt lat="36.8458884" lon="10.327098"><ele>5.0</ele><time>2026-05-05T10:36:36.648Z</time></trkpt><trkpt lat="36.845832" lon="10.3270425"><ele>5.0</ele><time>2026-05-05T10:36:46.68Z</time></trkpt><trkpt lat="36.8458587" lon="10.3269707"><ele>5.0</ele><time>2026-05-05T10:36:51.696Z</time></trkpt><trkpt lat="36.8459203" lon="10.3269318"><ele>5.0</ele><time>2026-05-05T10:36:56.685Z</time></trkpt><trkpt lat="36.845964" lon="10.3268582"><ele>5.0</ele><time>2026-05-05T10:37:00.705Z</time></trkpt><trkpt lat="36.8460026" lon="10.3267895"><ele>5.0</ele><time>2026-05-05T10:37:04.68Z</time></trkpt><trkpt lat="36.8460549" lon="10.3266976"><ele>5.0</ele><time>2026-05-05T10:37:07.692Z</time></trkpt><trkpt lat="36.8461001" lon="10.3266351"><ele>5.0</ele><time>2026-05-05T10:37:09.699Z</time></trkpt><trkpt lat="36.8461479" lon="10.3265537"><ele>5.0</ele><time>2026-05-05T10:37:11.698Z</time></trkpt><trkpt lat="36.8461878" lon="10.3264567"><ele>5.0</ele><time>2026-05-05T10:37:13.68Z</time></trkpt><trkpt lat="36.8462242" lon="10.326366"><ele>4.833333333333334</ele><time>2026-05-05T10:37:15.718Z</time></trkpt><trkpt lat="36.8462593" lon="10.3262817"><ele>4.666666666666667</ele><time>2026-05-05T10:37:17.713Z</time></trkpt><trkpt lat="36.8462856" lon="10.3262087"><ele>4.5</ele><time>2026-05-05T10:37:19.702Z</time></trkpt><trkpt lat="36.846305" lon="10.3261195"><ele>4.333333333333333</ele><time>2026-05-05T10:37:22.717Z</time></trkpt><trkpt lat="36.8463335" lon="10.3260161"><ele>4.166666666666666</ele><time>2026-05-05T10:37:25.695Z</time></trkpt><trkpt lat="36.8463671" lon="10.3259195"><ele>4.0</ele><time>2026-05-05T10:37:27.7Z</time></trkpt><trkpt lat="36.8464078" lon="10.3258192"><ele>4.0</ele><time>2026-05-05T10:37:29.698Z</time></trkpt><trkpt lat="36.8464437" lon="10.3257088"><ele>4.0</ele><time>2026-05-05T10:37:31.715Z</time></trkpt><trkpt lat="36.8464822" lon="10.3256024"><ele>4.0</ele><time>2026-05-05T10:37:33.71Z</time></trkpt><trkpt lat="36.8464971" lon="10.3254823"><ele>4.0</ele><time>2026-05-05T10:37:35.703Z</time></trkpt><trkpt lat="36.8464884" lon="10.3253772"><ele>4.0</ele><time>2026-05-05T10:37:37.67Z</time></trkpt><trkpt lat="36.8464653" lon="10.3252804"><ele>4.166666666666666</ele><time>2026-05-05T10:37:39.685Z</time></trkpt><trkpt lat="36.8464436" lon="10.3251986"><ele>4.333333333333333</ele><time>2026-05-05T10:37:41.689Z</time></trkpt><trkpt lat="36.8464192" lon="10.3251058"><ele>4.5</ele><time>2026-05-05T10:37:43.705Z</time></trkpt><trkpt lat="36.846396" lon="10.3250238"><ele>4.666666666666667</ele><time>2026-05-05T10:37:45.677Z</time></trkpt><trkpt lat="36.8463675" lon="10.3249326"><ele>4.833333333333334</ele><time>2026-05-05T10:37:47.699Z</time></trkpt><trkpt lat="36.846343" lon="10.3248351"><ele>5.0</ele><time>2026-05-05T10:37:49.706Z</time></trkpt><trkpt lat="36.8463102" lon="10.3247344"><ele>5.166666666666667</ele><time>2026-05-05T10:37:51.692Z</time></trkpt><trkpt lat="36.8462814" lon="10.3246468"><ele>5.333333333333334</ele><time>2026-05-05T10:37:53.714Z</time></trkpt><trkpt lat="36.8462507" lon="10.3245754"><ele>5.5</ele><time>2026-05-05T10:37:55.703Z</time></trkpt><trkpt lat="36.8462071" lon="10.3244948"><ele>5.666666666666667</ele><time>2026-05-05T10:37:57.705Z</time></trkpt><trkpt lat="36.8461392" lon="10.3244174"><ele>5.833333333333333</ele><time>2026-05-05T10:37:59.697Z</time></trkpt><trkpt lat="36.8460675" lon="10.3243349"><ele>6.0</ele><time>2026-05-05T10:38:01.696Z</time></trkpt><trkpt lat="36.8459912" lon="10.3242368"><ele>6.0</ele><time>2026-05-05T10:38:03.707Z</time></trkpt><trkpt lat="36.8458938" lon="10.3241464"><ele>6.0</ele><time>2026-05-05T10:38:05.711Z</time></trkpt><trkpt lat="36.8457836" lon="10.3240666"><ele>6.0</ele><time>2026-05-05T10:38:07.696Z</time></trkpt><trkpt lat="36.8456862" lon="10.3239785"><ele>6.0</ele><time>2026-05-05T10:38:09.723Z</time></trkpt><trkpt lat="36.8455827" lon="10.3238998"><ele>5.833333333333333</ele><time>2026-05-05T10:38:11.686Z</time></trkpt><trkpt lat="36.8454855" lon="10.323851"><ele>5.666666666666667</ele><time>2026-05-05T10:38:13.693Z</time></trkpt><trkpt lat="36.8454013" lon="10.3238119"><ele>5.5</ele><time>2026-05-05T10:38:15.665Z</time></trkpt><trkpt lat="36.8453294" lon="10.3237822"><ele>5.333333333333334</ele><time>2026-05-05T10:38:17.688Z</time></trkpt><trkpt lat="36.8452572" lon="10.3237512"><ele>5.166666666666667</ele><time>2026-05-05T10:38:19.704Z</time></trkpt><trkpt lat="36.84516" lon="10.3237262"><ele>5.0</ele><time>2026-05-05T10:38:21.706Z</time></trkpt><trkpt lat="36.845059" lon="10.3237023"><ele>5.0</ele><time>2026-05-05T10:38:23.696Z</time></trkpt><trkpt lat="36.8449464" lon="10.3236748"><ele>5.0</ele><time>2026-05-05T10:38:25.706Z</time></trkpt><trkpt lat="36.8448823" lon="10.3236559"><ele>5.0</ele><time>2026-05-05T10:38:26.707Z</time></trkpt><trkpt lat="36.8448219" lon="10.3236337"><ele>5.0</ele><time>2026-05-05T10:38:27.708Z</time></trkpt><trkpt lat="36.8447229" lon="10.3236022"><ele>5.0</ele><time>2026-05-05T10:38:29.719Z</time></trkpt><trkpt lat="36.8446594" lon="10.3235542"><ele>5.0</ele><time>2026-05-05T10:38:32.696Z</time></trkpt><trkpt lat="36.8446932" lon="10.3234391"><ele>5.0</ele><time>2026-05-05T10:38:35.695Z</time></trkpt><trkpt lat="36.8447598" lon="10.323333"><ele>5.0</ele><time>2026-05-05T10:38:37.698Z</time></trkpt><trkpt lat="36.8448109" lon="10.3232738"><ele>5.0</ele><time>2026-05-05T10:38:38.701Z</time></trkpt><trkpt lat="36.8448542" lon="10.323207"><ele>5.0</ele><time>2026-05-05T10:38:39.7Z</time></trkpt><trkpt lat="36.8448947" lon="10.3231345"><ele>5.0</ele><time>2026-05-05T10:38:40.699Z</time></trkpt><trkpt lat="36.8449367" lon="10.3230709"><ele>5.0</ele><time>2026-05-05T10:38:41.691Z</time></trkpt><trkpt lat="36.8449823" lon="10.3230084"><ele>5.333333333333334</ele><time>2026-05-05T10:38:42.663Z</time></trkpt><trkpt lat="36.8450212" lon="10.3229307"><ele>5.666666666666667</ele><time>2026-05-05T10:38:43.668Z</time></trkpt><trkpt lat="36.8450632" lon="10.3228637"><ele>6.0</ele><time>2026-05-05T10:38:44.697Z</time></trkpt><trkpt lat="36.8451325" lon="10.3227633"><ele>6.333333333333334</ele><time>2026-05-05T10:38:46.689Z</time></trkpt><trkpt lat="36.8451948" lon="10.3226769"><ele>6.666666666666667</ele><time>2026-05-05T10:38:48.725Z</time></trkpt><trkpt lat="36.8452435" lon="10.3226034"><ele>7.0</ele><time>2026-05-05T10:38:51.69Z</time></trkpt><trkpt lat="36.8452805" lon="10.3225329"><ele>7.000000000000001</ele><time>2026-05-05T10:38:54.691Z</time></trkpt><trkpt lat="36.8453208" lon="10.3224723"><ele>7.0</ele><time>2026-05-05T10:39:00.693Z</time></trkpt><trkpt lat="36.8453268" lon="10.3223417"><ele>7.0</ele><time>2026-05-05T10:39:15.706Z</time></trkpt><trkpt lat="36.8452697" lon="10.3222268"><ele>7.0</ele><time>2026-05-05T10:39:17.684Z</time></trkpt><trkpt lat="36.8452146" lon="10.3221715"><ele>7.000000000000001</ele><time>2026-05-05T10:39:18.705Z</time></trkpt><trkpt lat="36.8451573" lon="10.3221092"><ele>7.0</ele><time>2026-05-05T10:39:19.696Z</time></trkpt><trkpt lat="36.845084" lon="10.3220431"><ele>7.0</ele><time>2026-05-05T10:39:20.689Z</time></trkpt><trkpt lat="36.8449957" lon="10.3219494"><ele>7.0</ele><time>2026-05-05T10:39:21.701Z</time></trkpt><trkpt lat="36.8448907" lon="10.3218424"><ele>7.0</ele><time>2026-05-05T10:39:22.707Z</time></trkpt><trkpt lat="36.8447994" lon="10.3217349"><ele>7.0</ele><time>2026-05-05T10:39:23.707Z</time></trkpt><trkpt lat="36.8447236" lon="10.3216554"><ele>7.0</ele><time>2026-05-05T10:39:24.688Z</time></trkpt><trkpt lat="36.8446402" lon="10.3215811"><ele>6.999999999999999</ele><time>2026-05-05T10:39:25.709Z</time></trkpt><trkpt lat="36.8445568" lon="10.3215259"><ele>6.999999999999999</ele><time>2026-05-05T10:39:26.703Z</time></trkpt><trkpt lat="36.8444774" lon="10.3214616"><ele>7.0</ele><time>2026-05-05T10:39:27.664Z</time></trkpt><trkpt lat="36.8444007" lon="10.3214028"><ele>7.0</ele><time>2026-05-05T10:39:28.704Z</time></trkpt><trkpt lat="36.8443223" lon="10.3213407"><ele>7.333333333333334</ele><time>2026-05-05T10:39:29.714Z</time></trkpt><trkpt lat="36.8442406" lon="10.3212862"><ele>7.666666666666667</ele><time>2026-05-05T10:39:30.703Z</time></trkpt><trkpt lat="36.8441679" lon="10.321236"><ele>8.0</ele><time>2026-05-05T10:39:31.694Z</time></trkpt><trkpt lat="36.8440965" lon="10.3211994"><ele>8.333333333333334</ele><time>2026-05-05T10:39:32.711Z</time></trkpt><trkpt lat="36.8440243" lon="10.321157"><ele>8.666666666666666</ele><time>2026-05-05T10:39:33.707Z</time></trkpt><trkpt lat="36.8439496" lon="10.3211175"><ele>9.0</ele><time>2026-05-05T10:39:34.708Z</time></trkpt><trkpt lat="36.8438813" lon="10.3210765"><ele>9.0</ele><time>2026-05-05T10:39:35.711Z</time></trkpt><trkpt lat="36.8438088" lon="10.3210344"><ele>9.0</ele><time>2026-05-05T10:39:36.709Z</time></trkpt><trkpt lat="36.8437432" lon="10.320989"><ele>9.0</ele><time>2026-05-05T10:39:37.706Z</time></trkpt><trkpt lat="36.8436728" lon="10.3209445"><ele>9.0</ele><time>2026-05-05T10:39:38.69Z</time></trkpt><trkpt lat="36.8435978" lon="10.3209064"><ele>9.0</ele><time>2026-05-05T10:39:39.692Z</time></trkpt><trkpt lat="36.8435202" lon="10.3208626"><ele>9.0</ele><time>2026-05-05T10:39:40.724Z</time></trkpt><trkpt lat="36.8434421" lon="10.3208136"><ele>9.0</ele><time>2026-05-05T10:39:41.716Z</time></trkpt><trkpt lat="36.8433712" lon="10.3207675"><ele>9.0</ele><time>2026-05-05T10:39:42.712Z</time></trkpt><trkpt lat="36.8432987" lon="10.3207201"><ele>9.0</ele><time>2026-05-05T10:39:43.702Z</time></trkpt><trkpt lat="36.8432171" lon="10.3206717"><ele>9.0</ele><time>2026-05-05T10:39:44.689Z</time></trkpt><trkpt lat="36.8431332" lon="10.3206235"><ele>9.0</ele><time>2026-05-05T10:39:45.684Z</time></trkpt><trkpt lat="36.8430493" lon="10.3205717"><ele>9.0</ele><time>2026-05-05T10:39:46.699Z</time></trkpt><trkpt lat="36.842965" lon="10.3205282"><ele>8.833333333333334</ele><time>2026-05-05T10:39:47.694Z</time></trkpt><trkpt lat="36.8428787" lon="10.3204821"><ele>8.666666666666666</ele><time>2026-05-05T10:39:48.702Z</time></trkpt><trkpt lat="36.8427962" lon="10.3204361"><ele>8.5</ele><time>2026-05-05T10:39:49.707Z</time></trkpt><trkpt lat="36.8427199" lon="10.3203877"><ele>8.333333333333332</ele><time>2026-05-05T10:39:50.691Z</time></trkpt><trkpt lat="36.8426478" lon="10.320347"><ele>8.166666666666666</ele><time>2026-05-05T10:39:51.69Z</time></trkpt><trkpt lat="36.8425811" lon="10.320301"><ele>8.0</ele><time>2026-05-05T10:39:52.711Z</time></trkpt><trkpt lat="36.8425118" lon="10.3202493"><ele>8.0</ele><time>2026-05-05T10:39:53.711Z</time></trkpt><trkpt lat="36.84244" lon="10.3201988"><ele>7.999999999999999</ele><time>2026-05-05T10:39:54.68Z</time></trkpt><trkpt lat="36.8423733" lon="10.3201545"><ele>8.0</ele><time>2026-05-05T10:39:55.691Z</time></trkpt><trkpt lat="36.8423033" lon="10.3201148"><ele>8.0</ele><time>2026-05-05T10:39:56.695Z</time></trkpt><trkpt lat="36.8422377" lon="10.3200736"><ele>7.999999999999999</ele><time>2026-05-05T10:39:57.698Z</time></trkpt><trkpt lat="36.8421752" lon="10.320034"><ele>8.0</ele><time>2026-05-05T10:39:58.7Z</time></trkpt><trkpt lat="36.8421132" lon="10.3199984"><ele>8.0</ele><time>2026-05-05T10:39:59.702Z</time></trkpt><trkpt lat="36.842052" lon="10.319959"><ele>7.999999999999999</ele><time>2026-05-05T10:40:00.704Z</time></trkpt><trkpt lat="36.8419459" lon="10.3198935"><ele>8.0</ele><time>2026-05-05T10:40:02.693Z</time></trkpt><trkpt lat="36.8418868" lon="10.3198576"><ele>8.0</ele><time>2026-05-05T10:40:03.697Z</time></trkpt><trkpt lat="36.8418283" lon="10.3198248"><ele>8.0</ele><time>2026-05-05T10:40:04.691Z</time></trkpt><trkpt lat="36.8417636" lon="10.319795"><ele>7.999999999999999</ele><time>2026-05-05T10:40:05.696Z</time></trkpt><trkpt lat="36.8416971" lon="10.3197652"><ele>8.0</ele><time>2026-05-05T10:40:06.7Z</time></trkpt><trkpt lat="36.8416296" lon="10.3197372"><ele>7.4</ele><time>2026-05-05T10:40:07.702Z</time></trkpt><trkpt lat="36.8415607" lon="10.3197084"><ele>6.800000000000001</ele><time>2026-05-05T10:40:08.708Z</time></trkpt><trkpt lat="36.8414976" lon="10.3196722"><ele>6.2</ele><time>2026-05-05T10:40:09.701Z</time></trkpt><trkpt lat="36.8414328" lon="10.319635"><ele>5.6</ele><time>2026-05-05T10:40:10.689Z</time></trkpt><trkpt lat="36.841322" lon="10.3195687"><ele>5.0</ele><time>2026-05-05T10:40:12.706Z</time></trkpt><trkpt lat="36.841212" lon="10.3195104"><ele>5.0</ele><time>2026-05-05T10:40:14.714Z</time></trkpt><trkpt lat="36.8410943" lon="10.3194509"><ele>5.0</ele><time>2026-05-05T10:40:16.71Z</time></trkpt><trkpt lat="36.8410371" lon="10.3194079"><ele>5.0</ele><time>2026-05-05T10:40:17.706Z</time></trkpt><trkpt lat="36.8409801" lon="10.3193627"><ele>5.0</ele><time>2026-05-05T10:40:18.706Z</time></trkpt><trkpt lat="36.8409225" lon="10.3193232"><ele>5.0</ele><time>2026-05-05T10:40:19.653Z</time></trkpt><trkpt lat="36.8408229" lon="10.3192592"><ele>5.0</ele><time>2026-05-05T10:40:21.712Z</time></trkpt><trkpt lat="36.8407242" lon="10.3192047"><ele>4.833333333333334</ele><time>2026-05-05T10:40:23.688Z</time></trkpt><trkpt lat="36.8406524" lon="10.3191779"><ele>4.666666666666667</ele><time>2026-05-05T10:40:26.68Z</time></trkpt><trkpt lat="36.8405891" lon="10.319126"><ele>4.5</ele><time>2026-05-05T10:40:29.68Z</time></trkpt><trkpt lat="36.8405255" lon="10.3190829"><ele>4.333333333333333</ele><time>2026-05-05T10:40:31.68Z</time></trkpt><trkpt lat="36.8404626" lon="10.3190265"><ele>4.166666666666666</ele><time>2026-05-05T10:40:33.7Z</time></trkpt><trkpt lat="36.8403885" lon="10.318968"><ele>4.0</ele><time>2026-05-05T10:40:35.701Z</time></trkpt><trkpt lat="36.8403105" lon="10.3189265"><ele>4.166666666666666</ele><time>2026-05-05T10:40:37.702Z</time></trkpt><trkpt lat="36.8402343" lon="10.318877"><ele>4.333333333333333</ele><time>2026-05-05T10:40:39.666Z</time></trkpt><trkpt lat="36.8401809" lon="10.3188189"><ele>4.5</ele><time>2026-05-05T10:40:41.671Z</time></trkpt><trkpt lat="36.8401124" lon="10.3187684"><ele>4.666666666666667</ele><time>2026-05-05T10:40:43.699Z</time></trkpt><trkpt lat="36.8400235" lon="10.318728"><ele>4.833333333333334</ele><time>2026-05-05T10:40:45.659Z</time></trkpt><trkpt lat="36.839937" lon="10.3186704"><ele>5.0</ele><time>2026-05-05T10:40:47.699Z</time></trkpt><trkpt lat="36.8398275" lon="10.3186078"><ele>5.0</ele><time>2026-05-05T10:40:49.7Z</time></trkpt><trkpt lat="36.8397652" lon="10.3185779"><ele>5.0</ele><time>2026-05-05T10:40:50.707Z</time></trkpt><trkpt lat="36.8397092" lon="10.3185411"><ele>5.0</ele><time>2026-05-05T10:40:51.685Z</time></trkpt><trkpt lat="36.8396501" lon="10.3185014"><ele>5.0</ele><time>2026-05-05T10:40:52.7Z</time></trkpt><trkpt lat="36.8395871" lon="10.3184627"><ele>5.0</ele><time>2026-05-05T10:40:53.694Z</time></trkpt><trkpt lat="36.8395262" lon="10.3184231"><ele>5.0</ele><time>2026-05-05T10:40:54.703Z</time></trkpt><trkpt lat="36.8394616" lon="10.3183875"><ele>5.0</ele><time>2026-05-05T10:40:55.73Z</time></trkpt><trkpt lat="36.8394022" lon="10.3183563"><ele>5.0</ele><time>2026-05-05T10:40:56.697Z</time></trkpt><trkpt lat="36.8393064" lon="10.3183153"><ele>5.0</ele><time>2026-05-05T10:40:58.695Z</time></trkpt><trkpt lat="36.8392237" lon="10.3182765"><ele>5.0</ele><time>2026-05-05T10:41:00.699Z</time></trkpt><trkpt lat="36.8391316" lon="10.3182302"><ele>5.0</ele><time>2026-05-05T10:41:02.702Z</time></trkpt><trkpt lat="36.8390448" lon="10.3181884"><ele>5.0</ele><time>2026-05-05T10:41:04.695Z</time></trkpt><trkpt lat="36.8389677" lon="10.318143"><ele>5.0</ele><time>2026-05-05T10:41:06.701Z</time></trkpt><trkpt lat="36.8388856" lon="10.3180915"><ele>5.0</ele><time>2026-05-05T10:41:08.696Z</time></trkpt><trkpt lat="36.8387905" lon="10.3180259"><ele>5.0</ele><time>2026-05-05T10:41:10.707Z</time></trkpt><trkpt lat="36.8386909" lon="10.3179671"><ele>5.0</ele><time>2026-05-05T10:41:12.706Z</time></trkpt><trkpt lat="36.8385911" lon="10.3179137"><ele>5.0</ele><time>2026-05-05T10:41:14.694Z</time></trkpt><trkpt lat="36.8384994" lon="10.3178505"><ele>4.666666666666667</ele><time>2026-05-05T10:41:16.692Z</time></trkpt><trkpt lat="36.8384024" lon="10.3177817"><ele>4.333333333333334</ele><time>2026-05-05T10:41:18.695Z</time></trkpt><trkpt lat="36.8383438" lon="10.3177528"><ele>4.0</ele><time>2026-05-05T10:41:19.684Z</time></trkpt><trkpt lat="36.8382776" lon="10.3177161"><ele>3.666666666666667</ele><time>2026-05-05T10:41:20.659Z</time></trkpt><trkpt lat="36.8382101" lon="10.3176803"><ele>3.3333333333333335</ele><time>2026-05-05T10:41:21.709Z</time></trkpt><trkpt lat="36.8381438" lon="10.3176517"><ele>3.0</ele><time>2026-05-05T10:41:22.713Z</time></trkpt><trkpt lat="36.8380777" lon="10.3176187"><ele>2.9999999999999996</ele><time>2026-05-05T10:41:23.714Z</time></trkpt><trkpt lat="36.83801" lon="10.3175851"><ele>3.0</ele><time>2026-05-05T10:41:24.69Z</time></trkpt><trkpt lat="36.8379419" lon="10.3175476"><ele>3.0</ele><time>2026-05-05T10:41:25.673Z</time></trkpt><trkpt lat="36.837871" lon="10.3175101"><ele>3.0</ele><time>2026-05-05T10:41:26.706Z</time></trkpt><trkpt lat="36.8378039" lon="10.3174748"><ele>3.0</ele><time>2026-05-05T10:41:27.683Z</time></trkpt><trkpt lat="36.8377397" lon="10.3174391"><ele>2.9999999999999996</ele><time>2026-05-05T10:41:28.696Z</time></trkpt><trkpt lat="36.8376843" lon="10.3174004"><ele>3.0</ele><time>2026-05-05T10:41:29.708Z</time></trkpt><trkpt lat="36.8376239" lon="10.3173709"><ele>3.0</ele><time>2026-05-05T10:41:30.695Z</time></trkpt><trkpt lat="36.8375609" lon="10.3173364"><ele>3.0</ele><time>2026-05-05T10:41:31.688Z</time></trkpt><trkpt lat="36.8375021" lon="10.3173068"><ele>3.0</ele><time>2026-05-05T10:41:32.682Z</time></trkpt><trkpt lat="36.8373989" lon="10.3172418"><ele>3.0</ele><time>2026-05-05T10:41:34.709Z</time></trkpt><trkpt lat="36.8372894" lon="10.3172005"><ele>3.0</ele><time>2026-05-05T10:41:36.69Z</time></trkpt><trkpt lat="36.8371949" lon="10.3171652"><ele>3.0</ele><time>2026-05-05T10:41:38.706Z</time></trkpt><trkpt lat="36.8371132" lon="10.3171473"><ele>3.0</ele><time>2026-05-05T10:41:40.706Z</time></trkpt><trkpt lat="36.8370386" lon="10.3171411"><ele>3.0</ele><time>2026-05-05T10:41:44.708Z</time></trkpt><trkpt lat="36.8369746" lon="10.3171184"><ele>3.0</ele><time>2026-05-05T10:41:52.686Z</time></trkpt><trkpt lat="36.8368854" lon="10.3171069"><ele>3.0</ele><time>2026-05-05T10:41:54.698Z</time></trkpt><trkpt lat="36.836785" lon="10.3170877"><ele>3.0</ele><time>2026-05-05T10:41:56.69Z</time></trkpt><trkpt lat="36.8366793" lon="10.3170608"><ele>3.1666666666666665</ele><time>2026-05-05T10:41:58.702Z</time></trkpt><trkpt lat="36.8365756" lon="10.3170429"><ele>3.333333333333333</ele><time>2026-05-05T10:42:00.697Z</time></trkpt><trkpt lat="36.8364767" lon="10.3170181"><ele>3.5</ele><time>2026-05-05T10:42:02.701Z</time></trkpt><trkpt lat="36.8364153" lon="10.316998"><ele>3.6666666666666665</ele><time>2026-05-05T10:42:04.701Z</time></trkpt><trkpt lat="36.8363414" lon="10.31698"><ele>3.833333333333333</ele><time>2026-05-05T10:42:10.7Z</time></trkpt><trkpt lat="36.8362772" lon="10.3169704"><ele>4.0</ele><time>2026-05-05T10:42:14.691Z</time></trkpt><trkpt lat="36.8362058" lon="10.3169779"><ele>3.9999999999999996</ele><time>2026-05-05T10:42:18.696Z</time></trkpt><trkpt lat="36.83613" lon="10.31697"><ele>4.0</ele><time>2026-05-05T10:42:22.705Z</time></trkpt><trkpt lat="36.8360591" lon="10.3169653"><ele>4.0</ele><time>2026-05-05T10:42:25.701Z</time></trkpt><trkpt lat="36.835974" lon="10.3169445"><ele>4.0</ele><time>2026-05-05T10:42:28.679Z</time></trkpt><trkpt lat="36.835892" lon="10.3169164"><ele>3.9999999999999996</ele><time>2026-05-05T10:42:31.712Z</time></trkpt><trkpt lat="36.8358305" lon="10.3168885"><ele>4.0</ele><time>2026-05-05T10:42:33.691Z</time></trkpt><trkpt lat="36.8357616" lon="10.3168683"><ele>4.0</ele><time>2026-05-05T10:42:35.703Z</time></trkpt><trkpt lat="36.8356934" lon="10.3168453"><ele>3.9999999999999996</ele><time>2026-05-05T10:42:37.701Z</time></trkpt><trkpt lat="36.83561" lon="10.3168295"><ele>4.0</ele><time>2026-05-05T10:42:40.687Z</time></trkpt><trkpt lat="36.8355431" lon="10.3168156"><ele>4.0</ele><time>2026-05-05T10:42:43.686Z</time></trkpt><trkpt lat="36.8354803" lon="10.3167992"><ele>3.9999999999999996</ele><time>2026-05-05T10:42:55.703Z</time></trkpt><trkpt lat="36.83542" lon="10.3167747"><ele>4.0</ele><time>2026-05-05T10:42:58.671Z</time></trkpt><trkpt lat="36.8353435" lon="10.316754"><ele>4.0</ele><time>2026-05-05T10:43:02.701Z</time></trkpt><trkpt lat="36.8352564" lon="10.3167297"><ele>4.0</ele><time>2026-05-05T10:43:05.69Z</time></trkpt><trkpt lat="36.8351768" lon="10.3167072"><ele>3.9999999999999996</ele><time>2026-05-05T10:43:08.702Z</time></trkpt><trkpt lat="36.8350997" lon="10.3166855"><ele>4.0</ele><time>2026-05-05T10:43:13.696Z</time></trkpt><trkpt lat="36.8350148" lon="10.3166523"><ele>4.0</ele><time>2026-05-05T10:43:17.707Z</time></trkpt><trkpt lat="36.8349531" lon="10.3166355"><ele>3.9999999999999996</ele><time>2026-05-05T10:43:19.693Z</time></trkpt><trkpt lat="36.8348867" lon="10.316625"><ele>4.0</ele><time>2026-05-05T10:43:21.696Z</time></trkpt><trkpt lat="36.8348184" lon="10.3166082"><ele>4.0</ele><time>2026-05-05T10:43:23.692Z</time></trkpt><trkpt lat="36.8347551" lon="10.3165946"><ele>4.166666666666666</ele><time>2026-05-05T10:43:25.7Z</time></trkpt><trkpt lat="36.8346852" lon="10.3165763"><ele>4.333333333333333</ele><time>2026-05-05T10:43:27.695Z</time></trkpt><trkpt lat="36.8346193" lon="10.3165485"><ele>4.5</ele><time>2026-05-05T10:43:29.718Z</time></trkpt><trkpt lat="36.8345328" lon="10.3165122"><ele>4.666666666666667</ele><time>2026-05-05T10:43:32.698Z</time></trkpt><trkpt lat="36.8344369" lon="10.3164903"><ele>4.833333333333334</ele><time>2026-05-05T10:43:35.7Z</time></trkpt><trkpt lat="36.8343711" lon="10.3164668"><ele>5.0</ele><time>2026-05-05T10:43:37.698Z</time></trkpt><trkpt lat="36.8343035" lon="10.3164482"><ele>5.0</ele><time>2026-05-05T10:43:39.68Z</time></trkpt><trkpt lat="36.8342322" lon="10.3164289"><ele>5.0</ele><time>2026-05-05T10:43:41.703Z</time></trkpt><trkpt lat="36.8341547" lon="10.3164108"><ele>5.0</ele><time>2026-05-05T10:43:43.685Z</time></trkpt><trkpt lat="36.8340734" lon="10.3163685"><ele>5.0</ele><time>2026-05-05T10:43:45.699Z</time></trkpt><trkpt lat="36.8339799" lon="10.3163342"><ele>5.0</ele><time>2026-05-05T10:43:47.709Z</time></trkpt><trkpt lat="36.8338902" lon="10.3163167"><ele>5.0</ele><time>2026-05-05T10:43:49.702Z</time></trkpt><trkpt lat="36.8338252" lon="10.3162986"><ele>4.6</ele><time>2026-05-05T10:43:51.711Z</time></trkpt><trkpt lat="36.8337567" lon="10.3162811"><ele>4.2</ele><time>2026-05-05T10:43:53.707Z</time></trkpt><trkpt lat="36.8336768" lon="10.3162415"><ele>3.8</ele><time>2026-05-05T10:43:55.701Z</time></trkpt><trkpt lat="36.8335739" lon="10.3162147"><ele>3.4</ele><time>2026-05-05T10:43:57.688Z</time></trkpt><trkpt lat="36.8334821" lon="10.3161906"><ele>3.0</ele><time>2026-05-05T10:43:59.707Z</time></trkpt><trkpt lat="36.8333762" lon="10.3161514"><ele>3.0</ele><time>2026-05-05T10:44:01.707Z</time></trkpt><trkpt lat="36.8332621" lon="10.3161181"><ele>3.0</ele><time>2026-05-05T10:44:03.67Z</time></trkpt><trkpt lat="36.8331614" lon="10.3160889"><ele>3.0</ele><time>2026-05-05T10:44:05.716Z</time></trkpt><trkpt lat="36.8330597" lon="10.3160515"><ele>3.0</ele><time>2026-05-05T10:44:07.699Z</time></trkpt><trkpt lat="36.8329985" lon="10.3160317"><ele>3.0</ele><time>2026-05-05T10:44:08.687Z</time></trkpt><trkpt lat="36.8328808" lon="10.3159852"><ele>2.9999999999999996</ele><time>2026-05-05T10:44:10.704Z</time></trkpt><trkpt lat="36.8328178" lon="10.3159692"><ele>3.0</ele><time>2026-05-05T10:44:11.696Z</time></trkpt><trkpt lat="36.8327567" lon="10.315948"><ele>3.0</ele><time>2026-05-05T10:44:12.701Z</time></trkpt><trkpt lat="36.8326941" lon="10.3159261"><ele>3.0</ele><time>2026-05-05T10:44:13.691Z</time></trkpt><trkpt lat="36.8326273" lon="10.315906"><ele>3.0</ele><time>2026-05-05T10:44:14.7Z</time></trkpt><trkpt lat="36.8325633" lon="10.3158953"><ele>2.9999999999999996</ele><time>2026-05-05T10:44:15.699Z</time></trkpt><trkpt lat="36.8324445" lon="10.3158703"><ele>3.0</ele><time>2026-05-05T10:44:17.698Z</time></trkpt><trkpt lat="36.83234" lon="10.3158455"><ele>2.8333333333333335</ele><time>2026-05-05T10:44:19.714Z</time></trkpt><trkpt lat="36.8322455" lon="10.3158112"><ele>2.6666666666666665</ele><time>2026-05-05T10:44:21.699Z</time></trkpt><trkpt lat="36.8321584" lon="10.3157853"><ele>2.5</ele><time>2026-05-05T10:44:23.699Z</time></trkpt><trkpt lat="36.8320845" lon="10.3157439"><ele>2.333333333333333</ele><time>2026-05-05T10:44:25.684Z</time></trkpt><trkpt lat="36.832027" lon="10.3157112"><ele>2.1666666666666665</ele><time>2026-05-05T10:44:27.693Z</time></trkpt><trkpt lat="36.8319565" lon="10.3156568"><ele>2.0</ele><time>2026-05-05T10:44:29.698Z</time></trkpt><trkpt lat="36.8318792" lon="10.3155786"><ele>1.9999999999999998</ele><time>2026-05-05T10:44:31.715Z</time></trkpt><trkpt lat="36.8318201" lon="10.3155263"><ele>2.0</ele><time>2026-05-05T10:44:33.697Z</time></trkpt><trkpt lat="36.8317631" lon="10.3154804"><ele>2.0</ele><time>2026-05-05T10:44:35.702Z</time></trkpt><trkpt lat="36.8316999" lon="10.3154299"><ele>2.0</ele><time>2026-05-05T10:44:37.706Z</time></trkpt><trkpt lat="36.8316439" lon="10.3153818"><ele>1.9999999999999998</ele><time>2026-05-05T10:44:39.703Z</time></trkpt><trkpt lat="36.8315741" lon="10.3153401"><ele>2.0</ele><time>2026-05-05T10:44:41.712Z</time></trkpt><trkpt lat="36.8314848" lon="10.3152771"><ele>2.333333333333333</ele><time>2026-05-05T10:44:43.692Z</time></trkpt><trkpt lat="36.8313943" lon="10.3151998"><ele>2.6666666666666665</ele><time>2026-05-05T10:44:45.716Z</time></trkpt><trkpt lat="36.8313114" lon="10.3151424"><ele>3.0</ele><time>2026-05-05T10:44:47.68Z</time></trkpt><trkpt lat="36.8312516" lon="10.3151088"><ele>3.333333333333333</ele><time>2026-05-05T10:44:49.663Z</time></trkpt><trkpt lat="36.831194" lon="10.3150711"><ele>3.6666666666666665</ele><time>2026-05-05T10:44:51.693Z</time></trkpt><trkpt lat="36.8311357" lon="10.3150303"><ele>4.0</ele><time>2026-05-05T10:44:54.661Z</time></trkpt><trkpt lat="36.8310817" lon="10.3149762"><ele>3.9999999999999996</ele><time>2026-05-05T10:44:58.679Z</time></trkpt><trkpt lat="36.8310175" lon="10.3149298"><ele>4.0</ele><time>2026-05-05T10:45:01.682Z</time></trkpt><trkpt lat="36.830955" lon="10.3148675"><ele>4.0</ele><time>2026-05-05T10:45:06.69Z</time></trkpt><trkpt lat="36.830874" lon="10.314813"><ele>4.0</ele><time>2026-05-05T10:45:10.723Z</time></trkpt><trkpt lat="36.8308072" lon="10.3147649"><ele>3.9999999999999996</ele><time>2026-05-05T10:45:12.709Z</time></trkpt><trkpt lat="36.8307413" lon="10.3146928"><ele>4.0</ele><time>2026-05-05T10:45:14.695Z</time></trkpt><trkpt lat="36.8306625" lon="10.3146322"><ele>3.8571428571428568</ele><time>2026-05-05T10:45:16.682Z</time></trkpt><trkpt lat="36.830603" lon="10.3145848"><ele>3.714285714285714</ele><time>2026-05-05T10:45:18.706Z</time></trkpt><trkpt lat="36.8305278" lon="10.3145334"><ele>3.571428571428571</ele><time>2026-05-05T10:45:21.708Z</time></trkpt><trkpt lat="36.830471" lon="10.3144978"><ele>3.4285714285714284</ele><time>2026-05-05T10:45:23.701Z</time></trkpt><trkpt lat="36.8304098" lon="10.3144469"><ele>3.2857142857142856</ele><time>2026-05-05T10:45:25.701Z</time></trkpt><trkpt lat="36.8303458" lon="10.3144121"><ele>3.1428571428571423</ele><time>2026-05-05T10:45:27.708Z</time></trkpt><trkpt lat="36.8302817" lon="10.3143766"><ele>3.0</ele><time>2026-05-05T10:45:29.663Z</time></trkpt><trkpt lat="36.8302102" lon="10.3143121"><ele>3.0</ele><time>2026-05-05T10:45:32.656Z</time></trkpt><trkpt lat="36.8301339" lon="10.3142429"><ele>3.0</ele><time>2026-05-05T10:45:35.705Z</time></trkpt><trkpt lat="36.83009" lon="10.3141822"><ele>3.0</ele><time>2026-05-05T10:45:38.694Z</time></trkpt><trkpt lat="36.8300591" lon="10.3141046"><ele>3.0</ele><time>2026-05-05T10:45:41.681Z</time></trkpt><trkpt lat="36.8300197" lon="10.3140349"><ele>3.0</ele><time>2026-05-05T10:45:43.701Z</time></trkpt><trkpt lat="36.8299463" lon="10.3139857"><ele>3.0</ele><time>2026-05-05T10:45:45.693Z</time></trkpt><trkpt lat="36.8298551" lon="10.3139863"><ele>2.9999999999999996</ele><time>2026-05-05T10:45:47.672Z</time></trkpt><trkpt lat="36.8297923" lon="10.3140201"><ele>3.0</ele><time>2026-05-05T10:45:49.699Z</time></trkpt><trkpt lat="36.8297588" lon="10.3141033"><ele>3.0</ele><time>2026-05-05T10:45:51.684Z</time></trkpt><trkpt lat="36.8297577" lon="10.3141917"><ele>3.0</ele><time>2026-05-05T10:45:53.71Z</time></trkpt><trkpt lat="36.829823" lon="10.3142431"><ele>3.0</ele><time>2026-05-05T10:45:55.7Z</time></trkpt><trkpt lat="36.8298936" lon="10.3142271"><ele>2.9999999999999996</ele><time>2026-05-05T10:45:57.703Z</time></trkpt><trkpt lat="36.8299609" lon="10.3141617"><ele>3.0</ele><time>2026-05-05T10:45:59.705Z</time></trkpt><trkpt lat="36.8299949" lon="10.3140298"><ele>3.0</ele><time>2026-05-05T10:46:01.71Z</time></trkpt><trkpt lat="36.8300344" lon="10.3139115"><ele>3.0</ele><time>2026-05-05T10:46:03.701Z</time></trkpt><trkpt lat="36.8300883" lon="10.3138019"><ele>3.0</ele><time>2026-05-05T10:46:05.702Z</time></trkpt><trkpt lat="36.8301758" lon="10.3136934"><ele>3.0</ele><time>2026-05-05T10:46:07.699Z</time></trkpt><trkpt lat="36.8302215" lon="10.3136372"><ele>3.0</ele><time>2026-05-05T10:46:08.714Z</time></trkpt><trkpt lat="36.8303071" lon="10.313531"><ele>2.4</ele><time>2026-05-05T10:46:10.708Z</time></trkpt><trkpt lat="36.8303899" lon="10.3134249"><ele>1.7999999999999998</ele><time>2026-05-05T10:46:12.695Z</time></trkpt><trkpt lat="36.8304616" lon="10.3133331"><ele>1.2</ele><time>2026-05-05T10:46:14.69Z</time></trkpt><trkpt lat="36.830516" lon="10.3132691"><ele>0.6</ele><time>2026-05-05T10:46:16.699Z</time></trkpt><trkpt lat="36.8305738" lon="10.3131963"><ele>0.0</ele><time>2026-05-05T10:46:18.688Z</time></trkpt><trkpt lat="36.8306456" lon="10.3131027"><ele>0.0</ele><time>2026-05-05T10:46:20.686Z</time></trkpt><trkpt lat="36.8307071" lon="10.3130058"><ele>0.0</ele><time>2026-05-05T10:46:22.71Z</time></trkpt><trkpt lat="36.8307679" lon="10.3129024"><ele>0.0</ele><time>2026-05-05T10:46:24.69Z</time></trkpt><trkpt lat="36.8308231" lon="10.312803"><ele>0.0</ele><time>2026-05-05T10:46:26.699Z</time></trkpt><trkpt lat="36.8308859" lon="10.312697"><ele>0.0</ele><time>2026-05-05T10:46:28.671Z</time></trkpt><trkpt lat="36.830952" lon="10.312599"><ele>0.4</ele><time>2026-05-05T10:46:30.7Z</time></trkpt><trkpt lat="36.8310565" lon="10.3125103"><ele>0.8</ele><time>2026-05-05T10:46:32.709Z</time></trkpt><trkpt lat="36.8311067" lon="10.312457"><ele>1.2000000000000002</ele><time>2026-05-05T10:46:33.675Z</time></trkpt><trkpt lat="36.8311555" lon="10.3123953"><ele>1.6</ele><time>2026-05-05T10:46:34.707Z</time></trkpt><trkpt lat="36.8311433" lon="10.3122639"><ele>2.0</ele><time>2026-05-05T10:46:36.707Z</time></trkpt><trkpt lat="36.831056" lon="10.312195"><ele>2.1666666666666665</ele><time>2026-05-05T10:46:38.707Z</time></trkpt><trkpt lat="36.8309864" lon="10.3121789"><ele>2.333333333333333</ele><time>2026-05-05T10:46:39.717Z</time></trkpt><trkpt lat="36.8309095" lon="10.3121626"><ele>2.5</ele><time>2026-05-05T10:46:40.688Z</time></trkpt><trkpt lat="36.8308281" lon="10.312128"><ele>2.6666666666666665</ele><time>2026-05-05T10:46:41.687Z</time></trkpt><trkpt lat="36.8307407" lon="10.3120792"><ele>2.8333333333333335</ele><time>2026-05-05T10:46:42.7Z</time></trkpt><trkpt lat="36.8306402" lon="10.3120156"><ele>3.0</ele><time>2026-05-05T10:46:43.69Z</time></trkpt><trkpt lat="36.8305163" lon="10.3119277"><ele>3.0</ele><time>2026-05-05T10:46:44.707Z</time></trkpt><trkpt lat="36.8303845" lon="10.3118221"><ele>3.0</ele><time>2026-05-05T10:46:45.704Z</time></trkpt><trkpt lat="36.8302498" lon="10.3117199"><ele>3.0</ele><time>2026-05-05T10:46:46.697Z</time></trkpt><trkpt lat="36.8301172" lon="10.3116163"><ele>2.3333333333333335</ele><time>2026-05-05T10:46:47.703Z</time></trkpt><trkpt lat="36.829981" lon="10.311518"><ele>1.6666666666666665</ele><time>2026-05-05T10:46:48.709Z</time></trkpt><trkpt lat="36.8298508" lon="10.3114253"><ele>1.0</ele><time>2026-05-05T10:46:49.702Z</time></trkpt><trkpt lat="36.8297173" lon="10.3113229"><ele>0.3333333333333333</ele><time>2026-05-05T10:46:50.7Z</time></trkpt><trkpt lat="36.8295835" lon="10.3112216"><ele>-0.3333333333333333</ele><time>2026-05-05T10:46:51.683Z</time></trkpt><trkpt lat="36.8294487" lon="10.3111138"><ele>-1.0</ele><time>2026-05-05T10:46:52.707Z</time></trkpt><trkpt lat="36.8293085" lon="10.3110135"><ele>-1.3333333333333333</ele><time>2026-05-05T10:46:53.703Z</time></trkpt><trkpt lat="36.8291713" lon="10.3109065"><ele>-1.6666666666666665</ele><time>2026-05-05T10:46:54.695Z</time></trkpt><trkpt lat="36.8290285" lon="10.3107958"><ele>-2.0</ele><time>2026-05-05T10:46:55.7Z</time></trkpt><trkpt lat="36.8288828" lon="10.3106804"><ele>-4.333333333333333</ele><time>2026-05-05T10:46:56.699Z</time></trkpt><trkpt lat="36.8287413" lon="10.3105638"><ele>-6.666666666666667</ele><time>2026-05-05T10:46:57.707Z</time></trkpt><trkpt lat="36.828591" lon="10.3104356"><ele>-9.0</ele><time>2026-05-05T10:46:58.693Z</time></trkpt><trkpt lat="36.8284396" lon="10.3103111"><ele>-9.0</ele><time>2026-05-05T10:46:59.728Z</time></trkpt><trkpt lat="36.828286" lon="10.3101826"><ele>-9.0</ele><time>2026-05-05T10:47:00.71Z</time></trkpt><trkpt lat="36.8281371" lon="10.3100605"><ele>-9.0</ele><time>2026-05-05T10:47:01.705Z</time></trkpt><trkpt lat="36.8279976" lon="10.3099451"><ele>-9.0</ele><time>2026-05-05T10:47:02.694Z</time></trkpt><trkpt lat="36.8278693" lon="10.3098418"><ele>-9.0</ele><time>2026-05-05T10:47:03.705Z</time></trkpt><trkpt lat="36.8277551" lon="10.3097444"><ele>-9.0</ele><time>2026-05-05T10:47:04.695Z</time></trkpt><trkpt lat="36.8276513" lon="10.3096505"><ele>-9.0</ele><time>2026-05-05T10:47:05.695Z</time></trkpt><trkpt lat="36.8275548" lon="10.3095634"><ele>-9.0</ele><time>2026-05-05T10:47:06.707Z</time></trkpt><trkpt lat="36.8274656" lon="10.3094749"><ele>-9.0</ele><time>2026-05-05T10:47:07.705Z</time></trkpt><trkpt lat="36.8273863" lon="10.3093977"><ele>-9.0</ele><time>2026-05-05T10:47:08.723Z</time></trkpt><trkpt lat="36.827331" lon="10.309339"><ele>-9.0</ele><time>2026-05-05T10:47:09.712Z</time></trkpt><trkpt lat="36.8272702" lon="10.3092695"><ele>-9.0</ele><time>2026-05-05T10:47:11.703Z</time></trkpt><trkpt lat="36.8272038" lon="10.309176"><ele>-9.0</ele><time>2026-05-05T10:47:15.7Z</time></trkpt><trkpt lat="36.8271738" lon="10.3091061"><ele>-9.0</ele><time>2026-05-05T10:47:16.743Z</time></trkpt><trkpt lat="36.8271408" lon="10.3090337"><ele>-9.0</ele><time>2026-05-05T10:47:17.71Z</time></trkpt><trkpt lat="36.8270412" lon="10.3089469"><ele>-9.0</ele><time>2026-05-05T10:47:19.662Z</time></trkpt><trkpt lat="36.8269736" lon="10.3089253"><ele>-9.0</ele><time>2026-05-05T10:47:20.664Z</time></trkpt><trkpt lat="36.8268987" lon="10.3088977"><ele>-9.0</ele><time>2026-05-05T10:47:21.666Z</time></trkpt><trkpt lat="36.8268192" lon="10.308889"><ele>-6.75</ele><time>2026-05-05T10:47:22.662Z</time></trkpt><trkpt lat="36.8267298" lon="10.3088613"><ele>-4.5</ele><time>2026-05-05T10:47:23.651Z</time></trkpt><trkpt lat="36.8266366" lon="10.3087923"><ele>-2.25</ele><time>2026-05-05T10:47:24.65Z</time></trkpt><trkpt lat="36.8265387" lon="10.3087116"><ele>0.0</ele><time>2026-05-05T10:47:25.657Z</time></trkpt><trkpt lat="36.8264313" lon="10.3086102"><ele>0.0</ele><time>2026-05-05T10:47:26.682Z</time></trkpt><trkpt lat="36.8263206" lon="10.3084971"><ele>0.0</ele><time>2026-05-05T10:47:27.692Z</time></trkpt><trkpt lat="36.8261909" lon="10.3083668"><ele>0.0</ele><time>2026-05-05T10:47:28.695Z</time></trkpt><trkpt lat="36.8260474" lon="10.308231"><ele>0.3333333333333333</ele><time>2026-05-05T10:47:29.715Z</time></trkpt><trkpt lat="36.8259073" lon="10.3081055"><ele>0.6666666666666666</ele><time>2026-05-05T10:47:30.696Z</time></trkpt><trkpt lat="36.8257646" lon="10.3079774"><ele>1.0</ele><time>2026-05-05T10:47:31.66Z</time></trkpt><trkpt lat="36.8256265" lon="10.3078532"><ele>1.0</ele><time>2026-05-05T10:47:32.673Z</time></trkpt><trkpt lat="36.82549" lon="10.3077326"><ele>1.0</ele><time>2026-05-05T10:47:33.704Z</time></trkpt><trkpt lat="36.8253656" lon="10.3075992"><ele>1.0</ele><time>2026-05-05T10:47:34.698Z</time></trkpt><trkpt lat="36.8252535" lon="10.3074464"><ele>1.0</ele><time>2026-05-05T10:47:35.708Z</time></trkpt><trkpt lat="36.8251513" lon="10.3072899"><ele>1.0</ele><time>2026-05-05T10:47:36.691Z</time></trkpt><trkpt lat="36.8250525" lon="10.3071215"><ele>1.0</ele><time>2026-05-05T10:47:37.683Z</time></trkpt><trkpt lat="36.8249673" lon="10.3069343"><ele>1.0</ele><time>2026-05-05T10:47:38.704Z</time></trkpt><trkpt lat="36.8248938" lon="10.306738"><ele>1.0</ele><time>2026-05-05T10:47:39.702Z</time></trkpt><trkpt lat="36.8248328" lon="10.3065347"><ele>1.0</ele><time>2026-05-05T10:47:40.714Z</time></trkpt><trkpt lat="36.8247834" lon="10.3063403"><ele>-0.33333333333333337</ele><time>2026-05-05T10:47:41.687Z</time></trkpt><trkpt lat="36.8247474" lon="10.3061328"><ele>-1.6666666666666667</ele><time>2026-05-05T10:47:42.702Z</time></trkpt><trkpt lat="36.8247242" lon="10.3059271"><ele>-3.0</ele><time>2026-05-05T10:47:43.697Z</time></trkpt><trkpt lat="36.8247053" lon="10.3057298"><ele>-1.6666666666666667</ele><time>2026-05-05T10:47:44.712Z</time></trkpt><trkpt lat="36.8246926" lon="10.3055243"><ele>-0.33333333333333337</ele><time>2026-05-05T10:47:45.704Z</time></trkpt><trkpt lat="36.8246814" lon="10.3053304"><ele>1.0</ele><time>2026-05-05T10:47:46.716Z</time></trkpt><trkpt lat="36.8246755" lon="10.3051274"><ele>1.0</ele><time>2026-05-05T10:47:47.696Z</time></trkpt><trkpt lat="36.8246566" lon="10.3049426"><ele>1.0</ele><time>2026-05-05T10:47:48.714Z</time></trkpt><trkpt lat="36.8246361" lon="10.3047615"><ele>1.0</ele><time>2026-05-05T10:47:49.703Z</time></trkpt><trkpt lat="36.824612" lon="10.3045686"><ele>0.6666666666666666</ele><time>2026-05-05T10:47:50.704Z</time></trkpt><trkpt lat="36.8245791" lon="10.3043847"><ele>0.3333333333333333</ele><time>2026-05-05T10:47:51.695Z</time></trkpt><trkpt lat="36.8245415" lon="10.3041951"><ele>0.0</ele><time>2026-05-05T10:47:52.705Z</time></trkpt><trkpt lat="36.8244922" lon="10.3040076"><ele>0.0</ele><time>2026-05-05T10:47:53.704Z</time></trkpt><trkpt lat="36.8244348" lon="10.3038179"><ele>0.0</ele><time>2026-05-05T10:47:54.667Z</time></trkpt><trkpt lat="36.8243707" lon="10.3036238"><ele>0.0</ele><time>2026-05-05T10:47:55.69Z</time></trkpt><trkpt lat="36.8242998" lon="10.303415"><ele>0.0</ele><time>2026-05-05T10:47:56.704Z</time></trkpt><trkpt lat="36.8242223" lon="10.3032142"><ele>0.0</ele><time>2026-05-05T10:47:57.73Z</time></trkpt><trkpt lat="36.8241466" lon="10.3030037"><ele>0.0</ele><time>2026-05-05T10:47:58.696Z</time></trkpt><trkpt lat="36.8240636" lon="10.302795"><ele>0.0</ele><time>2026-05-05T10:47:59.702Z</time></trkpt><trkpt lat="36.8239824" lon="10.3025809"><ele>0.0</ele><time>2026-05-05T10:48:00.696Z</time></trkpt><trkpt lat="36.8239049" lon="10.3023715"><ele>0.0</ele><time>2026-05-05T10:48:01.718Z</time></trkpt><trkpt lat="36.823826" lon="10.3021682"><ele>0.0</ele><time>2026-05-05T10:48:02.713Z</time></trkpt><trkpt lat="36.8237404" lon="10.3019577"><ele>0.0</ele><time>2026-05-05T10:48:03.697Z</time></trkpt><trkpt lat="36.8236593" lon="10.3017451"><ele>0.0</ele><time>2026-05-05T10:48:04.682Z</time></trkpt><trkpt lat="36.8235812" lon="10.3015281"><ele>0.0</ele><time>2026-05-05T10:48:05.707Z</time></trkpt><trkpt lat="36.8234997" lon="10.301314"><ele>0.0</ele><time>2026-05-05T10:48:06.698Z</time></trkpt><trkpt lat="36.8234154" lon="10.3011023"><ele>0.0</ele><time>2026-05-05T10:48:07.679Z</time></trkpt><trkpt lat="36.8233329" lon="10.3008915"><ele>0.0</ele><time>2026-05-05T10:48:08.691Z</time></trkpt><trkpt lat="36.8232499" lon="10.3006739"><ele>0.0</ele><time>2026-05-05T10:48:09.718Z</time></trkpt><trkpt lat="36.8231663" lon="10.3004597"><ele>0.0</ele><time>2026-05-05T10:48:10.717Z</time></trkpt><trkpt lat="36.8230846" lon="10.3002461"><ele>0.0</ele><time>2026-05-05T10:48:11.709Z</time></trkpt><trkpt lat="36.8230008" lon="10.3000362"><ele>0.0</ele><time>2026-05-05T10:48:12.694Z</time></trkpt><trkpt lat="36.8229247" lon="10.2998268"><ele>0.0</ele><time>2026-05-05T10:48:13.705Z</time></trkpt><trkpt lat="36.8228445" lon="10.2996223"><ele>0.0</ele><time>2026-05-05T10:48:14.698Z</time></trkpt><trkpt lat="36.8227748" lon="10.2994175"><ele>0.0</ele><time>2026-05-05T10:48:15.694Z</time></trkpt><trkpt lat="36.8227012" lon="10.2992242"><ele>0.0</ele><time>2026-05-05T10:48:16.7Z</time></trkpt><trkpt lat="36.8226291" lon="10.2990298"><ele>0.0</ele><time>2026-05-05T10:48:17.692Z</time></trkpt><trkpt lat="36.8225541" lon="10.2988418"><ele>0.0</ele><time>2026-05-05T10:48:18.719Z</time></trkpt><trkpt lat="36.8224782" lon="10.2986533"><ele>0.0</ele><time>2026-05-05T10:48:19.677Z</time></trkpt><trkpt lat="36.8223984" lon="10.2984549"><ele>0.0</ele><time>2026-05-05T10:48:20.678Z</time></trkpt><trkpt lat="36.822312" lon="10.2982541"><ele>0.0</ele><time>2026-05-05T10:48:21.713Z</time></trkpt><trkpt lat="36.8222234" lon="10.2980476"><ele>0.0</ele><time>2026-05-05T10:48:22.704Z</time></trkpt><trkpt lat="36.8221359" lon="10.2978373"><ele>0.0</ele><time>2026-05-05T10:48:23.728Z</time></trkpt><trkpt lat="36.8220476" lon="10.2976264"><ele>0.0</ele><time>2026-05-05T10:48:24.68Z</time></trkpt><trkpt lat="36.8219614" lon="10.2974125"><ele>0.0</ele><time>2026-05-05T10:48:25.689Z</time></trkpt><trkpt lat="36.8218812" lon="10.2971914"><ele>0.0</ele><time>2026-05-05T10:48:26.675Z</time></trkpt><trkpt lat="36.8217958" lon="10.2969608"><ele>0.0</ele><time>2026-05-05T10:48:27.711Z</time></trkpt><trkpt lat="36.8217109" lon="10.2967278"><ele>0.0</ele><time>2026-05-05T10:48:28.712Z</time></trkpt><trkpt lat="36.8216234" lon="10.2964819"><ele>0.0</ele><time>2026-05-05T10:48:29.706Z</time></trkpt><trkpt lat="36.8215355" lon="10.2962466"><ele>0.0</ele><time>2026-05-05T10:48:30.711Z</time></trkpt><trkpt lat="36.8214426" lon="10.2960148"><ele>0.0</ele><time>2026-05-05T10:48:31.684Z</time></trkpt><trkpt lat="36.8213522" lon="10.2957937"><ele>0.0</ele><time>2026-05-05T10:48:32.71Z</time></trkpt><trkpt lat="36.8212667" lon="10.2955777"><ele>0.0</ele><time>2026-05-05T10:48:33.699Z</time></trkpt><trkpt lat="36.8211849" lon="10.2953757"><ele>0.0</ele><time>2026-05-05T10:48:34.712Z</time></trkpt><trkpt lat="36.821109" lon="10.2951845"><ele>0.0</ele><time>2026-05-05T10:48:35.703Z</time></trkpt><trkpt lat="36.8210396" lon="10.2950017"><ele>0.0</ele><time>2026-05-05T10:48:36.734Z</time></trkpt><trkpt lat="36.8209793" lon="10.2948354"><ele>0.0</ele><time>2026-05-05T10:48:37.703Z</time></trkpt><trkpt lat="36.8209124" lon="10.2946743"><ele>0.0</ele><time>2026-05-05T10:48:38.707Z</time></trkpt><trkpt lat="36.8208438" lon="10.2945148"><ele>0.0</ele><time>2026-05-05T10:48:39.7Z</time></trkpt><trkpt lat="36.8207764" lon="10.294355"><ele>0.0</ele><time>2026-05-05T10:48:40.707Z</time></trkpt><trkpt lat="36.8207087" lon="10.2942031"><ele>0.0</ele><time>2026-05-05T10:48:41.687Z</time></trkpt><trkpt lat="36.8206422" lon="10.2940424"><ele>0.0</ele><time>2026-05-05T10:48:42.718Z</time></trkpt><trkpt lat="36.8205793" lon="10.2938784"><ele>0.0</ele><time>2026-05-05T10:48:43.698Z</time></trkpt><trkpt lat="36.8205211" lon="10.2937168"><ele>0.0</ele><time>2026-05-05T10:48:44.7Z</time></trkpt><trkpt lat="36.8204615" lon="10.293555"><ele>0.0</ele><time>2026-05-05T10:48:45.708Z</time></trkpt><trkpt lat="36.8204102" lon="10.2934031"><ele>0.0</ele><time>2026-05-05T10:48:46.709Z</time></trkpt><trkpt lat="36.8203617" lon="10.2932705"><ele>0.0</ele><time>2026-05-05T10:48:47.71Z</time></trkpt><trkpt lat="36.8203168" lon="10.2931459"><ele>0.0</ele><time>2026-05-05T10:48:48.702Z</time></trkpt><trkpt lat="36.8202795" lon="10.2930299"><ele>0.0</ele><time>2026-05-05T10:48:49.705Z</time></trkpt><trkpt lat="36.8202452" lon="10.2929225"><ele>0.0</ele><time>2026-05-05T10:48:50.727Z</time></trkpt><trkpt lat="36.8202184" lon="10.2928311"><ele>0.0</ele><time>2026-05-05T10:48:51.697Z</time></trkpt><trkpt lat="36.8202035" lon="10.2927486"><ele>0.0</ele><time>2026-05-05T10:48:52.707Z</time></trkpt><trkpt lat="36.8201979" lon="10.2926149"><ele>0.0</ele><time>2026-05-05T10:48:54.718Z</time></trkpt><trkpt lat="36.8201821" lon="10.2924797"><ele>0.0</ele><time>2026-05-05T10:48:56.707Z</time></trkpt><trkpt lat="36.820148" lon="10.2924056"><ele>0.0</ele><time>2026-05-05T10:48:57.704Z</time></trkpt><trkpt lat="36.8200949" lon="10.2923304"><ele>0.0</ele><time>2026-05-05T10:48:58.707Z</time></trkpt><trkpt lat="36.8200382" lon="10.2922614"><ele>0.0</ele><time>2026-05-05T10:48:59.71Z</time></trkpt><trkpt lat="36.8199785" lon="10.2921761"><ele>0.0</ele><time>2026-05-05T10:49:00.701Z</time></trkpt><trkpt lat="36.8199288" lon="10.2920671"><ele>0.0</ele><time>2026-05-05T10:49:01.713Z</time></trkpt><trkpt lat="36.8198679" lon="10.2919337"><ele>0.0</ele><time>2026-05-05T10:49:02.696Z</time></trkpt><trkpt lat="36.819809" lon="10.2917878"><ele>0.0</ele><time>2026-05-05T10:49:03.715Z</time></trkpt><trkpt lat="36.8197479" lon="10.2916324"><ele>0.0</ele><time>2026-05-05T10:49:04.712Z</time></trkpt><trkpt lat="36.8196826" lon="10.291475"><ele>0.0</ele><time>2026-05-05T10:49:05.715Z</time></trkpt><trkpt lat="36.819613" lon="10.2913049"><ele>0.0</ele><time>2026-05-05T10:49:06.705Z</time></trkpt><trkpt lat="36.8195406" lon="10.2911252"><ele>0.0</ele><time>2026-05-05T10:49:07.706Z</time></trkpt><trkpt lat="36.8194661" lon="10.2909422"><ele>0.0</ele><time>2026-05-05T10:49:08.716Z</time></trkpt><trkpt lat="36.8193899" lon="10.2907581"><ele>0.0</ele><time>2026-05-05T10:49:09.715Z</time></trkpt><trkpt lat="36.8193118" lon="10.2905604"><ele>0.0</ele><time>2026-05-05T10:49:10.706Z</time></trkpt><trkpt lat="36.8192301" lon="10.2903619"><ele>0.0</ele><time>2026-05-05T10:49:11.713Z</time></trkpt><trkpt lat="36.8191454" lon="10.2901544"><ele>0.0</ele><time>2026-05-05T10:49:12.707Z</time></trkpt><trkpt lat="36.8190634" lon="10.2899429"><ele>0.0</ele><time>2026-05-05T10:49:13.703Z</time></trkpt><trkpt lat="36.8189814" lon="10.2897346"><ele>0.0</ele><time>2026-05-05T10:49:14.706Z</time></trkpt><trkpt lat="36.8189019" lon="10.2895258"><ele>0.0</ele><time>2026-05-05T10:49:15.71Z</time></trkpt><trkpt lat="36.8188193" lon="10.2893109"><ele>0.0</ele><time>2026-05-05T10:49:16.708Z</time></trkpt><trkpt lat="36.8187355" lon="10.289096"><ele>0.0</ele><time>2026-05-05T10:49:17.711Z</time></trkpt><trkpt lat="36.8186506" lon="10.2888773"><ele>0.0</ele><time>2026-05-05T10:49:18.697Z</time></trkpt><trkpt lat="36.8185657" lon="10.2886561"><ele>0.0</ele><time>2026-05-05T10:49:19.702Z</time></trkpt><trkpt lat="36.8184757" lon="10.2884364"><ele>0.0</ele><time>2026-05-05T10:49:20.701Z</time></trkpt><trkpt lat="36.8183919" lon="10.288209"><ele>0.0</ele><time>2026-05-05T10:49:21.683Z</time></trkpt><trkpt lat="36.8183083" lon="10.2879889"><ele>0.0</ele><time>2026-05-05T10:49:22.704Z</time></trkpt><trkpt lat="36.8182232" lon="10.2877629"><ele>0.0</ele><time>2026-05-05T10:49:23.704Z</time></trkpt><trkpt lat="36.8181339" lon="10.2875344"><ele>0.0</ele><time>2026-05-05T10:49:24.692Z</time></trkpt><trkpt lat="36.8180487" lon="10.2872996"><ele>0.0</ele><time>2026-05-05T10:49:25.695Z</time></trkpt><trkpt lat="36.8179649" lon="10.2870654"><ele>0.0</ele><time>2026-05-05T10:49:26.703Z</time></trkpt><trkpt lat="36.8178789" lon="10.2868366"><ele>0.0</ele><time>2026-05-05T10:49:27.704Z</time></trkpt><trkpt lat="36.8177913" lon="10.2866123"><ele>0.0</ele><time>2026-05-05T10:49:28.695Z</time></trkpt><trkpt lat="36.8177044" lon="10.2863953"><ele>0.0</ele><time>2026-05-05T10:49:29.693Z</time></trkpt><trkpt lat="36.8176246" lon="10.2861933"><ele>0.0</ele><time>2026-05-05T10:49:30.663Z</time></trkpt><trkpt lat="36.8175502" lon="10.2859892"><ele>0.0</ele><time>2026-05-05T10:49:31.71Z</time></trkpt><trkpt lat="36.8174752" lon="10.2857894"><ele>0.0</ele><time>2026-05-05T10:49:32.714Z</time></trkpt><trkpt lat="36.8174024" lon="10.2855986"><ele>0.0</ele><time>2026-05-05T10:49:33.731Z</time></trkpt><trkpt lat="36.8173305" lon="10.2853992"><ele>0.0</ele><time>2026-05-05T10:49:34.719Z</time></trkpt><trkpt lat="36.8172588" lon="10.2852057"><ele>0.0</ele><time>2026-05-05T10:49:35.695Z</time></trkpt><trkpt lat="36.8171872" lon="10.2850155"><ele>0.0</ele><time>2026-05-05T10:49:36.707Z</time></trkpt><trkpt lat="36.8171144" lon="10.2848259"><ele>0.0</ele><time>2026-05-05T10:49:37.709Z</time></trkpt><trkpt lat="36.8170392" lon="10.2846378"><ele>0.0</ele><time>2026-05-05T10:49:38.703Z</time></trkpt><trkpt lat="36.8169646" lon="10.2844486"><ele>0.0</ele><time>2026-05-05T10:49:39.7Z</time></trkpt><trkpt lat="36.8168921" lon="10.2842599"><ele>0.0</ele><time>2026-05-05T10:49:40.658Z</time></trkpt><trkpt lat="36.8168144" lon="10.2840716"><ele>0.0</ele><time>2026-05-05T10:49:41.694Z</time></trkpt><trkpt lat="36.8167395" lon="10.2838815"><ele>0.0</ele><time>2026-05-05T10:49:42.671Z</time></trkpt><trkpt lat="36.8166599" lon="10.2837006"><ele>0.0</ele><time>2026-05-05T10:49:43.687Z</time></trkpt><trkpt lat="36.8165777" lon="10.2835175"><ele>0.0</ele><time>2026-05-05T10:49:44.704Z</time></trkpt><trkpt lat="36.8164941" lon="10.2833315"><ele>0.0</ele><time>2026-05-05T10:49:45.699Z</time></trkpt><trkpt lat="36.8163978" lon="10.2831496"><ele>0.0</ele><time>2026-05-05T10:49:46.702Z</time></trkpt><trkpt lat="36.8163047" lon="10.2829709"><ele>0.0</ele><time>2026-05-05T10:49:47.717Z</time></trkpt><trkpt lat="36.8162106" lon="10.2827924"><ele>0.0</ele><time>2026-05-05T10:49:48.703Z</time></trkpt><trkpt lat="36.8161114" lon="10.2826161"><ele>0.0</ele><time>2026-05-05T10:49:49.701Z</time></trkpt><trkpt lat="36.8160145" lon="10.2824434"><ele>0.0</ele><time>2026-05-05T10:49:50.67Z</time></trkpt><trkpt lat="36.8159075" lon="10.2822825"><ele>0.0</ele><time>2026-05-05T10:49:51.702Z</time></trkpt><trkpt lat="36.8157998" lon="10.2821166"><ele>0.0</ele><time>2026-05-05T10:49:52.704Z</time></trkpt><trkpt lat="36.8156927" lon="10.2819547"><ele>0.0</ele><time>2026-05-05T10:49:53.71Z</time></trkpt><trkpt lat="36.8155804" lon="10.2817995"><ele>0.0</ele><time>2026-05-05T10:49:54.704Z</time></trkpt><trkpt lat="36.8154667" lon="10.281648"><ele>0.0</ele><time>2026-05-05T10:49:55.711Z</time></trkpt><trkpt lat="36.8153492" lon="10.2815034"><ele>0.0</ele><time>2026-05-05T10:49:56.689Z</time></trkpt><trkpt lat="36.8152313" lon="10.2813648"><ele>0.0</ele><time>2026-05-05T10:49:57.715Z</time></trkpt><trkpt lat="36.8151096" lon="10.2812249"><ele>0.0</ele><time>2026-05-05T10:49:58.694Z</time></trkpt><trkpt lat="36.81499" lon="10.2810894"><ele>0.0</ele><time>2026-05-05T10:49:59.675Z</time></trkpt><trkpt lat="36.8148626" lon="10.2809578"><ele>0.0</ele><time>2026-05-05T10:50:00.702Z</time></trkpt><trkpt lat="36.8147382" lon="10.2808261"><ele>0.0</ele><time>2026-05-05T10:50:01.703Z</time></trkpt><trkpt lat="36.8146108" lon="10.2807028"><ele>0.0</ele><time>2026-05-05T10:50:02.703Z</time></trkpt><trkpt lat="36.8144829" lon="10.2805783"><ele>0.0</ele><time>2026-05-05T10:50:03.686Z</time></trkpt><trkpt lat="36.8143492" lon="10.2804588"><ele>0.0</ele><time>2026-05-05T10:50:04.684Z</time></trkpt><trkpt lat="36.8142103" lon="10.2803337"><ele>0.0</ele><time>2026-05-05T10:50:05.702Z</time></trkpt><trkpt lat="36.8140702" lon="10.2802203"><ele>0.0</ele><time>2026-05-05T10:50:06.691Z</time></trkpt><trkpt lat="36.8139389" lon="10.2801058"><ele>0.0</ele><time>2026-05-05T10:50:07.698Z</time></trkpt><trkpt lat="36.8138001" lon="10.2799969"><ele>0.0</ele><time>2026-05-05T10:50:08.711Z</time></trkpt><trkpt lat="36.8136589" lon="10.2798906"><ele>0.0</ele><time>2026-05-05T10:50:09.701Z</time></trkpt><trkpt lat="36.8135162" lon="10.279779"><ele>0.0</ele><time>2026-05-05T10:50:10.704Z</time></trkpt><trkpt lat="36.8133706" lon="10.279675"><ele>0.0</ele><time>2026-05-05T10:50:11.695Z</time></trkpt><trkpt lat="36.8132317" lon="10.279564"><ele>0.0</ele><time>2026-05-05T10:50:12.698Z</time></trkpt><trkpt lat="36.8130891" lon="10.2794526"><ele>0.0</ele><time>2026-05-05T10:50:13.702Z</time></trkpt><trkpt lat="36.8129535" lon="10.2793324"><ele>0.0</ele><time>2026-05-05T10:50:14.695Z</time></trkpt><trkpt lat="36.8128118" lon="10.2792117"><ele>0.0</ele><time>2026-05-05T10:50:15.707Z</time></trkpt><trkpt lat="36.8126739" lon="10.279085"><ele>0.0</ele><time>2026-05-05T10:50:16.698Z</time></trkpt><trkpt lat="36.8125419" lon="10.2789459"><ele>0.0</ele><time>2026-05-05T10:50:17.713Z</time></trkpt><trkpt lat="36.8124195" lon="10.2787935"><ele>0.0</ele><time>2026-05-05T10:50:18.696Z</time></trkpt><trkpt lat="36.8123046" lon="10.2786394"><ele>0.0</ele><time>2026-05-05T10:50:19.708Z</time></trkpt><trkpt lat="36.8122047" lon="10.2784778"><ele>0.0</ele><time>2026-05-05T10:50:20.699Z</time></trkpt><trkpt lat="36.8121088" lon="10.2783026"><ele>0.0</ele><time>2026-05-05T10:50:21.705Z</time></trkpt><trkpt lat="36.8120229" lon="10.2781163"><ele>0.0</ele><time>2026-05-05T10:50:22.706Z</time></trkpt><trkpt lat="36.811944" lon="10.2779222"><ele>0.0</ele><time>2026-05-05T10:50:23.707Z</time></trkpt><trkpt lat="36.8118693" lon="10.277727"><ele>0.0</ele><time>2026-05-05T10:50:24.699Z</time></trkpt><trkpt lat="36.8117979" lon="10.2775145"><ele>0.0</ele><time>2026-05-05T10:50:25.701Z</time></trkpt><trkpt lat="36.8117344" lon="10.2773017"><ele>0.0</ele><time>2026-05-05T10:50:26.717Z</time></trkpt><trkpt lat="36.8116814" lon="10.2770953"><ele>0.0</ele><time>2026-05-05T10:50:27.706Z</time></trkpt><trkpt lat="36.8116419" lon="10.2768801"><ele>0.0</ele><time>2026-05-05T10:50:28.695Z</time></trkpt><trkpt lat="36.8116066" lon="10.2766565"><ele>0.0</ele><time>2026-05-05T10:50:29.706Z</time></trkpt><trkpt lat="36.8115764" lon="10.2764393"><ele>0.0</ele><time>2026-05-05T10:50:30.69Z</time></trkpt><trkpt lat="36.8115406" lon="10.2762239"><ele>0.0</ele><time>2026-05-05T10:50:31.728Z</time></trkpt><trkpt lat="36.8115113" lon="10.2760065"><ele>0.0</ele><time>2026-05-05T10:50:32.709Z</time></trkpt><trkpt lat="36.811471" lon="10.2757914"><ele>0.0</ele><time>2026-05-05T10:50:33.697Z</time></trkpt><trkpt lat="36.8114383" lon="10.2755777"><ele>0.0</ele><time>2026-05-05T10:50:34.694Z</time></trkpt><trkpt lat="36.8114009" lon="10.2753627"><ele>0.0</ele><time>2026-05-05T10:50:35.702Z</time></trkpt><trkpt lat="36.8113665" lon="10.2751448"><ele>0.0</ele><time>2026-05-05T10:50:36.713Z</time></trkpt><trkpt lat="36.8113344" lon="10.2749284"><ele>0.0</ele><time>2026-05-05T10:50:37.704Z</time></trkpt><trkpt lat="36.8113009" lon="10.2747137"><ele>0.0</ele><time>2026-05-05T10:50:38.712Z</time></trkpt><trkpt lat="36.8112693" lon="10.2745056"><ele>0.0</ele><time>2026-05-05T10:50:39.712Z</time></trkpt><trkpt lat="36.811235" lon="10.2742968"><ele>0.0</ele><time>2026-05-05T10:50:40.709Z</time></trkpt><trkpt lat="36.8112002" lon="10.2740893"><ele>0.0</ele><time>2026-05-05T10:50:41.69Z</time></trkpt><trkpt lat="36.8111642" lon="10.273883"><ele>0.0</ele><time>2026-05-05T10:50:42.703Z</time></trkpt><trkpt lat="36.8111282" lon="10.2736775"><ele>0.0</ele><time>2026-05-05T10:50:43.711Z</time></trkpt><trkpt lat="36.8110985" lon="10.2734717"><ele>0.0</ele><time>2026-05-05T10:50:44.702Z</time></trkpt><trkpt lat="36.8110651" lon="10.273266"><ele>0.0</ele><time>2026-05-05T10:50:45.705Z</time></trkpt><trkpt lat="36.8110331" lon="10.2730629"><ele>0.0</ele><time>2026-05-05T10:50:46.716Z</time></trkpt><trkpt lat="36.8110015" lon="10.2728615"><ele>0.0</ele><time>2026-05-05T10:50:47.708Z</time></trkpt><trkpt lat="36.8109682" lon="10.2726536"><ele>0.0</ele><time>2026-05-05T10:50:48.702Z</time></trkpt><trkpt lat="36.810935" lon="10.2724499"><ele>-0.3333333333333333</ele><time>2026-05-05T10:50:49.714Z</time></trkpt><trkpt lat="36.8108998" lon="10.2722489"><ele>-0.6666666666666666</ele><time>2026-05-05T10:50:50.712Z</time></trkpt><trkpt lat="36.8108696" lon="10.2720438"><ele>-1.0</ele><time>2026-05-05T10:50:51.709Z</time></trkpt><trkpt lat="36.8108402" lon="10.2718349"><ele>-1.0</ele><time>2026-05-05T10:50:52.705Z</time></trkpt><trkpt lat="36.8108137" lon="10.2716193"><ele>-1.0</ele><time>2026-05-05T10:50:53.689Z</time></trkpt><trkpt lat="36.8107895" lon="10.2713999"><ele>-1.0</ele><time>2026-05-05T10:50:54.687Z</time></trkpt><trkpt lat="36.8107752" lon="10.2711767"><ele>-0.3333333333333333</ele><time>2026-05-05T10:50:55.703Z</time></trkpt><trkpt lat="36.8107621" lon="10.2709611"><ele>0.3333333333333333</ele><time>2026-05-05T10:50:56.698Z</time></trkpt><trkpt lat="36.8107502" lon="10.270743"><ele>1.0</ele><time>2026-05-05T10:50:57.693Z</time></trkpt><trkpt lat="36.8107392" lon="10.2705287"><ele>1.0</ele><time>2026-05-05T10:50:58.692Z</time></trkpt><trkpt lat="36.8107291" lon="10.2703058"><ele>1.0</ele><time>2026-05-05T10:50:59.706Z</time></trkpt><trkpt lat="36.8107201" lon="10.2700841"><ele>1.0</ele><time>2026-05-05T10:51:00.714Z</time></trkpt><trkpt lat="36.8107158" lon="10.2698575"><ele>0.6666666666666666</ele><time>2026-05-05T10:51:01.698Z</time></trkpt><trkpt lat="36.8107119" lon="10.2696286"><ele>0.3333333333333333</ele><time>2026-05-05T10:51:02.69Z</time></trkpt><trkpt lat="36.8107108" lon="10.2693921"><ele>0.0</ele><time>2026-05-05T10:51:03.699Z</time></trkpt><trkpt lat="36.8107136" lon="10.2691502"><ele>0.0</ele><time>2026-05-05T10:51:04.702Z</time></trkpt><trkpt lat="36.810722" lon="10.268904"><ele>0.0</ele><time>2026-05-05T10:51:05.716Z</time></trkpt><trkpt lat="36.8107324" lon="10.2686566"><ele>0.0</ele><time>2026-05-05T10:51:06.708Z</time></trkpt><trkpt lat="36.8107485" lon="10.2683979"><ele>0.0</ele><time>2026-05-05T10:51:07.693Z</time></trkpt><trkpt lat="36.8107683" lon="10.2681488"><ele>0.0</ele><time>2026-05-05T10:51:08.707Z</time></trkpt><trkpt lat="36.8107866" lon="10.2678881"><ele>0.0</ele><time>2026-05-05T10:51:09.655Z</time></trkpt><trkpt lat="36.8108037" lon="10.267629"><ele>0.0</ele><time>2026-05-05T10:51:10.667Z</time></trkpt><trkpt lat="36.810821" lon="10.2673739"><ele>0.0</ele><time>2026-05-05T10:51:11.695Z</time></trkpt><trkpt lat="36.8108372" lon="10.2671172"><ele>0.0</ele><time>2026-05-05T10:51:12.688Z</time></trkpt><trkpt lat="36.8108504" lon="10.2668591"><ele>0.0</ele><time>2026-05-05T10:51:13.702Z</time></trkpt><trkpt lat="36.8108641" lon="10.2666011"><ele>0.0</ele><time>2026-05-05T10:51:14.721Z</time></trkpt><trkpt lat="36.8108777" lon="10.2663396"><ele>0.0</ele><time>2026-05-05T10:51:15.708Z</time></trkpt><trkpt lat="36.8108855" lon="10.2660778"><ele>0.0</ele><time>2026-05-05T10:51:16.699Z</time></trkpt><trkpt lat="36.8108924" lon="10.2658166"><ele>0.0</ele><time>2026-05-05T10:51:17.697Z</time></trkpt><trkpt lat="36.8108929" lon="10.2655579"><ele>0.0</ele><time>2026-05-05T10:51:18.702Z</time></trkpt><trkpt lat="36.8108936" lon="10.2653051"><ele>0.0</ele><time>2026-05-05T10:51:19.707Z</time></trkpt><trkpt lat="36.8108881" lon="10.2650468"><ele>0.0</ele><time>2026-05-05T10:51:20.701Z</time></trkpt><trkpt lat="36.8108758" lon="10.2647861"><ele>0.0</ele><time>2026-05-05T10:51:21.694Z</time></trkpt><trkpt lat="36.8108622" lon="10.2645245"><ele>0.0</ele><time>2026-05-05T10:51:22.687Z</time></trkpt><trkpt lat="36.8108445" lon="10.2642601"><ele>0.0</ele><time>2026-05-05T10:51:23.701Z</time></trkpt><trkpt lat="36.8108221" lon="10.2639948"><ele>0.0</ele><time>2026-05-05T10:51:24.671Z</time></trkpt><trkpt lat="36.8107978" lon="10.2637339"><ele>0.0</ele><time>2026-05-05T10:51:25.696Z</time></trkpt><trkpt lat="36.8107729" lon="10.2634778"><ele>0.0</ele><time>2026-05-05T10:51:26.706Z</time></trkpt><trkpt lat="36.8107479" lon="10.263221"><ele>0.0</ele><time>2026-05-05T10:51:27.691Z</time></trkpt><trkpt lat="36.810718" lon="10.2629648"><ele>0.0</ele><time>2026-05-05T10:51:28.695Z</time></trkpt><trkpt lat="36.8106777" lon="10.2627174"><ele>0.0</ele><time>2026-05-05T10:51:29.703Z</time></trkpt><trkpt lat="36.8106391" lon="10.262479"><ele>0.0</ele><time>2026-05-05T10:51:30.69Z</time></trkpt><trkpt lat="36.8105965" lon="10.2622356"><ele>0.0</ele><time>2026-05-05T10:51:31.689Z</time></trkpt><trkpt lat="36.8105526" lon="10.2620047"><ele>0.0</ele><time>2026-05-05T10:51:32.701Z</time></trkpt><trkpt lat="36.8105056" lon="10.261774"><ele>0.0</ele><time>2026-05-05T10:51:33.712Z</time></trkpt><trkpt lat="36.8104535" lon="10.2615481"><ele>0.0</ele><time>2026-05-05T10:51:34.695Z</time></trkpt><trkpt lat="36.8103958" lon="10.2613326"><ele>0.0</ele><time>2026-05-05T10:51:35.728Z</time></trkpt><trkpt lat="36.8103403" lon="10.2611125"><ele>0.0</ele><time>2026-05-05T10:51:36.707Z</time></trkpt><trkpt lat="36.8102811" lon="10.2608891"><ele>0.0</ele><time>2026-05-05T10:51:37.7Z</time></trkpt><trkpt lat="36.8102196" lon="10.2606756"><ele>0.0</ele><time>2026-05-05T10:51:38.695Z</time></trkpt><trkpt lat="36.8101535" lon="10.2604566"><ele>0.0</ele><time>2026-05-05T10:51:39.69Z</time></trkpt><trkpt lat="36.8100857" lon="10.2602417"><ele>0.0</ele><time>2026-05-05T10:51:40.701Z</time></trkpt><trkpt lat="36.8100115" lon="10.2600232"><ele>0.0</ele><time>2026-05-05T10:51:41.692Z</time></trkpt><trkpt lat="36.8099365" lon="10.259806"><ele>0.0</ele><time>2026-05-05T10:51:42.708Z</time></trkpt><trkpt lat="36.8098638" lon="10.259588"><ele>0.0</ele><time>2026-05-05T10:51:43.652Z</time></trkpt><trkpt lat="36.8097832" lon="10.2593752"><ele>0.0</ele><time>2026-05-05T10:51:44.68Z</time></trkpt><trkpt lat="36.8097031" lon="10.2591688"><ele>0.0</ele><time>2026-05-05T10:51:45.686Z</time></trkpt><trkpt lat="36.8096215" lon="10.258964"><ele>0.0</ele><time>2026-05-05T10:51:46.683Z</time></trkpt><trkpt lat="36.8095338" lon="10.2587616"><ele>0.0</ele><time>2026-05-05T10:51:47.693Z</time></trkpt><trkpt lat="36.8094439" lon="10.2585523"><ele>0.0</ele><time>2026-05-05T10:51:48.706Z</time></trkpt><trkpt lat="36.8093534" lon="10.2583502"><ele>0.0</ele><time>2026-05-05T10:51:49.696Z</time></trkpt><trkpt lat="36.8092631" lon="10.2581523"><ele>0.0</ele><time>2026-05-05T10:51:50.698Z</time></trkpt><trkpt lat="36.8091762" lon="10.2579535"><ele>0.0</ele><time>2026-05-05T10:51:51.686Z</time></trkpt><trkpt lat="36.8090849" lon="10.2577541"><ele>0.0</ele><time>2026-05-05T10:51:52.713Z</time></trkpt><trkpt lat="36.808996" lon="10.2575475"><ele>0.0</ele><time>2026-05-05T10:51:53.696Z</time></trkpt><trkpt lat="36.8089079" lon="10.2573368"><ele>0.0</ele><time>2026-05-05T10:51:54.683Z</time></trkpt><trkpt lat="36.8088223" lon="10.2571324"><ele>0.0</ele><time>2026-05-05T10:51:55.69Z</time></trkpt><trkpt lat="36.8087395" lon="10.2569167"><ele>0.0</ele><time>2026-05-05T10:51:56.703Z</time></trkpt><trkpt lat="36.80866" lon="10.2567023"><ele>0.0</ele><time>2026-05-05T10:51:57.701Z</time></trkpt><trkpt lat="36.8085823" lon="10.2564924"><ele>0.0</ele><time>2026-05-05T10:51:58.707Z</time></trkpt><trkpt lat="36.8085061" lon="10.2562804"><ele>0.0</ele><time>2026-05-05T10:51:59.66Z</time></trkpt><trkpt lat="36.8084329" lon="10.2560602"><ele>0.0</ele><time>2026-05-05T10:52:00.71Z</time></trkpt><trkpt lat="36.8083624" lon="10.2558452"><ele>0.0</ele><time>2026-05-05T10:52:01.691Z</time></trkpt><trkpt lat="36.8082951" lon="10.2556318"><ele>0.0</ele><time>2026-05-05T10:52:02.701Z</time></trkpt><trkpt lat="36.808236" lon="10.2554123"><ele>0.0</ele><time>2026-05-05T10:52:03.696Z</time></trkpt><trkpt lat="36.8081779" lon="10.2551945"><ele>-0.3333333333333333</ele><time>2026-05-05T10:52:04.697Z</time></trkpt><trkpt lat="36.8081129" lon="10.2549724"><ele>-0.6666666666666666</ele><time>2026-05-05T10:52:05.668Z</time></trkpt><trkpt lat="36.8080495" lon="10.254751"><ele>-1.0</ele><time>2026-05-05T10:52:06.698Z</time></trkpt><trkpt lat="36.8079926" lon="10.254527"><ele>-1.0</ele><time>2026-05-05T10:52:07.698Z</time></trkpt><trkpt lat="36.8079383" lon="10.2543007"><ele>-1.0</ele><time>2026-05-05T10:52:08.695Z</time></trkpt><trkpt lat="36.8078918" lon="10.2540739"><ele>-1.0</ele><time>2026-05-05T10:52:09.692Z</time></trkpt><trkpt lat="36.8078464" lon="10.2538551"><ele>-0.6666666666666666</ele><time>2026-05-05T10:52:10.695Z</time></trkpt><trkpt lat="36.8078049" lon="10.2536281"><ele>-0.3333333333333333</ele><time>2026-05-05T10:52:11.709Z</time></trkpt><trkpt lat="36.8077589" lon="10.253392"><ele>0.0</ele><time>2026-05-05T10:52:12.723Z</time></trkpt><trkpt lat="36.8077117" lon="10.2531497"><ele>0.0</ele><time>2026-05-05T10:52:13.708Z</time></trkpt><trkpt lat="36.8076604" lon="10.2529015"><ele>0.0</ele><time>2026-05-05T10:52:14.703Z</time></trkpt><trkpt lat="36.8076063" lon="10.2526526"><ele>0.0</ele><time>2026-05-05T10:52:15.704Z</time></trkpt><trkpt lat="36.8075564" lon="10.2524001"><ele>-0.3333333333333333</ele><time>2026-05-05T10:52:16.685Z</time></trkpt><trkpt lat="36.8075112" lon="10.2521432"><ele>-0.6666666666666666</ele><time>2026-05-05T10:52:17.71Z</time></trkpt><trkpt lat="36.8074686" lon="10.2518797"><ele>-1.0</ele><time>2026-05-05T10:52:18.699Z</time></trkpt><trkpt lat="36.8074308" lon="10.2516219"><ele>-0.6666666666666666</ele><time>2026-05-05T10:52:19.664Z</time></trkpt><trkpt lat="36.8073936" lon="10.2513596"><ele>-0.3333333333333333</ele><time>2026-05-05T10:52:20.722Z</time></trkpt><trkpt lat="36.8073531" lon="10.2511025"><ele>0.0</ele><time>2026-05-05T10:52:21.696Z</time></trkpt><trkpt lat="36.807315" lon="10.2508501"><ele>0.0</ele><time>2026-05-05T10:52:22.699Z</time></trkpt><trkpt lat="36.8072755" lon="10.2505997"><ele>0.0</ele><time>2026-05-05T10:52:23.699Z</time></trkpt><trkpt lat="36.8072316" lon="10.2503453"><ele>0.0</ele><time>2026-05-05T10:52:24.673Z</time></trkpt><trkpt lat="36.8071901" lon="10.25009"><ele>0.0</ele><time>2026-05-05T10:52:25.702Z</time></trkpt><trkpt lat="36.807145" lon="10.2498413"><ele>0.0</ele><time>2026-05-05T10:52:26.699Z</time></trkpt><trkpt lat="36.807103" lon="10.2495945"><ele>0.0</ele><time>2026-05-05T10:52:27.699Z</time></trkpt><trkpt lat="36.8070631" lon="10.2493462"><ele>0.0</ele><time>2026-05-05T10:52:28.683Z</time></trkpt><trkpt lat="36.807027" lon="10.2490994"><ele>0.0</ele><time>2026-05-05T10:52:29.7Z</time></trkpt><trkpt lat="36.8069877" lon="10.2488505"><ele>0.0</ele><time>2026-05-05T10:52:30.704Z</time></trkpt><trkpt lat="36.8069425" lon="10.2485953"><ele>0.0</ele><time>2026-05-05T10:52:31.684Z</time></trkpt><trkpt lat="36.8068977" lon="10.2483404"><ele>0.0</ele><time>2026-05-05T10:52:32.702Z</time></trkpt><trkpt lat="36.8068546" lon="10.2480759"><ele>0.0</ele><time>2026-05-05T10:52:33.706Z</time></trkpt><trkpt lat="36.8068109" lon="10.2478096"><ele>-0.3333333333333333</ele><time>2026-05-05T10:52:34.687Z</time></trkpt><trkpt lat="36.8067653" lon="10.2475401"><ele>-0.6666666666666666</ele><time>2026-05-05T10:52:35.701Z</time></trkpt><trkpt lat="36.8067165" lon="10.2472695"><ele>-1.0</ele><time>2026-05-05T10:52:36.7Z</time></trkpt><trkpt lat="36.806671" lon="10.2470019"><ele>-1.0</ele><time>2026-05-05T10:52:37.66Z</time></trkpt><trkpt lat="36.8066264" lon="10.2467284"><ele>-1.0</ele><time>2026-05-05T10:52:38.688Z</time></trkpt><trkpt lat="36.8065842" lon="10.2464621"><ele>-1.0</ele><time>2026-05-05T10:52:39.697Z</time></trkpt><trkpt lat="36.8065435" lon="10.2461935"><ele>-1.0</ele><time>2026-05-05T10:52:40.689Z</time></trkpt><trkpt lat="36.8064999" lon="10.2459184"><ele>-1.0</ele><time>2026-05-05T10:52:41.698Z</time></trkpt><trkpt lat="36.8064555" lon="10.2456506"><ele>-1.0</ele><time>2026-05-05T10:52:42.692Z</time></trkpt><trkpt lat="36.8064098" lon="10.2453836"><ele>-0.6666666666666666</ele><time>2026-05-05T10:52:43.686Z</time></trkpt><trkpt lat="36.8063638" lon="10.245113"><ele>-0.3333333333333333</ele><time>2026-05-05T10:52:44.685Z</time></trkpt><trkpt lat="36.8063193" lon="10.2448423"><ele>0.0</ele><time>2026-05-05T10:52:45.685Z</time></trkpt><trkpt lat="36.806276" lon="10.2445843"><ele>0.0</ele><time>2026-05-05T10:52:46.7Z</time></trkpt><trkpt lat="36.8062333" lon="10.2443207"><ele>0.0</ele><time>2026-05-05T10:52:47.676Z</time></trkpt><trkpt lat="36.8061921" lon="10.2440576"><ele>0.0</ele><time>2026-05-05T10:52:48.694Z</time></trkpt><trkpt lat="36.8061505" lon="10.2437898"><ele>0.0</ele><time>2026-05-05T10:52:49.688Z</time></trkpt><trkpt lat="36.8061109" lon="10.2435302"><ele>0.0</ele><time>2026-05-05T10:52:50.687Z</time></trkpt><trkpt lat="36.8060739" lon="10.2432672"><ele>0.0</ele><time>2026-05-05T10:52:51.667Z</time></trkpt><trkpt lat="36.8060347" lon="10.2430039"><ele>-0.3333333333333333</ele><time>2026-05-05T10:52:52.708Z</time></trkpt><trkpt lat="36.8059928" lon="10.2427433"><ele>-0.6666666666666666</ele><time>2026-05-05T10:52:53.707Z</time></trkpt><trkpt lat="36.8059485" lon="10.242482"><ele>-1.0</ele><time>2026-05-05T10:52:54.7Z</time></trkpt><trkpt lat="36.8059063" lon="10.2422232"><ele>-1.0</ele><time>2026-05-05T10:52:55.712Z</time></trkpt><trkpt lat="36.8058689" lon="10.2419658"><ele>-1.0</ele><time>2026-05-05T10:52:56.699Z</time></trkpt><trkpt lat="36.8058328" lon="10.2417126"><ele>-1.0</ele><time>2026-05-05T10:52:57.708Z</time></trkpt><trkpt lat="36.805792" lon="10.2414586"><ele>-0.6666666666666666</ele><time>2026-05-05T10:52:58.705Z</time></trkpt><trkpt lat="36.8057513" lon="10.2412036"><ele>-0.3333333333333333</ele><time>2026-05-05T10:52:59.655Z</time></trkpt><trkpt lat="36.8057116" lon="10.2409492"><ele>0.0</ele><time>2026-05-05T10:53:00.689Z</time></trkpt><trkpt lat="36.8056713" lon="10.2406966"><ele>0.0</ele><time>2026-05-05T10:53:01.702Z</time></trkpt><trkpt lat="36.8056301" lon="10.2404477"><ele>0.0</ele><time>2026-05-05T10:53:02.701Z</time></trkpt><trkpt lat="36.8055909" lon="10.2401986"><ele>0.0</ele><time>2026-05-05T10:53:03.71Z</time></trkpt><trkpt lat="36.8055504" lon="10.2399461"><ele>0.0</ele><time>2026-05-05T10:53:04.692Z</time></trkpt><trkpt lat="36.8055081" lon="10.2396886"><ele>0.0</ele><time>2026-05-05T10:53:05.705Z</time></trkpt><trkpt lat="36.8054654" lon="10.2394379"><ele>0.0</ele><time>2026-05-05T10:53:06.692Z</time></trkpt><trkpt lat="36.8054235" lon="10.2391841"><ele>0.0</ele><time>2026-05-05T10:53:07.715Z</time></trkpt><trkpt lat="36.8053765" lon="10.2389258"><ele>0.0</ele><time>2026-05-05T10:53:08.704Z</time></trkpt><trkpt lat="36.8053338" lon="10.2386651"><ele>0.0</ele><time>2026-05-05T10:53:09.7Z</time></trkpt><trkpt lat="36.8052915" lon="10.2384044"><ele>0.0</ele><time>2026-05-05T10:53:10.688Z</time></trkpt><trkpt lat="36.8052509" lon="10.2381479"><ele>0.0</ele><time>2026-05-05T10:53:11.695Z</time></trkpt><trkpt lat="36.8052129" lon="10.2378901"><ele>0.0</ele><time>2026-05-05T10:53:12.692Z</time></trkpt><trkpt lat="36.8051729" lon="10.2376264"><ele>-0.3333333333333333</ele><time>2026-05-05T10:53:13.685Z</time></trkpt><trkpt lat="36.8051308" lon="10.2373692"><ele>-0.6666666666666666</ele><time>2026-05-05T10:53:14.682Z</time></trkpt><trkpt lat="36.8050858" lon="10.2371032"><ele>-1.0</ele><time>2026-05-05T10:53:15.699Z</time></trkpt><trkpt lat="36.8050439" lon="10.2368366"><ele>-1.0</ele><time>2026-05-05T10:53:16.663Z</time></trkpt><trkpt lat="36.8049986" lon="10.2365641"><ele>-1.0</ele><time>2026-05-05T10:53:17.703Z</time></trkpt><trkpt lat="36.8049536" lon="10.2362922"><ele>-1.0</ele><time>2026-05-05T10:53:18.695Z</time></trkpt><trkpt lat="36.8049115" lon="10.2360197"><ele>-1.0</ele><time>2026-05-05T10:53:19.669Z</time></trkpt><trkpt lat="36.8048677" lon="10.2357522"><ele>-1.0</ele><time>2026-05-05T10:53:20.689Z</time></trkpt><trkpt lat="36.8048211" lon="10.2354826"><ele>-1.0</ele><time>2026-05-05T10:53:21.706Z</time></trkpt><trkpt lat="36.8047727" lon="10.2352186"><ele>-1.3333333333333333</ele><time>2026-05-05T10:53:22.696Z</time></trkpt><trkpt lat="36.8047257" lon="10.2349549"><ele>-1.6666666666666665</ele><time>2026-05-05T10:53:23.702Z</time></trkpt><trkpt lat="36.8046809" lon="10.2346872"><ele>-2.0</ele><time>2026-05-05T10:53:24.723Z</time></trkpt><trkpt lat="36.804635" lon="10.2344192"><ele>-1.3333333333333333</ele><time>2026-05-05T10:53:25.682Z</time></trkpt><trkpt lat="36.8045912" lon="10.23415"><ele>-0.6666666666666666</ele><time>2026-05-05T10:53:26.691Z</time></trkpt><trkpt lat="36.8045466" lon="10.2338869"><ele>0.0</ele><time>2026-05-05T10:53:27.696Z</time></trkpt><trkpt lat="36.8045052" lon="10.2336213"><ele>0.0</ele><time>2026-05-05T10:53:28.705Z</time></trkpt><trkpt lat="36.8044641" lon="10.233352"><ele>0.0</ele><time>2026-05-05T10:53:29.69Z</time></trkpt><trkpt lat="36.8044229" lon="10.2330892"><ele>0.0</ele><time>2026-05-05T10:53:30.675Z</time></trkpt><trkpt lat="36.8043819" lon="10.2328355"><ele>0.0</ele><time>2026-05-05T10:53:31.694Z</time></trkpt><trkpt lat="36.8043415" lon="10.2325975"><ele>0.0</ele><time>2026-05-05T10:53:32.689Z</time></trkpt><trkpt lat="36.804297" lon="10.2323679"><ele>0.0</ele><time>2026-05-05T10:53:33.698Z</time></trkpt><trkpt lat="36.8042535" lon="10.2321346"><ele>-0.6666666666666666</ele><time>2026-05-05T10:53:34.702Z</time></trkpt><trkpt lat="36.8042113" lon="10.2319071"><ele>-1.3333333333333333</ele><time>2026-05-05T10:53:35.705Z</time></trkpt><trkpt lat="36.8041717" lon="10.2316713"><ele>-2.0</ele><time>2026-05-05T10:53:36.704Z</time></trkpt><trkpt lat="36.8041356" lon="10.2314313"><ele>-2.0</ele><time>2026-05-05T10:53:37.675Z</time></trkpt><trkpt lat="36.8040965" lon="10.2311926"><ele>-2.0</ele><time>2026-05-05T10:53:38.703Z</time></trkpt><trkpt lat="36.8040512" lon="10.2309512"><ele>-2.0</ele><time>2026-05-05T10:53:39.699Z</time></trkpt><trkpt lat="36.8040159" lon="10.2307006"><ele>-1.6666666666666665</ele><time>2026-05-05T10:53:40.691Z</time></trkpt><trkpt lat="36.8039806" lon="10.2304559"><ele>-1.3333333333333333</ele><time>2026-05-05T10:53:41.678Z</time></trkpt><trkpt lat="36.8039479" lon="10.2302112"><ele>-1.0</ele><time>2026-05-05T10:53:42.681Z</time></trkpt><trkpt lat="36.8039145" lon="10.2299728"><ele>-0.6666666666666666</ele><time>2026-05-05T10:53:43.717Z</time></trkpt><trkpt lat="36.8038755" lon="10.2297312"><ele>-0.3333333333333333</ele><time>2026-05-05T10:53:44.715Z</time></trkpt><trkpt lat="36.8038341" lon="10.2294869"><ele>0.0</ele><time>2026-05-05T10:53:45.702Z</time></trkpt><trkpt lat="36.8037956" lon="10.2292474"><ele>0.0</ele><time>2026-05-05T10:53:46.694Z</time></trkpt><trkpt lat="36.8037561" lon="10.2290077"><ele>0.0</ele><time>2026-05-05T10:53:47.715Z</time></trkpt><trkpt lat="36.8037191" lon="10.2287612"><ele>0.0</ele><time>2026-05-05T10:53:48.744Z</time></trkpt><trkpt lat="36.8036793" lon="10.2285198"><ele>0.0</ele><time>2026-05-05T10:53:49.667Z</time></trkpt><trkpt lat="36.8036395" lon="10.2282817"><ele>0.0</ele><time>2026-05-05T10:53:50.687Z</time></trkpt><trkpt lat="36.803597" lon="10.2280432"><ele>0.0</ele><time>2026-05-05T10:53:51.705Z</time></trkpt><trkpt lat="36.8035578" lon="10.2278015"><ele>0.0</ele><time>2026-05-05T10:53:52.705Z</time></trkpt><trkpt lat="36.8035228" lon="10.227555"><ele>0.0</ele><time>2026-05-05T10:53:53.695Z</time></trkpt><trkpt lat="36.8034877" lon="10.2273158"><ele>0.0</ele><time>2026-05-05T10:53:54.695Z</time></trkpt><trkpt lat="36.8034524" lon="10.2270805"><ele>-0.3333333333333333</ele><time>2026-05-05T10:53:55.704Z</time></trkpt><trkpt lat="36.8034111" lon="10.2268462"><ele>-0.6666666666666666</ele><time>2026-05-05T10:53:56.692Z</time></trkpt><trkpt lat="36.8033746" lon="10.226609"><ele>-1.0</ele><time>2026-05-05T10:53:57.693Z</time></trkpt><trkpt lat="36.8033353" lon="10.2263716"><ele>-2.0</ele><time>2026-05-05T10:53:58.691Z</time></trkpt><trkpt lat="36.8032956" lon="10.2261409"><ele>-3.0</ele><time>2026-05-05T10:53:59.709Z</time></trkpt><trkpt lat="36.8032541" lon="10.2259086"><ele>-4.0</ele><time>2026-05-05T10:54:00.682Z</time></trkpt><trkpt lat="36.8032135" lon="10.2256723"><ele>-3.0</ele><time>2026-05-05T10:54:01.722Z</time></trkpt><trkpt lat="36.803177" lon="10.2254418"><ele>-2.0</ele><time>2026-05-05T10:54:02.71Z</time></trkpt><trkpt lat="36.8031404" lon="10.2252102"><ele>-1.0</ele><time>2026-05-05T10:54:03.698Z</time></trkpt><trkpt lat="36.8031032" lon="10.2249813"><ele>-1.0</ele><time>2026-05-05T10:54:04.705Z</time></trkpt><trkpt lat="36.8030679" lon="10.2247441"><ele>-1.0</ele><time>2026-05-05T10:54:05.7Z</time></trkpt><trkpt lat="36.8030357" lon="10.2245063"><ele>-1.0</ele><time>2026-05-05T10:54:06.708Z</time></trkpt><trkpt lat="36.8029965" lon="10.2242774"><ele>-1.0</ele><time>2026-05-05T10:54:07.681Z</time></trkpt><trkpt lat="36.8029615" lon="10.2240452"><ele>-1.0</ele><time>2026-05-05T10:54:08.668Z</time></trkpt><trkpt lat="36.8029268" lon="10.2238137"><ele>-1.0</ele><time>2026-05-05T10:54:09.7Z</time></trkpt><trkpt lat="36.8028846" lon="10.2235837"><ele>-0.6666666666666666</ele><time>2026-05-05T10:54:10.7Z</time></trkpt><trkpt lat="36.8028486" lon="10.2233571"><ele>-0.3333333333333333</ele><time>2026-05-05T10:54:11.711Z</time></trkpt><trkpt lat="36.8028104" lon="10.2231312"><ele>0.0</ele><time>2026-05-05T10:54:12.692Z</time></trkpt><trkpt lat="36.8027721" lon="10.2229018"><ele>0.0</ele><time>2026-05-05T10:54:13.686Z</time></trkpt><trkpt lat="36.8027305" lon="10.2226667"><ele>0.0</ele><time>2026-05-05T10:54:14.703Z</time></trkpt><trkpt lat="36.8026945" lon="10.2224336"><ele>0.0</ele><time>2026-05-05T10:54:15.711Z</time></trkpt><trkpt lat="36.8026585" lon="10.2222021"><ele>-0.6666666666666666</ele><time>2026-05-05T10:54:16.704Z</time></trkpt><trkpt lat="36.8026163" lon="10.2219644"><ele>-1.3333333333333333</ele><time>2026-05-05T10:54:17.701Z</time></trkpt><trkpt lat="36.8025786" lon="10.2217354"><ele>-2.0</ele><time>2026-05-05T10:54:18.675Z</time></trkpt><trkpt lat="36.8025384" lon="10.2215103"><ele>-2.6666666666666665</ele><time>2026-05-05T10:54:19.683Z</time></trkpt><trkpt lat="36.802504" lon="10.221281"><ele>-3.333333333333333</ele><time>2026-05-05T10:54:20.704Z</time></trkpt><trkpt lat="36.8024693" lon="10.2210523"><ele>-4.0</ele><time>2026-05-05T10:54:21.7Z</time></trkpt><trkpt lat="36.802433" lon="10.2208251"><ele>-3.0</ele><time>2026-05-05T10:54:22.692Z</time></trkpt><trkpt lat="36.8024027" lon="10.2205965"><ele>-2.0</ele><time>2026-05-05T10:54:23.695Z</time></trkpt><trkpt lat="36.8023682" lon="10.2203655"><ele>-1.0</ele><time>2026-05-05T10:54:24.695Z</time></trkpt><trkpt lat="36.8023329" lon="10.2201368"><ele>-1.0</ele><time>2026-05-05T10:54:25.707Z</time></trkpt><trkpt lat="36.8022935" lon="10.2199049"><ele>-1.0</ele><time>2026-05-05T10:54:26.711Z</time></trkpt><trkpt lat="36.8022555" lon="10.2196724"><ele>-1.0</ele><time>2026-05-05T10:54:27.724Z</time></trkpt><trkpt lat="36.8022129" lon="10.2194446"><ele>-1.0</ele><time>2026-05-05T10:54:28.699Z</time></trkpt><trkpt lat="36.8021782" lon="10.2192149"><ele>-1.0</ele><time>2026-05-05T10:54:29.711Z</time></trkpt><trkpt lat="36.8021406" lon="10.2189849"><ele>-1.0</ele><time>2026-05-05T10:54:30.72Z</time></trkpt><trkpt lat="36.8021025" lon="10.2187503"><ele>-0.6666666666666666</ele><time>2026-05-05T10:54:31.694Z</time></trkpt><trkpt lat="36.8020599" lon="10.2185201"><ele>-0.3333333333333333</ele><time>2026-05-05T10:54:32.703Z</time></trkpt><trkpt lat="36.8020247" lon="10.2182931"><ele>0.0</ele><time>2026-05-05T10:54:33.703Z</time></trkpt><trkpt lat="36.8019894" lon="10.2180648"><ele>0.0</ele><time>2026-05-05T10:54:34.698Z</time></trkpt><trkpt lat="36.80195" lon="10.2178286"><ele>0.0</ele><time>2026-05-05T10:54:35.709Z</time></trkpt><trkpt lat="36.8019143" lon="10.2175926"><ele>0.0</ele><time>2026-05-05T10:54:36.717Z</time></trkpt><trkpt lat="36.8018772" lon="10.217354"><ele>0.0</ele><time>2026-05-05T10:54:37.722Z</time></trkpt><trkpt lat="36.8018382" lon="10.2171199"><ele>0.0</ele><time>2026-05-05T10:54:38.698Z</time></trkpt><trkpt lat="36.8018002" lon="10.2168841"><ele>0.0</ele><time>2026-05-05T10:54:39.721Z</time></trkpt><trkpt lat="36.8017657" lon="10.2166518"><ele>-1.3333333333333333</ele><time>2026-05-05T10:54:40.702Z</time></trkpt><trkpt lat="36.8017284" lon="10.216417"><ele>-2.6666666666666665</ele><time>2026-05-05T10:54:41.68Z</time></trkpt><trkpt lat="36.8016885" lon="10.216187"><ele>-4.0</ele><time>2026-05-05T10:54:42.704Z</time></trkpt><trkpt lat="36.8016523" lon="10.2159503"><ele>-4.0</ele><time>2026-05-05T10:54:43.7Z</time></trkpt><trkpt lat="36.8016127" lon="10.2157225"><ele>-4.0</ele><time>2026-05-05T10:54:44.708Z</time></trkpt><trkpt lat="36.8015699" lon="10.2154901"><ele>-4.0</ele><time>2026-05-05T10:54:45.708Z</time></trkpt><trkpt lat="36.8015268" lon="10.2152608"><ele>-3.6666666666666665</ele><time>2026-05-05T10:54:46.678Z</time></trkpt><trkpt lat="36.801478" lon="10.2150287"><ele>-3.333333333333333</ele><time>2026-05-05T10:54:47.709Z</time></trkpt><trkpt lat="36.8014357" lon="10.2147938"><ele>-3.0</ele><time>2026-05-05T10:54:48.716Z</time></trkpt><trkpt lat="36.801402" lon="10.2145579"><ele>-2.3333333333333335</ele><time>2026-05-05T10:54:49.719Z</time></trkpt><trkpt lat="36.8013705" lon="10.2143197"><ele>-1.6666666666666665</ele><time>2026-05-05T10:54:50.72Z</time></trkpt><trkpt lat="36.8013358" lon="10.2140867"><ele>-1.0</ele><time>2026-05-05T10:54:51.665Z</time></trkpt><trkpt lat="36.8012984" lon="10.2138481"><ele>-0.6666666666666666</ele><time>2026-05-05T10:54:52.679Z</time></trkpt><trkpt lat="36.8012613" lon="10.2136073"><ele>-0.3333333333333333</ele><time>2026-05-05T10:54:53.689Z</time></trkpt><trkpt lat="36.8012272" lon="10.2133716"><ele>0.0</ele><time>2026-05-05T10:54:54.693Z</time></trkpt><trkpt lat="36.8011928" lon="10.2131361"><ele>0.0</ele><time>2026-05-05T10:54:55.704Z</time></trkpt><trkpt lat="36.8011543" lon="10.2129064"><ele>0.0</ele><time>2026-05-05T10:54:56.712Z</time></trkpt><trkpt lat="36.801117" lon="10.212677"><ele>0.0</ele><time>2026-05-05T10:54:57.7Z</time></trkpt><trkpt lat="36.8010817" lon="10.2124521"><ele>0.0</ele><time>2026-05-05T10:54:58.712Z</time></trkpt><trkpt lat="36.8010457" lon="10.2122313"><ele>0.0</ele><time>2026-05-05T10:54:59.71Z</time></trkpt><trkpt lat="36.8010091" lon="10.2120165"><ele>0.0</ele><time>2026-05-05T10:55:00.722Z</time></trkpt><trkpt lat="36.8009731" lon="10.2117959"><ele>-0.6666666666666666</ele><time>2026-05-05T10:55:01.691Z</time></trkpt><trkpt lat="36.8009339" lon="10.2115783"><ele>-1.3333333333333333</ele><time>2026-05-05T10:55:02.701Z</time></trkpt><trkpt lat="36.8008909" lon="10.211362"><ele>-2.0</ele><time>2026-05-05T10:55:03.702Z</time></trkpt><trkpt lat="36.8008452" lon="10.211141"><ele>-2.0</ele><time>2026-05-05T10:55:04.706Z</time></trkpt><trkpt lat="36.8008023" lon="10.2109223"><ele>-2.0</ele><time>2026-05-05T10:55:05.7Z</time></trkpt><trkpt lat="36.8007591" lon="10.210692"><ele>-2.0</ele><time>2026-05-05T10:55:06.699Z</time></trkpt><trkpt lat="36.8007186" lon="10.2104649"><ele>-1.6666666666666665</ele><time>2026-05-05T10:55:07.703Z</time></trkpt><trkpt lat="36.8006795" lon="10.2102306"><ele>-1.3333333333333333</ele><time>2026-05-05T10:55:08.706Z</time></trkpt><trkpt lat="36.8006424" lon="10.209994"><ele>-1.0</ele><time>2026-05-05T10:55:09.705Z</time></trkpt><trkpt lat="36.8006039" lon="10.2097597"><ele>-1.0</ele><time>2026-05-05T10:55:10.672Z</time></trkpt><trkpt lat="36.8005642" lon="10.2095213"><ele>-1.0</ele><time>2026-05-05T10:55:11.704Z</time></trkpt><trkpt lat="36.8005205" lon="10.2092747"><ele>-1.0</ele><time>2026-05-05T10:55:12.699Z</time></trkpt><trkpt lat="36.8004767" lon="10.2090319"><ele>-1.3333333333333333</ele><time>2026-05-05T10:55:13.701Z</time></trkpt><trkpt lat="36.8004338" lon="10.2087907"><ele>-1.6666666666666665</ele><time>2026-05-05T10:55:14.667Z</time></trkpt><trkpt lat="36.8003939" lon="10.208548"><ele>-2.0</ele><time>2026-05-05T10:55:15.694Z</time></trkpt><trkpt lat="36.8003539" lon="10.2083113"><ele>-1.6666666666666665</ele><time>2026-05-05T10:55:16.694Z</time></trkpt><trkpt lat="36.8003135" lon="10.2080687"><ele>-1.3333333333333333</ele><time>2026-05-05T10:55:17.702Z</time></trkpt><trkpt lat="36.8002703" lon="10.2078229"><ele>-1.0</ele><time>2026-05-05T10:55:18.711Z</time></trkpt><trkpt lat="36.8002298" lon="10.2075803"><ele>-1.0</ele><time>2026-05-05T10:55:19.7Z</time></trkpt><trkpt lat="36.8001908" lon="10.2073375"><ele>-1.0</ele><time>2026-05-05T10:55:20.706Z</time></trkpt><trkpt lat="36.8001523" lon="10.207095"><ele>-1.0</ele><time>2026-05-05T10:55:21.704Z</time></trkpt><trkpt lat="36.8001165" lon="10.2068612"><ele>-1.0</ele><time>2026-05-05T10:55:22.696Z</time></trkpt><trkpt lat="36.8000781" lon="10.2066313"><ele>-1.0</ele><time>2026-05-05T10:55:23.718Z</time></trkpt><trkpt lat="36.8000435" lon="10.2063922"><ele>-1.0</ele><time>2026-05-05T10:55:24.708Z</time></trkpt><trkpt lat="36.8000096" lon="10.2061594"><ele>-1.0</ele><time>2026-05-05T10:55:25.723Z</time></trkpt><trkpt lat="36.7999725" lon="10.2059193"><ele>-1.0</ele><time>2026-05-05T10:55:26.68Z</time></trkpt><trkpt lat="36.7999361" lon="10.2056806"><ele>-1.0</ele><time>2026-05-05T10:55:27.668Z</time></trkpt><trkpt lat="36.7998983" lon="10.2054468"><ele>-1.0</ele><time>2026-05-05T10:55:28.677Z</time></trkpt><trkpt lat="36.7998641" lon="10.2052073"><ele>-1.0</ele><time>2026-05-05T10:55:29.711Z</time></trkpt><trkpt lat="36.7998299" lon="10.2049684"><ele>-1.0</ele><time>2026-05-05T10:55:30.68Z</time></trkpt><trkpt lat="36.7998" lon="10.2047335"><ele>-1.0</ele><time>2026-05-05T10:55:31.705Z</time></trkpt><trkpt lat="36.7997662" lon="10.2044936"><ele>-1.0</ele><time>2026-05-05T10:55:32.694Z</time></trkpt><trkpt lat="36.7997394" lon="10.2042526"><ele>-1.0</ele><time>2026-05-05T10:55:33.698Z</time></trkpt><trkpt lat="36.7997185" lon="10.2040099"><ele>-1.3333333333333333</ele><time>2026-05-05T10:55:34.706Z</time></trkpt><trkpt lat="36.7997075" lon="10.2037652"><ele>-1.6666666666666665</ele><time>2026-05-05T10:55:35.692Z</time></trkpt><trkpt lat="36.799701" lon="10.2035275"><ele>-2.0</ele><time>2026-05-05T10:55:36.698Z</time></trkpt><trkpt lat="36.7996988" lon="10.2032871"><ele>-2.6666666666666665</ele><time>2026-05-05T10:55:37.7Z</time></trkpt><trkpt lat="36.7997098" lon="10.2030462"><ele>-3.333333333333333</ele><time>2026-05-05T10:55:38.711Z</time></trkpt><trkpt lat="36.7997243" lon="10.2028058"><ele>-4.0</ele><time>2026-05-05T10:55:39.701Z</time></trkpt><trkpt lat="36.7997444" lon="10.2025615"><ele>-3.6666666666666665</ele><time>2026-05-05T10:55:40.714Z</time></trkpt><trkpt lat="36.7997742" lon="10.2023234"><ele>-3.333333333333333</ele><time>2026-05-05T10:55:41.66Z</time></trkpt><trkpt lat="36.7998083" lon="10.2020842"><ele>-3.0</ele><time>2026-05-05T10:55:42.672Z</time></trkpt><trkpt lat="36.7998491" lon="10.2018436"><ele>-3.0</ele><time>2026-05-05T10:55:43.698Z</time></trkpt><trkpt lat="36.799899" lon="10.2016031"><ele>-3.0</ele><time>2026-05-05T10:55:44.681Z</time></trkpt><trkpt lat="36.7999618" lon="10.2013605"><ele>-3.0</ele><time>2026-05-05T10:55:45.652Z</time></trkpt><trkpt lat="36.8000295" lon="10.201126"><ele>-3.333333333333333</ele><time>2026-05-05T10:55:46.717Z</time></trkpt><trkpt lat="36.8001045" lon="10.2008886"><ele>-3.6666666666666665</ele><time>2026-05-05T10:55:47.676Z</time></trkpt><trkpt lat="36.8001842" lon="10.2006542"><ele>-4.0</ele><time>2026-05-05T10:55:48.708Z</time></trkpt><trkpt lat="36.8002707" lon="10.2004269"><ele>-4.0</ele><time>2026-05-05T10:55:49.701Z</time></trkpt><trkpt lat="36.8003584" lon="10.2001976"><ele>-4.0</ele><time>2026-05-05T10:55:50.703Z</time></trkpt><trkpt lat="36.8004491" lon="10.1999706"><ele>-4.0</ele><time>2026-05-05T10:55:51.687Z</time></trkpt><trkpt lat="36.8005414" lon="10.1997401"><ele>-3.333333333333333</ele><time>2026-05-05T10:55:52.703Z</time></trkpt><trkpt lat="36.8006332" lon="10.1995113"><ele>-2.6666666666666665</ele><time>2026-05-05T10:55:53.725Z</time></trkpt><trkpt lat="36.8007165" lon="10.1992935"><ele>-2.0</ele><time>2026-05-05T10:55:54.696Z</time></trkpt><trkpt lat="36.8007964" lon="10.1990739"><ele>-2.333333333333333</ele><time>2026-05-05T10:55:55.658Z</time></trkpt><trkpt lat="36.8008745" lon="10.1988561"><ele>-2.6666666666666665</ele><time>2026-05-05T10:55:56.716Z</time></trkpt><trkpt lat="36.8009457" lon="10.1986362"><ele>-3.0</ele><time>2026-05-05T10:55:57.702Z</time></trkpt><trkpt lat="36.8010085" lon="10.1984112"><ele>-3.0</ele><time>2026-05-05T10:55:58.704Z</time></trkpt><trkpt lat="36.8010711" lon="10.1981926"><ele>-3.0</ele><time>2026-05-05T10:55:59.708Z</time></trkpt><trkpt lat="36.8011275" lon="10.1979726"><ele>-3.0</ele><time>2026-05-05T10:56:00.691Z</time></trkpt><trkpt lat="36.8011772" lon="10.1977593"><ele>-1.6666666666666667</ele><time>2026-05-05T10:56:01.707Z</time></trkpt><trkpt lat="36.8012262" lon="10.1975412"><ele>-0.33333333333333337</ele><time>2026-05-05T10:56:02.704Z</time></trkpt><trkpt lat="36.801263" lon="10.1973242"><ele>1.0</ele><time>2026-05-05T10:56:03.703Z</time></trkpt><trkpt lat="36.8012933" lon="10.1971104"><ele>1.0</ele><time>2026-05-05T10:56:04.724Z</time></trkpt><trkpt lat="36.8013168" lon="10.1968939"><ele>1.0</ele><time>2026-05-05T10:56:05.713Z</time></trkpt><trkpt lat="36.8013303" lon="10.1966752"><ele>1.0</ele><time>2026-05-05T10:56:06.648Z</time></trkpt><trkpt lat="36.8013416" lon="10.1964689"><ele>1.0</ele><time>2026-05-05T10:56:07.665Z</time></trkpt><trkpt lat="36.8013492" lon="10.1962836"><ele>1.0</ele><time>2026-05-05T10:56:08.672Z</time></trkpt><trkpt lat="36.8013591" lon="10.1961123"><ele>1.0</ele><time>2026-05-05T10:56:09.698Z</time></trkpt><trkpt lat="36.80137" lon="10.1959565"><ele>1.0</ele><time>2026-05-05T10:56:10.695Z</time></trkpt><trkpt lat="36.80138" lon="10.1958173"><ele>0.9999999999999999</ele><time>2026-05-05T10:56:11.7Z</time></trkpt><trkpt lat="36.8013977" lon="10.195697"><ele>1.0</ele><time>2026-05-05T10:56:12.703Z</time></trkpt><trkpt lat="36.8014318" lon="10.1955757"><ele>1.0</ele><time>2026-05-05T10:56:13.695Z</time></trkpt><trkpt lat="36.801487" lon="10.1954845"><ele>1.0</ele><time>2026-05-05T10:56:14.691Z</time></trkpt><trkpt lat="36.8015447" lon="10.1954204"><ele>0.9999999999999999</ele><time>2026-05-05T10:56:15.698Z</time></trkpt><trkpt lat="36.8016081" lon="10.1953644"><ele>1.0</ele><time>2026-05-05T10:56:16.686Z</time></trkpt><trkpt lat="36.8016572" lon="10.1953021"><ele>0.9999999999999999</ele><time>2026-05-05T10:56:17.7Z</time></trkpt><trkpt lat="36.8016918" lon="10.1952271"><ele>1.0</ele><time>2026-05-05T10:56:18.713Z</time></trkpt><trkpt lat="36.8017015" lon="10.195148"><ele>1.0</ele><time>2026-05-05T10:56:19.697Z</time></trkpt><trkpt lat="36.8016895" lon="10.1950517"><ele>1.0</ele><time>2026-05-05T10:56:20.7Z</time></trkpt><trkpt lat="36.8016564" lon="10.194968"><ele>0.9999999999999999</ele><time>2026-05-05T10:56:21.704Z</time></trkpt><trkpt lat="36.8015897" lon="10.1949152"><ele>1.0</ele><time>2026-05-05T10:56:22.702Z</time></trkpt><trkpt lat="36.801513" lon="10.1948661"><ele>1.2000000000000002</ele><time>2026-05-05T10:56:23.687Z</time></trkpt><trkpt lat="36.801428" lon="10.194825"><ele>1.4000000000000001</ele><time>2026-05-05T10:56:24.681Z</time></trkpt><trkpt lat="36.8013456" lon="10.1947614"><ele>1.6</ele><time>2026-05-05T10:56:25.707Z</time></trkpt><trkpt lat="36.8012855" lon="10.1946727"><ele>1.8</ele><time>2026-05-05T10:56:26.688Z</time></trkpt><trkpt lat="36.8012548" lon="10.1945563"><ele>2.0</ele><time>2026-05-05T10:56:27.716Z</time></trkpt><trkpt lat="36.8012328" lon="10.1944403"><ele>2.0</ele><time>2026-05-05T10:56:28.705Z</time></trkpt><trkpt lat="36.8012208" lon="10.1943177"><ele>2.0</ele><time>2026-05-05T10:56:29.703Z</time></trkpt><trkpt lat="36.8012046" lon="10.1941926"><ele>2.0</ele><time>2026-05-05T10:56:30.698Z</time></trkpt><trkpt lat="36.8011925" lon="10.194072"><ele>2.0</ele><time>2026-05-05T10:56:31.718Z</time></trkpt><trkpt lat="36.8011814" lon="10.1939534"><ele>2.0</ele><time>2026-05-05T10:56:32.696Z</time></trkpt><trkpt lat="36.8011709" lon="10.1938447"><ele>1.8333333333333333</ele><time>2026-05-05T10:56:33.699Z</time></trkpt><trkpt lat="36.8011664" lon="10.1937449"><ele>1.6666666666666665</ele><time>2026-05-05T10:56:34.708Z</time></trkpt><trkpt lat="36.8011593" lon="10.1936516"><ele>1.5</ele><time>2026-05-05T10:56:35.704Z</time></trkpt><trkpt lat="36.801155" lon="10.1935535"><ele>1.3333333333333333</ele><time>2026-05-05T10:56:36.701Z</time></trkpt><trkpt lat="36.8011469" lon="10.1934571"><ele>1.1666666666666665</ele><time>2026-05-05T10:56:37.71Z</time></trkpt><trkpt lat="36.8011345" lon="10.1933486"><ele>1.0</ele><time>2026-05-05T10:56:38.702Z</time></trkpt><trkpt lat="36.8011244" lon="10.1932377"><ele>1.2000000000000002</ele><time>2026-05-05T10:56:39.716Z</time></trkpt><trkpt lat="36.8011137" lon="10.1931228"><ele>1.4000000000000001</ele><time>2026-05-05T10:56:40.707Z</time></trkpt><trkpt lat="36.8010994" lon="10.1930072"><ele>1.6</ele><time>2026-05-05T10:56:41.67Z</time></trkpt><trkpt lat="36.8010884" lon="10.192887"><ele>1.8</ele><time>2026-05-05T10:56:42.72Z</time></trkpt><trkpt lat="36.801077" lon="10.1927708"><ele>2.0</ele><time>2026-05-05T10:56:43.734Z</time></trkpt><trkpt lat="36.8010683" lon="10.1926517"><ele>2.0</ele><time>2026-05-05T10:56:44.698Z</time></trkpt><trkpt lat="36.8010533" lon="10.1925326"><ele>2.0</ele><time>2026-05-05T10:56:45.7Z</time></trkpt><trkpt lat="36.8010406" lon="10.1924029"><ele>2.0</ele><time>2026-05-05T10:56:46.693Z</time></trkpt><trkpt lat="36.8010229" lon="10.1922765"><ele>2.0</ele><time>2026-05-05T10:56:47.695Z</time></trkpt><trkpt lat="36.8009992" lon="10.192143"><ele>2.0</ele><time>2026-05-05T10:56:48.716Z</time></trkpt><trkpt lat="36.8009853" lon="10.1920185"><ele>1.8333333333333333</ele><time>2026-05-05T10:56:49.693Z</time></trkpt><trkpt lat="36.8009684" lon="10.1919041"><ele>1.6666666666666665</ele><time>2026-05-05T10:56:50.696Z</time></trkpt><trkpt lat="36.8009517" lon="10.1917838"><ele>1.5</ele><time>2026-05-05T10:56:51.668Z</time></trkpt><trkpt lat="36.8009398" lon="10.1916725"><ele>1.3333333333333333</ele><time>2026-05-05T10:56:52.703Z</time></trkpt><trkpt lat="36.8009256" lon="10.1915694"><ele>1.1666666666666665</ele><time>2026-05-05T10:56:53.686Z</time></trkpt><trkpt lat="36.8009117" lon="10.1914684"><ele>1.0</ele><time>2026-05-05T10:56:54.703Z</time></trkpt><trkpt lat="36.8008978" lon="10.1913617"><ele>0.8333333333333333</ele><time>2026-05-05T10:56:55.702Z</time></trkpt><trkpt lat="36.8008857" lon="10.1912525"><ele>0.6666666666666666</ele><time>2026-05-05T10:56:56.706Z</time></trkpt><trkpt lat="36.8008715" lon="10.1911433"><ele>0.5</ele><time>2026-05-05T10:56:57.711Z</time></trkpt><trkpt lat="36.8008636" lon="10.1910439"><ele>0.3333333333333333</ele><time>2026-05-05T10:56:58.712Z</time></trkpt><trkpt lat="36.8008544" lon="10.1909501"><ele>0.16666666666666666</ele><time>2026-05-05T10:56:59.697Z</time></trkpt><trkpt lat="36.8008462" lon="10.1908647"><ele>0.0</ele><time>2026-05-05T10:57:00.719Z</time></trkpt><trkpt lat="36.8008382" lon="10.1907818"><ele>0.0</ele><time>2026-05-05T10:57:01.693Z</time></trkpt><trkpt lat="36.8008284" lon="10.1906918"><ele>0.0</ele><time>2026-05-05T10:57:02.69Z</time></trkpt><trkpt lat="36.8008224" lon="10.1905978"><ele>0.0</ele><time>2026-05-05T10:57:03.692Z</time></trkpt><trkpt lat="36.8008137" lon="10.1904984"><ele>0.0</ele><time>2026-05-05T10:57:04.69Z</time></trkpt><trkpt lat="36.800803" lon="10.1903881"><ele>0.0</ele><time>2026-05-05T10:57:05.701Z</time></trkpt><trkpt lat="36.800794" lon="10.1902808"><ele>0.0</ele><time>2026-05-05T10:57:06.705Z</time></trkpt><trkpt lat="36.8007837" lon="10.190176"><ele>0.0</ele><time>2026-05-05T10:57:07.697Z</time></trkpt><trkpt lat="36.8007709" lon="10.1900732"><ele>0.0</ele><time>2026-05-05T10:57:08.709Z</time></trkpt><trkpt lat="36.8007645" lon="10.1899848"><ele>0.0</ele><time>2026-05-05T10:57:09.715Z</time></trkpt><trkpt lat="36.8007525" lon="10.1899047"><ele>0.0</ele><time>2026-05-05T10:57:10.699Z</time></trkpt><trkpt lat="36.8007443" lon="10.1897724"><ele>0.0</ele><time>2026-05-05T10:57:12.702Z</time></trkpt><trkpt lat="36.8007258" lon="10.1896769"><ele>0.0</ele><time>2026-05-05T10:57:14.692Z</time></trkpt><trkpt lat="36.8007147" lon="10.1895633"><ele>0.3333333333333333</ele><time>2026-05-05T10:57:17.699Z</time></trkpt><trkpt lat="36.800693" lon="10.1894389"><ele>0.6666666666666666</ele><time>2026-05-05T10:57:20.698Z</time></trkpt><trkpt lat="36.800682" lon="10.1893296"><ele>1.0</ele><time>2026-05-05T10:57:22.684Z</time></trkpt><trkpt lat="36.8006809" lon="10.1892467"><ele>1.3333333333333333</ele><time>2026-05-05T10:57:24.68Z</time></trkpt><trkpt lat="36.8006817" lon="10.189164"><ele>1.6666666666666665</ele><time>2026-05-05T10:57:29.691Z</time></trkpt><trkpt lat="36.8006743" lon="10.1890578"><ele>2.0</ele><time>2026-05-05T10:57:36.687Z</time></trkpt><trkpt lat="36.8007023" lon="10.1889372"><ele>3.0</ele><time>2026-05-05T10:57:38.7Z</time></trkpt><trkpt lat="36.8007199" lon="10.188794"><ele>4.0</ele><time>2026-05-05T10:57:40.698Z</time></trkpt><trkpt lat="36.8007095" lon="10.1886486"><ele>4.999999999999999</ele><time>2026-05-05T10:57:42.694Z</time></trkpt><trkpt lat="36.8006686" lon="10.1885368"><ele>6.0</ele><time>2026-05-05T10:57:44.684Z</time></trkpt><trkpt lat="36.8005717" lon="10.1884815"><ele>7.0</ele><time>2026-05-05T10:57:46.678Z</time></trkpt><trkpt lat="36.8005096" lon="10.1884651"><ele>7.000000000000001</ele><time>2026-05-05T10:57:47.693Z</time></trkpt><trkpt lat="36.800396" lon="10.1884843"><ele>7.0</ele><time>2026-05-05T10:57:49.667Z</time></trkpt><trkpt lat="36.8003148" lon="10.1885287"><ele>7.0</ele><time>2026-05-05T10:57:51.696Z</time></trkpt><trkpt lat="36.8002578" lon="10.1885906"><ele>7.0</ele><time>2026-05-05T10:57:53.697Z</time></trkpt><trkpt lat="36.8002207" lon="10.1886605"><ele>7.000000000000001</ele><time>2026-05-05T10:57:57.691Z</time></trkpt><trkpt lat="36.8002399" lon="10.1887422"><ele>7.0</ele><time>2026-05-05T10:58:25.679Z</time></trkpt><trkpt lat="36.8002136" lon="10.1888184"><ele>7.0</ele><time>2026-05-05T11:00:15.675Z</time></trkpt><trkpt lat="36.8002408" lon="10.1887423"><ele>6.999999999999999</ele><time>2026-05-05T11:01:01.701Z</time></trkpt><trkpt lat="36.8001721" lon="10.1887801"><ele>6.999999999999999</ele><time>2026-05-05T11:03:43.667Z</time></trkpt><trkpt lat="36.8003025" lon="10.1889759"><ele>7.0</ele><time>2026-05-05T11:04:23.662Z</time></trkpt><trkpt lat="36.8003608" lon="10.1890556"><ele>7.0</ele><time>2026-05-05T11:04:26.661Z</time></trkpt><trkpt lat="36.8004114" lon="10.1891117"><ele>7.000000000000001</ele><time>2026-05-05T11:04:28.662Z</time></trkpt><trkpt lat="36.800488" lon="10.1891596"><ele>7.0</ele><time>2026-05-05T11:04:31.665Z</time></trkpt><trkpt lat="36.8005782" lon="10.1891489"><ele>7.0</ele><time>2026-05-05T11:04:34.651Z</time></trkpt><trkpt lat="36.80064" lon="10.1890886"><ele>7.0</ele><time>2026-05-05T11:04:38.673Z</time></trkpt><trkpt lat="36.8006794" lon="10.1889812"><ele>7.000000000000001</ele><time>2026-05-05T11:04:41.65Z</time></trkpt><trkpt lat="36.800681" lon="10.1888828"><ele>7.0</ele><time>2026-05-05T11:04:43.695Z</time></trkpt><trkpt lat="36.8006707" lon="10.1887548"><ele>7.0</ele><time>2026-05-05T11:04:45.672Z</time></trkpt><trkpt lat="36.8006455" lon="10.1886363"><ele>6.999999999999999</ele><time>2026-05-05T11:04:47.669Z</time></trkpt><trkpt lat="36.8006193" lon="10.1885449"><ele>6.999999999999999</ele><time>2026-05-05T11:04:49.667Z</time></trkpt><trkpt lat="36.8005707" lon="10.1884283"><ele>7.0</ele><time>2026-05-05T11:04:51.674Z</time></trkpt><trkpt lat="36.8005523" lon="10.1882974"><ele>7.0</ele><time>2026-05-05T11:04:53.689Z</time></trkpt><trkpt lat="36.8005224" lon="10.1881436"><ele>7.0</ele><time>2026-05-05T11:04:55.678Z</time></trkpt><trkpt lat="36.8005147" lon="10.1880417"><ele>7.0</ele><time>2026-05-05T11:04:56.69Z</time></trkpt><trkpt lat="36.8005009" lon="10.1879492"><ele>7.0</ele><time>2026-05-05T11:04:57.687Z</time></trkpt><trkpt lat="36.8004864" lon="10.1878554"><ele>7.0</ele><time>2026-05-05T11:04:58.687Z</time></trkpt><trkpt lat="36.8004702" lon="10.1877694"><ele>7.0</ele><time>2026-05-05T11:04:59.68Z</time></trkpt><trkpt lat="36.8004661" lon="10.1876806"><ele>7.0</ele><time>2026-05-05T11:05:00.685Z</time></trkpt><trkpt lat="36.8004591" lon="10.1875934"><ele>7.0</ele><time>2026-05-05T11:05:01.682Z</time></trkpt><trkpt lat="36.8004559" lon="10.1875132"><ele>7.0</ele><time>2026-05-05T11:05:02.662Z</time></trkpt><trkpt lat="36.8004426" lon="10.1873687"><ele>6.999999999999999</ele><time>2026-05-05T11:05:04.678Z</time></trkpt><trkpt lat="36.8004248" lon="10.1872375"><ele>6.999999999999999</ele><time>2026-05-05T11:05:06.694Z</time></trkpt><trkpt lat="36.800411" lon="10.1871133"><ele>7.0</ele><time>2026-05-05T11:05:08.687Z</time></trkpt><trkpt lat="36.8003979" lon="10.1869935"><ele>7.0</ele><time>2026-05-05T11:05:10.68Z</time></trkpt><trkpt lat="36.8003931" lon="10.1868967"><ele>6.666666666666667</ele><time>2026-05-05T11:05:12.685Z</time></trkpt><trkpt lat="36.8003952" lon="10.186803"><ele>6.333333333333334</ele><time>2026-05-05T11:05:15.678Z</time></trkpt><trkpt lat="36.800396" lon="10.1866951"><ele>6.0</ele><time>2026-05-05T11:05:50.682Z</time></trkpt><trkpt lat="36.8004222" lon="10.1865782"><ele>5.666666666666667</ele><time>2026-05-05T11:05:52.669Z</time></trkpt><trkpt lat="36.8004462" lon="10.1864821"><ele>5.333333333333334</ele><time>2026-05-05T11:05:54.678Z</time></trkpt><trkpt lat="36.8004629" lon="10.186397"><ele>5.0</ele><time>2026-05-05T11:05:56.667Z</time></trkpt><trkpt lat="36.8004914" lon="10.1863086"><ele>5.0</ele><time>2026-05-05T11:06:00.664Z</time></trkpt><trkpt lat="36.8004977" lon="10.1862002"><ele>5.0</ele><time>2026-05-05T11:06:03.662Z</time></trkpt><trkpt lat="36.8004914" lon="10.1861132"><ele>5.0</ele><time>2026-05-05T11:06:05.664Z</time></trkpt><trkpt lat="36.8004493" lon="10.1860164"><ele>5.0</ele><time>2026-05-05T11:06:07.675Z</time></trkpt><trkpt lat="36.800403" lon="10.1859344"><ele>5.0</ele><time>2026-05-05T11:06:09.685Z</time></trkpt><trkpt lat="36.800363" lon="10.1858547"><ele>5.0</ele><time>2026-05-05T11:06:11.664Z</time></trkpt><trkpt lat="36.8003176" lon="10.1857669"><ele>5.0</ele><time>2026-05-05T11:06:14.688Z</time></trkpt><trkpt lat="36.8002899" lon="10.185695"><ele>5.0</ele><time>2026-05-05T11:06:16.661Z</time></trkpt><trkpt lat="36.8002701" lon="10.1855853"><ele>5.0</ele><time>2026-05-05T11:06:18.665Z</time></trkpt><trkpt lat="36.8002536" lon="10.1854521"><ele>5.0</ele><time>2026-05-05T11:06:20.669Z</time></trkpt><trkpt lat="36.8002348" lon="10.1853043"><ele>5.0</ele><time>2026-05-05T11:06:22.681Z</time></trkpt><trkpt lat="36.8002207" lon="10.1851637"><ele>5.285714285714286</ele><time>2026-05-05T11:06:24.677Z</time></trkpt><trkpt lat="36.8002168" lon="10.1850836"><ele>5.571428571428571</ele><time>2026-05-05T11:06:25.676Z</time></trkpt><trkpt lat="36.8002093" lon="10.1850032"><ele>5.857142857142858</ele><time>2026-05-05T11:06:26.678Z</time></trkpt><trkpt lat="36.8002048" lon="10.1849123"><ele>6.142857142857142</ele><time>2026-05-05T11:06:27.692Z</time></trkpt><trkpt lat="36.8001938" lon="10.184816"><ele>6.428571428571429</ele><time>2026-05-05T11:06:28.636Z</time></trkpt><trkpt lat="36.8001784" lon="10.1847298"><ele>6.714285714285714</ele><time>2026-05-05T11:06:29.644Z</time></trkpt><trkpt lat="36.8001648" lon="10.1846416"><ele>7.0</ele><time>2026-05-05T11:06:30.674Z</time></trkpt><trkpt lat="36.8001535" lon="10.1845546"><ele>7.0</ele><time>2026-05-05T11:06:31.668Z</time></trkpt><trkpt lat="36.8001389" lon="10.1844699"><ele>6.999999999999999</ele><time>2026-05-05T11:06:32.686Z</time></trkpt><trkpt lat="36.8001353" lon="10.1843878"><ele>6.999999999999999</ele><time>2026-05-05T11:06:33.66Z</time></trkpt><trkpt lat="36.8001228" lon="10.1842482"><ele>7.0</ele><time>2026-05-05T11:06:35.684Z</time></trkpt><trkpt lat="36.8001084" lon="10.1841015"><ele>7.0</ele><time>2026-05-05T11:06:37.689Z</time></trkpt><trkpt lat="36.8000954" lon="10.1839771"><ele>7.25</ele><time>2026-05-05T11:06:39.675Z</time></trkpt><trkpt lat="36.8000879" lon="10.1838444"><ele>7.5</ele><time>2026-05-05T11:06:41.685Z</time></trkpt><trkpt lat="36.8000696" lon="10.183711"><ele>7.75</ele><time>2026-05-05T11:06:43.676Z</time></trkpt><trkpt lat="36.8000529" lon="10.1835611"><ele>8.0</ele><time>2026-05-05T11:06:45.677Z</time></trkpt><trkpt lat="36.8000422" lon="10.1834079"><ele>8.0</ele><time>2026-05-05T11:06:47.671Z</time></trkpt><trkpt lat="36.8000253" lon="10.1832634"><ele>8.0</ele><time>2026-05-05T11:06:49.666Z</time></trkpt><trkpt lat="36.800015" lon="10.1831215"><ele>8.0</ele><time>2026-05-05T11:06:51.67Z</time></trkpt><trkpt lat="36.8000054" lon="10.1829903"><ele>8.0</ele><time>2026-05-05T11:06:53.671Z</time></trkpt><trkpt lat="36.7999975" lon="10.182859"><ele>8.0</ele><time>2026-05-05T11:06:55.68Z</time></trkpt><trkpt lat="36.7999823" lon="10.182727"><ele>8.8</ele><time>2026-05-05T11:06:57.698Z</time></trkpt><trkpt lat="36.7999715" lon="10.1825968"><ele>9.600000000000001</ele><time>2026-05-05T11:06:59.665Z</time></trkpt><trkpt lat="36.7999674" lon="10.1824595"><ele>10.399999999999999</ele><time>2026-05-05T11:07:01.662Z</time></trkpt><trkpt lat="36.799962" lon="10.1823026"><ele>11.2</ele><time>2026-05-05T11:07:03.684Z</time></trkpt><trkpt lat="36.7999564" lon="10.1822232"><ele>12.0</ele><time>2026-05-05T11:07:04.675Z</time></trkpt><trkpt lat="36.7999488" lon="10.182133"><ele>12.0</ele><time>2026-05-05T11:07:05.66Z</time></trkpt><trkpt lat="36.7999429" lon="10.1820522"><ele>12.0</ele><time>2026-05-05T11:07:06.659Z</time></trkpt><trkpt lat="36.7999339" lon="10.1819651"><ele>12.0</ele><time>2026-05-05T11:07:07.675Z</time></trkpt><trkpt lat="36.7999286" lon="10.1818125"><ele>12.0</ele><time>2026-05-05T11:07:09.651Z</time></trkpt><trkpt lat="36.7999206" lon="10.1816743"><ele>12.0</ele><time>2026-05-05T11:07:11.675Z</time></trkpt><trkpt lat="36.7999112" lon="10.1815343"><ele>12.333333333333334</ele><time>2026-05-05T11:07:13.675Z</time></trkpt><trkpt lat="36.7999098" lon="10.181412"><ele>12.666666666666668</ele><time>2026-05-05T11:07:15.675Z</time></trkpt><trkpt lat="36.7998885" lon="10.1813132"><ele>13.0</ele><time>2026-05-05T11:07:17.682Z</time></trkpt><trkpt lat="36.7998807" lon="10.1812258"><ele>13.333333333333334</ele><time>2026-05-05T11:07:19.678Z</time></trkpt><trkpt lat="36.799874" lon="10.1811303"><ele>13.666666666666668</ele><time>2026-05-05T11:07:21.68Z</time></trkpt><trkpt lat="36.7998607" lon="10.1810006"><ele>14.0</ele><time>2026-05-05T11:07:23.655Z</time></trkpt><trkpt lat="36.7998367" lon="10.180863"><ele>14.0</ele><time>2026-05-05T11:07:25.677Z</time></trkpt><trkpt lat="36.7998189" lon="10.1807232"><ele>13.999999999999998</ele><time>2026-05-05T11:07:27.69Z</time></trkpt><trkpt lat="36.799804" lon="10.1806424"><ele>13.999999999999998</ele><time>2026-05-05T11:07:28.674Z</time></trkpt><trkpt lat="36.7997885" lon="10.1804994"><ele>14.0</ele><time>2026-05-05T11:07:30.664Z</time></trkpt><trkpt lat="36.7997731" lon="10.1803676"><ele>14.0</ele><time>2026-05-05T11:07:32.686Z</time></trkpt><trkpt lat="36.7997687" lon="10.1802253"><ele>13.799999999999999</ele><time>2026-05-05T11:07:34.679Z</time></trkpt><trkpt lat="36.799755" lon="10.1800778"><ele>13.599999999999998</ele><time>2026-05-05T11:07:36.683Z</time></trkpt><trkpt lat="36.7997455" lon="10.1799373"><ele>13.4</ele><time>2026-05-05T11:07:38.66Z</time></trkpt><trkpt lat="36.7997255" lon="10.1798142"><ele>13.2</ele><time>2026-05-05T11:07:40.68Z</time></trkpt><trkpt lat="36.7997161" lon="10.1797141"><ele>13.0</ele><time>2026-05-05T11:07:42.673Z</time></trkpt><trkpt lat="36.7997086" lon="10.1796207"><ele>12.571428571428571</ele><time>2026-05-05T11:07:44.677Z</time></trkpt><trkpt lat="36.7997046" lon="10.1795296"><ele>12.142857142857144</ele><time>2026-05-05T11:07:47.681Z</time></trkpt><trkpt lat="36.7996538" lon="10.1794582"><ele>11.714285714285715</ele><time>2026-05-05T11:07:51.663Z</time></trkpt><trkpt lat="36.7995838" lon="10.1794629"><ele>11.285714285714285</ele><time>2026-05-05T11:07:54.65Z</time></trkpt><trkpt lat="36.7995102" lon="10.1794829"><ele>10.857142857142858</ele><time>2026-05-05T11:07:57.678Z</time></trkpt><trkpt lat="36.7994663" lon="10.1795523"><ele>10.428571428571429</ele><time>2026-05-05T11:08:01.664Z</time></trkpt><trkpt lat="36.7994613" lon="10.1796362"><ele>10.0</ele><time>2026-05-05T11:08:03.65Z</time></trkpt><trkpt lat="36.7994621" lon="10.1797376"><ele>10.5</ele><time>2026-05-05T11:08:05.665Z</time></trkpt><trkpt lat="36.7994587" lon="10.1798544"><ele>11.0</ele><time>2026-05-05T11:08:07.677Z</time></trkpt><trkpt lat="36.7994611" lon="10.1799677"><ele>11.5</ele><time>2026-05-05T11:08:09.648Z</time></trkpt><trkpt lat="36.7994673" lon="10.1800699"><ele>12.0</ele><time>2026-05-05T11:08:11.678Z</time></trkpt><trkpt lat="36.7994794" lon="10.1801567"><ele>12.499999999999998</ele><time>2026-05-05T11:08:13.656Z</time></trkpt><trkpt lat="36.7994959" lon="10.1802454"><ele>13.0</ele><time>2026-05-05T11:08:15.67Z</time></trkpt><trkpt lat="36.7994955" lon="10.1803278"><ele>13.0</ele><time>2026-05-05T11:08:17.689Z</time></trkpt><trkpt lat="36.7994921" lon="10.1804139"><ele>13.0</ele><time>2026-05-05T11:08:20.666Z</time></trkpt><trkpt lat="36.7994898" lon="10.1805339"><ele>13.0</ele><time>2026-05-05T11:08:24.681Z</time></trkpt><trkpt lat="36.7995155" lon="10.1806479"><ele>13.0</ele><time>2026-05-05T11:08:26.684Z</time></trkpt><trkpt lat="36.7995382" lon="10.180766"><ele>13.0</ele><time>2026-05-05T11:08:28.671Z</time></trkpt><trkpt lat="36.7995519" lon="10.180887"><ele>13.142857142857142</ele><time>2026-05-05T11:08:30.691Z</time></trkpt><trkpt lat="36.7995678" lon="10.1809805"><ele>13.285714285714286</ele><time>2026-05-05T11:08:32.666Z</time></trkpt><trkpt lat="36.7995727" lon="10.1810763"><ele>13.428571428571429</ele><time>2026-05-05T11:08:35.698Z</time></trkpt><trkpt lat="36.7995913" lon="10.1811667"><ele>13.571428571428571</ele><time>2026-05-05T11:08:38.688Z</time></trkpt><trkpt lat="36.7995942" lon="10.1812534"><ele>13.714285714285715</ele><time>2026-05-05T11:08:40.689Z</time></trkpt><trkpt lat="36.7995874" lon="10.1813404"><ele>13.857142857142858</ele><time>2026-05-05T11:08:43.672Z</time></trkpt><trkpt lat="36.7995426" lon="10.1814076"><ele>14.0</ele><time>2026-05-05T11:08:46.658Z</time></trkpt><trkpt lat="36.7994573" lon="10.181443"><ele>14.0</ele><time>2026-05-05T11:08:49.679Z</time></trkpt><trkpt lat="36.7993736" lon="10.1814448"><ele>13.999999999999998</ele><time>2026-05-05T11:08:51.675Z</time></trkpt><trkpt lat="36.7992635" lon="10.1814615"><ele>13.999999999999998</ele><time>2026-05-05T11:08:53.665Z</time></trkpt><trkpt lat="36.7991552" lon="10.1814782"><ele>14.0</ele><time>2026-05-05T11:08:55.686Z</time></trkpt><trkpt lat="36.7990394" lon="10.1814789"><ele>14.0</ele><time>2026-05-05T11:08:57.711Z</time></trkpt><trkpt lat="36.7989327" lon="10.1815017"><ele>14.000000000000002</ele><time>2026-05-05T11:08:59.678Z</time></trkpt><trkpt lat="36.7988277" lon="10.1815205"><ele>14.0</ele><time>2026-05-05T11:09:01.69Z</time></trkpt><trkpt lat="36.7987342" lon="10.1815324"><ele>14.0</ele><time>2026-05-05T11:09:03.677Z</time></trkpt><trkpt lat="36.7986471" lon="10.1815278"><ele>14.0</ele><time>2026-05-05T11:09:05.681Z</time></trkpt><trkpt lat="36.7985611" lon="10.181518"><ele>14.000000000000002</ele><time>2026-05-05T11:09:07.676Z</time></trkpt><trkpt lat="36.7984956" lon="10.181524"><ele>14.0</ele><time>2026-05-05T11:09:10.67Z</time></trkpt><trkpt lat="36.7984276" lon="10.1815329"><ele>14.0</ele><time>2026-05-05T11:09:15.675Z</time></trkpt><trkpt lat="36.7983801" lon="10.1814648"><ele>14.0</ele><time>2026-05-05T11:09:19.679Z</time></trkpt><trkpt lat="36.7983626" lon="10.1813508"><ele>14.0</ele><time>2026-05-05T11:09:22.657Z</time></trkpt><trkpt lat="36.7983468" lon="10.1812685"><ele>14.0</ele><time>2026-05-05T11:09:24.666Z</time></trkpt><trkpt lat="36.7983449" lon="10.1811807"><ele>14.0</ele><time>2026-05-05T11:09:26.678Z</time></trkpt><trkpt lat="36.7983448" lon="10.1810939"><ele>14.0</ele><time>2026-05-05T11:09:28.653Z</time></trkpt><trkpt lat="36.7983362" lon="10.1810068"><ele>14.0</ele><time>2026-05-05T11:09:30.656Z</time></trkpt><trkpt lat="36.7983307" lon="10.1809235"><ele>14.000000000000002</ele><time>2026-05-05T11:09:32.644Z</time></trkpt><trkpt lat="36.7983202" lon="10.1808256"><ele>14.0</ele><time>2026-05-05T11:09:36.646Z</time></trkpt><trkpt lat="36.7983369" lon="10.1807325"><ele>14.0</ele><time>2026-05-05T11:09:42.662Z</time></trkpt><trkpt lat="36.7984019" lon="10.1806603"><ele>14.0</ele><time>2026-05-05T11:09:49.656Z</time></trkpt><trkpt lat="36.7984673" lon="10.1806348"><ele>14.000000000000002</ele><time>2026-05-05T11:09:51.667Z</time></trkpt><trkpt lat="36.7985572" lon="10.1806102"><ele>14.0</ele><time>2026-05-05T11:09:53.662Z</time></trkpt><trkpt lat="36.798647" lon="10.180571"><ele>13.166666666666668</ele><time>2026-05-05T11:09:55.676Z</time></trkpt><trkpt lat="36.7987398" lon="10.1805428"><ele>12.333333333333334</ele><time>2026-05-05T11:09:57.663Z</time></trkpt><trkpt lat="36.7988145" lon="10.1805243"><ele>11.5</ele><time>2026-05-05T11:09:59.68Z</time></trkpt><trkpt lat="36.7989113" lon="10.1805171"><ele>10.666666666666668</ele><time>2026-05-05T11:10:01.675Z</time></trkpt><trkpt lat="36.7989879" lon="10.1805165"><ele>9.833333333333334</ele><time>2026-05-05T11:10:03.655Z</time></trkpt><trkpt lat="36.7990598" lon="10.1804883"><ele>9.0</ele><time>2026-05-05T11:10:05.658Z</time></trkpt><trkpt lat="36.799122" lon="10.1804719"><ele>9.0</ele><time>2026-05-05T11:10:07.657Z</time></trkpt><trkpt lat="36.7992011" lon="10.1804388"><ele>9.0</ele><time>2026-05-05T11:10:10.672Z</time></trkpt><trkpt lat="36.7992839" lon="10.180447"><ele>9.0</ele><time>2026-05-05T11:10:13.668Z</time></trkpt><trkpt lat="36.7993628" lon="10.1804459"><ele>9.0</ele><time>2026-05-05T11:10:17.662Z</time></trkpt><trkpt lat="36.7994242" lon="10.1804778"><ele>9.0</ele><time>2026-05-05T11:10:20.675Z</time></trkpt><trkpt lat="36.7994856" lon="10.1805099"><ele>9.0</ele><time>2026-05-05T11:10:30.679Z</time></trkpt><trkpt lat="36.7995281" lon="10.1805877"><ele>9.714285714285715</ele><time>2026-05-05T11:10:34.672Z</time></trkpt><trkpt lat="36.799546" lon="10.1806848"><ele>10.428571428571429</ele><time>2026-05-05T11:10:37.682Z</time></trkpt><trkpt lat="36.7995712" lon="10.1807655"><ele>11.142857142857142</ele><time>2026-05-05T11:10:41.676Z</time></trkpt><trkpt lat="36.7995778" lon="10.1808472"><ele>11.857142857142858</ele><time>2026-05-05T11:10:45.677Z</time></trkpt><trkpt lat="36.7995828" lon="10.1809356"><ele>12.571428571428571</ele><time>2026-05-05T11:10:49.695Z</time></trkpt><trkpt lat="36.7995482" lon="10.1810062"><ele>13.285714285714286</ele><time>2026-05-05T11:10:55.678Z</time></trkpt><trkpt lat="36.7995379" lon="10.1811118"><ele>14.0</ele><time>2026-05-05T11:11:53.675Z</time></trkpt><trkpt lat="36.7995409" lon="10.1811908"><ele>14.0</ele><time>2026-05-05T11:14:11.729Z</time></trkpt><trkpt lat="36.799569" lon="10.1812908"><ele>13.999999999999998</ele><time>2026-05-05T11:14:17.7Z</time></trkpt><trkpt lat="36.7995963" lon="10.1814076"><ele>13.999999999999998</ele><time>2026-05-05T11:14:19.678Z</time></trkpt><trkpt lat="36.799623" lon="10.1815367"><ele>14.0</ele><time>2026-05-05T11:14:21.693Z</time></trkpt><trkpt lat="36.7996333" lon="10.1816893"><ele>14.0</ele><time>2026-05-05T11:14:23.646Z</time></trkpt><trkpt lat="36.7996539" lon="10.1818321"><ele>13.6</ele><time>2026-05-05T11:14:25.683Z</time></trkpt><trkpt lat="36.7996735" lon="10.1819735"><ele>13.2</ele><time>2026-05-05T11:14:27.667Z</time></trkpt><trkpt lat="36.799689" lon="10.1821041"><ele>12.799999999999999</ele><time>2026-05-05T11:14:29.672Z</time></trkpt><trkpt lat="36.7997001" lon="10.1821987"><ele>12.399999999999999</ele><time>2026-05-05T11:14:31.655Z</time></trkpt><trkpt lat="36.7997047" lon="10.1822977"><ele>12.0</ele><time>2026-05-05T11:14:34.651Z</time></trkpt><trkpt lat="36.7997636" lon="10.1823946"><ele>12.0</ele><time>2026-05-05T11:14:39.682Z</time></trkpt><trkpt lat="36.7998178" lon="10.1823443"><ele>12.0</ele><time>2026-05-05T11:14:42.642Z</time></trkpt><trkpt lat="36.7998975" lon="10.1822912"><ele>12.0</ele><time>2026-05-05T11:14:44.675Z</time></trkpt><trkpt lat="36.7999412" lon="10.1822288"><ele>12.0</ele><time>2026-05-05T11:14:46.655Z</time></trkpt><trkpt lat="36.7999165" lon="10.1821213"><ele>12.0</ele><time>2026-05-05T11:14:49.711Z</time></trkpt><trkpt lat="36.7999157" lon="10.1819836"><ele>12.0</ele><time>2026-05-05T11:14:51.654Z</time></trkpt><trkpt lat="36.7998945" lon="10.1818321"><ele>12.0</ele><time>2026-05-05T11:14:53.701Z</time></trkpt><trkpt lat="36.7998721" lon="10.1817259"><ele>12.0</ele><time>2026-05-05T11:14:55.702Z</time></trkpt><trkpt lat="36.799859" lon="10.1816359"><ele>12.0</ele><time>2026-05-05T11:14:58.653Z</time></trkpt><trkpt lat="36.7998591" lon="10.1815482"><ele>12.0</ele><time>2026-05-05T11:15:00.665Z</time></trkpt><trkpt lat="36.7998661" lon="10.1814453"><ele>12.0</ele><time>2026-05-05T11:15:02.658Z</time></trkpt><trkpt lat="36.7998637" lon="10.1813499"><ele>12.0</ele><time>2026-05-05T11:15:04.675Z</time></trkpt><trkpt lat="36.7998642" lon="10.1812673"><ele>12.166666666666666</ele><time>2026-05-05T11:15:06.656Z</time></trkpt><trkpt lat="36.7998482" lon="10.1811713"><ele>12.333333333333332</ele><time>2026-05-05T11:15:08.639Z</time></trkpt><trkpt lat="36.7998219" lon="10.1810519"><ele>12.5</ele><time>2026-05-05T11:15:10.648Z</time></trkpt><trkpt lat="36.799807" lon="10.1809026"><ele>12.666666666666666</ele><time>2026-05-05T11:15:12.657Z</time></trkpt><trkpt lat="36.7998054" lon="10.1808187"><ele>12.833333333333332</ele><time>2026-05-05T11:15:13.643Z</time></trkpt><trkpt lat="36.7998023" lon="10.1807388"><ele>13.0</ele><time>2026-05-05T11:15:14.653Z</time></trkpt><trkpt lat="36.7997955" lon="10.1806484"><ele>13.0</ele><time>2026-05-05T11:15:15.639Z</time></trkpt><trkpt lat="36.7997838" lon="10.1805563"><ele>13.0</ele><time>2026-05-05T11:15:16.643Z</time></trkpt><trkpt lat="36.799768" lon="10.1804706"><ele>13.0</ele><time>2026-05-05T11:15:17.644Z</time></trkpt><trkpt lat="36.7997567" lon="10.1803771"><ele>13.0</ele><time>2026-05-05T11:15:18.651Z</time></trkpt><trkpt lat="36.7997477" lon="10.1802836"><ele>13.0</ele><time>2026-05-05T11:15:19.677Z</time></trkpt><trkpt lat="36.7997395" lon="10.1801936"><ele>13.0</ele><time>2026-05-05T11:15:20.645Z</time></trkpt><trkpt lat="36.7997276" lon="10.1801045"><ele>13.0</ele><time>2026-05-05T11:15:21.641Z</time></trkpt><trkpt lat="36.7997252" lon="10.1800158"><ele>12.999999999999998</ele><time>2026-05-05T11:15:22.656Z</time></trkpt><trkpt lat="36.7997239" lon="10.1799265"><ele>13.0</ele><time>2026-05-05T11:15:23.651Z</time></trkpt><trkpt lat="36.7997141" lon="10.1798444"><ele>13.0</ele><time>2026-05-05T11:15:24.661Z</time></trkpt><trkpt lat="36.7997048" lon="10.1797135"><ele>13.0</ele><time>2026-05-05T11:15:26.659Z</time></trkpt><trkpt lat="36.7997078" lon="10.179601"><ele>12.999999999999998</ele><time>2026-05-05T11:15:28.649Z</time></trkpt><trkpt lat="36.7997237" lon="10.1794913"><ele>13.0</ele><time>2026-05-05T11:15:30.663Z</time></trkpt><trkpt lat="36.7997289" lon="10.1793965"><ele>12.499999999999998</ele><time>2026-05-05T11:15:32.655Z</time></trkpt><trkpt lat="36.7997168" lon="10.1793193"><ele>12.0</ele><time>2026-05-05T11:15:34.671Z</time></trkpt><trkpt lat="36.7997002" lon="10.179235"><ele>11.5</ele><time>2026-05-05T11:15:36.648Z</time></trkpt><trkpt lat="36.799697" lon="10.1791129"><ele>11.0</ele><time>2026-05-05T11:15:38.671Z</time></trkpt><trkpt lat="36.7996786" lon="10.1790097"><ele>10.5</ele><time>2026-05-05T11:15:40.681Z</time></trkpt><trkpt lat="36.799668" lon="10.1788895"><ele>10.0</ele><time>2026-05-05T11:15:42.665Z</time></trkpt><trkpt lat="36.7996514" lon="10.1787713"><ele>11.0</ele><time>2026-05-05T11:15:44.658Z</time></trkpt><trkpt lat="36.7996261" lon="10.178675"><ele>12.0</ele><time>2026-05-05T11:15:46.652Z</time></trkpt><trkpt lat="36.7995807" lon="10.1785947"><ele>13.0</ele><time>2026-05-05T11:15:48.658Z</time></trkpt><trkpt lat="36.7995409" lon="10.178512"><ele>14.0</ele><time>2026-05-05T11:15:50.675Z</time></trkpt><trkpt lat="36.7995002" lon="10.1784095"><ele>14.999999999999998</ele><time>2026-05-05T11:15:53.662Z</time></trkpt><trkpt lat="36.7994939" lon="10.1783233"><ele>16.0</ele><time>2026-05-05T11:15:55.66Z</time></trkpt><trkpt lat="36.7994902" lon="10.1782359"><ele>16.166666666666664</ele><time>2026-05-05T11:15:57.663Z</time></trkpt><trkpt lat="36.7994955" lon="10.1781253"><ele>16.333333333333332</ele><time>2026-05-05T11:15:59.679Z</time></trkpt><trkpt lat="36.799493" lon="10.1780375"><ele>16.5</ele><time>2026-05-05T11:16:01.674Z</time></trkpt><trkpt lat="36.7994873" lon="10.1779284"><ele>16.666666666666668</ele><time>2026-05-05T11:16:04.648Z</time></trkpt><trkpt lat="36.799451" lon="10.1778446"><ele>16.833333333333336</ele><time>2026-05-05T11:16:13.638Z</time></trkpt><trkpt lat="36.799406" lon="10.1777708"><ele>17.0</ele><time>2026-05-05T11:16:25.648Z</time></trkpt><trkpt lat="36.7994549" lon="10.1777185"><ele>17.0</ele><time>2026-05-05T11:18:45.655Z</time></trkpt></trkseg><trkseg><trkpt lat="36.7993613" lon="10.1778354"><ele>17.0</ele><time>2026-05-05T13:00:36.699Z</time></trkpt><trkpt lat="36.7994239" lon="10.1778083"><ele>17.0</ele><time>2026-05-05T13:00:55.693Z</time></trkpt><trkpt lat="36.7993518" lon="10.1777645"><ele>17.0</ele><time>2026-05-05T13:01:56.719Z</time></trkpt><trkpt lat="36.7993556" lon="10.1778593"><ele>17.0</ele><time>2026-05-05T13:02:57.716Z</time></trkpt><trkpt lat="36.7993741" lon="10.1779714"><ele>17.0</ele><time>2026-05-05T13:03:00.702Z</time></trkpt><trkpt lat="36.7993937" lon="10.1780881"><ele>17.0</ele><time>2026-05-05T13:03:03.736Z</time></trkpt><trkpt lat="36.7994031" lon="10.1781818"><ele>16.833333333333336</ele><time>2026-05-05T13:03:05.725Z</time></trkpt><trkpt lat="36.79941" lon="10.1782852"><ele>16.666666666666668</ele><time>2026-05-05T13:03:08.701Z</time></trkpt><trkpt lat="36.7994278" lon="10.1783737"><ele>16.5</ele><time>2026-05-05T13:03:11.759Z</time></trkpt><trkpt lat="36.7994285" lon="10.1784587"><ele>16.333333333333332</ele><time>2026-05-05T13:03:14.729Z</time></trkpt><trkpt lat="36.7994139" lon="10.1785797"><ele>16.166666666666664</ele><time>2026-05-05T13:03:17.73Z</time></trkpt><trkpt lat="36.7993762" lon="10.1787187"><ele>16.0</ele><time>2026-05-05T13:03:19.706Z</time></trkpt><trkpt lat="36.7993688" lon="10.1788415"><ele>15.999999999999998</ele><time>2026-05-05T13:03:21.746Z</time></trkpt><trkpt lat="36.799368" lon="10.1789716"><ele>16.0</ele><time>2026-05-05T13:03:23.74Z</time></trkpt><trkpt lat="36.7993753" lon="10.1790746"><ele>16.0</ele><time>2026-05-05T13:03:25.734Z</time></trkpt><trkpt lat="36.7993803" lon="10.1791576"><ele>16.0</ele><time>2026-05-05T13:03:27.71Z</time></trkpt><trkpt lat="36.7993906" lon="10.1792614"><ele>15.999999999999998</ele><time>2026-05-05T13:03:30.736Z</time></trkpt><trkpt lat="36.7993965" lon="10.1793539"><ele>16.0</ele><time>2026-05-05T13:03:33.748Z</time></trkpt><trkpt lat="36.7994138" lon="10.179431"><ele>15.499999999999998</ele><time>2026-05-05T13:03:36.748Z</time></trkpt><trkpt lat="36.7994295" lon="10.1795161"><ele>15.0</ele><time>2026-05-05T13:03:39.713Z</time></trkpt><trkpt lat="36.7994525" lon="10.1795928"><ele>14.5</ele><time>2026-05-05T13:03:41.741Z</time></trkpt><trkpt lat="36.7994742" lon="10.1796865"><ele>14.0</ele><time>2026-05-05T13:03:43.699Z</time></trkpt><trkpt lat="36.7994723" lon="10.1797901"><ele>13.499999999999998</ele><time>2026-05-05T13:03:45.749Z</time></trkpt><trkpt lat="36.7994909" lon="10.1799341"><ele>13.0</ele><time>2026-05-05T13:03:47.745Z</time></trkpt><trkpt lat="36.7995014" lon="10.1800138"><ele>12.999999999999998</ele><time>2026-05-05T13:03:48.739Z</time></trkpt><trkpt lat="36.7995092" lon="10.1800965"><ele>13.0</ele><time>2026-05-05T13:03:49.723Z</time></trkpt><trkpt lat="36.7995133" lon="10.1801792"><ele>13.0</ele><time>2026-05-05T13:03:50.731Z</time></trkpt><trkpt lat="36.7995209" lon="10.1802687"><ele>13.0</ele><time>2026-05-05T13:03:51.739Z</time></trkpt><trkpt lat="36.7995245" lon="10.1803542"><ele>12.999999999999998</ele><time>2026-05-05T13:03:52.754Z</time></trkpt><trkpt lat="36.7995329" lon="10.1804387"><ele>13.0</ele><time>2026-05-05T13:03:53.717Z</time></trkpt><trkpt lat="36.799553" lon="10.1805878"><ele>12.999999999999998</ele><time>2026-05-05T13:03:55.753Z</time></trkpt><trkpt lat="36.7995688" lon="10.1806717"><ele>13.0</ele><time>2026-05-05T13:03:56.75Z</time></trkpt><trkpt lat="36.7995817" lon="10.1807563"><ele>13.0</ele><time>2026-05-05T13:03:57.748Z</time></trkpt><trkpt lat="36.7995894" lon="10.1808406"><ele>13.0</ele><time>2026-05-05T13:03:58.726Z</time></trkpt><trkpt lat="36.7996067" lon="10.1809869"><ele>12.999999999999998</ele><time>2026-05-05T13:04:00.721Z</time></trkpt><trkpt lat="36.799622" lon="10.1811192"><ele>13.0</ele><time>2026-05-05T13:04:02.757Z</time></trkpt><trkpt lat="36.7996266" lon="10.1812296"><ele>13.166666666666666</ele><time>2026-05-05T13:04:04.747Z</time></trkpt><trkpt lat="36.7996318" lon="10.1813317"><ele>13.333333333333332</ele><time>2026-05-05T13:04:06.708Z</time></trkpt><trkpt lat="36.7996417" lon="10.1814304"><ele>13.5</ele><time>2026-05-05T13:04:08.739Z</time></trkpt><trkpt lat="36.7996431" lon="10.1815321"><ele>13.666666666666668</ele><time>2026-05-05T13:04:10.735Z</time></trkpt><trkpt lat="36.799662" lon="10.1816703"><ele>13.833333333333334</ele><time>2026-05-05T13:04:12.737Z</time></trkpt><trkpt lat="36.799674" lon="10.181751"><ele>14.0</ele><time>2026-05-05T13:04:13.731Z</time></trkpt><trkpt lat="36.7996837" lon="10.181902"><ele>13.714285714285714</ele><time>2026-05-05T13:04:15.751Z</time></trkpt><trkpt lat="36.799691" lon="10.1820215"><ele>13.428571428571429</ele><time>2026-05-05T13:04:17.726Z</time></trkpt><trkpt lat="36.7996976" lon="10.1821151"><ele>13.142857142857142</ele><time>2026-05-05T13:04:19.739Z</time></trkpt><trkpt lat="36.7997101" lon="10.1821981"><ele>12.857142857142858</ele><time>2026-05-05T13:04:21.735Z</time></trkpt><trkpt lat="36.7997111" lon="10.1822798"><ele>12.571428571428571</ele><time>2026-05-05T13:04:23.735Z</time></trkpt><trkpt lat="36.7997143" lon="10.1823741"><ele>12.285714285714285</ele><time>2026-05-05T13:04:25.732Z</time></trkpt><trkpt lat="36.7997196" lon="10.1824572"><ele>12.0</ele><time>2026-05-05T13:04:27.736Z</time></trkpt><trkpt lat="36.7997368" lon="10.1825385"><ele>12.0</ele><time>2026-05-05T13:04:29.736Z</time></trkpt><trkpt lat="36.7997538" lon="10.1826262"><ele>12.0</ele><time>2026-05-05T13:04:31.737Z</time></trkpt><trkpt lat="36.7997701" lon="10.1827227"><ele>12.0</ele><time>2026-05-05T13:04:33.761Z</time></trkpt><trkpt lat="36.7997776" lon="10.1828277"><ele>12.0</ele><time>2026-05-05T13:04:35.746Z</time></trkpt><trkpt lat="36.7997835" lon="10.182951"><ele>12.0</ele><time>2026-05-05T13:04:37.755Z</time></trkpt><trkpt lat="36.799792" lon="10.1830666"><ele>12.0</ele><time>2026-05-05T13:04:39.74Z</time></trkpt><trkpt lat="36.7998025" lon="10.1831839"><ele>11.333333333333334</ele><time>2026-05-05T13:04:41.735Z</time></trkpt><trkpt lat="36.7998085" lon="10.1833077"><ele>10.666666666666666</ele><time>2026-05-05T13:04:43.722Z</time></trkpt><trkpt lat="36.7998225" lon="10.183415"><ele>10.0</ele><time>2026-05-05T13:04:45.755Z</time></trkpt><trkpt lat="36.799842" lon="10.1835122"><ele>9.333333333333332</ele><time>2026-05-05T13:04:47.763Z</time></trkpt><trkpt lat="36.7998516" lon="10.1836009"><ele>8.666666666666666</ele><time>2026-05-05T13:04:49.75Z</time></trkpt><trkpt lat="36.7998625" lon="10.1836788"><ele>8.0</ele><time>2026-05-05T13:04:51.739Z</time></trkpt><trkpt lat="36.7998764" lon="10.183799"><ele>7.999999999999999</ele><time>2026-05-05T13:04:53.748Z</time></trkpt><trkpt lat="36.799896" lon="10.1838863"><ele>8.0</ele><time>2026-05-05T13:04:55.74Z</time></trkpt><trkpt lat="36.7999097" lon="10.1839723"><ele>8.0</ele><time>2026-05-05T13:04:58.749Z</time></trkpt><trkpt lat="36.7999085" lon="10.1840615"><ele>8.0</ele><time>2026-05-05T13:05:10.749Z</time></trkpt><trkpt lat="36.7999282" lon="10.1841422"><ele>7.999999999999999</ele><time>2026-05-05T13:05:15.74Z</time></trkpt><trkpt lat="36.7999451" lon="10.1842498"><ele>8.0</ele><time>2026-05-05T13:05:47.734Z</time></trkpt><trkpt lat="36.7999633" lon="10.1843777"><ele>7.800000000000001</ele><time>2026-05-05T13:05:49.726Z</time></trkpt><trkpt lat="36.7999817" lon="10.1845179"><ele>7.6000000000000005</ele><time>2026-05-05T13:05:51.764Z</time></trkpt><trkpt lat="36.799989" lon="10.1846806"><ele>7.3999999999999995</ele><time>2026-05-05T13:05:53.727Z</time></trkpt><trkpt lat="36.7999943" lon="10.184768"><ele>7.199999999999999</ele><time>2026-05-05T13:05:54.725Z</time></trkpt><trkpt lat="36.8000023" lon="10.1848541"><ele>7.0</ele><time>2026-05-05T13:05:55.71Z</time></trkpt><trkpt lat="36.8000076" lon="10.1849382"><ele>7.0</ele><time>2026-05-05T13:05:56.727Z</time></trkpt><trkpt lat="36.8000164" lon="10.1850253"><ele>6.999999999999999</ele><time>2026-05-05T13:05:57.749Z</time></trkpt><trkpt lat="36.8000405" lon="10.1851769"><ele>6.999999999999999</ele><time>2026-05-05T13:05:59.754Z</time></trkpt><trkpt lat="36.8000581" lon="10.1853024"><ele>7.0</ele><time>2026-05-05T13:06:01.745Z</time></trkpt><trkpt lat="36.8000783" lon="10.1853834"><ele>7.0</ele><time>2026-05-05T13:06:04.746Z</time></trkpt><trkpt lat="36.8000924" lon="10.1855035"><ele>7.000000000000001</ele><time>2026-05-05T13:06:08.746Z</time></trkpt><trkpt lat="36.8001023" lon="10.1856172"><ele>7.0</ele><time>2026-05-05T13:06:10.729Z</time></trkpt><trkpt lat="36.8001057" lon="10.1857266"><ele>7.0</ele><time>2026-05-05T13:06:12.726Z</time></trkpt><trkpt lat="36.8001129" lon="10.1858415"><ele>7.0</ele><time>2026-05-05T13:06:14.737Z</time></trkpt><trkpt lat="36.8000951" lon="10.1859463"><ele>7.000000000000001</ele><time>2026-05-05T13:06:16.737Z</time></trkpt><trkpt lat="36.8000459" lon="10.1860327"><ele>7.0</ele><time>2026-05-05T13:06:18.729Z</time></trkpt><trkpt lat="36.800006" lon="10.1861285"><ele>6.666666666666667</ele><time>2026-05-05T13:06:20.709Z</time></trkpt><trkpt lat="36.8000033" lon="10.1862477"><ele>6.333333333333334</ele><time>2026-05-05T13:06:22.729Z</time></trkpt><trkpt lat="36.8000365" lon="10.1863583"><ele>6.0</ele><time>2026-05-05T13:06:24.752Z</time></trkpt><trkpt lat="36.8000786" lon="10.1864493"><ele>5.666666666666667</ele><time>2026-05-05T13:06:26.736Z</time></trkpt><trkpt lat="36.8001179" lon="10.186516"><ele>5.333333333333334</ele><time>2026-05-05T13:06:28.71Z</time></trkpt><trkpt lat="36.8001723" lon="10.186575"><ele>5.0</ele><time>2026-05-05T13:06:30.733Z</time></trkpt><trkpt lat="36.8002702" lon="10.1865764"><ele>5.0</ele><time>2026-05-05T13:06:32.759Z</time></trkpt><trkpt lat="36.8003803" lon="10.1865461"><ele>5.0</ele><time>2026-05-05T13:06:34.722Z</time></trkpt><trkpt lat="36.800487" lon="10.1865228"><ele>5.0</ele><time>2026-05-05T13:06:36.765Z</time></trkpt><trkpt lat="36.8005536" lon="10.1865052"><ele>5.0</ele><time>2026-05-05T13:06:37.728Z</time></trkpt><trkpt lat="36.8006233" lon="10.1864842"><ele>5.0</ele><time>2026-05-05T13:06:38.74Z</time></trkpt><trkpt lat="36.8006901" lon="10.1864615"><ele>5.0</ele><time>2026-05-05T13:06:39.745Z</time></trkpt><trkpt lat="36.8007589" lon="10.1864418"><ele>5.0</ele><time>2026-05-05T13:06:40.747Z</time></trkpt><trkpt lat="36.8008303" lon="10.186424"><ele>5.0</ele><time>2026-05-05T13:06:41.75Z</time></trkpt><trkpt lat="36.8009022" lon="10.1864035"><ele>5.0</ele><time>2026-05-05T13:06:42.737Z</time></trkpt><trkpt lat="36.800975" lon="10.1863804"><ele>5.0</ele><time>2026-05-05T13:06:43.747Z</time></trkpt><trkpt lat="36.8010513" lon="10.1863582"><ele>5.0</ele><time>2026-05-05T13:06:44.752Z</time></trkpt><trkpt lat="36.8011382" lon="10.1863463"><ele>5.0</ele><time>2026-05-05T13:06:45.74Z</time></trkpt><trkpt lat="36.8012273" lon="10.1863299"><ele>4.8</ele><time>2026-05-05T13:06:46.747Z</time></trkpt><trkpt lat="36.8013213" lon="10.1863132"><ele>4.6</ele><time>2026-05-05T13:06:47.738Z</time></trkpt><trkpt lat="36.8014246" lon="10.1862921"><ele>4.4</ele><time>2026-05-05T13:06:48.752Z</time></trkpt><trkpt lat="36.8015321" lon="10.186274"><ele>4.2</ele><time>2026-05-05T13:06:49.744Z</time></trkpt><trkpt lat="36.8016342" lon="10.1862499"><ele>4.0</ele><time>2026-05-05T13:06:50.748Z</time></trkpt><trkpt lat="36.8017438" lon="10.1862337"><ele>3.75</ele><time>2026-05-05T13:06:51.756Z</time></trkpt><trkpt lat="36.8018619" lon="10.1862112"><ele>3.5</ele><time>2026-05-05T13:06:52.752Z</time></trkpt><trkpt lat="36.8019825" lon="10.1861936"><ele>3.25</ele><time>2026-05-05T13:06:53.742Z</time></trkpt><trkpt lat="36.8021084" lon="10.186174"><ele>3.0</ele><time>2026-05-05T13:06:54.743Z</time></trkpt><trkpt lat="36.8022357" lon="10.1861514"><ele>3.0</ele><time>2026-05-05T13:06:55.743Z</time></trkpt><trkpt lat="36.8023601" lon="10.1861318"><ele>3.0</ele><time>2026-05-05T13:06:56.756Z</time></trkpt><trkpt lat="36.8024853" lon="10.1861119"><ele>3.0</ele><time>2026-05-05T13:06:57.713Z</time></trkpt><trkpt lat="36.8026159" lon="10.1860912"><ele>3.0</ele><time>2026-05-05T13:06:58.76Z</time></trkpt><trkpt lat="36.8027516" lon="10.1860671"><ele>4.75</ele><time>2026-05-05T13:06:59.751Z</time></trkpt><trkpt lat="36.8028867" lon="10.1860459"><ele>6.5</ele><time>2026-05-05T13:07:00.711Z</time></trkpt><trkpt lat="36.8030135" lon="10.1860236"><ele>8.25</ele><time>2026-05-05T13:07:01.746Z</time></trkpt><trkpt lat="36.8031339" lon="10.186001"><ele>10.0</ele><time>2026-05-05T13:07:02.743Z</time></trkpt><trkpt lat="36.8032557" lon="10.1859822"><ele>10.0</ele><time>2026-05-05T13:07:03.698Z</time></trkpt><trkpt lat="36.8033796" lon="10.1859636"><ele>10.0</ele><time>2026-05-05T13:07:04.724Z</time></trkpt><trkpt lat="36.8035049" lon="10.1859401"><ele>10.0</ele><time>2026-05-05T13:07:05.731Z</time></trkpt><trkpt lat="36.803633" lon="10.1859228"><ele>10.0</ele><time>2026-05-05T13:07:06.72Z</time></trkpt><trkpt lat="36.803759" lon="10.1859016"><ele>8.75</ele><time>2026-05-05T13:07:07.732Z</time></trkpt><trkpt lat="36.8038878" lon="10.1858794"><ele>7.5</ele><time>2026-05-05T13:07:08.725Z</time></trkpt><trkpt lat="36.8040188" lon="10.1858608"><ele>6.25</ele><time>2026-05-05T13:07:09.719Z</time></trkpt><trkpt lat="36.8041527" lon="10.1858415"><ele>5.0</ele><time>2026-05-05T13:07:10.736Z</time></trkpt><trkpt lat="36.8042897" lon="10.1858195"><ele>4.0</ele><time>2026-05-05T13:07:11.739Z</time></trkpt><trkpt lat="36.8044265" lon="10.1857936"><ele>3.0</ele><time>2026-05-05T13:07:12.733Z</time></trkpt><trkpt lat="36.8045624" lon="10.1857645"><ele>2.0</ele><time>2026-05-05T13:07:13.748Z</time></trkpt><trkpt lat="36.8046924" lon="10.1857389"><ele>1.0</ele><time>2026-05-05T13:07:14.729Z</time></trkpt><trkpt lat="36.8048235" lon="10.1857197"><ele>1.0</ele><time>2026-05-05T13:07:15.723Z</time></trkpt><trkpt lat="36.804953" lon="10.1856929"><ele>1.0</ele><time>2026-05-05T13:07:16.738Z</time></trkpt><trkpt lat="36.8050785" lon="10.1856705"><ele>1.0</ele><time>2026-05-05T13:07:17.702Z</time></trkpt><trkpt lat="36.8052057" lon="10.185648"><ele>1.0</ele><time>2026-05-05T13:07:18.753Z</time></trkpt><trkpt lat="36.805332" lon="10.1856264"><ele>1.25</ele><time>2026-05-05T13:07:19.736Z</time></trkpt><trkpt lat="36.8054557" lon="10.1856036"><ele>1.5</ele><time>2026-05-05T13:07:20.751Z</time></trkpt><trkpt lat="36.8055676" lon="10.1855803"><ele>1.75</ele><time>2026-05-05T13:07:21.749Z</time></trkpt><trkpt lat="36.8056759" lon="10.1855568"><ele>2.0</ele><time>2026-05-05T13:07:22.722Z</time></trkpt><trkpt lat="36.8057804" lon="10.1855412"><ele>1.9999999999999998</ele><time>2026-05-05T13:07:23.73Z</time></trkpt><trkpt lat="36.8058746" lon="10.1855224"><ele>2.0</ele><time>2026-05-05T13:07:24.757Z</time></trkpt><trkpt lat="36.8059532" lon="10.1855134"><ele>2.0</ele><time>2026-05-05T13:07:25.742Z</time></trkpt><trkpt lat="36.8060264" lon="10.1855022"><ele>2.0</ele><time>2026-05-05T13:07:26.75Z</time></trkpt><trkpt lat="36.8060989" lon="10.1854897"><ele>1.9999999999999998</ele><time>2026-05-05T13:07:27.76Z</time></trkpt><trkpt lat="36.8061657" lon="10.185475"><ele>2.0</ele><time>2026-05-05T13:07:28.743Z</time></trkpt><trkpt lat="36.8062769" lon="10.1854561"><ele>2.0</ele><time>2026-05-05T13:07:30.745Z</time></trkpt><trkpt lat="36.8063516" lon="10.1854439"><ele>2.0</ele><time>2026-05-05T13:07:33.747Z</time></trkpt><trkpt lat="36.8064597" lon="10.1854193"><ele>2.0</ele><time>2026-05-05T13:07:57.737Z</time></trkpt><trkpt lat="36.8065854" lon="10.185405"><ele>2.0</ele><time>2026-05-05T13:07:59.728Z</time></trkpt><trkpt lat="36.8067127" lon="10.185386"><ele>2.0</ele><time>2026-05-05T13:08:01.705Z</time></trkpt><trkpt lat="36.8067882" lon="10.18538"><ele>3.6</ele><time>2026-05-05T13:08:02.728Z</time></trkpt><trkpt lat="36.8068671" lon="10.1853716"><ele>5.2</ele><time>2026-05-05T13:08:03.723Z</time></trkpt><trkpt lat="36.8069461" lon="10.1853568"><ele>6.8</ele><time>2026-05-05T13:08:04.728Z</time></trkpt><trkpt lat="36.8070337" lon="10.1853405"><ele>8.4</ele><time>2026-05-05T13:08:05.74Z</time></trkpt><trkpt lat="36.8071307" lon="10.1853256"><ele>10.0</ele><time>2026-05-05T13:08:06.738Z</time></trkpt><trkpt lat="36.807235" lon="10.1853099"><ele>10.0</ele><time>2026-05-05T13:08:07.743Z</time></trkpt><trkpt lat="36.8073343" lon="10.1852899"><ele>10.0</ele><time>2026-05-05T13:08:08.707Z</time></trkpt><trkpt lat="36.8074326" lon="10.1852695"><ele>10.0</ele><time>2026-05-05T13:08:09.736Z</time></trkpt><trkpt lat="36.8075431" lon="10.1852488"><ele>10.0</ele><time>2026-05-05T13:08:10.706Z</time></trkpt><trkpt lat="36.8076587" lon="10.1852284"><ele>10.0</ele><time>2026-05-05T13:08:11.729Z</time></trkpt><trkpt lat="36.8077687" lon="10.1852035"><ele>9.333333333333334</ele><time>2026-05-05T13:08:12.718Z</time></trkpt><trkpt lat="36.807874" lon="10.185188"><ele>8.666666666666668</ele><time>2026-05-05T13:08:13.735Z</time></trkpt><trkpt lat="36.8079655" lon="10.1851725"><ele>8.0</ele><time>2026-05-05T13:08:14.72Z</time></trkpt><trkpt lat="36.8080476" lon="10.1851533"><ele>7.333333333333334</ele><time>2026-05-05T13:08:15.736Z</time></trkpt><trkpt lat="36.8081225" lon="10.1851454"><ele>6.666666666666667</ele><time>2026-05-05T13:08:16.699Z</time></trkpt><trkpt lat="36.8081875" lon="10.1851359"><ele>6.0</ele><time>2026-05-05T13:08:17.728Z</time></trkpt><trkpt lat="36.8082937" lon="10.1851176"><ele>6.0</ele><time>2026-05-05T13:08:19.744Z</time></trkpt><trkpt lat="36.8083581" lon="10.1851022"><ele>6.0</ele><time>2026-05-05T13:08:21.725Z</time></trkpt><trkpt lat="36.8084375" lon="10.1850865"><ele>6.0</ele><time>2026-05-05T13:08:44.727Z</time></trkpt><trkpt lat="36.8085363" lon="10.1850654"><ele>6.0</ele><time>2026-05-05T13:08:46.739Z</time></trkpt><trkpt lat="36.8086224" lon="10.1850304"><ele>6.0</ele><time>2026-05-05T13:08:48.734Z</time></trkpt><trkpt lat="36.8086842" lon="10.1849473"><ele>6.0</ele><time>2026-05-05T13:08:50.754Z</time></trkpt><trkpt lat="36.808721" lon="10.1848144"><ele>5.999999999999999</ele><time>2026-05-05T13:08:52.71Z</time></trkpt><trkpt lat="36.8087292" lon="10.1847276"><ele>6.0</ele><time>2026-05-05T13:08:53.736Z</time></trkpt><trkpt lat="36.8087235" lon="10.1846385"><ele>6.0</ele><time>2026-05-05T13:08:54.74Z</time></trkpt><trkpt lat="36.8087143" lon="10.1845394"><ele>6.0</ele><time>2026-05-05T13:08:55.736Z</time></trkpt><trkpt lat="36.8087032" lon="10.1844391"><ele>6.0</ele><time>2026-05-05T13:08:56.737Z</time></trkpt><trkpt lat="36.8086914" lon="10.1843523"><ele>5.999999999999999</ele><time>2026-05-05T13:08:57.744Z</time></trkpt><trkpt lat="36.8086821" lon="10.1842635"><ele>6.0</ele><time>2026-05-05T13:08:58.714Z</time></trkpt><trkpt lat="36.8086719" lon="10.1841783"><ele>5.999999999999999</ele><time>2026-05-05T13:08:59.726Z</time></trkpt><trkpt lat="36.8086607" lon="10.1840915"><ele>6.0</ele><time>2026-05-05T13:09:00.72Z</time></trkpt><trkpt lat="36.8086502" lon="10.1840043"><ele>6.0</ele><time>2026-05-05T13:09:01.734Z</time></trkpt><trkpt lat="36.8086384" lon="10.1839203"><ele>6.0</ele><time>2026-05-05T13:09:02.734Z</time></trkpt><trkpt lat="36.8086229" lon="10.1838305"><ele>6.0</ele><time>2026-05-05T13:09:03.71Z</time></trkpt><trkpt lat="36.8086019" lon="10.1837397"><ele>5.999999999999999</ele><time>2026-05-05T13:09:04.746Z</time></trkpt><trkpt lat="36.8085896" lon="10.1836431"><ele>6.0</ele><time>2026-05-05T13:09:05.745Z</time></trkpt><trkpt lat="36.8085819" lon="10.1835414"><ele>5.833333333333333</ele><time>2026-05-05T13:09:06.733Z</time></trkpt><trkpt lat="36.8085759" lon="10.183442"><ele>5.666666666666667</ele><time>2026-05-05T13:09:07.735Z</time></trkpt><trkpt lat="36.8085671" lon="10.1833321"><ele>5.5</ele><time>2026-05-05T13:09:08.729Z</time></trkpt><trkpt lat="36.8085626" lon="10.1832276"><ele>5.333333333333334</ele><time>2026-05-05T13:09:09.748Z</time></trkpt><trkpt lat="36.8085587" lon="10.1831391"><ele>5.166666666666667</ele><time>2026-05-05T13:09:10.728Z</time></trkpt><trkpt lat="36.8085502" lon="10.1830537"><ele>5.0</ele><time>2026-05-05T13:09:11.739Z</time></trkpt><trkpt lat="36.8085393" lon="10.1829658"><ele>5.0</ele><time>2026-05-05T13:09:12.725Z</time></trkpt><trkpt lat="36.808522" lon="10.1828787"><ele>5.0</ele><time>2026-05-05T13:09:13.738Z</time></trkpt><trkpt lat="36.8085138" lon="10.1827888"><ele>5.0</ele><time>2026-05-05T13:09:14.747Z</time></trkpt><trkpt lat="36.8085001" lon="10.1826988"><ele>5.0</ele><time>2026-05-05T13:09:15.736Z</time></trkpt><trkpt lat="36.8084862" lon="10.1826209"><ele>5.0</ele><time>2026-05-05T13:09:16.744Z</time></trkpt><trkpt lat="36.8084614" lon="10.1824877"><ele>5.0</ele><time>2026-05-05T13:09:18.73Z</time></trkpt><trkpt lat="36.8084499" lon="10.182372"><ele>5.166666666666667</ele><time>2026-05-05T13:09:20.698Z</time></trkpt><trkpt lat="36.8084469" lon="10.1822836"><ele>5.333333333333334</ele><time>2026-05-05T13:09:22.738Z</time></trkpt><trkpt lat="36.8084219" lon="10.1821994"><ele>5.5</ele><time>2026-05-05T13:09:24.76Z</time></trkpt><trkpt lat="36.8083989" lon="10.1820864"><ele>5.666666666666667</ele><time>2026-05-05T13:09:27.727Z</time></trkpt><trkpt lat="36.8084049" lon="10.1819762"><ele>5.833333333333333</ele><time>2026-05-05T13:09:29.741Z</time></trkpt><trkpt lat="36.8084043" lon="10.181862"><ele>6.0</ele><time>2026-05-05T13:09:31.713Z</time></trkpt><trkpt lat="36.8083865" lon="10.1817336"><ele>6.0</ele><time>2026-05-05T13:09:33.75Z</time></trkpt><trkpt lat="36.8083609" lon="10.1816166"><ele>6.0</ele><time>2026-05-05T13:09:35.722Z</time></trkpt><trkpt lat="36.8083683" lon="10.1815295"><ele>6.0</ele><time>2026-05-05T13:09:37.724Z</time></trkpt><trkpt lat="36.8083718" lon="10.181434"><ele>6.0</ele><time>2026-05-05T13:09:40.716Z</time></trkpt><trkpt lat="36.8083642" lon="10.1813481"><ele>6.0</ele><time>2026-05-05T13:09:48.738Z</time></trkpt><trkpt lat="36.8083574" lon="10.1812597"><ele>6.0</ele><time>2026-05-05T13:10:01.753Z</time></trkpt><trkpt lat="36.8083567" lon="10.1811779"><ele>5.857142857142857</ele><time>2026-05-05T13:10:04.732Z</time></trkpt><trkpt lat="36.8083918" lon="10.1811094"><ele>5.714285714285714</ele><time>2026-05-05T13:10:09.741Z</time></trkpt><trkpt lat="36.8084474" lon="10.1810548"><ele>5.571428571428571</ele><time>2026-05-05T13:10:13.728Z</time></trkpt><trkpt lat="36.808511" lon="10.1810367"><ele>5.428571428571429</ele><time>2026-05-05T13:10:17.738Z</time></trkpt><trkpt lat="36.8085836" lon="10.1810309"><ele>5.285714285714286</ele><time>2026-05-05T13:10:24.74Z</time></trkpt><trkpt lat="36.8086616" lon="10.1810094"><ele>5.142857142857142</ele><time>2026-05-05T13:10:28.732Z</time></trkpt><trkpt lat="36.8087302" lon="10.1809995"><ele>5.0</ele><time>2026-05-05T13:10:32.751Z</time></trkpt><trkpt lat="36.8087978" lon="10.1809818"><ele>5.8</ele><time>2026-05-05T13:10:34.739Z</time></trkpt><trkpt lat="36.8088804" lon="10.1809497"><ele>6.6</ele><time>2026-05-05T13:10:36.74Z</time></trkpt><trkpt lat="36.8089854" lon="10.1809366"><ele>7.4</ele><time>2026-05-05T13:10:38.741Z</time></trkpt><trkpt lat="36.8090955" lon="10.1809177"><ele>8.2</ele><time>2026-05-05T13:10:40.748Z</time></trkpt><trkpt lat="36.8092061" lon="10.1808989"><ele>9.0</ele><time>2026-05-05T13:10:42.745Z</time></trkpt><trkpt lat="36.809311" lon="10.1808656"><ele>9.0</ele><time>2026-05-05T13:10:44.751Z</time></trkpt><trkpt lat="36.809432" lon="10.1808517"><ele>9.0</ele><time>2026-05-05T13:10:46.711Z</time></trkpt><trkpt lat="36.8094982" lon="10.1808361"><ele>9.0</ele><time>2026-05-05T13:10:47.743Z</time></trkpt><trkpt lat="36.8095602" lon="10.1808177"><ele>9.0</ele><time>2026-05-05T13:10:48.744Z</time></trkpt><trkpt lat="36.8096727" lon="10.1808246"><ele>9.0</ele><time>2026-05-05T13:10:50.741Z</time></trkpt><trkpt lat="36.8097635" lon="10.1808159"><ele>9.0</ele><time>2026-05-05T13:10:52.738Z</time></trkpt><trkpt lat="36.8098646" lon="10.1808134"><ele>9.0</ele><time>2026-05-05T13:10:54.735Z</time></trkpt><trkpt lat="36.809984" lon="10.1807933"><ele>9.0</ele><time>2026-05-05T13:10:56.74Z</time></trkpt><trkpt lat="36.8100516" lon="10.1807858"><ele>9.0</ele><time>2026-05-05T13:10:57.745Z</time></trkpt><trkpt lat="36.8101324" lon="10.1807749"><ele>9.0</ele><time>2026-05-05T13:10:58.739Z</time></trkpt><trkpt lat="36.8102187" lon="10.1807655"><ele>8.833333333333334</ele><time>2026-05-05T13:10:59.754Z</time></trkpt><trkpt lat="36.81031" lon="10.180754"><ele>8.666666666666666</ele><time>2026-05-05T13:11:00.72Z</time></trkpt><trkpt lat="36.8103991" lon="10.1807419"><ele>8.5</ele><time>2026-05-05T13:11:01.756Z</time></trkpt><trkpt lat="36.8104848" lon="10.180733"><ele>8.333333333333332</ele><time>2026-05-05T13:11:02.738Z</time></trkpt><trkpt lat="36.8105502" lon="10.1807301"><ele>8.166666666666666</ele><time>2026-05-05T13:11:03.738Z</time></trkpt><trkpt lat="36.8106177" lon="10.1807189"><ele>8.0</ele><time>2026-05-05T13:11:04.732Z</time></trkpt><trkpt lat="36.810682" lon="10.1807085"><ele>7.999999999999999</ele><time>2026-05-05T13:11:05.748Z</time></trkpt><trkpt lat="36.8107886" lon="10.1806976"><ele>8.0</ele><time>2026-05-05T13:11:07.759Z</time></trkpt><trkpt lat="36.8108645" lon="10.1806785"><ele>8.0</ele><time>2026-05-05T13:11:09.737Z</time></trkpt><trkpt lat="36.8109391" lon="10.1806725"><ele>8.0</ele><time>2026-05-05T13:11:38.741Z</time></trkpt><trkpt lat="36.8110198" lon="10.1806477"><ele>7.999999999999999</ele><time>2026-05-05T13:11:41.741Z</time></trkpt><trkpt lat="36.8110846" lon="10.1806272"><ele>8.0</ele><time>2026-05-05T13:11:43.729Z</time></trkpt><trkpt lat="36.8111756" lon="10.1806095"><ele>8.0</ele><time>2026-05-05T13:11:45.74Z</time></trkpt><trkpt lat="36.8112823" lon="10.1806074"><ele>8.0</ele><time>2026-05-05T13:11:47.737Z</time></trkpt><trkpt lat="36.8113766" lon="10.1805887"><ele>8.0</ele><time>2026-05-05T13:11:49.742Z</time></trkpt><trkpt lat="36.8114847" lon="10.1805664"><ele>8.0</ele><time>2026-05-05T13:11:51.696Z</time></trkpt><trkpt lat="36.8115823" lon="10.1805513"><ele>8.0</ele><time>2026-05-05T13:11:53.722Z</time></trkpt><trkpt lat="36.8116522" lon="10.1805439"><ele>8.0</ele><time>2026-05-05T13:11:55.693Z</time></trkpt><trkpt lat="36.8117152" lon="10.1805433"><ele>7.999999999999999</ele><time>2026-05-05T13:11:58.744Z</time></trkpt><trkpt lat="36.8117905" lon="10.180528"><ele>8.0</ele><time>2026-05-05T13:12:03.731Z</time></trkpt><trkpt lat="36.8118691" lon="10.1805181"><ele>8.0</ele><time>2026-05-05T13:12:07.747Z</time></trkpt><trkpt lat="36.8119412" lon="10.1805256"><ele>7.999999999999999</ele><time>2026-05-05T13:12:12.734Z</time></trkpt><trkpt lat="36.8120114" lon="10.1805207"><ele>8.0</ele><time>2026-05-05T13:12:16.736Z</time></trkpt><trkpt lat="36.8120751" lon="10.1805109"><ele>8.0</ele><time>2026-05-05T13:12:18.754Z</time></trkpt><trkpt lat="36.8121495" lon="10.1804977"><ele>7.999999999999999</ele><time>2026-05-05T13:12:20.746Z</time></trkpt><trkpt lat="36.8122186" lon="10.1804819"><ele>8.0</ele><time>2026-05-05T13:12:22.758Z</time></trkpt><trkpt lat="36.8122847" lon="10.1804629"><ele>8.0</ele><time>2026-05-05T13:12:26.737Z</time></trkpt><trkpt lat="36.8123784" lon="10.1804526"><ele>8.0</ele><time>2026-05-05T13:12:33.726Z</time></trkpt><trkpt lat="36.8124929" lon="10.1804562"><ele>7.999999999999999</ele><time>2026-05-05T13:12:35.732Z</time></trkpt><trkpt lat="36.8125735" lon="10.1804576"><ele>8.0</ele><time>2026-05-05T13:12:36.743Z</time></trkpt><trkpt lat="36.8126468" lon="10.1804526"><ele>8.333333333333332</ele><time>2026-05-05T13:12:37.701Z</time></trkpt><trkpt lat="36.8127146" lon="10.1804303"><ele>8.666666666666666</ele><time>2026-05-05T13:12:38.688Z</time></trkpt><trkpt lat="36.8127818" lon="10.1804205"><ele>9.0</ele><time>2026-05-05T13:12:39.74Z</time></trkpt><trkpt lat="36.8128454" lon="10.1803977"><ele>9.333333333333334</ele><time>2026-05-05T13:12:40.736Z</time></trkpt><trkpt lat="36.8129658" lon="10.1803554"><ele>9.666666666666668</ele><time>2026-05-05T13:12:42.744Z</time></trkpt><trkpt lat="36.8130664" lon="10.1803313"><ele>10.0</ele><time>2026-05-05T13:12:44.724Z</time></trkpt><trkpt lat="36.8131456" lon="10.1803221"><ele>10.0</ele><time>2026-05-05T13:12:46.723Z</time></trkpt><trkpt lat="36.813212" lon="10.1802765"><ele>10.0</ele><time>2026-05-05T13:13:16.736Z</time></trkpt><trkpt lat="36.8133207" lon="10.1802868"><ele>10.0</ele><time>2026-05-05T13:13:19.718Z</time></trkpt><trkpt lat="36.8133883" lon="10.1802887"><ele>10.0</ele><time>2026-05-05T13:13:20.732Z</time></trkpt><trkpt lat="36.8134914" lon="10.1802754"><ele>10.0</ele><time>2026-05-05T13:13:21.701Z</time></trkpt><trkpt lat="36.8135909" lon="10.1802685"><ele>9.6</ele><time>2026-05-05T13:13:22.729Z</time></trkpt><trkpt lat="36.8136857" lon="10.180254"><ele>9.2</ele><time>2026-05-05T13:13:23.746Z</time></trkpt><trkpt lat="36.8137825" lon="10.1802397"><ele>8.8</ele><time>2026-05-05T13:13:24.737Z</time></trkpt><trkpt lat="36.8138781" lon="10.1802293"><ele>8.4</ele><time>2026-05-05T13:13:25.718Z</time></trkpt><trkpt lat="36.8139704" lon="10.1802109"><ele>8.0</ele><time>2026-05-05T13:13:26.733Z</time></trkpt><trkpt lat="36.8140653" lon="10.1801889"><ele>8.0</ele><time>2026-05-05T13:13:27.709Z</time></trkpt><trkpt lat="36.8141578" lon="10.1801548"><ele>8.0</ele><time>2026-05-05T13:13:28.713Z</time></trkpt><trkpt lat="36.8142525" lon="10.180138"><ele>8.0</ele><time>2026-05-05T13:13:29.736Z</time></trkpt><trkpt lat="36.8143441" lon="10.1801149"><ele>8.0</ele><time>2026-05-05T13:13:30.738Z</time></trkpt><trkpt lat="36.8144344" lon="10.1800981"><ele>8.0</ele><time>2026-05-05T13:13:31.723Z</time></trkpt><trkpt lat="36.8145231" lon="10.180084"><ele>8.5</ele><time>2026-05-05T13:13:32.723Z</time></trkpt><trkpt lat="36.8146079" lon="10.1800867"><ele>9.0</ele><time>2026-05-05T13:13:33.701Z</time></trkpt><trkpt lat="36.8147018" lon="10.1800916"><ele>9.5</ele><time>2026-05-05T13:13:34.697Z</time></trkpt><trkpt lat="36.8147784" lon="10.1800692"><ele>10.0</ele><time>2026-05-05T13:13:35.708Z</time></trkpt><trkpt lat="36.8148458" lon="10.1800535"><ele>10.5</ele><time>2026-05-05T13:13:36.733Z</time></trkpt><trkpt lat="36.8149143" lon="10.1800512"><ele>11.0</ele><time>2026-05-05T13:13:37.734Z</time></trkpt><trkpt lat="36.8149836" lon="10.1800454"><ele>11.0</ele><time>2026-05-05T13:13:38.729Z</time></trkpt><trkpt lat="36.8150547" lon="10.1800429"><ele>11.0</ele><time>2026-05-05T13:13:39.729Z</time></trkpt><trkpt lat="36.8151728" lon="10.180025"><ele>11.0</ele><time>2026-05-05T13:13:41.738Z</time></trkpt><trkpt lat="36.8152914" lon="10.1799972"><ele>11.0</ele><time>2026-05-05T13:13:43.721Z</time></trkpt><trkpt lat="36.8154049" lon="10.1799659"><ele>11.0</ele><time>2026-05-05T13:13:45.74Z</time></trkpt><trkpt lat="36.815471" lon="10.1799486"><ele>10.5</ele><time>2026-05-05T13:13:46.747Z</time></trkpt><trkpt lat="36.8155396" lon="10.1799372"><ele>10.0</ele><time>2026-05-05T13:13:47.704Z</time></trkpt><trkpt lat="36.8156099" lon="10.1799278"><ele>9.5</ele><time>2026-05-05T13:13:48.735Z</time></trkpt><trkpt lat="36.8156818" lon="10.1799154"><ele>9.0</ele><time>2026-05-05T13:13:49.73Z</time></trkpt><trkpt lat="36.8157818" lon="10.1798755"><ele>8.5</ele><time>2026-05-05T13:13:51.76Z</time></trkpt><trkpt lat="36.815822" lon="10.1797973"><ele>8.0</ele><time>2026-05-05T13:13:55.732Z</time></trkpt><trkpt lat="36.8157754" lon="10.1797299"><ele>8.0</ele><time>2026-05-05T13:13:58.726Z</time></trkpt><trkpt lat="36.8156967" lon="10.1796455"><ele>8.0</ele><time>2026-05-05T13:14:00.708Z</time></trkpt><trkpt lat="36.8156177" lon="10.1795564"><ele>8.0</ele><time>2026-05-05T13:14:02.718Z</time></trkpt><trkpt lat="36.8155379" lon="10.1795058"><ele>8.0</ele><time>2026-05-05T13:14:04.735Z</time></trkpt><trkpt lat="36.8154668" lon="10.1794526"><ele>8.0</ele><time>2026-05-05T13:14:06.72Z</time></trkpt><trkpt lat="36.81542" lon="10.1793921"><ele>7.999999999999999</ele><time>2026-05-05T13:14:08.738Z</time></trkpt><trkpt lat="36.8153723" lon="10.1793298"><ele>8.0</ele><time>2026-05-05T13:14:12.723Z</time></trkpt><trkpt lat="36.8153296" lon="10.17927"><ele>8.0</ele><time>2026-05-05T13:14:48.749Z</time></trkpt><trkpt lat="36.8152504" lon="10.1791839"><ele>8.0</ele><time>2026-05-05T13:14:50.729Z</time></trkpt><trkpt lat="36.8151897" lon="10.1791357"><ele>7.999999999999999</ele><time>2026-05-05T13:14:51.728Z</time></trkpt><trkpt lat="36.8150843" lon="10.1790641"><ele>8.0</ele><time>2026-05-05T13:14:53.735Z</time></trkpt><trkpt lat="36.8149703" lon="10.179048"><ele>8.166666666666666</ele><time>2026-05-05T13:14:55.733Z</time></trkpt><trkpt lat="36.8148714" lon="10.1790483"><ele>8.333333333333332</ele><time>2026-05-05T13:14:57.726Z</time></trkpt><trkpt lat="36.8147891" lon="10.1790453"><ele>8.5</ele><time>2026-05-05T13:14:59.742Z</time></trkpt><trkpt lat="36.8147209" lon="10.1790226"><ele>8.666666666666666</ele><time>2026-05-05T13:15:02.721Z</time></trkpt><trkpt lat="36.8146981" lon="10.1789425"><ele>8.833333333333334</ele><time>2026-05-05T13:15:12.732Z</time></trkpt><trkpt lat="36.8146671" lon="10.178862"><ele>9.0</ele><time>2026-05-05T13:18:08.735Z</time></trkpt><trkpt lat="36.8147127" lon="10.1788035"><ele>9.0</ele><time>2026-05-05T13:19:37.725Z</time></trkpt><trkpt lat="36.8147476" lon="10.1788861"><ele>9.0</ele><time>2026-05-05T13:19:41.719Z</time></trkpt><trkpt lat="36.8147545" lon="10.1789733"><ele>9.0</ele><time>2026-05-05T13:19:46.741Z</time></trkpt><trkpt lat="36.8146866" lon="10.1790368"><ele>9.0</ele><time>2026-05-05T13:19:51.731Z</time></trkpt><trkpt lat="36.8145735" lon="10.1790614"><ele>9.0</ele><time>2026-05-05T13:19:53.697Z</time></trkpt><trkpt lat="36.8145086" lon="10.1790831"><ele>9.0</ele><time>2026-05-05T13:19:54.752Z</time></trkpt><trkpt lat="36.8144463" lon="10.179097"><ele>9.0</ele><time>2026-05-05T13:19:55.726Z</time></trkpt><trkpt lat="36.814354" lon="10.1791047"><ele>9.0</ele><time>2026-05-05T13:19:57.735Z</time></trkpt><trkpt lat="36.8142667" lon="10.1791163"><ele>9.0</ele><time>2026-05-05T13:19:59.726Z</time></trkpt><trkpt lat="36.8141707" lon="10.1791209"><ele>9.0</ele><time>2026-05-05T13:20:01.702Z</time></trkpt><trkpt lat="36.8140702" lon="10.1791421"><ele>9.0</ele><time>2026-05-05T13:20:03.732Z</time></trkpt><trkpt lat="36.8139607" lon="10.1791635"><ele>9.0</ele><time>2026-05-05T13:20:05.735Z</time></trkpt><trkpt lat="36.8138655" lon="10.1791889"><ele>9.0</ele><time>2026-05-05T13:20:07.694Z</time></trkpt><trkpt lat="36.813776" lon="10.179212"><ele>9.0</ele><time>2026-05-05T13:20:09.698Z</time></trkpt><trkpt lat="36.8136916" lon="10.179226"><ele>9.0</ele><time>2026-05-05T13:20:11.72Z</time></trkpt><trkpt lat="36.8136126" lon="10.1792318"><ele>9.0</ele><time>2026-05-05T13:20:13.734Z</time></trkpt><trkpt lat="36.8135434" lon="10.1792397"><ele>9.0</ele><time>2026-05-05T13:20:15.733Z</time></trkpt><trkpt lat="36.8134779" lon="10.1792552"><ele>9.0</ele><time>2026-05-05T13:20:17.724Z</time></trkpt><trkpt lat="36.8134041" lon="10.1792677"><ele>9.0</ele><time>2026-05-05T13:20:20.731Z</time></trkpt><trkpt lat="36.8133275" lon="10.1792719"><ele>9.0</ele><time>2026-05-05T13:20:33.731Z</time></trkpt><trkpt lat="36.8131875" lon="10.1792964"><ele>9.0</ele><time>2026-05-05T13:20:35.734Z</time></trkpt><trkpt lat="36.8131177" lon="10.1793057"><ele>9.0</ele><time>2026-05-05T13:20:36.739Z</time></trkpt><trkpt lat="36.8129884" lon="10.1793149"><ele>9.000000000000002</ele><time>2026-05-05T13:20:38.702Z</time></trkpt><trkpt lat="36.812924" lon="10.1793175"><ele>9.0</ele><time>2026-05-05T13:20:39.742Z</time></trkpt><trkpt lat="36.8128563" lon="10.1793176"><ele>9.0</ele><time>2026-05-05T13:20:40.734Z</time></trkpt><trkpt lat="36.8127855" lon="10.1793239"><ele>9.0</ele><time>2026-05-05T13:20:41.724Z</time></trkpt><trkpt lat="36.8127134" lon="10.1793337"><ele>9.0</ele><time>2026-05-05T13:20:42.734Z</time></trkpt><trkpt lat="36.8126515" lon="10.1793503"><ele>9.000000000000002</ele><time>2026-05-05T13:20:43.743Z</time></trkpt><trkpt lat="36.8125884" lon="10.1793518"><ele>9.0</ele><time>2026-05-05T13:20:44.742Z</time></trkpt><trkpt lat="36.8125248" lon="10.1793521"><ele>8.833333333333334</ele><time>2026-05-05T13:20:45.722Z</time></trkpt><trkpt lat="36.8124164" lon="10.1793705"><ele>8.666666666666666</ele><time>2026-05-05T13:20:47.744Z</time></trkpt><trkpt lat="36.8123232" lon="10.1794008"><ele>8.5</ele><time>2026-05-05T13:20:49.743Z</time></trkpt><trkpt lat="36.8122424" lon="10.1794334"><ele>8.333333333333332</ele><time>2026-05-05T13:20:51.744Z</time></trkpt><trkpt lat="36.812178" lon="10.1794597"><ele>8.166666666666666</ele><time>2026-05-05T13:20:53.735Z</time></trkpt><trkpt lat="36.8121006" lon="10.1794684"><ele>8.0</ele><time>2026-05-05T13:20:55.74Z</time></trkpt><trkpt lat="36.8120378" lon="10.1794801"><ele>7.999999999999999</ele><time>2026-05-05T13:20:57.722Z</time></trkpt><trkpt lat="36.8119655" lon="10.1795001"><ele>8.0</ele><time>2026-05-05T13:21:00.738Z</time></trkpt><trkpt lat="36.8118908" lon="10.1795076"><ele>8.0</ele><time>2026-05-05T13:21:02.739Z</time></trkpt><trkpt lat="36.8117895" lon="10.1795168"><ele>8.0</ele><time>2026-05-05T13:21:04.725Z</time></trkpt><trkpt lat="36.8116897" lon="10.1795202"><ele>7.999999999999999</ele><time>2026-05-05T13:21:06.745Z</time></trkpt><trkpt lat="36.8116" lon="10.179536"><ele>8.0</ele><time>2026-05-05T13:21:08.73Z</time></trkpt><trkpt lat="36.8115246" lon="10.1795544"><ele>8.5</ele><time>2026-05-05T13:21:10.725Z</time></trkpt><trkpt lat="36.8114368" lon="10.1795692"><ele>9.0</ele><time>2026-05-05T13:21:12.74Z</time></trkpt><trkpt lat="36.8113365" lon="10.1795912"><ele>9.5</ele><time>2026-05-05T13:21:14.728Z</time></trkpt><trkpt lat="36.8112404" lon="10.1796098"><ele>10.0</ele><time>2026-05-05T13:21:16.74Z</time></trkpt><trkpt lat="36.8111644" lon="10.1796211"><ele>10.5</ele><time>2026-05-05T13:21:18.735Z</time></trkpt><trkpt lat="36.8110886" lon="10.1796228"><ele>11.0</ele><time>2026-05-05T13:21:20.738Z</time></trkpt><trkpt lat="36.811001" lon="10.1796433"><ele>10.833333333333332</ele><time>2026-05-05T13:21:22.745Z</time></trkpt><trkpt lat="36.8109271" lon="10.179655"><ele>10.666666666666666</ele><time>2026-05-05T13:21:24.738Z</time></trkpt><trkpt lat="36.810861" lon="10.1796707"><ele>10.5</ele><time>2026-05-05T13:21:26.746Z</time></trkpt><trkpt lat="36.8107915" lon="10.1796828"><ele>10.333333333333334</ele><time>2026-05-05T13:21:28.725Z</time></trkpt><trkpt lat="36.8107162" lon="10.179696"><ele>10.166666666666668</ele><time>2026-05-05T13:21:30.687Z</time></trkpt><trkpt lat="36.8106305" lon="10.179699"><ele>10.0</ele><time>2026-05-05T13:21:32.703Z</time></trkpt><trkpt lat="36.8105536" lon="10.1797114"><ele>10.0</ele><time>2026-05-05T13:21:34.73Z</time></trkpt><trkpt lat="36.8104747" lon="10.1797157"><ele>10.0</ele><time>2026-05-05T13:21:36.75Z</time></trkpt><trkpt lat="36.8103886" lon="10.1797264"><ele>10.0</ele><time>2026-05-05T13:21:38.742Z</time></trkpt><trkpt lat="36.8102784" lon="10.1797433"><ele>10.0</ele><time>2026-05-05T13:21:40.72Z</time></trkpt><trkpt lat="36.8101692" lon="10.1797538"><ele>10.0</ele><time>2026-05-05T13:21:42.741Z</time></trkpt><trkpt lat="36.8100741" lon="10.1797588"><ele>9.8</ele><time>2026-05-05T13:21:44.732Z</time></trkpt><trkpt lat="36.8099855" lon="10.1797578"><ele>9.6</ele><time>2026-05-05T13:21:46.742Z</time></trkpt><trkpt lat="36.809908" lon="10.1797711"><ele>9.4</ele><time>2026-05-05T13:21:48.712Z</time></trkpt><trkpt lat="36.8098156" lon="10.1797959"><ele>9.2</ele><time>2026-05-05T13:21:50.737Z</time></trkpt><trkpt lat="36.8097153" lon="10.1798305"><ele>9.0</ele><time>2026-05-05T13:21:52.738Z</time></trkpt><trkpt lat="36.8096138" lon="10.1798599"><ele>9.0</ele><time>2026-05-05T13:21:54.732Z</time></trkpt><trkpt lat="36.8095091" lon="10.1798766"><ele>9.0</ele><time>2026-05-05T13:21:56.717Z</time></trkpt><trkpt lat="36.809418" lon="10.1798803"><ele>9.0</ele><time>2026-05-05T13:21:58.753Z</time></trkpt><trkpt lat="36.8093262" lon="10.1798806"><ele>9.0</ele><time>2026-05-05T13:22:00.736Z</time></trkpt><trkpt lat="36.8092223" lon="10.1799106"><ele>9.0</ele><time>2026-05-05T13:22:02.744Z</time></trkpt><trkpt lat="36.8091278" lon="10.1799274"><ele>8.833333333333334</ele><time>2026-05-05T13:22:04.741Z</time></trkpt><trkpt lat="36.8090513" lon="10.1799439"><ele>8.666666666666666</ele><time>2026-05-05T13:22:06.717Z</time></trkpt><trkpt lat="36.8089659" lon="10.1799512"><ele>8.5</ele><time>2026-05-05T13:22:08.728Z</time></trkpt><trkpt lat="36.8088836" lon="10.1799655"><ele>8.333333333333332</ele><time>2026-05-05T13:22:10.719Z</time></trkpt><trkpt lat="36.8088113" lon="10.1799682"><ele>8.166666666666666</ele><time>2026-05-05T13:22:12.717Z</time></trkpt><trkpt lat="36.8087469" lon="10.1799705"><ele>8.0</ele><time>2026-05-05T13:22:14.731Z</time></trkpt><trkpt lat="36.808679" lon="10.1799863"><ele>8.0</ele><time>2026-05-05T13:22:16.729Z</time></trkpt><trkpt lat="36.8086136" lon="10.1800019"><ele>7.999999999999999</ele><time>2026-05-05T13:22:18.709Z</time></trkpt><trkpt lat="36.8085461" lon="10.1800137"><ele>8.0</ele><time>2026-05-05T13:22:20.746Z</time></trkpt><trkpt lat="36.8084785" lon="10.1800296"><ele>8.0</ele><time>2026-05-05T13:22:22.732Z</time></trkpt><trkpt lat="36.8083913" lon="10.180048"><ele>7.999999999999999</ele><time>2026-05-05T13:22:25.731Z</time></trkpt><trkpt lat="36.8083237" lon="10.1800593"><ele>8.0</ele><time>2026-05-05T13:22:27.731Z</time></trkpt><trkpt lat="36.8082434" lon="10.1800729"><ele>8.0</ele><time>2026-05-05T13:22:29.733Z</time></trkpt><trkpt lat="36.8081459" lon="10.1800797"><ele>7.0</ele><time>2026-05-05T13:22:31.729Z</time></trkpt><trkpt lat="36.808029" lon="10.1800849"><ele>6.0</ele><time>2026-05-05T13:22:33.727Z</time></trkpt><trkpt lat="36.8079106" lon="10.1801047"><ele>5.0</ele><time>2026-05-05T13:22:35.727Z</time></trkpt><trkpt lat="36.8077961" lon="10.1801214"><ele>4.0</ele><time>2026-05-05T13:22:37.735Z</time></trkpt><trkpt lat="36.8076737" lon="10.1801289"><ele>5.0</ele><time>2026-05-05T13:22:39.741Z</time></trkpt><trkpt lat="36.8075541" lon="10.1801532"><ele>6.0</ele><time>2026-05-05T13:22:41.73Z</time></trkpt><trkpt lat="36.8074556" lon="10.1801802"><ele>7.0</ele><time>2026-05-05T13:22:43.736Z</time></trkpt><trkpt lat="36.8073623" lon="10.1801985"><ele>8.0</ele><time>2026-05-05T13:22:45.751Z</time></trkpt><trkpt lat="36.8072636" lon="10.1802116"><ele>9.0</ele><time>2026-05-05T13:22:47.737Z</time></trkpt><trkpt lat="36.8071533" lon="10.1802362"><ele>9.0</ele><time>2026-05-05T13:22:49.733Z</time></trkpt><trkpt lat="36.8070449" lon="10.1802515"><ele>9.0</ele><time>2026-05-05T13:22:51.741Z</time></trkpt><trkpt lat="36.8069458" lon="10.1802592"><ele>9.0</ele><time>2026-05-05T13:22:53.729Z</time></trkpt><trkpt lat="36.8068725" lon="10.180272"><ele>9.0</ele><time>2026-05-05T13:22:55.73Z</time></trkpt><trkpt lat="36.8068027" lon="10.1802691"><ele>9.0</ele><time>2026-05-05T13:22:59.743Z</time></trkpt><trkpt lat="36.8067257" lon="10.1802881"><ele>9.0</ele><time>2026-05-05T13:23:09.731Z</time></trkpt><trkpt lat="36.8066557" lon="10.18028"><ele>9.333333333333334</ele><time>2026-05-05T13:23:13.727Z</time></trkpt><trkpt lat="36.806592" lon="10.1802892"><ele>9.666666666666666</ele><time>2026-05-05T13:23:19.747Z</time></trkpt><trkpt lat="36.8065276" lon="10.1802982"><ele>10.0</ele><time>2026-05-05T13:23:21.732Z</time></trkpt><trkpt lat="36.8064318" lon="10.1803198"><ele>10.333333333333332</ele><time>2026-05-05T13:23:23.747Z</time></trkpt><trkpt lat="36.8063516" lon="10.1803363"><ele>10.666666666666666</ele><time>2026-05-05T13:23:25.695Z</time></trkpt><trkpt lat="36.8062795" lon="10.1803563"><ele>11.0</ele><time>2026-05-05T13:23:27.741Z</time></trkpt><trkpt lat="36.8061992" lon="10.1803621"><ele>11.0</ele><time>2026-05-05T13:23:29.742Z</time></trkpt><trkpt lat="36.8061257" lon="10.180348"><ele>11.0</ele><time>2026-05-05T13:23:31.742Z</time></trkpt><trkpt lat="36.8060721" lon="10.1802764"><ele>11.0</ele><time>2026-05-05T13:23:34.731Z</time></trkpt><trkpt lat="36.8060745" lon="10.1801809"><ele>11.0</ele><time>2026-05-05T13:23:36.736Z</time></trkpt><trkpt lat="36.8060816" lon="10.1800935"><ele>11.0</ele><time>2026-05-05T13:23:38.739Z</time></trkpt><trkpt lat="36.8060833" lon="10.1799972"><ele>11.0</ele><time>2026-05-05T13:23:41.729Z</time></trkpt><trkpt lat="36.806084" lon="10.1799022"><ele>11.0</ele><time>2026-05-05T13:23:45.719Z</time></trkpt><trkpt lat="36.806073" lon="10.1798183"><ele>12.0</ele><time>2026-05-05T13:23:49.734Z</time></trkpt><trkpt lat="36.8060524" lon="10.1797416"><ele>12.0</ele><time>2026-05-05T13:24:09.732Z</time></trkpt><trkpt lat="36.8060936" lon="10.1796623"><ele>12.0</ele><time>2026-05-05T13:24:16.732Z</time></trkpt><trkpt lat="36.8060936" lon="10.1796623"><ele>12.0</ele><time>2026-05-05T13:24:16.732Z</time></trkpt></trkseg><trkseg><trkpt lat="36.8065331" lon="10.1847972"><ele>5.333333333333333</ele><time>2026-05-05T14:18:03.892Z</time></trkpt><trkpt lat="36.8065436" lon="10.1848887"><ele>4.666666666666667</ele><time>2026-05-05T14:18:06.853Z</time></trkpt><trkpt lat="36.8065488" lon="10.1849735"><ele>4.0</ele><time>2026-05-05T14:18:09.866Z</time></trkpt><trkpt lat="36.8065614" lon="10.1850599"><ele>3.333333333333333</ele><time>2026-05-05T14:18:11.848Z</time></trkpt><trkpt lat="36.8065782" lon="10.185165"><ele>2.6666666666666665</ele><time>2026-05-05T14:18:13.84Z</time></trkpt><trkpt lat="36.8065937" lon="10.1852951"><ele>2.0</ele><time>2026-05-05T14:18:15.861Z</time></trkpt><trkpt lat="36.8066139" lon="10.1854118"><ele>1.9999999999999998</ele><time>2026-05-05T14:18:17.861Z</time></trkpt><trkpt lat="36.8066403" lon="10.1855467"><ele>2.0</ele><time>2026-05-05T14:18:19.85Z</time></trkpt><trkpt lat="36.8066505" lon="10.1856369"><ele>2.0</ele><time>2026-05-05T14:18:20.865Z</time></trkpt><trkpt lat="36.8066674" lon="10.1857358"><ele>2.0</ele><time>2026-05-05T14:18:21.83Z</time></trkpt><trkpt lat="36.8066808" lon="10.1858409"><ele>1.9999999999999998</ele><time>2026-05-05T14:18:22.881Z</time></trkpt><trkpt lat="36.8066957" lon="10.1859512"><ele>2.0</ele><time>2026-05-05T14:18:23.886Z</time></trkpt><trkpt lat="36.8067121" lon="10.1860732"><ele>2.2</ele><time>2026-05-05T14:18:24.874Z</time></trkpt><trkpt lat="36.8067173" lon="10.186196"><ele>2.4000000000000004</ele><time>2026-05-05T14:18:25.844Z</time></trkpt><trkpt lat="36.8067295" lon="10.18632"><ele>2.5999999999999996</ele><time>2026-05-05T14:18:26.845Z</time></trkpt><trkpt lat="36.8067479" lon="10.1864456"><ele>2.8</ele><time>2026-05-05T14:18:27.892Z</time></trkpt><trkpt lat="36.8067594" lon="10.1865759"><ele>3.0</ele><time>2026-05-05T14:18:28.882Z</time></trkpt><trkpt lat="36.8067725" lon="10.1867037"><ele>3.3333333333333335</ele><time>2026-05-05T14:18:29.88Z</time></trkpt><trkpt lat="36.8067836" lon="10.1868271"><ele>3.666666666666667</ele><time>2026-05-05T14:18:30.851Z</time></trkpt><trkpt lat="36.8067953" lon="10.1869534"><ele>4.0</ele><time>2026-05-05T14:18:31.862Z</time></trkpt><trkpt lat="36.8068017" lon="10.187065"><ele>4.333333333333334</ele><time>2026-05-05T14:18:32.867Z</time></trkpt><trkpt lat="36.8068071" lon="10.1871672"><ele>4.666666666666667</ele><time>2026-05-05T14:18:33.872Z</time></trkpt><trkpt lat="36.8068136" lon="10.1872619"><ele>5.0</ele><time>2026-05-05T14:18:34.88Z</time></trkpt><trkpt lat="36.8068223" lon="10.1873497"><ele>5.0</ele><time>2026-05-05T14:18:35.884Z</time></trkpt><trkpt lat="36.8068438" lon="10.1874757"><ele>5.0</ele><time>2026-05-05T14:18:37.828Z</time></trkpt><trkpt lat="36.8068536" lon="10.1875625"><ele>5.0</ele><time>2026-05-05T14:18:39.887Z</time></trkpt><trkpt lat="36.8068447" lon="10.1876446"><ele>5.0</ele><time>2026-05-05T14:18:42.851Z</time></trkpt><trkpt lat="36.8068367" lon="10.1877558"><ele>5.0</ele><time>2026-05-05T14:19:16.843Z</time></trkpt><trkpt lat="36.806844" lon="10.1878379"><ele>5.0</ele><time>2026-05-05T14:19:18.875Z</time></trkpt><trkpt lat="36.8068274" lon="10.1879325"><ele>5.0</ele><time>2026-05-05T14:19:21.862Z</time></trkpt><trkpt lat="36.8067861" lon="10.1879924"><ele>5.0</ele><time>2026-05-05T14:19:23.831Z</time></trkpt><trkpt lat="36.8067188" lon="10.1880815"><ele>5.0</ele><time>2026-05-05T14:19:25.872Z</time></trkpt><trkpt lat="36.8066609" lon="10.188119"><ele>5.0</ele><time>2026-05-05T14:19:26.858Z</time></trkpt><trkpt lat="36.8065904" lon="10.1881482"><ele>5.0</ele><time>2026-05-05T14:19:27.872Z</time></trkpt><trkpt lat="36.8065186" lon="10.1881653"><ele>5.0</ele><time>2026-05-05T14:19:28.875Z</time></trkpt><trkpt lat="36.8064375" lon="10.1881656"><ele>5.0</ele><time>2026-05-05T14:19:29.88Z</time></trkpt><trkpt lat="36.8063567" lon="10.1881671"><ele>5.0</ele><time>2026-05-05T14:19:30.858Z</time></trkpt><trkpt lat="36.8061823" lon="10.1881927"><ele>5.0</ele><time>2026-05-05T14:19:32.845Z</time></trkpt><trkpt lat="36.8060741" lon="10.1882114"><ele>5.0</ele><time>2026-05-05T14:19:33.867Z</time></trkpt><trkpt lat="36.8059655" lon="10.1882309"><ele>4.25</ele><time>2026-05-05T14:19:34.877Z</time></trkpt><trkpt lat="36.805845" lon="10.1882585"><ele>3.5</ele><time>2026-05-05T14:19:35.875Z</time></trkpt><trkpt lat="36.8057223" lon="10.1882771"><ele>2.75</ele><time>2026-05-05T14:19:36.872Z</time></trkpt><trkpt lat="36.8056014" lon="10.1883004"><ele>2.0</ele><time>2026-05-05T14:19:37.856Z</time></trkpt><trkpt lat="36.8054798" lon="10.1883206"><ele>2.0</ele><time>2026-05-05T14:19:38.887Z</time></trkpt><trkpt lat="36.8053586" lon="10.1883371"><ele>2.0</ele><time>2026-05-05T14:19:39.906Z</time></trkpt><trkpt lat="36.8052352" lon="10.188361"><ele>2.0</ele><time>2026-05-05T14:19:40.869Z</time></trkpt><trkpt lat="36.8051156" lon="10.1883819"><ele>2.0</ele><time>2026-05-05T14:19:41.87Z</time></trkpt><trkpt lat="36.80499" lon="10.1883989"><ele>2.5</ele><time>2026-05-05T14:19:42.844Z</time></trkpt><trkpt lat="36.8048684" lon="10.1884184"><ele>3.0</ele><time>2026-05-05T14:19:43.869Z</time></trkpt><trkpt lat="36.8047412" lon="10.1884343"><ele>3.5</ele><time>2026-05-05T14:19:44.84Z</time></trkpt><trkpt lat="36.8046145" lon="10.1884487"><ele>4.0</ele><time>2026-05-05T14:19:45.821Z</time></trkpt><trkpt lat="36.8044852" lon="10.1884659"><ele>4.0</ele><time>2026-05-05T14:19:46.849Z</time></trkpt><trkpt lat="36.8043576" lon="10.188467"><ele>4.0</ele><time>2026-05-05T14:19:47.872Z</time></trkpt><trkpt lat="36.8042276" lon="10.1884649"><ele>4.0</ele><time>2026-05-05T14:19:48.889Z</time></trkpt><trkpt lat="36.8040986" lon="10.1884612"><ele>4.0</ele><time>2026-05-05T14:19:49.887Z</time></trkpt><trkpt lat="36.80397" lon="10.1884519"><ele>3.5</ele><time>2026-05-05T14:19:50.863Z</time></trkpt><trkpt lat="36.8038395" lon="10.1884432"><ele>3.0</ele><time>2026-05-05T14:19:51.832Z</time></trkpt><trkpt lat="36.8037057" lon="10.18843"><ele>2.5</ele><time>2026-05-05T14:19:52.836Z</time></trkpt><trkpt lat="36.8035775" lon="10.1884098"><ele>2.0</ele><time>2026-05-05T14:19:53.887Z</time></trkpt><trkpt lat="36.8034507" lon="10.1883778"><ele>1.5</ele><time>2026-05-05T14:19:54.845Z</time></trkpt><trkpt lat="36.8033232" lon="10.1883488"><ele>1.0</ele><time>2026-05-05T14:19:55.87Z</time></trkpt><trkpt lat="36.8032003" lon="10.1883238"><ele>0.5</ele><time>2026-05-05T14:19:56.883Z</time></trkpt><trkpt lat="36.8030833" lon="10.1882987"><ele>0.0</ele><time>2026-05-05T14:19:57.867Z</time></trkpt><trkpt lat="36.8029691" lon="10.1882778"><ele>0.0</ele><time>2026-05-05T14:19:58.867Z</time></trkpt><trkpt lat="36.8028518" lon="10.1882554"><ele>0.0</ele><time>2026-05-05T14:19:59.868Z</time></trkpt><trkpt lat="36.8027371" lon="10.1882411"><ele>0.0</ele><time>2026-05-05T14:20:00.872Z</time></trkpt><trkpt lat="36.8026216" lon="10.1882247"><ele>0.0</ele><time>2026-05-05T14:20:01.857Z</time></trkpt><trkpt lat="36.802507" lon="10.1882126"><ele>0.2</ele><time>2026-05-05T14:20:02.86Z</time></trkpt><trkpt lat="36.8023974" lon="10.1882111"><ele>0.4</ele><time>2026-05-05T14:20:03.867Z</time></trkpt><trkpt lat="36.8022897" lon="10.1882196"><ele>0.6000000000000001</ele><time>2026-05-05T14:20:04.865Z</time></trkpt><trkpt lat="36.8021885" lon="10.1882374"><ele>0.8</ele><time>2026-05-05T14:20:05.869Z</time></trkpt><trkpt lat="36.8020976" lon="10.1882561"><ele>1.0</ele><time>2026-05-05T14:20:06.85Z</time></trkpt><trkpt lat="36.8020118" lon="10.1882733"><ele>0.9999999999999999</ele><time>2026-05-05T14:20:07.858Z</time></trkpt><trkpt lat="36.8019304" lon="10.1882865"><ele>1.0</ele><time>2026-05-05T14:20:08.878Z</time></trkpt><trkpt lat="36.8018528" lon="10.1882927"><ele>1.0</ele><time>2026-05-05T14:20:09.872Z</time></trkpt><trkpt lat="36.8017709" lon="10.1883022"><ele>1.0</ele><time>2026-05-05T14:20:10.874Z</time></trkpt><trkpt lat="36.8016802" lon="10.1883122"><ele>0.9999999999999999</ele><time>2026-05-05T14:20:11.862Z</time></trkpt><trkpt lat="36.8015837" lon="10.1883235"><ele>1.0</ele><time>2026-05-05T14:20:12.878Z</time></trkpt><trkpt lat="36.8014921" lon="10.1883321"><ele>1.3333333333333333</ele><time>2026-05-05T14:20:13.874Z</time></trkpt><trkpt lat="36.8014001" lon="10.188345"><ele>1.6666666666666665</ele><time>2026-05-05T14:20:14.884Z</time></trkpt><trkpt lat="36.8013206" lon="10.1883574"><ele>2.0</ele><time>2026-05-05T14:20:15.859Z</time></trkpt><trkpt lat="36.8012422" lon="10.1883686"><ele>2.3333333333333335</ele><time>2026-05-05T14:20:16.863Z</time></trkpt><trkpt lat="36.8011618" lon="10.1883719"><ele>2.6666666666666665</ele><time>2026-05-05T14:20:17.874Z</time></trkpt><trkpt lat="36.801098" lon="10.1883878"><ele>3.0</ele><time>2026-05-05T14:20:18.871Z</time></trkpt><trkpt lat="36.8009915" lon="10.1884118"><ele>3.8</ele><time>2026-05-05T14:20:20.833Z</time></trkpt><trkpt lat="36.8008823" lon="10.1884192"><ele>4.6</ele><time>2026-05-05T14:20:22.869Z</time></trkpt><trkpt lat="36.8007861" lon="10.1884013"><ele>5.3999999999999995</ele><time>2026-05-05T14:20:24.884Z</time></trkpt><trkpt lat="36.8006807" lon="10.1884075"><ele>6.199999999999999</ele><time>2026-05-05T14:20:26.848Z</time></trkpt><trkpt lat="36.800617" lon="10.1884047"><ele>7.0</ele><time>2026-05-05T14:20:27.85Z</time></trkpt><trkpt lat="36.800489" lon="10.1884138"><ele>7.000000000000001</ele><time>2026-05-05T14:20:29.867Z</time></trkpt><trkpt lat="36.8003905" lon="10.1884759"><ele>7.0</ele><time>2026-05-05T14:20:31.867Z</time></trkpt><trkpt lat="36.8003297" lon="10.1885688"><ele>7.0</ele><time>2026-05-05T14:20:33.868Z</time></trkpt><trkpt lat="36.8003041" lon="10.1886854"><ele>7.0</ele><time>2026-05-05T14:20:35.887Z</time></trkpt><trkpt lat="36.8002944" lon="10.1887783"><ele>7.000000000000001</ele><time>2026-05-05T14:20:37.859Z</time></trkpt><trkpt lat="36.8003079" lon="10.1888565"><ele>7.0</ele><time>2026-05-05T14:20:39.875Z</time></trkpt><trkpt lat="36.8003336" lon="10.1889651"><ele>6.0</ele><time>2026-05-05T14:20:41.868Z</time></trkpt><trkpt lat="36.8003643" lon="10.1890948"><ele>4.999999999999999</ele><time>2026-05-05T14:20:43.888Z</time></trkpt><trkpt lat="36.8004054" lon="10.1892562"><ele>4.0</ele><time>2026-05-05T14:20:45.863Z</time></trkpt><trkpt lat="36.8004158" lon="10.1893492"><ele>3.0</ele><time>2026-05-05T14:20:46.833Z</time></trkpt><trkpt lat="36.8004212" lon="10.1894384"><ele>2.0</ele><time>2026-05-05T14:20:47.87Z</time></trkpt><trkpt lat="36.8004339" lon="10.1895459"><ele>1.9999999999999998</ele><time>2026-05-05T14:20:48.836Z</time></trkpt><trkpt lat="36.8004427" lon="10.1896482"><ele>2.0</ele><time>2026-05-05T14:20:49.876Z</time></trkpt><trkpt lat="36.8004536" lon="10.1897522"><ele>2.0</ele><time>2026-05-05T14:20:50.87Z</time></trkpt><trkpt lat="36.8004619" lon="10.1898591"><ele>2.0</ele><time>2026-05-05T14:20:51.872Z</time></trkpt><trkpt lat="36.8004687" lon="10.1899651"><ele>1.9999999999999998</ele><time>2026-05-05T14:20:52.88Z</time></trkpt><trkpt lat="36.8004758" lon="10.1900552"><ele>2.0</ele><time>2026-05-05T14:20:53.868Z</time></trkpt><trkpt lat="36.8004831" lon="10.1901352"><ele>1.6</ele><time>2026-05-05T14:20:54.88Z</time></trkpt><trkpt lat="36.8004929" lon="10.1902182"><ele>1.2000000000000002</ele><time>2026-05-05T14:20:55.857Z</time></trkpt><trkpt lat="36.8005124" lon="10.1903653"><ele>0.8</ele><time>2026-05-05T14:20:57.864Z</time></trkpt><trkpt lat="36.8005376" lon="10.1904914"><ele>0.4</ele><time>2026-05-05T14:20:59.869Z</time></trkpt><trkpt lat="36.8005459" lon="10.1906062"><ele>0.0</ele><time>2026-05-05T14:21:01.874Z</time></trkpt><trkpt lat="36.8005528" lon="10.190689"><ele>0.0</ele><time>2026-05-05T14:21:03.887Z</time></trkpt><trkpt lat="36.8005543" lon="10.1907705"><ele>0.0</ele><time>2026-05-05T14:21:05.875Z</time></trkpt><trkpt lat="36.8005623" lon="10.1908526"><ele>0.0</ele><time>2026-05-05T14:21:07.835Z</time></trkpt><trkpt lat="36.8005811" lon="10.1909374"><ele>0.0</ele><time>2026-05-05T14:21:09.903Z</time></trkpt><trkpt lat="36.8006153" lon="10.1910645"><ele>0.0</ele><time>2026-05-05T14:21:11.882Z</time></trkpt><trkpt lat="36.8006725" lon="10.1912066"><ele>0.0</ele><time>2026-05-05T14:21:13.883Z</time></trkpt><trkpt lat="36.8007021" lon="10.191276"><ele>0.0</ele><time>2026-05-05T14:21:14.869Z</time></trkpt><trkpt lat="36.8007489" lon="10.1914132"><ele>0.0</ele><time>2026-05-05T14:21:16.847Z</time></trkpt><trkpt lat="36.8007781" lon="10.1915249"><ele>0.0</ele><time>2026-05-05T14:21:18.881Z</time></trkpt><trkpt lat="36.8008111" lon="10.1916437"><ele>0.0</ele><time>2026-05-05T14:21:20.881Z</time></trkpt><trkpt lat="36.8008179" lon="10.1917858"><ele>0.0</ele><time>2026-05-05T14:21:22.873Z</time></trkpt><trkpt lat="36.8008189" lon="10.1918764"><ele>0.16666666666666666</ele><time>2026-05-05T14:21:23.86Z</time></trkpt><trkpt lat="36.8008266" lon="10.1919676"><ele>0.3333333333333333</ele><time>2026-05-05T14:21:24.873Z</time></trkpt><trkpt lat="36.8008378" lon="10.1920661"><ele>0.5</ele><time>2026-05-05T14:21:25.85Z</time></trkpt><trkpt lat="36.8008462" lon="10.1921737"><ele>0.6666666666666666</ele><time>2026-05-05T14:21:26.884Z</time></trkpt><trkpt lat="36.8008551" lon="10.1922878"><ele>0.8333333333333333</ele><time>2026-05-05T14:21:27.871Z</time></trkpt><trkpt lat="36.8008604" lon="10.1923978"><ele>1.0</ele><time>2026-05-05T14:21:28.862Z</time></trkpt><trkpt lat="36.8008716" lon="10.1925093"><ele>1.0</ele><time>2026-05-05T14:21:29.868Z</time></trkpt><trkpt lat="36.8008838" lon="10.1926274"><ele>1.0</ele><time>2026-05-05T14:21:30.873Z</time></trkpt><trkpt lat="36.8009004" lon="10.1927585"><ele>1.0</ele><time>2026-05-05T14:21:31.895Z</time></trkpt><trkpt lat="36.8009161" lon="10.1928931"><ele>1.0</ele><time>2026-05-05T14:21:32.876Z</time></trkpt><trkpt lat="36.8009368" lon="10.1930399"><ele>1.0</ele><time>2026-05-05T14:21:33.874Z</time></trkpt><trkpt lat="36.8009584" lon="10.1931937"><ele>1.0</ele><time>2026-05-05T14:21:34.886Z</time></trkpt><trkpt lat="36.800983" lon="10.1933511"><ele>1.0</ele><time>2026-05-05T14:21:35.882Z</time></trkpt><trkpt lat="36.8010045" lon="10.1935044"><ele>1.0</ele><time>2026-05-05T14:21:36.879Z</time></trkpt><trkpt lat="36.8010242" lon="10.1936688"><ele>1.0</ele><time>2026-05-05T14:21:37.864Z</time></trkpt><trkpt lat="36.801045" lon="10.1938398"><ele>1.25</ele><time>2026-05-05T14:21:38.876Z</time></trkpt><trkpt lat="36.8010607" lon="10.1940168"><ele>1.5</ele><time>2026-05-05T14:21:39.882Z</time></trkpt><trkpt lat="36.801078" lon="10.1942011"><ele>1.75</ele><time>2026-05-05T14:21:40.875Z</time></trkpt><trkpt lat="36.801091" lon="10.1943834"><ele>2.0</ele><time>2026-05-05T14:21:41.886Z</time></trkpt><trkpt lat="36.8011074" lon="10.1945648"><ele>2.0</ele><time>2026-05-05T14:21:42.843Z</time></trkpt><trkpt lat="36.8011193" lon="10.1947409"><ele>2.0</ele><time>2026-05-05T14:21:43.868Z</time></trkpt><trkpt lat="36.8011331" lon="10.1949116"><ele>2.0</ele><time>2026-05-05T14:21:44.86Z</time></trkpt><trkpt lat="36.8011483" lon="10.1950759"><ele>2.0</ele><time>2026-05-05T14:21:45.869Z</time></trkpt><trkpt lat="36.801164" lon="10.195244"><ele>1.75</ele><time>2026-05-05T14:21:46.854Z</time></trkpt><trkpt lat="36.8011855" lon="10.195419"><ele>1.5</ele><time>2026-05-05T14:21:47.851Z</time></trkpt><trkpt lat="36.8012047" lon="10.1955971"><ele>1.25</ele><time>2026-05-05T14:21:48.882Z</time></trkpt><trkpt lat="36.801226" lon="10.1957783"><ele>1.0</ele><time>2026-05-05T14:21:49.865Z</time></trkpt><trkpt lat="36.801235" lon="10.195966"><ele>1.0</ele><time>2026-05-05T14:21:50.87Z</time></trkpt><trkpt lat="36.8012391" lon="10.196154"><ele>1.0</ele><time>2026-05-05T14:21:51.874Z</time></trkpt><trkpt lat="36.8012388" lon="10.1963459"><ele>1.0</ele><time>2026-05-05T14:21:52.9Z</time></trkpt><trkpt lat="36.8012368" lon="10.1965442"><ele>1.0</ele><time>2026-05-05T14:21:53.88Z</time></trkpt><trkpt lat="36.8012196" lon="10.1967445"><ele>1.0</ele><time>2026-05-05T14:21:54.875Z</time></trkpt><trkpt lat="36.8011996" lon="10.196949"><ele>1.0</ele><time>2026-05-05T14:21:55.868Z</time></trkpt><trkpt lat="36.8011776" lon="10.1971588"><ele>1.0</ele><time>2026-05-05T14:21:56.869Z</time></trkpt><trkpt lat="36.8011519" lon="10.1973852"><ele>1.0</ele><time>2026-05-05T14:21:57.84Z</time></trkpt><trkpt lat="36.801122" lon="10.1976086"><ele>1.0</ele><time>2026-05-05T14:21:58.87Z</time></trkpt><trkpt lat="36.8010926" lon="10.197843"><ele>1.0</ele><time>2026-05-05T14:21:59.861Z</time></trkpt><trkpt lat="36.8010517" lon="10.1980698"><ele>1.0</ele><time>2026-05-05T14:22:00.888Z</time></trkpt><trkpt lat="36.8009979" lon="10.1983046"><ele>1.0</ele><time>2026-05-05T14:22:01.864Z</time></trkpt><trkpt lat="36.8009449" lon="10.1985348"><ele>0.6666666666666666</ele><time>2026-05-05T14:22:02.872Z</time></trkpt><trkpt lat="36.8008784" lon="10.1987555"><ele>0.3333333333333333</ele><time>2026-05-05T14:22:03.851Z</time></trkpt><trkpt lat="36.8008043" lon="10.1989841"><ele>0.0</ele><time>2026-05-05T14:22:04.868Z</time></trkpt><trkpt lat="36.8007244" lon="10.1992103"><ele>-0.6666666666666666</ele><time>2026-05-05T14:22:05.868Z</time></trkpt><trkpt lat="36.800642" lon="10.1994373"><ele>-1.3333333333333333</ele><time>2026-05-05T14:22:06.87Z</time></trkpt><trkpt lat="36.8005572" lon="10.1996674"><ele>-2.0</ele><time>2026-05-05T14:22:07.879Z</time></trkpt><trkpt lat="36.8004717" lon="10.1998976"><ele>-2.6666666666666665</ele><time>2026-05-05T14:22:08.869Z</time></trkpt><trkpt lat="36.8003828" lon="10.2001287"><ele>-3.333333333333333</ele><time>2026-05-05T14:22:09.863Z</time></trkpt><trkpt lat="36.8002961" lon="10.2003596"><ele>-4.0</ele><time>2026-05-05T14:22:10.85Z</time></trkpt><trkpt lat="36.80021" lon="10.2005935"><ele>-3.0</ele><time>2026-05-05T14:22:11.87Z</time></trkpt><trkpt lat="36.8001246" lon="10.2008316"><ele>-2.0</ele><time>2026-05-05T14:22:12.851Z</time></trkpt><trkpt lat="36.8000441" lon="10.2010741"><ele>-1.0</ele><time>2026-05-05T14:22:13.858Z</time></trkpt><trkpt lat="36.7999696" lon="10.2013138"><ele>-1.6666666666666665</ele><time>2026-05-05T14:22:14.874Z</time></trkpt><trkpt lat="36.7998988" lon="10.2015546"><ele>-2.3333333333333335</ele><time>2026-05-05T14:22:15.835Z</time></trkpt><trkpt lat="36.7998382" lon="10.201798"><ele>-3.0</ele><time>2026-05-05T14:22:16.847Z</time></trkpt><trkpt lat="36.7997864" lon="10.2020417"><ele>-3.0</ele><time>2026-05-05T14:22:17.872Z</time></trkpt><trkpt lat="36.7997374" lon="10.2022912"><ele>-3.0</ele><time>2026-05-05T14:22:18.848Z</time></trkpt><trkpt lat="36.7997024" lon="10.2025436"><ele>-3.0</ele><time>2026-05-05T14:22:19.874Z</time></trkpt><trkpt lat="36.79968" lon="10.2027982"><ele>-3.333333333333333</ele><time>2026-05-05T14:22:20.876Z</time></trkpt><trkpt lat="36.7996685" lon="10.2030565"><ele>-3.6666666666666665</ele><time>2026-05-05T14:22:21.837Z</time></trkpt><trkpt lat="36.7996625" lon="10.2033181"><ele>-4.0</ele><time>2026-05-05T14:22:22.86Z</time></trkpt><trkpt lat="36.7996636" lon="10.2035776"><ele>-3.333333333333333</ele><time>2026-05-05T14:22:23.859Z</time></trkpt><trkpt lat="36.7996689" lon="10.203828"><ele>-2.6666666666666665</ele><time>2026-05-05T14:22:24.863Z</time></trkpt><trkpt lat="36.7996823" lon="10.2040841"><ele>-2.0</ele><time>2026-05-05T14:22:25.836Z</time></trkpt><trkpt lat="36.7997045" lon="10.2043389"><ele>-1.6666666666666665</ele><time>2026-05-05T14:22:26.838Z</time></trkpt><trkpt lat="36.7997363" lon="10.2045957"><ele>-1.3333333333333333</ele><time>2026-05-05T14:22:27.874Z</time></trkpt><trkpt lat="36.799776" lon="10.2048463"><ele>-1.0</ele><time>2026-05-05T14:22:28.844Z</time></trkpt><trkpt lat="36.7998175" lon="10.2051005"><ele>-1.0</ele><time>2026-05-05T14:22:29.87Z</time></trkpt><trkpt lat="36.7998567" lon="10.2053508"><ele>-1.0</ele><time>2026-05-05T14:22:30.855Z</time></trkpt><trkpt lat="36.7999029" lon="10.205605"><ele>-1.0</ele><time>2026-05-05T14:22:31.838Z</time></trkpt><trkpt lat="36.7999478" lon="10.2058589"><ele>-1.0</ele><time>2026-05-05T14:22:32.859Z</time></trkpt><trkpt lat="36.7999905" lon="10.2061124"><ele>-1.0</ele><time>2026-05-05T14:22:33.855Z</time></trkpt><trkpt lat="36.8000295" lon="10.20637"><ele>-1.0</ele><time>2026-05-05T14:22:34.848Z</time></trkpt><trkpt lat="36.8000668" lon="10.2066238"><ele>-1.0</ele><time>2026-05-05T14:22:35.876Z</time></trkpt><trkpt lat="36.8001076" lon="10.2068807"><ele>-1.0</ele><time>2026-05-05T14:22:36.87Z</time></trkpt><trkpt lat="36.8001492" lon="10.2071524"><ele>-1.0</ele><time>2026-05-05T14:22:37.875Z</time></trkpt><trkpt lat="36.8001941" lon="10.2074306"><ele>-1.0</ele><time>2026-05-05T14:22:38.888Z</time></trkpt><trkpt lat="36.8002368" lon="10.2077067"><ele>-1.0</ele><time>2026-05-05T14:22:39.872Z</time></trkpt><trkpt lat="36.8002815" lon="10.2079878"><ele>-1.5</ele><time>2026-05-05T14:22:40.871Z</time></trkpt><trkpt lat="36.8003272" lon="10.2082713"><ele>-2.0</ele><time>2026-05-05T14:22:41.883Z</time></trkpt><trkpt lat="36.800375" lon="10.2085532"><ele>-2.0</ele><time>2026-05-05T14:22:42.871Z</time></trkpt><trkpt lat="36.800423" lon="10.2088331"><ele>-2.0</ele><time>2026-05-05T14:22:43.874Z</time></trkpt><trkpt lat="36.8004713" lon="10.2091179"><ele>-1.5</ele><time>2026-05-05T14:22:44.883Z</time></trkpt><trkpt lat="36.8005157" lon="10.2094013"><ele>-1.0</ele><time>2026-05-05T14:22:45.877Z</time></trkpt><trkpt lat="36.8005639" lon="10.2096811"><ele>-0.5</ele><time>2026-05-05T14:22:46.868Z</time></trkpt><trkpt lat="36.8006124" lon="10.209961"><ele>0.0</ele><time>2026-05-05T14:22:47.887Z</time></trkpt><trkpt lat="36.8006603" lon="10.2102413"><ele>0.0</ele><time>2026-05-05T14:22:48.87Z</time></trkpt><trkpt lat="36.8007071" lon="10.2105228"><ele>0.0</ele><time>2026-05-05T14:22:49.868Z</time></trkpt><trkpt lat="36.8007527" lon="10.2108041"><ele>-1.0</ele><time>2026-05-05T14:22:50.863Z</time></trkpt><trkpt lat="36.8007977" lon="10.2110856"><ele>-2.0</ele><time>2026-05-05T14:22:51.89Z</time></trkpt><trkpt lat="36.8008443" lon="10.2113659"><ele>-2.0</ele><time>2026-05-05T14:22:52.846Z</time></trkpt><trkpt lat="36.8008898" lon="10.2116431"><ele>-2.0</ele><time>2026-05-05T14:22:53.854Z</time></trkpt><trkpt lat="36.800933" lon="10.2119259"><ele>-2.0</ele><time>2026-05-05T14:22:54.863Z</time></trkpt><trkpt lat="36.8009825" lon="10.2122045"><ele>-2.0</ele><time>2026-05-05T14:22:55.845Z</time></trkpt><trkpt lat="36.8010302" lon="10.2124878"><ele>-1.0</ele><time>2026-05-05T14:22:56.875Z</time></trkpt><trkpt lat="36.8010783" lon="10.2127684"><ele>0.0</ele><time>2026-05-05T14:22:57.884Z</time></trkpt><trkpt lat="36.8011253" lon="10.2130501"><ele>0.0</ele><time>2026-05-05T14:22:58.873Z</time></trkpt><trkpt lat="36.8011761" lon="10.2133281"><ele>0.0</ele><time>2026-05-05T14:22:59.865Z</time></trkpt><trkpt lat="36.8012241" lon="10.2136089"><ele>0.0</ele><time>2026-05-05T14:23:00.818Z</time></trkpt><trkpt lat="36.8012703" lon="10.2138887"><ele>0.0</ele><time>2026-05-05T14:23:01.826Z</time></trkpt><trkpt lat="36.8013137" lon="10.2141633"><ele>-0.5</ele><time>2026-05-05T14:23:02.825Z</time></trkpt><trkpt lat="36.8013626" lon="10.2144523"><ele>-1.0</ele><time>2026-05-05T14:23:03.87Z</time></trkpt><trkpt lat="36.8014079" lon="10.2147353"><ele>-2.0</ele><time>2026-05-05T14:23:04.887Z</time></trkpt><trkpt lat="36.8014526" lon="10.2150173"><ele>-3.0</ele><time>2026-05-05T14:23:05.877Z</time></trkpt><trkpt lat="36.8014993" lon="10.2152941"><ele>-3.0</ele><time>2026-05-05T14:23:06.852Z</time></trkpt><trkpt lat="36.8015457" lon="10.2155744"><ele>-3.0</ele><time>2026-05-05T14:23:07.887Z</time></trkpt><trkpt lat="36.8015862" lon="10.2158537"><ele>-3.5</ele><time>2026-05-05T14:23:08.862Z</time></trkpt><trkpt lat="36.8016282" lon="10.2161341"><ele>-4.0</ele><time>2026-05-05T14:23:09.89Z</time></trkpt><trkpt lat="36.8016765" lon="10.2164167"><ele>-4.0</ele><time>2026-05-05T14:23:10.896Z</time></trkpt><trkpt lat="36.8017229" lon="10.2166941"><ele>-4.0</ele><time>2026-05-05T14:23:11.878Z</time></trkpt><trkpt lat="36.8017623" lon="10.2169708"><ele>-4.0</ele><time>2026-05-05T14:23:12.886Z</time></trkpt><trkpt lat="36.8018062" lon="10.2172547"><ele>-4.0</ele><time>2026-05-05T14:23:13.869Z</time></trkpt><trkpt lat="36.8018552" lon="10.2175415"><ele>-2.0</ele><time>2026-05-05T14:23:14.876Z</time></trkpt><trkpt lat="36.8018988" lon="10.2178229"><ele>0.0</ele><time>2026-05-05T14:23:15.856Z</time></trkpt><trkpt lat="36.8019416" lon="10.2181047"><ele>0.0</ele><time>2026-05-05T14:23:16.868Z</time></trkpt><trkpt lat="36.8019852" lon="10.2183853"><ele>0.0</ele><time>2026-05-05T14:23:17.889Z</time></trkpt><trkpt lat="36.8020304" lon="10.2186697"><ele>0.0</ele><time>2026-05-05T14:23:18.876Z</time></trkpt><trkpt lat="36.8020784" lon="10.218948"><ele>0.0</ele><time>2026-05-05T14:23:19.868Z</time></trkpt><trkpt lat="36.8021224" lon="10.2192243"><ele>-0.3333333333333333</ele><time>2026-05-05T14:23:20.879Z</time></trkpt><trkpt lat="36.8021619" lon="10.2194971"><ele>-0.6666666666666666</ele><time>2026-05-05T14:23:21.871Z</time></trkpt><trkpt lat="36.8022045" lon="10.2197621"><ele>-1.0</ele><time>2026-05-05T14:23:22.874Z</time></trkpt><trkpt lat="36.8022473" lon="10.2200108"><ele>-1.0</ele><time>2026-05-05T14:23:23.885Z</time></trkpt><trkpt lat="36.8022835" lon="10.2202485"><ele>-1.0</ele><time>2026-05-05T14:23:24.876Z</time></trkpt><trkpt lat="36.802317" lon="10.2204706"><ele>-1.0</ele><time>2026-05-05T14:23:25.818Z</time></trkpt><trkpt lat="36.8023523" lon="10.2206867"><ele>-2.0</ele><time>2026-05-05T14:23:26.887Z</time></trkpt><trkpt lat="36.8023875" lon="10.2209054"><ele>-3.0</ele><time>2026-05-05T14:23:27.878Z</time></trkpt><trkpt lat="36.8024226" lon="10.2211239"><ele>-4.0</ele><time>2026-05-05T14:23:28.863Z</time></trkpt><trkpt lat="36.8024616" lon="10.2213442"><ele>-3.333333333333333</ele><time>2026-05-05T14:23:29.87Z</time></trkpt><trkpt lat="36.8025045" lon="10.2215791"><ele>-2.6666666666666665</ele><time>2026-05-05T14:23:30.871Z</time></trkpt><trkpt lat="36.8025459" lon="10.2218198"><ele>-2.0</ele><time>2026-05-05T14:23:31.872Z</time></trkpt><trkpt lat="36.802586" lon="10.2220568"><ele>-2.0</ele><time>2026-05-05T14:23:32.893Z</time></trkpt><trkpt lat="36.802629" lon="10.222303"><ele>-2.0</ele><time>2026-05-05T14:23:33.881Z</time></trkpt><trkpt lat="36.8026655" lon="10.2225498"><ele>-2.0</ele><time>2026-05-05T14:23:34.879Z</time></trkpt><trkpt lat="36.8027033" lon="10.2227967"><ele>-1.3333333333333333</ele><time>2026-05-05T14:23:35.879Z</time></trkpt><trkpt lat="36.8027408" lon="10.2230392"><ele>-0.6666666666666666</ele><time>2026-05-05T14:23:36.831Z</time></trkpt><trkpt lat="36.8027818" lon="10.2232853"><ele>0.0</ele><time>2026-05-05T14:23:37.892Z</time></trkpt><trkpt lat="36.8028232" lon="10.2235273"><ele>0.0</ele><time>2026-05-05T14:23:38.888Z</time></trkpt><trkpt lat="36.8028641" lon="10.223768"><ele>0.0</ele><time>2026-05-05T14:23:39.875Z</time></trkpt><trkpt lat="36.802906" lon="10.2240099"><ele>0.0</ele><time>2026-05-05T14:23:40.878Z</time></trkpt><trkpt lat="36.8029486" lon="10.2242531"><ele>-0.3333333333333333</ele><time>2026-05-05T14:23:41.884Z</time></trkpt><trkpt lat="36.8029879" lon="10.2245"><ele>-0.6666666666666666</ele><time>2026-05-05T14:23:42.859Z</time></trkpt><trkpt lat="36.8030288" lon="10.2247476"><ele>-1.0</ele><time>2026-05-05T14:23:43.875Z</time></trkpt><trkpt lat="36.8030745" lon="10.2250015"><ele>-1.0</ele><time>2026-05-05T14:23:44.862Z</time></trkpt><trkpt lat="36.8031185" lon="10.2252551"><ele>-1.0</ele><time>2026-05-05T14:23:45.872Z</time></trkpt><trkpt lat="36.8031653" lon="10.225516"><ele>-1.0</ele><time>2026-05-05T14:23:46.878Z</time></trkpt><trkpt lat="36.8032043" lon="10.2257787"><ele>-1.0</ele><time>2026-05-05T14:23:47.843Z</time></trkpt><trkpt lat="36.803247" lon="10.2260427"><ele>-1.0</ele><time>2026-05-05T14:23:48.879Z</time></trkpt><trkpt lat="36.8032853" lon="10.2263099"><ele>-1.0</ele><time>2026-05-05T14:23:49.89Z</time></trkpt><trkpt lat="36.803322" lon="10.2265668"><ele>-1.0</ele><time>2026-05-05T14:23:50.882Z</time></trkpt><trkpt lat="36.8033575" lon="10.2268285"><ele>-1.0</ele><time>2026-05-05T14:23:51.864Z</time></trkpt><trkpt lat="36.8033925" lon="10.2270866"><ele>-1.0</ele><time>2026-05-05T14:23:52.874Z</time></trkpt><trkpt lat="36.8034299" lon="10.2273477"><ele>-0.6666666666666666</ele><time>2026-05-05T14:23:53.85Z</time></trkpt><trkpt lat="36.8034714" lon="10.2276069"><ele>-0.3333333333333333</ele><time>2026-05-05T14:23:54.875Z</time></trkpt><trkpt lat="36.8035105" lon="10.227865"><ele>0.0</ele><time>2026-05-05T14:23:55.878Z</time></trkpt><trkpt lat="36.8035546" lon="10.2281252"><ele>0.0</ele><time>2026-05-05T14:23:56.877Z</time></trkpt><trkpt lat="36.8035961" lon="10.228386"><ele>0.0</ele><time>2026-05-05T14:23:57.865Z</time></trkpt><trkpt lat="36.8036397" lon="10.2286426"><ele>0.0</ele><time>2026-05-05T14:23:58.878Z</time></trkpt><trkpt lat="36.8036824" lon="10.2288963"><ele>0.0</ele><time>2026-05-05T14:23:59.873Z</time></trkpt><trkpt lat="36.8037219" lon="10.229153"><ele>0.0</ele><time>2026-05-05T14:24:00.874Z</time></trkpt><trkpt lat="36.8037606" lon="10.2294041"><ele>0.0</ele><time>2026-05-05T14:24:01.865Z</time></trkpt><trkpt lat="36.8038007" lon="10.229663"><ele>-0.3333333333333333</ele><time>2026-05-05T14:24:02.846Z</time></trkpt><trkpt lat="36.8038406" lon="10.2299191"><ele>-0.6666666666666666</ele><time>2026-05-05T14:24:03.882Z</time></trkpt><trkpt lat="36.8038796" lon="10.230174"><ele>-1.0</ele><time>2026-05-05T14:24:04.841Z</time></trkpt><trkpt lat="36.8039216" lon="10.2304271"><ele>-1.3333333333333333</ele><time>2026-05-05T14:24:05.876Z</time></trkpt><trkpt lat="36.8039636" lon="10.230683"><ele>-1.6666666666666665</ele><time>2026-05-05T14:24:06.88Z</time></trkpt><trkpt lat="36.8040055" lon="10.2309371"><ele>-2.0</ele><time>2026-05-05T14:24:07.861Z</time></trkpt><trkpt lat="36.804045" lon="10.2311911"><ele>-2.0</ele><time>2026-05-05T14:24:08.863Z</time></trkpt><trkpt lat="36.804083" lon="10.2314426"><ele>-2.0</ele><time>2026-05-05T14:24:09.876Z</time></trkpt><trkpt lat="36.8041258" lon="10.2316939"><ele>-2.0</ele><time>2026-05-05T14:24:10.868Z</time></trkpt><trkpt lat="36.8041655" lon="10.2319433"><ele>-2.0</ele><time>2026-05-05T14:24:11.878Z</time></trkpt><trkpt lat="36.8042068" lon="10.2321955"><ele>-2.0</ele><time>2026-05-05T14:24:12.866Z</time></trkpt><trkpt lat="36.8042482" lon="10.232451"><ele>-2.0</ele><time>2026-05-05T14:24:13.875Z</time></trkpt><trkpt lat="36.8042903" lon="10.2327058"><ele>-1.3333333333333333</ele><time>2026-05-05T14:24:14.882Z</time></trkpt><trkpt lat="36.8043307" lon="10.2329606"><ele>-0.6666666666666666</ele><time>2026-05-05T14:24:15.87Z</time></trkpt><trkpt lat="36.8043723" lon="10.2332062"><ele>0.0</ele><time>2026-05-05T14:24:16.869Z</time></trkpt><trkpt lat="36.8044143" lon="10.2334637"><ele>0.0</ele><time>2026-05-05T14:24:17.886Z</time></trkpt><trkpt lat="36.8044539" lon="10.2337128"><ele>0.0</ele><time>2026-05-05T14:24:18.877Z</time></trkpt><trkpt lat="36.8044945" lon="10.2339603"><ele>0.0</ele><time>2026-05-05T14:24:19.869Z</time></trkpt><trkpt lat="36.8045329" lon="10.2342018"><ele>0.0</ele><time>2026-05-05T14:24:20.878Z</time></trkpt><trkpt lat="36.8045688" lon="10.2344429"><ele>0.0</ele><time>2026-05-05T14:24:21.878Z</time></trkpt><trkpt lat="36.8046063" lon="10.2346884"><ele>0.0</ele><time>2026-05-05T14:24:22.836Z</time></trkpt><trkpt lat="36.8046409" lon="10.2349337"><ele>-0.3333333333333333</ele><time>2026-05-05T14:24:23.88Z</time></trkpt><trkpt lat="36.8046771" lon="10.2351779"><ele>-0.6666666666666666</ele><time>2026-05-05T14:24:24.842Z</time></trkpt><trkpt lat="36.8047194" lon="10.2354218"><ele>-1.0</ele><time>2026-05-05T14:24:25.85Z</time></trkpt><trkpt lat="36.8047613" lon="10.2356697"><ele>-1.0</ele><time>2026-05-05T14:24:26.872Z</time></trkpt><trkpt lat="36.8048033" lon="10.2359103"><ele>-1.0</ele><time>2026-05-05T14:24:27.882Z</time></trkpt><trkpt lat="36.8048489" lon="10.2361558"><ele>-1.0</ele><time>2026-05-05T14:24:28.869Z</time></trkpt><trkpt lat="36.8048924" lon="10.2364038"><ele>-1.3333333333333333</ele><time>2026-05-05T14:24:29.875Z</time></trkpt><trkpt lat="36.8049378" lon="10.2366609"><ele>-1.6666666666666665</ele><time>2026-05-05T14:24:30.866Z</time></trkpt><trkpt lat="36.8049804" lon="10.236911"><ele>-2.0</ele><time>2026-05-05T14:24:31.846Z</time></trkpt><trkpt lat="36.8050264" lon="10.2371684"><ele>-1.6666666666666665</ele><time>2026-05-05T14:24:32.854Z</time></trkpt><trkpt lat="36.8050798" lon="10.2374334"><ele>-1.3333333333333333</ele><time>2026-05-05T14:24:33.839Z</time></trkpt><trkpt lat="36.8051269" lon="10.2376912"><ele>-1.0</ele><time>2026-05-05T14:24:34.852Z</time></trkpt><trkpt lat="36.8051729" lon="10.2379509"><ele>-0.6666666666666666</ele><time>2026-05-05T14:24:35.866Z</time></trkpt><trkpt lat="36.8052188" lon="10.2382137"><ele>-0.3333333333333333</ele><time>2026-05-05T14:24:36.872Z</time></trkpt><trkpt lat="36.8052603" lon="10.238473"><ele>0.0</ele><time>2026-05-05T14:24:37.862Z</time></trkpt><trkpt lat="36.8053055" lon="10.2387325"><ele>0.0</ele><time>2026-05-05T14:24:38.863Z</time></trkpt><trkpt lat="36.8053518" lon="10.2389878"><ele>0.0</ele><time>2026-05-05T14:24:39.871Z</time></trkpt><trkpt lat="36.8053943" lon="10.2392493"><ele>0.0</ele><time>2026-05-05T14:24:40.838Z</time></trkpt><trkpt lat="36.8054369" lon="10.2395084"><ele>0.0</ele><time>2026-05-05T14:24:41.839Z</time></trkpt><trkpt lat="36.8054803" lon="10.2397663"><ele>0.0</ele><time>2026-05-05T14:24:42.844Z</time></trkpt><trkpt lat="36.8055243" lon="10.2400345"><ele>0.0</ele><time>2026-05-05T14:24:43.87Z</time></trkpt><trkpt lat="36.8055683" lon="10.2403062"><ele>0.0</ele><time>2026-05-05T14:24:44.889Z</time></trkpt><trkpt lat="36.8056117" lon="10.2405727"><ele>0.0</ele><time>2026-05-05T14:24:45.842Z</time></trkpt><trkpt lat="36.805655" lon="10.2408333"><ele>0.0</ele><time>2026-05-05T14:24:46.869Z</time></trkpt><trkpt lat="36.8056976" lon="10.2410973"><ele>0.0</ele><time>2026-05-05T14:24:47.879Z</time></trkpt><trkpt lat="36.8057404" lon="10.2413556"><ele>0.0</ele><time>2026-05-05T14:24:48.878Z</time></trkpt><trkpt lat="36.8057806" lon="10.2416156"><ele>0.0</ele><time>2026-05-05T14:24:49.832Z</time></trkpt><trkpt lat="36.8058127" lon="10.2418781"><ele>-0.3333333333333333</ele><time>2026-05-05T14:24:50.85Z</time></trkpt><trkpt lat="36.8058452" lon="10.2421431"><ele>-0.6666666666666666</ele><time>2026-05-05T14:24:51.878Z</time></trkpt><trkpt lat="36.8058805" lon="10.2424107"><ele>-1.0</ele><time>2026-05-05T14:24:52.885Z</time></trkpt><trkpt lat="36.8059186" lon="10.24268"><ele>-1.0</ele><time>2026-05-05T14:24:53.872Z</time></trkpt><trkpt lat="36.8059621" lon="10.2429406"><ele>-1.0</ele><time>2026-05-05T14:24:54.886Z</time></trkpt><trkpt lat="36.8060034" lon="10.2431949"><ele>-1.0</ele><time>2026-05-05T14:24:55.836Z</time></trkpt><trkpt lat="36.8060456" lon="10.243435"><ele>-0.6666666666666666</ele><time>2026-05-05T14:24:56.859Z</time></trkpt><trkpt lat="36.8060818" lon="10.2436613"><ele>-0.3333333333333333</ele><time>2026-05-05T14:24:57.834Z</time></trkpt><trkpt lat="36.8061181" lon="10.243884"><ele>0.0</ele><time>2026-05-05T14:24:58.849Z</time></trkpt><trkpt lat="36.8061544" lon="10.2441076"><ele>0.0</ele><time>2026-05-05T14:24:59.832Z</time></trkpt><trkpt lat="36.8061915" lon="10.2443344"><ele>0.0</ele><time>2026-05-05T14:25:00.837Z</time></trkpt><trkpt lat="36.8062236" lon="10.2445501"><ele>0.0</ele><time>2026-05-05T14:25:01.849Z</time></trkpt><trkpt lat="36.8062566" lon="10.2447704"><ele>0.0</ele><time>2026-05-05T14:25:02.863Z</time></trkpt><trkpt lat="36.8062962" lon="10.2449956"><ele>0.0</ele><time>2026-05-05T14:25:03.817Z</time></trkpt><trkpt lat="36.8063334" lon="10.2452198"><ele>0.0</ele><time>2026-05-05T14:25:04.819Z</time></trkpt><trkpt lat="36.8063669" lon="10.2454458"><ele>-0.3333333333333333</ele><time>2026-05-05T14:25:05.818Z</time></trkpt><trkpt lat="36.8064042" lon="10.2456768"><ele>-0.6666666666666666</ele><time>2026-05-05T14:25:06.83Z</time></trkpt><trkpt lat="36.8064441" lon="10.245905"><ele>-1.0</ele><time>2026-05-05T14:25:07.856Z</time></trkpt><trkpt lat="36.8064845" lon="10.2461417"><ele>-1.0</ele><time>2026-05-05T14:25:08.869Z</time></trkpt><trkpt lat="36.8065243" lon="10.246374"><ele>-1.0</ele><time>2026-05-05T14:25:09.839Z</time></trkpt><trkpt lat="36.8065607" lon="10.2466106"><ele>-1.0</ele><time>2026-05-05T14:25:10.878Z</time></trkpt><trkpt lat="36.8065986" lon="10.2468501"><ele>-1.0</ele><time>2026-05-05T14:25:11.866Z</time></trkpt><trkpt lat="36.8066389" lon="10.2470884"><ele>-1.0</ele><time>2026-05-05T14:25:12.82Z</time></trkpt><trkpt lat="36.8066766" lon="10.2473225"><ele>-1.0</ele><time>2026-05-05T14:25:13.859Z</time></trkpt><trkpt lat="36.80672" lon="10.2475641"><ele>-1.3333333333333333</ele><time>2026-05-05T14:25:14.868Z</time></trkpt><trkpt lat="36.8067544" lon="10.2478019"><ele>-1.6666666666666665</ele><time>2026-05-05T14:25:15.881Z</time></trkpt><trkpt lat="36.8067892" lon="10.2480391"><ele>-2.0</ele><time>2026-05-05T14:25:16.859Z</time></trkpt><trkpt lat="36.8068283" lon="10.248277"><ele>-1.3333333333333333</ele><time>2026-05-05T14:25:17.865Z</time></trkpt><trkpt lat="36.806866" lon="10.2485195"><ele>-0.6666666666666666</ele><time>2026-05-05T14:25:18.855Z</time></trkpt><trkpt lat="36.8069054" lon="10.2487657"><ele>0.0</ele><time>2026-05-05T14:25:19.834Z</time></trkpt><trkpt lat="36.8069451" lon="10.2490054"><ele>0.0</ele><time>2026-05-05T14:25:20.862Z</time></trkpt><trkpt lat="36.8069849" lon="10.2492518"><ele>0.0</ele><time>2026-05-05T14:25:21.846Z</time></trkpt><trkpt lat="36.807024" lon="10.2494936"><ele>0.0</ele><time>2026-05-05T14:25:22.89Z</time></trkpt><trkpt lat="36.8070649" lon="10.2497343"><ele>0.0</ele><time>2026-05-05T14:25:23.852Z</time></trkpt><trkpt lat="36.8071066" lon="10.2499778"><ele>0.0</ele><time>2026-05-05T14:25:24.834Z</time></trkpt><trkpt lat="36.8071429" lon="10.250214"><ele>0.0</ele><time>2026-05-05T14:25:25.832Z</time></trkpt><trkpt lat="36.8071764" lon="10.2504519"><ele>0.0</ele><time>2026-05-05T14:25:26.832Z</time></trkpt><trkpt lat="36.8072141" lon="10.2506874"><ele>0.0</ele><time>2026-05-05T14:25:27.819Z</time></trkpt><trkpt lat="36.8072528" lon="10.2509101"><ele>0.0</ele><time>2026-05-05T14:25:28.827Z</time></trkpt><trkpt lat="36.8072913" lon="10.2511328"><ele>0.0</ele><time>2026-05-05T14:25:29.863Z</time></trkpt><trkpt lat="36.8073244" lon="10.2513535"><ele>0.0</ele><time>2026-05-05T14:25:30.837Z</time></trkpt><trkpt lat="36.8073628" lon="10.2515731"><ele>0.0</ele><time>2026-05-05T14:25:31.836Z</time></trkpt><trkpt lat="36.807401" lon="10.2517905"><ele>-0.3333333333333333</ele><time>2026-05-05T14:25:32.823Z</time></trkpt><trkpt lat="36.8074361" lon="10.2520109"><ele>-0.6666666666666666</ele><time>2026-05-05T14:25:33.82Z</time></trkpt><trkpt lat="36.8074735" lon="10.2522347"><ele>-1.0</ele><time>2026-05-05T14:25:34.851Z</time></trkpt><trkpt lat="36.8075131" lon="10.2524556"><ele>-1.3333333333333333</ele><time>2026-05-05T14:25:35.831Z</time></trkpt><trkpt lat="36.8075532" lon="10.2526786"><ele>-1.6666666666666665</ele><time>2026-05-05T14:25:36.88Z</time></trkpt><trkpt lat="36.8075924" lon="10.2529029"><ele>-2.0</ele><time>2026-05-05T14:25:37.836Z</time></trkpt><trkpt lat="36.8076272" lon="10.2531306"><ele>-1.3333333333333333</ele><time>2026-05-05T14:25:38.86Z</time></trkpt><trkpt lat="36.8076634" lon="10.2533615"><ele>-0.6666666666666666</ele><time>2026-05-05T14:25:39.869Z</time></trkpt><trkpt lat="36.8077023" lon="10.2535906"><ele>0.0</ele><time>2026-05-05T14:25:40.868Z</time></trkpt><trkpt lat="36.8077423" lon="10.2538187"><ele>-0.3333333333333333</ele><time>2026-05-05T14:25:41.873Z</time></trkpt><trkpt lat="36.8077741" lon="10.2540483"><ele>-0.6666666666666666</ele><time>2026-05-05T14:25:42.843Z</time></trkpt><trkpt lat="36.8078116" lon="10.2542735"><ele>-1.0</ele><time>2026-05-05T14:25:43.874Z</time></trkpt><trkpt lat="36.8078575" lon="10.2544893"><ele>-1.0</ele><time>2026-05-05T14:25:44.85Z</time></trkpt><trkpt lat="36.8079001" lon="10.2547005"><ele>-1.0</ele><time>2026-05-05T14:25:45.86Z</time></trkpt><trkpt lat="36.8079439" lon="10.2548969"><ele>-1.0</ele><time>2026-05-05T14:25:46.869Z</time></trkpt><trkpt lat="36.8080004" lon="10.2550788"><ele>0.0</ele><time>2026-05-05T14:25:47.846Z</time></trkpt><trkpt lat="36.8083876" lon="10.2563739"><ele>0.0</ele><time>2026-05-05T14:25:54.809Z</time></trkpt><trkpt lat="36.8084968" lon="10.2566703"><ele>0.0</ele><time>2026-05-05T14:25:56.81Z</time></trkpt><trkpt lat="36.8085528" lon="10.2568688"><ele>0.0</ele><time>2026-05-05T14:25:57.814Z</time></trkpt><trkpt lat="36.808634" lon="10.2570421"><ele>0.0</ele><time>2026-05-05T14:25:58.843Z</time></trkpt><trkpt lat="36.808707" lon="10.2572102"><ele>0.0</ele><time>2026-05-05T14:25:59.849Z</time></trkpt><trkpt lat="36.8087886" lon="10.2573859"><ele>0.0</ele><time>2026-05-05T14:26:00.827Z</time></trkpt><trkpt lat="36.8088742" lon="10.257575"><ele>0.0</ele><time>2026-05-05T14:26:01.833Z</time></trkpt><trkpt lat="36.8089712" lon="10.2577712"><ele>0.0</ele><time>2026-05-05T14:26:02.823Z</time></trkpt><trkpt lat="36.809053" lon="10.2579839"><ele>0.0</ele><time>2026-05-05T14:26:03.809Z</time></trkpt><trkpt lat="36.8091354" lon="10.2581966"><ele>0.0</ele><time>2026-05-05T14:26:04.825Z</time></trkpt><trkpt lat="36.809216" lon="10.2584071"><ele>0.0</ele><time>2026-05-05T14:26:05.86Z</time></trkpt><trkpt lat="36.8093012" lon="10.258614"><ele>0.0</ele><time>2026-05-05T14:26:06.835Z</time></trkpt><trkpt lat="36.8093868" lon="10.2588056"><ele>0.0</ele><time>2026-05-05T14:26:07.856Z</time></trkpt><trkpt lat="36.8094639" lon="10.2589902"><ele>0.0</ele><time>2026-05-05T14:26:08.839Z</time></trkpt><trkpt lat="36.8095445" lon="10.2591715"><ele>0.0</ele><time>2026-05-05T14:26:09.815Z</time></trkpt><trkpt lat="36.8096211" lon="10.2593465"><ele>0.0</ele><time>2026-05-05T14:26:10.861Z</time></trkpt><trkpt lat="36.8096921" lon="10.2595272"><ele>0.0</ele><time>2026-05-05T14:26:11.858Z</time></trkpt><trkpt lat="36.8097584" lon="10.2597135"><ele>0.0</ele><time>2026-05-05T14:26:12.824Z</time></trkpt><trkpt lat="36.8098181" lon="10.2598968"><ele>0.0</ele><time>2026-05-05T14:26:13.838Z</time></trkpt><trkpt lat="36.8098801" lon="10.2600785"><ele>0.0</ele><time>2026-05-05T14:26:14.877Z</time></trkpt><trkpt lat="36.8099411" lon="10.260257"><ele>0.0</ele><time>2026-05-05T14:26:15.867Z</time></trkpt><trkpt lat="36.8099981" lon="10.2604413"><ele>0.0</ele><time>2026-05-05T14:26:16.838Z</time></trkpt><trkpt lat="36.8100519" lon="10.2606239"><ele>0.0</ele><time>2026-05-05T14:26:17.849Z</time></trkpt><trkpt lat="36.8101067" lon="10.2608116"><ele>0.0</ele><time>2026-05-05T14:26:18.863Z</time></trkpt><trkpt lat="36.810161" lon="10.2609995"><ele>0.0</ele><time>2026-05-05T14:26:19.808Z</time></trkpt><trkpt lat="36.8102131" lon="10.2611969"><ele>0.0</ele><time>2026-05-05T14:26:20.857Z</time></trkpt><trkpt lat="36.8102642" lon="10.2613906"><ele>0.0</ele><time>2026-05-05T14:26:21.838Z</time></trkpt><trkpt lat="36.8103144" lon="10.2615846"><ele>0.0</ele><time>2026-05-05T14:26:22.866Z</time></trkpt><trkpt lat="36.8103613" lon="10.2617804"><ele>0.0</ele><time>2026-05-05T14:26:23.858Z</time></trkpt><trkpt lat="36.8104024" lon="10.261978"><ele>0.0</ele><time>2026-05-05T14:26:24.861Z</time></trkpt><trkpt lat="36.8104454" lon="10.2621801"><ele>0.0</ele><time>2026-05-05T14:26:25.865Z</time></trkpt><trkpt lat="36.8104861" lon="10.2623882"><ele>0.0</ele><time>2026-05-05T14:26:26.862Z</time></trkpt><trkpt lat="36.8105241" lon="10.2625957"><ele>0.0</ele><time>2026-05-05T14:26:27.842Z</time></trkpt><trkpt lat="36.8105584" lon="10.2628022"><ele>0.0</ele><time>2026-05-05T14:26:28.862Z</time></trkpt><trkpt lat="36.8105917" lon="10.2630187"><ele>0.0</ele><time>2026-05-05T14:26:29.838Z</time></trkpt><trkpt lat="36.8106236" lon="10.2632314"><ele>0.0</ele><time>2026-05-05T14:26:30.856Z</time></trkpt><trkpt lat="36.8106539" lon="10.2634453"><ele>0.0</ele><time>2026-05-05T14:26:31.866Z</time></trkpt><trkpt lat="36.8106814" lon="10.2636595"><ele>0.0</ele><time>2026-05-05T14:26:32.88Z</time></trkpt><trkpt lat="36.8107071" lon="10.2638717"><ele>0.0</ele><time>2026-05-05T14:26:33.867Z</time></trkpt><trkpt lat="36.8107289" lon="10.2640885"><ele>0.0</ele><time>2026-05-05T14:26:34.859Z</time></trkpt><trkpt lat="36.8107476" lon="10.2643007"><ele>0.0</ele><time>2026-05-05T14:26:35.869Z</time></trkpt><trkpt lat="36.8107665" lon="10.2645133"><ele>0.0</ele><time>2026-05-05T14:26:36.868Z</time></trkpt><trkpt lat="36.8107805" lon="10.2647232"><ele>0.0</ele><time>2026-05-05T14:26:37.872Z</time></trkpt><trkpt lat="36.8107923" lon="10.2649326"><ele>0.0</ele><time>2026-05-05T14:26:38.86Z</time></trkpt><trkpt lat="36.8107988" lon="10.2651446"><ele>0.0</ele><time>2026-05-05T14:26:39.87Z</time></trkpt><trkpt lat="36.8108019" lon="10.2653492"><ele>0.0</ele><time>2026-05-05T14:26:40.887Z</time></trkpt><trkpt lat="36.8108035" lon="10.2655528"><ele>0.0</ele><time>2026-05-05T14:26:41.87Z</time></trkpt><trkpt lat="36.8108006" lon="10.2657518"><ele>0.0</ele><time>2026-05-05T14:26:42.876Z</time></trkpt><trkpt lat="36.8107961" lon="10.265959"><ele>0.0</ele><time>2026-05-05T14:26:43.88Z</time></trkpt><trkpt lat="36.8107925" lon="10.266164"><ele>0.0</ele><time>2026-05-05T14:26:44.861Z</time></trkpt><trkpt lat="36.8107835" lon="10.2663654"><ele>0.0</ele><time>2026-05-05T14:26:45.869Z</time></trkpt><trkpt lat="36.8107774" lon="10.2665706"><ele>0.0</ele><time>2026-05-05T14:26:46.877Z</time></trkpt><trkpt lat="36.8107642" lon="10.2667679"><ele>0.0</ele><time>2026-05-05T14:26:47.871Z</time></trkpt><trkpt lat="36.8107506" lon="10.2669668"><ele>0.0</ele><time>2026-05-05T14:26:48.874Z</time></trkpt><trkpt lat="36.8107355" lon="10.2671581"><ele>0.0</ele><time>2026-05-05T14:26:49.861Z</time></trkpt><trkpt lat="36.8107221" lon="10.2673549"><ele>0.0</ele><time>2026-05-05T14:26:50.901Z</time></trkpt><trkpt lat="36.8107128" lon="10.2675544"><ele>0.0</ele><time>2026-05-05T14:26:51.871Z</time></trkpt><trkpt lat="36.8106996" lon="10.267759"><ele>0.0</ele><time>2026-05-05T14:26:52.876Z</time></trkpt><trkpt lat="36.8106895" lon="10.2679554"><ele>0.0</ele><time>2026-05-05T14:26:53.887Z</time></trkpt><trkpt lat="36.810679" lon="10.2681513"><ele>0.0</ele><time>2026-05-05T14:26:54.887Z</time></trkpt><trkpt lat="36.8106655" lon="10.2683489"><ele>0.0</ele><time>2026-05-05T14:26:55.879Z</time></trkpt><trkpt lat="36.8106479" lon="10.2685448"><ele>0.0</ele><time>2026-05-05T14:26:56.86Z</time></trkpt><trkpt lat="36.8106335" lon="10.2687401"><ele>0.0</ele><time>2026-05-05T14:26:57.87Z</time></trkpt><trkpt lat="36.8106237" lon="10.2689393"><ele>0.0</ele><time>2026-05-05T14:26:58.874Z</time></trkpt><trkpt lat="36.8106169" lon="10.2691344"><ele>0.0</ele><time>2026-05-05T14:26:59.873Z</time></trkpt><trkpt lat="36.8106145" lon="10.2693367"><ele>0.0</ele><time>2026-05-05T14:27:00.865Z</time></trkpt><trkpt lat="36.8106114" lon="10.2695342"><ele>0.0</ele><time>2026-05-05T14:27:01.861Z</time></trkpt><trkpt lat="36.8106131" lon="10.2697345"><ele>0.0</ele><time>2026-05-05T14:27:02.835Z</time></trkpt><trkpt lat="36.8106145" lon="10.2699349"><ele>0.0</ele><time>2026-05-05T14:27:03.853Z</time></trkpt><trkpt lat="36.8106167" lon="10.2701414"><ele>0.3333333333333333</ele><time>2026-05-05T14:27:04.821Z</time></trkpt><trkpt lat="36.8106213" lon="10.270345"><ele>0.6666666666666666</ele><time>2026-05-05T14:27:05.853Z</time></trkpt><trkpt lat="36.8106306" lon="10.2705489"><ele>1.0</ele><time>2026-05-05T14:27:06.851Z</time></trkpt><trkpt lat="36.8106429" lon="10.2707536"><ele>1.6666666666666665</ele><time>2026-05-05T14:27:07.85Z</time></trkpt><trkpt lat="36.8106562" lon="10.2709603"><ele>2.3333333333333335</ele><time>2026-05-05T14:27:08.862Z</time></trkpt><trkpt lat="36.8106729" lon="10.2711677"><ele>3.0</ele><time>2026-05-05T14:27:09.85Z</time></trkpt><trkpt lat="36.8106935" lon="10.2713815"><ele>1.6666666666666667</ele><time>2026-05-05T14:27:10.887Z</time></trkpt><trkpt lat="36.8107168" lon="10.271601"><ele>0.33333333333333337</ele><time>2026-05-05T14:27:11.865Z</time></trkpt><trkpt lat="36.8107399" lon="10.2718218"><ele>-1.0</ele><time>2026-05-05T14:27:12.872Z</time></trkpt><trkpt lat="36.8107641" lon="10.2720445"><ele>-1.0</ele><time>2026-05-05T14:27:13.863Z</time></trkpt><trkpt lat="36.8107915" lon="10.2722704"><ele>-1.0</ele><time>2026-05-05T14:27:14.868Z</time></trkpt><trkpt lat="36.8108214" lon="10.2724999"><ele>-1.0</ele><time>2026-05-05T14:27:15.862Z</time></trkpt><trkpt lat="36.8108559" lon="10.2727282"><ele>-0.6666666666666666</ele><time>2026-05-05T14:27:16.862Z</time></trkpt><trkpt lat="36.8108905" lon="10.2729526"><ele>-0.3333333333333333</ele><time>2026-05-05T14:27:17.865Z</time></trkpt><trkpt lat="36.8109239" lon="10.2731714"><ele>0.0</ele><time>2026-05-05T14:27:18.899Z</time></trkpt><trkpt lat="36.8109563" lon="10.2733859"><ele>0.0</ele><time>2026-05-05T14:27:19.878Z</time></trkpt><trkpt lat="36.8109904" lon="10.2735986"><ele>0.0</ele><time>2026-05-05T14:27:20.832Z</time></trkpt><trkpt lat="36.8110231" lon="10.2738111"><ele>0.0</ele><time>2026-05-05T14:27:21.888Z</time></trkpt><trkpt lat="36.8110566" lon="10.2740224"><ele>0.0</ele><time>2026-05-05T14:27:22.875Z</time></trkpt><trkpt lat="36.8110942" lon="10.274239"><ele>0.0</ele><time>2026-05-05T14:27:23.882Z</time></trkpt><trkpt lat="36.8111352" lon="10.2744662"><ele>0.0</ele><time>2026-05-05T14:27:24.882Z</time></trkpt><trkpt lat="36.8111745" lon="10.2747056"><ele>0.0</ele><time>2026-05-05T14:27:25.868Z</time></trkpt><trkpt lat="36.811218" lon="10.2749498"><ele>0.0</ele><time>2026-05-05T14:27:26.886Z</time></trkpt><trkpt lat="36.811265" lon="10.2751965"><ele>0.0</ele><time>2026-05-05T14:27:27.851Z</time></trkpt><trkpt lat="36.8113068" lon="10.2754388"><ele>0.0</ele><time>2026-05-05T14:27:28.882Z</time></trkpt><trkpt lat="36.811347" lon="10.2756742"><ele>0.0</ele><time>2026-05-05T14:27:29.854Z</time></trkpt><trkpt lat="36.811388" lon="10.275916"><ele>0.0</ele><time>2026-05-05T14:27:30.834Z</time></trkpt><trkpt lat="36.8114261" lon="10.2761592"><ele>0.0</ele><time>2026-05-05T14:27:31.856Z</time></trkpt><trkpt lat="36.8114634" lon="10.2763979"><ele>0.0</ele><time>2026-05-05T14:27:32.87Z</time></trkpt><trkpt lat="36.8115008" lon="10.2766336"><ele>0.0</ele><time>2026-05-05T14:27:33.853Z</time></trkpt><trkpt lat="36.8115391" lon="10.2768642"><ele>0.0</ele><time>2026-05-05T14:27:34.869Z</time></trkpt><trkpt lat="36.8115823" lon="10.2770832"><ele>0.0</ele><time>2026-05-05T14:27:35.881Z</time></trkpt><trkpt lat="36.8116277" lon="10.2772971"><ele>0.0</ele><time>2026-05-05T14:27:36.862Z</time></trkpt><trkpt lat="36.8116799" lon="10.2775037"><ele>0.0</ele><time>2026-05-05T14:27:37.874Z</time></trkpt><trkpt lat="36.8117353" lon="10.2777146"><ele>0.0</ele><time>2026-05-05T14:27:38.871Z</time></trkpt><trkpt lat="36.8118051" lon="10.2779188"><ele>0.0</ele><time>2026-05-05T14:27:39.876Z</time></trkpt><trkpt lat="36.8118864" lon="10.2781213"><ele>0.0</ele><time>2026-05-05T14:27:40.877Z</time></trkpt><trkpt lat="36.8119735" lon="10.2783167"><ele>0.0</ele><time>2026-05-05T14:27:41.864Z</time></trkpt><trkpt lat="36.8120745" lon="10.2785062"><ele>0.0</ele><time>2026-05-05T14:27:42.865Z</time></trkpt><trkpt lat="36.8121823" lon="10.2786849"><ele>0.0</ele><time>2026-05-05T14:27:43.858Z</time></trkpt><trkpt lat="36.8122967" lon="10.2788571"><ele>0.0</ele><time>2026-05-05T14:27:44.863Z</time></trkpt><trkpt lat="36.8124171" lon="10.2790217"><ele>0.0</ele><time>2026-05-05T14:27:45.828Z</time></trkpt><trkpt lat="36.8125519" lon="10.2791781"><ele>0.0</ele><time>2026-05-05T14:27:46.867Z</time></trkpt><trkpt lat="36.8126904" lon="10.2793155"><ele>0.0</ele><time>2026-05-05T14:27:47.858Z</time></trkpt><trkpt lat="36.8128382" lon="10.2794541"><ele>0.0</ele><time>2026-05-05T14:27:48.847Z</time></trkpt><trkpt lat="36.8129902" lon="10.2795858"><ele>0.0</ele><time>2026-05-05T14:27:49.88Z</time></trkpt><trkpt lat="36.8131549" lon="10.2797122"><ele>0.0</ele><time>2026-05-05T14:27:50.868Z</time></trkpt><trkpt lat="36.813316" lon="10.2798374"><ele>0.0</ele><time>2026-05-05T14:27:51.846Z</time></trkpt><trkpt lat="36.8134795" lon="10.2799654"><ele>0.0</ele><time>2026-05-05T14:27:52.871Z</time></trkpt><trkpt lat="36.8136428" lon="10.2800909"><ele>0.0</ele><time>2026-05-05T14:27:53.868Z</time></trkpt><trkpt lat="36.8138062" lon="10.2802168"><ele>0.0</ele><time>2026-05-05T14:27:54.879Z</time></trkpt><trkpt lat="36.8139703" lon="10.2803415"><ele>0.0</ele><time>2026-05-05T14:27:55.877Z</time></trkpt><trkpt lat="36.8141292" lon="10.2804752"><ele>0.0</ele><time>2026-05-05T14:27:56.86Z</time></trkpt><trkpt lat="36.8142858" lon="10.2806128"><ele>0.0</ele><time>2026-05-05T14:27:57.878Z</time></trkpt><trkpt lat="36.8144379" lon="10.2807536"><ele>0.0</ele><time>2026-05-05T14:27:58.875Z</time></trkpt><trkpt lat="36.814587" lon="10.280898"><ele>0.0</ele><time>2026-05-05T14:27:59.877Z</time></trkpt><trkpt lat="36.814738" lon="10.2810416"><ele>0.0</ele><time>2026-05-05T14:28:00.871Z</time></trkpt><trkpt lat="36.8148851" lon="10.2811895"><ele>0.0</ele><time>2026-05-05T14:28:01.871Z</time></trkpt><trkpt lat="36.8150301" lon="10.2813458"><ele>0.0</ele><time>2026-05-05T14:28:02.865Z</time></trkpt><trkpt lat="36.8151758" lon="10.28151"><ele>0.0</ele><time>2026-05-05T14:28:03.878Z</time></trkpt><trkpt lat="36.8153137" lon="10.2816723"><ele>0.0</ele><time>2026-05-05T14:28:04.873Z</time></trkpt><trkpt lat="36.8154438" lon="10.2818427"><ele>0.0</ele><time>2026-05-05T14:28:05.837Z</time></trkpt><trkpt lat="36.8155724" lon="10.2820166"><ele>0.0</ele><time>2026-05-05T14:28:06.877Z</time></trkpt><trkpt lat="36.8156972" lon="10.2821947"><ele>0.0</ele><time>2026-05-05T14:28:07.833Z</time></trkpt><trkpt lat="36.8158183" lon="10.2823797"><ele>0.0</ele><time>2026-05-05T14:28:08.873Z</time></trkpt><trkpt lat="36.8159348" lon="10.2825655"><ele>0.0</ele><time>2026-05-05T14:28:09.877Z</time></trkpt><trkpt lat="36.81605" lon="10.282756"><ele>0.0</ele><time>2026-05-05T14:28:10.877Z</time></trkpt><trkpt lat="36.8161623" lon="10.2829512"><ele>0.0</ele><time>2026-05-05T14:28:11.856Z</time></trkpt><trkpt lat="36.8162723" lon="10.2831492"><ele>0.0</ele><time>2026-05-05T14:28:12.847Z</time></trkpt><trkpt lat="36.8163762" lon="10.2833485"><ele>0.0</ele><time>2026-05-05T14:28:13.866Z</time></trkpt><trkpt lat="36.8164791" lon="10.2835495"><ele>0.0</ele><time>2026-05-05T14:28:14.872Z</time></trkpt><trkpt lat="36.8165741" lon="10.2837597"><ele>0.0</ele><time>2026-05-05T14:28:15.873Z</time></trkpt><trkpt lat="36.816667" lon="10.2839659"><ele>0.0</ele><time>2026-05-05T14:28:16.877Z</time></trkpt><trkpt lat="36.8167554" lon="10.2841766"><ele>0.0</ele><time>2026-05-05T14:28:17.873Z</time></trkpt><trkpt lat="36.8168419" lon="10.2843886"><ele>0.0</ele><time>2026-05-05T14:28:18.876Z</time></trkpt><trkpt lat="36.8169204" lon="10.2846029"><ele>0.0</ele><time>2026-05-05T14:28:19.87Z</time></trkpt><trkpt lat="36.8170038" lon="10.2848142"><ele>0.0</ele><time>2026-05-05T14:28:20.875Z</time></trkpt><trkpt lat="36.8170872" lon="10.2850286"><ele>0.0</ele><time>2026-05-05T14:28:21.876Z</time></trkpt><trkpt lat="36.8171689" lon="10.285245"><ele>0.0</ele><time>2026-05-05T14:28:22.869Z</time></trkpt><trkpt lat="36.8172488" lon="10.2854605"><ele>0.0</ele><time>2026-05-05T14:28:23.841Z</time></trkpt><trkpt lat="36.8173306" lon="10.2856763"><ele>0.0</ele><time>2026-05-05T14:28:24.858Z</time></trkpt><trkpt lat="36.817409" lon="10.2858878"><ele>0.0</ele><time>2026-05-05T14:28:25.863Z</time></trkpt><trkpt lat="36.8174905" lon="10.2861017"><ele>0.0</ele><time>2026-05-05T14:28:26.887Z</time></trkpt><trkpt lat="36.817572" lon="10.2863174"><ele>0.0</ele><time>2026-05-05T14:28:27.895Z</time></trkpt><trkpt lat="36.8176531" lon="10.2865322"><ele>0.0</ele><time>2026-05-05T14:28:28.868Z</time></trkpt><trkpt lat="36.8177338" lon="10.2867477"><ele>0.0</ele><time>2026-05-05T14:28:29.887Z</time></trkpt><trkpt lat="36.8178173" lon="10.2869611"><ele>0.0</ele><time>2026-05-05T14:28:30.889Z</time></trkpt><trkpt lat="36.817898" lon="10.2871749"><ele>0.0</ele><time>2026-05-05T14:28:31.879Z</time></trkpt><trkpt lat="36.8179774" lon="10.2873857"><ele>0.0</ele><time>2026-05-05T14:28:32.875Z</time></trkpt><trkpt lat="36.8180561" lon="10.2876007"><ele>0.0</ele><time>2026-05-05T14:28:33.862Z</time></trkpt><trkpt lat="36.8181359" lon="10.287817"><ele>0.0</ele><time>2026-05-05T14:28:34.873Z</time></trkpt><trkpt lat="36.8182127" lon="10.2880266"><ele>0.0</ele><time>2026-05-05T14:28:35.854Z</time></trkpt><trkpt lat="36.8182933" lon="10.2882406"><ele>0.0</ele><time>2026-05-05T14:28:36.863Z</time></trkpt><trkpt lat="36.8183736" lon="10.288451"><ele>0.0</ele><time>2026-05-05T14:28:37.87Z</time></trkpt><trkpt lat="36.8184562" lon="10.2886631"><ele>0.0</ele><time>2026-05-05T14:28:38.873Z</time></trkpt><trkpt lat="36.8185404" lon="10.2888841"><ele>0.0</ele><time>2026-05-05T14:28:39.867Z</time></trkpt><trkpt lat="36.81863" lon="10.2890946"><ele>0.0</ele><time>2026-05-05T14:28:40.87Z</time></trkpt><trkpt lat="36.8187152" lon="10.2893114"><ele>0.0</ele><time>2026-05-05T14:28:41.881Z</time></trkpt><trkpt lat="36.8187988" lon="10.2895208"><ele>0.0</ele><time>2026-05-05T14:28:42.832Z</time></trkpt><trkpt lat="36.8188799" lon="10.2897326"><ele>0.0</ele><time>2026-05-05T14:28:43.864Z</time></trkpt><trkpt lat="36.8189623" lon="10.2899409"><ele>0.0</ele><time>2026-05-05T14:28:44.868Z</time></trkpt><trkpt lat="36.8190422" lon="10.2901526"><ele>0.0</ele><time>2026-05-05T14:28:45.865Z</time></trkpt><trkpt lat="36.8191245" lon="10.2903654"><ele>0.0</ele><time>2026-05-05T14:28:46.881Z</time></trkpt><trkpt lat="36.81921" lon="10.2905746"><ele>0.0</ele><time>2026-05-05T14:28:47.878Z</time></trkpt><trkpt lat="36.8192906" lon="10.2907918"><ele>0.0</ele><time>2026-05-05T14:28:48.879Z</time></trkpt><trkpt lat="36.8193735" lon="10.2910021"><ele>0.0</ele><time>2026-05-05T14:28:49.867Z</time></trkpt><trkpt lat="36.819455" lon="10.2912059"><ele>0.0</ele><time>2026-05-05T14:28:50.894Z</time></trkpt><trkpt lat="36.8195315" lon="10.2913969"><ele>0.0</ele><time>2026-05-05T14:28:51.887Z</time></trkpt><trkpt lat="36.8195985" lon="10.2915682"><ele>0.0</ele><time>2026-05-05T14:28:52.889Z</time></trkpt><trkpt lat="36.8196571" lon="10.2917277"><ele>0.0</ele><time>2026-05-05T14:28:53.864Z</time></trkpt><trkpt lat="36.8197082" lon="10.2918639"><ele>0.0</ele><time>2026-05-05T14:28:54.879Z</time></trkpt><trkpt lat="36.819761" lon="10.2919918"><ele>0.0</ele><time>2026-05-05T14:28:55.872Z</time></trkpt><trkpt lat="36.8197997" lon="10.2921232"><ele>0.0</ele><time>2026-05-05T14:28:56.843Z</time></trkpt><trkpt lat="36.8198259" lon="10.2922348"><ele>0.0</ele><time>2026-05-05T14:28:57.834Z</time></trkpt><trkpt lat="36.8198419" lon="10.2923236"><ele>0.0</ele><time>2026-05-05T14:28:58.868Z</time></trkpt><trkpt lat="36.8198583" lon="10.2924515"><ele>0.0</ele><time>2026-05-05T14:29:00.872Z</time></trkpt><trkpt lat="36.8198534" lon="10.2925642"><ele>0.0</ele><time>2026-05-05T14:29:02.862Z</time></trkpt><trkpt lat="36.8198345" lon="10.292699"><ele>0.0</ele><time>2026-05-05T14:29:04.872Z</time></trkpt><trkpt lat="36.8198081" lon="10.2927779"><ele>0.0</ele><time>2026-05-05T14:29:05.864Z</time></trkpt><trkpt lat="36.8197716" lon="10.2928596"><ele>0.0</ele><time>2026-05-05T14:29:06.849Z</time></trkpt><trkpt lat="36.8197191" lon="10.2929587"><ele>0.0</ele><time>2026-05-05T14:29:07.863Z</time></trkpt><trkpt lat="36.8196605" lon="10.2930654"><ele>0.0</ele><time>2026-05-05T14:29:08.88Z</time></trkpt><trkpt lat="36.8195869" lon="10.2931688"><ele>0.0</ele><time>2026-05-05T14:29:09.874Z</time></trkpt><trkpt lat="36.8195138" lon="10.2932842"><ele>0.0</ele><time>2026-05-05T14:29:10.88Z</time></trkpt><trkpt lat="36.8194431" lon="10.2933945"><ele>0.0</ele><time>2026-05-05T14:29:11.864Z</time></trkpt><trkpt lat="36.8193728" lon="10.293503"><ele>0.0</ele><time>2026-05-05T14:29:12.869Z</time></trkpt><trkpt lat="36.8192954" lon="10.2936246"><ele>0.5</ele><time>2026-05-05T14:29:13.859Z</time></trkpt><trkpt lat="36.8192076" lon="10.2937515"><ele>1.0</ele><time>2026-05-05T14:29:14.859Z</time></trkpt><trkpt lat="36.8191217" lon="10.2938828"><ele>1.5</ele><time>2026-05-05T14:29:15.871Z</time></trkpt><trkpt lat="36.8190365" lon="10.2940252"><ele>2.0</ele><time>2026-05-05T14:29:16.865Z</time></trkpt><trkpt lat="36.818949" lon="10.2941714"><ele>2.0</ele><time>2026-05-05T14:29:17.873Z</time></trkpt><trkpt lat="36.8188586" lon="10.2943176"><ele>2.0</ele><time>2026-05-05T14:29:18.884Z</time></trkpt><trkpt lat="36.818769" lon="10.2944617"><ele>2.0</ele><time>2026-05-05T14:29:19.862Z</time></trkpt><trkpt lat="36.8186738" lon="10.2946087"><ele>2.0</ele><time>2026-05-05T14:29:20.878Z</time></trkpt><trkpt lat="36.8185761" lon="10.2947556"><ele>1.6666666666666665</ele><time>2026-05-05T14:29:21.865Z</time></trkpt><trkpt lat="36.8184796" lon="10.2949072"><ele>1.3333333333333333</ele><time>2026-05-05T14:29:22.878Z</time></trkpt><trkpt lat="36.8183858" lon="10.2950552"><ele>1.0</ele><time>2026-05-05T14:29:23.862Z</time></trkpt><trkpt lat="36.8182976" lon="10.2951984"><ele>1.0</ele><time>2026-05-05T14:29:24.838Z</time></trkpt><trkpt lat="36.8182125" lon="10.2953346"><ele>1.0</ele><time>2026-05-05T14:29:25.852Z</time></trkpt><trkpt lat="36.818125" lon="10.2954574"><ele>1.0</ele><time>2026-05-05T14:29:26.876Z</time></trkpt><trkpt lat="36.8180356" lon="10.2955604"><ele>1.0</ele><time>2026-05-05T14:29:27.883Z</time></trkpt><trkpt lat="36.8179401" lon="10.2956415"><ele>0.8</ele><time>2026-05-05T14:29:28.881Z</time></trkpt><trkpt lat="36.8178511" lon="10.2957142"><ele>0.6000000000000001</ele><time>2026-05-05T14:29:29.874Z</time></trkpt><trkpt lat="36.8177755" lon="10.2957954"><ele>0.4</ele><time>2026-05-05T14:29:30.884Z</time></trkpt><trkpt lat="36.8177212" lon="10.2959005"><ele>0.2</ele><time>2026-05-05T14:29:31.89Z</time></trkpt><trkpt lat="36.8176713" lon="10.2959998"><ele>0.0</ele><time>2026-05-05T14:29:32.883Z</time></trkpt><trkpt lat="36.8176316" lon="10.2961223"><ele>0.0</ele><time>2026-05-05T14:29:33.864Z</time></trkpt><trkpt lat="36.8175896" lon="10.2962468"><ele>0.0</ele><time>2026-05-05T14:29:34.835Z</time></trkpt><trkpt lat="36.8175393" lon="10.2963524"><ele>0.0</ele><time>2026-05-05T14:29:35.867Z</time></trkpt><trkpt lat="36.8174816" lon="10.2964475"><ele>0.0</ele><time>2026-05-05T14:29:36.867Z</time></trkpt><trkpt lat="36.817426" lon="10.2965386"><ele>0.0</ele><time>2026-05-05T14:29:37.881Z</time></trkpt><trkpt lat="36.8173742" lon="10.2966105"><ele>0.16666666666666666</ele><time>2026-05-05T14:29:38.886Z</time></trkpt><trkpt lat="36.8173276" lon="10.2966723"><ele>0.3333333333333333</ele><time>2026-05-05T14:29:39.859Z</time></trkpt><trkpt lat="36.8172606" lon="10.296785"><ele>0.5</ele><time>2026-05-05T14:29:41.871Z</time></trkpt><trkpt lat="36.8171989" lon="10.2968739"><ele>0.6666666666666666</ele><time>2026-05-05T14:29:43.862Z</time></trkpt><trkpt lat="36.8171548" lon="10.2969344"><ele>0.8333333333333333</ele><time>2026-05-05T14:29:45.874Z</time></trkpt><trkpt lat="36.8171098" lon="10.2969942"><ele>1.0</ele><time>2026-05-05T14:29:48.877Z</time></trkpt><trkpt lat="36.8170269" lon="10.297078"><ele>0.9999999999999999</ele><time>2026-05-05T14:30:31.865Z</time></trkpt><trkpt lat="36.8169608" lon="10.2971816"><ele>1.0</ele><time>2026-05-05T14:30:33.834Z</time></trkpt><trkpt lat="36.8169097" lon="10.2972649"><ele>1.0</ele><time>2026-05-05T14:30:35.879Z</time></trkpt><trkpt lat="36.8168637" lon="10.2973454"><ele>1.0</ele><time>2026-05-05T14:30:37.858Z</time></trkpt><trkpt lat="36.816829" lon="10.29742"><ele>0.9999999999999999</ele><time>2026-05-05T14:30:39.857Z</time></trkpt><trkpt lat="36.8167912" lon="10.2974928"><ele>1.0</ele><time>2026-05-05T14:30:41.827Z</time></trkpt><trkpt lat="36.8167454" lon="10.2975762"><ele>1.1666666666666665</ele><time>2026-05-05T14:30:43.861Z</time></trkpt><trkpt lat="36.8166938" lon="10.2976569"><ele>1.3333333333333333</ele><time>2026-05-05T14:30:45.857Z</time></trkpt><trkpt lat="36.8166372" lon="10.2977354"><ele>1.5</ele><time>2026-05-05T14:30:47.849Z</time></trkpt><trkpt lat="36.816587" lon="10.2978173"><ele>1.6666666666666665</ele><time>2026-05-05T14:30:49.881Z</time></trkpt><trkpt lat="36.8165386" lon="10.2978943"><ele>1.8333333333333333</ele><time>2026-05-05T14:30:51.86Z</time></trkpt><trkpt lat="36.8164845" lon="10.2979692"><ele>2.0</ele><time>2026-05-05T14:30:53.866Z</time></trkpt><trkpt lat="36.8164407" lon="10.2980339"><ele>1.8</ele><time>2026-05-05T14:30:55.859Z</time></trkpt><trkpt lat="36.816388" lon="10.2981025"><ele>1.6</ele><time>2026-05-05T14:30:57.879Z</time></trkpt><trkpt lat="36.8163048" lon="10.2982249"><ele>1.4000000000000001</ele><time>2026-05-05T14:30:59.847Z</time></trkpt><trkpt lat="36.816257" lon="10.2983103"><ele>1.2000000000000002</ele><time>2026-05-05T14:31:00.829Z</time></trkpt><trkpt lat="36.8161953" lon="10.2984056"><ele>1.0</ele><time>2026-05-05T14:31:01.872Z</time></trkpt><trkpt lat="36.81612" lon="10.2985158"><ele>1.0</ele><time>2026-05-05T14:31:02.875Z</time></trkpt><trkpt lat="36.8160523" lon="10.2986381"><ele>1.0</ele><time>2026-05-05T14:31:03.84Z</time></trkpt><trkpt lat="36.8159894" lon="10.2987509"><ele>1.0</ele><time>2026-05-05T14:31:04.851Z</time></trkpt><trkpt lat="36.8159201" lon="10.298862"><ele>1.0</ele><time>2026-05-05T14:31:05.863Z</time></trkpt><trkpt lat="36.8158485" lon="10.2989698"><ele>1.25</ele><time>2026-05-05T14:31:06.865Z</time></trkpt><trkpt lat="36.8157748" lon="10.2990729"><ele>1.5</ele><time>2026-05-05T14:31:07.861Z</time></trkpt><trkpt lat="36.8157003" lon="10.2991787"><ele>1.75</ele><time>2026-05-05T14:31:08.836Z</time></trkpt><trkpt lat="36.8156165" lon="10.2992779"><ele>2.0</ele><time>2026-05-05T14:31:09.84Z</time></trkpt><trkpt lat="36.8155292" lon="10.2993654"><ele>2.0</ele><time>2026-05-05T14:31:10.854Z</time></trkpt><trkpt lat="36.8154364" lon="10.2994506"><ele>2.0</ele><time>2026-05-05T14:31:11.864Z</time></trkpt><trkpt lat="36.8153481" lon="10.29954"><ele>2.0</ele><time>2026-05-05T14:31:12.858Z</time></trkpt><trkpt lat="36.8152658" lon="10.2996388"><ele>2.0</ele><time>2026-05-05T14:31:13.86Z</time></trkpt><trkpt lat="36.8151873" lon="10.2997433"><ele>2.0</ele><time>2026-05-05T14:31:14.87Z</time></trkpt><trkpt lat="36.8151168" lon="10.2998471"><ele>2.0</ele><time>2026-05-05T14:31:15.841Z</time></trkpt><trkpt lat="36.8150472" lon="10.2999501"><ele>2.0</ele><time>2026-05-05T14:31:16.84Z</time></trkpt><trkpt lat="36.8149761" lon="10.3000581"><ele>2.0</ele><time>2026-05-05T14:31:17.834Z</time></trkpt><trkpt lat="36.8149091" lon="10.3001671"><ele>2.0</ele><time>2026-05-05T14:31:18.872Z</time></trkpt><trkpt lat="36.8148445" lon="10.3002739"><ele>2.0</ele><time>2026-05-05T14:31:19.874Z</time></trkpt><trkpt lat="36.8147719" lon="10.3003821"><ele>2.0</ele><time>2026-05-05T14:31:20.846Z</time></trkpt><trkpt lat="36.8146983" lon="10.300494"><ele>2.0</ele><time>2026-05-05T14:31:21.865Z</time></trkpt><trkpt lat="36.8146268" lon="10.3006099"><ele>2.0</ele><time>2026-05-05T14:31:22.865Z</time></trkpt><trkpt lat="36.8145588" lon="10.3007247"><ele>2.0</ele><time>2026-05-05T14:31:23.843Z</time></trkpt><trkpt lat="36.8144892" lon="10.3008369"><ele>2.0</ele><time>2026-05-05T14:31:24.865Z</time></trkpt><trkpt lat="36.8144201" lon="10.3009489"><ele>2.0</ele><time>2026-05-05T14:31:25.839Z</time></trkpt><trkpt lat="36.8143508" lon="10.3010624"><ele>2.0</ele><time>2026-05-05T14:31:26.868Z</time></trkpt><trkpt lat="36.8142821" lon="10.3011748"><ele>2.0</ele><time>2026-05-05T14:31:27.87Z</time></trkpt><trkpt lat="36.8142228" lon="10.3012976"><ele>2.0</ele><time>2026-05-05T14:31:28.867Z</time></trkpt><trkpt lat="36.8141698" lon="10.3014216"><ele>2.0</ele><time>2026-05-05T14:31:29.884Z</time></trkpt><trkpt lat="36.8141314" lon="10.301533"><ele>2.0</ele><time>2026-05-05T14:31:30.858Z</time></trkpt><trkpt lat="36.8140936" lon="10.3016441"><ele>2.0</ele><time>2026-05-05T14:31:31.874Z</time></trkpt><trkpt lat="36.8140571" lon="10.301748"><ele>2.333333333333333</ele><time>2026-05-05T14:31:32.864Z</time></trkpt><trkpt lat="36.8140254" lon="10.301844"><ele>2.6666666666666665</ele><time>2026-05-05T14:31:33.858Z</time></trkpt><trkpt lat="36.8139913" lon="10.3019314"><ele>3.0</ele><time>2026-05-05T14:31:34.843Z</time></trkpt><trkpt lat="36.8139616" lon="10.3020073"><ele>3.333333333333333</ele><time>2026-05-05T14:31:35.864Z</time></trkpt><trkpt lat="36.8138935" lon="10.3021243"><ele>3.6666666666666665</ele><time>2026-05-05T14:31:37.877Z</time></trkpt><trkpt lat="36.8138481" lon="10.3021985"><ele>4.0</ele><time>2026-05-05T14:31:38.863Z</time></trkpt><trkpt lat="36.8137928" lon="10.3022929"><ele>4.0</ele><time>2026-05-05T14:31:39.852Z</time></trkpt><trkpt lat="36.8137318" lon="10.3024042"><ele>4.0</ele><time>2026-05-05T14:31:40.835Z</time></trkpt><trkpt lat="36.8136672" lon="10.3025254"><ele>4.0</ele><time>2026-05-05T14:31:41.866Z</time></trkpt><trkpt lat="36.8135819" lon="10.302649"><ele>4.0</ele><time>2026-05-05T14:31:42.877Z</time></trkpt><trkpt lat="36.8134937" lon="10.3027717"><ele>3.75</ele><time>2026-05-05T14:31:43.85Z</time></trkpt><trkpt lat="36.8134036" lon="10.3028904"><ele>3.5</ele><time>2026-05-05T14:31:44.866Z</time></trkpt><trkpt lat="36.8133155" lon="10.3030095"><ele>3.25</ele><time>2026-05-05T14:31:45.858Z</time></trkpt><trkpt lat="36.8132406" lon="10.3031123"><ele>3.0</ele><time>2026-05-05T14:31:46.853Z</time></trkpt><trkpt lat="36.8131715" lon="10.3032162"><ele>3.0</ele><time>2026-05-05T14:31:47.838Z</time></trkpt><trkpt lat="36.8131136" lon="10.3033155"><ele>3.0</ele><time>2026-05-05T14:31:48.874Z</time></trkpt><trkpt lat="36.8130556" lon="10.3034101"><ele>3.0</ele><time>2026-05-05T14:31:49.837Z</time></trkpt><trkpt lat="36.8130091" lon="10.303492"><ele>3.0</ele><time>2026-05-05T14:31:50.87Z</time></trkpt><trkpt lat="36.812967" lon="10.303565"><ele>3.0</ele><time>2026-05-05T14:31:51.88Z</time></trkpt><trkpt lat="36.8129194" lon="10.3036317"><ele>3.0</ele><time>2026-05-05T14:31:52.871Z</time></trkpt><trkpt lat="36.8128776" lon="10.3037028"><ele>3.0</ele><time>2026-05-05T14:31:53.862Z</time></trkpt><trkpt lat="36.8128336" lon="10.3037653"><ele>3.0</ele><time>2026-05-05T14:31:54.87Z</time></trkpt><trkpt lat="36.812791" lon="10.3038327"><ele>3.0</ele><time>2026-05-05T14:31:55.874Z</time></trkpt><trkpt lat="36.8127465" lon="10.3039002"><ele>3.0</ele><time>2026-05-05T14:31:56.874Z</time></trkpt><trkpt lat="36.8127051" lon="10.3039689"><ele>3.0</ele><time>2026-05-05T14:31:57.856Z</time></trkpt><trkpt lat="36.8126354" lon="10.3040933"><ele>3.0</ele><time>2026-05-05T14:31:59.869Z</time></trkpt><trkpt lat="36.8125617" lon="10.3041933"><ele>2.8333333333333335</ele><time>2026-05-05T14:32:01.87Z</time></trkpt><trkpt lat="36.8124709" lon="10.3042514"><ele>2.6666666666666665</ele><time>2026-05-05T14:32:03.862Z</time></trkpt><trkpt lat="36.8123629" lon="10.3042728"><ele>2.5</ele><time>2026-05-05T14:32:05.873Z</time></trkpt><trkpt lat="36.8122981" lon="10.3042672"><ele>2.333333333333333</ele><time>2026-05-05T14:32:06.876Z</time></trkpt><trkpt lat="36.8122308" lon="10.3042637"><ele>2.1666666666666665</ele><time>2026-05-05T14:32:07.889Z</time></trkpt><trkpt lat="36.812165" lon="10.30427"><ele>2.0</ele><time>2026-05-05T14:32:08.864Z</time></trkpt><trkpt lat="36.812099" lon="10.3042694"><ele>2.0</ele><time>2026-05-05T14:32:09.873Z</time></trkpt><trkpt lat="36.8119842" lon="10.3042679"><ele>2.0</ele><time>2026-05-05T14:32:11.814Z</time></trkpt><trkpt lat="36.8118739" lon="10.3042601"><ele>2.0</ele><time>2026-05-05T14:32:13.852Z</time></trkpt><trkpt lat="36.8118063" lon="10.3042345"><ele>2.0</ele><time>2026-05-05T14:32:15.879Z</time></trkpt><trkpt lat="36.8117661" lon="10.3041248"><ele>2.0</ele><time>2026-05-05T14:32:18.866Z</time></trkpt><trkpt lat="36.8118073" lon="10.3040477"><ele>2.0</ele><time>2026-05-05T14:32:20.881Z</time></trkpt><trkpt lat="36.8118807" lon="10.3039529"><ele>2.0</ele><time>2026-05-05T14:32:22.862Z</time></trkpt><trkpt lat="36.8119606" lon="10.3038362"><ele>2.0</ele><time>2026-05-05T14:32:24.858Z</time></trkpt><trkpt lat="36.812042" lon="10.3037151"><ele>2.0</ele><time>2026-05-05T14:32:26.866Z</time></trkpt><trkpt lat="36.8120846" lon="10.3036535"><ele>2.0</ele><time>2026-05-05T14:32:27.868Z</time></trkpt><trkpt lat="36.8121253" lon="10.3035862"><ele>1.9999999999999998</ele><time>2026-05-05T14:32:28.86Z</time></trkpt><trkpt lat="36.8121684" lon="10.3035122"><ele>2.0</ele><time>2026-05-05T14:32:29.868Z</time></trkpt><trkpt lat="36.8122119" lon="10.3034464"><ele>2.0</ele><time>2026-05-05T14:32:30.843Z</time></trkpt><trkpt lat="36.8122527" lon="10.3033788"><ele>2.0</ele><time>2026-05-05T14:32:31.864Z</time></trkpt><trkpt lat="36.8123286" lon="10.3032559"><ele>1.9999999999999998</ele><time>2026-05-05T14:32:33.894Z</time></trkpt><trkpt lat="36.8123675" lon="10.3031939"><ele>2.0</ele><time>2026-05-05T14:32:34.871Z</time></trkpt><trkpt lat="36.8124452" lon="10.3030657"><ele>2.1666666666666665</ele><time>2026-05-05T14:32:36.88Z</time></trkpt><trkpt lat="36.8125241" lon="10.3029309"><ele>2.333333333333333</ele><time>2026-05-05T14:32:38.825Z</time></trkpt><trkpt lat="36.8125642" lon="10.3028589"><ele>2.5</ele><time>2026-05-05T14:32:39.872Z</time></trkpt><trkpt lat="36.8126036" lon="10.3027949"><ele>2.6666666666666665</ele><time>2026-05-05T14:32:40.861Z</time></trkpt><trkpt lat="36.8126411" lon="10.3027102"><ele>2.8333333333333335</ele><time>2026-05-05T14:32:42.867Z</time></trkpt><trkpt lat="36.8125628" lon="10.3026704"><ele>3.0</ele><time>2026-05-05T14:32:46.865Z</time></trkpt><trkpt lat="36.8125193" lon="10.302733"><ele>3.0</ele><time>2026-05-05T14:32:49.873Z</time></trkpt><trkpt lat="36.8124876" lon="10.3028102"><ele>3.0</ele><time>2026-05-05T14:32:52.873Z</time></trkpt><trkpt lat="36.8124416" lon="10.3028773"><ele>3.0</ele><time>2026-05-05T14:32:56.827Z</time></trkpt><trkpt lat="36.8123886" lon="10.3029428"><ele>3.0</ele><time>2026-05-05T14:33:41.846Z</time></trkpt><trkpt lat="36.8123295" lon="10.3030243"><ele>3.0</ele><time>2026-05-05T14:33:43.844Z</time></trkpt><trkpt lat="36.8122783" lon="10.3031059"><ele>3.0</ele><time>2026-05-05T14:33:45.826Z</time></trkpt><trkpt lat="36.812235" lon="10.3031697"><ele>2.0</ele><time>2026-05-05T14:33:47.865Z</time></trkpt><trkpt lat="36.8121878" lon="10.3032341"><ele>2.0</ele><time>2026-05-05T14:33:50.872Z</time></trkpt><trkpt lat="36.8121192" lon="10.303277"><ele>2.0</ele><time>2026-05-05T14:35:19.85Z</time></trkpt></trkseg></trk></gpx>